<?xml version="1.0" encoding="UTF-8" standalone="no" ?>
<gpx xmlns="http://www.topografix.com/GPX/1/1" xmlns:xsi="http://www.w3.org/2001/XMLSchema-instance" xsi:schemaLocation="http://www.topografix.com/GPX/1/1 http://www.topografix.com/GPX/1/1/gpx.xsd" version="1.1" creator="VisuGPX - https://www.visugpx.com">
  <metadata>
    <name>2020-06-24 Reconnaissance: Le Hohwald - Le Champs du Feu</name>
    <desc><![CDATA[Reconnaissance pour ma randonnée du 6 septembre avec le club vosgien de Dossenheim.]]></desc>
  </metadata>
  <trk>
    <name><![CDATA[2020-06-24 Reconnaissance: Le Hohwald - Le Champs du Feu_1]]></name>
    <trkseg>
      <trkpt lat="48.40415" lon="7.32856">
        <ele>574</ele>
        <time>2020-06-24T06:44:12.100Z</time>
      </trkpt>
      <trkpt lat="48.40415" lon="7.32856">
        <ele>574</ele>
        <time>2020-06-24T06:44:13.101Z</time>
      </trkpt>
      <trkpt lat="48.40414" lon="7.32856">
        <ele>574</ele>
        <time>2020-06-24T06:44:14.102Z</time>
      </trkpt>
      <trkpt lat="48.40413" lon="7.32856">
        <ele>574</ele>
        <time>2020-06-24T06:44:15.102Z</time>
      </trkpt>
      <trkpt lat="48.40412" lon="7.32856">
        <ele>574</ele>
        <time>2020-06-24T06:44:16.102Z</time>
      </trkpt>
      <trkpt lat="48.40411" lon="7.32856">
        <ele>574</ele>
        <time>2020-06-24T06:44:17.101Z</time>
      </trkpt>
      <trkpt lat="48.40409" lon="7.32856">
        <ele>574</ele>
        <time>2020-06-24T06:44:18.102Z</time>
      </trkpt>
      <trkpt lat="48.40408" lon="7.32855">
        <ele>574</ele>
        <time>2020-06-24T06:44:19.101Z</time>
      </trkpt>
      <trkpt lat="48.40407" lon="7.32855">
        <ele>574</ele>
        <time>2020-06-24T06:44:20.102Z</time>
      </trkpt>
      <trkpt lat="48.40406" lon="7.32854">
        <ele>574</ele>
        <time>2020-06-24T06:44:21.101Z</time>
      </trkpt>
      <trkpt lat="48.40405" lon="7.32854">
        <ele>574</ele>
        <time>2020-06-24T06:44:22.102Z</time>
      </trkpt>
      <trkpt lat="48.40405" lon="7.32853">
        <ele>573</ele>
        <time>2020-06-24T06:44:23.102Z</time>
      </trkpt>
      <trkpt lat="48.40404" lon="7.32852">
        <ele>573</ele>
        <time>2020-06-24T06:44:24.101Z</time>
      </trkpt>
      <trkpt lat="48.40403" lon="7.3285">
        <ele>572</ele>
        <time>2020-06-24T06:44:25.102Z</time>
      </trkpt>
      <trkpt lat="48.40403" lon="7.32849">
        <ele>571</ele>
        <time>2020-06-24T06:44:26.101Z</time>
      </trkpt>
      <trkpt lat="48.40402" lon="7.32847">
        <ele>570</ele>
        <time>2020-06-24T06:44:27.102Z</time>
      </trkpt>
      <trkpt lat="48.40401" lon="7.32845">
        <ele>570</ele>
        <time>2020-06-24T06:44:28.101Z</time>
      </trkpt>
      <trkpt lat="48.404" lon="7.32844">
        <ele>570</ele>
        <time>2020-06-24T06:44:29.101Z</time>
      </trkpt>
      <trkpt lat="48.40399" lon="7.32842">
        <ele>571</ele>
        <time>2020-06-24T06:44:30.102Z</time>
      </trkpt>
      <trkpt lat="48.40398" lon="7.32841">
        <ele>571</ele>
        <time>2020-06-24T06:44:31.102Z</time>
      </trkpt>
      <trkpt lat="48.40397" lon="7.32839">
        <ele>572</ele>
        <time>2020-06-24T06:44:32.102Z</time>
      </trkpt>
      <trkpt lat="48.40396" lon="7.32838">
        <ele>572</ele>
        <time>2020-06-24T06:44:33.102Z</time>
      </trkpt>
      <trkpt lat="48.40395" lon="7.32836">
        <ele>573</ele>
        <time>2020-06-24T06:44:34.102Z</time>
      </trkpt>
      <trkpt lat="48.40394" lon="7.32835">
        <ele>573</ele>
        <time>2020-06-24T06:44:35.102Z</time>
      </trkpt>
      <trkpt lat="48.40394" lon="7.32833">
        <ele>573</ele>
        <time>2020-06-24T06:44:36.102Z</time>
      </trkpt>
      <trkpt lat="48.40394" lon="7.32832">
        <ele>574</ele>
        <time>2020-06-24T06:44:37.102Z</time>
      </trkpt>
      <trkpt lat="48.40394" lon="7.32832">
        <ele>574</ele>
        <time>2020-06-24T06:44:38.101Z</time>
      </trkpt>
      <trkpt lat="48.40395" lon="7.32831">
        <ele>574</ele>
        <time>2020-06-24T06:44:39.102Z</time>
      </trkpt>
      <trkpt lat="48.40395" lon="7.3283">
        <ele>575</ele>
        <time>2020-06-24T06:44:40.101Z</time>
      </trkpt>
      <trkpt lat="48.40395" lon="7.32829">
        <ele>575</ele>
        <time>2020-06-24T06:44:41.102Z</time>
      </trkpt>
      <trkpt lat="48.40396" lon="7.32829">
        <ele>575</ele>
        <time>2020-06-24T06:44:42.102Z</time>
      </trkpt>
      <trkpt lat="48.40396" lon="7.32828">
        <ele>574</ele>
        <time>2020-06-24T06:44:43.101Z</time>
      </trkpt>
      <trkpt lat="48.40397" lon="7.32827">
        <ele>574</ele>
        <time>2020-06-24T06:44:44.101Z</time>
      </trkpt>
      <trkpt lat="48.40398" lon="7.32826">
        <ele>573</ele>
        <time>2020-06-24T06:44:45.101Z</time>
      </trkpt>
      <trkpt lat="48.40399" lon="7.32824">
        <ele>573</ele>
        <time>2020-06-24T06:44:46.102Z</time>
      </trkpt>
      <trkpt lat="48.40399" lon="7.32823">
        <ele>573</ele>
        <time>2020-06-24T06:44:47.101Z</time>
      </trkpt>
      <trkpt lat="48.404" lon="7.32821">
        <ele>572</ele>
        <time>2020-06-24T06:44:48.102Z</time>
      </trkpt>
      <trkpt lat="48.40401" lon="7.3282">
        <ele>573</ele>
        <time>2020-06-24T06:44:49.102Z</time>
      </trkpt>
      <trkpt lat="48.40402" lon="7.32819">
        <ele>573</ele>
        <time>2020-06-24T06:44:50.102Z</time>
      </trkpt>
      <trkpt lat="48.40403" lon="7.32817">
        <ele>573</ele>
        <time>2020-06-24T06:44:51.101Z</time>
      </trkpt>
      <trkpt lat="48.40404" lon="7.32816">
        <ele>574</ele>
        <time>2020-06-24T06:44:52.102Z</time>
      </trkpt>
      <trkpt lat="48.40405" lon="7.32814">
        <ele>574</ele>
        <time>2020-06-24T06:44:53.102Z</time>
      </trkpt>
      <trkpt lat="48.40405" lon="7.32813">
        <ele>574</ele>
        <time>2020-06-24T06:44:54.101Z</time>
      </trkpt>
      <trkpt lat="48.40407" lon="7.32811">
        <ele>574</ele>
        <time>2020-06-24T06:44:55.101Z</time>
      </trkpt>
      <trkpt lat="48.40408" lon="7.32809">
        <ele>575</ele>
        <time>2020-06-24T06:44:56.102Z</time>
      </trkpt>
      <trkpt lat="48.40409" lon="7.32807">
        <ele>575</ele>
        <time>2020-06-24T06:44:57.102Z</time>
      </trkpt>
      <trkpt lat="48.4041" lon="7.32806">
        <ele>575</ele>
        <time>2020-06-24T06:44:58.102Z</time>
      </trkpt>
      <trkpt lat="48.40411" lon="7.32804">
        <ele>576</ele>
        <time>2020-06-24T06:44:59.102Z</time>
      </trkpt>
      <trkpt lat="48.40412" lon="7.32803">
        <ele>576</ele>
        <time>2020-06-24T06:45:00.102Z</time>
      </trkpt>
      <trkpt lat="48.40413" lon="7.32802">
        <ele>577</ele>
        <time>2020-06-24T06:45:01.102Z</time>
      </trkpt>
      <trkpt lat="48.40414" lon="7.328">
        <ele>578</ele>
        <time>2020-06-24T06:45:02.102Z</time>
      </trkpt>
      <trkpt lat="48.40415" lon="7.32799">
        <ele>578</ele>
        <time>2020-06-24T06:45:03.102Z</time>
      </trkpt>
      <trkpt lat="48.40416" lon="7.32797">
        <ele>579</ele>
        <time>2020-06-24T06:45:04.101Z</time>
      </trkpt>
      <trkpt lat="48.40416" lon="7.32796">
        <ele>579</ele>
        <time>2020-06-24T06:45:05.102Z</time>
      </trkpt>
      <trkpt lat="48.40417" lon="7.32794">
        <ele>579</ele>
        <time>2020-06-24T06:45:06.102Z</time>
      </trkpt>
      <trkpt lat="48.40418" lon="7.32793">
        <ele>580</ele>
        <time>2020-06-24T06:45:07.102Z</time>
      </trkpt>
      <trkpt lat="48.40418" lon="7.32792">
        <ele>580</ele>
        <time>2020-06-24T06:45:08.102Z</time>
      </trkpt>
      <trkpt lat="48.40419" lon="7.3279">
        <ele>581</ele>
        <time>2020-06-24T06:45:09.102Z</time>
      </trkpt>
      <trkpt lat="48.40419" lon="7.32789">
        <ele>581</ele>
        <time>2020-06-24T06:45:10.102Z</time>
      </trkpt>
      <trkpt lat="48.40419" lon="7.32787">
        <ele>581</ele>
        <time>2020-06-24T06:45:11.101Z</time>
      </trkpt>
      <trkpt lat="48.4042" lon="7.32785">
        <ele>581</ele>
        <time>2020-06-24T06:45:12.102Z</time>
      </trkpt>
      <trkpt lat="48.4042" lon="7.32784">
        <ele>582</ele>
        <time>2020-06-24T06:45:13.101Z</time>
      </trkpt>
      <trkpt lat="48.4042" lon="7.32782">
        <ele>582</ele>
        <time>2020-06-24T06:45:14.102Z</time>
      </trkpt>
      <trkpt lat="48.4042" lon="7.3278">
        <ele>582</ele>
        <time>2020-06-24T06:45:15.102Z</time>
      </trkpt>
      <trkpt lat="48.4042" lon="7.32778">
        <ele>582</ele>
        <time>2020-06-24T06:45:16.102Z</time>
      </trkpt>
      <trkpt lat="48.4042" lon="7.32776">
        <ele>582</ele>
        <time>2020-06-24T06:45:17.102Z</time>
      </trkpt>
      <trkpt lat="48.4042" lon="7.32774">
        <ele>582</ele>
        <time>2020-06-24T06:45:18.101Z</time>
      </trkpt>
      <trkpt lat="48.40419" lon="7.32772">
        <ele>581</ele>
        <time>2020-06-24T06:45:19.101Z</time>
      </trkpt>
      <trkpt lat="48.40419" lon="7.32771">
        <ele>581</ele>
        <time>2020-06-24T06:45:20.101Z</time>
      </trkpt>
      <trkpt lat="48.40419" lon="7.3277">
        <ele>580</ele>
        <time>2020-06-24T06:45:21.102Z</time>
      </trkpt>
      <trkpt lat="48.40419" lon="7.32768">
        <ele>579</ele>
        <time>2020-06-24T06:45:22.102Z</time>
      </trkpt>
      <trkpt lat="48.40419" lon="7.32766">
        <ele>579</ele>
        <time>2020-06-24T06:45:23.101Z</time>
      </trkpt>
      <trkpt lat="48.40419" lon="7.32764">
        <ele>578</ele>
        <time>2020-06-24T06:45:24.101Z</time>
      </trkpt>
      <trkpt lat="48.40419" lon="7.32762">
        <ele>578</ele>
        <time>2020-06-24T06:45:25.102Z</time>
      </trkpt>
      <trkpt lat="48.40418" lon="7.3276">
        <ele>578</ele>
        <time>2020-06-24T06:45:26.102Z</time>
      </trkpt>
      <trkpt lat="48.40418" lon="7.32759">
        <ele>579</ele>
        <time>2020-06-24T06:45:27.101Z</time>
      </trkpt>
      <trkpt lat="48.40418" lon="7.32757">
        <ele>579</ele>
        <time>2020-06-24T06:45:28.102Z</time>
      </trkpt>
      <trkpt lat="48.40418" lon="7.32756">
        <ele>579</ele>
        <time>2020-06-24T06:45:29.101Z</time>
      </trkpt>
      <trkpt lat="48.40417" lon="7.32754">
        <ele>579</ele>
        <time>2020-06-24T06:45:30.102Z</time>
      </trkpt>
      <trkpt lat="48.40417" lon="7.32753">
        <ele>579</ele>
        <time>2020-06-24T06:45:31.102Z</time>
      </trkpt>
      <trkpt lat="48.40417" lon="7.32752">
        <ele>580</ele>
        <time>2020-06-24T06:45:32.101Z</time>
      </trkpt>
      <trkpt lat="48.40416" lon="7.3275">
        <ele>580</ele>
        <time>2020-06-24T06:45:33.102Z</time>
      </trkpt>
      <trkpt lat="48.40416" lon="7.32748">
        <ele>580</ele>
        <time>2020-06-24T06:45:34.102Z</time>
      </trkpt>
      <trkpt lat="48.40416" lon="7.32747">
        <ele>581</ele>
        <time>2020-06-24T06:45:35.102Z</time>
      </trkpt>
      <trkpt lat="48.40416" lon="7.32745">
        <ele>581</ele>
        <time>2020-06-24T06:45:36.102Z</time>
      </trkpt>
      <trkpt lat="48.40416" lon="7.32743">
        <ele>582</ele>
        <time>2020-06-24T06:45:37.102Z</time>
      </trkpt>
      <trkpt lat="48.40416" lon="7.32741">
        <ele>582</ele>
        <time>2020-06-24T06:45:38.101Z</time>
      </trkpt>
      <trkpt lat="48.40416" lon="7.32739">
        <ele>583</ele>
        <time>2020-06-24T06:45:39.102Z</time>
      </trkpt>
      <trkpt lat="48.40416" lon="7.32737">
        <ele>583</ele>
        <time>2020-06-24T06:45:40.101Z</time>
      </trkpt>
      <trkpt lat="48.40416" lon="7.32735">
        <ele>583</ele>
        <time>2020-06-24T06:45:41.102Z</time>
      </trkpt>
      <trkpt lat="48.40416" lon="7.32734">
        <ele>583</ele>
        <time>2020-06-24T06:45:42.102Z</time>
      </trkpt>
      <trkpt lat="48.40416" lon="7.32732">
        <ele>584</ele>
        <time>2020-06-24T06:45:43.102Z</time>
      </trkpt>
      <trkpt lat="48.40416" lon="7.3273">
        <ele>584</ele>
        <time>2020-06-24T06:45:44.102Z</time>
      </trkpt>
      <trkpt lat="48.40416" lon="7.32729">
        <ele>584</ele>
        <time>2020-06-24T06:45:45.102Z</time>
      </trkpt>
      <trkpt lat="48.40416" lon="7.32727">
        <ele>584</ele>
        <time>2020-06-24T06:45:46.101Z</time>
      </trkpt>
      <trkpt lat="48.40416" lon="7.32726">
        <ele>584</ele>
        <time>2020-06-24T06:45:47.102Z</time>
      </trkpt>
      <trkpt lat="48.40416" lon="7.32724">
        <ele>585</ele>
        <time>2020-06-24T06:45:48.102Z</time>
      </trkpt>
      <trkpt lat="48.40415" lon="7.32722">
        <ele>585</ele>
        <time>2020-06-24T06:45:49.102Z</time>
      </trkpt>
      <trkpt lat="48.40415" lon="7.32721">
        <ele>586</ele>
        <time>2020-06-24T06:45:50.101Z</time>
      </trkpt>
      <trkpt lat="48.40415" lon="7.32719">
        <ele>586</ele>
        <time>2020-06-24T06:45:51.101Z</time>
      </trkpt>
      <trkpt lat="48.40415" lon="7.32717">
        <ele>586</ele>
        <time>2020-06-24T06:45:52.102Z</time>
      </trkpt>
      <trkpt lat="48.40414" lon="7.32715">
        <ele>586</ele>
        <time>2020-06-24T06:45:53.101Z</time>
      </trkpt>
      <trkpt lat="48.40414" lon="7.32714">
        <ele>586</ele>
        <time>2020-06-24T06:45:54.101Z</time>
      </trkpt>
      <trkpt lat="48.40414" lon="7.32712">
        <ele>585</ele>
        <time>2020-06-24T06:45:55.102Z</time>
      </trkpt>
      <trkpt lat="48.40414" lon="7.3271">
        <ele>585</ele>
        <time>2020-06-24T06:45:56.102Z</time>
      </trkpt>
      <trkpt lat="48.40414" lon="7.32708">
        <ele>585</ele>
        <time>2020-06-24T06:45:57.101Z</time>
      </trkpt>
      <trkpt lat="48.40414" lon="7.32706">
        <ele>584</ele>
        <time>2020-06-24T06:45:58.102Z</time>
      </trkpt>
      <trkpt lat="48.40413" lon="7.32704">
        <ele>584</ele>
        <time>2020-06-24T06:45:59.102Z</time>
      </trkpt>
      <trkpt lat="48.40413" lon="7.32702">
        <ele>583</ele>
        <time>2020-06-24T06:46:00.102Z</time>
      </trkpt>
      <trkpt lat="48.40413" lon="7.32701">
        <ele>583</ele>
        <time>2020-06-24T06:46:01.102Z</time>
      </trkpt>
      <trkpt lat="48.40413" lon="7.32699">
        <ele>583</ele>
        <time>2020-06-24T06:46:02.101Z</time>
      </trkpt>
      <trkpt lat="48.40412" lon="7.32697">
        <ele>583</ele>
        <time>2020-06-24T06:46:03.102Z</time>
      </trkpt>
      <trkpt lat="48.40412" lon="7.32695">
        <ele>583</ele>
        <time>2020-06-24T06:46:04.102Z</time>
      </trkpt>
      <trkpt lat="48.40412" lon="7.32693">
        <ele>583</ele>
        <time>2020-06-24T06:46:05.102Z</time>
      </trkpt>
      <trkpt lat="48.40412" lon="7.3269">
        <ele>584</ele>
        <time>2020-06-24T06:46:06.101Z</time>
      </trkpt>
      <trkpt lat="48.40411" lon="7.32689">
        <ele>584</ele>
        <time>2020-06-24T06:46:07.102Z</time>
      </trkpt>
      <trkpt lat="48.40411" lon="7.32686">
        <ele>584</ele>
        <time>2020-06-24T06:46:08.102Z</time>
      </trkpt>
      <trkpt lat="48.40411" lon="7.32684">
        <ele>585</ele>
        <time>2020-06-24T06:46:09.102Z</time>
      </trkpt>
      <trkpt lat="48.4041" lon="7.32683">
        <ele>585</ele>
        <time>2020-06-24T06:46:10.102Z</time>
      </trkpt>
      <trkpt lat="48.4041" lon="7.32681">
        <ele>586</ele>
        <time>2020-06-24T06:46:11.102Z</time>
      </trkpt>
      <trkpt lat="48.4041" lon="7.32678">
        <ele>586</ele>
        <time>2020-06-24T06:46:12.102Z</time>
      </trkpt>
      <trkpt lat="48.40409" lon="7.32676">
        <ele>587</ele>
        <time>2020-06-24T06:46:13.102Z</time>
      </trkpt>
      <trkpt lat="48.40409" lon="7.32674">
        <ele>588</ele>
        <time>2020-06-24T06:46:14.101Z</time>
      </trkpt>
      <trkpt lat="48.40409" lon="7.32673">
        <ele>588</ele>
        <time>2020-06-24T06:46:15.102Z</time>
      </trkpt>
      <trkpt lat="48.40409" lon="7.32671">
        <ele>588</ele>
        <time>2020-06-24T06:46:16.101Z</time>
      </trkpt>
      <trkpt lat="48.40408" lon="7.32668">
        <ele>588</ele>
        <time>2020-06-24T06:46:17.101Z</time>
      </trkpt>
      <trkpt lat="48.40408" lon="7.32666">
        <ele>588</ele>
        <time>2020-06-24T06:46:18.102Z</time>
      </trkpt>
      <trkpt lat="48.40407" lon="7.32664">
        <ele>588</ele>
        <time>2020-06-24T06:46:19.102Z</time>
      </trkpt>
      <trkpt lat="48.40407" lon="7.32662">
        <ele>588</ele>
        <time>2020-06-24T06:46:20.102Z</time>
      </trkpt>
      <trkpt lat="48.40407" lon="7.32661">
        <ele>588</ele>
        <time>2020-06-24T06:46:21.102Z</time>
      </trkpt>
      <trkpt lat="48.40406" lon="7.32659">
        <ele>588</ele>
        <time>2020-06-24T06:46:22.101Z</time>
      </trkpt>
      <trkpt lat="48.40406" lon="7.32657">
        <ele>588</ele>
        <time>2020-06-24T06:46:23.101Z</time>
      </trkpt>
      <trkpt lat="48.40406" lon="7.32655">
        <ele>588</ele>
        <time>2020-06-24T06:46:24.101Z</time>
      </trkpt>
      <trkpt lat="48.40406" lon="7.32653">
        <ele>588</ele>
        <time>2020-06-24T06:46:25.102Z</time>
      </trkpt>
      <trkpt lat="48.40406" lon="7.32651">
        <ele>588</ele>
        <time>2020-06-24T06:46:26.102Z</time>
      </trkpt>
      <trkpt lat="48.40405" lon="7.32649">
        <ele>589</ele>
        <time>2020-06-24T06:46:27.101Z</time>
      </trkpt>
      <trkpt lat="48.40405" lon="7.32647">
        <ele>590</ele>
        <time>2020-06-24T06:46:28.102Z</time>
      </trkpt>
      <trkpt lat="48.40405" lon="7.32646">
        <ele>591</ele>
        <time>2020-06-24T06:46:29.101Z</time>
      </trkpt>
      <trkpt lat="48.40405" lon="7.32644">
        <ele>591</ele>
        <time>2020-06-24T06:46:30.101Z</time>
      </trkpt>
      <trkpt lat="48.40405" lon="7.32642">
        <ele>591</ele>
        <time>2020-06-24T06:46:31.102Z</time>
      </trkpt>
      <trkpt lat="48.40405" lon="7.3264">
        <ele>591</ele>
        <time>2020-06-24T06:46:32.101Z</time>
      </trkpt>
      <trkpt lat="48.40405" lon="7.32638">
        <ele>591</ele>
        <time>2020-06-24T06:46:33.102Z</time>
      </trkpt>
      <trkpt lat="48.40406" lon="7.32636">
        <ele>591</ele>
        <time>2020-06-24T06:46:34.102Z</time>
      </trkpt>
      <trkpt lat="48.40406" lon="7.32634">
        <ele>591</ele>
        <time>2020-06-24T06:46:35.101Z</time>
      </trkpt>
      <trkpt lat="48.40406" lon="7.32632">
        <ele>591</ele>
        <time>2020-06-24T06:46:36.102Z</time>
      </trkpt>
      <trkpt lat="48.40406" lon="7.3263">
        <ele>591</ele>
        <time>2020-06-24T06:46:37.102Z</time>
      </trkpt>
      <trkpt lat="48.40407" lon="7.32628">
        <ele>591</ele>
        <time>2020-06-24T06:46:38.102Z</time>
      </trkpt>
      <trkpt lat="48.40407" lon="7.32627">
        <ele>591</ele>
        <time>2020-06-24T06:46:39.101Z</time>
      </trkpt>
      <trkpt lat="48.40408" lon="7.32625">
        <ele>591</ele>
        <time>2020-06-24T06:46:40.102Z</time>
      </trkpt>
      <trkpt lat="48.40408" lon="7.32623">
        <ele>592</ele>
        <time>2020-06-24T06:46:41.101Z</time>
      </trkpt>
      <trkpt lat="48.40409" lon="7.32621">
        <ele>592</ele>
        <time>2020-06-24T06:46:42.102Z</time>
      </trkpt>
      <trkpt lat="48.4041" lon="7.32619">
        <ele>592</ele>
        <time>2020-06-24T06:46:43.102Z</time>
      </trkpt>
      <trkpt lat="48.4041" lon="7.32617">
        <ele>593</ele>
        <time>2020-06-24T06:46:44.102Z</time>
      </trkpt>
      <trkpt lat="48.40411" lon="7.32616">
        <ele>593</ele>
        <time>2020-06-24T06:46:45.102Z</time>
      </trkpt>
      <trkpt lat="48.40412" lon="7.32615">
        <ele>593</ele>
        <time>2020-06-24T06:46:46.102Z</time>
      </trkpt>
      <trkpt lat="48.40412" lon="7.32613">
        <ele>594</ele>
        <time>2020-06-24T06:46:47.102Z</time>
      </trkpt>
      <trkpt lat="48.40413" lon="7.32611">
        <ele>594</ele>
        <time>2020-06-24T06:46:48.102Z</time>
      </trkpt>
      <trkpt lat="48.40414" lon="7.3261">
        <ele>594</ele>
        <time>2020-06-24T06:46:49.101Z</time>
      </trkpt>
      <trkpt lat="48.40414" lon="7.32607">
        <ele>595</ele>
        <time>2020-06-24T06:46:50.101Z</time>
      </trkpt>
      <trkpt lat="48.40415" lon="7.32605">
        <ele>596</ele>
        <time>2020-06-24T06:46:51.102Z</time>
      </trkpt>
      <trkpt lat="48.40416" lon="7.32603">
        <ele>598</ele>
        <time>2020-06-24T06:46:52.102Z</time>
      </trkpt>
      <trkpt lat="48.40417" lon="7.32602">
        <ele>598</ele>
        <time>2020-06-24T06:46:53.101Z</time>
      </trkpt>
      <trkpt lat="48.40418" lon="7.32601">
        <ele>598</ele>
        <time>2020-06-24T06:46:54.102Z</time>
      </trkpt>
      <trkpt lat="48.40419" lon="7.32599">
        <ele>598</ele>
        <time>2020-06-24T06:46:55.101Z</time>
      </trkpt>
      <trkpt lat="48.40419" lon="7.32598">
        <ele>599</ele>
        <time>2020-06-24T06:46:56.101Z</time>
      </trkpt>
      <trkpt lat="48.4042" lon="7.32596">
        <ele>599</ele>
        <time>2020-06-24T06:46:57.101Z</time>
      </trkpt>
      <trkpt lat="48.40421" lon="7.32595">
        <ele>599</ele>
        <time>2020-06-24T06:46:58.102Z</time>
      </trkpt>
      <trkpt lat="48.40422" lon="7.32593">
        <ele>599</ele>
        <time>2020-06-24T06:46:59.101Z</time>
      </trkpt>
      <trkpt lat="48.40423" lon="7.32592">
        <ele>599</ele>
        <time>2020-06-24T06:47:00.101Z</time>
      </trkpt>
      <trkpt lat="48.40424" lon="7.3259">
        <ele>600</ele>
        <time>2020-06-24T06:47:01.101Z</time>
      </trkpt>
      <trkpt lat="48.40425" lon="7.32589">
        <ele>600</ele>
        <time>2020-06-24T06:47:02.102Z</time>
      </trkpt>
      <trkpt lat="48.40426" lon="7.32588">
        <ele>600</ele>
        <time>2020-06-24T06:47:03.102Z</time>
      </trkpt>
      <trkpt lat="48.40427" lon="7.32587">
        <ele>600</ele>
        <time>2020-06-24T06:47:04.102Z</time>
      </trkpt>
      <trkpt lat="48.40429" lon="7.32585">
        <ele>600</ele>
        <time>2020-06-24T06:47:05.102Z</time>
      </trkpt>
      <trkpt lat="48.4043" lon="7.32584">
        <ele>600</ele>
        <time>2020-06-24T06:47:06.102Z</time>
      </trkpt>
      <trkpt lat="48.40431" lon="7.32584">
        <ele>599</ele>
        <time>2020-06-24T06:47:07.102Z</time>
      </trkpt>
      <trkpt lat="48.40432" lon="7.32583">
        <ele>599</ele>
        <time>2020-06-24T06:47:08.101Z</time>
      </trkpt>
      <trkpt lat="48.40433" lon="7.32582">
        <ele>599</ele>
        <time>2020-06-24T06:47:09.102Z</time>
      </trkpt>
      <trkpt lat="48.40435" lon="7.32581">
        <ele>599</ele>
        <time>2020-06-24T06:47:10.101Z</time>
      </trkpt>
      <trkpt lat="48.40436" lon="7.3258">
        <ele>599</ele>
        <time>2020-06-24T06:47:11.102Z</time>
      </trkpt>
      <trkpt lat="48.40437" lon="7.32578">
        <ele>600</ele>
        <time>2020-06-24T06:47:12.101Z</time>
      </trkpt>
      <trkpt lat="48.40438" lon="7.32577">
        <ele>601</ele>
        <time>2020-06-24T06:47:13.102Z</time>
      </trkpt>
      <trkpt lat="48.40439" lon="7.32576">
        <ele>601</ele>
        <time>2020-06-24T06:47:14.101Z</time>
      </trkpt>
      <trkpt lat="48.4044" lon="7.32575">
        <ele>602</ele>
        <time>2020-06-24T06:47:15.101Z</time>
      </trkpt>
      <trkpt lat="48.40441" lon="7.32574">
        <ele>603</ele>
        <time>2020-06-24T06:47:16.101Z</time>
      </trkpt>
      <trkpt lat="48.40442" lon="7.32573">
        <ele>603</ele>
        <time>2020-06-24T06:47:17.102Z</time>
      </trkpt>
      <trkpt lat="48.40443" lon="7.32572">
        <ele>604</ele>
        <time>2020-06-24T06:47:18.102Z</time>
      </trkpt>
      <trkpt lat="48.40445" lon="7.32571">
        <ele>604</ele>
        <time>2020-06-24T06:47:19.101Z</time>
      </trkpt>
      <trkpt lat="48.40446" lon="7.3257">
        <ele>604</ele>
        <time>2020-06-24T06:47:20.102Z</time>
      </trkpt>
      <trkpt lat="48.40447" lon="7.32569">
        <ele>604</ele>
        <time>2020-06-24T06:47:21.101Z</time>
      </trkpt>
      <trkpt lat="48.40448" lon="7.32568">
        <ele>604</ele>
        <time>2020-06-24T06:47:22.102Z</time>
      </trkpt>
      <trkpt lat="48.40449" lon="7.32568">
        <ele>604</ele>
        <time>2020-06-24T06:47:23.102Z</time>
      </trkpt>
      <trkpt lat="48.4045" lon="7.32567">
        <ele>604</ele>
        <time>2020-06-24T06:47:24.102Z</time>
      </trkpt>
      <trkpt lat="48.40451" lon="7.32565">
        <ele>604</ele>
        <time>2020-06-24T06:47:25.101Z</time>
      </trkpt>
      <trkpt lat="48.40453" lon="7.32564">
        <ele>604</ele>
        <time>2020-06-24T06:47:26.101Z</time>
      </trkpt>
      <trkpt lat="48.40454" lon="7.32563">
        <ele>604</ele>
        <time>2020-06-24T06:47:27.102Z</time>
      </trkpt>
      <trkpt lat="48.40455" lon="7.32562">
        <ele>604</ele>
        <time>2020-06-24T06:47:28.101Z</time>
      </trkpt>
      <trkpt lat="48.40456" lon="7.32561">
        <ele>604</ele>
        <time>2020-06-24T06:47:29.102Z</time>
      </trkpt>
      <trkpt lat="48.40457" lon="7.3256">
        <ele>604</ele>
        <time>2020-06-24T06:47:30.102Z</time>
      </trkpt>
      <trkpt lat="48.40458" lon="7.32559">
        <ele>604</ele>
        <time>2020-06-24T06:47:31.102Z</time>
      </trkpt>
      <trkpt lat="48.40459" lon="7.32558">
        <ele>605</ele>
        <time>2020-06-24T06:47:32.102Z</time>
      </trkpt>
      <trkpt lat="48.40461" lon="7.32558">
        <ele>605</ele>
        <time>2020-06-24T06:47:33.101Z</time>
      </trkpt>
      <trkpt lat="48.40462" lon="7.32557">
        <ele>605</ele>
        <time>2020-06-24T06:47:34.102Z</time>
      </trkpt>
      <trkpt lat="48.40463" lon="7.32556">
        <ele>605</ele>
        <time>2020-06-24T06:47:35.102Z</time>
      </trkpt>
      <trkpt lat="48.40464" lon="7.32555">
        <ele>605</ele>
        <time>2020-06-24T06:47:36.102Z</time>
      </trkpt>
      <trkpt lat="48.40465" lon="7.32554">
        <ele>605</ele>
        <time>2020-06-24T06:47:37.102Z</time>
      </trkpt>
      <trkpt lat="48.40467" lon="7.32553">
        <ele>605</ele>
        <time>2020-06-24T06:47:38.102Z</time>
      </trkpt>
      <trkpt lat="48.40468" lon="7.32552">
        <ele>606</ele>
        <time>2020-06-24T06:47:39.102Z</time>
      </trkpt>
      <trkpt lat="48.40469" lon="7.32552">
        <ele>606</ele>
        <time>2020-06-24T06:47:40.102Z</time>
      </trkpt>
      <trkpt lat="48.4047" lon="7.32551">
        <ele>606</ele>
        <time>2020-06-24T06:47:41.102Z</time>
      </trkpt>
      <trkpt lat="48.40471" lon="7.3255">
        <ele>606</ele>
        <time>2020-06-24T06:47:42.102Z</time>
      </trkpt>
      <trkpt lat="48.40473" lon="7.32549">
        <ele>606</ele>
        <time>2020-06-24T06:47:43.101Z</time>
      </trkpt>
      <trkpt lat="48.40474" lon="7.32548">
        <ele>607</ele>
        <time>2020-06-24T06:47:44.102Z</time>
      </trkpt>
      <trkpt lat="48.40475" lon="7.32546">
        <ele>607</ele>
        <time>2020-06-24T06:47:45.101Z</time>
      </trkpt>
      <trkpt lat="48.40476" lon="7.32545">
        <ele>607</ele>
        <time>2020-06-24T06:47:46.102Z</time>
      </trkpt>
      <trkpt lat="48.40477" lon="7.32544">
        <ele>608</ele>
        <time>2020-06-24T06:47:47.102Z</time>
      </trkpt>
      <trkpt lat="48.40478" lon="7.32543">
        <ele>608</ele>
        <time>2020-06-24T06:47:48.101Z</time>
      </trkpt>
      <trkpt lat="48.40479" lon="7.32542">
        <ele>608</ele>
        <time>2020-06-24T06:47:49.102Z</time>
      </trkpt>
      <trkpt lat="48.4048" lon="7.32542">
        <ele>608</ele>
        <time>2020-06-24T06:47:50.102Z</time>
      </trkpt>
      <trkpt lat="48.40481" lon="7.32541">
        <ele>608</ele>
        <time>2020-06-24T06:47:51.102Z</time>
      </trkpt>
      <trkpt lat="48.40482" lon="7.3254">
        <ele>609</ele>
        <time>2020-06-24T06:47:52.102Z</time>
      </trkpt>
      <trkpt lat="48.40484" lon="7.32539">
        <ele>609</ele>
        <time>2020-06-24T06:47:53.102Z</time>
      </trkpt>
      <trkpt lat="48.40485" lon="7.32538">
        <ele>610</ele>
        <time>2020-06-24T06:47:54.102Z</time>
      </trkpt>
      <trkpt lat="48.40486" lon="7.32538">
        <ele>610</ele>
        <time>2020-06-24T06:47:55.102Z</time>
      </trkpt>
      <trkpt lat="48.40487" lon="7.32537">
        <ele>610</ele>
        <time>2020-06-24T06:47:56.102Z</time>
      </trkpt>
      <trkpt lat="48.40488" lon="7.32536">
        <ele>610</ele>
        <time>2020-06-24T06:47:57.102Z</time>
      </trkpt>
      <trkpt lat="48.40489" lon="7.32535">
        <ele>611</ele>
        <time>2020-06-24T06:47:58.102Z</time>
      </trkpt>
      <trkpt lat="48.4049" lon="7.32534">
        <ele>611</ele>
        <time>2020-06-24T06:47:59.102Z</time>
      </trkpt>
      <trkpt lat="48.40491" lon="7.32533">
        <ele>611</ele>
        <time>2020-06-24T06:48:00.102Z</time>
      </trkpt>
      <trkpt lat="48.40492" lon="7.32533">
        <ele>611</ele>
        <time>2020-06-24T06:48:01.101Z</time>
      </trkpt>
      <trkpt lat="48.40493" lon="7.32532">
        <ele>611</ele>
        <time>2020-06-24T06:48:02.102Z</time>
      </trkpt>
      <trkpt lat="48.40494" lon="7.32531">
        <ele>611</ele>
        <time>2020-06-24T06:48:03.102Z</time>
      </trkpt>
      <trkpt lat="48.40495" lon="7.3253">
        <ele>611</ele>
        <time>2020-06-24T06:48:04.101Z</time>
      </trkpt>
      <trkpt lat="48.40496" lon="7.32528">
        <ele>612</ele>
        <time>2020-06-24T06:48:05.102Z</time>
      </trkpt>
      <trkpt lat="48.40498" lon="7.32527">
        <ele>612</ele>
        <time>2020-06-24T06:48:06.101Z</time>
      </trkpt>
      <trkpt lat="48.40499" lon="7.32526">
        <ele>612</ele>
        <time>2020-06-24T06:48:07.102Z</time>
      </trkpt>
      <trkpt lat="48.405" lon="7.32524">
        <ele>613</ele>
        <time>2020-06-24T06:48:08.102Z</time>
      </trkpt>
      <trkpt lat="48.40501" lon="7.32523">
        <ele>614</ele>
        <time>2020-06-24T06:48:09.101Z</time>
      </trkpt>
      <trkpt lat="48.40502" lon="7.32522">
        <ele>614</ele>
        <time>2020-06-24T06:48:10.101Z</time>
      </trkpt>
      <trkpt lat="48.40503" lon="7.32521">
        <ele>614</ele>
        <time>2020-06-24T06:48:11.102Z</time>
      </trkpt>
      <trkpt lat="48.40504" lon="7.3252">
        <ele>614</ele>
        <time>2020-06-24T06:48:12.101Z</time>
      </trkpt>
      <trkpt lat="48.40505" lon="7.32519">
        <ele>614</ele>
        <time>2020-06-24T06:48:13.101Z</time>
      </trkpt>
      <trkpt lat="48.40506" lon="7.32517">
        <ele>614</ele>
        <time>2020-06-24T06:48:14.102Z</time>
      </trkpt>
      <trkpt lat="48.40508" lon="7.32516">
        <ele>614</ele>
        <time>2020-06-24T06:48:15.101Z</time>
      </trkpt>
      <trkpt lat="48.40509" lon="7.32515">
        <ele>614</ele>
        <time>2020-06-24T06:48:16.101Z</time>
      </trkpt>
      <trkpt lat="48.4051" lon="7.32513">
        <ele>614</ele>
        <time>2020-06-24T06:48:17.101Z</time>
      </trkpt>
      <trkpt lat="48.40511" lon="7.32512">
        <ele>615</ele>
        <time>2020-06-24T06:48:18.101Z</time>
      </trkpt>
      <trkpt lat="48.40512" lon="7.3251">
        <ele>615</ele>
        <time>2020-06-24T06:48:19.101Z</time>
      </trkpt>
      <trkpt lat="48.40513" lon="7.32509">
        <ele>615</ele>
        <time>2020-06-24T06:48:20.101Z</time>
      </trkpt>
      <trkpt lat="48.40514" lon="7.32507">
        <ele>615</ele>
        <time>2020-06-24T06:48:21.101Z</time>
      </trkpt>
      <trkpt lat="48.40515" lon="7.32505">
        <ele>615</ele>
        <time>2020-06-24T06:48:22.101Z</time>
      </trkpt>
      <trkpt lat="48.40516" lon="7.32504">
        <ele>614</ele>
        <time>2020-06-24T06:48:23.102Z</time>
      </trkpt>
      <trkpt lat="48.40517" lon="7.32503">
        <ele>614</ele>
        <time>2020-06-24T06:48:24.102Z</time>
      </trkpt>
      <trkpt lat="48.40518" lon="7.32501">
        <ele>613</ele>
        <time>2020-06-24T06:48:25.102Z</time>
      </trkpt>
      <trkpt lat="48.40519" lon="7.325">
        <ele>614</ele>
        <time>2020-06-24T06:48:26.101Z</time>
      </trkpt>
      <trkpt lat="48.40519" lon="7.32498">
        <ele>614</ele>
        <time>2020-06-24T06:48:27.102Z</time>
      </trkpt>
      <trkpt lat="48.4052" lon="7.32497">
        <ele>614</ele>
        <time>2020-06-24T06:48:28.102Z</time>
      </trkpt>
      <trkpt lat="48.40521" lon="7.32496">
        <ele>615</ele>
        <time>2020-06-24T06:48:29.102Z</time>
      </trkpt>
      <trkpt lat="48.40522" lon="7.32494">
        <ele>615</ele>
        <time>2020-06-24T06:48:30.101Z</time>
      </trkpt>
      <trkpt lat="48.40523" lon="7.32493">
        <ele>615</ele>
        <time>2020-06-24T06:48:31.102Z</time>
      </trkpt>
      <trkpt lat="48.40524" lon="7.32491">
        <ele>615</ele>
        <time>2020-06-24T06:48:32.102Z</time>
      </trkpt>
      <trkpt lat="48.40525" lon="7.3249">
        <ele>616</ele>
        <time>2020-06-24T06:48:33.102Z</time>
      </trkpt>
      <trkpt lat="48.40526" lon="7.32488">
        <ele>616</ele>
        <time>2020-06-24T06:48:34.102Z</time>
      </trkpt>
      <trkpt lat="48.40527" lon="7.32487">
        <ele>616</ele>
        <time>2020-06-24T06:48:35.101Z</time>
      </trkpt>
      <trkpt lat="48.40528" lon="7.32485">
        <ele>616</ele>
        <time>2020-06-24T06:48:36.101Z</time>
      </trkpt>
      <trkpt lat="48.40529" lon="7.32484">
        <ele>616</ele>
        <time>2020-06-24T06:48:37.102Z</time>
      </trkpt>
      <trkpt lat="48.4053" lon="7.32483">
        <ele>616</ele>
        <time>2020-06-24T06:48:38.101Z</time>
      </trkpt>
      <trkpt lat="48.40531" lon="7.32482">
        <ele>616</ele>
        <time>2020-06-24T06:48:39.102Z</time>
      </trkpt>
      <trkpt lat="48.40532" lon="7.3248">
        <ele>616</ele>
        <time>2020-06-24T06:48:40.102Z</time>
      </trkpt>
      <trkpt lat="48.40533" lon="7.32478">
        <ele>616</ele>
        <time>2020-06-24T06:48:41.101Z</time>
      </trkpt>
      <trkpt lat="48.40534" lon="7.32477">
        <ele>616</ele>
        <time>2020-06-24T06:48:42.102Z</time>
      </trkpt>
      <trkpt lat="48.40535" lon="7.32476">
        <ele>616</ele>
        <time>2020-06-24T06:48:43.101Z</time>
      </trkpt>
      <trkpt lat="48.40536" lon="7.32475">
        <ele>616</ele>
        <time>2020-06-24T06:48:44.102Z</time>
      </trkpt>
      <trkpt lat="48.40536" lon="7.32473">
        <ele>616</ele>
        <time>2020-06-24T06:48:45.102Z</time>
      </trkpt>
      <trkpt lat="48.40537" lon="7.32472">
        <ele>616</ele>
        <time>2020-06-24T06:48:46.102Z</time>
      </trkpt>
      <trkpt lat="48.40538" lon="7.3247">
        <ele>617</ele>
        <time>2020-06-24T06:48:47.102Z</time>
      </trkpt>
      <trkpt lat="48.40539" lon="7.32469">
        <ele>617</ele>
        <time>2020-06-24T06:48:48.101Z</time>
      </trkpt>
      <trkpt lat="48.4054" lon="7.32467">
        <ele>617</ele>
        <time>2020-06-24T06:48:49.102Z</time>
      </trkpt>
      <trkpt lat="48.40541" lon="7.32465">
        <ele>618</ele>
        <time>2020-06-24T06:48:50.102Z</time>
      </trkpt>
      <trkpt lat="48.40541" lon="7.32464">
        <ele>618</ele>
        <time>2020-06-24T06:48:51.101Z</time>
      </trkpt>
      <trkpt lat="48.40542" lon="7.32462">
        <ele>619</ele>
        <time>2020-06-24T06:48:52.102Z</time>
      </trkpt>
      <trkpt lat="48.40543" lon="7.32461">
        <ele>619</ele>
        <time>2020-06-24T06:48:53.101Z</time>
      </trkpt>
      <trkpt lat="48.40544" lon="7.32459">
        <ele>620</ele>
        <time>2020-06-24T06:48:54.102Z</time>
      </trkpt>
      <trkpt lat="48.40545" lon="7.32458">
        <ele>620</ele>
        <time>2020-06-24T06:48:55.101Z</time>
      </trkpt>
      <trkpt lat="48.40546" lon="7.32456">
        <ele>620</ele>
        <time>2020-06-24T06:48:56.101Z</time>
      </trkpt>
      <trkpt lat="48.40547" lon="7.32454">
        <ele>620</ele>
        <time>2020-06-24T06:48:57.102Z</time>
      </trkpt>
      <trkpt lat="48.40548" lon="7.32453">
        <ele>620</ele>
        <time>2020-06-24T06:48:58.101Z</time>
      </trkpt>
      <trkpt lat="48.40549" lon="7.32451">
        <ele>620</ele>
        <time>2020-06-24T06:48:59.101Z</time>
      </trkpt>
      <trkpt lat="48.4055" lon="7.3245">
        <ele>621</ele>
        <time>2020-06-24T06:49:00.101Z</time>
      </trkpt>
      <trkpt lat="48.40551" lon="7.32448">
        <ele>621</ele>
        <time>2020-06-24T06:49:01.102Z</time>
      </trkpt>
      <trkpt lat="48.40552" lon="7.32447">
        <ele>621</ele>
        <time>2020-06-24T06:49:02.102Z</time>
      </trkpt>
      <trkpt lat="48.40553" lon="7.32446">
        <ele>621</ele>
        <time>2020-06-24T06:49:03.101Z</time>
      </trkpt>
      <trkpt lat="48.40554" lon="7.32445">
        <ele>621</ele>
        <time>2020-06-24T06:49:04.102Z</time>
      </trkpt>
      <trkpt lat="48.40555" lon="7.32444">
        <ele>620</ele>
        <time>2020-06-24T06:49:05.102Z</time>
      </trkpt>
      <trkpt lat="48.40556" lon="7.32442">
        <ele>620</ele>
        <time>2020-06-24T06:49:06.102Z</time>
      </trkpt>
      <trkpt lat="48.40557" lon="7.32441">
        <ele>620</ele>
        <time>2020-06-24T06:49:07.102Z</time>
      </trkpt>
      <trkpt lat="48.40558" lon="7.3244">
        <ele>620</ele>
        <time>2020-06-24T06:49:08.101Z</time>
      </trkpt>
      <trkpt lat="48.40559" lon="7.32438">
        <ele>620</ele>
        <time>2020-06-24T06:49:09.102Z</time>
      </trkpt>
      <trkpt lat="48.4056" lon="7.32436">
        <ele>620</ele>
        <time>2020-06-24T06:49:10.102Z</time>
      </trkpt>
      <trkpt lat="48.40561" lon="7.32435">
        <ele>620</ele>
        <time>2020-06-24T06:49:11.101Z</time>
      </trkpt>
      <trkpt lat="48.40562" lon="7.32433">
        <ele>620</ele>
        <time>2020-06-24T06:49:12.102Z</time>
      </trkpt>
      <trkpt lat="48.40563" lon="7.32431">
        <ele>620</ele>
        <time>2020-06-24T06:49:13.102Z</time>
      </trkpt>
      <trkpt lat="48.40564" lon="7.32429">
        <ele>621</ele>
        <time>2020-06-24T06:49:14.102Z</time>
      </trkpt>
      <trkpt lat="48.40565" lon="7.32428">
        <ele>621</ele>
        <time>2020-06-24T06:49:15.102Z</time>
      </trkpt>
      <trkpt lat="48.40566" lon="7.32428">
        <ele>621</ele>
        <time>2020-06-24T06:49:16.102Z</time>
      </trkpt>
      <trkpt lat="48.40568" lon="7.32428">
        <ele>621</ele>
        <time>2020-06-24T06:49:17.102Z</time>
      </trkpt>
      <trkpt lat="48.40569" lon="7.32427">
        <ele>621</ele>
        <time>2020-06-24T06:49:18.102Z</time>
      </trkpt>
      <trkpt lat="48.40571" lon="7.32425">
        <ele>621</ele>
        <time>2020-06-24T06:49:19.101Z</time>
      </trkpt>
      <trkpt lat="48.40572" lon="7.32422">
        <ele>621</ele>
        <time>2020-06-24T06:49:20.102Z</time>
      </trkpt>
      <trkpt lat="48.40572" lon="7.32419">
        <ele>622</ele>
        <time>2020-06-24T06:49:21.102Z</time>
      </trkpt>
      <trkpt lat="48.40573" lon="7.32417">
        <ele>622</ele>
        <time>2020-06-24T06:49:22.102Z</time>
      </trkpt>
      <trkpt lat="48.40574" lon="7.32416">
        <ele>622</ele>
        <time>2020-06-24T06:49:23.102Z</time>
      </trkpt>
      <trkpt lat="48.40575" lon="7.32414">
        <ele>623</ele>
        <time>2020-06-24T06:49:24.101Z</time>
      </trkpt>
      <trkpt lat="48.40575" lon="7.32412">
        <ele>623</ele>
        <time>2020-06-24T06:49:25.101Z</time>
      </trkpt>
      <trkpt lat="48.40576" lon="7.32411">
        <ele>622</ele>
        <time>2020-06-24T06:49:26.101Z</time>
      </trkpt>
      <trkpt lat="48.40577" lon="7.32409">
        <ele>622</ele>
        <time>2020-06-24T06:49:27.102Z</time>
      </trkpt>
      <trkpt lat="48.40578" lon="7.32408">
        <ele>621</ele>
        <time>2020-06-24T06:49:28.101Z</time>
      </trkpt>
      <trkpt lat="48.4058" lon="7.32407">
        <ele>621</ele>
        <time>2020-06-24T06:49:29.101Z</time>
      </trkpt>
      <trkpt lat="48.4058" lon="7.32406">
        <ele>621</ele>
        <time>2020-06-24T06:49:30.101Z</time>
      </trkpt>
      <trkpt lat="48.40581" lon="7.32405">
        <ele>621</ele>
        <time>2020-06-24T06:49:31.102Z</time>
      </trkpt>
      <trkpt lat="48.40582" lon="7.32404">
        <ele>621</ele>
        <time>2020-06-24T06:49:32.102Z</time>
      </trkpt>
      <trkpt lat="48.40583" lon="7.32403">
        <ele>621</ele>
        <time>2020-06-24T06:49:33.102Z</time>
      </trkpt>
      <trkpt lat="48.40583" lon="7.32401">
        <ele>621</ele>
        <time>2020-06-24T06:49:34.101Z</time>
      </trkpt>
      <trkpt lat="48.40585" lon="7.324">
        <ele>621</ele>
        <time>2020-06-24T06:49:35.102Z</time>
      </trkpt>
      <trkpt lat="48.40585" lon="7.32398">
        <ele>621</ele>
        <time>2020-06-24T06:49:36.101Z</time>
      </trkpt>
      <trkpt lat="48.40587" lon="7.32397">
        <ele>621</ele>
        <time>2020-06-24T06:49:37.101Z</time>
      </trkpt>
      <trkpt lat="48.40588" lon="7.32396">
        <ele>621</ele>
        <time>2020-06-24T06:49:38.101Z</time>
      </trkpt>
      <trkpt lat="48.4059" lon="7.32395">
        <ele>621</ele>
        <time>2020-06-24T06:49:39.102Z</time>
      </trkpt>
      <trkpt lat="48.40592" lon="7.32394">
        <ele>621</ele>
        <time>2020-06-24T06:49:40.102Z</time>
      </trkpt>
      <trkpt lat="48.40593" lon="7.32393">
        <ele>621</ele>
        <time>2020-06-24T06:49:41.102Z</time>
      </trkpt>
      <trkpt lat="48.40594" lon="7.32392">
        <ele>621</ele>
        <time>2020-06-24T06:49:42.101Z</time>
      </trkpt>
      <trkpt lat="48.40596" lon="7.32391">
        <ele>621</ele>
        <time>2020-06-24T06:49:43.101Z</time>
      </trkpt>
      <trkpt lat="48.40596" lon="7.32389">
        <ele>620</ele>
        <time>2020-06-24T06:49:44.101Z</time>
      </trkpt>
      <trkpt lat="48.40597" lon="7.32388">
        <ele>620</ele>
        <time>2020-06-24T06:49:45.101Z</time>
      </trkpt>
      <trkpt lat="48.40598" lon="7.32385">
        <ele>620</ele>
        <time>2020-06-24T06:49:46.102Z</time>
      </trkpt>
      <trkpt lat="48.40599" lon="7.32384">
        <ele>620</ele>
        <time>2020-06-24T06:49:47.102Z</time>
      </trkpt>
      <trkpt lat="48.406" lon="7.32382">
        <ele>620</ele>
        <time>2020-06-24T06:49:48.102Z</time>
      </trkpt>
      <trkpt lat="48.40601" lon="7.3238">
        <ele>620</ele>
        <time>2020-06-24T06:49:49.101Z</time>
      </trkpt>
      <trkpt lat="48.40602" lon="7.3238">
        <ele>620</ele>
        <time>2020-06-24T06:49:50.101Z</time>
      </trkpt>
      <trkpt lat="48.40603" lon="7.32378">
        <ele>620</ele>
        <time>2020-06-24T06:49:51.102Z</time>
      </trkpt>
      <trkpt lat="48.40605" lon="7.32376">
        <ele>620</ele>
        <time>2020-06-24T06:49:52.102Z</time>
      </trkpt>
      <trkpt lat="48.40605" lon="7.32374">
        <ele>621</ele>
        <time>2020-06-24T06:49:53.102Z</time>
      </trkpt>
      <trkpt lat="48.40607" lon="7.32372">
        <ele>622</ele>
        <time>2020-06-24T06:49:54.102Z</time>
      </trkpt>
      <trkpt lat="48.40608" lon="7.32371">
        <ele>622</ele>
        <time>2020-06-24T06:49:55.102Z</time>
      </trkpt>
      <trkpt lat="48.40609" lon="7.32369">
        <ele>623</ele>
        <time>2020-06-24T06:49:56.102Z</time>
      </trkpt>
      <trkpt lat="48.4061" lon="7.32368">
        <ele>624</ele>
        <time>2020-06-24T06:49:57.101Z</time>
      </trkpt>
      <trkpt lat="48.40611" lon="7.32367">
        <ele>625</ele>
        <time>2020-06-24T06:49:58.101Z</time>
      </trkpt>
      <trkpt lat="48.40612" lon="7.32365">
        <ele>626</ele>
        <time>2020-06-24T06:49:59.101Z</time>
      </trkpt>
      <trkpt lat="48.40613" lon="7.32363">
        <ele>627</ele>
        <time>2020-06-24T06:50:00.102Z</time>
      </trkpt>
      <trkpt lat="48.40614" lon="7.32362">
        <ele>628</ele>
        <time>2020-06-24T06:50:01.102Z</time>
      </trkpt>
      <trkpt lat="48.40615" lon="7.3236">
        <ele>628</ele>
        <time>2020-06-24T06:50:02.102Z</time>
      </trkpt>
      <trkpt lat="48.40615" lon="7.32358">
        <ele>629</ele>
        <time>2020-06-24T06:50:03.102Z</time>
      </trkpt>
      <trkpt lat="48.40616" lon="7.32357">
        <ele>629</ele>
        <time>2020-06-24T06:50:04.101Z</time>
      </trkpt>
      <trkpt lat="48.40617" lon="7.32357">
        <ele>629</ele>
        <time>2020-06-24T06:50:05.102Z</time>
      </trkpt>
      <trkpt lat="48.40618" lon="7.32356">
        <ele>627</ele>
        <time>2020-06-24T06:50:06.102Z</time>
      </trkpt>
      <trkpt lat="48.40618" lon="7.32355">
        <ele>626</ele>
        <time>2020-06-24T06:50:07.102Z</time>
      </trkpt>
      <trkpt lat="48.40619" lon="7.32354">
        <ele>625</ele>
        <time>2020-06-24T06:50:08.101Z</time>
      </trkpt>
      <trkpt lat="48.4062" lon="7.32353">
        <ele>625</ele>
        <time>2020-06-24T06:50:09.102Z</time>
      </trkpt>
      <trkpt lat="48.40621" lon="7.32352">
        <ele>624</ele>
        <time>2020-06-24T06:50:10.102Z</time>
      </trkpt>
      <trkpt lat="48.40622" lon="7.3235">
        <ele>624</ele>
        <time>2020-06-24T06:50:11.102Z</time>
      </trkpt>
      <trkpt lat="48.40623" lon="7.32349">
        <ele>623</ele>
        <time>2020-06-24T06:50:12.102Z</time>
      </trkpt>
      <trkpt lat="48.40624" lon="7.32348">
        <ele>623</ele>
        <time>2020-06-24T06:50:13.102Z</time>
      </trkpt>
      <trkpt lat="48.40625" lon="7.32347">
        <ele>622</ele>
        <time>2020-06-24T06:50:14.101Z</time>
      </trkpt>
      <trkpt lat="48.40626" lon="7.32346">
        <ele>622</ele>
        <time>2020-06-24T06:50:15.102Z</time>
      </trkpt>
      <trkpt lat="48.40627" lon="7.32344">
        <ele>622</ele>
        <time>2020-06-24T06:50:16.102Z</time>
      </trkpt>
      <trkpt lat="48.40628" lon="7.32343">
        <ele>622</ele>
        <time>2020-06-24T06:50:17.102Z</time>
      </trkpt>
      <trkpt lat="48.40629" lon="7.32342">
        <ele>622</ele>
        <time>2020-06-24T06:50:18.102Z</time>
      </trkpt>
      <trkpt lat="48.40629" lon="7.3234">
        <ele>622</ele>
        <time>2020-06-24T06:50:19.102Z</time>
      </trkpt>
      <trkpt lat="48.4063" lon="7.32339">
        <ele>622</ele>
        <time>2020-06-24T06:50:20.102Z</time>
      </trkpt>
      <trkpt lat="48.40632" lon="7.32338">
        <ele>622</ele>
        <time>2020-06-24T06:50:21.102Z</time>
      </trkpt>
      <trkpt lat="48.40633" lon="7.32337">
        <ele>622</ele>
        <time>2020-06-24T06:50:22.101Z</time>
      </trkpt>
      <trkpt lat="48.40634" lon="7.32336">
        <ele>622</ele>
        <time>2020-06-24T06:50:23.102Z</time>
      </trkpt>
      <trkpt lat="48.40635" lon="7.32335">
        <ele>623</ele>
        <time>2020-06-24T06:50:24.102Z</time>
      </trkpt>
      <trkpt lat="48.40635" lon="7.32334">
        <ele>623</ele>
        <time>2020-06-24T06:50:25.102Z</time>
      </trkpt>
      <trkpt lat="48.40636" lon="7.32333">
        <ele>623</ele>
        <time>2020-06-24T06:50:26.102Z</time>
      </trkpt>
      <trkpt lat="48.40637" lon="7.32332">
        <ele>623</ele>
        <time>2020-06-24T06:50:27.102Z</time>
      </trkpt>
      <trkpt lat="48.40639" lon="7.32331">
        <ele>623</ele>
        <time>2020-06-24T06:50:28.101Z</time>
      </trkpt>
      <trkpt lat="48.4064" lon="7.3233">
        <ele>623</ele>
        <time>2020-06-24T06:50:29.101Z</time>
      </trkpt>
      <trkpt lat="48.4064" lon="7.32329">
        <ele>623</ele>
        <time>2020-06-24T06:50:30.101Z</time>
      </trkpt>
      <trkpt lat="48.40641" lon="7.32328">
        <ele>622</ele>
        <time>2020-06-24T06:50:31.102Z</time>
      </trkpt>
      <trkpt lat="48.40642" lon="7.32327">
        <ele>622</ele>
        <time>2020-06-24T06:50:32.101Z</time>
      </trkpt>
      <trkpt lat="48.40643" lon="7.32326">
        <ele>621</ele>
        <time>2020-06-24T06:50:33.101Z</time>
      </trkpt>
      <trkpt lat="48.40644" lon="7.32326">
        <ele>620</ele>
        <time>2020-06-24T06:50:34.101Z</time>
      </trkpt>
      <trkpt lat="48.40645" lon="7.32325">
        <ele>620</ele>
        <time>2020-06-24T06:50:35.101Z</time>
      </trkpt>
      <trkpt lat="48.40646" lon="7.32324">
        <ele>619</ele>
        <time>2020-06-24T06:50:36.101Z</time>
      </trkpt>
      <trkpt lat="48.40647" lon="7.32324">
        <ele>619</ele>
        <time>2020-06-24T06:50:37.101Z</time>
      </trkpt>
      <trkpt lat="48.40648" lon="7.32323">
        <ele>619</ele>
        <time>2020-06-24T06:50:38.102Z</time>
      </trkpt>
      <trkpt lat="48.40649" lon="7.32322">
        <ele>619</ele>
        <time>2020-06-24T06:50:39.102Z</time>
      </trkpt>
      <trkpt lat="48.4065" lon="7.32321">
        <ele>619</ele>
        <time>2020-06-24T06:50:40.102Z</time>
      </trkpt>
      <trkpt lat="48.40651" lon="7.3232">
        <ele>619</ele>
        <time>2020-06-24T06:50:41.102Z</time>
      </trkpt>
      <trkpt lat="48.40652" lon="7.32319">
        <ele>620</ele>
        <time>2020-06-24T06:50:42.101Z</time>
      </trkpt>
      <trkpt lat="48.40653" lon="7.32318">
        <ele>620</ele>
        <time>2020-06-24T06:50:43.102Z</time>
      </trkpt>
      <trkpt lat="48.40654" lon="7.32317">
        <ele>621</ele>
        <time>2020-06-24T06:50:44.102Z</time>
      </trkpt>
      <trkpt lat="48.40656" lon="7.32316">
        <ele>621</ele>
        <time>2020-06-24T06:50:45.102Z</time>
      </trkpt>
      <trkpt lat="48.40657" lon="7.32315">
        <ele>622</ele>
        <time>2020-06-24T06:50:46.102Z</time>
      </trkpt>
      <trkpt lat="48.40658" lon="7.32314">
        <ele>623</ele>
        <time>2020-06-24T06:50:47.102Z</time>
      </trkpt>
      <trkpt lat="48.40658" lon="7.32312">
        <ele>624</ele>
        <time>2020-06-24T06:50:48.102Z</time>
      </trkpt>
      <trkpt lat="48.40658" lon="7.32311">
        <ele>624</ele>
        <time>2020-06-24T06:50:49.102Z</time>
      </trkpt>
      <trkpt lat="48.40659" lon="7.32311">
        <ele>625</ele>
        <time>2020-06-24T06:50:50.102Z</time>
      </trkpt>
      <trkpt lat="48.4066" lon="7.3231">
        <ele>626</ele>
        <time>2020-06-24T06:50:51.101Z</time>
      </trkpt>
      <trkpt lat="48.40664" lon="7.32313">
        <ele>621</ele>
        <time>2020-06-24T06:50:52.102Z</time>
      </trkpt>
      <trkpt lat="48.40664" lon="7.32312">
        <ele>621</ele>
        <time>2020-06-24T06:50:53.103Z</time>
      </trkpt>
      <trkpt lat="48.40663" lon="7.32309">
        <ele>620</ele>
        <time>2020-06-24T06:50:54.103Z</time>
      </trkpt>
      <trkpt lat="48.40663" lon="7.32309">
        <ele>619</ele>
        <time>2020-06-24T06:50:55.103Z</time>
      </trkpt>
      <trkpt lat="48.40663" lon="7.32309">
        <ele>619</ele>
        <time>2020-06-24T06:50:56.102Z</time>
      </trkpt>
      <trkpt lat="48.40659" lon="7.32303">
        <ele>613</ele>
        <time>2020-06-24T06:50:57.103Z</time>
      </trkpt>
      <trkpt lat="48.40658" lon="7.32303">
        <ele>613</ele>
        <time>2020-06-24T06:50:58.102Z</time>
      </trkpt>
      <trkpt lat="48.40657" lon="7.32299">
        <ele>614</ele>
        <time>2020-06-24T06:50:59.104Z</time>
      </trkpt>
      <trkpt lat="48.40657" lon="7.32298">
        <ele>615</ele>
        <time>2020-06-24T06:51:00.103Z</time>
      </trkpt>
      <trkpt lat="48.40657" lon="7.32296">
        <ele>615</ele>
        <time>2020-06-24T06:51:01.104Z</time>
      </trkpt>
      <trkpt lat="48.40658" lon="7.32296">
        <ele>616</ele>
        <time>2020-06-24T06:51:02.104Z</time>
      </trkpt>
      <trkpt lat="48.40658" lon="7.32295">
        <ele>616</ele>
        <time>2020-06-24T06:51:03.103Z</time>
      </trkpt>
      <trkpt lat="48.40659" lon="7.32295">
        <ele>616</ele>
        <time>2020-06-24T06:51:04.104Z</time>
      </trkpt>
      <trkpt lat="48.4066" lon="7.32294">
        <ele>616</ele>
        <time>2020-06-24T06:51:05.103Z</time>
      </trkpt>
      <trkpt lat="48.40661" lon="7.32293">
        <ele>616</ele>
        <time>2020-06-24T06:51:06.104Z</time>
      </trkpt>
      <trkpt lat="48.40662" lon="7.32292">
        <ele>616</ele>
        <time>2020-06-24T06:51:07.104Z</time>
      </trkpt>
      <trkpt lat="48.40662" lon="7.32291">
        <ele>616</ele>
        <time>2020-06-24T06:51:08.104Z</time>
      </trkpt>
      <trkpt lat="48.40662" lon="7.3229">
        <ele>616</ele>
        <time>2020-06-24T06:51:09.104Z</time>
      </trkpt>
      <trkpt lat="48.40663" lon="7.32289">
        <ele>615</ele>
        <time>2020-06-24T06:51:10.103Z</time>
      </trkpt>
      <trkpt lat="48.40665" lon="7.32289">
        <ele>616</ele>
        <time>2020-06-24T06:51:11.103Z</time>
      </trkpt>
      <trkpt lat="48.40666" lon="7.32289">
        <ele>616</ele>
        <time>2020-06-24T06:51:12.103Z</time>
      </trkpt>
      <trkpt lat="48.40667" lon="7.32289">
        <ele>616</ele>
        <time>2020-06-24T06:51:13.104Z</time>
      </trkpt>
      <trkpt lat="48.40669" lon="7.32287">
        <ele>617</ele>
        <time>2020-06-24T06:51:14.104Z</time>
      </trkpt>
      <trkpt lat="48.4067" lon="7.32286">
        <ele>617</ele>
        <time>2020-06-24T06:51:15.104Z</time>
      </trkpt>
      <trkpt lat="48.40671" lon="7.32285">
        <ele>617</ele>
        <time>2020-06-24T06:51:16.103Z</time>
      </trkpt>
      <trkpt lat="48.40672" lon="7.32284">
        <ele>617</ele>
        <time>2020-06-24T06:51:17.104Z</time>
      </trkpt>
      <trkpt lat="48.40672" lon="7.32284">
        <ele>618</ele>
        <time>2020-06-24T06:51:18.104Z</time>
      </trkpt>
      <trkpt lat="48.40673" lon="7.32283">
        <ele>618</ele>
        <time>2020-06-24T06:51:19.104Z</time>
      </trkpt>
      <trkpt lat="48.40674" lon="7.32284">
        <ele>618</ele>
        <time>2020-06-24T06:51:20.104Z</time>
      </trkpt>
      <trkpt lat="48.40674" lon="7.32284">
        <ele>618</ele>
        <time>2020-06-24T06:51:21.104Z</time>
      </trkpt>
      <trkpt lat="48.40674" lon="7.32285">
        <ele>618</ele>
        <time>2020-06-24T06:51:22.104Z</time>
      </trkpt>
      <trkpt lat="48.40675" lon="7.32283">
        <ele>622</ele>
        <time>2020-06-24T06:51:23.104Z</time>
      </trkpt>
      <trkpt lat="48.40675" lon="7.32283">
        <ele>622</ele>
        <time>2020-06-24T06:51:24.104Z</time>
      </trkpt>
      <trkpt lat="48.40675" lon="7.32284">
        <ele>621</ele>
        <time>2020-06-24T06:51:25.106Z</time>
      </trkpt>
      <trkpt lat="48.40675" lon="7.32284">
        <ele>621</ele>
        <time>2020-06-24T06:51:26.106Z</time>
      </trkpt>
      <trkpt lat="48.40676" lon="7.32283">
        <ele>621</ele>
        <time>2020-06-24T06:51:27.105Z</time>
      </trkpt>
      <trkpt lat="48.40677" lon="7.32282">
        <ele>621</ele>
        <time>2020-06-24T06:51:28.106Z</time>
      </trkpt>
      <trkpt lat="48.40678" lon="7.32281">
        <ele>622</ele>
        <time>2020-06-24T06:51:29.106Z</time>
      </trkpt>
      <trkpt lat="48.40678" lon="7.3228">
        <ele>622</ele>
        <time>2020-06-24T06:51:30.106Z</time>
      </trkpt>
      <trkpt lat="48.40679" lon="7.32278">
        <ele>622</ele>
        <time>2020-06-24T06:51:31.106Z</time>
      </trkpt>
      <trkpt lat="48.4068" lon="7.32277">
        <ele>623</ele>
        <time>2020-06-24T06:51:32.106Z</time>
      </trkpt>
      <trkpt lat="48.40681" lon="7.32276">
        <ele>623</ele>
        <time>2020-06-24T06:51:33.105Z</time>
      </trkpt>
      <trkpt lat="48.40682" lon="7.32275">
        <ele>624</ele>
        <time>2020-06-24T06:51:34.106Z</time>
      </trkpt>
      <trkpt lat="48.40683" lon="7.32274">
        <ele>624</ele>
        <time>2020-06-24T06:51:35.106Z</time>
      </trkpt>
      <trkpt lat="48.40684" lon="7.32273">
        <ele>624</ele>
        <time>2020-06-24T06:51:36.105Z</time>
      </trkpt>
      <trkpt lat="48.40685" lon="7.32271">
        <ele>625</ele>
        <time>2020-06-24T06:51:37.106Z</time>
      </trkpt>
      <trkpt lat="48.40686" lon="7.32269">
        <ele>625</ele>
        <time>2020-06-24T06:51:38.105Z</time>
      </trkpt>
      <trkpt lat="48.40687" lon="7.32267">
        <ele>626</ele>
        <time>2020-06-24T06:51:39.106Z</time>
      </trkpt>
      <trkpt lat="48.40688" lon="7.32266">
        <ele>627</ele>
        <time>2020-06-24T06:51:40.106Z</time>
      </trkpt>
      <trkpt lat="48.40689" lon="7.32264">
        <ele>628</ele>
        <time>2020-06-24T06:51:41.106Z</time>
      </trkpt>
      <trkpt lat="48.4069" lon="7.32263">
        <ele>628</ele>
        <time>2020-06-24T06:51:42.106Z</time>
      </trkpt>
      <trkpt lat="48.4069" lon="7.32261">
        <ele>628</ele>
        <time>2020-06-24T06:51:43.106Z</time>
      </trkpt>
      <trkpt lat="48.40691" lon="7.3226">
        <ele>628</ele>
        <time>2020-06-24T06:51:44.105Z</time>
      </trkpt>
      <trkpt lat="48.40692" lon="7.32258">
        <ele>628</ele>
        <time>2020-06-24T06:51:45.106Z</time>
      </trkpt>
      <trkpt lat="48.40693" lon="7.32257">
        <ele>628</ele>
        <time>2020-06-24T06:51:46.106Z</time>
      </trkpt>
      <trkpt lat="48.40694" lon="7.32255">
        <ele>629</ele>
        <time>2020-06-24T06:51:47.106Z</time>
      </trkpt>
      <trkpt lat="48.40694" lon="7.32254">
        <ele>630</ele>
        <time>2020-06-24T06:51:48.106Z</time>
      </trkpt>
      <trkpt lat="48.40695" lon="7.32252">
        <ele>630</ele>
        <time>2020-06-24T06:51:49.105Z</time>
      </trkpt>
      <trkpt lat="48.40696" lon="7.32251">
        <ele>631</ele>
        <time>2020-06-24T06:51:50.106Z</time>
      </trkpt>
      <trkpt lat="48.40696" lon="7.32249">
        <ele>631</ele>
        <time>2020-06-24T06:51:51.105Z</time>
      </trkpt>
      <trkpt lat="48.40697" lon="7.32247">
        <ele>631</ele>
        <time>2020-06-24T06:51:52.106Z</time>
      </trkpt>
      <trkpt lat="48.40697" lon="7.32245">
        <ele>631</ele>
        <time>2020-06-24T06:51:53.106Z</time>
      </trkpt>
      <trkpt lat="48.40698" lon="7.32244">
        <ele>631</ele>
        <time>2020-06-24T06:51:54.106Z</time>
      </trkpt>
      <trkpt lat="48.40698" lon="7.32242">
        <ele>631</ele>
        <time>2020-06-24T06:51:55.105Z</time>
      </trkpt>
      <trkpt lat="48.40698" lon="7.32241">
        <ele>631</ele>
        <time>2020-06-24T06:51:56.106Z</time>
      </trkpt>
      <trkpt lat="48.40698" lon="7.3224">
        <ele>630</ele>
        <time>2020-06-24T06:51:57.105Z</time>
      </trkpt>
      <trkpt lat="48.40698" lon="7.32237">
        <ele>630</ele>
        <time>2020-06-24T06:51:58.106Z</time>
      </trkpt>
      <trkpt lat="48.40698" lon="7.32235">
        <ele>629</ele>
        <time>2020-06-24T06:51:59.106Z</time>
      </trkpt>
      <trkpt lat="48.40698" lon="7.32233">
        <ele>628</ele>
        <time>2020-06-24T06:52:00.106Z</time>
      </trkpt>
      <trkpt lat="48.40698" lon="7.32231">
        <ele>628</ele>
        <time>2020-06-24T06:52:01.105Z</time>
      </trkpt>
      <trkpt lat="48.40698" lon="7.32229">
        <ele>628</ele>
        <time>2020-06-24T06:52:02.106Z</time>
      </trkpt>
      <trkpt lat="48.40699" lon="7.32227">
        <ele>628</ele>
        <time>2020-06-24T06:52:03.106Z</time>
      </trkpt>
      <trkpt lat="48.407" lon="7.32225">
        <ele>628</ele>
        <time>2020-06-24T06:52:04.106Z</time>
      </trkpt>
      <trkpt lat="48.407" lon="7.32223">
        <ele>628</ele>
        <time>2020-06-24T06:52:05.106Z</time>
      </trkpt>
      <trkpt lat="48.40701" lon="7.32219">
        <ele>627</ele>
        <time>2020-06-24T06:52:06.106Z</time>
      </trkpt>
      <trkpt lat="48.40702" lon="7.32218">
        <ele>627</ele>
        <time>2020-06-24T06:52:07.106Z</time>
      </trkpt>
      <trkpt lat="48.40703" lon="7.32216">
        <ele>626</ele>
        <time>2020-06-24T06:52:08.105Z</time>
      </trkpt>
      <trkpt lat="48.40704" lon="7.32214">
        <ele>626</ele>
        <time>2020-06-24T06:52:09.105Z</time>
      </trkpt>
      <trkpt lat="48.40704" lon="7.32212">
        <ele>626</ele>
        <time>2020-06-24T06:52:10.106Z</time>
      </trkpt>
      <trkpt lat="48.40705" lon="7.32211">
        <ele>626</ele>
        <time>2020-06-24T06:52:11.106Z</time>
      </trkpt>
      <trkpt lat="48.40705" lon="7.3221">
        <ele>625</ele>
        <time>2020-06-24T06:52:12.106Z</time>
      </trkpt>
      <trkpt lat="48.40706" lon="7.32209">
        <ele>625</ele>
        <time>2020-06-24T06:52:13.105Z</time>
      </trkpt>
      <trkpt lat="48.40706" lon="7.32208">
        <ele>624</ele>
        <time>2020-06-24T06:52:14.106Z</time>
      </trkpt>
      <trkpt lat="48.40707" lon="7.32206">
        <ele>623</ele>
        <time>2020-06-24T06:52:15.106Z</time>
      </trkpt>
      <trkpt lat="48.40707" lon="7.32205">
        <ele>622</ele>
        <time>2020-06-24T06:52:16.106Z</time>
      </trkpt>
      <trkpt lat="48.40708" lon="7.32204">
        <ele>621</ele>
        <time>2020-06-24T06:52:17.105Z</time>
      </trkpt>
      <trkpt lat="48.40708" lon="7.32203">
        <ele>621</ele>
        <time>2020-06-24T06:52:18.105Z</time>
      </trkpt>
      <trkpt lat="48.40709" lon="7.32201">
        <ele>621</ele>
        <time>2020-06-24T06:52:19.105Z</time>
      </trkpt>
      <trkpt lat="48.40709" lon="7.32199">
        <ele>622</ele>
        <time>2020-06-24T06:52:20.106Z</time>
      </trkpt>
      <trkpt lat="48.40709" lon="7.32197">
        <ele>622</ele>
        <time>2020-06-24T06:52:21.106Z</time>
      </trkpt>
      <trkpt lat="48.40709" lon="7.32195">
        <ele>623</ele>
        <time>2020-06-24T06:52:22.106Z</time>
      </trkpt>
      <trkpt lat="48.40709" lon="7.32193">
        <ele>624</ele>
        <time>2020-06-24T06:52:23.106Z</time>
      </trkpt>
      <trkpt lat="48.40709" lon="7.32191">
        <ele>625</ele>
        <time>2020-06-24T06:52:24.105Z</time>
      </trkpt>
      <trkpt lat="48.40709" lon="7.32188">
        <ele>625</ele>
        <time>2020-06-24T06:52:25.106Z</time>
      </trkpt>
      <trkpt lat="48.40709" lon="7.32187">
        <ele>626</ele>
        <time>2020-06-24T06:52:26.106Z</time>
      </trkpt>
      <trkpt lat="48.40708" lon="7.32185">
        <ele>626</ele>
        <time>2020-06-24T06:52:27.106Z</time>
      </trkpt>
      <trkpt lat="48.40708" lon="7.32183">
        <ele>626</ele>
        <time>2020-06-24T06:52:28.106Z</time>
      </trkpt>
      <trkpt lat="48.40708" lon="7.32181">
        <ele>627</ele>
        <time>2020-06-24T06:52:29.106Z</time>
      </trkpt>
      <trkpt lat="48.40707" lon="7.32179">
        <ele>627</ele>
        <time>2020-06-24T06:52:30.106Z</time>
      </trkpt>
      <trkpt lat="48.40706" lon="7.32177">
        <ele>627</ele>
        <time>2020-06-24T06:52:31.106Z</time>
      </trkpt>
      <trkpt lat="48.40706" lon="7.32175">
        <ele>628</ele>
        <time>2020-06-24T06:52:32.106Z</time>
      </trkpt>
      <trkpt lat="48.40705" lon="7.32173">
        <ele>628</ele>
        <time>2020-06-24T06:52:33.106Z</time>
      </trkpt>
      <trkpt lat="48.40705" lon="7.32172">
        <ele>628</ele>
        <time>2020-06-24T06:52:34.106Z</time>
      </trkpt>
      <trkpt lat="48.40705" lon="7.32171">
        <ele>629</ele>
        <time>2020-06-24T06:52:35.106Z</time>
      </trkpt>
      <trkpt lat="48.40706" lon="7.3217">
        <ele>629</ele>
        <time>2020-06-24T06:52:36.106Z</time>
      </trkpt>
      <trkpt lat="48.40706" lon="7.32168">
        <ele>629</ele>
        <time>2020-06-24T06:52:37.106Z</time>
      </trkpt>
      <trkpt lat="48.40706" lon="7.32167">
        <ele>629</ele>
        <time>2020-06-24T06:52:38.106Z</time>
      </trkpt>
      <trkpt lat="48.40706" lon="7.32165">
        <ele>629</ele>
        <time>2020-06-24T06:52:39.106Z</time>
      </trkpt>
      <trkpt lat="48.40706" lon="7.32163">
        <ele>629</ele>
        <time>2020-06-24T06:52:40.106Z</time>
      </trkpt>
      <trkpt lat="48.40706" lon="7.3216">
        <ele>629</ele>
        <time>2020-06-24T06:52:41.106Z</time>
      </trkpt>
      <trkpt lat="48.40706" lon="7.32158">
        <ele>629</ele>
        <time>2020-06-24T06:52:42.106Z</time>
      </trkpt>
      <trkpt lat="48.40707" lon="7.32157">
        <ele>629</ele>
        <time>2020-06-24T06:52:43.106Z</time>
      </trkpt>
      <trkpt lat="48.40707" lon="7.32155">
        <ele>630</ele>
        <time>2020-06-24T06:52:44.105Z</time>
      </trkpt>
      <trkpt lat="48.40707" lon="7.32154">
        <ele>630</ele>
        <time>2020-06-24T06:52:45.106Z</time>
      </trkpt>
      <trkpt lat="48.40707" lon="7.32152">
        <ele>630</ele>
        <time>2020-06-24T06:52:46.106Z</time>
      </trkpt>
      <trkpt lat="48.40706" lon="7.32151">
        <ele>631</ele>
        <time>2020-06-24T06:52:47.106Z</time>
      </trkpt>
      <trkpt lat="48.40706" lon="7.3215">
        <ele>632</ele>
        <time>2020-06-24T06:52:48.106Z</time>
      </trkpt>
      <trkpt lat="48.40705" lon="7.32148">
        <ele>632</ele>
        <time>2020-06-24T06:52:49.106Z</time>
      </trkpt>
      <trkpt lat="48.40705" lon="7.32146">
        <ele>632</ele>
        <time>2020-06-24T06:52:50.106Z</time>
      </trkpt>
      <trkpt lat="48.40704" lon="7.32144">
        <ele>632</ele>
        <time>2020-06-24T06:52:51.105Z</time>
      </trkpt>
      <trkpt lat="48.40703" lon="7.32142">
        <ele>632</ele>
        <time>2020-06-24T06:52:52.106Z</time>
      </trkpt>
      <trkpt lat="48.40702" lon="7.32141">
        <ele>632</ele>
        <time>2020-06-24T06:52:53.106Z</time>
      </trkpt>
      <trkpt lat="48.40701" lon="7.3214">
        <ele>632</ele>
        <time>2020-06-24T06:52:54.106Z</time>
      </trkpt>
      <trkpt lat="48.407" lon="7.32137">
        <ele>632</ele>
        <time>2020-06-24T06:52:55.106Z</time>
      </trkpt>
      <trkpt lat="48.40699" lon="7.32133">
        <ele>633</ele>
        <time>2020-06-24T06:52:56.106Z</time>
      </trkpt>
      <trkpt lat="48.40698" lon="7.3213">
        <ele>633</ele>
        <time>2020-06-24T06:52:57.106Z</time>
      </trkpt>
      <trkpt lat="48.40697" lon="7.32127">
        <ele>633</ele>
        <time>2020-06-24T06:52:58.105Z</time>
      </trkpt>
      <trkpt lat="48.40697" lon="7.32123">
        <ele>633</ele>
        <time>2020-06-24T06:52:59.105Z</time>
      </trkpt>
      <trkpt lat="48.40697" lon="7.32121">
        <ele>632</ele>
        <time>2020-06-24T06:53:00.105Z</time>
      </trkpt>
      <trkpt lat="48.40696" lon="7.32118">
        <ele>632</ele>
        <time>2020-06-24T06:53:01.105Z</time>
      </trkpt>
      <trkpt lat="48.40696" lon="7.32116">
        <ele>632</ele>
        <time>2020-06-24T06:53:02.105Z</time>
      </trkpt>
      <trkpt lat="48.40696" lon="7.32115">
        <ele>631</ele>
        <time>2020-06-24T06:53:03.105Z</time>
      </trkpt>
      <trkpt lat="48.40696" lon="7.32113">
        <ele>631</ele>
        <time>2020-06-24T06:53:04.105Z</time>
      </trkpt>
      <trkpt lat="48.40695" lon="7.32112">
        <ele>631</ele>
        <time>2020-06-24T06:53:05.106Z</time>
      </trkpt>
      <trkpt lat="48.40695" lon="7.32111">
        <ele>631</ele>
        <time>2020-06-24T06:53:06.106Z</time>
      </trkpt>
      <trkpt lat="48.40694" lon="7.32109">
        <ele>631</ele>
        <time>2020-06-24T06:53:07.106Z</time>
      </trkpt>
      <trkpt lat="48.40694" lon="7.32107">
        <ele>632</ele>
        <time>2020-06-24T06:53:08.106Z</time>
      </trkpt>
      <trkpt lat="48.40693" lon="7.32105">
        <ele>632</ele>
        <time>2020-06-24T06:53:09.106Z</time>
      </trkpt>
      <trkpt lat="48.40693" lon="7.32103">
        <ele>632</ele>
        <time>2020-06-24T06:53:10.105Z</time>
      </trkpt>
      <trkpt lat="48.40692" lon="7.32101">
        <ele>633</ele>
        <time>2020-06-24T06:53:11.106Z</time>
      </trkpt>
      <trkpt lat="48.40691" lon="7.321">
        <ele>633</ele>
        <time>2020-06-24T06:53:12.106Z</time>
      </trkpt>
      <trkpt lat="48.40691" lon="7.32098">
        <ele>634</ele>
        <time>2020-06-24T06:53:13.105Z</time>
      </trkpt>
      <trkpt lat="48.4069" lon="7.32096">
        <ele>634</ele>
        <time>2020-06-24T06:53:14.106Z</time>
      </trkpt>
      <trkpt lat="48.40689" lon="7.32094">
        <ele>634</ele>
        <time>2020-06-24T06:53:15.105Z</time>
      </trkpt>
      <trkpt lat="48.40689" lon="7.32092">
        <ele>634</ele>
        <time>2020-06-24T06:53:16.105Z</time>
      </trkpt>
      <trkpt lat="48.40689" lon="7.3209">
        <ele>634</ele>
        <time>2020-06-24T06:53:17.106Z</time>
      </trkpt>
      <trkpt lat="48.40689" lon="7.32088">
        <ele>634</ele>
        <time>2020-06-24T06:53:18.106Z</time>
      </trkpt>
      <trkpt lat="48.40689" lon="7.32086">
        <ele>634</ele>
        <time>2020-06-24T06:53:19.105Z</time>
      </trkpt>
      <trkpt lat="48.40688" lon="7.32084">
        <ele>634</ele>
        <time>2020-06-24T06:53:20.106Z</time>
      </trkpt>
      <trkpt lat="48.40687" lon="7.32081">
        <ele>635</ele>
        <time>2020-06-24T06:53:21.106Z</time>
      </trkpt>
      <trkpt lat="48.40687" lon="7.32079">
        <ele>635</ele>
        <time>2020-06-24T06:53:22.106Z</time>
      </trkpt>
      <trkpt lat="48.40687" lon="7.32077">
        <ele>634</ele>
        <time>2020-06-24T06:53:23.105Z</time>
      </trkpt>
      <trkpt lat="48.40686" lon="7.32074">
        <ele>634</ele>
        <time>2020-06-24T06:53:24.106Z</time>
      </trkpt>
      <trkpt lat="48.40686" lon="7.32073">
        <ele>634</ele>
        <time>2020-06-24T06:53:25.106Z</time>
      </trkpt>
      <trkpt lat="48.40685" lon="7.32071">
        <ele>634</ele>
        <time>2020-06-24T06:53:26.106Z</time>
      </trkpt>
      <trkpt lat="48.40684" lon="7.3207">
        <ele>634</ele>
        <time>2020-06-24T06:53:27.106Z</time>
      </trkpt>
      <trkpt lat="48.40684" lon="7.32068">
        <ele>634</ele>
        <time>2020-06-24T06:53:28.105Z</time>
      </trkpt>
      <trkpt lat="48.40683" lon="7.32066">
        <ele>633</ele>
        <time>2020-06-24T06:53:29.105Z</time>
      </trkpt>
      <trkpt lat="48.40683" lon="7.32063">
        <ele>632</ele>
        <time>2020-06-24T06:53:30.106Z</time>
      </trkpt>
      <trkpt lat="48.40683" lon="7.32061">
        <ele>632</ele>
        <time>2020-06-24T06:53:31.106Z</time>
      </trkpt>
      <trkpt lat="48.40683" lon="7.32059">
        <ele>632</ele>
        <time>2020-06-24T06:53:32.106Z</time>
      </trkpt>
      <trkpt lat="48.40683" lon="7.32057">
        <ele>631</ele>
        <time>2020-06-24T06:53:33.106Z</time>
      </trkpt>
      <trkpt lat="48.40683" lon="7.32056">
        <ele>631</ele>
        <time>2020-06-24T06:53:34.106Z</time>
      </trkpt>
      <trkpt lat="48.40683" lon="7.32054">
        <ele>631</ele>
        <time>2020-06-24T06:53:35.106Z</time>
      </trkpt>
      <trkpt lat="48.40682" lon="7.32051">
        <ele>631</ele>
        <time>2020-06-24T06:53:36.106Z</time>
      </trkpt>
      <trkpt lat="48.40681" lon="7.32049">
        <ele>632</ele>
        <time>2020-06-24T06:53:37.105Z</time>
      </trkpt>
      <trkpt lat="48.4068" lon="7.32048">
        <ele>632</ele>
        <time>2020-06-24T06:53:38.105Z</time>
      </trkpt>
      <trkpt lat="48.40679" lon="7.32046">
        <ele>633</ele>
        <time>2020-06-24T06:53:39.106Z</time>
      </trkpt>
      <trkpt lat="48.40679" lon="7.32045">
        <ele>635</ele>
        <time>2020-06-24T06:53:40.106Z</time>
      </trkpt>
      <trkpt lat="48.40678" lon="7.32043">
        <ele>636</ele>
        <time>2020-06-24T06:53:41.106Z</time>
      </trkpt>
      <trkpt lat="48.40677" lon="7.32042">
        <ele>638</ele>
        <time>2020-06-24T06:53:42.105Z</time>
      </trkpt>
      <trkpt lat="48.40675" lon="7.32041">
        <ele>639</ele>
        <time>2020-06-24T06:53:43.106Z</time>
      </trkpt>
      <trkpt lat="48.40674" lon="7.3204">
        <ele>640</ele>
        <time>2020-06-24T06:53:44.105Z</time>
      </trkpt>
      <trkpt lat="48.40672" lon="7.32039">
        <ele>641</ele>
        <time>2020-06-24T06:53:45.106Z</time>
      </trkpt>
      <trkpt lat="48.40671" lon="7.32039">
        <ele>642</ele>
        <time>2020-06-24T06:53:46.105Z</time>
      </trkpt>
      <trkpt lat="48.40669" lon="7.32038">
        <ele>643</ele>
        <time>2020-06-24T06:53:47.106Z</time>
      </trkpt>
      <trkpt lat="48.40668" lon="7.32038">
        <ele>643</ele>
        <time>2020-06-24T06:53:48.105Z</time>
      </trkpt>
      <trkpt lat="48.40666" lon="7.32037">
        <ele>644</ele>
        <time>2020-06-24T06:53:49.106Z</time>
      </trkpt>
      <trkpt lat="48.40665" lon="7.32036">
        <ele>644</ele>
        <time>2020-06-24T06:53:50.105Z</time>
      </trkpt>
      <trkpt lat="48.40664" lon="7.32035">
        <ele>644</ele>
        <time>2020-06-24T06:53:51.106Z</time>
      </trkpt>
      <trkpt lat="48.40662" lon="7.32035">
        <ele>645</ele>
        <time>2020-06-24T06:53:52.106Z</time>
      </trkpt>
      <trkpt lat="48.4066" lon="7.32034">
        <ele>645</ele>
        <time>2020-06-24T06:53:53.106Z</time>
      </trkpt>
      <trkpt lat="48.40658" lon="7.32034">
        <ele>646</ele>
        <time>2020-06-24T06:53:54.105Z</time>
      </trkpt>
      <trkpt lat="48.40657" lon="7.32034">
        <ele>647</ele>
        <time>2020-06-24T06:53:55.106Z</time>
      </trkpt>
      <trkpt lat="48.40656" lon="7.32033">
        <ele>647</ele>
        <time>2020-06-24T06:53:56.105Z</time>
      </trkpt>
      <trkpt lat="48.40655" lon="7.32032">
        <ele>647</ele>
        <time>2020-06-24T06:53:57.106Z</time>
      </trkpt>
      <trkpt lat="48.40654" lon="7.32032">
        <ele>647</ele>
        <time>2020-06-24T06:53:58.106Z</time>
      </trkpt>
      <trkpt lat="48.40653" lon="7.32033">
        <ele>647</ele>
        <time>2020-06-24T06:53:59.106Z</time>
      </trkpt>
      <trkpt lat="48.40651" lon="7.32033">
        <ele>647</ele>
        <time>2020-06-24T06:54:00.106Z</time>
      </trkpt>
      <trkpt lat="48.4065" lon="7.32033">
        <ele>647</ele>
        <time>2020-06-24T06:54:01.106Z</time>
      </trkpt>
      <trkpt lat="48.40649" lon="7.32034">
        <ele>647</ele>
        <time>2020-06-24T06:54:02.105Z</time>
      </trkpt>
      <trkpt lat="48.40648" lon="7.32035">
        <ele>647</ele>
        <time>2020-06-24T06:54:03.105Z</time>
      </trkpt>
      <trkpt lat="48.40646" lon="7.32036">
        <ele>647</ele>
        <time>2020-06-24T06:54:04.105Z</time>
      </trkpt>
      <trkpt lat="48.40645" lon="7.32036">
        <ele>646</ele>
        <time>2020-06-24T06:54:05.106Z</time>
      </trkpt>
      <trkpt lat="48.40645" lon="7.32035">
        <ele>646</ele>
        <time>2020-06-24T06:54:06.106Z</time>
      </trkpt>
      <trkpt lat="48.40644" lon="7.32035">
        <ele>646</ele>
        <time>2020-06-24T06:54:07.105Z</time>
      </trkpt>
      <trkpt lat="48.40643" lon="7.32035">
        <ele>646</ele>
        <time>2020-06-24T06:54:08.106Z</time>
      </trkpt>
      <trkpt lat="48.40642" lon="7.32035">
        <ele>646</ele>
        <time>2020-06-24T06:54:09.105Z</time>
      </trkpt>
      <trkpt lat="48.40641" lon="7.32035">
        <ele>646</ele>
        <time>2020-06-24T06:54:10.106Z</time>
      </trkpt>
      <trkpt lat="48.40639" lon="7.32036">
        <ele>645</ele>
        <time>2020-06-24T06:54:11.106Z</time>
      </trkpt>
      <trkpt lat="48.40638" lon="7.32037">
        <ele>645</ele>
        <time>2020-06-24T06:54:12.105Z</time>
      </trkpt>
      <trkpt lat="48.40636" lon="7.32039">
        <ele>645</ele>
        <time>2020-06-24T06:54:13.105Z</time>
      </trkpt>
      <trkpt lat="48.40634" lon="7.3204">
        <ele>644</ele>
        <time>2020-06-24T06:54:14.105Z</time>
      </trkpt>
      <trkpt lat="48.40633" lon="7.3204">
        <ele>644</ele>
        <time>2020-06-24T06:54:15.106Z</time>
      </trkpt>
      <trkpt lat="48.40632" lon="7.32039">
        <ele>643</ele>
        <time>2020-06-24T06:54:16.106Z</time>
      </trkpt>
      <trkpt lat="48.4063" lon="7.32038">
        <ele>642</ele>
        <time>2020-06-24T06:54:17.106Z</time>
      </trkpt>
      <trkpt lat="48.40629" lon="7.32037">
        <ele>641</ele>
        <time>2020-06-24T06:54:18.106Z</time>
      </trkpt>
      <trkpt lat="48.40628" lon="7.32037">
        <ele>640</ele>
        <time>2020-06-24T06:54:19.106Z</time>
      </trkpt>
      <trkpt lat="48.40627" lon="7.32036">
        <ele>640</ele>
        <time>2020-06-24T06:54:20.106Z</time>
      </trkpt>
      <trkpt lat="48.40625" lon="7.32035">
        <ele>639</ele>
        <time>2020-06-24T06:54:21.106Z</time>
      </trkpt>
      <trkpt lat="48.40624" lon="7.32034">
        <ele>638</ele>
        <time>2020-06-24T06:54:22.106Z</time>
      </trkpt>
      <trkpt lat="48.40623" lon="7.32033">
        <ele>637</ele>
        <time>2020-06-24T06:54:23.106Z</time>
      </trkpt>
      <trkpt lat="48.40621" lon="7.32032">
        <ele>636</ele>
        <time>2020-06-24T06:54:24.105Z</time>
      </trkpt>
      <trkpt lat="48.4062" lon="7.32031">
        <ele>636</ele>
        <time>2020-06-24T06:54:25.106Z</time>
      </trkpt>
      <trkpt lat="48.40619" lon="7.32029">
        <ele>636</ele>
        <time>2020-06-24T06:54:26.106Z</time>
      </trkpt>
      <trkpt lat="48.40617" lon="7.32027">
        <ele>636</ele>
        <time>2020-06-24T06:54:27.106Z</time>
      </trkpt>
      <trkpt lat="48.40616" lon="7.32024">
        <ele>637</ele>
        <time>2020-06-24T06:54:28.106Z</time>
      </trkpt>
      <trkpt lat="48.40615" lon="7.32022">
        <ele>637</ele>
        <time>2020-06-24T06:54:29.106Z</time>
      </trkpt>
      <trkpt lat="48.40614" lon="7.3202">
        <ele>637</ele>
        <time>2020-06-24T06:54:30.106Z</time>
      </trkpt>
      <trkpt lat="48.40613" lon="7.32018">
        <ele>638</ele>
        <time>2020-06-24T06:54:31.106Z</time>
      </trkpt>
      <trkpt lat="48.40612" lon="7.32016">
        <ele>638</ele>
        <time>2020-06-24T06:54:32.106Z</time>
      </trkpt>
      <trkpt lat="48.40611" lon="7.32015">
        <ele>638</ele>
        <time>2020-06-24T06:54:33.105Z</time>
      </trkpt>
      <trkpt lat="48.4061" lon="7.32013">
        <ele>638</ele>
        <time>2020-06-24T06:54:34.105Z</time>
      </trkpt>
      <trkpt lat="48.40609" lon="7.32011">
        <ele>638</ele>
        <time>2020-06-24T06:54:35.106Z</time>
      </trkpt>
      <trkpt lat="48.40609" lon="7.32009">
        <ele>639</ele>
        <time>2020-06-24T06:54:36.106Z</time>
      </trkpt>
      <trkpt lat="48.40608" lon="7.32006">
        <ele>640</ele>
        <time>2020-06-24T06:54:37.106Z</time>
      </trkpt>
      <trkpt lat="48.40607" lon="7.32004">
        <ele>641</ele>
        <time>2020-06-24T06:54:38.105Z</time>
      </trkpt>
      <trkpt lat="48.40606" lon="7.32002">
        <ele>642</ele>
        <time>2020-06-24T06:54:39.106Z</time>
      </trkpt>
      <trkpt lat="48.40606" lon="7.32">
        <ele>642</ele>
        <time>2020-06-24T06:54:40.105Z</time>
      </trkpt>
      <trkpt lat="48.40606" lon="7.31997">
        <ele>643</ele>
        <time>2020-06-24T06:54:41.106Z</time>
      </trkpt>
      <trkpt lat="48.40605" lon="7.31995">
        <ele>642</ele>
        <time>2020-06-24T06:54:42.105Z</time>
      </trkpt>
      <trkpt lat="48.40605" lon="7.31992">
        <ele>642</ele>
        <time>2020-06-24T06:54:43.106Z</time>
      </trkpt>
      <trkpt lat="48.40605" lon="7.3199">
        <ele>641</ele>
        <time>2020-06-24T06:54:44.106Z</time>
      </trkpt>
      <trkpt lat="48.40605" lon="7.31988">
        <ele>641</ele>
        <time>2020-06-24T06:54:45.106Z</time>
      </trkpt>
      <trkpt lat="48.40605" lon="7.31986">
        <ele>640</ele>
        <time>2020-06-24T06:54:46.105Z</time>
      </trkpt>
      <trkpt lat="48.40605" lon="7.31983">
        <ele>640</ele>
        <time>2020-06-24T06:54:47.105Z</time>
      </trkpt>
      <trkpt lat="48.40604" lon="7.3198">
        <ele>639</ele>
        <time>2020-06-24T06:54:48.106Z</time>
      </trkpt>
      <trkpt lat="48.40604" lon="7.31978">
        <ele>639</ele>
        <time>2020-06-24T06:54:49.105Z</time>
      </trkpt>
      <trkpt lat="48.40604" lon="7.31975">
        <ele>638</ele>
        <time>2020-06-24T06:54:50.106Z</time>
      </trkpt>
      <trkpt lat="48.40604" lon="7.31972">
        <ele>637</ele>
        <time>2020-06-24T06:54:51.106Z</time>
      </trkpt>
      <trkpt lat="48.40605" lon="7.3197">
        <ele>636</ele>
        <time>2020-06-24T06:54:52.106Z</time>
      </trkpt>
      <trkpt lat="48.40605" lon="7.31968">
        <ele>636</ele>
        <time>2020-06-24T06:54:53.106Z</time>
      </trkpt>
      <trkpt lat="48.40605" lon="7.31965">
        <ele>636</ele>
        <time>2020-06-24T06:54:54.106Z</time>
      </trkpt>
      <trkpt lat="48.40604" lon="7.31963">
        <ele>637</ele>
        <time>2020-06-24T06:54:55.106Z</time>
      </trkpt>
      <trkpt lat="48.40604" lon="7.31961">
        <ele>637</ele>
        <time>2020-06-24T06:54:56.106Z</time>
      </trkpt>
      <trkpt lat="48.40603" lon="7.31959">
        <ele>637</ele>
        <time>2020-06-24T06:54:57.106Z</time>
      </trkpt>
      <trkpt lat="48.40603" lon="7.31956">
        <ele>637</ele>
        <time>2020-06-24T06:54:58.105Z</time>
      </trkpt>
      <trkpt lat="48.40602" lon="7.31954">
        <ele>636</ele>
        <time>2020-06-24T06:54:59.105Z</time>
      </trkpt>
      <trkpt lat="48.40602" lon="7.31952">
        <ele>636</ele>
        <time>2020-06-24T06:55:00.105Z</time>
      </trkpt>
      <trkpt lat="48.40601" lon="7.3195">
        <ele>637</ele>
        <time>2020-06-24T06:55:01.106Z</time>
      </trkpt>
      <trkpt lat="48.40601" lon="7.31948">
        <ele>638</ele>
        <time>2020-06-24T06:55:02.106Z</time>
      </trkpt>
      <trkpt lat="48.40601" lon="7.31946">
        <ele>638</ele>
        <time>2020-06-24T06:55:03.106Z</time>
      </trkpt>
      <trkpt lat="48.40601" lon="7.31943">
        <ele>638</ele>
        <time>2020-06-24T06:55:04.106Z</time>
      </trkpt>
      <trkpt lat="48.406" lon="7.31941">
        <ele>639</ele>
        <time>2020-06-24T06:55:05.105Z</time>
      </trkpt>
      <trkpt lat="48.40599" lon="7.31939">
        <ele>638</ele>
        <time>2020-06-24T06:55:06.106Z</time>
      </trkpt>
      <trkpt lat="48.40599" lon="7.31937">
        <ele>638</ele>
        <time>2020-06-24T06:55:07.105Z</time>
      </trkpt>
      <trkpt lat="48.40598" lon="7.31935">
        <ele>638</ele>
        <time>2020-06-24T06:55:08.106Z</time>
      </trkpt>
      <trkpt lat="48.40598" lon="7.31933">
        <ele>639</ele>
        <time>2020-06-24T06:55:09.106Z</time>
      </trkpt>
      <trkpt lat="48.40597" lon="7.3193">
        <ele>639</ele>
        <time>2020-06-24T06:55:10.106Z</time>
      </trkpt>
      <trkpt lat="48.40597" lon="7.31928">
        <ele>639</ele>
        <time>2020-06-24T06:55:11.106Z</time>
      </trkpt>
      <trkpt lat="48.40596" lon="7.31926">
        <ele>640</ele>
        <time>2020-06-24T06:55:12.105Z</time>
      </trkpt>
      <trkpt lat="48.40596" lon="7.31924">
        <ele>640</ele>
        <time>2020-06-24T06:55:13.105Z</time>
      </trkpt>
      <trkpt lat="48.40596" lon="7.3192">
        <ele>640</ele>
        <time>2020-06-24T06:55:14.106Z</time>
      </trkpt>
      <trkpt lat="48.40595" lon="7.31917">
        <ele>640</ele>
        <time>2020-06-24T06:55:15.106Z</time>
      </trkpt>
      <trkpt lat="48.40594" lon="7.31914">
        <ele>640</ele>
        <time>2020-06-24T06:55:16.106Z</time>
      </trkpt>
      <trkpt lat="48.40593" lon="7.31911">
        <ele>640</ele>
        <time>2020-06-24T06:55:17.106Z</time>
      </trkpt>
      <trkpt lat="48.40593" lon="7.31908">
        <ele>640</ele>
        <time>2020-06-24T06:55:18.106Z</time>
      </trkpt>
      <trkpt lat="48.40593" lon="7.31905">
        <ele>640</ele>
        <time>2020-06-24T06:55:19.106Z</time>
      </trkpt>
      <trkpt lat="48.40593" lon="7.31902">
        <ele>640</ele>
        <time>2020-06-24T06:55:20.106Z</time>
      </trkpt>
      <trkpt lat="48.40593" lon="7.319">
        <ele>639</ele>
        <time>2020-06-24T06:55:21.106Z</time>
      </trkpt>
      <trkpt lat="48.40593" lon="7.31897">
        <ele>639</ele>
        <time>2020-06-24T06:55:22.106Z</time>
      </trkpt>
      <trkpt lat="48.40593" lon="7.31894">
        <ele>638</ele>
        <time>2020-06-24T06:55:23.106Z</time>
      </trkpt>
      <trkpt lat="48.40593" lon="7.31892">
        <ele>638</ele>
        <time>2020-06-24T06:55:24.106Z</time>
      </trkpt>
      <trkpt lat="48.40593" lon="7.3189">
        <ele>638</ele>
        <time>2020-06-24T06:55:25.106Z</time>
      </trkpt>
      <trkpt lat="48.40593" lon="7.31889">
        <ele>638</ele>
        <time>2020-06-24T06:55:26.106Z</time>
      </trkpt>
      <trkpt lat="48.40593" lon="7.31886">
        <ele>639</ele>
        <time>2020-06-24T06:55:27.106Z</time>
      </trkpt>
      <trkpt lat="48.40593" lon="7.31884">
        <ele>639</ele>
        <time>2020-06-24T06:55:28.105Z</time>
      </trkpt>
      <trkpt lat="48.40593" lon="7.31882">
        <ele>639</ele>
        <time>2020-06-24T06:55:29.105Z</time>
      </trkpt>
      <trkpt lat="48.40593" lon="7.31881">
        <ele>639</ele>
        <time>2020-06-24T06:55:30.106Z</time>
      </trkpt>
      <trkpt lat="48.40592" lon="7.31879">
        <ele>639</ele>
        <time>2020-06-24T06:55:31.106Z</time>
      </trkpt>
      <trkpt lat="48.40591" lon="7.31877">
        <ele>639</ele>
        <time>2020-06-24T06:55:32.106Z</time>
      </trkpt>
      <trkpt lat="48.40591" lon="7.31875">
        <ele>639</ele>
        <time>2020-06-24T06:55:33.106Z</time>
      </trkpt>
      <trkpt lat="48.40591" lon="7.31873">
        <ele>639</ele>
        <time>2020-06-24T06:55:34.106Z</time>
      </trkpt>
      <trkpt lat="48.40591" lon="7.31871">
        <ele>639</ele>
        <time>2020-06-24T06:55:35.106Z</time>
      </trkpt>
      <trkpt lat="48.40591" lon="7.31868">
        <ele>639</ele>
        <time>2020-06-24T06:55:36.106Z</time>
      </trkpt>
      <trkpt lat="48.40591" lon="7.31865">
        <ele>639</ele>
        <time>2020-06-24T06:55:37.106Z</time>
      </trkpt>
      <trkpt lat="48.40591" lon="7.31863">
        <ele>639</ele>
        <time>2020-06-24T06:55:38.105Z</time>
      </trkpt>
      <trkpt lat="48.40592" lon="7.31861">
        <ele>639</ele>
        <time>2020-06-24T06:55:39.105Z</time>
      </trkpt>
      <trkpt lat="48.40591" lon="7.31859">
        <ele>639</ele>
        <time>2020-06-24T06:55:40.106Z</time>
      </trkpt>
      <trkpt lat="48.4059" lon="7.31855">
        <ele>639</ele>
        <time>2020-06-24T06:55:41.106Z</time>
      </trkpt>
      <trkpt lat="48.4059" lon="7.31853">
        <ele>640</ele>
        <time>2020-06-24T06:55:42.106Z</time>
      </trkpt>
      <trkpt lat="48.40589" lon="7.31851">
        <ele>640</ele>
        <time>2020-06-24T06:55:43.106Z</time>
      </trkpt>
      <trkpt lat="48.40589" lon="7.3185">
        <ele>640</ele>
        <time>2020-06-24T06:55:44.105Z</time>
      </trkpt>
      <trkpt lat="48.40589" lon="7.31847">
        <ele>640</ele>
        <time>2020-06-24T06:55:45.106Z</time>
      </trkpt>
      <trkpt lat="48.40589" lon="7.31845">
        <ele>641</ele>
        <time>2020-06-24T06:55:46.106Z</time>
      </trkpt>
      <trkpt lat="48.4059" lon="7.31843">
        <ele>641</ele>
        <time>2020-06-24T06:55:47.106Z</time>
      </trkpt>
      <trkpt lat="48.4059" lon="7.31841">
        <ele>641</ele>
        <time>2020-06-24T06:55:48.105Z</time>
      </trkpt>
      <trkpt lat="48.40591" lon="7.31839">
        <ele>641</ele>
        <time>2020-06-24T06:55:49.105Z</time>
      </trkpt>
      <trkpt lat="48.40592" lon="7.31837">
        <ele>641</ele>
        <time>2020-06-24T06:55:50.106Z</time>
      </trkpt>
      <trkpt lat="48.40593" lon="7.31836">
        <ele>641</ele>
        <time>2020-06-24T06:55:51.106Z</time>
      </trkpt>
      <trkpt lat="48.40594" lon="7.31834">
        <ele>641</ele>
        <time>2020-06-24T06:55:52.106Z</time>
      </trkpt>
      <trkpt lat="48.40595" lon="7.31832">
        <ele>641</ele>
        <time>2020-06-24T06:55:53.106Z</time>
      </trkpt>
      <trkpt lat="48.40596" lon="7.31829">
        <ele>641</ele>
        <time>2020-06-24T06:55:54.105Z</time>
      </trkpt>
      <trkpt lat="48.40596" lon="7.31827">
        <ele>642</ele>
        <time>2020-06-24T06:55:55.106Z</time>
      </trkpt>
      <trkpt lat="48.40597" lon="7.31824">
        <ele>642</ele>
        <time>2020-06-24T06:55:56.106Z</time>
      </trkpt>
      <trkpt lat="48.40598" lon="7.31822">
        <ele>643</ele>
        <time>2020-06-24T06:55:57.106Z</time>
      </trkpt>
      <trkpt lat="48.40598" lon="7.3182">
        <ele>644</ele>
        <time>2020-06-24T06:55:58.106Z</time>
      </trkpt>
      <trkpt lat="48.40599" lon="7.31818">
        <ele>644</ele>
        <time>2020-06-24T06:55:59.106Z</time>
      </trkpt>
      <trkpt lat="48.40599" lon="7.31817">
        <ele>645</ele>
        <time>2020-06-24T06:56:00.106Z</time>
      </trkpt>
      <trkpt lat="48.406" lon="7.31815">
        <ele>646</ele>
        <time>2020-06-24T06:56:01.106Z</time>
      </trkpt>
      <trkpt lat="48.406" lon="7.31813">
        <ele>646</ele>
        <time>2020-06-24T06:56:02.106Z</time>
      </trkpt>
      <trkpt lat="48.40601" lon="7.3181">
        <ele>647</ele>
        <time>2020-06-24T06:56:03.106Z</time>
      </trkpt>
      <trkpt lat="48.40602" lon="7.31809">
        <ele>648</ele>
        <time>2020-06-24T06:56:04.106Z</time>
      </trkpt>
      <trkpt lat="48.40603" lon="7.31807">
        <ele>648</ele>
        <time>2020-06-24T06:56:05.106Z</time>
      </trkpt>
      <trkpt lat="48.40603" lon="7.31805">
        <ele>648</ele>
        <time>2020-06-24T06:56:06.105Z</time>
      </trkpt>
      <trkpt lat="48.40604" lon="7.31802">
        <ele>648</ele>
        <time>2020-06-24T06:56:07.106Z</time>
      </trkpt>
      <trkpt lat="48.40605" lon="7.318">
        <ele>647</ele>
        <time>2020-06-24T06:56:08.106Z</time>
      </trkpt>
      <trkpt lat="48.40606" lon="7.31799">
        <ele>647</ele>
        <time>2020-06-24T06:56:09.105Z</time>
      </trkpt>
      <trkpt lat="48.40607" lon="7.31797">
        <ele>646</ele>
        <time>2020-06-24T06:56:10.106Z</time>
      </trkpt>
      <trkpt lat="48.40608" lon="7.31796">
        <ele>645</ele>
        <time>2020-06-24T06:56:11.105Z</time>
      </trkpt>
      <trkpt lat="48.40609" lon="7.31794">
        <ele>645</ele>
        <time>2020-06-24T06:56:12.106Z</time>
      </trkpt>
      <trkpt lat="48.40609" lon="7.31793">
        <ele>645</ele>
        <time>2020-06-24T06:56:13.106Z</time>
      </trkpt>
      <trkpt lat="48.40609" lon="7.31791">
        <ele>644</ele>
        <time>2020-06-24T06:56:14.106Z</time>
      </trkpt>
      <trkpt lat="48.40609" lon="7.31789">
        <ele>644</ele>
        <time>2020-06-24T06:56:15.106Z</time>
      </trkpt>
      <trkpt lat="48.40608" lon="7.31788">
        <ele>643</ele>
        <time>2020-06-24T06:56:16.105Z</time>
      </trkpt>
      <trkpt lat="48.40609" lon="7.31787">
        <ele>643</ele>
        <time>2020-06-24T06:56:17.106Z</time>
      </trkpt>
      <trkpt lat="48.40609" lon="7.31785">
        <ele>643</ele>
        <time>2020-06-24T06:56:18.106Z</time>
      </trkpt>
      <trkpt lat="48.40609" lon="7.31783">
        <ele>643</ele>
        <time>2020-06-24T06:56:19.106Z</time>
      </trkpt>
      <trkpt lat="48.40609" lon="7.31781">
        <ele>643</ele>
        <time>2020-06-24T06:56:20.106Z</time>
      </trkpt>
      <trkpt lat="48.40609" lon="7.31779">
        <ele>643</ele>
        <time>2020-06-24T06:56:21.106Z</time>
      </trkpt>
      <trkpt lat="48.40608" lon="7.31778">
        <ele>643</ele>
        <time>2020-06-24T06:56:22.106Z</time>
      </trkpt>
      <trkpt lat="48.40608" lon="7.31776">
        <ele>643</ele>
        <time>2020-06-24T06:56:23.106Z</time>
      </trkpt>
      <trkpt lat="48.40607" lon="7.31774">
        <ele>643</ele>
        <time>2020-06-24T06:56:24.106Z</time>
      </trkpt>
      <trkpt lat="48.40607" lon="7.31771">
        <ele>643</ele>
        <time>2020-06-24T06:56:25.106Z</time>
      </trkpt>
      <trkpt lat="48.40607" lon="7.3177">
        <ele>643</ele>
        <time>2020-06-24T06:56:26.106Z</time>
      </trkpt>
      <trkpt lat="48.40606" lon="7.31768">
        <ele>643</ele>
        <time>2020-06-24T06:56:27.105Z</time>
      </trkpt>
      <trkpt lat="48.40606" lon="7.31767">
        <ele>643</ele>
        <time>2020-06-24T06:56:28.106Z</time>
      </trkpt>
      <trkpt lat="48.40605" lon="7.31765">
        <ele>644</ele>
        <time>2020-06-24T06:56:29.105Z</time>
      </trkpt>
      <trkpt lat="48.40605" lon="7.31763">
        <ele>645</ele>
        <time>2020-06-24T06:56:30.106Z</time>
      </trkpt>
      <trkpt lat="48.40605" lon="7.31761">
        <ele>645</ele>
        <time>2020-06-24T06:56:31.106Z</time>
      </trkpt>
      <trkpt lat="48.40605" lon="7.31759">
        <ele>646</ele>
        <time>2020-06-24T06:56:32.106Z</time>
      </trkpt>
      <trkpt lat="48.40605" lon="7.31757">
        <ele>647</ele>
        <time>2020-06-24T06:56:33.106Z</time>
      </trkpt>
      <trkpt lat="48.40605" lon="7.31755">
        <ele>648</ele>
        <time>2020-06-24T06:56:34.106Z</time>
      </trkpt>
      <trkpt lat="48.40604" lon="7.31754">
        <ele>649</ele>
        <time>2020-06-24T06:56:35.106Z</time>
      </trkpt>
      <trkpt lat="48.40604" lon="7.31751">
        <ele>649</ele>
        <time>2020-06-24T06:56:36.105Z</time>
      </trkpt>
      <trkpt lat="48.40604" lon="7.31747">
        <ele>649</ele>
        <time>2020-06-24T06:56:37.106Z</time>
      </trkpt>
      <trkpt lat="48.40603" lon="7.31744">
        <ele>649</ele>
        <time>2020-06-24T06:56:38.106Z</time>
      </trkpt>
      <trkpt lat="48.40604" lon="7.31743">
        <ele>649</ele>
        <time>2020-06-24T06:56:39.105Z</time>
      </trkpt>
      <trkpt lat="48.40603" lon="7.31741">
        <ele>649</ele>
        <time>2020-06-24T06:56:40.106Z</time>
      </trkpt>
      <trkpt lat="48.40603" lon="7.3174">
        <ele>649</ele>
        <time>2020-06-24T06:56:41.105Z</time>
      </trkpt>
      <trkpt lat="48.40602" lon="7.31738">
        <ele>650</ele>
        <time>2020-06-24T06:56:42.105Z</time>
      </trkpt>
      <trkpt lat="48.40601" lon="7.31737">
        <ele>651</ele>
        <time>2020-06-24T06:56:43.106Z</time>
      </trkpt>
      <trkpt lat="48.40601" lon="7.31736">
        <ele>653</ele>
        <time>2020-06-24T06:56:44.105Z</time>
      </trkpt>
      <trkpt lat="48.406" lon="7.31735">
        <ele>654</ele>
        <time>2020-06-24T06:56:45.105Z</time>
      </trkpt>
      <trkpt lat="48.40599" lon="7.31734">
        <ele>655</ele>
        <time>2020-06-24T06:56:46.105Z</time>
      </trkpt>
      <trkpt lat="48.40598" lon="7.31733">
        <ele>657</ele>
        <time>2020-06-24T06:56:47.106Z</time>
      </trkpt>
      <trkpt lat="48.40597" lon="7.31731">
        <ele>658</ele>
        <time>2020-06-24T06:56:48.106Z</time>
      </trkpt>
      <trkpt lat="48.40595" lon="7.31731">
        <ele>659</ele>
        <time>2020-06-24T06:56:49.105Z</time>
      </trkpt>
      <trkpt lat="48.40594" lon="7.3173">
        <ele>660</ele>
        <time>2020-06-24T06:56:50.105Z</time>
      </trkpt>
      <trkpt lat="48.40593" lon="7.31729">
        <ele>661</ele>
        <time>2020-06-24T06:56:51.105Z</time>
      </trkpt>
      <trkpt lat="48.40591" lon="7.31728">
        <ele>661</ele>
        <time>2020-06-24T06:56:52.106Z</time>
      </trkpt>
      <trkpt lat="48.4059" lon="7.31727">
        <ele>662</ele>
        <time>2020-06-24T06:56:53.106Z</time>
      </trkpt>
      <trkpt lat="48.4059" lon="7.31725">
        <ele>664</ele>
        <time>2020-06-24T06:56:54.106Z</time>
      </trkpt>
      <trkpt lat="48.40589" lon="7.31724">
        <ele>665</ele>
        <time>2020-06-24T06:56:55.106Z</time>
      </trkpt>
      <trkpt lat="48.40588" lon="7.31722">
        <ele>666</ele>
        <time>2020-06-24T06:56:56.106Z</time>
      </trkpt>
      <trkpt lat="48.40587" lon="7.31721">
        <ele>666</ele>
        <time>2020-06-24T06:56:57.106Z</time>
      </trkpt>
      <trkpt lat="48.40587" lon="7.31719">
        <ele>666</ele>
        <time>2020-06-24T06:56:58.106Z</time>
      </trkpt>
      <trkpt lat="48.40586" lon="7.31716">
        <ele>666</ele>
        <time>2020-06-24T06:56:59.106Z</time>
      </trkpt>
      <trkpt lat="48.40586" lon="7.31714">
        <ele>666</ele>
        <time>2020-06-24T06:57:00.106Z</time>
      </trkpt>
      <trkpt lat="48.40586" lon="7.31711">
        <ele>666</ele>
        <time>2020-06-24T06:57:01.106Z</time>
      </trkpt>
      <trkpt lat="48.40586" lon="7.31708">
        <ele>666</ele>
        <time>2020-06-24T06:57:02.106Z</time>
      </trkpt>
      <trkpt lat="48.40586" lon="7.31706">
        <ele>665</ele>
        <time>2020-06-24T06:57:03.105Z</time>
      </trkpt>
      <trkpt lat="48.40586" lon="7.31703">
        <ele>665</ele>
        <time>2020-06-24T06:57:04.106Z</time>
      </trkpt>
      <trkpt lat="48.40585" lon="7.317">
        <ele>665</ele>
        <time>2020-06-24T06:57:05.106Z</time>
      </trkpt>
      <trkpt lat="48.40586" lon="7.31698">
        <ele>665</ele>
        <time>2020-06-24T06:57:06.105Z</time>
      </trkpt>
      <trkpt lat="48.40586" lon="7.31696">
        <ele>665</ele>
        <time>2020-06-24T06:57:07.106Z</time>
      </trkpt>
      <trkpt lat="48.40586" lon="7.31695">
        <ele>665</ele>
        <time>2020-06-24T06:57:08.106Z</time>
      </trkpt>
      <trkpt lat="48.40586" lon="7.31693">
        <ele>665</ele>
        <time>2020-06-24T06:57:09.105Z</time>
      </trkpt>
      <trkpt lat="48.40585" lon="7.31691">
        <ele>665</ele>
        <time>2020-06-24T06:57:10.106Z</time>
      </trkpt>
      <trkpt lat="48.40585" lon="7.3169">
        <ele>665</ele>
        <time>2020-06-24T06:57:11.106Z</time>
      </trkpt>
      <trkpt lat="48.40584" lon="7.31689">
        <ele>664</ele>
        <time>2020-06-24T06:57:12.105Z</time>
      </trkpt>
      <trkpt lat="48.40584" lon="7.31687">
        <ele>664</ele>
        <time>2020-06-24T06:57:13.105Z</time>
      </trkpt>
      <trkpt lat="48.40584" lon="7.31685">
        <ele>664</ele>
        <time>2020-06-24T06:57:14.105Z</time>
      </trkpt>
      <trkpt lat="48.40584" lon="7.31683">
        <ele>663</ele>
        <time>2020-06-24T06:57:15.106Z</time>
      </trkpt>
      <trkpt lat="48.40584" lon="7.31681">
        <ele>663</ele>
        <time>2020-06-24T06:57:16.106Z</time>
      </trkpt>
      <trkpt lat="48.40583" lon="7.3168">
        <ele>663</ele>
        <time>2020-06-24T06:57:17.106Z</time>
      </trkpt>
      <trkpt lat="48.40584" lon="7.31678">
        <ele>664</ele>
        <time>2020-06-24T06:57:18.105Z</time>
      </trkpt>
      <trkpt lat="48.40584" lon="7.31677">
        <ele>664</ele>
        <time>2020-06-24T06:57:19.106Z</time>
      </trkpt>
      <trkpt lat="48.40583" lon="7.31675">
        <ele>665</ele>
        <time>2020-06-24T06:57:20.105Z</time>
      </trkpt>
      <trkpt lat="48.40584" lon="7.31674">
        <ele>665</ele>
        <time>2020-06-24T06:57:21.106Z</time>
      </trkpt>
      <trkpt lat="48.40585" lon="7.31671">
        <ele>665</ele>
        <time>2020-06-24T06:57:22.105Z</time>
      </trkpt>
      <trkpt lat="48.40585" lon="7.31669">
        <ele>665</ele>
        <time>2020-06-24T06:57:23.105Z</time>
      </trkpt>
      <trkpt lat="48.40586" lon="7.31665">
        <ele>665</ele>
        <time>2020-06-24T06:57:24.106Z</time>
      </trkpt>
      <trkpt lat="48.40586" lon="7.31662">
        <ele>664</ele>
        <time>2020-06-24T06:57:25.106Z</time>
      </trkpt>
      <trkpt lat="48.40587" lon="7.31659">
        <ele>663</ele>
        <time>2020-06-24T06:57:26.106Z</time>
      </trkpt>
      <trkpt lat="48.40587" lon="7.31657">
        <ele>663</ele>
        <time>2020-06-24T06:57:27.106Z</time>
      </trkpt>
      <trkpt lat="48.40588" lon="7.31654">
        <ele>662</ele>
        <time>2020-06-24T06:57:28.106Z</time>
      </trkpt>
      <trkpt lat="48.40589" lon="7.31652">
        <ele>662</ele>
        <time>2020-06-24T06:57:29.105Z</time>
      </trkpt>
      <trkpt lat="48.40589" lon="7.3165">
        <ele>662</ele>
        <time>2020-06-24T06:57:30.106Z</time>
      </trkpt>
      <trkpt lat="48.40591" lon="7.31648">
        <ele>662</ele>
        <time>2020-06-24T06:57:31.106Z</time>
      </trkpt>
      <trkpt lat="48.40592" lon="7.31646">
        <ele>662</ele>
        <time>2020-06-24T06:57:32.106Z</time>
      </trkpt>
      <trkpt lat="48.40593" lon="7.31644">
        <ele>662</ele>
        <time>2020-06-24T06:57:33.106Z</time>
      </trkpt>
      <trkpt lat="48.40593" lon="7.31642">
        <ele>662</ele>
        <time>2020-06-24T06:57:34.106Z</time>
      </trkpt>
      <trkpt lat="48.40593" lon="7.31639">
        <ele>662</ele>
        <time>2020-06-24T06:57:35.105Z</time>
      </trkpt>
      <trkpt lat="48.40593" lon="7.31638">
        <ele>661</ele>
        <time>2020-06-24T06:57:36.106Z</time>
      </trkpt>
      <trkpt lat="48.40593" lon="7.31637">
        <ele>661</ele>
        <time>2020-06-24T06:57:37.106Z</time>
      </trkpt>
      <trkpt lat="48.40592" lon="7.31637">
        <ele>662</ele>
        <time>2020-06-24T06:57:38.106Z</time>
      </trkpt>
      <trkpt lat="48.40591" lon="7.31637">
        <ele>662</ele>
        <time>2020-06-24T06:57:39.106Z</time>
      </trkpt>
      <trkpt lat="48.40591" lon="7.31637">
        <ele>662</ele>
        <time>2020-06-24T06:57:40.106Z</time>
      </trkpt>
      <trkpt lat="48.40589" lon="7.31638">
        <ele>662</ele>
        <time>2020-06-24T06:57:41.106Z</time>
      </trkpt>
      <trkpt lat="48.40588" lon="7.31639">
        <ele>662</ele>
        <time>2020-06-24T06:57:42.106Z</time>
      </trkpt>
      <trkpt lat="48.40586" lon="7.3164">
        <ele>662</ele>
        <time>2020-06-24T06:57:43.106Z</time>
      </trkpt>
      <trkpt lat="48.40585" lon="7.31641">
        <ele>662</ele>
        <time>2020-06-24T06:57:44.105Z</time>
      </trkpt>
      <trkpt lat="48.40584" lon="7.31641">
        <ele>662</ele>
        <time>2020-06-24T06:57:45.105Z</time>
      </trkpt>
      <trkpt lat="48.40582" lon="7.31641">
        <ele>662</ele>
        <time>2020-06-24T06:57:46.105Z</time>
      </trkpt>
      <trkpt lat="48.40581" lon="7.3164">
        <ele>663</ele>
        <time>2020-06-24T06:57:47.106Z</time>
      </trkpt>
      <trkpt lat="48.4058" lon="7.3164">
        <ele>664</ele>
        <time>2020-06-24T06:57:48.106Z</time>
      </trkpt>
      <trkpt lat="48.40578" lon="7.3164">
        <ele>665</ele>
        <time>2020-06-24T06:57:49.106Z</time>
      </trkpt>
      <trkpt lat="48.40577" lon="7.3164">
        <ele>666</ele>
        <time>2020-06-24T06:57:50.106Z</time>
      </trkpt>
      <trkpt lat="48.40576" lon="7.3164">
        <ele>668</ele>
        <time>2020-06-24T06:57:51.106Z</time>
      </trkpt>
      <trkpt lat="48.40574" lon="7.3164">
        <ele>668</ele>
        <time>2020-06-24T06:57:52.106Z</time>
      </trkpt>
      <trkpt lat="48.40572" lon="7.31639">
        <ele>669</ele>
        <time>2020-06-24T06:57:53.106Z</time>
      </trkpt>
      <trkpt lat="48.4057" lon="7.31639">
        <ele>670</ele>
        <time>2020-06-24T06:57:54.106Z</time>
      </trkpt>
      <trkpt lat="48.40568" lon="7.31638">
        <ele>671</ele>
        <time>2020-06-24T06:57:55.106Z</time>
      </trkpt>
      <trkpt lat="48.40566" lon="7.31638">
        <ele>672</ele>
        <time>2020-06-24T06:57:56.106Z</time>
      </trkpt>
      <trkpt lat="48.40565" lon="7.31638">
        <ele>673</ele>
        <time>2020-06-24T06:57:57.106Z</time>
      </trkpt>
      <trkpt lat="48.40563" lon="7.31637">
        <ele>674</ele>
        <time>2020-06-24T06:57:58.106Z</time>
      </trkpt>
      <trkpt lat="48.40562" lon="7.31636">
        <ele>674</ele>
        <time>2020-06-24T06:57:59.106Z</time>
      </trkpt>
      <trkpt lat="48.4056" lon="7.31635">
        <ele>675</ele>
        <time>2020-06-24T06:58:00.105Z</time>
      </trkpt>
      <trkpt lat="48.40559" lon="7.31635">
        <ele>675</ele>
        <time>2020-06-24T06:58:01.106Z</time>
      </trkpt>
      <trkpt lat="48.40557" lon="7.31635">
        <ele>675</ele>
        <time>2020-06-24T06:58:02.106Z</time>
      </trkpt>
      <trkpt lat="48.40556" lon="7.31634">
        <ele>676</ele>
        <time>2020-06-24T06:58:03.106Z</time>
      </trkpt>
      <trkpt lat="48.40554" lon="7.31635">
        <ele>676</ele>
        <time>2020-06-24T06:58:04.106Z</time>
      </trkpt>
      <trkpt lat="48.40552" lon="7.31634">
        <ele>677</ele>
        <time>2020-06-24T06:58:05.105Z</time>
      </trkpt>
      <trkpt lat="48.40551" lon="7.31635">
        <ele>677</ele>
        <time>2020-06-24T06:58:06.106Z</time>
      </trkpt>
      <trkpt lat="48.4055" lon="7.31635">
        <ele>677</ele>
        <time>2020-06-24T06:58:07.106Z</time>
      </trkpt>
      <trkpt lat="48.40548" lon="7.31634">
        <ele>677</ele>
        <time>2020-06-24T06:58:08.106Z</time>
      </trkpt>
      <trkpt lat="48.40547" lon="7.31634">
        <ele>677</ele>
        <time>2020-06-24T06:58:09.106Z</time>
      </trkpt>
      <trkpt lat="48.40546" lon="7.31633">
        <ele>676</ele>
        <time>2020-06-24T06:58:10.105Z</time>
      </trkpt>
      <trkpt lat="48.40544" lon="7.31632">
        <ele>676</ele>
        <time>2020-06-24T06:58:11.106Z</time>
      </trkpt>
      <trkpt lat="48.40542" lon="7.31632">
        <ele>676</ele>
        <time>2020-06-24T06:58:12.106Z</time>
      </trkpt>
      <trkpt lat="48.40541" lon="7.3163">
        <ele>676</ele>
        <time>2020-06-24T06:58:13.106Z</time>
      </trkpt>
      <trkpt lat="48.4054" lon="7.3163">
        <ele>677</ele>
        <time>2020-06-24T06:58:14.105Z</time>
      </trkpt>
      <trkpt lat="48.40539" lon="7.3163">
        <ele>677</ele>
        <time>2020-06-24T06:58:15.106Z</time>
      </trkpt>
      <trkpt lat="48.40538" lon="7.31629">
        <ele>677</ele>
        <time>2020-06-24T06:58:16.106Z</time>
      </trkpt>
      <trkpt lat="48.40537" lon="7.31629">
        <ele>678</ele>
        <time>2020-06-24T06:58:17.106Z</time>
      </trkpt>
      <trkpt lat="48.40535" lon="7.31628">
        <ele>678</ele>
        <time>2020-06-24T06:58:18.106Z</time>
      </trkpt>
      <trkpt lat="48.40534" lon="7.31627">
        <ele>679</ele>
        <time>2020-06-24T06:58:19.105Z</time>
      </trkpt>
      <trkpt lat="48.40533" lon="7.31626">
        <ele>679</ele>
        <time>2020-06-24T06:58:20.105Z</time>
      </trkpt>
      <trkpt lat="48.40531" lon="7.31625">
        <ele>679</ele>
        <time>2020-06-24T06:58:21.106Z</time>
      </trkpt>
      <trkpt lat="48.4053" lon="7.31624">
        <ele>680</ele>
        <time>2020-06-24T06:58:22.105Z</time>
      </trkpt>
      <trkpt lat="48.40528" lon="7.31624">
        <ele>680</ele>
        <time>2020-06-24T06:58:23.106Z</time>
      </trkpt>
      <trkpt lat="48.40527" lon="7.31624">
        <ele>680</ele>
        <time>2020-06-24T06:58:24.106Z</time>
      </trkpt>
      <trkpt lat="48.40526" lon="7.31623">
        <ele>680</ele>
        <time>2020-06-24T06:58:25.105Z</time>
      </trkpt>
      <trkpt lat="48.40525" lon="7.31622">
        <ele>680</ele>
        <time>2020-06-24T06:58:26.106Z</time>
      </trkpt>
      <trkpt lat="48.40524" lon="7.31621">
        <ele>681</ele>
        <time>2020-06-24T06:58:27.106Z</time>
      </trkpt>
      <trkpt lat="48.40523" lon="7.31621">
        <ele>681</ele>
        <time>2020-06-24T06:58:28.105Z</time>
      </trkpt>
      <trkpt lat="48.40521" lon="7.3162">
        <ele>681</ele>
        <time>2020-06-24T06:58:29.106Z</time>
      </trkpt>
      <trkpt lat="48.4052" lon="7.31618">
        <ele>681</ele>
        <time>2020-06-24T06:58:30.106Z</time>
      </trkpt>
      <trkpt lat="48.40518" lon="7.31616">
        <ele>680</ele>
        <time>2020-06-24T06:58:31.106Z</time>
      </trkpt>
      <trkpt lat="48.40517" lon="7.31615">
        <ele>680</ele>
        <time>2020-06-24T06:58:32.106Z</time>
      </trkpt>
      <trkpt lat="48.40516" lon="7.31614">
        <ele>679</ele>
        <time>2020-06-24T06:58:33.105Z</time>
      </trkpt>
      <trkpt lat="48.40515" lon="7.31613">
        <ele>679</ele>
        <time>2020-06-24T06:58:34.106Z</time>
      </trkpt>
      <trkpt lat="48.40513" lon="7.31612">
        <ele>680</ele>
        <time>2020-06-24T06:58:35.106Z</time>
      </trkpt>
      <trkpt lat="48.40511" lon="7.3161">
        <ele>680</ele>
        <time>2020-06-24T06:58:36.106Z</time>
      </trkpt>
      <trkpt lat="48.4051" lon="7.3161">
        <ele>680</ele>
        <time>2020-06-24T06:58:37.105Z</time>
      </trkpt>
      <trkpt lat="48.40508" lon="7.31609">
        <ele>680</ele>
        <time>2020-06-24T06:58:38.105Z</time>
      </trkpt>
      <trkpt lat="48.40507" lon="7.31607">
        <ele>681</ele>
        <time>2020-06-24T06:58:39.106Z</time>
      </trkpt>
      <trkpt lat="48.40504" lon="7.31606">
        <ele>681</ele>
        <time>2020-06-24T06:58:40.106Z</time>
      </trkpt>
      <trkpt lat="48.40503" lon="7.31605">
        <ele>682</ele>
        <time>2020-06-24T06:58:41.106Z</time>
      </trkpt>
      <trkpt lat="48.40502" lon="7.31604">
        <ele>682</ele>
        <time>2020-06-24T06:58:42.106Z</time>
      </trkpt>
      <trkpt lat="48.40501" lon="7.31603">
        <ele>683</ele>
        <time>2020-06-24T06:58:43.106Z</time>
      </trkpt>
      <trkpt lat="48.40499" lon="7.31602">
        <ele>683</ele>
        <time>2020-06-24T06:58:44.106Z</time>
      </trkpt>
      <trkpt lat="48.40498" lon="7.31601">
        <ele>683</ele>
        <time>2020-06-24T06:58:45.105Z</time>
      </trkpt>
      <trkpt lat="48.40497" lon="7.31599">
        <ele>683</ele>
        <time>2020-06-24T06:58:46.106Z</time>
      </trkpt>
      <trkpt lat="48.40496" lon="7.31596">
        <ele>683</ele>
        <time>2020-06-24T06:58:47.106Z</time>
      </trkpt>
      <trkpt lat="48.40496" lon="7.31593">
        <ele>683</ele>
        <time>2020-06-24T06:58:48.106Z</time>
      </trkpt>
      <trkpt lat="48.40495" lon="7.3159">
        <ele>682</ele>
        <time>2020-06-24T06:58:49.106Z</time>
      </trkpt>
      <trkpt lat="48.40494" lon="7.31588">
        <ele>681</ele>
        <time>2020-06-24T06:58:50.105Z</time>
      </trkpt>
      <trkpt lat="48.40494" lon="7.31585">
        <ele>680</ele>
        <time>2020-06-24T06:58:51.106Z</time>
      </trkpt>
      <trkpt lat="48.40493" lon="7.31584">
        <ele>679</ele>
        <time>2020-06-24T06:58:52.106Z</time>
      </trkpt>
      <trkpt lat="48.40492" lon="7.31582">
        <ele>678</ele>
        <time>2020-06-24T06:58:53.106Z</time>
      </trkpt>
      <trkpt lat="48.40492" lon="7.3158">
        <ele>677</ele>
        <time>2020-06-24T06:58:54.106Z</time>
      </trkpt>
      <trkpt lat="48.40491" lon="7.31579">
        <ele>676</ele>
        <time>2020-06-24T06:58:55.106Z</time>
      </trkpt>
      <trkpt lat="48.4049" lon="7.31577">
        <ele>675</ele>
        <time>2020-06-24T06:58:56.105Z</time>
      </trkpt>
      <trkpt lat="48.40489" lon="7.31574">
        <ele>675</ele>
        <time>2020-06-24T06:58:57.106Z</time>
      </trkpt>
      <trkpt lat="48.40488" lon="7.31572">
        <ele>675</ele>
        <time>2020-06-24T06:58:58.105Z</time>
      </trkpt>
      <trkpt lat="48.40486" lon="7.3157">
        <ele>674</ele>
        <time>2020-06-24T06:58:59.106Z</time>
      </trkpt>
      <trkpt lat="48.40485" lon="7.31568">
        <ele>674</ele>
        <time>2020-06-24T06:59:00.106Z</time>
      </trkpt>
      <trkpt lat="48.40484" lon="7.31567">
        <ele>674</ele>
        <time>2020-06-24T06:59:01.106Z</time>
      </trkpt>
      <trkpt lat="48.40484" lon="7.31564">
        <ele>673</ele>
        <time>2020-06-24T06:59:02.106Z</time>
      </trkpt>
      <trkpt lat="48.40483" lon="7.31563">
        <ele>673</ele>
        <time>2020-06-24T06:59:03.105Z</time>
      </trkpt>
      <trkpt lat="48.40482" lon="7.31561">
        <ele>673</ele>
        <time>2020-06-24T06:59:04.106Z</time>
      </trkpt>
      <trkpt lat="48.40481" lon="7.3156">
        <ele>672</ele>
        <time>2020-06-24T06:59:05.105Z</time>
      </trkpt>
      <trkpt lat="48.4048" lon="7.31558">
        <ele>672</ele>
        <time>2020-06-24T06:59:06.106Z</time>
      </trkpt>
      <trkpt lat="48.4048" lon="7.31555">
        <ele>672</ele>
        <time>2020-06-24T06:59:07.106Z</time>
      </trkpt>
      <trkpt lat="48.40479" lon="7.31552">
        <ele>671</ele>
        <time>2020-06-24T06:59:08.106Z</time>
      </trkpt>
      <trkpt lat="48.40479" lon="7.31549">
        <ele>671</ele>
        <time>2020-06-24T06:59:09.106Z</time>
      </trkpt>
      <trkpt lat="48.40478" lon="7.31547">
        <ele>671</ele>
        <time>2020-06-24T06:59:10.105Z</time>
      </trkpt>
      <trkpt lat="48.40477" lon="7.31545">
        <ele>671</ele>
        <time>2020-06-24T06:59:11.105Z</time>
      </trkpt>
      <trkpt lat="48.40477" lon="7.31543">
        <ele>671</ele>
        <time>2020-06-24T06:59:12.106Z</time>
      </trkpt>
      <trkpt lat="48.40477" lon="7.31542">
        <ele>671</ele>
        <time>2020-06-24T06:59:13.106Z</time>
      </trkpt>
      <trkpt lat="48.40477" lon="7.3154">
        <ele>672</ele>
        <time>2020-06-24T06:59:14.106Z</time>
      </trkpt>
      <trkpt lat="48.40477" lon="7.31538">
        <ele>672</ele>
        <time>2020-06-24T06:59:15.106Z</time>
      </trkpt>
      <trkpt lat="48.40477" lon="7.31536">
        <ele>671</ele>
        <time>2020-06-24T06:59:16.105Z</time>
      </trkpt>
      <trkpt lat="48.40477" lon="7.31535">
        <ele>671</ele>
        <time>2020-06-24T06:59:17.106Z</time>
      </trkpt>
      <trkpt lat="48.40477" lon="7.31531">
        <ele>670</ele>
        <time>2020-06-24T06:59:18.106Z</time>
      </trkpt>
      <trkpt lat="48.40477" lon="7.31528">
        <ele>669</ele>
        <time>2020-06-24T06:59:19.105Z</time>
      </trkpt>
      <trkpt lat="48.40476" lon="7.31526">
        <ele>668</ele>
        <time>2020-06-24T06:59:20.106Z</time>
      </trkpt>
      <trkpt lat="48.40475" lon="7.31523">
        <ele>667</ele>
        <time>2020-06-24T06:59:21.106Z</time>
      </trkpt>
      <trkpt lat="48.40475" lon="7.31521">
        <ele>667</ele>
        <time>2020-06-24T06:59:22.106Z</time>
      </trkpt>
      <trkpt lat="48.40475" lon="7.31518">
        <ele>666</ele>
        <time>2020-06-24T06:59:23.106Z</time>
      </trkpt>
      <trkpt lat="48.40475" lon="7.31516">
        <ele>666</ele>
        <time>2020-06-24T06:59:24.106Z</time>
      </trkpt>
      <trkpt lat="48.40474" lon="7.31513">
        <ele>665</ele>
        <time>2020-06-24T06:59:25.106Z</time>
      </trkpt>
      <trkpt lat="48.40474" lon="7.31511">
        <ele>665</ele>
        <time>2020-06-24T06:59:26.106Z</time>
      </trkpt>
      <trkpt lat="48.40474" lon="7.31508">
        <ele>664</ele>
        <time>2020-06-24T06:59:27.106Z</time>
      </trkpt>
      <trkpt lat="48.40472" lon="7.31505">
        <ele>664</ele>
        <time>2020-06-24T06:59:28.105Z</time>
      </trkpt>
      <trkpt lat="48.40472" lon="7.31501">
        <ele>664</ele>
        <time>2020-06-24T06:59:29.106Z</time>
      </trkpt>
      <trkpt lat="48.40471" lon="7.31499">
        <ele>664</ele>
        <time>2020-06-24T06:59:30.106Z</time>
      </trkpt>
      <trkpt lat="48.4047" lon="7.31497">
        <ele>664</ele>
        <time>2020-06-24T06:59:31.106Z</time>
      </trkpt>
      <trkpt lat="48.40469" lon="7.31495">
        <ele>665</ele>
        <time>2020-06-24T06:59:32.106Z</time>
      </trkpt>
      <trkpt lat="48.40469" lon="7.31493">
        <ele>665</ele>
        <time>2020-06-24T06:59:33.106Z</time>
      </trkpt>
      <trkpt lat="48.40468" lon="7.31492">
        <ele>665</ele>
        <time>2020-06-24T06:59:34.105Z</time>
      </trkpt>
      <trkpt lat="48.40467" lon="7.31491">
        <ele>666</ele>
        <time>2020-06-24T06:59:35.106Z</time>
      </trkpt>
      <trkpt lat="48.40467" lon="7.3149">
        <ele>666</ele>
        <time>2020-06-24T06:59:36.106Z</time>
      </trkpt>
      <trkpt lat="48.40466" lon="7.31489">
        <ele>666</ele>
        <time>2020-06-24T06:59:37.106Z</time>
      </trkpt>
      <trkpt lat="48.40465" lon="7.31487">
        <ele>667</ele>
        <time>2020-06-24T06:59:38.105Z</time>
      </trkpt>
      <trkpt lat="48.40464" lon="7.31485">
        <ele>667</ele>
        <time>2020-06-24T06:59:39.106Z</time>
      </trkpt>
      <trkpt lat="48.40462" lon="7.31484">
        <ele>668</ele>
        <time>2020-06-24T06:59:40.106Z</time>
      </trkpt>
      <trkpt lat="48.40461" lon="7.31483">
        <ele>668</ele>
        <time>2020-06-24T06:59:41.106Z</time>
      </trkpt>
      <trkpt lat="48.4046" lon="7.31483">
        <ele>668</ele>
        <time>2020-06-24T06:59:42.106Z</time>
      </trkpt>
      <trkpt lat="48.40458" lon="7.31482">
        <ele>669</ele>
        <time>2020-06-24T06:59:43.105Z</time>
      </trkpt>
      <trkpt lat="48.40458" lon="7.3148">
        <ele>670</ele>
        <time>2020-06-24T06:59:44.105Z</time>
      </trkpt>
      <trkpt lat="48.40456" lon="7.31479">
        <ele>670</ele>
        <time>2020-06-24T06:59:45.106Z</time>
      </trkpt>
      <trkpt lat="48.40455" lon="7.31478">
        <ele>671</ele>
        <time>2020-06-24T06:59:46.106Z</time>
      </trkpt>
      <trkpt lat="48.40455" lon="7.31477">
        <ele>671</ele>
        <time>2020-06-24T06:59:47.106Z</time>
      </trkpt>
      <trkpt lat="48.40454" lon="7.31476">
        <ele>671</ele>
        <time>2020-06-24T06:59:48.106Z</time>
      </trkpt>
      <trkpt lat="48.40454" lon="7.31475">
        <ele>671</ele>
        <time>2020-06-24T06:59:49.106Z</time>
      </trkpt>
      <trkpt lat="48.40453" lon="7.31474">
        <ele>670</ele>
        <time>2020-06-24T06:59:50.106Z</time>
      </trkpt>
      <trkpt lat="48.40453" lon="7.31472">
        <ele>670</ele>
        <time>2020-06-24T06:59:51.105Z</time>
      </trkpt>
      <trkpt lat="48.40452" lon="7.3147">
        <ele>670</ele>
        <time>2020-06-24T06:59:52.106Z</time>
      </trkpt>
      <trkpt lat="48.40452" lon="7.31468">
        <ele>669</ele>
        <time>2020-06-24T06:59:53.106Z</time>
      </trkpt>
      <trkpt lat="48.40451" lon="7.31467">
        <ele>669</ele>
        <time>2020-06-24T06:59:54.106Z</time>
      </trkpt>
      <trkpt lat="48.4045" lon="7.31465">
        <ele>669</ele>
        <time>2020-06-24T06:59:55.105Z</time>
      </trkpt>
      <trkpt lat="48.40449" lon="7.31463">
        <ele>669</ele>
        <time>2020-06-24T06:59:56.106Z</time>
      </trkpt>
      <trkpt lat="48.40449" lon="7.31461">
        <ele>668</ele>
        <time>2020-06-24T06:59:57.106Z</time>
      </trkpt>
      <trkpt lat="48.40448" lon="7.31458">
        <ele>668</ele>
        <time>2020-06-24T06:59:58.106Z</time>
      </trkpt>
      <trkpt lat="48.40447" lon="7.31455">
        <ele>667</ele>
        <time>2020-06-24T06:59:59.106Z</time>
      </trkpt>
      <trkpt lat="48.40447" lon="7.31453">
        <ele>667</ele>
        <time>2020-06-24T07:00:00.106Z</time>
      </trkpt>
      <trkpt lat="48.40446" lon="7.31451">
        <ele>666</ele>
        <time>2020-06-24T07:00:01.106Z</time>
      </trkpt>
      <trkpt lat="48.40445" lon="7.31449">
        <ele>666</ele>
        <time>2020-06-24T07:00:02.106Z</time>
      </trkpt>
      <trkpt lat="48.40445" lon="7.31448">
        <ele>666</ele>
        <time>2020-06-24T07:00:03.106Z</time>
      </trkpt>
      <trkpt lat="48.40445" lon="7.31446">
        <ele>665</ele>
        <time>2020-06-24T07:00:04.106Z</time>
      </trkpt>
      <trkpt lat="48.40444" lon="7.31444">
        <ele>665</ele>
        <time>2020-06-24T07:00:05.106Z</time>
      </trkpt>
      <trkpt lat="48.40444" lon="7.31442">
        <ele>665</ele>
        <time>2020-06-24T07:00:06.106Z</time>
      </trkpt>
      <trkpt lat="48.40443" lon="7.3144">
        <ele>665</ele>
        <time>2020-06-24T07:00:07.106Z</time>
      </trkpt>
      <trkpt lat="48.40442" lon="7.31438">
        <ele>665</ele>
        <time>2020-06-24T07:00:08.105Z</time>
      </trkpt>
      <trkpt lat="48.40442" lon="7.31436">
        <ele>665</ele>
        <time>2020-06-24T07:00:09.106Z</time>
      </trkpt>
      <trkpt lat="48.40442" lon="7.31434">
        <ele>665</ele>
        <time>2020-06-24T07:00:10.106Z</time>
      </trkpt>
      <trkpt lat="48.40441" lon="7.31432">
        <ele>664</ele>
        <time>2020-06-24T07:00:11.106Z</time>
      </trkpt>
      <trkpt lat="48.4044" lon="7.3143">
        <ele>664</ele>
        <time>2020-06-24T07:00:12.106Z</time>
      </trkpt>
      <trkpt lat="48.4044" lon="7.31428">
        <ele>663</ele>
        <time>2020-06-24T07:00:13.105Z</time>
      </trkpt>
      <trkpt lat="48.40439" lon="7.31426">
        <ele>662</ele>
        <time>2020-06-24T07:00:14.106Z</time>
      </trkpt>
      <trkpt lat="48.40438" lon="7.31424">
        <ele>661</ele>
        <time>2020-06-24T07:00:15.106Z</time>
      </trkpt>
      <trkpt lat="48.40437" lon="7.31423">
        <ele>660</ele>
        <time>2020-06-24T07:00:16.105Z</time>
      </trkpt>
      <trkpt lat="48.40437" lon="7.31421">
        <ele>660</ele>
        <time>2020-06-24T07:00:17.106Z</time>
      </trkpt>
      <trkpt lat="48.40437" lon="7.3142">
        <ele>660</ele>
        <time>2020-06-24T07:00:18.106Z</time>
      </trkpt>
      <trkpt lat="48.40437" lon="7.31418">
        <ele>660</ele>
        <time>2020-06-24T07:00:19.105Z</time>
      </trkpt>
      <trkpt lat="48.40436" lon="7.31415">
        <ele>660</ele>
        <time>2020-06-24T07:00:20.106Z</time>
      </trkpt>
      <trkpt lat="48.40436" lon="7.31413">
        <ele>660</ele>
        <time>2020-06-24T07:00:21.106Z</time>
      </trkpt>
      <trkpt lat="48.40436" lon="7.3141">
        <ele>660</ele>
        <time>2020-06-24T07:00:22.106Z</time>
      </trkpt>
      <trkpt lat="48.40435" lon="7.31409">
        <ele>659</ele>
        <time>2020-06-24T07:00:23.106Z</time>
      </trkpt>
      <trkpt lat="48.40435" lon="7.31407">
        <ele>659</ele>
        <time>2020-06-24T07:00:24.106Z</time>
      </trkpt>
      <trkpt lat="48.40434" lon="7.31404">
        <ele>659</ele>
        <time>2020-06-24T07:00:25.105Z</time>
      </trkpt>
      <trkpt lat="48.40433" lon="7.31402">
        <ele>659</ele>
        <time>2020-06-24T07:00:26.106Z</time>
      </trkpt>
      <trkpt lat="48.40432" lon="7.314">
        <ele>660</ele>
        <time>2020-06-24T07:00:27.106Z</time>
      </trkpt>
      <trkpt lat="48.40432" lon="7.31397">
        <ele>660</ele>
        <time>2020-06-24T07:00:28.106Z</time>
      </trkpt>
      <trkpt lat="48.40432" lon="7.31395">
        <ele>661</ele>
        <time>2020-06-24T07:00:29.105Z</time>
      </trkpt>
      <trkpt lat="48.40432" lon="7.31393">
        <ele>661</ele>
        <time>2020-06-24T07:00:30.106Z</time>
      </trkpt>
      <trkpt lat="48.40432" lon="7.3139">
        <ele>662</ele>
        <time>2020-06-24T07:00:31.106Z</time>
      </trkpt>
      <trkpt lat="48.40432" lon="7.31388">
        <ele>662</ele>
        <time>2020-06-24T07:00:32.106Z</time>
      </trkpt>
      <trkpt lat="48.40432" lon="7.31386">
        <ele>663</ele>
        <time>2020-06-24T07:00:33.105Z</time>
      </trkpt>
      <trkpt lat="48.40432" lon="7.31385">
        <ele>663</ele>
        <time>2020-06-24T07:00:34.106Z</time>
      </trkpt>
      <trkpt lat="48.40432" lon="7.31384">
        <ele>664</ele>
        <time>2020-06-24T07:00:35.106Z</time>
      </trkpt>
      <trkpt lat="48.40432" lon="7.31382">
        <ele>665</ele>
        <time>2020-06-24T07:00:36.106Z</time>
      </trkpt>
      <trkpt lat="48.40432" lon="7.31381">
        <ele>666</ele>
        <time>2020-06-24T07:00:37.106Z</time>
      </trkpt>
      <trkpt lat="48.40432" lon="7.31379">
        <ele>667</ele>
        <time>2020-06-24T07:00:38.106Z</time>
      </trkpt>
      <trkpt lat="48.40432" lon="7.31377">
        <ele>668</ele>
        <time>2020-06-24T07:00:39.105Z</time>
      </trkpt>
      <trkpt lat="48.40431" lon="7.31375">
        <ele>669</ele>
        <time>2020-06-24T07:00:40.105Z</time>
      </trkpt>
      <trkpt lat="48.40431" lon="7.31372">
        <ele>669</ele>
        <time>2020-06-24T07:00:41.106Z</time>
      </trkpt>
      <trkpt lat="48.40431" lon="7.31371">
        <ele>669</ele>
        <time>2020-06-24T07:00:42.105Z</time>
      </trkpt>
      <trkpt lat="48.4043" lon="7.31369">
        <ele>669</ele>
        <time>2020-06-24T07:00:43.106Z</time>
      </trkpt>
      <trkpt lat="48.4043" lon="7.31367">
        <ele>669</ele>
        <time>2020-06-24T07:00:44.106Z</time>
      </trkpt>
      <trkpt lat="48.40429" lon="7.31366">
        <ele>669</ele>
        <time>2020-06-24T07:00:45.106Z</time>
      </trkpt>
      <trkpt lat="48.40428" lon="7.31365">
        <ele>669</ele>
        <time>2020-06-24T07:00:46.106Z</time>
      </trkpt>
      <trkpt lat="48.40426" lon="7.31364">
        <ele>670</ele>
        <time>2020-06-24T07:00:47.106Z</time>
      </trkpt>
      <trkpt lat="48.40425" lon="7.31363">
        <ele>671</ele>
        <time>2020-06-24T07:00:48.105Z</time>
      </trkpt>
      <trkpt lat="48.40424" lon="7.31361">
        <ele>672</ele>
        <time>2020-06-24T07:00:49.105Z</time>
      </trkpt>
      <trkpt lat="48.40423" lon="7.3136">
        <ele>672</ele>
        <time>2020-06-24T07:00:50.106Z</time>
      </trkpt>
      <trkpt lat="48.40422" lon="7.31357">
        <ele>673</ele>
        <time>2020-06-24T07:00:51.106Z</time>
      </trkpt>
      <trkpt lat="48.40422" lon="7.31355">
        <ele>673</ele>
        <time>2020-06-24T07:00:52.106Z</time>
      </trkpt>
      <trkpt lat="48.40421" lon="7.31353">
        <ele>673</ele>
        <time>2020-06-24T07:00:53.105Z</time>
      </trkpt>
      <trkpt lat="48.4042" lon="7.31352">
        <ele>672</ele>
        <time>2020-06-24T07:00:54.105Z</time>
      </trkpt>
      <trkpt lat="48.4042" lon="7.31351">
        <ele>672</ele>
        <time>2020-06-24T07:00:55.106Z</time>
      </trkpt>
      <trkpt lat="48.40418" lon="7.31349">
        <ele>672</ele>
        <time>2020-06-24T07:00:56.106Z</time>
      </trkpt>
      <trkpt lat="48.40417" lon="7.31347">
        <ele>672</ele>
        <time>2020-06-24T07:00:57.106Z</time>
      </trkpt>
      <trkpt lat="48.40416" lon="7.31345">
        <ele>672</ele>
        <time>2020-06-24T07:00:58.105Z</time>
      </trkpt>
      <trkpt lat="48.40415" lon="7.31342">
        <ele>672</ele>
        <time>2020-06-24T07:00:59.106Z</time>
      </trkpt>
      <trkpt lat="48.40414" lon="7.3134">
        <ele>672</ele>
        <time>2020-06-24T07:01:00.106Z</time>
      </trkpt>
      <trkpt lat="48.40413" lon="7.31338">
        <ele>672</ele>
        <time>2020-06-24T07:01:01.106Z</time>
      </trkpt>
      <trkpt lat="48.40412" lon="7.31336">
        <ele>672</ele>
        <time>2020-06-24T07:01:02.105Z</time>
      </trkpt>
      <trkpt lat="48.40411" lon="7.31334">
        <ele>672</ele>
        <time>2020-06-24T07:01:03.106Z</time>
      </trkpt>
      <trkpt lat="48.40411" lon="7.31333">
        <ele>673</ele>
        <time>2020-06-24T07:01:04.105Z</time>
      </trkpt>
      <trkpt lat="48.4041" lon="7.31331">
        <ele>674</ele>
        <time>2020-06-24T07:01:05.105Z</time>
      </trkpt>
      <trkpt lat="48.40409" lon="7.31331">
        <ele>675</ele>
        <time>2020-06-24T07:01:06.106Z</time>
      </trkpt>
      <trkpt lat="48.40408" lon="7.3133">
        <ele>676</ele>
        <time>2020-06-24T07:01:07.105Z</time>
      </trkpt>
      <trkpt lat="48.40408" lon="7.3133">
        <ele>677</ele>
        <time>2020-06-24T07:01:08.105Z</time>
      </trkpt>
      <trkpt lat="48.40407" lon="7.3133">
        <ele>678</ele>
        <time>2020-06-24T07:01:09.105Z</time>
      </trkpt>
      <trkpt lat="48.40406" lon="7.3133">
        <ele>678</ele>
        <time>2020-06-24T07:01:10.105Z</time>
      </trkpt>
      <trkpt lat="48.40405" lon="7.31329">
        <ele>679</ele>
        <time>2020-06-24T07:01:11.105Z</time>
      </trkpt>
      <trkpt lat="48.40403" lon="7.31328">
        <ele>680</ele>
        <time>2020-06-24T07:01:12.106Z</time>
      </trkpt>
      <trkpt lat="48.40402" lon="7.31327">
        <ele>680</ele>
        <time>2020-06-24T07:01:13.105Z</time>
      </trkpt>
      <trkpt lat="48.404" lon="7.31326">
        <ele>681</ele>
        <time>2020-06-24T07:01:14.105Z</time>
      </trkpt>
      <trkpt lat="48.40399" lon="7.31325">
        <ele>681</ele>
        <time>2020-06-24T07:01:15.105Z</time>
      </trkpt>
      <trkpt lat="48.40398" lon="7.31325">
        <ele>681</ele>
        <time>2020-06-24T07:01:16.106Z</time>
      </trkpt>
      <trkpt lat="48.40397" lon="7.31325">
        <ele>681</ele>
        <time>2020-06-24T07:01:17.106Z</time>
      </trkpt>
      <trkpt lat="48.40395" lon="7.31324">
        <ele>682</ele>
        <time>2020-06-24T07:01:18.105Z</time>
      </trkpt>
      <trkpt lat="48.40393" lon="7.31324">
        <ele>682</ele>
        <time>2020-06-24T07:01:19.105Z</time>
      </trkpt>
      <trkpt lat="48.40391" lon="7.31324">
        <ele>683</ele>
        <time>2020-06-24T07:01:20.106Z</time>
      </trkpt>
      <trkpt lat="48.4039" lon="7.31323">
        <ele>683</ele>
        <time>2020-06-24T07:01:21.105Z</time>
      </trkpt>
      <trkpt lat="48.40388" lon="7.31322">
        <ele>684</ele>
        <time>2020-06-24T07:01:22.106Z</time>
      </trkpt>
      <trkpt lat="48.40387" lon="7.31321">
        <ele>685</ele>
        <time>2020-06-24T07:01:23.105Z</time>
      </trkpt>
      <trkpt lat="48.40386" lon="7.3132">
        <ele>685</ele>
        <time>2020-06-24T07:01:24.106Z</time>
      </trkpt>
      <trkpt lat="48.40385" lon="7.3132">
        <ele>686</ele>
        <time>2020-06-24T07:01:25.106Z</time>
      </trkpt>
      <trkpt lat="48.40383" lon="7.31319">
        <ele>687</ele>
        <time>2020-06-24T07:01:26.106Z</time>
      </trkpt>
      <trkpt lat="48.40382" lon="7.31318">
        <ele>687</ele>
        <time>2020-06-24T07:01:27.106Z</time>
      </trkpt>
      <trkpt lat="48.40381" lon="7.31318">
        <ele>687</ele>
        <time>2020-06-24T07:01:28.106Z</time>
      </trkpt>
      <trkpt lat="48.4038" lon="7.31317">
        <ele>687</ele>
        <time>2020-06-24T07:01:29.106Z</time>
      </trkpt>
      <trkpt lat="48.40379" lon="7.31315">
        <ele>687</ele>
        <time>2020-06-24T07:01:30.106Z</time>
      </trkpt>
      <trkpt lat="48.40378" lon="7.31313">
        <ele>687</ele>
        <time>2020-06-24T07:01:31.106Z</time>
      </trkpt>
      <trkpt lat="48.40377" lon="7.31311">
        <ele>686</ele>
        <time>2020-06-24T07:01:32.106Z</time>
      </trkpt>
      <trkpt lat="48.40377" lon="7.31309">
        <ele>685</ele>
        <time>2020-06-24T07:01:33.105Z</time>
      </trkpt>
      <trkpt lat="48.40376" lon="7.31305">
        <ele>684</ele>
        <time>2020-06-24T07:01:34.105Z</time>
      </trkpt>
      <trkpt lat="48.40376" lon="7.31302">
        <ele>683</ele>
        <time>2020-06-24T07:01:35.105Z</time>
      </trkpt>
      <trkpt lat="48.40376" lon="7.31299">
        <ele>683</ele>
        <time>2020-06-24T07:01:36.106Z</time>
      </trkpt>
      <trkpt lat="48.40375" lon="7.31297">
        <ele>682</ele>
        <time>2020-06-24T07:01:37.106Z</time>
      </trkpt>
      <trkpt lat="48.40375" lon="7.31294">
        <ele>681</ele>
        <time>2020-06-24T07:01:38.105Z</time>
      </trkpt>
      <trkpt lat="48.40374" lon="7.31292">
        <ele>680</ele>
        <time>2020-06-24T07:01:39.105Z</time>
      </trkpt>
      <trkpt lat="48.40374" lon="7.31289">
        <ele>680</ele>
        <time>2020-06-24T07:01:40.106Z</time>
      </trkpt>
      <trkpt lat="48.40373" lon="7.31287">
        <ele>679</ele>
        <time>2020-06-24T07:01:41.106Z</time>
      </trkpt>
      <trkpt lat="48.40373" lon="7.31285">
        <ele>678</ele>
        <time>2020-06-24T07:01:42.106Z</time>
      </trkpt>
      <trkpt lat="48.40373" lon="7.31283">
        <ele>677</ele>
        <time>2020-06-24T07:01:43.105Z</time>
      </trkpt>
      <trkpt lat="48.40373" lon="7.3128">
        <ele>677</ele>
        <time>2020-06-24T07:01:44.105Z</time>
      </trkpt>
      <trkpt lat="48.40373" lon="7.31277">
        <ele>676</ele>
        <time>2020-06-24T07:01:45.105Z</time>
      </trkpt>
      <trkpt lat="48.40373" lon="7.31276">
        <ele>676</ele>
        <time>2020-06-24T07:01:46.106Z</time>
      </trkpt>
      <trkpt lat="48.40373" lon="7.31274">
        <ele>675</ele>
        <time>2020-06-24T07:01:47.105Z</time>
      </trkpt>
      <trkpt lat="48.40373" lon="7.31273">
        <ele>675</ele>
        <time>2020-06-24T07:01:48.105Z</time>
      </trkpt>
      <trkpt lat="48.40372" lon="7.31273">
        <ele>675</ele>
        <time>2020-06-24T07:01:49.106Z</time>
      </trkpt>
      <trkpt lat="48.40371" lon="7.31271">
        <ele>675</ele>
        <time>2020-06-24T07:01:50.106Z</time>
      </trkpt>
      <trkpt lat="48.40371" lon="7.31269">
        <ele>674</ele>
        <time>2020-06-24T07:01:51.105Z</time>
      </trkpt>
      <trkpt lat="48.40371" lon="7.31266">
        <ele>673</ele>
        <time>2020-06-24T07:01:52.106Z</time>
      </trkpt>
      <trkpt lat="48.40372" lon="7.31264">
        <ele>672</ele>
        <time>2020-06-24T07:01:53.106Z</time>
      </trkpt>
      <trkpt lat="48.40373" lon="7.31262">
        <ele>671</ele>
        <time>2020-06-24T07:01:54.105Z</time>
      </trkpt>
      <trkpt lat="48.40373" lon="7.31261">
        <ele>670</ele>
        <time>2020-06-24T07:01:55.106Z</time>
      </trkpt>
      <trkpt lat="48.40373" lon="7.3126">
        <ele>668</ele>
        <time>2020-06-24T07:01:56.106Z</time>
      </trkpt>
      <trkpt lat="48.40373" lon="7.3126">
        <ele>667</ele>
        <time>2020-06-24T07:01:57.106Z</time>
      </trkpt>
      <trkpt lat="48.40373" lon="7.31258">
        <ele>666</ele>
        <time>2020-06-24T07:01:58.105Z</time>
      </trkpt>
      <trkpt lat="48.40373" lon="7.31257">
        <ele>665</ele>
        <time>2020-06-24T07:01:59.106Z</time>
      </trkpt>
      <trkpt lat="48.40373" lon="7.31255">
        <ele>665</ele>
        <time>2020-06-24T07:02:00.106Z</time>
      </trkpt>
      <trkpt lat="48.40373" lon="7.31254">
        <ele>664</ele>
        <time>2020-06-24T07:02:01.106Z</time>
      </trkpt>
      <trkpt lat="48.40372" lon="7.31253">
        <ele>663</ele>
        <time>2020-06-24T07:02:02.106Z</time>
      </trkpt>
      <trkpt lat="48.40372" lon="7.31251">
        <ele>663</ele>
        <time>2020-06-24T07:02:03.106Z</time>
      </trkpt>
      <trkpt lat="48.40371" lon="7.3125">
        <ele>663</ele>
        <time>2020-06-24T07:02:04.105Z</time>
      </trkpt>
      <trkpt lat="48.4037" lon="7.31248">
        <ele>663</ele>
        <time>2020-06-24T07:02:05.106Z</time>
      </trkpt>
      <trkpt lat="48.40369" lon="7.31247">
        <ele>663</ele>
        <time>2020-06-24T07:02:06.106Z</time>
      </trkpt>
      <trkpt lat="48.40369" lon="7.31244">
        <ele>664</ele>
        <time>2020-06-24T07:02:07.106Z</time>
      </trkpt>
      <trkpt lat="48.40368" lon="7.31242">
        <ele>664</ele>
        <time>2020-06-24T07:02:08.105Z</time>
      </trkpt>
      <trkpt lat="48.40368" lon="7.3124">
        <ele>665</ele>
        <time>2020-06-24T07:02:09.105Z</time>
      </trkpt>
      <trkpt lat="48.40367" lon="7.31237">
        <ele>665</ele>
        <time>2020-06-24T07:02:10.106Z</time>
      </trkpt>
      <trkpt lat="48.40366" lon="7.31234">
        <ele>665</ele>
        <time>2020-06-24T07:02:11.106Z</time>
      </trkpt>
      <trkpt lat="48.40365" lon="7.31231">
        <ele>666</ele>
        <time>2020-06-24T07:02:12.106Z</time>
      </trkpt>
      <trkpt lat="48.40364" lon="7.3123">
        <ele>666</ele>
        <time>2020-06-24T07:02:13.105Z</time>
      </trkpt>
      <trkpt lat="48.40363" lon="7.31228">
        <ele>666</ele>
        <time>2020-06-24T07:02:14.106Z</time>
      </trkpt>
      <trkpt lat="48.40363" lon="7.31225">
        <ele>666</ele>
        <time>2020-06-24T07:02:15.106Z</time>
      </trkpt>
      <trkpt lat="48.40362" lon="7.31222">
        <ele>665</ele>
        <time>2020-06-24T07:02:16.106Z</time>
      </trkpt>
      <trkpt lat="48.40362" lon="7.31221">
        <ele>665</ele>
        <time>2020-06-24T07:02:17.105Z</time>
      </trkpt>
      <trkpt lat="48.40361" lon="7.31219">
        <ele>666</ele>
        <time>2020-06-24T07:02:18.106Z</time>
      </trkpt>
      <trkpt lat="48.4036" lon="7.31217">
        <ele>666</ele>
        <time>2020-06-24T07:02:19.106Z</time>
      </trkpt>
      <trkpt lat="48.40359" lon="7.31215">
        <ele>666</ele>
        <time>2020-06-24T07:02:20.105Z</time>
      </trkpt>
      <trkpt lat="48.40359" lon="7.31213">
        <ele>666</ele>
        <time>2020-06-24T07:02:21.106Z</time>
      </trkpt>
      <trkpt lat="48.40358" lon="7.31211">
        <ele>666</ele>
        <time>2020-06-24T07:02:22.106Z</time>
      </trkpt>
      <trkpt lat="48.40358" lon="7.31209">
        <ele>666</ele>
        <time>2020-06-24T07:02:23.105Z</time>
      </trkpt>
      <trkpt lat="48.40357" lon="7.31207">
        <ele>665</ele>
        <time>2020-06-24T07:02:24.105Z</time>
      </trkpt>
      <trkpt lat="48.40357" lon="7.31205">
        <ele>665</ele>
        <time>2020-06-24T07:02:25.106Z</time>
      </trkpt>
      <trkpt lat="48.40356" lon="7.31203">
        <ele>665</ele>
        <time>2020-06-24T07:02:26.106Z</time>
      </trkpt>
      <trkpt lat="48.40356" lon="7.31201">
        <ele>664</ele>
        <time>2020-06-24T07:02:27.106Z</time>
      </trkpt>
      <trkpt lat="48.40356" lon="7.31198">
        <ele>664</ele>
        <time>2020-06-24T07:02:28.106Z</time>
      </trkpt>
      <trkpt lat="48.40357" lon="7.31196">
        <ele>663</ele>
        <time>2020-06-24T07:02:29.105Z</time>
      </trkpt>
      <trkpt lat="48.40357" lon="7.31194">
        <ele>663</ele>
        <time>2020-06-24T07:02:30.106Z</time>
      </trkpt>
      <trkpt lat="48.40358" lon="7.31191">
        <ele>662</ele>
        <time>2020-06-24T07:02:31.106Z</time>
      </trkpt>
      <trkpt lat="48.40359" lon="7.31189">
        <ele>662</ele>
        <time>2020-06-24T07:02:32.106Z</time>
      </trkpt>
      <trkpt lat="48.4036" lon="7.31187">
        <ele>663</ele>
        <time>2020-06-24T07:02:33.105Z</time>
      </trkpt>
      <trkpt lat="48.40361" lon="7.31184">
        <ele>663</ele>
        <time>2020-06-24T07:02:34.106Z</time>
      </trkpt>
      <trkpt lat="48.40362" lon="7.31182">
        <ele>664</ele>
        <time>2020-06-24T07:02:35.105Z</time>
      </trkpt>
      <trkpt lat="48.40363" lon="7.31179">
        <ele>665</ele>
        <time>2020-06-24T07:02:36.106Z</time>
      </trkpt>
      <trkpt lat="48.40364" lon="7.31177">
        <ele>665</ele>
        <time>2020-06-24T07:02:37.106Z</time>
      </trkpt>
      <trkpt lat="48.40366" lon="7.31175">
        <ele>666</ele>
        <time>2020-06-24T07:02:38.106Z</time>
      </trkpt>
      <trkpt lat="48.40367" lon="7.31174">
        <ele>667</ele>
        <time>2020-06-24T07:02:39.105Z</time>
      </trkpt>
      <trkpt lat="48.40369" lon="7.31171">
        <ele>667</ele>
        <time>2020-06-24T07:02:40.106Z</time>
      </trkpt>
      <trkpt lat="48.4037" lon="7.31169">
        <ele>668</ele>
        <time>2020-06-24T07:02:41.106Z</time>
      </trkpt>
      <trkpt lat="48.40372" lon="7.31168">
        <ele>669</ele>
        <time>2020-06-24T07:02:42.105Z</time>
      </trkpt>
      <trkpt lat="48.40373" lon="7.31167">
        <ele>669</ele>
        <time>2020-06-24T07:02:43.105Z</time>
      </trkpt>
      <trkpt lat="48.40374" lon="7.31166">
        <ele>670</ele>
        <time>2020-06-24T07:02:44.106Z</time>
      </trkpt>
      <trkpt lat="48.40376" lon="7.31164">
        <ele>670</ele>
        <time>2020-06-24T07:02:45.106Z</time>
      </trkpt>
      <trkpt lat="48.40378" lon="7.31164">
        <ele>671</ele>
        <time>2020-06-24T07:02:46.106Z</time>
      </trkpt>
      <trkpt lat="48.40379" lon="7.31163">
        <ele>672</ele>
        <time>2020-06-24T07:02:47.106Z</time>
      </trkpt>
      <trkpt lat="48.40381" lon="7.31162">
        <ele>672</ele>
        <time>2020-06-24T07:02:48.106Z</time>
      </trkpt>
      <trkpt lat="48.40382" lon="7.31161">
        <ele>672</ele>
        <time>2020-06-24T07:02:49.106Z</time>
      </trkpt>
      <trkpt lat="48.40383" lon="7.31161">
        <ele>673</ele>
        <time>2020-06-24T07:02:50.106Z</time>
      </trkpt>
      <trkpt lat="48.40385" lon="7.3116">
        <ele>673</ele>
        <time>2020-06-24T07:02:51.106Z</time>
      </trkpt>
      <trkpt lat="48.40386" lon="7.31158">
        <ele>674</ele>
        <time>2020-06-24T07:02:52.106Z</time>
      </trkpt>
      <trkpt lat="48.40388" lon="7.31157">
        <ele>675</ele>
        <time>2020-06-24T07:02:53.106Z</time>
      </trkpt>
      <trkpt lat="48.40389" lon="7.31156">
        <ele>675</ele>
        <time>2020-06-24T07:02:54.106Z</time>
      </trkpt>
      <trkpt lat="48.4039" lon="7.31155">
        <ele>676</ele>
        <time>2020-06-24T07:02:55.105Z</time>
      </trkpt>
      <trkpt lat="48.40391" lon="7.31154">
        <ele>676</ele>
        <time>2020-06-24T07:02:56.106Z</time>
      </trkpt>
      <trkpt lat="48.40392" lon="7.31154">
        <ele>677</ele>
        <time>2020-06-24T07:02:57.105Z</time>
      </trkpt>
      <trkpt lat="48.40393" lon="7.31154">
        <ele>678</ele>
        <time>2020-06-24T07:02:58.106Z</time>
      </trkpt>
      <trkpt lat="48.40394" lon="7.31154">
        <ele>679</ele>
        <time>2020-06-24T07:02:59.105Z</time>
      </trkpt>
      <trkpt lat="48.40395" lon="7.31153">
        <ele>679</ele>
        <time>2020-06-24T07:03:00.106Z</time>
      </trkpt>
      <trkpt lat="48.40396" lon="7.31153">
        <ele>680</ele>
        <time>2020-06-24T07:03:01.106Z</time>
      </trkpt>
      <trkpt lat="48.40396" lon="7.31152">
        <ele>680</ele>
        <time>2020-06-24T07:03:02.106Z</time>
      </trkpt>
      <trkpt lat="48.40397" lon="7.31152">
        <ele>680</ele>
        <time>2020-06-24T07:03:03.106Z</time>
      </trkpt>
      <trkpt lat="48.40398" lon="7.31152">
        <ele>680</ele>
        <time>2020-06-24T07:03:04.105Z</time>
      </trkpt>
      <trkpt lat="48.40399" lon="7.31152">
        <ele>680</ele>
        <time>2020-06-24T07:03:05.106Z</time>
      </trkpt>
      <trkpt lat="48.404" lon="7.31151">
        <ele>680</ele>
        <time>2020-06-24T07:03:06.106Z</time>
      </trkpt>
      <trkpt lat="48.404" lon="7.3115">
        <ele>679</ele>
        <time>2020-06-24T07:03:07.106Z</time>
      </trkpt>
      <trkpt lat="48.404" lon="7.31147">
        <ele>678</ele>
        <time>2020-06-24T07:03:08.106Z</time>
      </trkpt>
      <trkpt lat="48.40401" lon="7.31147">
        <ele>678</ele>
        <time>2020-06-24T07:03:09.105Z</time>
      </trkpt>
      <trkpt lat="48.40401" lon="7.31148">
        <ele>677</ele>
        <time>2020-06-24T07:03:10.106Z</time>
      </trkpt>
      <trkpt lat="48.404" lon="7.3115">
        <ele>675</ele>
        <time>2020-06-24T07:03:11.107Z</time>
      </trkpt>
      <trkpt lat="48.40399" lon="7.3115">
        <ele>674</ele>
        <time>2020-06-24T07:03:12.106Z</time>
      </trkpt>
      <trkpt lat="48.40399" lon="7.3115">
        <ele>673</ele>
        <time>2020-06-24T07:03:13.106Z</time>
      </trkpt>
      <trkpt lat="48.40398" lon="7.3115">
        <ele>672</ele>
        <time>2020-06-24T07:03:14.107Z</time>
      </trkpt>
      <trkpt lat="48.40398" lon="7.3115">
        <ele>670</ele>
        <time>2020-06-24T07:03:15.107Z</time>
      </trkpt>
      <trkpt lat="48.40401" lon="7.31148">
        <ele>662</ele>
        <time>2020-06-24T07:03:16.108Z</time>
      </trkpt>
      <trkpt lat="48.40403" lon="7.31147">
        <ele>661</ele>
        <time>2020-06-24T07:03:17.108Z</time>
      </trkpt>
      <trkpt lat="48.40404" lon="7.31146">
        <ele>661</ele>
        <time>2020-06-24T07:03:18.107Z</time>
      </trkpt>
      <trkpt lat="48.40406" lon="7.31145">
        <ele>661</ele>
        <time>2020-06-24T07:03:19.108Z</time>
      </trkpt>
      <trkpt lat="48.40407" lon="7.31144">
        <ele>661</ele>
        <time>2020-06-24T07:03:20.108Z</time>
      </trkpt>
      <trkpt lat="48.40408" lon="7.31142">
        <ele>661</ele>
        <time>2020-06-24T07:03:21.108Z</time>
      </trkpt>
      <trkpt lat="48.40409" lon="7.31141">
        <ele>661</ele>
        <time>2020-06-24T07:03:22.108Z</time>
      </trkpt>
      <trkpt lat="48.40411" lon="7.31139">
        <ele>662</ele>
        <time>2020-06-24T07:03:23.107Z</time>
      </trkpt>
      <trkpt lat="48.40412" lon="7.31138">
        <ele>663</ele>
        <time>2020-06-24T07:03:24.107Z</time>
      </trkpt>
      <trkpt lat="48.40414" lon="7.31137">
        <ele>664</ele>
        <time>2020-06-24T07:03:25.108Z</time>
      </trkpt>
      <trkpt lat="48.40415" lon="7.31136">
        <ele>664</ele>
        <time>2020-06-24T07:03:26.108Z</time>
      </trkpt>
      <trkpt lat="48.40417" lon="7.31134">
        <ele>665</ele>
        <time>2020-06-24T07:03:27.108Z</time>
      </trkpt>
      <trkpt lat="48.40418" lon="7.31133">
        <ele>665</ele>
        <time>2020-06-24T07:03:28.107Z</time>
      </trkpt>
      <trkpt lat="48.4042" lon="7.31131">
        <ele>666</ele>
        <time>2020-06-24T07:03:29.108Z</time>
      </trkpt>
      <trkpt lat="48.40421" lon="7.31131">
        <ele>667</ele>
        <time>2020-06-24T07:03:30.108Z</time>
      </trkpt>
      <trkpt lat="48.40422" lon="7.3113">
        <ele>667</ele>
        <time>2020-06-24T07:03:31.108Z</time>
      </trkpt>
      <trkpt lat="48.40423" lon="7.3113">
        <ele>668</ele>
        <time>2020-06-24T07:03:32.107Z</time>
      </trkpt>
      <trkpt lat="48.40424" lon="7.31129">
        <ele>668</ele>
        <time>2020-06-24T07:03:33.108Z</time>
      </trkpt>
      <trkpt lat="48.40425" lon="7.31128">
        <ele>668</ele>
        <time>2020-06-24T07:03:34.107Z</time>
      </trkpt>
      <trkpt lat="48.40426" lon="7.31127">
        <ele>669</ele>
        <time>2020-06-24T07:03:35.108Z</time>
      </trkpt>
      <trkpt lat="48.40427" lon="7.31125">
        <ele>669</ele>
        <time>2020-06-24T07:03:36.107Z</time>
      </trkpt>
      <trkpt lat="48.40428" lon="7.31124">
        <ele>669</ele>
        <time>2020-06-24T07:03:37.107Z</time>
      </trkpt>
      <trkpt lat="48.40429" lon="7.31123">
        <ele>669</ele>
        <time>2020-06-24T07:03:38.108Z</time>
      </trkpt>
      <trkpt lat="48.40429" lon="7.31122">
        <ele>669</ele>
        <time>2020-06-24T07:03:39.107Z</time>
      </trkpt>
      <trkpt lat="48.4043" lon="7.3112">
        <ele>669</ele>
        <time>2020-06-24T07:03:40.108Z</time>
      </trkpt>
      <trkpt lat="48.4043" lon="7.31119">
        <ele>669</ele>
        <time>2020-06-24T07:03:41.108Z</time>
      </trkpt>
      <trkpt lat="48.4043" lon="7.31117">
        <ele>669</ele>
        <time>2020-06-24T07:03:42.108Z</time>
      </trkpt>
      <trkpt lat="48.4043" lon="7.31116">
        <ele>669</ele>
        <time>2020-06-24T07:03:43.108Z</time>
      </trkpt>
      <trkpt lat="48.4043" lon="7.31115">
        <ele>669</ele>
        <time>2020-06-24T07:03:44.108Z</time>
      </trkpt>
      <trkpt lat="48.40431" lon="7.31114">
        <ele>669</ele>
        <time>2020-06-24T07:03:45.108Z</time>
      </trkpt>
      <trkpt lat="48.40432" lon="7.31112">
        <ele>670</ele>
        <time>2020-06-24T07:03:46.107Z</time>
      </trkpt>
      <trkpt lat="48.40433" lon="7.31111">
        <ele>671</ele>
        <time>2020-06-24T07:03:47.107Z</time>
      </trkpt>
      <trkpt lat="48.40435" lon="7.31109">
        <ele>672</ele>
        <time>2020-06-24T07:03:48.108Z</time>
      </trkpt>
      <trkpt lat="48.40436" lon="7.31108">
        <ele>672</ele>
        <time>2020-06-24T07:03:49.108Z</time>
      </trkpt>
      <trkpt lat="48.40437" lon="7.31106">
        <ele>672</ele>
        <time>2020-06-24T07:03:50.108Z</time>
      </trkpt>
      <trkpt lat="48.40438" lon="7.31104">
        <ele>673</ele>
        <time>2020-06-24T07:03:51.108Z</time>
      </trkpt>
      <trkpt lat="48.40439" lon="7.31102">
        <ele>674</ele>
        <time>2020-06-24T07:03:52.107Z</time>
      </trkpt>
      <trkpt lat="48.4044" lon="7.311">
        <ele>674</ele>
        <time>2020-06-24T07:03:53.108Z</time>
      </trkpt>
      <trkpt lat="48.40441" lon="7.31098">
        <ele>675</ele>
        <time>2020-06-24T07:03:54.108Z</time>
      </trkpt>
      <trkpt lat="48.40441" lon="7.31097">
        <ele>676</ele>
        <time>2020-06-24T07:03:55.108Z</time>
      </trkpt>
      <trkpt lat="48.40442" lon="7.31095">
        <ele>677</ele>
        <time>2020-06-24T07:03:56.108Z</time>
      </trkpt>
      <trkpt lat="48.40443" lon="7.31093">
        <ele>678</ele>
        <time>2020-06-24T07:03:57.108Z</time>
      </trkpt>
      <trkpt lat="48.40443" lon="7.31091">
        <ele>679</ele>
        <time>2020-06-24T07:03:58.108Z</time>
      </trkpt>
      <trkpt lat="48.40444" lon="7.31089">
        <ele>680</ele>
        <time>2020-06-24T07:03:59.107Z</time>
      </trkpt>
      <trkpt lat="48.40445" lon="7.31086">
        <ele>681</ele>
        <time>2020-06-24T07:04:00.108Z</time>
      </trkpt>
      <trkpt lat="48.40446" lon="7.31085">
        <ele>682</ele>
        <time>2020-06-24T07:04:01.108Z</time>
      </trkpt>
      <trkpt lat="48.40447" lon="7.31084">
        <ele>683</ele>
        <time>2020-06-24T07:04:02.108Z</time>
      </trkpt>
      <trkpt lat="48.40448" lon="7.31083">
        <ele>683</ele>
        <time>2020-06-24T07:04:03.108Z</time>
      </trkpt>
      <trkpt lat="48.40448" lon="7.3108">
        <ele>683</ele>
        <time>2020-06-24T07:04:04.108Z</time>
      </trkpt>
      <trkpt lat="48.40449" lon="7.31078">
        <ele>683</ele>
        <time>2020-06-24T07:04:05.108Z</time>
      </trkpt>
      <trkpt lat="48.40449" lon="7.31077">
        <ele>683</ele>
        <time>2020-06-24T07:04:06.108Z</time>
      </trkpt>
      <trkpt lat="48.40449" lon="7.31075">
        <ele>683</ele>
        <time>2020-06-24T07:04:07.108Z</time>
      </trkpt>
      <trkpt lat="48.4045" lon="7.31074">
        <ele>683</ele>
        <time>2020-06-24T07:04:08.108Z</time>
      </trkpt>
      <trkpt lat="48.40452" lon="7.31072">
        <ele>683</ele>
        <time>2020-06-24T07:04:09.108Z</time>
      </trkpt>
      <trkpt lat="48.40453" lon="7.3107">
        <ele>683</ele>
        <time>2020-06-24T07:04:10.108Z</time>
      </trkpt>
      <trkpt lat="48.40454" lon="7.31069">
        <ele>683</ele>
        <time>2020-06-24T07:04:11.108Z</time>
      </trkpt>
      <trkpt lat="48.40455" lon="7.31066">
        <ele>683</ele>
        <time>2020-06-24T07:04:12.108Z</time>
      </trkpt>
      <trkpt lat="48.40456" lon="7.31064">
        <ele>683</ele>
        <time>2020-06-24T07:04:13.108Z</time>
      </trkpt>
      <trkpt lat="48.40457" lon="7.31063">
        <ele>683</ele>
        <time>2020-06-24T07:04:14.108Z</time>
      </trkpt>
      <trkpt lat="48.40458" lon="7.31062">
        <ele>683</ele>
        <time>2020-06-24T07:04:15.108Z</time>
      </trkpt>
      <trkpt lat="48.4046" lon="7.31061">
        <ele>683</ele>
        <time>2020-06-24T07:04:16.108Z</time>
      </trkpt>
      <trkpt lat="48.40461" lon="7.31061">
        <ele>683</ele>
        <time>2020-06-24T07:04:17.108Z</time>
      </trkpt>
      <trkpt lat="48.40462" lon="7.31059">
        <ele>683</ele>
        <time>2020-06-24T07:04:18.108Z</time>
      </trkpt>
      <trkpt lat="48.40463" lon="7.31058">
        <ele>683</ele>
        <time>2020-06-24T07:04:19.108Z</time>
      </trkpt>
      <trkpt lat="48.40464" lon="7.31057">
        <ele>683</ele>
        <time>2020-06-24T07:04:20.107Z</time>
      </trkpt>
      <trkpt lat="48.40465" lon="7.31057">
        <ele>683</ele>
        <time>2020-06-24T07:04:21.108Z</time>
      </trkpt>
      <trkpt lat="48.40466" lon="7.31057">
        <ele>684</ele>
        <time>2020-06-24T07:04:22.107Z</time>
      </trkpt>
      <trkpt lat="48.40467" lon="7.31056">
        <ele>684</ele>
        <time>2020-06-24T07:04:23.107Z</time>
      </trkpt>
      <trkpt lat="48.40469" lon="7.31056">
        <ele>684</ele>
        <time>2020-06-24T07:04:24.108Z</time>
      </trkpt>
      <trkpt lat="48.4047" lon="7.31055">
        <ele>684</ele>
        <time>2020-06-24T07:04:25.108Z</time>
      </trkpt>
      <trkpt lat="48.40471" lon="7.31054">
        <ele>684</ele>
        <time>2020-06-24T07:04:26.108Z</time>
      </trkpt>
      <trkpt lat="48.40472" lon="7.31054">
        <ele>685</ele>
        <time>2020-06-24T07:04:27.107Z</time>
      </trkpt>
      <trkpt lat="48.40474" lon="7.31053">
        <ele>685</ele>
        <time>2020-06-24T07:04:28.108Z</time>
      </trkpt>
      <trkpt lat="48.40475" lon="7.31052">
        <ele>686</ele>
        <time>2020-06-24T07:04:29.107Z</time>
      </trkpt>
      <trkpt lat="48.40476" lon="7.31052">
        <ele>686</ele>
        <time>2020-06-24T07:04:30.108Z</time>
      </trkpt>
      <trkpt lat="48.40477" lon="7.31051">
        <ele>686</ele>
        <time>2020-06-24T07:04:31.108Z</time>
      </trkpt>
      <trkpt lat="48.40478" lon="7.3105">
        <ele>686</ele>
        <time>2020-06-24T07:04:32.108Z</time>
      </trkpt>
      <trkpt lat="48.40479" lon="7.3105">
        <ele>686</ele>
        <time>2020-06-24T07:04:33.107Z</time>
      </trkpt>
      <trkpt lat="48.4048" lon="7.3105">
        <ele>687</ele>
        <time>2020-06-24T07:04:34.108Z</time>
      </trkpt>
      <trkpt lat="48.4048" lon="7.31049">
        <ele>686</ele>
        <time>2020-06-24T07:04:35.108Z</time>
      </trkpt>
      <trkpt lat="48.4048" lon="7.31049">
        <ele>687</ele>
        <time>2020-06-24T07:04:36.108Z</time>
      </trkpt>
      <trkpt lat="48.40482" lon="7.31048">
        <ele>685</ele>
        <time>2020-06-24T07:04:37.109Z</time>
      </trkpt>
      <trkpt lat="48.40483" lon="7.31047">
        <ele>684</ele>
        <time>2020-06-24T07:04:38.109Z</time>
      </trkpt>
      <trkpt lat="48.40484" lon="7.31046">
        <ele>684</ele>
        <time>2020-06-24T07:04:39.109Z</time>
      </trkpt>
      <trkpt lat="48.40484" lon="7.31045">
        <ele>683</ele>
        <time>2020-06-24T07:04:40.109Z</time>
      </trkpt>
      <trkpt lat="48.40485" lon="7.31044">
        <ele>683</ele>
        <time>2020-06-24T07:04:41.109Z</time>
      </trkpt>
      <trkpt lat="48.40486" lon="7.31043">
        <ele>683</ele>
        <time>2020-06-24T07:04:42.109Z</time>
      </trkpt>
      <trkpt lat="48.40487" lon="7.31042">
        <ele>682</ele>
        <time>2020-06-24T07:04:43.109Z</time>
      </trkpt>
      <trkpt lat="48.40488" lon="7.31042">
        <ele>682</ele>
        <time>2020-06-24T07:04:44.109Z</time>
      </trkpt>
      <trkpt lat="48.40489" lon="7.31041">
        <ele>682</ele>
        <time>2020-06-24T07:04:45.109Z</time>
      </trkpt>
      <trkpt lat="48.4049" lon="7.3104">
        <ele>682</ele>
        <time>2020-06-24T07:04:46.108Z</time>
      </trkpt>
      <trkpt lat="48.40491" lon="7.31039">
        <ele>682</ele>
        <time>2020-06-24T07:04:47.109Z</time>
      </trkpt>
      <trkpt lat="48.40492" lon="7.31038">
        <ele>682</ele>
        <time>2020-06-24T07:04:48.108Z</time>
      </trkpt>
      <trkpt lat="48.40494" lon="7.31037">
        <ele>682</ele>
        <time>2020-06-24T07:04:49.108Z</time>
      </trkpt>
      <trkpt lat="48.40495" lon="7.31035">
        <ele>682</ele>
        <time>2020-06-24T07:04:50.109Z</time>
      </trkpt>
      <trkpt lat="48.40496" lon="7.31034">
        <ele>682</ele>
        <time>2020-06-24T07:04:51.109Z</time>
      </trkpt>
      <trkpt lat="48.40496" lon="7.31032">
        <ele>682</ele>
        <time>2020-06-24T07:04:52.109Z</time>
      </trkpt>
      <trkpt lat="48.40496" lon="7.31031">
        <ele>682</ele>
        <time>2020-06-24T07:04:53.109Z</time>
      </trkpt>
      <trkpt lat="48.40496" lon="7.3103">
        <ele>682</ele>
        <time>2020-06-24T07:04:54.108Z</time>
      </trkpt>
      <trkpt lat="48.40497" lon="7.31029">
        <ele>682</ele>
        <time>2020-06-24T07:04:55.109Z</time>
      </trkpt>
      <trkpt lat="48.40497" lon="7.31028">
        <ele>682</ele>
        <time>2020-06-24T07:04:56.109Z</time>
      </trkpt>
      <trkpt lat="48.40497" lon="7.31026">
        <ele>681</ele>
        <time>2020-06-24T07:04:57.109Z</time>
      </trkpt>
      <trkpt lat="48.40498" lon="7.31024">
        <ele>680</ele>
        <time>2020-06-24T07:04:58.109Z</time>
      </trkpt>
      <trkpt lat="48.40498" lon="7.31023">
        <ele>680</ele>
        <time>2020-06-24T07:04:59.109Z</time>
      </trkpt>
      <trkpt lat="48.40498" lon="7.31022">
        <ele>680</ele>
        <time>2020-06-24T07:05:00.108Z</time>
      </trkpt>
      <trkpt lat="48.40498" lon="7.3102">
        <ele>679</ele>
        <time>2020-06-24T07:05:01.108Z</time>
      </trkpt>
      <trkpt lat="48.40498" lon="7.31018">
        <ele>679</ele>
        <time>2020-06-24T07:05:02.109Z</time>
      </trkpt>
      <trkpt lat="48.40499" lon="7.31016">
        <ele>678</ele>
        <time>2020-06-24T07:05:03.108Z</time>
      </trkpt>
      <trkpt lat="48.405" lon="7.31013">
        <ele>679</ele>
        <time>2020-06-24T07:05:04.108Z</time>
      </trkpt>
      <trkpt lat="48.40501" lon="7.3101">
        <ele>679</ele>
        <time>2020-06-24T07:05:05.108Z</time>
      </trkpt>
      <trkpt lat="48.40501" lon="7.31007">
        <ele>679</ele>
        <time>2020-06-24T07:05:06.109Z</time>
      </trkpt>
      <trkpt lat="48.40502" lon="7.31004">
        <ele>680</ele>
        <time>2020-06-24T07:05:07.109Z</time>
      </trkpt>
      <trkpt lat="48.40503" lon="7.31002">
        <ele>680</ele>
        <time>2020-06-24T07:05:08.108Z</time>
      </trkpt>
      <trkpt lat="48.40504" lon="7.31">
        <ele>681</ele>
        <time>2020-06-24T07:05:09.109Z</time>
      </trkpt>
      <trkpt lat="48.40504" lon="7.30998">
        <ele>682</ele>
        <time>2020-06-24T07:05:10.109Z</time>
      </trkpt>
      <trkpt lat="48.40505" lon="7.30996">
        <ele>682</ele>
        <time>2020-06-24T07:05:11.109Z</time>
      </trkpt>
      <trkpt lat="48.40506" lon="7.30994">
        <ele>682</ele>
        <time>2020-06-24T07:05:12.109Z</time>
      </trkpt>
      <trkpt lat="48.40507" lon="7.30993">
        <ele>683</ele>
        <time>2020-06-24T07:05:13.109Z</time>
      </trkpt>
      <trkpt lat="48.40509" lon="7.30991">
        <ele>684</ele>
        <time>2020-06-24T07:05:14.108Z</time>
      </trkpt>
      <trkpt lat="48.4051" lon="7.30988">
        <ele>685</ele>
        <time>2020-06-24T07:05:15.109Z</time>
      </trkpt>
      <trkpt lat="48.40511" lon="7.30986">
        <ele>686</ele>
        <time>2020-06-24T07:05:16.108Z</time>
      </trkpt>
      <trkpt lat="48.40512" lon="7.30984">
        <ele>688</ele>
        <time>2020-06-24T07:05:17.108Z</time>
      </trkpt>
      <trkpt lat="48.40513" lon="7.30983">
        <ele>689</ele>
        <time>2020-06-24T07:05:18.108Z</time>
      </trkpt>
      <trkpt lat="48.40514" lon="7.30982">
        <ele>690</ele>
        <time>2020-06-24T07:05:19.109Z</time>
      </trkpt>
      <trkpt lat="48.40515" lon="7.30981">
        <ele>691</ele>
        <time>2020-06-24T07:05:20.109Z</time>
      </trkpt>
      <trkpt lat="48.40516" lon="7.3098">
        <ele>692</ele>
        <time>2020-06-24T07:05:21.108Z</time>
      </trkpt>
      <trkpt lat="48.40518" lon="7.30979">
        <ele>693</ele>
        <time>2020-06-24T07:05:22.109Z</time>
      </trkpt>
      <trkpt lat="48.40519" lon="7.30978">
        <ele>693</ele>
        <time>2020-06-24T07:05:23.109Z</time>
      </trkpt>
      <trkpt lat="48.4052" lon="7.30977">
        <ele>694</ele>
        <time>2020-06-24T07:05:24.109Z</time>
      </trkpt>
      <trkpt lat="48.40522" lon="7.30976">
        <ele>695</ele>
        <time>2020-06-24T07:05:25.109Z</time>
      </trkpt>
      <trkpt lat="48.40523" lon="7.30975">
        <ele>696</ele>
        <time>2020-06-24T07:05:26.109Z</time>
      </trkpt>
      <trkpt lat="48.40525" lon="7.30974">
        <ele>697</ele>
        <time>2020-06-24T07:05:27.109Z</time>
      </trkpt>
      <trkpt lat="48.40526" lon="7.30973">
        <ele>697</ele>
        <time>2020-06-24T07:05:28.109Z</time>
      </trkpt>
      <trkpt lat="48.40527" lon="7.30971">
        <ele>697</ele>
        <time>2020-06-24T07:05:29.109Z</time>
      </trkpt>
      <trkpt lat="48.40528" lon="7.3097">
        <ele>698</ele>
        <time>2020-06-24T07:05:30.109Z</time>
      </trkpt>
      <trkpt lat="48.4053" lon="7.30969">
        <ele>698</ele>
        <time>2020-06-24T07:05:31.108Z</time>
      </trkpt>
      <trkpt lat="48.40531" lon="7.30969">
        <ele>697</ele>
        <time>2020-06-24T07:05:32.109Z</time>
      </trkpt>
      <trkpt lat="48.40533" lon="7.30968">
        <ele>697</ele>
        <time>2020-06-24T07:05:33.108Z</time>
      </trkpt>
      <trkpt lat="48.40534" lon="7.30967">
        <ele>696</ele>
        <time>2020-06-24T07:05:34.109Z</time>
      </trkpt>
      <trkpt lat="48.40536" lon="7.30966">
        <ele>696</ele>
        <time>2020-06-24T07:05:35.108Z</time>
      </trkpt>
      <trkpt lat="48.40537" lon="7.30965">
        <ele>696</ele>
        <time>2020-06-24T07:05:36.108Z</time>
      </trkpt>
      <trkpt lat="48.40539" lon="7.30964">
        <ele>696</ele>
        <time>2020-06-24T07:05:37.109Z</time>
      </trkpt>
      <trkpt lat="48.4054" lon="7.30963">
        <ele>696</ele>
        <time>2020-06-24T07:05:38.109Z</time>
      </trkpt>
      <trkpt lat="48.40542" lon="7.30962">
        <ele>697</ele>
        <time>2020-06-24T07:05:39.109Z</time>
      </trkpt>
      <trkpt lat="48.40543" lon="7.30961">
        <ele>698</ele>
        <time>2020-06-24T07:05:40.109Z</time>
      </trkpt>
      <trkpt lat="48.40546" lon="7.30958">
        <ele>699</ele>
        <time>2020-06-24T07:05:41.109Z</time>
      </trkpt>
      <trkpt lat="48.40547" lon="7.30958">
        <ele>699</ele>
        <time>2020-06-24T07:05:42.109Z</time>
      </trkpt>
      <trkpt lat="48.40548" lon="7.30956">
        <ele>700</ele>
        <time>2020-06-24T07:05:43.109Z</time>
      </trkpt>
      <trkpt lat="48.40549" lon="7.30955">
        <ele>701</ele>
        <time>2020-06-24T07:05:44.109Z</time>
      </trkpt>
      <trkpt lat="48.40551" lon="7.30954">
        <ele>702</ele>
        <time>2020-06-24T07:05:45.109Z</time>
      </trkpt>
      <trkpt lat="48.40552" lon="7.30953">
        <ele>703</ele>
        <time>2020-06-24T07:05:46.109Z</time>
      </trkpt>
      <trkpt lat="48.40553" lon="7.30952">
        <ele>703</ele>
        <time>2020-06-24T07:05:47.109Z</time>
      </trkpt>
      <trkpt lat="48.40554" lon="7.3095">
        <ele>704</ele>
        <time>2020-06-24T07:05:48.109Z</time>
      </trkpt>
      <trkpt lat="48.40555" lon="7.30949">
        <ele>704</ele>
        <time>2020-06-24T07:05:49.109Z</time>
      </trkpt>
      <trkpt lat="48.40555" lon="7.30948">
        <ele>704</ele>
        <time>2020-06-24T07:05:50.108Z</time>
      </trkpt>
      <trkpt lat="48.40556" lon="7.30947">
        <ele>704</ele>
        <time>2020-06-24T07:05:51.109Z</time>
      </trkpt>
      <trkpt lat="48.40557" lon="7.30946">
        <ele>704</ele>
        <time>2020-06-24T07:05:52.108Z</time>
      </trkpt>
      <trkpt lat="48.40558" lon="7.30946">
        <ele>704</ele>
        <time>2020-06-24T07:05:53.108Z</time>
      </trkpt>
      <trkpt lat="48.4056" lon="7.30945">
        <ele>704</ele>
        <time>2020-06-24T07:05:54.109Z</time>
      </trkpt>
      <trkpt lat="48.4056" lon="7.30944">
        <ele>703</ele>
        <time>2020-06-24T07:05:55.109Z</time>
      </trkpt>
      <trkpt lat="48.40562" lon="7.30942">
        <ele>702</ele>
        <time>2020-06-24T07:05:56.108Z</time>
      </trkpt>
      <trkpt lat="48.40563" lon="7.30941">
        <ele>701</ele>
        <time>2020-06-24T07:05:57.109Z</time>
      </trkpt>
      <trkpt lat="48.40565" lon="7.3094">
        <ele>701</ele>
        <time>2020-06-24T07:05:58.109Z</time>
      </trkpt>
      <trkpt lat="48.40566" lon="7.30938">
        <ele>700</ele>
        <time>2020-06-24T07:05:59.109Z</time>
      </trkpt>
      <trkpt lat="48.40567" lon="7.30937">
        <ele>700</ele>
        <time>2020-06-24T07:06:00.109Z</time>
      </trkpt>
      <trkpt lat="48.40568" lon="7.30936">
        <ele>700</ele>
        <time>2020-06-24T07:06:01.109Z</time>
      </trkpt>
      <trkpt lat="48.40569" lon="7.30934">
        <ele>699</ele>
        <time>2020-06-24T07:06:02.109Z</time>
      </trkpt>
      <trkpt lat="48.40569" lon="7.30933">
        <ele>698</ele>
        <time>2020-06-24T07:06:03.108Z</time>
      </trkpt>
      <trkpt lat="48.4057" lon="7.30931">
        <ele>697</ele>
        <time>2020-06-24T07:06:04.108Z</time>
      </trkpt>
      <trkpt lat="48.4057" lon="7.3093">
        <ele>696</ele>
        <time>2020-06-24T07:06:05.109Z</time>
      </trkpt>
      <trkpt lat="48.40571" lon="7.30928">
        <ele>696</ele>
        <time>2020-06-24T07:06:06.109Z</time>
      </trkpt>
      <trkpt lat="48.40571" lon="7.30927">
        <ele>696</ele>
        <time>2020-06-24T07:06:07.109Z</time>
      </trkpt>
      <trkpt lat="48.40572" lon="7.30926">
        <ele>696</ele>
        <time>2020-06-24T07:06:08.108Z</time>
      </trkpt>
      <trkpt lat="48.40572" lon="7.30925">
        <ele>696</ele>
        <time>2020-06-24T07:06:09.109Z</time>
      </trkpt>
      <trkpt lat="48.40573" lon="7.30922">
        <ele>695</ele>
        <time>2020-06-24T07:06:10.109Z</time>
      </trkpt>
      <trkpt lat="48.40575" lon="7.3092">
        <ele>695</ele>
        <time>2020-06-24T07:06:11.109Z</time>
      </trkpt>
      <trkpt lat="48.40576" lon="7.30918">
        <ele>694</ele>
        <time>2020-06-24T07:06:12.109Z</time>
      </trkpt>
      <trkpt lat="48.40576" lon="7.30916">
        <ele>693</ele>
        <time>2020-06-24T07:06:13.109Z</time>
      </trkpt>
      <trkpt lat="48.40577" lon="7.30915">
        <ele>692</ele>
        <time>2020-06-24T07:06:14.108Z</time>
      </trkpt>
      <trkpt lat="48.40578" lon="7.30913">
        <ele>691</ele>
        <time>2020-06-24T07:06:15.109Z</time>
      </trkpt>
      <trkpt lat="48.40579" lon="7.30912">
        <ele>690</ele>
        <time>2020-06-24T07:06:16.109Z</time>
      </trkpt>
      <trkpt lat="48.4058" lon="7.30911">
        <ele>689</ele>
        <time>2020-06-24T07:06:17.109Z</time>
      </trkpt>
      <trkpt lat="48.40581" lon="7.3091">
        <ele>689</ele>
        <time>2020-06-24T07:06:18.109Z</time>
      </trkpt>
      <trkpt lat="48.40582" lon="7.30909">
        <ele>688</ele>
        <time>2020-06-24T07:06:19.108Z</time>
      </trkpt>
      <trkpt lat="48.40583" lon="7.30907">
        <ele>687</ele>
        <time>2020-06-24T07:06:20.109Z</time>
      </trkpt>
      <trkpt lat="48.40584" lon="7.30906">
        <ele>687</ele>
        <time>2020-06-24T07:06:21.109Z</time>
      </trkpt>
      <trkpt lat="48.40585" lon="7.30905">
        <ele>686</ele>
        <time>2020-06-24T07:06:22.109Z</time>
      </trkpt>
      <trkpt lat="48.40587" lon="7.30904">
        <ele>686</ele>
        <time>2020-06-24T07:06:23.109Z</time>
      </trkpt>
      <trkpt lat="48.40588" lon="7.30903">
        <ele>686</ele>
        <time>2020-06-24T07:06:24.109Z</time>
      </trkpt>
      <trkpt lat="48.40589" lon="7.30903">
        <ele>686</ele>
        <time>2020-06-24T07:06:25.109Z</time>
      </trkpt>
      <trkpt lat="48.4059" lon="7.30901">
        <ele>686</ele>
        <time>2020-06-24T07:06:26.108Z</time>
      </trkpt>
      <trkpt lat="48.40591" lon="7.30901">
        <ele>685</ele>
        <time>2020-06-24T07:06:27.109Z</time>
      </trkpt>
      <trkpt lat="48.40592" lon="7.30899">
        <ele>685</ele>
        <time>2020-06-24T07:06:28.109Z</time>
      </trkpt>
      <trkpt lat="48.40592" lon="7.30898">
        <ele>686</ele>
        <time>2020-06-24T07:06:29.108Z</time>
      </trkpt>
      <trkpt lat="48.40593" lon="7.30897">
        <ele>686</ele>
        <time>2020-06-24T07:06:30.109Z</time>
      </trkpt>
      <trkpt lat="48.40594" lon="7.30895">
        <ele>686</ele>
        <time>2020-06-24T07:06:31.109Z</time>
      </trkpt>
      <trkpt lat="48.40595" lon="7.30893">
        <ele>687</ele>
        <time>2020-06-24T07:06:32.109Z</time>
      </trkpt>
      <trkpt lat="48.40596" lon="7.30892">
        <ele>687</ele>
        <time>2020-06-24T07:06:33.109Z</time>
      </trkpt>
      <trkpt lat="48.40596" lon="7.30891">
        <ele>688</ele>
        <time>2020-06-24T07:06:34.109Z</time>
      </trkpt>
      <trkpt lat="48.40598" lon="7.3089">
        <ele>687</ele>
        <time>2020-06-24T07:06:35.109Z</time>
      </trkpt>
      <trkpt lat="48.40599" lon="7.30888">
        <ele>687</ele>
        <time>2020-06-24T07:06:36.109Z</time>
      </trkpt>
      <trkpt lat="48.40599" lon="7.30885">
        <ele>687</ele>
        <time>2020-06-24T07:06:37.109Z</time>
      </trkpt>
      <trkpt lat="48.406" lon="7.30882">
        <ele>687</ele>
        <time>2020-06-24T07:06:38.109Z</time>
      </trkpt>
      <trkpt lat="48.40601" lon="7.3088">
        <ele>687</ele>
        <time>2020-06-24T07:06:39.109Z</time>
      </trkpt>
      <trkpt lat="48.40601" lon="7.30878">
        <ele>688</ele>
        <time>2020-06-24T07:06:40.109Z</time>
      </trkpt>
      <trkpt lat="48.40602" lon="7.30876">
        <ele>688</ele>
        <time>2020-06-24T07:06:41.109Z</time>
      </trkpt>
      <trkpt lat="48.40604" lon="7.30874">
        <ele>689</ele>
        <time>2020-06-24T07:06:42.109Z</time>
      </trkpt>
      <trkpt lat="48.40606" lon="7.30872">
        <ele>690</ele>
        <time>2020-06-24T07:06:43.109Z</time>
      </trkpt>
      <trkpt lat="48.40607" lon="7.3087">
        <ele>691</ele>
        <time>2020-06-24T07:06:44.109Z</time>
      </trkpt>
      <trkpt lat="48.40608" lon="7.30868">
        <ele>692</ele>
        <time>2020-06-24T07:06:45.108Z</time>
      </trkpt>
      <trkpt lat="48.40609" lon="7.30867">
        <ele>693</ele>
        <time>2020-06-24T07:06:46.109Z</time>
      </trkpt>
      <trkpt lat="48.40611" lon="7.30866">
        <ele>694</ele>
        <time>2020-06-24T07:06:47.109Z</time>
      </trkpt>
      <trkpt lat="48.40612" lon="7.30865">
        <ele>694</ele>
        <time>2020-06-24T07:06:48.108Z</time>
      </trkpt>
      <trkpt lat="48.40614" lon="7.30863">
        <ele>695</ele>
        <time>2020-06-24T07:06:49.108Z</time>
      </trkpt>
      <trkpt lat="48.40615" lon="7.30862">
        <ele>695</ele>
        <time>2020-06-24T07:06:50.109Z</time>
      </trkpt>
      <trkpt lat="48.40616" lon="7.30861">
        <ele>696</ele>
        <time>2020-06-24T07:06:51.109Z</time>
      </trkpt>
      <trkpt lat="48.40617" lon="7.30861">
        <ele>696</ele>
        <time>2020-06-24T07:06:52.108Z</time>
      </trkpt>
      <trkpt lat="48.40618" lon="7.30861">
        <ele>696</ele>
        <time>2020-06-24T07:06:53.108Z</time>
      </trkpt>
      <trkpt lat="48.40619" lon="7.3086">
        <ele>696</ele>
        <time>2020-06-24T07:06:54.108Z</time>
      </trkpt>
      <trkpt lat="48.40621" lon="7.3086">
        <ele>697</ele>
        <time>2020-06-24T07:06:55.108Z</time>
      </trkpt>
      <trkpt lat="48.40622" lon="7.3086">
        <ele>697</ele>
        <time>2020-06-24T07:06:56.108Z</time>
      </trkpt>
      <trkpt lat="48.40623" lon="7.30859">
        <ele>698</ele>
        <time>2020-06-24T07:06:57.109Z</time>
      </trkpt>
      <trkpt lat="48.40624" lon="7.3086">
        <ele>699</ele>
        <time>2020-06-24T07:06:58.109Z</time>
      </trkpt>
      <trkpt lat="48.40625" lon="7.3086">
        <ele>700</ele>
        <time>2020-06-24T07:06:59.109Z</time>
      </trkpt>
      <trkpt lat="48.40626" lon="7.30858">
        <ele>701</ele>
        <time>2020-06-24T07:07:00.109Z</time>
      </trkpt>
      <trkpt lat="48.40627" lon="7.30858">
        <ele>702</ele>
        <time>2020-06-24T07:07:01.109Z</time>
      </trkpt>
      <trkpt lat="48.40628" lon="7.30858">
        <ele>702</ele>
        <time>2020-06-24T07:07:02.109Z</time>
      </trkpt>
      <trkpt lat="48.40629" lon="7.30858">
        <ele>703</ele>
        <time>2020-06-24T07:07:03.108Z</time>
      </trkpt>
      <trkpt lat="48.4063" lon="7.30858">
        <ele>703</ele>
        <time>2020-06-24T07:07:04.109Z</time>
      </trkpt>
      <trkpt lat="48.40632" lon="7.30857">
        <ele>703</ele>
        <time>2020-06-24T07:07:05.109Z</time>
      </trkpt>
      <trkpt lat="48.40633" lon="7.30856">
        <ele>703</ele>
        <time>2020-06-24T07:07:06.108Z</time>
      </trkpt>
      <trkpt lat="48.40634" lon="7.30854">
        <ele>703</ele>
        <time>2020-06-24T07:07:07.109Z</time>
      </trkpt>
      <trkpt lat="48.40635" lon="7.30853">
        <ele>704</ele>
        <time>2020-06-24T07:07:08.109Z</time>
      </trkpt>
      <trkpt lat="48.40636" lon="7.30851">
        <ele>704</ele>
        <time>2020-06-24T07:07:09.108Z</time>
      </trkpt>
      <trkpt lat="48.40637" lon="7.30849">
        <ele>704</ele>
        <time>2020-06-24T07:07:10.109Z</time>
      </trkpt>
      <trkpt lat="48.40638" lon="7.30848">
        <ele>705</ele>
        <time>2020-06-24T07:07:11.108Z</time>
      </trkpt>
      <trkpt lat="48.40639" lon="7.30847">
        <ele>706</ele>
        <time>2020-06-24T07:07:12.109Z</time>
      </trkpt>
      <trkpt lat="48.40639" lon="7.30846">
        <ele>707</ele>
        <time>2020-06-24T07:07:13.109Z</time>
      </trkpt>
      <trkpt lat="48.4064" lon="7.30846">
        <ele>708</ele>
        <time>2020-06-24T07:07:14.109Z</time>
      </trkpt>
      <trkpt lat="48.40642" lon="7.30846">
        <ele>709</ele>
        <time>2020-06-24T07:07:15.108Z</time>
      </trkpt>
      <trkpt lat="48.40643" lon="7.30846">
        <ele>710</ele>
        <time>2020-06-24T07:07:16.109Z</time>
      </trkpt>
      <trkpt lat="48.40644" lon="7.30845">
        <ele>711</ele>
        <time>2020-06-24T07:07:17.109Z</time>
      </trkpt>
      <trkpt lat="48.40646" lon="7.30844">
        <ele>713</ele>
        <time>2020-06-24T07:07:18.109Z</time>
      </trkpt>
      <trkpt lat="48.40647" lon="7.30842">
        <ele>714</ele>
        <time>2020-06-24T07:07:19.109Z</time>
      </trkpt>
      <trkpt lat="48.4065" lon="7.30841">
        <ele>716</ele>
        <time>2020-06-24T07:07:20.109Z</time>
      </trkpt>
      <trkpt lat="48.40651" lon="7.30841">
        <ele>717</ele>
        <time>2020-06-24T07:07:21.109Z</time>
      </trkpt>
      <trkpt lat="48.40652" lon="7.30839">
        <ele>718</ele>
        <time>2020-06-24T07:07:22.109Z</time>
      </trkpt>
      <trkpt lat="48.40654" lon="7.30838">
        <ele>719</ele>
        <time>2020-06-24T07:07:23.108Z</time>
      </trkpt>
      <trkpt lat="48.40655" lon="7.30837">
        <ele>721</ele>
        <time>2020-06-24T07:07:24.109Z</time>
      </trkpt>
      <trkpt lat="48.40657" lon="7.30836">
        <ele>722</ele>
        <time>2020-06-24T07:07:25.108Z</time>
      </trkpt>
      <trkpt lat="48.40657" lon="7.30836">
        <ele>723</ele>
        <time>2020-06-24T07:07:26.109Z</time>
      </trkpt>
      <trkpt lat="48.40658" lon="7.30834">
        <ele>724</ele>
        <time>2020-06-24T07:07:27.108Z</time>
      </trkpt>
      <trkpt lat="48.40659" lon="7.30834">
        <ele>725</ele>
        <time>2020-06-24T07:07:28.108Z</time>
      </trkpt>
      <trkpt lat="48.40661" lon="7.30832">
        <ele>725</ele>
        <time>2020-06-24T07:07:29.108Z</time>
      </trkpt>
      <trkpt lat="48.40662" lon="7.30831">
        <ele>726</ele>
        <time>2020-06-24T07:07:30.109Z</time>
      </trkpt>
      <trkpt lat="48.40663" lon="7.3083">
        <ele>727</ele>
        <time>2020-06-24T07:07:31.109Z</time>
      </trkpt>
      <trkpt lat="48.40664" lon="7.3083">
        <ele>727</ele>
        <time>2020-06-24T07:07:32.108Z</time>
      </trkpt>
      <trkpt lat="48.40665" lon="7.30829">
        <ele>728</ele>
        <time>2020-06-24T07:07:33.109Z</time>
      </trkpt>
      <trkpt lat="48.40666" lon="7.30829">
        <ele>729</ele>
        <time>2020-06-24T07:07:34.109Z</time>
      </trkpt>
      <trkpt lat="48.40668" lon="7.30828">
        <ele>729</ele>
        <time>2020-06-24T07:07:35.108Z</time>
      </trkpt>
      <trkpt lat="48.40669" lon="7.30828">
        <ele>730</ele>
        <time>2020-06-24T07:07:36.108Z</time>
      </trkpt>
      <trkpt lat="48.4067" lon="7.30828">
        <ele>729</ele>
        <time>2020-06-24T07:07:37.108Z</time>
      </trkpt>
      <trkpt lat="48.4067" lon="7.30828">
        <ele>729</ele>
        <time>2020-06-24T07:07:38.109Z</time>
      </trkpt>
      <trkpt lat="48.40672" lon="7.30828">
        <ele>729</ele>
        <time>2020-06-24T07:07:39.109Z</time>
      </trkpt>
      <trkpt lat="48.40673" lon="7.30828">
        <ele>728</ele>
        <time>2020-06-24T07:07:40.109Z</time>
      </trkpt>
      <trkpt lat="48.40674" lon="7.30827">
        <ele>728</ele>
        <time>2020-06-24T07:07:41.108Z</time>
      </trkpt>
      <trkpt lat="48.40675" lon="7.30827">
        <ele>728</ele>
        <time>2020-06-24T07:07:42.109Z</time>
      </trkpt>
      <trkpt lat="48.40676" lon="7.30826">
        <ele>729</ele>
        <time>2020-06-24T07:07:43.109Z</time>
      </trkpt>
      <trkpt lat="48.40676" lon="7.30826">
        <ele>729</ele>
        <time>2020-06-24T07:07:44.108Z</time>
      </trkpt>
      <trkpt lat="48.40677" lon="7.30826">
        <ele>730</ele>
        <time>2020-06-24T07:07:45.109Z</time>
      </trkpt>
      <trkpt lat="48.40678" lon="7.30826">
        <ele>731</ele>
        <time>2020-06-24T07:07:46.109Z</time>
      </trkpt>
      <trkpt lat="48.40678" lon="7.30827">
        <ele>731</ele>
        <time>2020-06-24T07:07:47.109Z</time>
      </trkpt>
      <trkpt lat="48.4068" lon="7.30827">
        <ele>732</ele>
        <time>2020-06-24T07:07:48.109Z</time>
      </trkpt>
      <trkpt lat="48.40681" lon="7.30827">
        <ele>732</ele>
        <time>2020-06-24T07:07:49.109Z</time>
      </trkpt>
      <trkpt lat="48.40681" lon="7.30827">
        <ele>732</ele>
        <time>2020-06-24T07:07:50.108Z</time>
      </trkpt>
      <trkpt lat="48.40682" lon="7.30826">
        <ele>733</ele>
        <time>2020-06-24T07:07:51.109Z</time>
      </trkpt>
      <trkpt lat="48.40683" lon="7.30826">
        <ele>733</ele>
        <time>2020-06-24T07:07:52.109Z</time>
      </trkpt>
      <trkpt lat="48.40684" lon="7.30825">
        <ele>733</ele>
        <time>2020-06-24T07:07:53.109Z</time>
      </trkpt>
      <trkpt lat="48.40685" lon="7.30824">
        <ele>733</ele>
        <time>2020-06-24T07:07:54.109Z</time>
      </trkpt>
      <trkpt lat="48.40686" lon="7.30822">
        <ele>733</ele>
        <time>2020-06-24T07:07:55.109Z</time>
      </trkpt>
      <trkpt lat="48.40687" lon="7.30821">
        <ele>733</ele>
        <time>2020-06-24T07:07:56.109Z</time>
      </trkpt>
      <trkpt lat="48.40688" lon="7.3082">
        <ele>733</ele>
        <time>2020-06-24T07:07:57.109Z</time>
      </trkpt>
      <trkpt lat="48.40689" lon="7.3082">
        <ele>733</ele>
        <time>2020-06-24T07:07:58.108Z</time>
      </trkpt>
      <trkpt lat="48.4069" lon="7.3082">
        <ele>733</ele>
        <time>2020-06-24T07:07:59.108Z</time>
      </trkpt>
      <trkpt lat="48.40691" lon="7.3082">
        <ele>733</ele>
        <time>2020-06-24T07:08:00.109Z</time>
      </trkpt>
      <trkpt lat="48.40693" lon="7.3082">
        <ele>734</ele>
        <time>2020-06-24T07:08:01.109Z</time>
      </trkpt>
      <trkpt lat="48.40694" lon="7.30819">
        <ele>734</ele>
        <time>2020-06-24T07:08:02.109Z</time>
      </trkpt>
      <trkpt lat="48.40695" lon="7.30819">
        <ele>734</ele>
        <time>2020-06-24T07:08:03.109Z</time>
      </trkpt>
      <trkpt lat="48.40695" lon="7.30818">
        <ele>734</ele>
        <time>2020-06-24T07:08:04.108Z</time>
      </trkpt>
      <trkpt lat="48.40696" lon="7.30818">
        <ele>735</ele>
        <time>2020-06-24T07:08:05.109Z</time>
      </trkpt>
      <trkpt lat="48.40697" lon="7.30817">
        <ele>735</ele>
        <time>2020-06-24T07:08:06.109Z</time>
      </trkpt>
      <trkpt lat="48.40698" lon="7.30817">
        <ele>735</ele>
        <time>2020-06-24T07:08:07.108Z</time>
      </trkpt>
      <trkpt lat="48.40699" lon="7.30816">
        <ele>735</ele>
        <time>2020-06-24T07:08:08.109Z</time>
      </trkpt>
      <trkpt lat="48.407" lon="7.30815">
        <ele>735</ele>
        <time>2020-06-24T07:08:09.109Z</time>
      </trkpt>
      <trkpt lat="48.407" lon="7.30814">
        <ele>735</ele>
        <time>2020-06-24T07:08:10.109Z</time>
      </trkpt>
      <trkpt lat="48.407" lon="7.30812">
        <ele>735</ele>
        <time>2020-06-24T07:08:11.109Z</time>
      </trkpt>
      <trkpt lat="48.407" lon="7.30811">
        <ele>735</ele>
        <time>2020-06-24T07:08:12.109Z</time>
      </trkpt>
      <trkpt lat="48.40701" lon="7.30812">
        <ele>734</ele>
        <time>2020-06-24T07:08:13.110Z</time>
      </trkpt>
      <trkpt lat="48.40699" lon="7.30813">
        <ele>713</ele>
        <time>2020-06-24T07:08:14.110Z</time>
      </trkpt>
      <trkpt lat="48.40699" lon="7.30813">
        <ele>711</ele>
        <time>2020-06-24T07:08:15.110Z</time>
      </trkpt>
      <trkpt lat="48.40699" lon="7.30813">
        <ele>710</ele>
        <time>2020-06-24T07:08:16.109Z</time>
      </trkpt>
      <trkpt lat="48.40702" lon="7.30812">
        <ele>710</ele>
        <time>2020-06-24T07:08:17.110Z</time>
      </trkpt>
      <trkpt lat="48.40702" lon="7.30811">
        <ele>710</ele>
        <time>2020-06-24T07:08:18.110Z</time>
      </trkpt>
      <trkpt lat="48.40704" lon="7.3081">
        <ele>710</ele>
        <time>2020-06-24T07:08:19.109Z</time>
      </trkpt>
      <trkpt lat="48.40705" lon="7.30808">
        <ele>710</ele>
        <time>2020-06-24T07:08:20.110Z</time>
      </trkpt>
      <trkpt lat="48.40707" lon="7.30806">
        <ele>710</ele>
        <time>2020-06-24T07:08:21.110Z</time>
      </trkpt>
      <trkpt lat="48.40709" lon="7.30805">
        <ele>711</ele>
        <time>2020-06-24T07:08:22.110Z</time>
      </trkpt>
      <trkpt lat="48.4071" lon="7.30804">
        <ele>711</ele>
        <time>2020-06-24T07:08:23.109Z</time>
      </trkpt>
      <trkpt lat="48.40711" lon="7.30804">
        <ele>712</ele>
        <time>2020-06-24T07:08:24.109Z</time>
      </trkpt>
      <trkpt lat="48.40713" lon="7.30803">
        <ele>713</ele>
        <time>2020-06-24T07:08:25.110Z</time>
      </trkpt>
      <trkpt lat="48.40714" lon="7.30802">
        <ele>714</ele>
        <time>2020-06-24T07:08:26.110Z</time>
      </trkpt>
      <trkpt lat="48.40715" lon="7.30802">
        <ele>714</ele>
        <time>2020-06-24T07:08:27.110Z</time>
      </trkpt>
      <trkpt lat="48.40716" lon="7.30801">
        <ele>715</ele>
        <time>2020-06-24T07:08:28.109Z</time>
      </trkpt>
      <trkpt lat="48.40718" lon="7.308">
        <ele>715</ele>
        <time>2020-06-24T07:08:29.110Z</time>
      </trkpt>
      <trkpt lat="48.4072" lon="7.30799">
        <ele>715</ele>
        <time>2020-06-24T07:08:30.110Z</time>
      </trkpt>
      <trkpt lat="48.40721" lon="7.30799">
        <ele>716</ele>
        <time>2020-06-24T07:08:31.110Z</time>
      </trkpt>
      <trkpt lat="48.40723" lon="7.30798">
        <ele>716</ele>
        <time>2020-06-24T07:08:32.110Z</time>
      </trkpt>
      <trkpt lat="48.40725" lon="7.30798">
        <ele>716</ele>
        <time>2020-06-24T07:08:33.109Z</time>
      </trkpt>
      <trkpt lat="48.40726" lon="7.30798">
        <ele>717</ele>
        <time>2020-06-24T07:08:34.110Z</time>
      </trkpt>
      <trkpt lat="48.40729" lon="7.30797">
        <ele>718</ele>
        <time>2020-06-24T07:08:35.110Z</time>
      </trkpt>
      <trkpt lat="48.4073" lon="7.30797">
        <ele>719</ele>
        <time>2020-06-24T07:08:36.110Z</time>
      </trkpt>
      <trkpt lat="48.40731" lon="7.30797">
        <ele>720</ele>
        <time>2020-06-24T07:08:37.110Z</time>
      </trkpt>
      <trkpt lat="48.40732" lon="7.30796">
        <ele>721</ele>
        <time>2020-06-24T07:08:38.110Z</time>
      </trkpt>
      <trkpt lat="48.40733" lon="7.30796">
        <ele>721</ele>
        <time>2020-06-24T07:08:39.110Z</time>
      </trkpt>
      <trkpt lat="48.40734" lon="7.30796">
        <ele>722</ele>
        <time>2020-06-24T07:08:40.110Z</time>
      </trkpt>
      <trkpt lat="48.40734" lon="7.30797">
        <ele>723</ele>
        <time>2020-06-24T07:08:41.109Z</time>
      </trkpt>
      <trkpt lat="48.40736" lon="7.30797">
        <ele>723</ele>
        <time>2020-06-24T07:08:42.110Z</time>
      </trkpt>
      <trkpt lat="48.40737" lon="7.30798">
        <ele>723</ele>
        <time>2020-06-24T07:08:43.110Z</time>
      </trkpt>
      <trkpt lat="48.40739" lon="7.30799">
        <ele>723</ele>
        <time>2020-06-24T07:08:44.110Z</time>
      </trkpt>
      <trkpt lat="48.40742" lon="7.30799">
        <ele>723</ele>
        <time>2020-06-24T07:08:45.109Z</time>
      </trkpt>
      <trkpt lat="48.40743" lon="7.308">
        <ele>723</ele>
        <time>2020-06-24T07:08:46.110Z</time>
      </trkpt>
      <trkpt lat="48.40746" lon="7.308">
        <ele>723</ele>
        <time>2020-06-24T07:08:47.110Z</time>
      </trkpt>
      <trkpt lat="48.40748" lon="7.30801">
        <ele>723</ele>
        <time>2020-06-24T07:08:48.110Z</time>
      </trkpt>
      <trkpt lat="48.40749" lon="7.30802">
        <ele>723</ele>
        <time>2020-06-24T07:08:49.109Z</time>
      </trkpt>
      <trkpt lat="48.40751" lon="7.30801">
        <ele>724</ele>
        <time>2020-06-24T07:08:50.110Z</time>
      </trkpt>
      <trkpt lat="48.40752" lon="7.30801">
        <ele>724</ele>
        <time>2020-06-24T07:08:51.110Z</time>
      </trkpt>
      <trkpt lat="48.40753" lon="7.30801">
        <ele>724</ele>
        <time>2020-06-24T07:08:52.109Z</time>
      </trkpt>
      <trkpt lat="48.40755" lon="7.30801">
        <ele>724</ele>
        <time>2020-06-24T07:08:53.109Z</time>
      </trkpt>
      <trkpt lat="48.40756" lon="7.30802">
        <ele>724</ele>
        <time>2020-06-24T07:08:54.109Z</time>
      </trkpt>
      <trkpt lat="48.40758" lon="7.30802">
        <ele>724</ele>
        <time>2020-06-24T07:08:55.109Z</time>
      </trkpt>
      <trkpt lat="48.40759" lon="7.30802">
        <ele>724</ele>
        <time>2020-06-24T07:08:56.110Z</time>
      </trkpt>
      <trkpt lat="48.40761" lon="7.30802">
        <ele>724</ele>
        <time>2020-06-24T07:08:57.110Z</time>
      </trkpt>
      <trkpt lat="48.40762" lon="7.30801">
        <ele>724</ele>
        <time>2020-06-24T07:08:58.109Z</time>
      </trkpt>
      <trkpt lat="48.40763" lon="7.30801">
        <ele>724</ele>
        <time>2020-06-24T07:08:59.110Z</time>
      </trkpt>
      <trkpt lat="48.40764" lon="7.308">
        <ele>725</ele>
        <time>2020-06-24T07:09:00.110Z</time>
      </trkpt>
      <trkpt lat="48.40765" lon="7.30799">
        <ele>725</ele>
        <time>2020-06-24T07:09:01.110Z</time>
      </trkpt>
      <trkpt lat="48.40766" lon="7.30798">
        <ele>725</ele>
        <time>2020-06-24T07:09:02.109Z</time>
      </trkpt>
      <trkpt lat="48.40767" lon="7.30798">
        <ele>726</ele>
        <time>2020-06-24T07:09:03.110Z</time>
      </trkpt>
      <trkpt lat="48.40768" lon="7.30798">
        <ele>726</ele>
        <time>2020-06-24T07:09:04.109Z</time>
      </trkpt>
      <trkpt lat="48.4077" lon="7.30797">
        <ele>726</ele>
        <time>2020-06-24T07:09:05.110Z</time>
      </trkpt>
      <trkpt lat="48.40771" lon="7.30797">
        <ele>727</ele>
        <time>2020-06-24T07:09:06.110Z</time>
      </trkpt>
      <trkpt lat="48.40772" lon="7.30796">
        <ele>727</ele>
        <time>2020-06-24T07:09:07.110Z</time>
      </trkpt>
      <trkpt lat="48.40775" lon="7.30795">
        <ele>728</ele>
        <time>2020-06-24T07:09:08.110Z</time>
      </trkpt>
      <trkpt lat="48.40777" lon="7.30794">
        <ele>728</ele>
        <time>2020-06-24T07:09:09.109Z</time>
      </trkpt>
      <trkpt lat="48.40777" lon="7.30792">
        <ele>728</ele>
        <time>2020-06-24T07:09:10.110Z</time>
      </trkpt>
      <trkpt lat="48.4078" lon="7.30791">
        <ele>729</ele>
        <time>2020-06-24T07:09:11.110Z</time>
      </trkpt>
      <trkpt lat="48.40782" lon="7.3079">
        <ele>729</ele>
        <time>2020-06-24T07:09:12.109Z</time>
      </trkpt>
      <trkpt lat="48.40783" lon="7.3079">
        <ele>729</ele>
        <time>2020-06-24T07:09:13.110Z</time>
      </trkpt>
      <trkpt lat="48.40785" lon="7.3079">
        <ele>729</ele>
        <time>2020-06-24T07:09:14.109Z</time>
      </trkpt>
      <trkpt lat="48.40786" lon="7.3079">
        <ele>729</ele>
        <time>2020-06-24T07:09:15.110Z</time>
      </trkpt>
      <trkpt lat="48.40787" lon="7.3079">
        <ele>729</ele>
        <time>2020-06-24T07:09:16.110Z</time>
      </trkpt>
      <trkpt lat="48.40789" lon="7.3079">
        <ele>729</ele>
        <time>2020-06-24T07:09:17.110Z</time>
      </trkpt>
      <trkpt lat="48.4079" lon="7.30791">
        <ele>730</ele>
        <time>2020-06-24T07:09:18.110Z</time>
      </trkpt>
      <trkpt lat="48.4079" lon="7.30791">
        <ele>730</ele>
        <time>2020-06-24T07:09:19.110Z</time>
      </trkpt>
      <trkpt lat="48.40791" lon="7.30791">
        <ele>730</ele>
        <time>2020-06-24T07:09:20.110Z</time>
      </trkpt>
      <trkpt lat="48.40791" lon="7.3079">
        <ele>730</ele>
        <time>2020-06-24T07:09:21.110Z</time>
      </trkpt>
      <trkpt lat="48.40792" lon="7.3079">
        <ele>731</ele>
        <time>2020-06-24T07:09:22.110Z</time>
      </trkpt>
      <trkpt lat="48.40793" lon="7.3079">
        <ele>731</ele>
        <time>2020-06-24T07:09:23.110Z</time>
      </trkpt>
      <trkpt lat="48.40793" lon="7.30789">
        <ele>731</ele>
        <time>2020-06-24T07:09:24.110Z</time>
      </trkpt>
      <trkpt lat="48.40794" lon="7.30788">
        <ele>731</ele>
        <time>2020-06-24T07:09:25.110Z</time>
      </trkpt>
      <trkpt lat="48.40795" lon="7.30787">
        <ele>732</ele>
        <time>2020-06-24T07:09:26.110Z</time>
      </trkpt>
      <trkpt lat="48.40796" lon="7.30787">
        <ele>733</ele>
        <time>2020-06-24T07:09:27.109Z</time>
      </trkpt>
      <trkpt lat="48.40797" lon="7.30786">
        <ele>733</ele>
        <time>2020-06-24T07:09:28.110Z</time>
      </trkpt>
      <trkpt lat="48.40798" lon="7.30785">
        <ele>733</ele>
        <time>2020-06-24T07:09:29.110Z</time>
      </trkpt>
      <trkpt lat="48.40798" lon="7.30784">
        <ele>734</ele>
        <time>2020-06-24T07:09:30.109Z</time>
      </trkpt>
      <trkpt lat="48.40799" lon="7.30783">
        <ele>734</ele>
        <time>2020-06-24T07:09:31.110Z</time>
      </trkpt>
      <trkpt lat="48.40801" lon="7.30782">
        <ele>734</ele>
        <time>2020-06-24T07:09:32.110Z</time>
      </trkpt>
      <trkpt lat="48.40802" lon="7.30782">
        <ele>734</ele>
        <time>2020-06-24T07:09:33.110Z</time>
      </trkpt>
      <trkpt lat="48.40803" lon="7.30782">
        <ele>734</ele>
        <time>2020-06-24T07:09:34.110Z</time>
      </trkpt>
      <trkpt lat="48.40804" lon="7.30782">
        <ele>734</ele>
        <time>2020-06-24T07:09:35.110Z</time>
      </trkpt>
      <trkpt lat="48.40805" lon="7.30782">
        <ele>733</ele>
        <time>2020-06-24T07:09:36.109Z</time>
      </trkpt>
      <trkpt lat="48.40806" lon="7.30782">
        <ele>733</ele>
        <time>2020-06-24T07:09:37.109Z</time>
      </trkpt>
      <trkpt lat="48.40808" lon="7.30782">
        <ele>733</ele>
        <time>2020-06-24T07:09:38.110Z</time>
      </trkpt>
      <trkpt lat="48.40809" lon="7.30781">
        <ele>732</ele>
        <time>2020-06-24T07:09:39.109Z</time>
      </trkpt>
      <trkpt lat="48.40809" lon="7.30781">
        <ele>732</ele>
        <time>2020-06-24T07:09:40.110Z</time>
      </trkpt>
      <trkpt lat="48.4081" lon="7.30782">
        <ele>731</ele>
        <time>2020-06-24T07:09:41.110Z</time>
      </trkpt>
      <trkpt lat="48.4081" lon="7.30782">
        <ele>731</ele>
        <time>2020-06-24T07:09:42.109Z</time>
      </trkpt>
      <trkpt lat="48.40811" lon="7.30782">
        <ele>731</ele>
        <time>2020-06-24T07:09:43.109Z</time>
      </trkpt>
      <trkpt lat="48.40812" lon="7.30782">
        <ele>731</ele>
        <time>2020-06-24T07:09:44.109Z</time>
      </trkpt>
      <trkpt lat="48.40813" lon="7.30781">
        <ele>731</ele>
        <time>2020-06-24T07:09:45.109Z</time>
      </trkpt>
      <trkpt lat="48.40813" lon="7.30781">
        <ele>731</ele>
        <time>2020-06-24T07:09:46.110Z</time>
      </trkpt>
      <trkpt lat="48.40812" lon="7.30782">
        <ele>732</ele>
        <time>2020-06-24T07:09:47.109Z</time>
      </trkpt>
      <trkpt lat="48.40812" lon="7.30783">
        <ele>733</ele>
        <time>2020-06-24T07:09:48.110Z</time>
      </trkpt>
      <trkpt lat="48.40812" lon="7.30783">
        <ele>733</ele>
        <time>2020-06-24T07:09:49.110Z</time>
      </trkpt>
      <trkpt lat="48.40813" lon="7.30783">
        <ele>733</ele>
        <time>2020-06-24T07:09:50.111Z</time>
      </trkpt>
      <trkpt lat="48.40813" lon="7.30782">
        <ele>733</ele>
        <time>2020-06-24T07:09:51.111Z</time>
      </trkpt>
      <trkpt lat="48.40814" lon="7.30781">
        <ele>733</ele>
        <time>2020-06-24T07:09:52.110Z</time>
      </trkpt>
      <trkpt lat="48.40815" lon="7.3078">
        <ele>732</ele>
        <time>2020-06-24T07:09:53.111Z</time>
      </trkpt>
      <trkpt lat="48.40816" lon="7.30778">
        <ele>732</ele>
        <time>2020-06-24T07:09:54.111Z</time>
      </trkpt>
      <trkpt lat="48.40816" lon="7.30777">
        <ele>731</ele>
        <time>2020-06-24T07:09:55.111Z</time>
      </trkpt>
      <trkpt lat="48.40817" lon="7.30775">
        <ele>730</ele>
        <time>2020-06-24T07:09:56.110Z</time>
      </trkpt>
      <trkpt lat="48.40818" lon="7.30774">
        <ele>730</ele>
        <time>2020-06-24T07:09:57.111Z</time>
      </trkpt>
      <trkpt lat="48.40818" lon="7.30773">
        <ele>729</ele>
        <time>2020-06-24T07:09:58.111Z</time>
      </trkpt>
      <trkpt lat="48.40819" lon="7.30772">
        <ele>728</ele>
        <time>2020-06-24T07:09:59.111Z</time>
      </trkpt>
      <trkpt lat="48.40819" lon="7.3077">
        <ele>727</ele>
        <time>2020-06-24T07:10:00.110Z</time>
      </trkpt>
      <trkpt lat="48.4082" lon="7.30768">
        <ele>726</ele>
        <time>2020-06-24T07:10:01.110Z</time>
      </trkpt>
      <trkpt lat="48.4082" lon="7.30767">
        <ele>725</ele>
        <time>2020-06-24T07:10:02.111Z</time>
      </trkpt>
      <trkpt lat="48.4082" lon="7.30766">
        <ele>725</ele>
        <time>2020-06-24T07:10:03.111Z</time>
      </trkpt>
      <trkpt lat="48.40821" lon="7.30765">
        <ele>724</ele>
        <time>2020-06-24T07:10:04.110Z</time>
      </trkpt>
      <trkpt lat="48.40822" lon="7.30764">
        <ele>723</ele>
        <time>2020-06-24T07:10:05.110Z</time>
      </trkpt>
      <trkpt lat="48.40822" lon="7.30763">
        <ele>723</ele>
        <time>2020-06-24T07:10:06.111Z</time>
      </trkpt>
      <trkpt lat="48.40823" lon="7.30762">
        <ele>723</ele>
        <time>2020-06-24T07:10:07.111Z</time>
      </trkpt>
      <trkpt lat="48.40823" lon="7.30762">
        <ele>723</ele>
        <time>2020-06-24T07:10:08.111Z</time>
      </trkpt>
      <trkpt lat="48.40824" lon="7.30761">
        <ele>724</ele>
        <time>2020-06-24T07:10:09.110Z</time>
      </trkpt>
      <trkpt lat="48.40825" lon="7.3076">
        <ele>725</ele>
        <time>2020-06-24T07:10:10.111Z</time>
      </trkpt>
      <trkpt lat="48.40825" lon="7.30758">
        <ele>726</ele>
        <time>2020-06-24T07:10:11.111Z</time>
      </trkpt>
      <trkpt lat="48.40826" lon="7.30756">
        <ele>727</ele>
        <time>2020-06-24T07:10:12.111Z</time>
      </trkpt>
      <trkpt lat="48.40827" lon="7.30755">
        <ele>729</ele>
        <time>2020-06-24T07:10:13.110Z</time>
      </trkpt>
      <trkpt lat="48.40828" lon="7.30753">
        <ele>730</ele>
        <time>2020-06-24T07:10:14.111Z</time>
      </trkpt>
      <trkpt lat="48.4083" lon="7.30752">
        <ele>731</ele>
        <time>2020-06-24T07:10:15.111Z</time>
      </trkpt>
      <trkpt lat="48.40831" lon="7.30749">
        <ele>732</ele>
        <time>2020-06-24T07:10:16.111Z</time>
      </trkpt>
      <trkpt lat="48.40832" lon="7.30748">
        <ele>733</ele>
        <time>2020-06-24T07:10:17.110Z</time>
      </trkpt>
      <trkpt lat="48.40832" lon="7.30747">
        <ele>734</ele>
        <time>2020-06-24T07:10:18.111Z</time>
      </trkpt>
      <trkpt lat="48.40833" lon="7.30747">
        <ele>734</ele>
        <time>2020-06-24T07:10:19.111Z</time>
      </trkpt>
      <trkpt lat="48.40835" lon="7.30746">
        <ele>735</ele>
        <time>2020-06-24T07:10:20.111Z</time>
      </trkpt>
      <trkpt lat="48.40836" lon="7.30745">
        <ele>735</ele>
        <time>2020-06-24T07:10:21.110Z</time>
      </trkpt>
      <trkpt lat="48.40837" lon="7.30745">
        <ele>736</ele>
        <time>2020-06-24T07:10:22.111Z</time>
      </trkpt>
      <trkpt lat="48.40837" lon="7.30746">
        <ele>736</ele>
        <time>2020-06-24T07:10:23.111Z</time>
      </trkpt>
      <trkpt lat="48.40838" lon="7.30746">
        <ele>736</ele>
        <time>2020-06-24T07:10:24.110Z</time>
      </trkpt>
      <trkpt lat="48.40839" lon="7.30745">
        <ele>736</ele>
        <time>2020-06-24T07:10:25.110Z</time>
      </trkpt>
      <trkpt lat="48.4084" lon="7.30745">
        <ele>736</ele>
        <time>2020-06-24T07:10:26.111Z</time>
      </trkpt>
      <trkpt lat="48.4084" lon="7.30744">
        <ele>736</ele>
        <time>2020-06-24T07:10:27.111Z</time>
      </trkpt>
      <trkpt lat="48.40841" lon="7.30744">
        <ele>737</ele>
        <time>2020-06-24T07:10:28.111Z</time>
      </trkpt>
      <trkpt lat="48.40841" lon="7.30744">
        <ele>737</ele>
        <time>2020-06-24T07:10:29.111Z</time>
      </trkpt>
      <trkpt lat="48.40841" lon="7.30744">
        <ele>737</ele>
        <time>2020-06-24T07:10:30.111Z</time>
      </trkpt>
      <trkpt lat="48.40842" lon="7.30743">
        <ele>737</ele>
        <time>2020-06-24T07:10:31.110Z</time>
      </trkpt>
      <trkpt lat="48.40842" lon="7.30743">
        <ele>737</ele>
        <time>2020-06-24T07:10:32.111Z</time>
      </trkpt>
      <trkpt lat="48.40843" lon="7.30743">
        <ele>737</ele>
        <time>2020-06-24T07:10:33.111Z</time>
      </trkpt>
      <trkpt lat="48.40844" lon="7.30743">
        <ele>737</ele>
        <time>2020-06-24T07:10:34.111Z</time>
      </trkpt>
      <trkpt lat="48.40845" lon="7.30743">
        <ele>737</ele>
        <time>2020-06-24T07:10:35.111Z</time>
      </trkpt>
      <trkpt lat="48.40846" lon="7.30742">
        <ele>737</ele>
        <time>2020-06-24T07:10:36.111Z</time>
      </trkpt>
      <trkpt lat="48.40846" lon="7.30742">
        <ele>738</ele>
        <time>2020-06-24T07:10:37.110Z</time>
      </trkpt>
      <trkpt lat="48.40846" lon="7.30742">
        <ele>739</ele>
        <time>2020-06-24T07:10:38.111Z</time>
      </trkpt>
      <trkpt lat="48.40847" lon="7.30741">
        <ele>739</ele>
        <time>2020-06-24T07:10:39.111Z</time>
      </trkpt>
      <trkpt lat="48.40847" lon="7.30741">
        <ele>740</ele>
        <time>2020-06-24T07:10:40.110Z</time>
      </trkpt>
      <trkpt lat="48.40849" lon="7.3074">
        <ele>742</ele>
        <time>2020-06-24T07:10:41.111Z</time>
      </trkpt>
      <trkpt lat="48.40849" lon="7.30739">
        <ele>742</ele>
        <time>2020-06-24T07:10:42.111Z</time>
      </trkpt>
      <trkpt lat="48.40853" lon="7.30739">
        <ele>741</ele>
        <time>2020-06-24T07:10:43.111Z</time>
      </trkpt>
      <trkpt lat="48.40854" lon="7.30739">
        <ele>741</ele>
        <time>2020-06-24T07:10:44.111Z</time>
      </trkpt>
      <trkpt lat="48.40855" lon="7.30738">
        <ele>741</ele>
        <time>2020-06-24T07:10:45.110Z</time>
      </trkpt>
      <trkpt lat="48.40856" lon="7.30737">
        <ele>741</ele>
        <time>2020-06-24T07:10:46.110Z</time>
      </trkpt>
      <trkpt lat="48.40856" lon="7.30736">
        <ele>741</ele>
        <time>2020-06-24T07:10:47.110Z</time>
      </trkpt>
      <trkpt lat="48.40857" lon="7.30736">
        <ele>740</ele>
        <time>2020-06-24T07:10:48.110Z</time>
      </trkpt>
      <trkpt lat="48.40858" lon="7.30736">
        <ele>736</ele>
        <time>2020-06-24T07:10:49.112Z</time>
      </trkpt>
      <trkpt lat="48.40858" lon="7.30735">
        <ele>735</ele>
        <time>2020-06-24T07:10:50.112Z</time>
      </trkpt>
      <trkpt lat="48.40859" lon="7.30735">
        <ele>735</ele>
        <time>2020-06-24T07:10:51.111Z</time>
      </trkpt>
      <trkpt lat="48.40859" lon="7.30734">
        <ele>734</ele>
        <time>2020-06-24T07:10:52.111Z</time>
      </trkpt>
      <trkpt lat="48.4086" lon="7.30734">
        <ele>734</ele>
        <time>2020-06-24T07:10:53.112Z</time>
      </trkpt>
      <trkpt lat="48.4086" lon="7.30734">
        <ele>733</ele>
        <time>2020-06-24T07:10:54.112Z</time>
      </trkpt>
      <trkpt lat="48.40861" lon="7.30735">
        <ele>733</ele>
        <time>2020-06-24T07:10:55.112Z</time>
      </trkpt>
      <trkpt lat="48.40861" lon="7.30734">
        <ele>732</ele>
        <time>2020-06-24T07:10:56.111Z</time>
      </trkpt>
      <trkpt lat="48.40861" lon="7.30734">
        <ele>732</ele>
        <time>2020-06-24T07:10:57.111Z</time>
      </trkpt>
      <trkpt lat="48.40862" lon="7.30733">
        <ele>732</ele>
        <time>2020-06-24T07:10:58.112Z</time>
      </trkpt>
      <trkpt lat="48.40863" lon="7.30732">
        <ele>731</ele>
        <time>2020-06-24T07:10:59.111Z</time>
      </trkpt>
      <trkpt lat="48.40865" lon="7.30731">
        <ele>731</ele>
        <time>2020-06-24T07:11:00.111Z</time>
      </trkpt>
      <trkpt lat="48.40867" lon="7.30731">
        <ele>730</ele>
        <time>2020-06-24T07:11:01.112Z</time>
      </trkpt>
      <trkpt lat="48.40868" lon="7.30731">
        <ele>730</ele>
        <time>2020-06-24T07:11:02.111Z</time>
      </trkpt>
      <trkpt lat="48.4087" lon="7.30731">
        <ele>730</ele>
        <time>2020-06-24T07:11:03.112Z</time>
      </trkpt>
      <trkpt lat="48.4087" lon="7.30731">
        <ele>730</ele>
        <time>2020-06-24T07:11:04.111Z</time>
      </trkpt>
      <trkpt lat="48.40871" lon="7.30732">
        <ele>731</ele>
        <time>2020-06-24T07:11:05.112Z</time>
      </trkpt>
      <trkpt lat="48.40871" lon="7.30732">
        <ele>731</ele>
        <time>2020-06-24T07:11:06.112Z</time>
      </trkpt>
      <trkpt lat="48.40872" lon="7.30733">
        <ele>732</ele>
        <time>2020-06-24T07:11:07.112Z</time>
      </trkpt>
      <trkpt lat="48.40873" lon="7.30733">
        <ele>732</ele>
        <time>2020-06-24T07:11:08.112Z</time>
      </trkpt>
      <trkpt lat="48.40874" lon="7.30732">
        <ele>732</ele>
        <time>2020-06-24T07:11:09.112Z</time>
      </trkpt>
      <trkpt lat="48.40875" lon="7.30732">
        <ele>733</ele>
        <time>2020-06-24T07:11:10.112Z</time>
      </trkpt>
      <trkpt lat="48.40876" lon="7.30731">
        <ele>733</ele>
        <time>2020-06-24T07:11:11.111Z</time>
      </trkpt>
      <trkpt lat="48.40877" lon="7.3073">
        <ele>734</ele>
        <time>2020-06-24T07:11:12.112Z</time>
      </trkpt>
      <trkpt lat="48.40879" lon="7.30729">
        <ele>735</ele>
        <time>2020-06-24T07:11:13.111Z</time>
      </trkpt>
      <trkpt lat="48.4088" lon="7.30727">
        <ele>736</ele>
        <time>2020-06-24T07:11:14.112Z</time>
      </trkpt>
      <trkpt lat="48.40881" lon="7.30727">
        <ele>737</ele>
        <time>2020-06-24T07:11:15.112Z</time>
      </trkpt>
      <trkpt lat="48.40883" lon="7.30726">
        <ele>737</ele>
        <time>2020-06-24T07:11:16.111Z</time>
      </trkpt>
      <trkpt lat="48.40884" lon="7.30725">
        <ele>738</ele>
        <time>2020-06-24T07:11:17.111Z</time>
      </trkpt>
      <trkpt lat="48.40885" lon="7.30723">
        <ele>738</ele>
        <time>2020-06-24T07:11:18.112Z</time>
      </trkpt>
      <trkpt lat="48.40886" lon="7.30723">
        <ele>737</ele>
        <time>2020-06-24T07:11:19.112Z</time>
      </trkpt>
      <trkpt lat="48.40887" lon="7.30723">
        <ele>737</ele>
        <time>2020-06-24T07:11:20.112Z</time>
      </trkpt>
      <trkpt lat="48.40888" lon="7.30723">
        <ele>735</ele>
        <time>2020-06-24T07:11:21.112Z</time>
      </trkpt>
      <trkpt lat="48.40889" lon="7.30722">
        <ele>735</ele>
        <time>2020-06-24T07:11:22.112Z</time>
      </trkpt>
      <trkpt lat="48.4089" lon="7.3072">
        <ele>734</ele>
        <time>2020-06-24T07:11:23.111Z</time>
      </trkpt>
      <trkpt lat="48.40891" lon="7.3072">
        <ele>734</ele>
        <time>2020-06-24T07:11:24.112Z</time>
      </trkpt>
      <trkpt lat="48.40891" lon="7.3072">
        <ele>734</ele>
        <time>2020-06-24T07:11:25.112Z</time>
      </trkpt>
      <trkpt lat="48.40892" lon="7.3072">
        <ele>733</ele>
        <time>2020-06-24T07:11:26.112Z</time>
      </trkpt>
      <trkpt lat="48.40892" lon="7.30721">
        <ele>733</ele>
        <time>2020-06-24T07:11:27.111Z</time>
      </trkpt>
      <trkpt lat="48.40893" lon="7.3072">
        <ele>732</ele>
        <time>2020-06-24T07:11:28.112Z</time>
      </trkpt>
      <trkpt lat="48.40894" lon="7.3072">
        <ele>732</ele>
        <time>2020-06-24T07:11:29.111Z</time>
      </trkpt>
      <trkpt lat="48.40895" lon="7.3072">
        <ele>731</ele>
        <time>2020-06-24T07:11:30.112Z</time>
      </trkpt>
      <trkpt lat="48.40896" lon="7.30721">
        <ele>730</ele>
        <time>2020-06-24T07:11:31.112Z</time>
      </trkpt>
      <trkpt lat="48.40897" lon="7.30721">
        <ele>729</ele>
        <time>2020-06-24T07:11:32.112Z</time>
      </trkpt>
      <trkpt lat="48.40897" lon="7.30721">
        <ele>729</ele>
        <time>2020-06-24T07:11:33.112Z</time>
      </trkpt>
      <trkpt lat="48.40898" lon="7.30722">
        <ele>728</ele>
        <time>2020-06-24T07:11:34.111Z</time>
      </trkpt>
      <trkpt lat="48.40899" lon="7.30722">
        <ele>728</ele>
        <time>2020-06-24T07:11:35.111Z</time>
      </trkpt>
      <trkpt lat="48.40901" lon="7.30723">
        <ele>728</ele>
        <time>2020-06-24T07:11:36.112Z</time>
      </trkpt>
      <trkpt lat="48.40902" lon="7.30723">
        <ele>727</ele>
        <time>2020-06-24T07:11:37.112Z</time>
      </trkpt>
      <trkpt lat="48.40903" lon="7.30723">
        <ele>727</ele>
        <time>2020-06-24T07:11:38.111Z</time>
      </trkpt>
      <trkpt lat="48.40904" lon="7.30724">
        <ele>727</ele>
        <time>2020-06-24T07:11:39.112Z</time>
      </trkpt>
      <trkpt lat="48.40906" lon="7.30724">
        <ele>726</ele>
        <time>2020-06-24T07:11:40.112Z</time>
      </trkpt>
      <trkpt lat="48.40906" lon="7.30724">
        <ele>727</ele>
        <time>2020-06-24T07:11:41.112Z</time>
      </trkpt>
      <trkpt lat="48.40907" lon="7.30724">
        <ele>727</ele>
        <time>2020-06-24T07:11:42.111Z</time>
      </trkpt>
      <trkpt lat="48.40908" lon="7.30723">
        <ele>728</ele>
        <time>2020-06-24T07:11:43.111Z</time>
      </trkpt>
      <trkpt lat="48.40909" lon="7.30723">
        <ele>728</ele>
        <time>2020-06-24T07:11:44.111Z</time>
      </trkpt>
      <trkpt lat="48.40909" lon="7.30722">
        <ele>729</ele>
        <time>2020-06-24T07:11:45.112Z</time>
      </trkpt>
      <trkpt lat="48.4091" lon="7.30722">
        <ele>729</ele>
        <time>2020-06-24T07:11:46.112Z</time>
      </trkpt>
      <trkpt lat="48.40911" lon="7.30723">
        <ele>729</ele>
        <time>2020-06-24T07:11:47.112Z</time>
      </trkpt>
      <trkpt lat="48.40911" lon="7.30723">
        <ele>730</ele>
        <time>2020-06-24T07:11:48.112Z</time>
      </trkpt>
      <trkpt lat="48.40912" lon="7.30724">
        <ele>730</ele>
        <time>2020-06-24T07:11:49.112Z</time>
      </trkpt>
      <trkpt lat="48.40913" lon="7.30725">
        <ele>730</ele>
        <time>2020-06-24T07:11:50.112Z</time>
      </trkpt>
      <trkpt lat="48.40915" lon="7.30725">
        <ele>730</ele>
        <time>2020-06-24T07:11:51.112Z</time>
      </trkpt>
      <trkpt lat="48.40916" lon="7.30725">
        <ele>731</ele>
        <time>2020-06-24T07:11:52.112Z</time>
      </trkpt>
      <trkpt lat="48.40918" lon="7.30725">
        <ele>731</ele>
        <time>2020-06-24T07:11:53.111Z</time>
      </trkpt>
      <trkpt lat="48.40919" lon="7.30724">
        <ele>731</ele>
        <time>2020-06-24T07:11:54.112Z</time>
      </trkpt>
      <trkpt lat="48.40921" lon="7.30724">
        <ele>731</ele>
        <time>2020-06-24T07:11:55.112Z</time>
      </trkpt>
      <trkpt lat="48.40922" lon="7.30724">
        <ele>731</ele>
        <time>2020-06-24T07:11:56.112Z</time>
      </trkpt>
      <trkpt lat="48.40924" lon="7.30723">
        <ele>732</ele>
        <time>2020-06-24T07:11:57.112Z</time>
      </trkpt>
      <trkpt lat="48.40925" lon="7.30723">
        <ele>733</ele>
        <time>2020-06-24T07:11:58.111Z</time>
      </trkpt>
      <trkpt lat="48.40926" lon="7.30722">
        <ele>734</ele>
        <time>2020-06-24T07:11:59.111Z</time>
      </trkpt>
      <trkpt lat="48.40927" lon="7.30722">
        <ele>735</ele>
        <time>2020-06-24T07:12:00.112Z</time>
      </trkpt>
      <trkpt lat="48.40928" lon="7.30721">
        <ele>736</ele>
        <time>2020-06-24T07:12:01.112Z</time>
      </trkpt>
      <trkpt lat="48.4093" lon="7.30721">
        <ele>737</ele>
        <time>2020-06-24T07:12:02.112Z</time>
      </trkpt>
      <trkpt lat="48.40931" lon="7.30719">
        <ele>738</ele>
        <time>2020-06-24T07:12:03.112Z</time>
      </trkpt>
      <trkpt lat="48.40932" lon="7.30717">
        <ele>739</ele>
        <time>2020-06-24T07:12:04.112Z</time>
      </trkpt>
      <trkpt lat="48.40932" lon="7.30714">
        <ele>740</ele>
        <time>2020-06-24T07:12:05.111Z</time>
      </trkpt>
      <trkpt lat="48.40933" lon="7.30712">
        <ele>741</ele>
        <time>2020-06-24T07:12:06.112Z</time>
      </trkpt>
      <trkpt lat="48.40933" lon="7.30709">
        <ele>743</ele>
        <time>2020-06-24T07:12:07.111Z</time>
      </trkpt>
      <trkpt lat="48.40934" lon="7.30708">
        <ele>744</ele>
        <time>2020-06-24T07:12:08.111Z</time>
      </trkpt>
      <trkpt lat="48.40934" lon="7.30706">
        <ele>746</ele>
        <time>2020-06-24T07:12:09.111Z</time>
      </trkpt>
      <trkpt lat="48.40935" lon="7.30704">
        <ele>747</ele>
        <time>2020-06-24T07:12:10.111Z</time>
      </trkpt>
      <trkpt lat="48.40936" lon="7.30703">
        <ele>748</ele>
        <time>2020-06-24T07:12:11.112Z</time>
      </trkpt>
      <trkpt lat="48.40937" lon="7.30701">
        <ele>750</ele>
        <time>2020-06-24T07:12:12.112Z</time>
      </trkpt>
      <trkpt lat="48.40937" lon="7.30699">
        <ele>751</ele>
        <time>2020-06-24T07:12:13.112Z</time>
      </trkpt>
      <trkpt lat="48.40938" lon="7.30697">
        <ele>753</ele>
        <time>2020-06-24T07:12:14.111Z</time>
      </trkpt>
      <trkpt lat="48.40938" lon="7.30695">
        <ele>754</ele>
        <time>2020-06-24T07:12:15.111Z</time>
      </trkpt>
      <trkpt lat="48.40939" lon="7.30693">
        <ele>755</ele>
        <time>2020-06-24T07:12:16.112Z</time>
      </trkpt>
      <trkpt lat="48.4094" lon="7.30691">
        <ele>756</ele>
        <time>2020-06-24T07:12:17.112Z</time>
      </trkpt>
      <trkpt lat="48.40942" lon="7.30689">
        <ele>757</ele>
        <time>2020-06-24T07:12:18.111Z</time>
      </trkpt>
      <trkpt lat="48.40942" lon="7.30688">
        <ele>758</ele>
        <time>2020-06-24T07:12:19.111Z</time>
      </trkpt>
      <trkpt lat="48.40943" lon="7.30687">
        <ele>759</ele>
        <time>2020-06-24T07:12:20.111Z</time>
      </trkpt>
      <trkpt lat="48.40944" lon="7.30686">
        <ele>760</ele>
        <time>2020-06-24T07:12:21.112Z</time>
      </trkpt>
      <trkpt lat="48.40944" lon="7.30685">
        <ele>761</ele>
        <time>2020-06-24T07:12:22.112Z</time>
      </trkpt>
      <trkpt lat="48.40945" lon="7.30684">
        <ele>761</ele>
        <time>2020-06-24T07:12:23.112Z</time>
      </trkpt>
      <trkpt lat="48.40946" lon="7.30684">
        <ele>761</ele>
        <time>2020-06-24T07:12:24.112Z</time>
      </trkpt>
      <trkpt lat="48.40945" lon="7.30683">
        <ele>761</ele>
        <time>2020-06-24T07:12:25.111Z</time>
      </trkpt>
      <trkpt lat="48.40945" lon="7.30681">
        <ele>762</ele>
        <time>2020-06-24T07:12:26.112Z</time>
      </trkpt>
      <trkpt lat="48.40946" lon="7.30681">
        <ele>762</ele>
        <time>2020-06-24T07:12:27.112Z</time>
      </trkpt>
      <trkpt lat="48.40947" lon="7.30683">
        <ele>762</ele>
        <time>2020-06-24T07:12:28.112Z</time>
      </trkpt>
      <trkpt lat="48.40949" lon="7.30685">
        <ele>761</ele>
        <time>2020-06-24T07:12:29.112Z</time>
      </trkpt>
      <trkpt lat="48.40951" lon="7.30688">
        <ele>761</ele>
        <time>2020-06-24T07:12:30.112Z</time>
      </trkpt>
      <trkpt lat="48.40952" lon="7.3069">
        <ele>760</ele>
        <time>2020-06-24T07:12:31.111Z</time>
      </trkpt>
      <trkpt lat="48.40953" lon="7.30692">
        <ele>758</ele>
        <time>2020-06-24T07:12:32.112Z</time>
      </trkpt>
      <trkpt lat="48.40954" lon="7.30693">
        <ele>757</ele>
        <time>2020-06-24T07:12:33.112Z</time>
      </trkpt>
      <trkpt lat="48.40955" lon="7.30694">
        <ele>755</ele>
        <time>2020-06-24T07:12:34.111Z</time>
      </trkpt>
      <trkpt lat="48.40957" lon="7.30695">
        <ele>754</ele>
        <time>2020-06-24T07:12:35.112Z</time>
      </trkpt>
      <trkpt lat="48.40958" lon="7.30696">
        <ele>752</ele>
        <time>2020-06-24T07:12:36.112Z</time>
      </trkpt>
      <trkpt lat="48.40959" lon="7.30697">
        <ele>750</ele>
        <time>2020-06-24T07:12:37.111Z</time>
      </trkpt>
      <trkpt lat="48.40961" lon="7.30698">
        <ele>748</ele>
        <time>2020-06-24T07:12:38.111Z</time>
      </trkpt>
      <trkpt lat="48.40963" lon="7.307">
        <ele>746</ele>
        <time>2020-06-24T07:12:39.112Z</time>
      </trkpt>
      <trkpt lat="48.40964" lon="7.30701">
        <ele>745</ele>
        <time>2020-06-24T07:12:40.111Z</time>
      </trkpt>
      <trkpt lat="48.40965" lon="7.30702">
        <ele>743</ele>
        <time>2020-06-24T07:12:41.112Z</time>
      </trkpt>
      <trkpt lat="48.40966" lon="7.30704">
        <ele>742</ele>
        <time>2020-06-24T07:12:42.112Z</time>
      </trkpt>
      <trkpt lat="48.40967" lon="7.30706">
        <ele>741</ele>
        <time>2020-06-24T07:12:43.112Z</time>
      </trkpt>
      <trkpt lat="48.40969" lon="7.30709">
        <ele>740</ele>
        <time>2020-06-24T07:12:44.111Z</time>
      </trkpt>
      <trkpt lat="48.40971" lon="7.30711">
        <ele>739</ele>
        <time>2020-06-24T07:12:45.112Z</time>
      </trkpt>
      <trkpt lat="48.40972" lon="7.30712">
        <ele>739</ele>
        <time>2020-06-24T07:12:46.112Z</time>
      </trkpt>
      <trkpt lat="48.40973" lon="7.30714">
        <ele>739</ele>
        <time>2020-06-24T07:12:47.111Z</time>
      </trkpt>
      <trkpt lat="48.40974" lon="7.30715">
        <ele>739</ele>
        <time>2020-06-24T07:12:48.112Z</time>
      </trkpt>
      <trkpt lat="48.40974" lon="7.30715">
        <ele>739</ele>
        <time>2020-06-24T07:12:49.112Z</time>
      </trkpt>
      <trkpt lat="48.40974" lon="7.30715">
        <ele>740</ele>
        <time>2020-06-24T07:12:50.112Z</time>
      </trkpt>
      <trkpt lat="48.40975" lon="7.30715">
        <ele>740</ele>
        <time>2020-06-24T07:12:51.111Z</time>
      </trkpt>
      <trkpt lat="48.40976" lon="7.30715">
        <ele>741</ele>
        <time>2020-06-24T07:12:52.112Z</time>
      </trkpt>
      <trkpt lat="48.40976" lon="7.30714">
        <ele>742</ele>
        <time>2020-06-24T07:12:53.112Z</time>
      </trkpt>
      <trkpt lat="48.40977" lon="7.30714">
        <ele>743</ele>
        <time>2020-06-24T07:12:54.112Z</time>
      </trkpt>
      <trkpt lat="48.40977" lon="7.30714">
        <ele>744</ele>
        <time>2020-06-24T07:12:55.111Z</time>
      </trkpt>
      <trkpt lat="48.40978" lon="7.30714">
        <ele>745</ele>
        <time>2020-06-24T07:12:56.111Z</time>
      </trkpt>
      <trkpt lat="48.40978" lon="7.30713">
        <ele>746</ele>
        <time>2020-06-24T07:12:57.112Z</time>
      </trkpt>
      <trkpt lat="48.40979" lon="7.30713">
        <ele>746</ele>
        <time>2020-06-24T07:12:58.112Z</time>
      </trkpt>
      <trkpt lat="48.4098" lon="7.30712">
        <ele>747</ele>
        <time>2020-06-24T07:12:59.112Z</time>
      </trkpt>
      <trkpt lat="48.40981" lon="7.30712">
        <ele>748</ele>
        <time>2020-06-24T07:13:00.112Z</time>
      </trkpt>
      <trkpt lat="48.40981" lon="7.30712">
        <ele>749</ele>
        <time>2020-06-24T07:13:01.112Z</time>
      </trkpt>
      <trkpt lat="48.40982" lon="7.30711">
        <ele>749</ele>
        <time>2020-06-24T07:13:02.112Z</time>
      </trkpt>
      <trkpt lat="48.40983" lon="7.30709">
        <ele>750</ele>
        <time>2020-06-24T07:13:03.112Z</time>
      </trkpt>
      <trkpt lat="48.40984" lon="7.30707">
        <ele>750</ele>
        <time>2020-06-24T07:13:04.112Z</time>
      </trkpt>
      <trkpt lat="48.40984" lon="7.30704">
        <ele>751</ele>
        <time>2020-06-24T07:13:05.111Z</time>
      </trkpt>
      <trkpt lat="48.40983" lon="7.30704">
        <ele>751</ele>
        <time>2020-06-24T07:13:06.112Z</time>
      </trkpt>
      <trkpt lat="48.40982" lon="7.30705">
        <ele>751</ele>
        <time>2020-06-24T07:13:07.112Z</time>
      </trkpt>
      <trkpt lat="48.4098" lon="7.30707">
        <ele>751</ele>
        <time>2020-06-24T07:13:08.112Z</time>
      </trkpt>
      <trkpt lat="48.40978" lon="7.30709">
        <ele>751</ele>
        <time>2020-06-24T07:13:09.111Z</time>
      </trkpt>
      <trkpt lat="48.40977" lon="7.3071">
        <ele>751</ele>
        <time>2020-06-24T07:13:10.111Z</time>
      </trkpt>
      <trkpt lat="48.40975" lon="7.3071">
        <ele>751</ele>
        <time>2020-06-24T07:13:11.112Z</time>
      </trkpt>
      <trkpt lat="48.40975" lon="7.30711">
        <ele>751</ele>
        <time>2020-06-24T07:13:12.112Z</time>
      </trkpt>
      <trkpt lat="48.40974" lon="7.30711">
        <ele>751</ele>
        <time>2020-06-24T07:13:13.111Z</time>
      </trkpt>
      <trkpt lat="48.40973" lon="7.30712">
        <ele>751</ele>
        <time>2020-06-24T07:13:14.111Z</time>
      </trkpt>
      <trkpt lat="48.40972" lon="7.30712">
        <ele>751</ele>
        <time>2020-06-24T07:13:15.112Z</time>
      </trkpt>
      <trkpt lat="48.40971" lon="7.30713">
        <ele>751</ele>
        <time>2020-06-24T07:13:16.112Z</time>
      </trkpt>
      <trkpt lat="48.4097" lon="7.30713">
        <ele>751</ele>
        <time>2020-06-24T07:13:17.112Z</time>
      </trkpt>
      <trkpt lat="48.40969" lon="7.30713">
        <ele>751</ele>
        <time>2020-06-24T07:13:18.111Z</time>
      </trkpt>
      <trkpt lat="48.40968" lon="7.30712">
        <ele>751</ele>
        <time>2020-06-24T07:13:19.112Z</time>
      </trkpt>
      <trkpt lat="48.40968" lon="7.30712">
        <ele>751</ele>
        <time>2020-06-24T07:13:20.112Z</time>
      </trkpt>
      <trkpt lat="48.40961" lon="7.3072">
        <ele>759</ele>
        <time>2020-06-24T07:13:21.112Z</time>
      </trkpt>
      <trkpt lat="48.4096" lon="7.30721">
        <ele>759</ele>
        <time>2020-06-24T07:13:22.111Z</time>
      </trkpt>
      <trkpt lat="48.40959" lon="7.30721">
        <ele>759</ele>
        <time>2020-06-24T07:13:23.111Z</time>
      </trkpt>
      <trkpt lat="48.40958" lon="7.30722">
        <ele>759</ele>
        <time>2020-06-24T07:13:24.112Z</time>
      </trkpt>
      <trkpt lat="48.40957" lon="7.30722">
        <ele>759</ele>
        <time>2020-06-24T07:13:25.112Z</time>
      </trkpt>
      <trkpt lat="48.40955" lon="7.30723">
        <ele>759</ele>
        <time>2020-06-24T07:13:26.112Z</time>
      </trkpt>
      <trkpt lat="48.40953" lon="7.30723">
        <ele>759</ele>
        <time>2020-06-24T07:13:27.111Z</time>
      </trkpt>
      <trkpt lat="48.40952" lon="7.30724">
        <ele>758</ele>
        <time>2020-06-24T07:13:28.112Z</time>
      </trkpt>
      <trkpt lat="48.4095" lon="7.30723">
        <ele>758</ele>
        <time>2020-06-24T07:13:29.112Z</time>
      </trkpt>
      <trkpt lat="48.40949" lon="7.30724">
        <ele>758</ele>
        <time>2020-06-24T07:13:30.112Z</time>
      </trkpt>
      <trkpt lat="48.40947" lon="7.30723">
        <ele>758</ele>
        <time>2020-06-24T07:13:31.111Z</time>
      </trkpt>
      <trkpt lat="48.40946" lon="7.30722">
        <ele>758</ele>
        <time>2020-06-24T07:13:32.112Z</time>
      </trkpt>
      <trkpt lat="48.40946" lon="7.30722">
        <ele>758</ele>
        <time>2020-06-24T07:13:33.112Z</time>
      </trkpt>
      <trkpt lat="48.40944" lon="7.30722">
        <ele>758</ele>
        <time>2020-06-24T07:13:34.112Z</time>
      </trkpt>
      <trkpt lat="48.40943" lon="7.30721">
        <ele>759</ele>
        <time>2020-06-24T07:13:35.112Z</time>
      </trkpt>
      <trkpt lat="48.40942" lon="7.30721">
        <ele>759</ele>
        <time>2020-06-24T07:13:36.112Z</time>
      </trkpt>
      <trkpt lat="48.40941" lon="7.30722">
        <ele>760</ele>
        <time>2020-06-24T07:13:37.111Z</time>
      </trkpt>
      <trkpt lat="48.40939" lon="7.30723">
        <ele>760</ele>
        <time>2020-06-24T07:13:38.112Z</time>
      </trkpt>
      <trkpt lat="48.40937" lon="7.30724">
        <ele>761</ele>
        <time>2020-06-24T07:13:39.112Z</time>
      </trkpt>
      <trkpt lat="48.40935" lon="7.30726">
        <ele>761</ele>
        <time>2020-06-24T07:13:40.112Z</time>
      </trkpt>
      <trkpt lat="48.40933" lon="7.30727">
        <ele>760</ele>
        <time>2020-06-24T07:13:41.112Z</time>
      </trkpt>
      <trkpt lat="48.40932" lon="7.30727">
        <ele>760</ele>
        <time>2020-06-24T07:13:42.111Z</time>
      </trkpt>
      <trkpt lat="48.40931" lon="7.30727">
        <ele>760</ele>
        <time>2020-06-24T07:13:43.112Z</time>
      </trkpt>
      <trkpt lat="48.4093" lon="7.30728">
        <ele>760</ele>
        <time>2020-06-24T07:13:44.111Z</time>
      </trkpt>
      <trkpt lat="48.40929" lon="7.30729">
        <ele>760</ele>
        <time>2020-06-24T07:13:45.111Z</time>
      </trkpt>
      <trkpt lat="48.40929" lon="7.30729">
        <ele>760</ele>
        <time>2020-06-24T07:13:46.111Z</time>
      </trkpt>
      <trkpt lat="48.40928" lon="7.30731">
        <ele>760</ele>
        <time>2020-06-24T07:13:47.111Z</time>
      </trkpt>
      <trkpt lat="48.40928" lon="7.30732">
        <ele>760</ele>
        <time>2020-06-24T07:13:48.112Z</time>
      </trkpt>
      <trkpt lat="48.40927" lon="7.30733">
        <ele>760</ele>
        <time>2020-06-24T07:13:49.112Z</time>
      </trkpt>
      <trkpt lat="48.40927" lon="7.30735">
        <ele>759</ele>
        <time>2020-06-24T07:13:50.111Z</time>
      </trkpt>
      <trkpt lat="48.40926" lon="7.30736">
        <ele>759</ele>
        <time>2020-06-24T07:13:51.112Z</time>
      </trkpt>
      <trkpt lat="48.40925" lon="7.30737">
        <ele>759</ele>
        <time>2020-06-24T07:13:52.112Z</time>
      </trkpt>
      <trkpt lat="48.40924" lon="7.30739">
        <ele>759</ele>
        <time>2020-06-24T07:13:53.112Z</time>
      </trkpt>
      <trkpt lat="48.40924" lon="7.30741">
        <ele>759</ele>
        <time>2020-06-24T07:13:54.112Z</time>
      </trkpt>
      <trkpt lat="48.40924" lon="7.30742">
        <ele>758</ele>
        <time>2020-06-24T07:13:55.112Z</time>
      </trkpt>
      <trkpt lat="48.40924" lon="7.30744">
        <ele>758</ele>
        <time>2020-06-24T07:13:56.112Z</time>
      </trkpt>
      <trkpt lat="48.40925" lon="7.30745">
        <ele>757</ele>
        <time>2020-06-24T07:13:57.111Z</time>
      </trkpt>
      <trkpt lat="48.40925" lon="7.30746">
        <ele>756</ele>
        <time>2020-06-24T07:13:58.111Z</time>
      </trkpt>
      <trkpt lat="48.40925" lon="7.30747">
        <ele>755</ele>
        <time>2020-06-24T07:13:59.112Z</time>
      </trkpt>
      <trkpt lat="48.40925" lon="7.30748">
        <ele>754</ele>
        <time>2020-06-24T07:14:00.112Z</time>
      </trkpt>
      <trkpt lat="48.40926" lon="7.30749">
        <ele>753</ele>
        <time>2020-06-24T07:14:01.112Z</time>
      </trkpt>
      <trkpt lat="48.40926" lon="7.3075">
        <ele>752</ele>
        <time>2020-06-24T07:14:02.112Z</time>
      </trkpt>
      <trkpt lat="48.40925" lon="7.30752">
        <ele>751</ele>
        <time>2020-06-24T07:14:03.111Z</time>
      </trkpt>
      <trkpt lat="48.40925" lon="7.30753">
        <ele>749</ele>
        <time>2020-06-24T07:14:04.111Z</time>
      </trkpt>
      <trkpt lat="48.40925" lon="7.30754">
        <ele>748</ele>
        <time>2020-06-24T07:14:05.111Z</time>
      </trkpt>
      <trkpt lat="48.40925" lon="7.30755">
        <ele>747</ele>
        <time>2020-06-24T07:14:06.112Z</time>
      </trkpt>
      <trkpt lat="48.40925" lon="7.30756">
        <ele>746</ele>
        <time>2020-06-24T07:14:07.111Z</time>
      </trkpt>
      <trkpt lat="48.40924" lon="7.30757">
        <ele>745</ele>
        <time>2020-06-24T07:14:08.112Z</time>
      </trkpt>
      <trkpt lat="48.40924" lon="7.30758">
        <ele>744</ele>
        <time>2020-06-24T07:14:09.112Z</time>
      </trkpt>
      <trkpt lat="48.40924" lon="7.30759">
        <ele>743</ele>
        <time>2020-06-24T07:14:10.112Z</time>
      </trkpt>
      <trkpt lat="48.40925" lon="7.30759">
        <ele>742</ele>
        <time>2020-06-24T07:14:11.111Z</time>
      </trkpt>
      <trkpt lat="48.40926" lon="7.30758">
        <ele>742</ele>
        <time>2020-06-24T07:14:12.112Z</time>
      </trkpt>
      <trkpt lat="48.40927" lon="7.30758">
        <ele>741</ele>
        <time>2020-06-24T07:14:13.111Z</time>
      </trkpt>
      <trkpt lat="48.40928" lon="7.30757">
        <ele>741</ele>
        <time>2020-06-24T07:14:14.112Z</time>
      </trkpt>
      <trkpt lat="48.40929" lon="7.30756">
        <ele>741</ele>
        <time>2020-06-24T07:14:15.111Z</time>
      </trkpt>
      <trkpt lat="48.40931" lon="7.30756">
        <ele>740</ele>
        <time>2020-06-24T07:14:16.112Z</time>
      </trkpt>
      <trkpt lat="48.40932" lon="7.30754">
        <ele>741</ele>
        <time>2020-06-24T07:14:17.112Z</time>
      </trkpt>
      <trkpt lat="48.40934" lon="7.30753">
        <ele>741</ele>
        <time>2020-06-24T07:14:18.112Z</time>
      </trkpt>
      <trkpt lat="48.40936" lon="7.30754">
        <ele>741</ele>
        <time>2020-06-24T07:14:19.112Z</time>
      </trkpt>
      <trkpt lat="48.40937" lon="7.30757">
        <ele>741</ele>
        <time>2020-06-24T07:14:20.112Z</time>
      </trkpt>
      <trkpt lat="48.40938" lon="7.30759">
        <ele>741</ele>
        <time>2020-06-24T07:14:21.112Z</time>
      </trkpt>
      <trkpt lat="48.40938" lon="7.30761">
        <ele>741</ele>
        <time>2020-06-24T07:14:22.112Z</time>
      </trkpt>
      <trkpt lat="48.40937" lon="7.30764">
        <ele>741</ele>
        <time>2020-06-24T07:14:23.112Z</time>
      </trkpt>
      <trkpt lat="48.40937" lon="7.30765">
        <ele>741</ele>
        <time>2020-06-24T07:14:24.112Z</time>
      </trkpt>
      <trkpt lat="48.40936" lon="7.30766">
        <ele>741</ele>
        <time>2020-06-24T07:14:25.111Z</time>
      </trkpt>
      <trkpt lat="48.40935" lon="7.30767">
        <ele>741</ele>
        <time>2020-06-24T07:14:26.111Z</time>
      </trkpt>
      <trkpt lat="48.40935" lon="7.30768">
        <ele>740</ele>
        <time>2020-06-24T07:14:27.112Z</time>
      </trkpt>
      <trkpt lat="48.40934" lon="7.30769">
        <ele>740</ele>
        <time>2020-06-24T07:14:28.112Z</time>
      </trkpt>
      <trkpt lat="48.40934" lon="7.3077">
        <ele>740</ele>
        <time>2020-06-24T07:14:29.112Z</time>
      </trkpt>
      <trkpt lat="48.40933" lon="7.3077">
        <ele>739</ele>
        <time>2020-06-24T07:14:30.112Z</time>
      </trkpt>
      <trkpt lat="48.40933" lon="7.30771">
        <ele>739</ele>
        <time>2020-06-24T07:14:31.112Z</time>
      </trkpt>
      <trkpt lat="48.40932" lon="7.30773">
        <ele>738</ele>
        <time>2020-06-24T07:14:32.112Z</time>
      </trkpt>
      <trkpt lat="48.40932" lon="7.30774">
        <ele>737</ele>
        <time>2020-06-24T07:14:33.111Z</time>
      </trkpt>
      <trkpt lat="48.40932" lon="7.30774">
        <ele>737</ele>
        <time>2020-06-24T07:14:34.112Z</time>
      </trkpt>
      <trkpt lat="48.40931" lon="7.30775">
        <ele>736</ele>
        <time>2020-06-24T07:14:35.111Z</time>
      </trkpt>
      <trkpt lat="48.40929" lon="7.30776">
        <ele>736</ele>
        <time>2020-06-24T07:14:36.112Z</time>
      </trkpt>
      <trkpt lat="48.40928" lon="7.30778">
        <ele>735</ele>
        <time>2020-06-24T07:14:37.112Z</time>
      </trkpt>
      <trkpt lat="48.40927" lon="7.3078">
        <ele>735</ele>
        <time>2020-06-24T07:14:38.112Z</time>
      </trkpt>
      <trkpt lat="48.40926" lon="7.30781">
        <ele>734</ele>
        <time>2020-06-24T07:14:39.111Z</time>
      </trkpt>
      <trkpt lat="48.40925" lon="7.30782">
        <ele>733</ele>
        <time>2020-06-24T07:14:40.111Z</time>
      </trkpt>
      <trkpt lat="48.40924" lon="7.30783">
        <ele>732</ele>
        <time>2020-06-24T07:14:41.112Z</time>
      </trkpt>
      <trkpt lat="48.40923" lon="7.30784">
        <ele>732</ele>
        <time>2020-06-24T07:14:42.112Z</time>
      </trkpt>
      <trkpt lat="48.40922" lon="7.30785">
        <ele>731</ele>
        <time>2020-06-24T07:14:43.112Z</time>
      </trkpt>
      <trkpt lat="48.40921" lon="7.30787">
        <ele>731</ele>
        <time>2020-06-24T07:14:44.112Z</time>
      </trkpt>
      <trkpt lat="48.4092" lon="7.30788">
        <ele>731</ele>
        <time>2020-06-24T07:14:45.112Z</time>
      </trkpt>
      <trkpt lat="48.40919" lon="7.30789">
        <ele>731</ele>
        <time>2020-06-24T07:14:46.111Z</time>
      </trkpt>
      <trkpt lat="48.40918" lon="7.3079">
        <ele>731</ele>
        <time>2020-06-24T07:14:47.112Z</time>
      </trkpt>
      <trkpt lat="48.40916" lon="7.30791">
        <ele>731</ele>
        <time>2020-06-24T07:14:48.111Z</time>
      </trkpt>
      <trkpt lat="48.40915" lon="7.30793">
        <ele>730</ele>
        <time>2020-06-24T07:14:49.111Z</time>
      </trkpt>
      <trkpt lat="48.40915" lon="7.30794">
        <ele>730</ele>
        <time>2020-06-24T07:14:50.112Z</time>
      </trkpt>
      <trkpt lat="48.40914" lon="7.30794">
        <ele>730</ele>
        <time>2020-06-24T07:14:51.112Z</time>
      </trkpt>
      <trkpt lat="48.40914" lon="7.30795">
        <ele>731</ele>
        <time>2020-06-24T07:14:52.112Z</time>
      </trkpt>
      <trkpt lat="48.40913" lon="7.30796">
        <ele>731</ele>
        <time>2020-06-24T07:14:53.112Z</time>
      </trkpt>
      <trkpt lat="48.40913" lon="7.30797">
        <ele>731</ele>
        <time>2020-06-24T07:14:54.111Z</time>
      </trkpt>
      <trkpt lat="48.40912" lon="7.30798">
        <ele>731</ele>
        <time>2020-06-24T07:14:55.112Z</time>
      </trkpt>
      <trkpt lat="48.40912" lon="7.30799">
        <ele>731</ele>
        <time>2020-06-24T07:14:56.112Z</time>
      </trkpt>
      <trkpt lat="48.4091" lon="7.308">
        <ele>731</ele>
        <time>2020-06-24T07:14:57.112Z</time>
      </trkpt>
      <trkpt lat="48.40909" lon="7.30801">
        <ele>730</ele>
        <time>2020-06-24T07:14:58.112Z</time>
      </trkpt>
      <trkpt lat="48.40908" lon="7.30801">
        <ele>730</ele>
        <time>2020-06-24T07:14:59.112Z</time>
      </trkpt>
      <trkpt lat="48.40907" lon="7.30802">
        <ele>730</ele>
        <time>2020-06-24T07:15:00.111Z</time>
      </trkpt>
      <trkpt lat="48.40907" lon="7.30803">
        <ele>730</ele>
        <time>2020-06-24T07:15:01.111Z</time>
      </trkpt>
      <trkpt lat="48.40906" lon="7.30804">
        <ele>729</ele>
        <time>2020-06-24T07:15:02.111Z</time>
      </trkpt>
      <trkpt lat="48.40905" lon="7.30804">
        <ele>728</ele>
        <time>2020-06-24T07:15:03.112Z</time>
      </trkpt>
      <trkpt lat="48.40904" lon="7.30805">
        <ele>727</ele>
        <time>2020-06-24T07:15:04.112Z</time>
      </trkpt>
      <trkpt lat="48.40904" lon="7.30806">
        <ele>727</ele>
        <time>2020-06-24T07:15:05.112Z</time>
      </trkpt>
      <trkpt lat="48.40903" lon="7.30808">
        <ele>726</ele>
        <time>2020-06-24T07:15:06.112Z</time>
      </trkpt>
      <trkpt lat="48.40902" lon="7.30809">
        <ele>726</ele>
        <time>2020-06-24T07:15:07.112Z</time>
      </trkpt>
      <trkpt lat="48.40901" lon="7.30811">
        <ele>726</ele>
        <time>2020-06-24T07:15:08.112Z</time>
      </trkpt>
      <trkpt lat="48.409" lon="7.30813">
        <ele>726</ele>
        <time>2020-06-24T07:15:09.111Z</time>
      </trkpt>
      <trkpt lat="48.40897" lon="7.30815">
        <ele>725</ele>
        <time>2020-06-24T07:15:10.112Z</time>
      </trkpt>
      <trkpt lat="48.40894" lon="7.30819">
        <ele>725</ele>
        <time>2020-06-24T07:15:11.112Z</time>
      </trkpt>
      <trkpt lat="48.40891" lon="7.30823">
        <ele>725</ele>
        <time>2020-06-24T07:15:12.111Z</time>
      </trkpt>
      <trkpt lat="48.40889" lon="7.30825">
        <ele>725</ele>
        <time>2020-06-24T07:15:13.111Z</time>
      </trkpt>
      <trkpt lat="48.40888" lon="7.30828">
        <ele>725</ele>
        <time>2020-06-24T07:15:14.112Z</time>
      </trkpt>
      <trkpt lat="48.40888" lon="7.3083">
        <ele>725</ele>
        <time>2020-06-24T07:15:15.111Z</time>
      </trkpt>
      <trkpt lat="48.40888" lon="7.30832">
        <ele>725</ele>
        <time>2020-06-24T07:15:16.112Z</time>
      </trkpt>
      <trkpt lat="48.40886" lon="7.30834">
        <ele>725</ele>
        <time>2020-06-24T07:15:17.112Z</time>
      </trkpt>
      <trkpt lat="48.40885" lon="7.30835">
        <ele>725</ele>
        <time>2020-06-24T07:15:18.112Z</time>
      </trkpt>
      <trkpt lat="48.40883" lon="7.30836">
        <ele>725</ele>
        <time>2020-06-24T07:15:19.112Z</time>
      </trkpt>
      <trkpt lat="48.40882" lon="7.30838">
        <ele>725</ele>
        <time>2020-06-24T07:15:20.112Z</time>
      </trkpt>
      <trkpt lat="48.40882" lon="7.30839">
        <ele>724</ele>
        <time>2020-06-24T07:15:21.112Z</time>
      </trkpt>
      <trkpt lat="48.40881" lon="7.30841">
        <ele>724</ele>
        <time>2020-06-24T07:15:22.112Z</time>
      </trkpt>
      <trkpt lat="48.4088" lon="7.30842">
        <ele>724</ele>
        <time>2020-06-24T07:15:23.112Z</time>
      </trkpt>
      <trkpt lat="48.40879" lon="7.30844">
        <ele>724</ele>
        <time>2020-06-24T07:15:24.112Z</time>
      </trkpt>
      <trkpt lat="48.40878" lon="7.30846">
        <ele>724</ele>
        <time>2020-06-24T07:15:25.112Z</time>
      </trkpt>
      <trkpt lat="48.40878" lon="7.30848">
        <ele>724</ele>
        <time>2020-06-24T07:15:26.112Z</time>
      </trkpt>
      <trkpt lat="48.40878" lon="7.3085">
        <ele>724</ele>
        <time>2020-06-24T07:15:27.112Z</time>
      </trkpt>
      <trkpt lat="48.40879" lon="7.30851">
        <ele>725</ele>
        <time>2020-06-24T07:15:28.111Z</time>
      </trkpt>
      <trkpt lat="48.40879" lon="7.30853">
        <ele>726</ele>
        <time>2020-06-24T07:15:29.112Z</time>
      </trkpt>
      <trkpt lat="48.40879" lon="7.30854">
        <ele>726</ele>
        <time>2020-06-24T07:15:30.111Z</time>
      </trkpt>
      <trkpt lat="48.4088" lon="7.30855">
        <ele>726</ele>
        <time>2020-06-24T07:15:31.112Z</time>
      </trkpt>
      <trkpt lat="48.40881" lon="7.30856">
        <ele>726</ele>
        <time>2020-06-24T07:15:32.111Z</time>
      </trkpt>
      <trkpt lat="48.40882" lon="7.30856">
        <ele>727</ele>
        <time>2020-06-24T07:15:33.112Z</time>
      </trkpt>
      <trkpt lat="48.40883" lon="7.30858">
        <ele>727</ele>
        <time>2020-06-24T07:15:34.112Z</time>
      </trkpt>
      <trkpt lat="48.40884" lon="7.30859">
        <ele>728</ele>
        <time>2020-06-24T07:15:35.112Z</time>
      </trkpt>
      <trkpt lat="48.40884" lon="7.30861">
        <ele>728</ele>
        <time>2020-06-24T07:15:36.111Z</time>
      </trkpt>
      <trkpt lat="48.40885" lon="7.30862">
        <ele>728</ele>
        <time>2020-06-24T07:15:37.111Z</time>
      </trkpt>
      <trkpt lat="48.40886" lon="7.30864">
        <ele>728</ele>
        <time>2020-06-24T07:15:38.112Z</time>
      </trkpt>
      <trkpt lat="48.40887" lon="7.30865">
        <ele>728</ele>
        <time>2020-06-24T07:15:39.112Z</time>
      </trkpt>
      <trkpt lat="48.40888" lon="7.30867">
        <ele>727</ele>
        <time>2020-06-24T07:15:40.111Z</time>
      </trkpt>
      <trkpt lat="48.40888" lon="7.30869">
        <ele>727</ele>
        <time>2020-06-24T07:15:41.112Z</time>
      </trkpt>
      <trkpt lat="48.40889" lon="7.30871">
        <ele>726</ele>
        <time>2020-06-24T07:15:42.112Z</time>
      </trkpt>
      <trkpt lat="48.40889" lon="7.30873">
        <ele>726</ele>
        <time>2020-06-24T07:15:43.112Z</time>
      </trkpt>
      <trkpt lat="48.40889" lon="7.30875">
        <ele>725</ele>
        <time>2020-06-24T07:15:44.111Z</time>
      </trkpt>
      <trkpt lat="48.4089" lon="7.30877">
        <ele>725</ele>
        <time>2020-06-24T07:15:45.111Z</time>
      </trkpt>
      <trkpt lat="48.4089" lon="7.30879">
        <ele>726</ele>
        <time>2020-06-24T07:15:46.112Z</time>
      </trkpt>
      <trkpt lat="48.4089" lon="7.30881">
        <ele>726</ele>
        <time>2020-06-24T07:15:47.112Z</time>
      </trkpt>
      <trkpt lat="48.40891" lon="7.30884">
        <ele>726</ele>
        <time>2020-06-24T07:15:48.112Z</time>
      </trkpt>
      <trkpt lat="48.40892" lon="7.30887">
        <ele>726</ele>
        <time>2020-06-24T07:15:49.112Z</time>
      </trkpt>
      <trkpt lat="48.40893" lon="7.3089">
        <ele>726</ele>
        <time>2020-06-24T07:15:50.112Z</time>
      </trkpt>
      <trkpt lat="48.40893" lon="7.30893">
        <ele>726</ele>
        <time>2020-06-24T07:15:51.112Z</time>
      </trkpt>
      <trkpt lat="48.40893" lon="7.30895">
        <ele>726</ele>
        <time>2020-06-24T07:15:52.112Z</time>
      </trkpt>
      <trkpt lat="48.40892" lon="7.30897">
        <ele>726</ele>
        <time>2020-06-24T07:15:53.112Z</time>
      </trkpt>
      <trkpt lat="48.40892" lon="7.30899">
        <ele>727</ele>
        <time>2020-06-24T07:15:54.112Z</time>
      </trkpt>
      <trkpt lat="48.40891" lon="7.30902">
        <ele>727</ele>
        <time>2020-06-24T07:15:55.112Z</time>
      </trkpt>
      <trkpt lat="48.4089" lon="7.30904">
        <ele>727</ele>
        <time>2020-06-24T07:15:56.112Z</time>
      </trkpt>
      <trkpt lat="48.4089" lon="7.30906">
        <ele>727</ele>
        <time>2020-06-24T07:15:57.111Z</time>
      </trkpt>
      <trkpt lat="48.40889" lon="7.30908">
        <ele>727</ele>
        <time>2020-06-24T07:15:58.112Z</time>
      </trkpt>
      <trkpt lat="48.40888" lon="7.30909">
        <ele>727</ele>
        <time>2020-06-24T07:15:59.111Z</time>
      </trkpt>
      <trkpt lat="48.40887" lon="7.30911">
        <ele>727</ele>
        <time>2020-06-24T07:16:00.111Z</time>
      </trkpt>
      <trkpt lat="48.40886" lon="7.30913">
        <ele>727</ele>
        <time>2020-06-24T07:16:01.111Z</time>
      </trkpt>
      <trkpt lat="48.40886" lon="7.30915">
        <ele>728</ele>
        <time>2020-06-24T07:16:02.112Z</time>
      </trkpt>
      <trkpt lat="48.40886" lon="7.30916">
        <ele>728</ele>
        <time>2020-06-24T07:16:03.111Z</time>
      </trkpt>
      <trkpt lat="48.40886" lon="7.30918">
        <ele>729</ele>
        <time>2020-06-24T07:16:04.111Z</time>
      </trkpt>
      <trkpt lat="48.40885" lon="7.3092">
        <ele>729</ele>
        <time>2020-06-24T07:16:05.111Z</time>
      </trkpt>
      <trkpt lat="48.40884" lon="7.30922">
        <ele>730</ele>
        <time>2020-06-24T07:16:06.112Z</time>
      </trkpt>
      <trkpt lat="48.40883" lon="7.30923">
        <ele>730</ele>
        <time>2020-06-24T07:16:07.112Z</time>
      </trkpt>
      <trkpt lat="48.40882" lon="7.30925">
        <ele>730</ele>
        <time>2020-06-24T07:16:08.112Z</time>
      </trkpt>
      <trkpt lat="48.40881" lon="7.30927">
        <ele>730</ele>
        <time>2020-06-24T07:16:09.112Z</time>
      </trkpt>
      <trkpt lat="48.4088" lon="7.30928">
        <ele>730</ele>
        <time>2020-06-24T07:16:10.112Z</time>
      </trkpt>
      <trkpt lat="48.40879" lon="7.30929">
        <ele>730</ele>
        <time>2020-06-24T07:16:11.112Z</time>
      </trkpt>
      <trkpt lat="48.40879" lon="7.30931">
        <ele>730</ele>
        <time>2020-06-24T07:16:12.112Z</time>
      </trkpt>
      <trkpt lat="48.40878" lon="7.30932">
        <ele>730</ele>
        <time>2020-06-24T07:16:13.112Z</time>
      </trkpt>
      <trkpt lat="48.40877" lon="7.30934">
        <ele>730</ele>
        <time>2020-06-24T07:16:14.111Z</time>
      </trkpt>
      <trkpt lat="48.40877" lon="7.30936">
        <ele>730</ele>
        <time>2020-06-24T07:16:15.112Z</time>
      </trkpt>
      <trkpt lat="48.40876" lon="7.30938">
        <ele>731</ele>
        <time>2020-06-24T07:16:16.112Z</time>
      </trkpt>
      <trkpt lat="48.40875" lon="7.30939">
        <ele>731</ele>
        <time>2020-06-24T07:16:17.111Z</time>
      </trkpt>
      <trkpt lat="48.40874" lon="7.30941">
        <ele>732</ele>
        <time>2020-06-24T07:16:18.112Z</time>
      </trkpt>
      <trkpt lat="48.40874" lon="7.30942">
        <ele>732</ele>
        <time>2020-06-24T07:16:19.111Z</time>
      </trkpt>
      <trkpt lat="48.40873" lon="7.30943">
        <ele>732</ele>
        <time>2020-06-24T07:16:20.112Z</time>
      </trkpt>
      <trkpt lat="48.40873" lon="7.30945">
        <ele>732</ele>
        <time>2020-06-24T07:16:21.111Z</time>
      </trkpt>
      <trkpt lat="48.40872" lon="7.30947">
        <ele>732</ele>
        <time>2020-06-24T07:16:22.112Z</time>
      </trkpt>
      <trkpt lat="48.40872" lon="7.30948">
        <ele>732</ele>
        <time>2020-06-24T07:16:23.112Z</time>
      </trkpt>
      <trkpt lat="48.40871" lon="7.3095">
        <ele>732</ele>
        <time>2020-06-24T07:16:24.112Z</time>
      </trkpt>
      <trkpt lat="48.40871" lon="7.30952">
        <ele>732</ele>
        <time>2020-06-24T07:16:25.112Z</time>
      </trkpt>
      <trkpt lat="48.40871" lon="7.30953">
        <ele>733</ele>
        <time>2020-06-24T07:16:26.112Z</time>
      </trkpt>
      <trkpt lat="48.40871" lon="7.30955">
        <ele>733</ele>
        <time>2020-06-24T07:16:27.111Z</time>
      </trkpt>
      <trkpt lat="48.4087" lon="7.30957">
        <ele>733</ele>
        <time>2020-06-24T07:16:28.112Z</time>
      </trkpt>
      <trkpt lat="48.40868" lon="7.30959">
        <ele>733</ele>
        <time>2020-06-24T07:16:29.112Z</time>
      </trkpt>
      <trkpt lat="48.40867" lon="7.30961">
        <ele>733</ele>
        <time>2020-06-24T07:16:30.112Z</time>
      </trkpt>
      <trkpt lat="48.40867" lon="7.30963">
        <ele>732</ele>
        <time>2020-06-24T07:16:31.112Z</time>
      </trkpt>
      <trkpt lat="48.40867" lon="7.30965">
        <ele>732</ele>
        <time>2020-06-24T07:16:32.112Z</time>
      </trkpt>
      <trkpt lat="48.40866" lon="7.30966">
        <ele>730</ele>
        <time>2020-06-24T07:16:33.112Z</time>
      </trkpt>
      <trkpt lat="48.40865" lon="7.30966">
        <ele>729</ele>
        <time>2020-06-24T07:16:34.112Z</time>
      </trkpt>
      <trkpt lat="48.40864" lon="7.30967">
        <ele>729</ele>
        <time>2020-06-24T07:16:35.112Z</time>
      </trkpt>
      <trkpt lat="48.40864" lon="7.30967">
        <ele>728</ele>
        <time>2020-06-24T07:16:36.112Z</time>
      </trkpt>
      <trkpt lat="48.40864" lon="7.30968">
        <ele>728</ele>
        <time>2020-06-24T07:16:37.111Z</time>
      </trkpt>
      <trkpt lat="48.40864" lon="7.30968">
        <ele>727</ele>
        <time>2020-06-24T07:16:38.112Z</time>
      </trkpt>
      <trkpt lat="48.40864" lon="7.3097">
        <ele>728</ele>
        <time>2020-06-24T07:16:39.112Z</time>
      </trkpt>
      <trkpt lat="48.40865" lon="7.30973">
        <ele>728</ele>
        <time>2020-06-24T07:16:40.112Z</time>
      </trkpt>
      <trkpt lat="48.40865" lon="7.30975">
        <ele>728</ele>
        <time>2020-06-24T07:16:41.111Z</time>
      </trkpt>
      <trkpt lat="48.40866" lon="7.30975">
        <ele>728</ele>
        <time>2020-06-24T07:16:42.112Z</time>
      </trkpt>
      <trkpt lat="48.40864" lon="7.30975">
        <ele>729</ele>
        <time>2020-06-24T07:16:43.112Z</time>
      </trkpt>
      <trkpt lat="48.40864" lon="7.30975">
        <ele>729</ele>
        <time>2020-06-24T07:16:44.112Z</time>
      </trkpt>
      <trkpt lat="48.40864" lon="7.30977">
        <ele>730</ele>
        <time>2020-06-24T07:16:45.112Z</time>
      </trkpt>
      <trkpt lat="48.40864" lon="7.30979">
        <ele>730</ele>
        <time>2020-06-24T07:16:46.112Z</time>
      </trkpt>
      <trkpt lat="48.40864" lon="7.30981">
        <ele>731</ele>
        <time>2020-06-24T07:16:47.112Z</time>
      </trkpt>
      <trkpt lat="48.40864" lon="7.30983">
        <ele>731</ele>
        <time>2020-06-24T07:16:48.112Z</time>
      </trkpt>
      <trkpt lat="48.40864" lon="7.30984">
        <ele>731</ele>
        <time>2020-06-24T07:16:49.112Z</time>
      </trkpt>
      <trkpt lat="48.40864" lon="7.30986">
        <ele>730</ele>
        <time>2020-06-24T07:16:50.111Z</time>
      </trkpt>
      <trkpt lat="48.40863" lon="7.30988">
        <ele>730</ele>
        <time>2020-06-24T07:16:51.111Z</time>
      </trkpt>
      <trkpt lat="48.40863" lon="7.3099">
        <ele>729</ele>
        <time>2020-06-24T07:16:52.112Z</time>
      </trkpt>
      <trkpt lat="48.40861" lon="7.30992">
        <ele>728</ele>
        <time>2020-06-24T07:16:53.112Z</time>
      </trkpt>
      <trkpt lat="48.4086" lon="7.30993">
        <ele>727</ele>
        <time>2020-06-24T07:16:54.111Z</time>
      </trkpt>
      <trkpt lat="48.40859" lon="7.30995">
        <ele>726</ele>
        <time>2020-06-24T07:16:55.112Z</time>
      </trkpt>
      <trkpt lat="48.40859" lon="7.30997">
        <ele>726</ele>
        <time>2020-06-24T07:16:56.112Z</time>
      </trkpt>
      <trkpt lat="48.40858" lon="7.30999">
        <ele>726</ele>
        <time>2020-06-24T07:16:57.111Z</time>
      </trkpt>
      <trkpt lat="48.40857" lon="7.31001">
        <ele>726</ele>
        <time>2020-06-24T07:16:58.111Z</time>
      </trkpt>
      <trkpt lat="48.40857" lon="7.31003">
        <ele>726</ele>
        <time>2020-06-24T07:16:59.112Z</time>
      </trkpt>
      <trkpt lat="48.40856" lon="7.31004">
        <ele>726</ele>
        <time>2020-06-24T07:17:00.111Z</time>
      </trkpt>
      <trkpt lat="48.40855" lon="7.31006">
        <ele>726</ele>
        <time>2020-06-24T07:17:01.112Z</time>
      </trkpt>
      <trkpt lat="48.40855" lon="7.31007">
        <ele>726</ele>
        <time>2020-06-24T07:17:02.112Z</time>
      </trkpt>
      <trkpt lat="48.40854" lon="7.31009">
        <ele>726</ele>
        <time>2020-06-24T07:17:03.111Z</time>
      </trkpt>
      <trkpt lat="48.40854" lon="7.31011">
        <ele>726</ele>
        <time>2020-06-24T07:17:04.112Z</time>
      </trkpt>
      <trkpt lat="48.40854" lon="7.31012">
        <ele>726</ele>
        <time>2020-06-24T07:17:05.112Z</time>
      </trkpt>
      <trkpt lat="48.40853" lon="7.31014">
        <ele>726</ele>
        <time>2020-06-24T07:17:06.112Z</time>
      </trkpt>
      <trkpt lat="48.40853" lon="7.31016">
        <ele>727</ele>
        <time>2020-06-24T07:17:07.112Z</time>
      </trkpt>
      <trkpt lat="48.40853" lon="7.31017">
        <ele>727</ele>
        <time>2020-06-24T07:17:08.112Z</time>
      </trkpt>
      <trkpt lat="48.40852" lon="7.31019">
        <ele>727</ele>
        <time>2020-06-24T07:17:09.112Z</time>
      </trkpt>
      <trkpt lat="48.40852" lon="7.31021">
        <ele>727</ele>
        <time>2020-06-24T07:17:10.112Z</time>
      </trkpt>
      <trkpt lat="48.40851" lon="7.31023">
        <ele>727</ele>
        <time>2020-06-24T07:17:11.112Z</time>
      </trkpt>
      <trkpt lat="48.4085" lon="7.31024">
        <ele>727</ele>
        <time>2020-06-24T07:17:12.112Z</time>
      </trkpt>
      <trkpt lat="48.40848" lon="7.31027">
        <ele>727</ele>
        <time>2020-06-24T07:17:13.111Z</time>
      </trkpt>
      <trkpt lat="48.40846" lon="7.31029">
        <ele>726</ele>
        <time>2020-06-24T07:17:14.111Z</time>
      </trkpt>
      <trkpt lat="48.40845" lon="7.3103">
        <ele>726</ele>
        <time>2020-06-24T07:17:15.112Z</time>
      </trkpt>
      <trkpt lat="48.40845" lon="7.31032">
        <ele>726</ele>
        <time>2020-06-24T07:17:16.112Z</time>
      </trkpt>
      <trkpt lat="48.40845" lon="7.31034">
        <ele>725</ele>
        <time>2020-06-24T07:17:17.111Z</time>
      </trkpt>
      <trkpt lat="48.40844" lon="7.31036">
        <ele>725</ele>
        <time>2020-06-24T07:17:18.112Z</time>
      </trkpt>
      <trkpt lat="48.40843" lon="7.31038">
        <ele>725</ele>
        <time>2020-06-24T07:17:19.112Z</time>
      </trkpt>
      <trkpt lat="48.40842" lon="7.3104">
        <ele>725</ele>
        <time>2020-06-24T07:17:20.112Z</time>
      </trkpt>
      <trkpt lat="48.40841" lon="7.31042">
        <ele>725</ele>
        <time>2020-06-24T07:17:21.112Z</time>
      </trkpt>
      <trkpt lat="48.40841" lon="7.31044">
        <ele>726</ele>
        <time>2020-06-24T07:17:22.112Z</time>
      </trkpt>
      <trkpt lat="48.4084" lon="7.31045">
        <ele>726</ele>
        <time>2020-06-24T07:17:23.112Z</time>
      </trkpt>
      <trkpt lat="48.4084" lon="7.31047">
        <ele>727</ele>
        <time>2020-06-24T07:17:24.112Z</time>
      </trkpt>
      <trkpt lat="48.40839" lon="7.31047">
        <ele>727</ele>
        <time>2020-06-24T07:17:25.112Z</time>
      </trkpt>
      <trkpt lat="48.40837" lon="7.31049">
        <ele>728</ele>
        <time>2020-06-24T07:17:26.112Z</time>
      </trkpt>
      <trkpt lat="48.40835" lon="7.31051">
        <ele>729</ele>
        <time>2020-06-24T07:17:27.112Z</time>
      </trkpt>
      <trkpt lat="48.40834" lon="7.31052">
        <ele>729</ele>
        <time>2020-06-24T07:17:28.112Z</time>
      </trkpt>
      <trkpt lat="48.40833" lon="7.31055">
        <ele>730</ele>
        <time>2020-06-24T07:17:29.112Z</time>
      </trkpt>
      <trkpt lat="48.40832" lon="7.31057">
        <ele>730</ele>
        <time>2020-06-24T07:17:30.111Z</time>
      </trkpt>
      <trkpt lat="48.40832" lon="7.31058">
        <ele>731</ele>
        <time>2020-06-24T07:17:31.111Z</time>
      </trkpt>
      <trkpt lat="48.40831" lon="7.3106">
        <ele>731</ele>
        <time>2020-06-24T07:17:32.112Z</time>
      </trkpt>
      <trkpt lat="48.40829" lon="7.31061">
        <ele>732</ele>
        <time>2020-06-24T07:17:33.112Z</time>
      </trkpt>
      <trkpt lat="48.40828" lon="7.31062">
        <ele>732</ele>
        <time>2020-06-24T07:17:34.112Z</time>
      </trkpt>
      <trkpt lat="48.40828" lon="7.31064">
        <ele>732</ele>
        <time>2020-06-24T07:17:35.112Z</time>
      </trkpt>
      <trkpt lat="48.40827" lon="7.31065">
        <ele>732</ele>
        <time>2020-06-24T07:17:36.112Z</time>
      </trkpt>
      <trkpt lat="48.40826" lon="7.31066">
        <ele>733</ele>
        <time>2020-06-24T07:17:37.112Z</time>
      </trkpt>
      <trkpt lat="48.40825" lon="7.31067">
        <ele>733</ele>
        <time>2020-06-24T07:17:38.112Z</time>
      </trkpt>
      <trkpt lat="48.40824" lon="7.31069">
        <ele>733</ele>
        <time>2020-06-24T07:17:39.112Z</time>
      </trkpt>
      <trkpt lat="48.40823" lon="7.31071">
        <ele>733</ele>
        <time>2020-06-24T07:17:40.112Z</time>
      </trkpt>
      <trkpt lat="48.40823" lon="7.31072">
        <ele>733</ele>
        <time>2020-06-24T07:17:41.112Z</time>
      </trkpt>
      <trkpt lat="48.40823" lon="7.31075">
        <ele>733</ele>
        <time>2020-06-24T07:17:42.112Z</time>
      </trkpt>
      <trkpt lat="48.40822" lon="7.31077">
        <ele>733</ele>
        <time>2020-06-24T07:17:43.112Z</time>
      </trkpt>
      <trkpt lat="48.40821" lon="7.31078">
        <ele>733</ele>
        <time>2020-06-24T07:17:44.111Z</time>
      </trkpt>
      <trkpt lat="48.40821" lon="7.3108">
        <ele>734</ele>
        <time>2020-06-24T07:17:45.112Z</time>
      </trkpt>
      <trkpt lat="48.4082" lon="7.31082">
        <ele>734</ele>
        <time>2020-06-24T07:17:46.112Z</time>
      </trkpt>
      <trkpt lat="48.40819" lon="7.31084">
        <ele>734</ele>
        <time>2020-06-24T07:17:47.112Z</time>
      </trkpt>
      <trkpt lat="48.40817" lon="7.31086">
        <ele>734</ele>
        <time>2020-06-24T07:17:48.112Z</time>
      </trkpt>
      <trkpt lat="48.40816" lon="7.31088">
        <ele>734</ele>
        <time>2020-06-24T07:17:49.112Z</time>
      </trkpt>
      <trkpt lat="48.40816" lon="7.3109">
        <ele>734</ele>
        <time>2020-06-24T07:17:50.111Z</time>
      </trkpt>
      <trkpt lat="48.40815" lon="7.31092">
        <ele>734</ele>
        <time>2020-06-24T07:17:51.111Z</time>
      </trkpt>
      <trkpt lat="48.40813" lon="7.31093">
        <ele>733</ele>
        <time>2020-06-24T07:17:52.111Z</time>
      </trkpt>
      <trkpt lat="48.40811" lon="7.31094">
        <ele>733</ele>
        <time>2020-06-24T07:17:53.112Z</time>
      </trkpt>
      <trkpt lat="48.4081" lon="7.31096">
        <ele>733</ele>
        <time>2020-06-24T07:17:54.112Z</time>
      </trkpt>
      <trkpt lat="48.40809" lon="7.31098">
        <ele>733</ele>
        <time>2020-06-24T07:17:55.111Z</time>
      </trkpt>
      <trkpt lat="48.40809" lon="7.31099">
        <ele>733</ele>
        <time>2020-06-24T07:17:56.112Z</time>
      </trkpt>
      <trkpt lat="48.40808" lon="7.311">
        <ele>733</ele>
        <time>2020-06-24T07:17:57.112Z</time>
      </trkpt>
      <trkpt lat="48.40808" lon="7.31102">
        <ele>733</ele>
        <time>2020-06-24T07:17:58.112Z</time>
      </trkpt>
      <trkpt lat="48.40807" lon="7.31104">
        <ele>733</ele>
        <time>2020-06-24T07:17:59.112Z</time>
      </trkpt>
      <trkpt lat="48.40807" lon="7.31106">
        <ele>733</ele>
        <time>2020-06-24T07:18:00.112Z</time>
      </trkpt>
      <trkpt lat="48.40806" lon="7.31107">
        <ele>733</ele>
        <time>2020-06-24T07:18:01.112Z</time>
      </trkpt>
      <trkpt lat="48.40805" lon="7.31108">
        <ele>732</ele>
        <time>2020-06-24T07:18:02.112Z</time>
      </trkpt>
      <trkpt lat="48.40804" lon="7.3111">
        <ele>731</ele>
        <time>2020-06-24T07:18:03.112Z</time>
      </trkpt>
      <trkpt lat="48.40803" lon="7.31111">
        <ele>731</ele>
        <time>2020-06-24T07:18:04.112Z</time>
      </trkpt>
      <trkpt lat="48.40802" lon="7.31113">
        <ele>730</ele>
        <time>2020-06-24T07:18:05.111Z</time>
      </trkpt>
      <trkpt lat="48.40802" lon="7.31114">
        <ele>730</ele>
        <time>2020-06-24T07:18:06.112Z</time>
      </trkpt>
      <trkpt lat="48.40802" lon="7.31116">
        <ele>730</ele>
        <time>2020-06-24T07:18:07.112Z</time>
      </trkpt>
      <trkpt lat="48.40801" lon="7.31118">
        <ele>731</ele>
        <time>2020-06-24T07:18:08.111Z</time>
      </trkpt>
      <trkpt lat="48.408" lon="7.31119">
        <ele>731</ele>
        <time>2020-06-24T07:18:09.112Z</time>
      </trkpt>
      <trkpt lat="48.40799" lon="7.31121">
        <ele>731</ele>
        <time>2020-06-24T07:18:10.111Z</time>
      </trkpt>
      <trkpt lat="48.40799" lon="7.31122">
        <ele>731</ele>
        <time>2020-06-24T07:18:11.111Z</time>
      </trkpt>
      <trkpt lat="48.40798" lon="7.31123">
        <ele>731</ele>
        <time>2020-06-24T07:18:12.112Z</time>
      </trkpt>
      <trkpt lat="48.40797" lon="7.31125">
        <ele>731</ele>
        <time>2020-06-24T07:18:13.112Z</time>
      </trkpt>
      <trkpt lat="48.40797" lon="7.31127">
        <ele>731</ele>
        <time>2020-06-24T07:18:14.112Z</time>
      </trkpt>
      <trkpt lat="48.40796" lon="7.31129">
        <ele>731</ele>
        <time>2020-06-24T07:18:15.112Z</time>
      </trkpt>
      <trkpt lat="48.40796" lon="7.31132">
        <ele>732</ele>
        <time>2020-06-24T07:18:16.112Z</time>
      </trkpt>
      <trkpt lat="48.40796" lon="7.31134">
        <ele>732</ele>
        <time>2020-06-24T07:18:17.112Z</time>
      </trkpt>
      <trkpt lat="48.40796" lon="7.31136">
        <ele>732</ele>
        <time>2020-06-24T07:18:18.112Z</time>
      </trkpt>
      <trkpt lat="48.40796" lon="7.31138">
        <ele>733</ele>
        <time>2020-06-24T07:18:19.112Z</time>
      </trkpt>
      <trkpt lat="48.40795" lon="7.31141">
        <ele>733</ele>
        <time>2020-06-24T07:18:20.111Z</time>
      </trkpt>
      <trkpt lat="48.40794" lon="7.31142">
        <ele>734</ele>
        <time>2020-06-24T07:18:21.111Z</time>
      </trkpt>
      <trkpt lat="48.40794" lon="7.31144">
        <ele>734</ele>
        <time>2020-06-24T07:18:22.111Z</time>
      </trkpt>
      <trkpt lat="48.40794" lon="7.31146">
        <ele>735</ele>
        <time>2020-06-24T07:18:23.111Z</time>
      </trkpt>
      <trkpt lat="48.40794" lon="7.31148">
        <ele>735</ele>
        <time>2020-06-24T07:18:24.112Z</time>
      </trkpt>
      <trkpt lat="48.40795" lon="7.31151">
        <ele>735</ele>
        <time>2020-06-24T07:18:25.112Z</time>
      </trkpt>
      <trkpt lat="48.40795" lon="7.31154">
        <ele>735</ele>
        <time>2020-06-24T07:18:26.112Z</time>
      </trkpt>
      <trkpt lat="48.40796" lon="7.31156">
        <ele>735</ele>
        <time>2020-06-24T07:18:27.112Z</time>
      </trkpt>
      <trkpt lat="48.40796" lon="7.31158">
        <ele>735</ele>
        <time>2020-06-24T07:18:28.111Z</time>
      </trkpt>
      <trkpt lat="48.40796" lon="7.3116">
        <ele>735</ele>
        <time>2020-06-24T07:18:29.112Z</time>
      </trkpt>
      <trkpt lat="48.40796" lon="7.31161">
        <ele>735</ele>
        <time>2020-06-24T07:18:30.111Z</time>
      </trkpt>
      <trkpt lat="48.40795" lon="7.31162">
        <ele>736</ele>
        <time>2020-06-24T07:18:31.112Z</time>
      </trkpt>
      <trkpt lat="48.40795" lon="7.31164">
        <ele>736</ele>
        <time>2020-06-24T07:18:32.111Z</time>
      </trkpt>
      <trkpt lat="48.40796" lon="7.31165">
        <ele>736</ele>
        <time>2020-06-24T07:18:33.112Z</time>
      </trkpt>
      <trkpt lat="48.40796" lon="7.31167">
        <ele>736</ele>
        <time>2020-06-24T07:18:34.112Z</time>
      </trkpt>
      <trkpt lat="48.40796" lon="7.31169">
        <ele>736</ele>
        <time>2020-06-24T07:18:35.112Z</time>
      </trkpt>
      <trkpt lat="48.40796" lon="7.3117">
        <ele>736</ele>
        <time>2020-06-24T07:18:36.112Z</time>
      </trkpt>
      <trkpt lat="48.40796" lon="7.31171">
        <ele>736</ele>
        <time>2020-06-24T07:18:37.111Z</time>
      </trkpt>
      <trkpt lat="48.40796" lon="7.31173">
        <ele>736</ele>
        <time>2020-06-24T07:18:38.112Z</time>
      </trkpt>
      <trkpt lat="48.40796" lon="7.31175">
        <ele>737</ele>
        <time>2020-06-24T07:18:39.112Z</time>
      </trkpt>
      <trkpt lat="48.40796" lon="7.31176">
        <ele>737</ele>
        <time>2020-06-24T07:18:40.112Z</time>
      </trkpt>
      <trkpt lat="48.40797" lon="7.31178">
        <ele>737</ele>
        <time>2020-06-24T07:18:41.112Z</time>
      </trkpt>
      <trkpt lat="48.40797" lon="7.31179">
        <ele>737</ele>
        <time>2020-06-24T07:18:42.112Z</time>
      </trkpt>
      <trkpt lat="48.40797" lon="7.31181">
        <ele>737</ele>
        <time>2020-06-24T07:18:43.112Z</time>
      </trkpt>
      <trkpt lat="48.40798" lon="7.31182">
        <ele>737</ele>
        <time>2020-06-24T07:18:44.111Z</time>
      </trkpt>
      <trkpt lat="48.40798" lon="7.31183">
        <ele>737</ele>
        <time>2020-06-24T07:18:45.111Z</time>
      </trkpt>
      <trkpt lat="48.40798" lon="7.31184">
        <ele>737</ele>
        <time>2020-06-24T07:18:46.112Z</time>
      </trkpt>
      <trkpt lat="48.40798" lon="7.31184">
        <ele>737</ele>
        <time>2020-06-24T07:18:47.112Z</time>
      </trkpt>
      <trkpt lat="48.40799" lon="7.31185">
        <ele>737</ele>
        <time>2020-06-24T07:18:48.112Z</time>
      </trkpt>
      <trkpt lat="48.40799" lon="7.31187">
        <ele>738</ele>
        <time>2020-06-24T07:18:49.112Z</time>
      </trkpt>
      <trkpt lat="48.40799" lon="7.31189">
        <ele>738</ele>
        <time>2020-06-24T07:18:50.111Z</time>
      </trkpt>
      <trkpt lat="48.40799" lon="7.3119">
        <ele>738</ele>
        <time>2020-06-24T07:18:51.111Z</time>
      </trkpt>
      <trkpt lat="48.40799" lon="7.31192">
        <ele>738</ele>
        <time>2020-06-24T07:18:52.112Z</time>
      </trkpt>
      <trkpt lat="48.40799" lon="7.31194">
        <ele>738</ele>
        <time>2020-06-24T07:18:53.112Z</time>
      </trkpt>
      <trkpt lat="48.408" lon="7.31197">
        <ele>738</ele>
        <time>2020-06-24T07:18:54.112Z</time>
      </trkpt>
      <trkpt lat="48.40801" lon="7.312">
        <ele>738</ele>
        <time>2020-06-24T07:18:55.112Z</time>
      </trkpt>
      <trkpt lat="48.40802" lon="7.31202">
        <ele>737</ele>
        <time>2020-06-24T07:18:56.112Z</time>
      </trkpt>
      <trkpt lat="48.40802" lon="7.31205">
        <ele>736</ele>
        <time>2020-06-24T07:18:57.112Z</time>
      </trkpt>
      <trkpt lat="48.40802" lon="7.31208">
        <ele>735</ele>
        <time>2020-06-24T07:18:58.111Z</time>
      </trkpt>
      <trkpt lat="48.40803" lon="7.3121">
        <ele>735</ele>
        <time>2020-06-24T07:18:59.112Z</time>
      </trkpt>
      <trkpt lat="48.40803" lon="7.31212">
        <ele>734</ele>
        <time>2020-06-24T07:19:00.112Z</time>
      </trkpt>
      <trkpt lat="48.40803" lon="7.31214">
        <ele>734</ele>
        <time>2020-06-24T07:19:01.112Z</time>
      </trkpt>
      <trkpt lat="48.40804" lon="7.31217">
        <ele>733</ele>
        <time>2020-06-24T07:19:02.112Z</time>
      </trkpt>
      <trkpt lat="48.40805" lon="7.31219">
        <ele>733</ele>
        <time>2020-06-24T07:19:03.112Z</time>
      </trkpt>
      <trkpt lat="48.40805" lon="7.31221">
        <ele>733</ele>
        <time>2020-06-24T07:19:04.112Z</time>
      </trkpt>
      <trkpt lat="48.40806" lon="7.31223">
        <ele>734</ele>
        <time>2020-06-24T07:19:05.111Z</time>
      </trkpt>
      <trkpt lat="48.40807" lon="7.31225">
        <ele>734</ele>
        <time>2020-06-24T07:19:06.112Z</time>
      </trkpt>
      <trkpt lat="48.40808" lon="7.31226">
        <ele>735</ele>
        <time>2020-06-24T07:19:07.112Z</time>
      </trkpt>
      <trkpt lat="48.40808" lon="7.31227">
        <ele>735</ele>
        <time>2020-06-24T07:19:08.111Z</time>
      </trkpt>
      <trkpt lat="48.40809" lon="7.31229">
        <ele>736</ele>
        <time>2020-06-24T07:19:09.112Z</time>
      </trkpt>
      <trkpt lat="48.4081" lon="7.3123">
        <ele>736</ele>
        <time>2020-06-24T07:19:10.112Z</time>
      </trkpt>
      <trkpt lat="48.4081" lon="7.31232">
        <ele>736</ele>
        <time>2020-06-24T07:19:11.112Z</time>
      </trkpt>
      <trkpt lat="48.4081" lon="7.31234">
        <ele>736</ele>
        <time>2020-06-24T07:19:12.112Z</time>
      </trkpt>
      <trkpt lat="48.40811" lon="7.31236">
        <ele>737</ele>
        <time>2020-06-24T07:19:13.112Z</time>
      </trkpt>
      <trkpt lat="48.40812" lon="7.31239">
        <ele>737</ele>
        <time>2020-06-24T07:19:14.112Z</time>
      </trkpt>
      <trkpt lat="48.40812" lon="7.3124">
        <ele>738</ele>
        <time>2020-06-24T07:19:15.112Z</time>
      </trkpt>
      <trkpt lat="48.40813" lon="7.3124">
        <ele>739</ele>
        <time>2020-06-24T07:19:16.112Z</time>
      </trkpt>
      <trkpt lat="48.40815" lon="7.31241">
        <ele>740</ele>
        <time>2020-06-24T07:19:17.112Z</time>
      </trkpt>
      <trkpt lat="48.40817" lon="7.31241">
        <ele>740</ele>
        <time>2020-06-24T07:19:18.111Z</time>
      </trkpt>
      <trkpt lat="48.40818" lon="7.31243">
        <ele>740</ele>
        <time>2020-06-24T07:19:19.112Z</time>
      </trkpt>
      <trkpt lat="48.4082" lon="7.31245">
        <ele>739</ele>
        <time>2020-06-24T07:19:20.112Z</time>
      </trkpt>
      <trkpt lat="48.40821" lon="7.31247">
        <ele>739</ele>
        <time>2020-06-24T07:19:21.112Z</time>
      </trkpt>
      <trkpt lat="48.40823" lon="7.31249">
        <ele>739</ele>
        <time>2020-06-24T07:19:22.112Z</time>
      </trkpt>
      <trkpt lat="48.40823" lon="7.3125">
        <ele>739</ele>
        <time>2020-06-24T07:19:23.111Z</time>
      </trkpt>
      <trkpt lat="48.40824" lon="7.31252">
        <ele>739</ele>
        <time>2020-06-24T07:19:24.112Z</time>
      </trkpt>
      <trkpt lat="48.40826" lon="7.31253">
        <ele>740</ele>
        <time>2020-06-24T07:19:25.111Z</time>
      </trkpt>
      <trkpt lat="48.40828" lon="7.31254">
        <ele>740</ele>
        <time>2020-06-24T07:19:26.112Z</time>
      </trkpt>
      <trkpt lat="48.40829" lon="7.31256">
        <ele>739</ele>
        <time>2020-06-24T07:19:27.112Z</time>
      </trkpt>
      <trkpt lat="48.4083" lon="7.31259">
        <ele>739</ele>
        <time>2020-06-24T07:19:28.112Z</time>
      </trkpt>
      <trkpt lat="48.40831" lon="7.31262">
        <ele>739</ele>
        <time>2020-06-24T07:19:29.112Z</time>
      </trkpt>
      <trkpt lat="48.40832" lon="7.31263">
        <ele>739</ele>
        <time>2020-06-24T07:19:30.112Z</time>
      </trkpt>
      <trkpt lat="48.40833" lon="7.31265">
        <ele>739</ele>
        <time>2020-06-24T07:19:31.112Z</time>
      </trkpt>
      <trkpt lat="48.40834" lon="7.31266">
        <ele>739</ele>
        <time>2020-06-24T07:19:32.111Z</time>
      </trkpt>
      <trkpt lat="48.40836" lon="7.31267">
        <ele>739</ele>
        <time>2020-06-24T07:19:33.112Z</time>
      </trkpt>
      <trkpt lat="48.40837" lon="7.31268">
        <ele>739</ele>
        <time>2020-06-24T07:19:34.112Z</time>
      </trkpt>
      <trkpt lat="48.40838" lon="7.31269">
        <ele>739</ele>
        <time>2020-06-24T07:19:35.111Z</time>
      </trkpt>
      <trkpt lat="48.4084" lon="7.3127">
        <ele>739</ele>
        <time>2020-06-24T07:19:36.111Z</time>
      </trkpt>
      <trkpt lat="48.40841" lon="7.31272">
        <ele>740</ele>
        <time>2020-06-24T07:19:37.111Z</time>
      </trkpt>
      <trkpt lat="48.40842" lon="7.31273">
        <ele>740</ele>
        <time>2020-06-24T07:19:38.112Z</time>
      </trkpt>
      <trkpt lat="48.40843" lon="7.31275">
        <ele>740</ele>
        <time>2020-06-24T07:19:39.112Z</time>
      </trkpt>
      <trkpt lat="48.40844" lon="7.31276">
        <ele>741</ele>
        <time>2020-06-24T07:19:40.112Z</time>
      </trkpt>
      <trkpt lat="48.40845" lon="7.31278">
        <ele>741</ele>
        <time>2020-06-24T07:19:41.112Z</time>
      </trkpt>
      <trkpt lat="48.40846" lon="7.31279">
        <ele>742</ele>
        <time>2020-06-24T07:19:42.112Z</time>
      </trkpt>
      <trkpt lat="48.40846" lon="7.31281">
        <ele>743</ele>
        <time>2020-06-24T07:19:43.112Z</time>
      </trkpt>
      <trkpt lat="48.40847" lon="7.31282">
        <ele>744</ele>
        <time>2020-06-24T07:19:44.111Z</time>
      </trkpt>
      <trkpt lat="48.40848" lon="7.31284">
        <ele>745</ele>
        <time>2020-06-24T07:19:45.112Z</time>
      </trkpt>
      <trkpt lat="48.40849" lon="7.31285">
        <ele>745</ele>
        <time>2020-06-24T07:19:46.112Z</time>
      </trkpt>
      <trkpt lat="48.4085" lon="7.31287">
        <ele>745</ele>
        <time>2020-06-24T07:19:47.111Z</time>
      </trkpt>
      <trkpt lat="48.40851" lon="7.31288">
        <ele>745</ele>
        <time>2020-06-24T07:19:48.112Z</time>
      </trkpt>
      <trkpt lat="48.40852" lon="7.31289">
        <ele>745</ele>
        <time>2020-06-24T07:19:49.112Z</time>
      </trkpt>
      <trkpt lat="48.40854" lon="7.31291">
        <ele>745</ele>
        <time>2020-06-24T07:19:50.111Z</time>
      </trkpt>
      <trkpt lat="48.40855" lon="7.31292">
        <ele>744</ele>
        <time>2020-06-24T07:19:51.112Z</time>
      </trkpt>
      <trkpt lat="48.40856" lon="7.31293">
        <ele>744</ele>
        <time>2020-06-24T07:19:52.112Z</time>
      </trkpt>
      <trkpt lat="48.40857" lon="7.31294">
        <ele>744</ele>
        <time>2020-06-24T07:19:53.112Z</time>
      </trkpt>
      <trkpt lat="48.40858" lon="7.31296">
        <ele>744</ele>
        <time>2020-06-24T07:19:54.112Z</time>
      </trkpt>
      <trkpt lat="48.4086" lon="7.31298">
        <ele>743</ele>
        <time>2020-06-24T07:19:55.112Z</time>
      </trkpt>
      <trkpt lat="48.40861" lon="7.313">
        <ele>743</ele>
        <time>2020-06-24T07:19:56.112Z</time>
      </trkpt>
      <trkpt lat="48.40862" lon="7.31301">
        <ele>742</ele>
        <time>2020-06-24T07:19:57.112Z</time>
      </trkpt>
      <trkpt lat="48.40863" lon="7.31303">
        <ele>742</ele>
        <time>2020-06-24T07:19:58.111Z</time>
      </trkpt>
      <trkpt lat="48.40863" lon="7.31305">
        <ele>742</ele>
        <time>2020-06-24T07:19:59.112Z</time>
      </trkpt>
      <trkpt lat="48.40864" lon="7.31307">
        <ele>741</ele>
        <time>2020-06-24T07:20:00.112Z</time>
      </trkpt>
      <trkpt lat="48.40865" lon="7.31309">
        <ele>741</ele>
        <time>2020-06-24T07:20:01.112Z</time>
      </trkpt>
      <trkpt lat="48.40865" lon="7.31312">
        <ele>741</ele>
        <time>2020-06-24T07:20:02.112Z</time>
      </trkpt>
      <trkpt lat="48.40865" lon="7.31315">
        <ele>740</ele>
        <time>2020-06-24T07:20:03.111Z</time>
      </trkpt>
      <trkpt lat="48.40865" lon="7.31318">
        <ele>740</ele>
        <time>2020-06-24T07:20:04.112Z</time>
      </trkpt>
      <trkpt lat="48.40866" lon="7.3132">
        <ele>739</ele>
        <time>2020-06-24T07:20:05.112Z</time>
      </trkpt>
      <trkpt lat="48.40867" lon="7.31322">
        <ele>739</ele>
        <time>2020-06-24T07:20:06.111Z</time>
      </trkpt>
      <trkpt lat="48.40868" lon="7.31324">
        <ele>739</ele>
        <time>2020-06-24T07:20:07.111Z</time>
      </trkpt>
      <trkpt lat="48.40869" lon="7.31325">
        <ele>738</ele>
        <time>2020-06-24T07:20:08.112Z</time>
      </trkpt>
      <trkpt lat="48.40869" lon="7.31327">
        <ele>738</ele>
        <time>2020-06-24T07:20:09.111Z</time>
      </trkpt>
      <trkpt lat="48.4087" lon="7.31328">
        <ele>738</ele>
        <time>2020-06-24T07:20:10.111Z</time>
      </trkpt>
      <trkpt lat="48.40872" lon="7.31329">
        <ele>738</ele>
        <time>2020-06-24T07:20:11.112Z</time>
      </trkpt>
      <trkpt lat="48.40873" lon="7.3133">
        <ele>738</ele>
        <time>2020-06-24T07:20:12.112Z</time>
      </trkpt>
      <trkpt lat="48.40874" lon="7.31332">
        <ele>738</ele>
        <time>2020-06-24T07:20:13.112Z</time>
      </trkpt>
      <trkpt lat="48.40874" lon="7.31333">
        <ele>737</ele>
        <time>2020-06-24T07:20:14.112Z</time>
      </trkpt>
      <trkpt lat="48.40876" lon="7.31334">
        <ele>737</ele>
        <time>2020-06-24T07:20:15.111Z</time>
      </trkpt>
      <trkpt lat="48.40876" lon="7.31335">
        <ele>737</ele>
        <time>2020-06-24T07:20:16.112Z</time>
      </trkpt>
      <trkpt lat="48.40877" lon="7.31336">
        <ele>737</ele>
        <time>2020-06-24T07:20:17.112Z</time>
      </trkpt>
      <trkpt lat="48.40878" lon="7.31337">
        <ele>737</ele>
        <time>2020-06-24T07:20:18.112Z</time>
      </trkpt>
      <trkpt lat="48.40879" lon="7.31339">
        <ele>737</ele>
        <time>2020-06-24T07:20:19.112Z</time>
      </trkpt>
      <trkpt lat="48.4088" lon="7.3134">
        <ele>737</ele>
        <time>2020-06-24T07:20:20.112Z</time>
      </trkpt>
      <trkpt lat="48.40881" lon="7.31341">
        <ele>737</ele>
        <time>2020-06-24T07:20:21.111Z</time>
      </trkpt>
      <trkpt lat="48.40882" lon="7.31342">
        <ele>738</ele>
        <time>2020-06-24T07:20:22.111Z</time>
      </trkpt>
      <trkpt lat="48.40883" lon="7.31343">
        <ele>738</ele>
        <time>2020-06-24T07:20:23.112Z</time>
      </trkpt>
      <trkpt lat="48.40884" lon="7.31344">
        <ele>738</ele>
        <time>2020-06-24T07:20:24.112Z</time>
      </trkpt>
      <trkpt lat="48.40885" lon="7.31345">
        <ele>739</ele>
        <time>2020-06-24T07:20:25.112Z</time>
      </trkpt>
      <trkpt lat="48.40886" lon="7.31346">
        <ele>739</ele>
        <time>2020-06-24T07:20:26.112Z</time>
      </trkpt>
      <trkpt lat="48.40887" lon="7.31347">
        <ele>740</ele>
        <time>2020-06-24T07:20:27.111Z</time>
      </trkpt>
      <trkpt lat="48.40888" lon="7.31348">
        <ele>740</ele>
        <time>2020-06-24T07:20:28.112Z</time>
      </trkpt>
      <trkpt lat="48.40889" lon="7.31349">
        <ele>740</ele>
        <time>2020-06-24T07:20:29.112Z</time>
      </trkpt>
      <trkpt lat="48.4089" lon="7.3135">
        <ele>740</ele>
        <time>2020-06-24T07:20:30.112Z</time>
      </trkpt>
      <trkpt lat="48.4089" lon="7.31351">
        <ele>740</ele>
        <time>2020-06-24T07:20:31.112Z</time>
      </trkpt>
      <trkpt lat="48.40891" lon="7.31353">
        <ele>740</ele>
        <time>2020-06-24T07:20:32.112Z</time>
      </trkpt>
      <trkpt lat="48.40891" lon="7.31355">
        <ele>740</ele>
        <time>2020-06-24T07:20:33.112Z</time>
      </trkpt>
      <trkpt lat="48.40892" lon="7.31356">
        <ele>740</ele>
        <time>2020-06-24T07:20:34.112Z</time>
      </trkpt>
      <trkpt lat="48.40893" lon="7.31358">
        <ele>740</ele>
        <time>2020-06-24T07:20:35.112Z</time>
      </trkpt>
      <trkpt lat="48.40895" lon="7.31359">
        <ele>740</ele>
        <time>2020-06-24T07:20:36.112Z</time>
      </trkpt>
      <trkpt lat="48.40896" lon="7.31361">
        <ele>740</ele>
        <time>2020-06-24T07:20:37.112Z</time>
      </trkpt>
      <trkpt lat="48.40897" lon="7.31363">
        <ele>740</ele>
        <time>2020-06-24T07:20:38.112Z</time>
      </trkpt>
      <trkpt lat="48.40897" lon="7.31365">
        <ele>740</ele>
        <time>2020-06-24T07:20:39.112Z</time>
      </trkpt>
      <trkpt lat="48.40898" lon="7.31366">
        <ele>739</ele>
        <time>2020-06-24T07:20:40.111Z</time>
      </trkpt>
      <trkpt lat="48.40899" lon="7.31367">
        <ele>739</ele>
        <time>2020-06-24T07:20:41.112Z</time>
      </trkpt>
      <trkpt lat="48.40901" lon="7.3137">
        <ele>739</ele>
        <time>2020-06-24T07:20:42.111Z</time>
      </trkpt>
      <trkpt lat="48.40902" lon="7.31372">
        <ele>739</ele>
        <time>2020-06-24T07:20:43.111Z</time>
      </trkpt>
      <trkpt lat="48.40904" lon="7.31376">
        <ele>739</ele>
        <time>2020-06-24T07:20:44.111Z</time>
      </trkpt>
      <trkpt lat="48.40905" lon="7.31379">
        <ele>739</ele>
        <time>2020-06-24T07:20:45.112Z</time>
      </trkpt>
      <trkpt lat="48.40905" lon="7.31381">
        <ele>738</ele>
        <time>2020-06-24T07:20:46.112Z</time>
      </trkpt>
      <trkpt lat="48.40905" lon="7.31383">
        <ele>738</ele>
        <time>2020-06-24T07:20:47.111Z</time>
      </trkpt>
      <trkpt lat="48.40905" lon="7.31385">
        <ele>737</ele>
        <time>2020-06-24T07:20:48.112Z</time>
      </trkpt>
      <trkpt lat="48.40905" lon="7.31387">
        <ele>737</ele>
        <time>2020-06-24T07:20:49.111Z</time>
      </trkpt>
      <trkpt lat="48.40905" lon="7.31389">
        <ele>736</ele>
        <time>2020-06-24T07:20:50.112Z</time>
      </trkpt>
      <trkpt lat="48.40905" lon="7.31391">
        <ele>736</ele>
        <time>2020-06-24T07:20:51.111Z</time>
      </trkpt>
      <trkpt lat="48.40906" lon="7.31392">
        <ele>735</ele>
        <time>2020-06-24T07:20:52.112Z</time>
      </trkpt>
      <trkpt lat="48.40906" lon="7.31394">
        <ele>735</ele>
        <time>2020-06-24T07:20:53.112Z</time>
      </trkpt>
      <trkpt lat="48.40907" lon="7.31395">
        <ele>734</ele>
        <time>2020-06-24T07:20:54.112Z</time>
      </trkpt>
      <trkpt lat="48.40908" lon="7.31397">
        <ele>734</ele>
        <time>2020-06-24T07:20:55.111Z</time>
      </trkpt>
      <trkpt lat="48.4091" lon="7.31398">
        <ele>733</ele>
        <time>2020-06-24T07:20:56.112Z</time>
      </trkpt>
      <trkpt lat="48.4091" lon="7.314">
        <ele>733</ele>
        <time>2020-06-24T07:20:57.112Z</time>
      </trkpt>
      <trkpt lat="48.40911" lon="7.31402">
        <ele>733</ele>
        <time>2020-06-24T07:20:58.111Z</time>
      </trkpt>
      <trkpt lat="48.40911" lon="7.31404">
        <ele>733</ele>
        <time>2020-06-24T07:20:59.112Z</time>
      </trkpt>
      <trkpt lat="48.40912" lon="7.31406">
        <ele>733</ele>
        <time>2020-06-24T07:21:00.112Z</time>
      </trkpt>
      <trkpt lat="48.40913" lon="7.31408">
        <ele>733</ele>
        <time>2020-06-24T07:21:01.112Z</time>
      </trkpt>
      <trkpt lat="48.40914" lon="7.31409">
        <ele>734</ele>
        <time>2020-06-24T07:21:02.111Z</time>
      </trkpt>
      <trkpt lat="48.40914" lon="7.3141">
        <ele>734</ele>
        <time>2020-06-24T07:21:03.112Z</time>
      </trkpt>
      <trkpt lat="48.40915" lon="7.31412">
        <ele>735</ele>
        <time>2020-06-24T07:21:04.111Z</time>
      </trkpt>
      <trkpt lat="48.40916" lon="7.31413">
        <ele>736</ele>
        <time>2020-06-24T07:21:05.112Z</time>
      </trkpt>
      <trkpt lat="48.40916" lon="7.31415">
        <ele>736</ele>
        <time>2020-06-24T07:21:06.111Z</time>
      </trkpt>
      <trkpt lat="48.40917" lon="7.31417">
        <ele>736</ele>
        <time>2020-06-24T07:21:07.112Z</time>
      </trkpt>
      <trkpt lat="48.40917" lon="7.31418">
        <ele>736</ele>
        <time>2020-06-24T07:21:08.112Z</time>
      </trkpt>
      <trkpt lat="48.40918" lon="7.31419">
        <ele>737</ele>
        <time>2020-06-24T07:21:09.112Z</time>
      </trkpt>
      <trkpt lat="48.40918" lon="7.3142">
        <ele>737</ele>
        <time>2020-06-24T07:21:10.112Z</time>
      </trkpt>
      <trkpt lat="48.40919" lon="7.3142">
        <ele>738</ele>
        <time>2020-06-24T07:21:11.112Z</time>
      </trkpt>
      <trkpt lat="48.4092" lon="7.31421">
        <ele>738</ele>
        <time>2020-06-24T07:21:12.112Z</time>
      </trkpt>
      <trkpt lat="48.40921" lon="7.31422">
        <ele>739</ele>
        <time>2020-06-24T07:21:13.112Z</time>
      </trkpt>
      <trkpt lat="48.40922" lon="7.31423">
        <ele>740</ele>
        <time>2020-06-24T07:21:14.112Z</time>
      </trkpt>
      <trkpt lat="48.40922" lon="7.31424">
        <ele>741</ele>
        <time>2020-06-24T07:21:15.112Z</time>
      </trkpt>
      <trkpt lat="48.40923" lon="7.31424">
        <ele>741</ele>
        <time>2020-06-24T07:21:16.112Z</time>
      </trkpt>
      <trkpt lat="48.40923" lon="7.31425">
        <ele>741</ele>
        <time>2020-06-24T07:21:17.112Z</time>
      </trkpt>
      <trkpt lat="48.40924" lon="7.31426">
        <ele>741</ele>
        <time>2020-06-24T07:21:18.112Z</time>
      </trkpt>
      <trkpt lat="48.40925" lon="7.31427">
        <ele>741</ele>
        <time>2020-06-24T07:21:19.112Z</time>
      </trkpt>
      <trkpt lat="48.40925" lon="7.31428">
        <ele>741</ele>
        <time>2020-06-24T07:21:20.111Z</time>
      </trkpt>
      <trkpt lat="48.40926" lon="7.3143">
        <ele>740</ele>
        <time>2020-06-24T07:21:21.112Z</time>
      </trkpt>
      <trkpt lat="48.40927" lon="7.31433">
        <ele>740</ele>
        <time>2020-06-24T07:21:22.111Z</time>
      </trkpt>
      <trkpt lat="48.40928" lon="7.31436">
        <ele>739</ele>
        <time>2020-06-24T07:21:23.112Z</time>
      </trkpt>
      <trkpt lat="48.40929" lon="7.31438">
        <ele>739</ele>
        <time>2020-06-24T07:21:24.112Z</time>
      </trkpt>
      <trkpt lat="48.4093" lon="7.3144">
        <ele>738</ele>
        <time>2020-06-24T07:21:25.111Z</time>
      </trkpt>
      <trkpt lat="48.4093" lon="7.31441">
        <ele>738</ele>
        <time>2020-06-24T07:21:26.112Z</time>
      </trkpt>
      <trkpt lat="48.4093" lon="7.31443">
        <ele>738</ele>
        <time>2020-06-24T07:21:27.111Z</time>
      </trkpt>
      <trkpt lat="48.4093" lon="7.31444">
        <ele>738</ele>
        <time>2020-06-24T07:21:28.111Z</time>
      </trkpt>
      <trkpt lat="48.40931" lon="7.31446">
        <ele>738</ele>
        <time>2020-06-24T07:21:29.112Z</time>
      </trkpt>
      <trkpt lat="48.40932" lon="7.31447">
        <ele>738</ele>
        <time>2020-06-24T07:21:30.111Z</time>
      </trkpt>
      <trkpt lat="48.40932" lon="7.31448">
        <ele>738</ele>
        <time>2020-06-24T07:21:31.111Z</time>
      </trkpt>
      <trkpt lat="48.40933" lon="7.31449">
        <ele>738</ele>
        <time>2020-06-24T07:21:32.112Z</time>
      </trkpt>
      <trkpt lat="48.40933" lon="7.3145">
        <ele>738</ele>
        <time>2020-06-24T07:21:33.111Z</time>
      </trkpt>
      <trkpt lat="48.40933" lon="7.31451">
        <ele>737</ele>
        <time>2020-06-24T07:21:34.112Z</time>
      </trkpt>
      <trkpt lat="48.40934" lon="7.31452">
        <ele>737</ele>
        <time>2020-06-24T07:21:35.112Z</time>
      </trkpt>
      <trkpt lat="48.40934" lon="7.31453">
        <ele>737</ele>
        <time>2020-06-24T07:21:36.112Z</time>
      </trkpt>
      <trkpt lat="48.40934" lon="7.31454">
        <ele>737</ele>
        <time>2020-06-24T07:21:37.112Z</time>
      </trkpt>
      <trkpt lat="48.40935" lon="7.31455">
        <ele>737</ele>
        <time>2020-06-24T07:21:38.112Z</time>
      </trkpt>
      <trkpt lat="48.40935" lon="7.31455">
        <ele>736</ele>
        <time>2020-06-24T07:21:39.111Z</time>
      </trkpt>
      <trkpt lat="48.40936" lon="7.31456">
        <ele>736</ele>
        <time>2020-06-24T07:21:40.112Z</time>
      </trkpt>
      <trkpt lat="48.40938" lon="7.31461">
        <ele>735</ele>
        <time>2020-06-24T07:21:41.112Z</time>
      </trkpt>
      <trkpt lat="48.40939" lon="7.31463">
        <ele>735</ele>
        <time>2020-06-24T07:21:42.111Z</time>
      </trkpt>
      <trkpt lat="48.40941" lon="7.31464">
        <ele>736</ele>
        <time>2020-06-24T07:21:43.111Z</time>
      </trkpt>
      <trkpt lat="48.4094" lon="7.31464">
        <ele>736</ele>
        <time>2020-06-24T07:21:44.112Z</time>
      </trkpt>
      <trkpt lat="48.4094" lon="7.31464">
        <ele>736</ele>
        <time>2020-06-24T07:21:45.111Z</time>
      </trkpt>
      <trkpt lat="48.4094" lon="7.31464">
        <ele>736</ele>
        <time>2020-06-24T07:21:46.112Z</time>
      </trkpt>
      <trkpt lat="48.40942" lon="7.3147">
        <ele>730</ele>
        <time>2020-06-24T07:21:47.113Z</time>
      </trkpt>
      <trkpt lat="48.40946" lon="7.31481">
        <ele>739</ele>
        <time>2020-06-24T07:21:48.113Z</time>
      </trkpt>
      <trkpt lat="48.40951" lon="7.31483">
        <ele>741</ele>
        <time>2020-06-24T07:21:49.113Z</time>
      </trkpt>
      <trkpt lat="48.40952" lon="7.31484">
        <ele>742</ele>
        <time>2020-06-24T07:21:50.113Z</time>
      </trkpt>
      <trkpt lat="48.40952" lon="7.31484">
        <ele>742</ele>
        <time>2020-06-24T07:21:51.112Z</time>
      </trkpt>
      <trkpt lat="48.40954" lon="7.3149">
        <ele>743</ele>
        <time>2020-06-24T07:21:52.112Z</time>
      </trkpt>
      <trkpt lat="48.40955" lon="7.31492">
        <ele>743</ele>
        <time>2020-06-24T07:21:53.113Z</time>
      </trkpt>
      <trkpt lat="48.40956" lon="7.31494">
        <ele>743</ele>
        <time>2020-06-24T07:21:54.112Z</time>
      </trkpt>
      <trkpt lat="48.40957" lon="7.31497">
        <ele>742</ele>
        <time>2020-06-24T07:21:55.113Z</time>
      </trkpt>
      <trkpt lat="48.40958" lon="7.31499">
        <ele>742</ele>
        <time>2020-06-24T07:21:56.112Z</time>
      </trkpt>
      <trkpt lat="48.40959" lon="7.31501">
        <ele>742</ele>
        <time>2020-06-24T07:21:57.113Z</time>
      </trkpt>
      <trkpt lat="48.40959" lon="7.31503">
        <ele>742</ele>
        <time>2020-06-24T07:21:58.113Z</time>
      </trkpt>
      <trkpt lat="48.4096" lon="7.31506">
        <ele>742</ele>
        <time>2020-06-24T07:21:59.112Z</time>
      </trkpt>
      <trkpt lat="48.4096" lon="7.31508">
        <ele>742</ele>
        <time>2020-06-24T07:22:00.113Z</time>
      </trkpt>
      <trkpt lat="48.4096" lon="7.31509">
        <ele>742</ele>
        <time>2020-06-24T07:22:01.112Z</time>
      </trkpt>
      <trkpt lat="48.4096" lon="7.3151">
        <ele>743</ele>
        <time>2020-06-24T07:22:02.113Z</time>
      </trkpt>
      <trkpt lat="48.40961" lon="7.31512">
        <ele>743</ele>
        <time>2020-06-24T07:22:03.112Z</time>
      </trkpt>
      <trkpt lat="48.40961" lon="7.31513">
        <ele>743</ele>
        <time>2020-06-24T07:22:04.112Z</time>
      </trkpt>
      <trkpt lat="48.40961" lon="7.31514">
        <ele>744</ele>
        <time>2020-06-24T07:22:05.113Z</time>
      </trkpt>
      <trkpt lat="48.40961" lon="7.31517">
        <ele>744</ele>
        <time>2020-06-24T07:22:06.113Z</time>
      </trkpt>
      <trkpt lat="48.40962" lon="7.3152">
        <ele>744</ele>
        <time>2020-06-24T07:22:07.112Z</time>
      </trkpt>
      <trkpt lat="48.40962" lon="7.31522">
        <ele>744</ele>
        <time>2020-06-24T07:22:08.112Z</time>
      </trkpt>
      <trkpt lat="48.40962" lon="7.31524">
        <ele>743</ele>
        <time>2020-06-24T07:22:09.112Z</time>
      </trkpt>
      <trkpt lat="48.40963" lon="7.31526">
        <ele>743</ele>
        <time>2020-06-24T07:22:10.112Z</time>
      </trkpt>
      <trkpt lat="48.40963" lon="7.31527">
        <ele>743</ele>
        <time>2020-06-24T07:22:11.113Z</time>
      </trkpt>
      <trkpt lat="48.40963" lon="7.31529">
        <ele>743</ele>
        <time>2020-06-24T07:22:12.113Z</time>
      </trkpt>
      <trkpt lat="48.40962" lon="7.31531">
        <ele>743</ele>
        <time>2020-06-24T07:22:13.113Z</time>
      </trkpt>
      <trkpt lat="48.40962" lon="7.31532">
        <ele>742</ele>
        <time>2020-06-24T07:22:14.113Z</time>
      </trkpt>
      <trkpt lat="48.40962" lon="7.31533">
        <ele>742</ele>
        <time>2020-06-24T07:22:15.113Z</time>
      </trkpt>
      <trkpt lat="48.40961" lon="7.31535">
        <ele>742</ele>
        <time>2020-06-24T07:22:16.113Z</time>
      </trkpt>
      <trkpt lat="48.40962" lon="7.31537">
        <ele>742</ele>
        <time>2020-06-24T07:22:17.112Z</time>
      </trkpt>
      <trkpt lat="48.40962" lon="7.31538">
        <ele>742</ele>
        <time>2020-06-24T07:22:18.113Z</time>
      </trkpt>
      <trkpt lat="48.40962" lon="7.31541">
        <ele>741</ele>
        <time>2020-06-24T07:22:19.113Z</time>
      </trkpt>
      <trkpt lat="48.40962" lon="7.31542">
        <ele>741</ele>
        <time>2020-06-24T07:22:20.113Z</time>
      </trkpt>
      <trkpt lat="48.40963" lon="7.31544">
        <ele>741</ele>
        <time>2020-06-24T07:22:21.113Z</time>
      </trkpt>
      <trkpt lat="48.40963" lon="7.31545">
        <ele>740</ele>
        <time>2020-06-24T07:22:22.112Z</time>
      </trkpt>
      <trkpt lat="48.40963" lon="7.31546">
        <ele>740</ele>
        <time>2020-06-24T07:22:23.113Z</time>
      </trkpt>
      <trkpt lat="48.40963" lon="7.31548">
        <ele>740</ele>
        <time>2020-06-24T07:22:24.112Z</time>
      </trkpt>
      <trkpt lat="48.40963" lon="7.31549">
        <ele>740</ele>
        <time>2020-06-24T07:22:25.112Z</time>
      </trkpt>
      <trkpt lat="48.40963" lon="7.31551">
        <ele>740</ele>
        <time>2020-06-24T07:22:26.113Z</time>
      </trkpt>
      <trkpt lat="48.40963" lon="7.31553">
        <ele>740</ele>
        <time>2020-06-24T07:22:27.113Z</time>
      </trkpt>
      <trkpt lat="48.40963" lon="7.31556">
        <ele>740</ele>
        <time>2020-06-24T07:22:28.113Z</time>
      </trkpt>
      <trkpt lat="48.40962" lon="7.31558">
        <ele>740</ele>
        <time>2020-06-24T07:22:29.113Z</time>
      </trkpt>
      <trkpt lat="48.40962" lon="7.31561">
        <ele>740</ele>
        <time>2020-06-24T07:22:30.113Z</time>
      </trkpt>
      <trkpt lat="48.40962" lon="7.31563">
        <ele>740</ele>
        <time>2020-06-24T07:22:31.113Z</time>
      </trkpt>
      <trkpt lat="48.40963" lon="7.31565">
        <ele>739</ele>
        <time>2020-06-24T07:22:32.112Z</time>
      </trkpt>
      <trkpt lat="48.40963" lon="7.31567">
        <ele>739</ele>
        <time>2020-06-24T07:22:33.113Z</time>
      </trkpt>
      <trkpt lat="48.40963" lon="7.31569">
        <ele>739</ele>
        <time>2020-06-24T07:22:34.112Z</time>
      </trkpt>
      <trkpt lat="48.40963" lon="7.31571">
        <ele>738</ele>
        <time>2020-06-24T07:22:35.113Z</time>
      </trkpt>
      <trkpt lat="48.40963" lon="7.31573">
        <ele>737</ele>
        <time>2020-06-24T07:22:36.113Z</time>
      </trkpt>
      <trkpt lat="48.40963" lon="7.31574">
        <ele>737</ele>
        <time>2020-06-24T07:22:37.113Z</time>
      </trkpt>
      <trkpt lat="48.40963" lon="7.31576">
        <ele>736</ele>
        <time>2020-06-24T07:22:38.112Z</time>
      </trkpt>
      <trkpt lat="48.40964" lon="7.31578">
        <ele>736</ele>
        <time>2020-06-24T07:22:39.113Z</time>
      </trkpt>
      <trkpt lat="48.40964" lon="7.3158">
        <ele>736</ele>
        <time>2020-06-24T07:22:40.113Z</time>
      </trkpt>
      <trkpt lat="48.40965" lon="7.31582">
        <ele>735</ele>
        <time>2020-06-24T07:22:41.113Z</time>
      </trkpt>
      <trkpt lat="48.40965" lon="7.31583">
        <ele>735</ele>
        <time>2020-06-24T07:22:42.112Z</time>
      </trkpt>
      <trkpt lat="48.40965" lon="7.31584">
        <ele>735</ele>
        <time>2020-06-24T07:22:43.113Z</time>
      </trkpt>
      <trkpt lat="48.40964" lon="7.31585">
        <ele>736</ele>
        <time>2020-06-24T07:22:44.113Z</time>
      </trkpt>
      <trkpt lat="48.40964" lon="7.31587">
        <ele>736</ele>
        <time>2020-06-24T07:22:45.113Z</time>
      </trkpt>
      <trkpt lat="48.40964" lon="7.31588">
        <ele>736</ele>
        <time>2020-06-24T07:22:46.113Z</time>
      </trkpt>
      <trkpt lat="48.40966" lon="7.31589">
        <ele>736</ele>
        <time>2020-06-24T07:22:47.112Z</time>
      </trkpt>
      <trkpt lat="48.40967" lon="7.3159">
        <ele>736</ele>
        <time>2020-06-24T07:22:48.113Z</time>
      </trkpt>
      <trkpt lat="48.40968" lon="7.3159">
        <ele>736</ele>
        <time>2020-06-24T07:22:49.112Z</time>
      </trkpt>
      <trkpt lat="48.40968" lon="7.31591">
        <ele>736</ele>
        <time>2020-06-24T07:22:50.112Z</time>
      </trkpt>
      <trkpt lat="48.4097" lon="7.31592">
        <ele>736</ele>
        <time>2020-06-24T07:22:51.112Z</time>
      </trkpt>
      <trkpt lat="48.4097" lon="7.31592">
        <ele>736</ele>
        <time>2020-06-24T07:22:52.113Z</time>
      </trkpt>
      <trkpt lat="48.40972" lon="7.31592">
        <ele>736</ele>
        <time>2020-06-24T07:22:53.113Z</time>
      </trkpt>
      <trkpt lat="48.40973" lon="7.31593">
        <ele>736</ele>
        <time>2020-06-24T07:22:54.113Z</time>
      </trkpt>
      <trkpt lat="48.40973" lon="7.31593">
        <ele>736</ele>
        <time>2020-06-24T07:22:55.113Z</time>
      </trkpt>
      <trkpt lat="48.40973" lon="7.31594">
        <ele>736</ele>
        <time>2020-06-24T07:22:56.112Z</time>
      </trkpt>
      <trkpt lat="48.40974" lon="7.31595">
        <ele>735</ele>
        <time>2020-06-24T07:22:57.113Z</time>
      </trkpt>
      <trkpt lat="48.40976" lon="7.31596">
        <ele>735</ele>
        <time>2020-06-24T07:22:58.113Z</time>
      </trkpt>
      <trkpt lat="48.40977" lon="7.31597">
        <ele>735</ele>
        <time>2020-06-24T07:22:59.113Z</time>
      </trkpt>
      <trkpt lat="48.40979" lon="7.31597">
        <ele>735</ele>
        <time>2020-06-24T07:23:00.113Z</time>
      </trkpt>
      <trkpt lat="48.4098" lon="7.31596">
        <ele>735</ele>
        <time>2020-06-24T07:23:01.113Z</time>
      </trkpt>
      <trkpt lat="48.40981" lon="7.31596">
        <ele>735</ele>
        <time>2020-06-24T07:23:02.113Z</time>
      </trkpt>
      <trkpt lat="48.40981" lon="7.31597">
        <ele>735</ele>
        <time>2020-06-24T07:23:03.113Z</time>
      </trkpt>
      <trkpt lat="48.40983" lon="7.31597">
        <ele>735</ele>
        <time>2020-06-24T07:23:04.113Z</time>
      </trkpt>
      <trkpt lat="48.40984" lon="7.31598">
        <ele>734</ele>
        <time>2020-06-24T07:23:05.113Z</time>
      </trkpt>
      <trkpt lat="48.40985" lon="7.31598">
        <ele>734</ele>
        <time>2020-06-24T07:23:06.112Z</time>
      </trkpt>
      <trkpt lat="48.40987" lon="7.31599">
        <ele>734</ele>
        <time>2020-06-24T07:23:07.113Z</time>
      </trkpt>
      <trkpt lat="48.40988" lon="7.31599">
        <ele>734</ele>
        <time>2020-06-24T07:23:08.113Z</time>
      </trkpt>
      <trkpt lat="48.40989" lon="7.316">
        <ele>734</ele>
        <time>2020-06-24T07:23:09.112Z</time>
      </trkpt>
      <trkpt lat="48.40991" lon="7.316">
        <ele>734</ele>
        <time>2020-06-24T07:23:10.113Z</time>
      </trkpt>
      <trkpt lat="48.40993" lon="7.316">
        <ele>735</ele>
        <time>2020-06-24T07:23:11.113Z</time>
      </trkpt>
      <trkpt lat="48.40994" lon="7.31602">
        <ele>735</ele>
        <time>2020-06-24T07:23:12.113Z</time>
      </trkpt>
      <trkpt lat="48.40996" lon="7.31603">
        <ele>735</ele>
        <time>2020-06-24T07:23:13.113Z</time>
      </trkpt>
      <trkpt lat="48.40998" lon="7.31604">
        <ele>735</ele>
        <time>2020-06-24T07:23:14.113Z</time>
      </trkpt>
      <trkpt lat="48.41001" lon="7.31605">
        <ele>736</ele>
        <time>2020-06-24T07:23:15.113Z</time>
      </trkpt>
      <trkpt lat="48.41004" lon="7.31607">
        <ele>736</ele>
        <time>2020-06-24T07:23:16.113Z</time>
      </trkpt>
      <trkpt lat="48.41005" lon="7.31608">
        <ele>737</ele>
        <time>2020-06-24T07:23:17.112Z</time>
      </trkpt>
      <trkpt lat="48.41007" lon="7.31608">
        <ele>737</ele>
        <time>2020-06-24T07:23:18.113Z</time>
      </trkpt>
      <trkpt lat="48.41008" lon="7.31609">
        <ele>737</ele>
        <time>2020-06-24T07:23:19.113Z</time>
      </trkpt>
      <trkpt lat="48.41009" lon="7.3161">
        <ele>737</ele>
        <time>2020-06-24T07:23:20.113Z</time>
      </trkpt>
      <trkpt lat="48.4101" lon="7.31613">
        <ele>737</ele>
        <time>2020-06-24T07:23:21.113Z</time>
      </trkpt>
      <trkpt lat="48.41011" lon="7.31615">
        <ele>737</ele>
        <time>2020-06-24T07:23:22.113Z</time>
      </trkpt>
      <trkpt lat="48.41011" lon="7.31616">
        <ele>737</ele>
        <time>2020-06-24T07:23:23.112Z</time>
      </trkpt>
      <trkpt lat="48.41013" lon="7.31617">
        <ele>737</ele>
        <time>2020-06-24T07:23:24.113Z</time>
      </trkpt>
      <trkpt lat="48.41014" lon="7.31617">
        <ele>737</ele>
        <time>2020-06-24T07:23:25.112Z</time>
      </trkpt>
      <trkpt lat="48.41015" lon="7.31618">
        <ele>738</ele>
        <time>2020-06-24T07:23:26.113Z</time>
      </trkpt>
      <trkpt lat="48.41016" lon="7.31618">
        <ele>738</ele>
        <time>2020-06-24T07:23:27.113Z</time>
      </trkpt>
      <trkpt lat="48.41018" lon="7.31619">
        <ele>738</ele>
        <time>2020-06-24T07:23:28.113Z</time>
      </trkpt>
      <trkpt lat="48.41019" lon="7.31619">
        <ele>739</ele>
        <time>2020-06-24T07:23:29.113Z</time>
      </trkpt>
      <trkpt lat="48.41021" lon="7.31619">
        <ele>739</ele>
        <time>2020-06-24T07:23:30.113Z</time>
      </trkpt>
      <trkpt lat="48.41022" lon="7.3162">
        <ele>740</ele>
        <time>2020-06-24T07:23:31.113Z</time>
      </trkpt>
      <trkpt lat="48.41024" lon="7.3162">
        <ele>740</ele>
        <time>2020-06-24T07:23:32.113Z</time>
      </trkpt>
      <trkpt lat="48.41026" lon="7.31621">
        <ele>741</ele>
        <time>2020-06-24T07:23:33.113Z</time>
      </trkpt>
      <trkpt lat="48.41027" lon="7.31623">
        <ele>742</ele>
        <time>2020-06-24T07:23:34.113Z</time>
      </trkpt>
      <trkpt lat="48.41029" lon="7.31624">
        <ele>742</ele>
        <time>2020-06-24T07:23:35.113Z</time>
      </trkpt>
      <trkpt lat="48.4103" lon="7.31625">
        <ele>742</ele>
        <time>2020-06-24T07:23:36.113Z</time>
      </trkpt>
      <trkpt lat="48.41031" lon="7.31625">
        <ele>743</ele>
        <time>2020-06-24T07:23:37.113Z</time>
      </trkpt>
      <trkpt lat="48.41032" lon="7.31626">
        <ele>743</ele>
        <time>2020-06-24T07:23:38.113Z</time>
      </trkpt>
      <trkpt lat="48.41033" lon="7.31626">
        <ele>743</ele>
        <time>2020-06-24T07:23:39.113Z</time>
      </trkpt>
      <trkpt lat="48.41034" lon="7.31627">
        <ele>744</ele>
        <time>2020-06-24T07:23:40.113Z</time>
      </trkpt>
      <trkpt lat="48.41035" lon="7.31627">
        <ele>745</ele>
        <time>2020-06-24T07:23:41.112Z</time>
      </trkpt>
      <trkpt lat="48.41037" lon="7.31628">
        <ele>746</ele>
        <time>2020-06-24T07:23:42.113Z</time>
      </trkpt>
      <trkpt lat="48.41038" lon="7.31628">
        <ele>748</ele>
        <time>2020-06-24T07:23:43.113Z</time>
      </trkpt>
      <trkpt lat="48.41039" lon="7.31629">
        <ele>749</ele>
        <time>2020-06-24T07:23:44.112Z</time>
      </trkpt>
      <trkpt lat="48.4104" lon="7.3163">
        <ele>750</ele>
        <time>2020-06-24T07:23:45.112Z</time>
      </trkpt>
      <trkpt lat="48.41041" lon="7.31631">
        <ele>750</ele>
        <time>2020-06-24T07:23:46.112Z</time>
      </trkpt>
      <trkpt lat="48.41042" lon="7.31631">
        <ele>750</ele>
        <time>2020-06-24T07:23:47.113Z</time>
      </trkpt>
      <trkpt lat="48.41044" lon="7.31632">
        <ele>751</ele>
        <time>2020-06-24T07:23:48.112Z</time>
      </trkpt>
      <trkpt lat="48.41045" lon="7.31633">
        <ele>751</ele>
        <time>2020-06-24T07:23:49.112Z</time>
      </trkpt>
      <trkpt lat="48.41046" lon="7.31633">
        <ele>751</ele>
        <time>2020-06-24T07:23:50.112Z</time>
      </trkpt>
      <trkpt lat="48.41047" lon="7.31634">
        <ele>752</ele>
        <time>2020-06-24T07:23:51.113Z</time>
      </trkpt>
      <trkpt lat="48.41048" lon="7.31635">
        <ele>752</ele>
        <time>2020-06-24T07:23:52.113Z</time>
      </trkpt>
      <trkpt lat="48.41049" lon="7.31635">
        <ele>752</ele>
        <time>2020-06-24T07:23:53.113Z</time>
      </trkpt>
      <trkpt lat="48.41051" lon="7.31636">
        <ele>752</ele>
        <time>2020-06-24T07:23:54.113Z</time>
      </trkpt>
      <trkpt lat="48.41052" lon="7.31637">
        <ele>752</ele>
        <time>2020-06-24T07:23:55.112Z</time>
      </trkpt>
      <trkpt lat="48.41054" lon="7.31637">
        <ele>752</ele>
        <time>2020-06-24T07:23:56.113Z</time>
      </trkpt>
      <trkpt lat="48.41053" lon="7.31637">
        <ele>753</ele>
        <time>2020-06-24T07:23:57.113Z</time>
      </trkpt>
      <trkpt lat="48.41053" lon="7.31637">
        <ele>753</ele>
        <time>2020-06-24T07:23:58.112Z</time>
      </trkpt>
      <trkpt lat="48.41053" lon="7.31637">
        <ele>754</ele>
        <time>2020-06-24T07:23:59.113Z</time>
      </trkpt>
      <trkpt lat="48.41051" lon="7.31637">
        <ele>754</ele>
        <time>2020-06-24T07:24:00.113Z</time>
      </trkpt>
      <trkpt lat="48.41051" lon="7.31636">
        <ele>753</ele>
        <time>2020-06-24T07:24:01.113Z</time>
      </trkpt>
      <trkpt lat="48.4105" lon="7.31636">
        <ele>753</ele>
        <time>2020-06-24T07:24:02.113Z</time>
      </trkpt>
      <trkpt lat="48.41049" lon="7.31636">
        <ele>752</ele>
        <time>2020-06-24T07:24:03.113Z</time>
      </trkpt>
      <trkpt lat="48.41049" lon="7.31636">
        <ele>752</ele>
        <time>2020-06-24T07:24:04.113Z</time>
      </trkpt>
      <trkpt lat="48.41048" lon="7.31636">
        <ele>752</ele>
        <time>2020-06-24T07:24:05.113Z</time>
      </trkpt>
      <trkpt lat="48.41047" lon="7.31635">
        <ele>751</ele>
        <time>2020-06-24T07:24:06.113Z</time>
      </trkpt>
      <trkpt lat="48.41047" lon="7.31635">
        <ele>751</ele>
        <time>2020-06-24T07:24:07.113Z</time>
      </trkpt>
      <trkpt lat="48.41046" lon="7.31634">
        <ele>750</ele>
        <time>2020-06-24T07:24:08.113Z</time>
      </trkpt>
      <trkpt lat="48.41045" lon="7.31634">
        <ele>750</ele>
        <time>2020-06-24T07:24:09.113Z</time>
      </trkpt>
      <trkpt lat="48.41044" lon="7.31633">
        <ele>749</ele>
        <time>2020-06-24T07:24:10.112Z</time>
      </trkpt>
      <trkpt lat="48.41043" lon="7.31633">
        <ele>748</ele>
        <time>2020-06-24T07:24:11.112Z</time>
      </trkpt>
      <trkpt lat="48.41042" lon="7.31632">
        <ele>748</ele>
        <time>2020-06-24T07:24:12.113Z</time>
      </trkpt>
      <trkpt lat="48.41041" lon="7.31632">
        <ele>747</ele>
        <time>2020-06-24T07:24:13.113Z</time>
      </trkpt>
      <trkpt lat="48.4104" lon="7.31631">
        <ele>746</ele>
        <time>2020-06-24T07:24:14.112Z</time>
      </trkpt>
      <trkpt lat="48.41039" lon="7.3163">
        <ele>746</ele>
        <time>2020-06-24T07:24:15.113Z</time>
      </trkpt>
      <trkpt lat="48.41039" lon="7.31629">
        <ele>745</ele>
        <time>2020-06-24T07:24:16.113Z</time>
      </trkpt>
      <trkpt lat="48.41039" lon="7.31627">
        <ele>744</ele>
        <time>2020-06-24T07:24:17.113Z</time>
      </trkpt>
      <trkpt lat="48.41038" lon="7.31626">
        <ele>743</ele>
        <time>2020-06-24T07:24:18.113Z</time>
      </trkpt>
      <trkpt lat="48.41038" lon="7.31625">
        <ele>742</ele>
        <time>2020-06-24T07:24:19.113Z</time>
      </trkpt>
      <trkpt lat="48.41038" lon="7.31624">
        <ele>742</ele>
        <time>2020-06-24T07:24:20.113Z</time>
      </trkpt>
      <trkpt lat="48.41038" lon="7.31622">
        <ele>742</ele>
        <time>2020-06-24T07:24:21.112Z</time>
      </trkpt>
      <trkpt lat="48.41038" lon="7.31621">
        <ele>742</ele>
        <time>2020-06-24T07:24:22.113Z</time>
      </trkpt>
      <trkpt lat="48.41038" lon="7.31619">
        <ele>742</ele>
        <time>2020-06-24T07:24:23.113Z</time>
      </trkpt>
      <trkpt lat="48.41037" lon="7.31618">
        <ele>741</ele>
        <time>2020-06-24T07:24:24.113Z</time>
      </trkpt>
      <trkpt lat="48.41037" lon="7.31617">
        <ele>741</ele>
        <time>2020-06-24T07:24:25.113Z</time>
      </trkpt>
      <trkpt lat="48.41037" lon="7.31615">
        <ele>741</ele>
        <time>2020-06-24T07:24:26.113Z</time>
      </trkpt>
      <trkpt lat="48.41037" lon="7.31614">
        <ele>741</ele>
        <time>2020-06-24T07:24:27.113Z</time>
      </trkpt>
      <trkpt lat="48.41037" lon="7.31613">
        <ele>742</ele>
        <time>2020-06-24T07:24:28.113Z</time>
      </trkpt>
      <trkpt lat="48.41038" lon="7.31611">
        <ele>742</ele>
        <time>2020-06-24T07:24:29.113Z</time>
      </trkpt>
      <trkpt lat="48.41038" lon="7.31609">
        <ele>743</ele>
        <time>2020-06-24T07:24:30.112Z</time>
      </trkpt>
      <trkpt lat="48.41038" lon="7.31606">
        <ele>743</ele>
        <time>2020-06-24T07:24:31.113Z</time>
      </trkpt>
      <trkpt lat="48.41038" lon="7.31603">
        <ele>744</ele>
        <time>2020-06-24T07:24:32.112Z</time>
      </trkpt>
      <trkpt lat="48.41038" lon="7.31601">
        <ele>744</ele>
        <time>2020-06-24T07:24:33.113Z</time>
      </trkpt>
      <trkpt lat="48.41038" lon="7.316">
        <ele>744</ele>
        <time>2020-06-24T07:24:34.113Z</time>
      </trkpt>
      <trkpt lat="48.41037" lon="7.31599">
        <ele>745</ele>
        <time>2020-06-24T07:24:35.113Z</time>
      </trkpt>
      <trkpt lat="48.41037" lon="7.31597">
        <ele>745</ele>
        <time>2020-06-24T07:24:36.113Z</time>
      </trkpt>
      <trkpt lat="48.41038" lon="7.31595">
        <ele>746</ele>
        <time>2020-06-24T07:24:37.113Z</time>
      </trkpt>
      <trkpt lat="48.41039" lon="7.31592">
        <ele>746</ele>
        <time>2020-06-24T07:24:38.113Z</time>
      </trkpt>
      <trkpt lat="48.41039" lon="7.3159">
        <ele>746</ele>
        <time>2020-06-24T07:24:39.113Z</time>
      </trkpt>
      <trkpt lat="48.41039" lon="7.31588">
        <ele>747</ele>
        <time>2020-06-24T07:24:40.113Z</time>
      </trkpt>
      <trkpt lat="48.41039" lon="7.31587">
        <ele>747</ele>
        <time>2020-06-24T07:24:41.113Z</time>
      </trkpt>
      <trkpt lat="48.4104" lon="7.31586">
        <ele>748</ele>
        <time>2020-06-24T07:24:42.112Z</time>
      </trkpt>
      <trkpt lat="48.4104" lon="7.31585">
        <ele>748</ele>
        <time>2020-06-24T07:24:43.113Z</time>
      </trkpt>
      <trkpt lat="48.4104" lon="7.31583">
        <ele>748</ele>
        <time>2020-06-24T07:24:44.113Z</time>
      </trkpt>
      <trkpt lat="48.4104" lon="7.3158">
        <ele>749</ele>
        <time>2020-06-24T07:24:45.113Z</time>
      </trkpt>
      <trkpt lat="48.4104" lon="7.31578">
        <ele>749</ele>
        <time>2020-06-24T07:24:46.112Z</time>
      </trkpt>
      <trkpt lat="48.4104" lon="7.31576">
        <ele>750</ele>
        <time>2020-06-24T07:24:47.113Z</time>
      </trkpt>
      <trkpt lat="48.4104" lon="7.31574">
        <ele>750</ele>
        <time>2020-06-24T07:24:48.113Z</time>
      </trkpt>
      <trkpt lat="48.4104" lon="7.31572">
        <ele>751</ele>
        <time>2020-06-24T07:24:49.113Z</time>
      </trkpt>
      <trkpt lat="48.4104" lon="7.3157">
        <ele>751</ele>
        <time>2020-06-24T07:24:50.113Z</time>
      </trkpt>
      <trkpt lat="48.4104" lon="7.31569">
        <ele>752</ele>
        <time>2020-06-24T07:24:51.113Z</time>
      </trkpt>
      <trkpt lat="48.4104" lon="7.31567">
        <ele>752</ele>
        <time>2020-06-24T07:24:52.113Z</time>
      </trkpt>
      <trkpt lat="48.4104" lon="7.31565">
        <ele>751</ele>
        <time>2020-06-24T07:24:53.113Z</time>
      </trkpt>
      <trkpt lat="48.41041" lon="7.31564">
        <ele>751</ele>
        <time>2020-06-24T07:24:54.113Z</time>
      </trkpt>
      <trkpt lat="48.41042" lon="7.31561">
        <ele>752</ele>
        <time>2020-06-24T07:24:55.112Z</time>
      </trkpt>
      <trkpt lat="48.41043" lon="7.31558">
        <ele>752</ele>
        <time>2020-06-24T07:24:56.112Z</time>
      </trkpt>
      <trkpt lat="48.41043" lon="7.31555">
        <ele>752</ele>
        <time>2020-06-24T07:24:57.113Z</time>
      </trkpt>
      <trkpt lat="48.41043" lon="7.31554">
        <ele>752</ele>
        <time>2020-06-24T07:24:58.113Z</time>
      </trkpt>
      <trkpt lat="48.41043" lon="7.31552">
        <ele>751</ele>
        <time>2020-06-24T07:24:59.113Z</time>
      </trkpt>
      <trkpt lat="48.41043" lon="7.3155">
        <ele>751</ele>
        <time>2020-06-24T07:25:00.113Z</time>
      </trkpt>
      <trkpt lat="48.41043" lon="7.31548">
        <ele>751</ele>
        <time>2020-06-24T07:25:01.112Z</time>
      </trkpt>
      <trkpt lat="48.41043" lon="7.31547">
        <ele>751</ele>
        <time>2020-06-24T07:25:02.113Z</time>
      </trkpt>
      <trkpt lat="48.41043" lon="7.31545">
        <ele>751</ele>
        <time>2020-06-24T07:25:03.113Z</time>
      </trkpt>
      <trkpt lat="48.41044" lon="7.31542">
        <ele>751</ele>
        <time>2020-06-24T07:25:04.113Z</time>
      </trkpt>
      <trkpt lat="48.41044" lon="7.3154">
        <ele>750</ele>
        <time>2020-06-24T07:25:05.112Z</time>
      </trkpt>
      <trkpt lat="48.41045" lon="7.31538">
        <ele>750</ele>
        <time>2020-06-24T07:25:06.113Z</time>
      </trkpt>
      <trkpt lat="48.41046" lon="7.31536">
        <ele>750</ele>
        <time>2020-06-24T07:25:07.113Z</time>
      </trkpt>
      <trkpt lat="48.41046" lon="7.31534">
        <ele>750</ele>
        <time>2020-06-24T07:25:08.113Z</time>
      </trkpt>
      <trkpt lat="48.41046" lon="7.31533">
        <ele>750</ele>
        <time>2020-06-24T07:25:09.112Z</time>
      </trkpt>
      <trkpt lat="48.41047" lon="7.31531">
        <ele>750</ele>
        <time>2020-06-24T07:25:10.113Z</time>
      </trkpt>
      <trkpt lat="48.41047" lon="7.31529">
        <ele>750</ele>
        <time>2020-06-24T07:25:11.113Z</time>
      </trkpt>
      <trkpt lat="48.41048" lon="7.31528">
        <ele>750</ele>
        <time>2020-06-24T07:25:12.113Z</time>
      </trkpt>
      <trkpt lat="48.41048" lon="7.31526">
        <ele>750</ele>
        <time>2020-06-24T07:25:13.113Z</time>
      </trkpt>
      <trkpt lat="48.41049" lon="7.31525">
        <ele>750</ele>
        <time>2020-06-24T07:25:14.113Z</time>
      </trkpt>
      <trkpt lat="48.4105" lon="7.31523">
        <ele>750</ele>
        <time>2020-06-24T07:25:15.113Z</time>
      </trkpt>
      <trkpt lat="48.41051" lon="7.31521">
        <ele>750</ele>
        <time>2020-06-24T07:25:16.113Z</time>
      </trkpt>
      <trkpt lat="48.41052" lon="7.3152">
        <ele>750</ele>
        <time>2020-06-24T07:25:17.112Z</time>
      </trkpt>
      <trkpt lat="48.41053" lon="7.31519">
        <ele>750</ele>
        <time>2020-06-24T07:25:18.112Z</time>
      </trkpt>
      <trkpt lat="48.41054" lon="7.31517">
        <ele>750</ele>
        <time>2020-06-24T07:25:19.112Z</time>
      </trkpt>
      <trkpt lat="48.41056" lon="7.31513">
        <ele>750</ele>
        <time>2020-06-24T07:25:20.112Z</time>
      </trkpt>
      <trkpt lat="48.41057" lon="7.3151">
        <ele>750</ele>
        <time>2020-06-24T07:25:21.113Z</time>
      </trkpt>
      <trkpt lat="48.41057" lon="7.31507">
        <ele>750</ele>
        <time>2020-06-24T07:25:22.112Z</time>
      </trkpt>
      <trkpt lat="48.41058" lon="7.31505">
        <ele>750</ele>
        <time>2020-06-24T07:25:23.113Z</time>
      </trkpt>
      <trkpt lat="48.41058" lon="7.31503">
        <ele>751</ele>
        <time>2020-06-24T07:25:24.113Z</time>
      </trkpt>
      <trkpt lat="48.41059" lon="7.31502">
        <ele>751</ele>
        <time>2020-06-24T07:25:25.113Z</time>
      </trkpt>
      <trkpt lat="48.4106" lon="7.31499">
        <ele>752</ele>
        <time>2020-06-24T07:25:26.113Z</time>
      </trkpt>
      <trkpt lat="48.4106" lon="7.31498">
        <ele>752</ele>
        <time>2020-06-24T07:25:27.112Z</time>
      </trkpt>
      <trkpt lat="48.4106" lon="7.31497">
        <ele>753</ele>
        <time>2020-06-24T07:25:28.113Z</time>
      </trkpt>
      <trkpt lat="48.4106" lon="7.31496">
        <ele>754</ele>
        <time>2020-06-24T07:25:29.112Z</time>
      </trkpt>
      <trkpt lat="48.4106" lon="7.31495">
        <ele>754</ele>
        <time>2020-06-24T07:25:30.113Z</time>
      </trkpt>
      <trkpt lat="48.4106" lon="7.31494">
        <ele>755</ele>
        <time>2020-06-24T07:25:31.113Z</time>
      </trkpt>
      <trkpt lat="48.4106" lon="7.31493">
        <ele>755</ele>
        <time>2020-06-24T07:25:32.113Z</time>
      </trkpt>
      <trkpt lat="48.4106" lon="7.31492">
        <ele>755</ele>
        <time>2020-06-24T07:25:33.113Z</time>
      </trkpt>
      <trkpt lat="48.41059" lon="7.31491">
        <ele>754</ele>
        <time>2020-06-24T07:25:34.113Z</time>
      </trkpt>
      <trkpt lat="48.41059" lon="7.3149">
        <ele>754</ele>
        <time>2020-06-24T07:25:35.113Z</time>
      </trkpt>
      <trkpt lat="48.41058" lon="7.31488">
        <ele>753</ele>
        <time>2020-06-24T07:25:36.113Z</time>
      </trkpt>
      <trkpt lat="48.41057" lon="7.31487">
        <ele>753</ele>
        <time>2020-06-24T07:25:37.113Z</time>
      </trkpt>
      <trkpt lat="48.41057" lon="7.31486">
        <ele>753</ele>
        <time>2020-06-24T07:25:38.113Z</time>
      </trkpt>
      <trkpt lat="48.41057" lon="7.31484">
        <ele>752</ele>
        <time>2020-06-24T07:25:39.113Z</time>
      </trkpt>
      <trkpt lat="48.41056" lon="7.31483">
        <ele>752</ele>
        <time>2020-06-24T07:25:40.113Z</time>
      </trkpt>
      <trkpt lat="48.41056" lon="7.31482">
        <ele>752</ele>
        <time>2020-06-24T07:25:41.113Z</time>
      </trkpt>
      <trkpt lat="48.41055" lon="7.3148">
        <ele>752</ele>
        <time>2020-06-24T07:25:42.112Z</time>
      </trkpt>
      <trkpt lat="48.41054" lon="7.31479">
        <ele>752</ele>
        <time>2020-06-24T07:25:43.113Z</time>
      </trkpt>
      <trkpt lat="48.41054" lon="7.31477">
        <ele>752</ele>
        <time>2020-06-24T07:25:44.113Z</time>
      </trkpt>
      <trkpt lat="48.41054" lon="7.31476">
        <ele>753</ele>
        <time>2020-06-24T07:25:45.112Z</time>
      </trkpt>
      <trkpt lat="48.41053" lon="7.31475">
        <ele>753</ele>
        <time>2020-06-24T07:25:46.113Z</time>
      </trkpt>
      <trkpt lat="48.41053" lon="7.31473">
        <ele>753</ele>
        <time>2020-06-24T07:25:47.112Z</time>
      </trkpt>
      <trkpt lat="48.41053" lon="7.31471">
        <ele>753</ele>
        <time>2020-06-24T07:25:48.113Z</time>
      </trkpt>
      <trkpt lat="48.41053" lon="7.31467">
        <ele>753</ele>
        <time>2020-06-24T07:25:49.113Z</time>
      </trkpt>
      <trkpt lat="48.41053" lon="7.31464">
        <ele>754</ele>
        <time>2020-06-24T07:25:50.112Z</time>
      </trkpt>
      <trkpt lat="48.41053" lon="7.3146">
        <ele>754</ele>
        <time>2020-06-24T07:25:51.113Z</time>
      </trkpt>
      <trkpt lat="48.41052" lon="7.31457">
        <ele>755</ele>
        <time>2020-06-24T07:25:52.112Z</time>
      </trkpt>
      <trkpt lat="48.41053" lon="7.31454">
        <ele>755</ele>
        <time>2020-06-24T07:25:53.113Z</time>
      </trkpt>
      <trkpt lat="48.41053" lon="7.31451">
        <ele>755</ele>
        <time>2020-06-24T07:25:54.113Z</time>
      </trkpt>
      <trkpt lat="48.41053" lon="7.31448">
        <ele>756</ele>
        <time>2020-06-24T07:25:55.113Z</time>
      </trkpt>
      <trkpt lat="48.41053" lon="7.31447">
        <ele>756</ele>
        <time>2020-06-24T07:25:56.112Z</time>
      </trkpt>
      <trkpt lat="48.41054" lon="7.31446">
        <ele>757</ele>
        <time>2020-06-24T07:25:57.113Z</time>
      </trkpt>
      <trkpt lat="48.41054" lon="7.31444">
        <ele>757</ele>
        <time>2020-06-24T07:25:58.113Z</time>
      </trkpt>
      <trkpt lat="48.41055" lon="7.31443">
        <ele>758</ele>
        <time>2020-06-24T07:25:59.112Z</time>
      </trkpt>
      <trkpt lat="48.41056" lon="7.31441">
        <ele>759</ele>
        <time>2020-06-24T07:26:00.113Z</time>
      </trkpt>
      <trkpt lat="48.41056" lon="7.31439">
        <ele>760</ele>
        <time>2020-06-24T07:26:01.113Z</time>
      </trkpt>
      <trkpt lat="48.41057" lon="7.31438">
        <ele>761</ele>
        <time>2020-06-24T07:26:02.113Z</time>
      </trkpt>
      <trkpt lat="48.41058" lon="7.31434">
        <ele>761</ele>
        <time>2020-06-24T07:26:03.113Z</time>
      </trkpt>
      <trkpt lat="48.41058" lon="7.31431">
        <ele>761</ele>
        <time>2020-06-24T07:26:04.113Z</time>
      </trkpt>
      <trkpt lat="48.41058" lon="7.31429">
        <ele>762</ele>
        <time>2020-06-24T07:26:05.113Z</time>
      </trkpt>
      <trkpt lat="48.41058" lon="7.31427">
        <ele>762</ele>
        <time>2020-06-24T07:26:06.113Z</time>
      </trkpt>
      <trkpt lat="48.41059" lon="7.31426">
        <ele>762</ele>
        <time>2020-06-24T07:26:07.113Z</time>
      </trkpt>
      <trkpt lat="48.4106" lon="7.31424">
        <ele>762</ele>
        <time>2020-06-24T07:26:08.113Z</time>
      </trkpt>
      <trkpt lat="48.4106" lon="7.31423">
        <ele>762</ele>
        <time>2020-06-24T07:26:09.113Z</time>
      </trkpt>
      <trkpt lat="48.41062" lon="7.31421">
        <ele>762</ele>
        <time>2020-06-24T07:26:10.113Z</time>
      </trkpt>
      <trkpt lat="48.41063" lon="7.31419">
        <ele>762</ele>
        <time>2020-06-24T07:26:11.113Z</time>
      </trkpt>
      <trkpt lat="48.41063" lon="7.31418">
        <ele>762</ele>
        <time>2020-06-24T07:26:12.112Z</time>
      </trkpt>
      <trkpt lat="48.41064" lon="7.31416">
        <ele>762</ele>
        <time>2020-06-24T07:26:13.112Z</time>
      </trkpt>
      <trkpt lat="48.41065" lon="7.31415">
        <ele>762</ele>
        <time>2020-06-24T07:26:14.112Z</time>
      </trkpt>
      <trkpt lat="48.41066" lon="7.31414">
        <ele>762</ele>
        <time>2020-06-24T07:26:15.113Z</time>
      </trkpt>
      <trkpt lat="48.41066" lon="7.31412">
        <ele>762</ele>
        <time>2020-06-24T07:26:16.113Z</time>
      </trkpt>
      <trkpt lat="48.41067" lon="7.3141">
        <ele>763</ele>
        <time>2020-06-24T07:26:17.113Z</time>
      </trkpt>
      <trkpt lat="48.41064" lon="7.31405">
        <ele>759</ele>
        <time>2020-06-24T07:26:18.114Z</time>
      </trkpt>
      <trkpt lat="48.41065" lon="7.31404">
        <ele>759</ele>
        <time>2020-06-24T07:26:19.114Z</time>
      </trkpt>
      <trkpt lat="48.41065" lon="7.31403">
        <ele>759</ele>
        <time>2020-06-24T07:26:20.113Z</time>
      </trkpt>
      <trkpt lat="48.41066" lon="7.31401">
        <ele>759</ele>
        <time>2020-06-24T07:26:21.113Z</time>
      </trkpt>
      <trkpt lat="48.41067" lon="7.314">
        <ele>759</ele>
        <time>2020-06-24T07:26:22.113Z</time>
      </trkpt>
      <trkpt lat="48.41067" lon="7.31399">
        <ele>759</ele>
        <time>2020-06-24T07:26:23.114Z</time>
      </trkpt>
      <trkpt lat="48.41068" lon="7.31397">
        <ele>759</ele>
        <time>2020-06-24T07:26:24.114Z</time>
      </trkpt>
      <trkpt lat="48.41069" lon="7.31396">
        <ele>759</ele>
        <time>2020-06-24T07:26:25.114Z</time>
      </trkpt>
      <trkpt lat="48.4107" lon="7.31395">
        <ele>759</ele>
        <time>2020-06-24T07:26:26.114Z</time>
      </trkpt>
      <trkpt lat="48.41071" lon="7.31393">
        <ele>760</ele>
        <time>2020-06-24T07:26:27.114Z</time>
      </trkpt>
      <trkpt lat="48.41072" lon="7.31392">
        <ele>760</ele>
        <time>2020-06-24T07:26:28.114Z</time>
      </trkpt>
      <trkpt lat="48.41073" lon="7.31391">
        <ele>760</ele>
        <time>2020-06-24T07:26:29.113Z</time>
      </trkpt>
      <trkpt lat="48.41074" lon="7.3139">
        <ele>760</ele>
        <time>2020-06-24T07:26:30.114Z</time>
      </trkpt>
      <trkpt lat="48.41075" lon="7.3139">
        <ele>761</ele>
        <time>2020-06-24T07:26:31.114Z</time>
      </trkpt>
      <trkpt lat="48.41076" lon="7.31389">
        <ele>761</ele>
        <time>2020-06-24T07:26:32.113Z</time>
      </trkpt>
      <trkpt lat="48.41078" lon="7.31388">
        <ele>762</ele>
        <time>2020-06-24T07:26:33.113Z</time>
      </trkpt>
      <trkpt lat="48.41079" lon="7.31388">
        <ele>762</ele>
        <time>2020-06-24T07:26:34.113Z</time>
      </trkpt>
      <trkpt lat="48.4108" lon="7.31388">
        <ele>762</ele>
        <time>2020-06-24T07:26:35.114Z</time>
      </trkpt>
      <trkpt lat="48.41082" lon="7.31387">
        <ele>762</ele>
        <time>2020-06-24T07:26:36.114Z</time>
      </trkpt>
      <trkpt lat="48.41083" lon="7.31386">
        <ele>762</ele>
        <time>2020-06-24T07:26:37.114Z</time>
      </trkpt>
      <trkpt lat="48.41084" lon="7.31386">
        <ele>762</ele>
        <time>2020-06-24T07:26:38.114Z</time>
      </trkpt>
      <trkpt lat="48.41085" lon="7.31385">
        <ele>762</ele>
        <time>2020-06-24T07:26:39.114Z</time>
      </trkpt>
      <trkpt lat="48.41085" lon="7.31385">
        <ele>762</ele>
        <time>2020-06-24T07:26:40.114Z</time>
      </trkpt>
      <trkpt lat="48.41087" lon="7.31385">
        <ele>763</ele>
        <time>2020-06-24T07:26:41.114Z</time>
      </trkpt>
      <trkpt lat="48.41088" lon="7.31385">
        <ele>763</ele>
        <time>2020-06-24T07:26:42.114Z</time>
      </trkpt>
      <trkpt lat="48.41088" lon="7.31385">
        <ele>763</ele>
        <time>2020-06-24T07:26:43.114Z</time>
      </trkpt>
      <trkpt lat="48.41089" lon="7.31384">
        <ele>763</ele>
        <time>2020-06-24T07:26:44.114Z</time>
      </trkpt>
      <trkpt lat="48.4109" lon="7.31384">
        <ele>763</ele>
        <time>2020-06-24T07:26:45.113Z</time>
      </trkpt>
      <trkpt lat="48.41091" lon="7.31384">
        <ele>763</ele>
        <time>2020-06-24T07:26:46.114Z</time>
      </trkpt>
      <trkpt lat="48.41092" lon="7.31383">
        <ele>763</ele>
        <time>2020-06-24T07:26:47.114Z</time>
      </trkpt>
      <trkpt lat="48.41093" lon="7.31383">
        <ele>763</ele>
        <time>2020-06-24T07:26:48.114Z</time>
      </trkpt>
      <trkpt lat="48.41094" lon="7.31382">
        <ele>763</ele>
        <time>2020-06-24T07:26:49.114Z</time>
      </trkpt>
      <trkpt lat="48.41096" lon="7.31382">
        <ele>764</ele>
        <time>2020-06-24T07:26:50.113Z</time>
      </trkpt>
      <trkpt lat="48.41097" lon="7.31381">
        <ele>764</ele>
        <time>2020-06-24T07:26:51.113Z</time>
      </trkpt>
      <trkpt lat="48.41099" lon="7.31381">
        <ele>764</ele>
        <time>2020-06-24T07:26:52.114Z</time>
      </trkpt>
      <trkpt lat="48.411" lon="7.3138">
        <ele>765</ele>
        <time>2020-06-24T07:26:53.114Z</time>
      </trkpt>
      <trkpt lat="48.41101" lon="7.31378">
        <ele>765</ele>
        <time>2020-06-24T07:26:54.113Z</time>
      </trkpt>
      <trkpt lat="48.41104" lon="7.31376">
        <ele>766</ele>
        <time>2020-06-24T07:26:55.114Z</time>
      </trkpt>
      <trkpt lat="48.41106" lon="7.31374">
        <ele>767</ele>
        <time>2020-06-24T07:26:56.114Z</time>
      </trkpt>
      <trkpt lat="48.41108" lon="7.31373">
        <ele>767</ele>
        <time>2020-06-24T07:26:57.114Z</time>
      </trkpt>
      <trkpt lat="48.41109" lon="7.31372">
        <ele>768</ele>
        <time>2020-06-24T07:26:58.114Z</time>
      </trkpt>
      <trkpt lat="48.41111" lon="7.31371">
        <ele>769</ele>
        <time>2020-06-24T07:26:59.114Z</time>
      </trkpt>
      <trkpt lat="48.41112" lon="7.3137">
        <ele>770</ele>
        <time>2020-06-24T07:27:00.113Z</time>
      </trkpt>
      <trkpt lat="48.41113" lon="7.31369">
        <ele>770</ele>
        <time>2020-06-24T07:27:01.113Z</time>
      </trkpt>
      <trkpt lat="48.41114" lon="7.31368">
        <ele>771</ele>
        <time>2020-06-24T07:27:02.114Z</time>
      </trkpt>
      <trkpt lat="48.41116" lon="7.31367">
        <ele>772</ele>
        <time>2020-06-24T07:27:03.113Z</time>
      </trkpt>
      <trkpt lat="48.41116" lon="7.31366">
        <ele>772</ele>
        <time>2020-06-24T07:27:04.114Z</time>
      </trkpt>
      <trkpt lat="48.41117" lon="7.31364">
        <ele>773</ele>
        <time>2020-06-24T07:27:05.114Z</time>
      </trkpt>
      <trkpt lat="48.41118" lon="7.31363">
        <ele>773</ele>
        <time>2020-06-24T07:27:06.114Z</time>
      </trkpt>
      <trkpt lat="48.41118" lon="7.31362">
        <ele>774</ele>
        <time>2020-06-24T07:27:07.114Z</time>
      </trkpt>
      <trkpt lat="48.41118" lon="7.31361">
        <ele>774</ele>
        <time>2020-06-24T07:27:08.114Z</time>
      </trkpt>
      <trkpt lat="48.41118" lon="7.3136">
        <ele>774</ele>
        <time>2020-06-24T07:27:09.113Z</time>
      </trkpt>
      <trkpt lat="48.41119" lon="7.3136">
        <ele>774</ele>
        <time>2020-06-24T07:27:10.114Z</time>
      </trkpt>
      <trkpt lat="48.41119" lon="7.31361">
        <ele>774</ele>
        <time>2020-06-24T07:27:11.114Z</time>
      </trkpt>
      <trkpt lat="48.41119" lon="7.31361">
        <ele>774</ele>
        <time>2020-06-24T07:27:12.114Z</time>
      </trkpt>
      <trkpt lat="48.41118" lon="7.31361">
        <ele>775</ele>
        <time>2020-06-24T07:27:13.114Z</time>
      </trkpt>
      <trkpt lat="48.41118" lon="7.31361">
        <ele>775</ele>
        <time>2020-06-24T07:27:14.114Z</time>
      </trkpt>
      <trkpt lat="48.41117" lon="7.3136">
        <ele>775</ele>
        <time>2020-06-24T07:27:15.114Z</time>
      </trkpt>
      <trkpt lat="48.41116" lon="7.3136">
        <ele>775</ele>
        <time>2020-06-24T07:27:16.113Z</time>
      </trkpt>
      <trkpt lat="48.41115" lon="7.3136">
        <ele>774</ele>
        <time>2020-06-24T07:27:17.113Z</time>
      </trkpt>
      <trkpt lat="48.41114" lon="7.3136">
        <ele>773</ele>
        <time>2020-06-24T07:27:18.114Z</time>
      </trkpt>
      <trkpt lat="48.41113" lon="7.31359">
        <ele>773</ele>
        <time>2020-06-24T07:27:19.114Z</time>
      </trkpt>
      <trkpt lat="48.41112" lon="7.31359">
        <ele>772</ele>
        <time>2020-06-24T07:27:20.114Z</time>
      </trkpt>
      <trkpt lat="48.41112" lon="7.31359">
        <ele>772</ele>
        <time>2020-06-24T07:27:21.114Z</time>
      </trkpt>
      <trkpt lat="48.41111" lon="7.31358">
        <ele>771</ele>
        <time>2020-06-24T07:27:22.114Z</time>
      </trkpt>
      <trkpt lat="48.4111" lon="7.31358">
        <ele>771</ele>
        <time>2020-06-24T07:27:23.114Z</time>
      </trkpt>
      <trkpt lat="48.41109" lon="7.31358">
        <ele>770</ele>
        <time>2020-06-24T07:27:24.114Z</time>
      </trkpt>
      <trkpt lat="48.41108" lon="7.31356">
        <ele>770</ele>
        <time>2020-06-24T07:27:25.113Z</time>
      </trkpt>
      <trkpt lat="48.41107" lon="7.31356">
        <ele>769</ele>
        <time>2020-06-24T07:27:26.114Z</time>
      </trkpt>
      <trkpt lat="48.41106" lon="7.31355">
        <ele>768</ele>
        <time>2020-06-24T07:27:27.114Z</time>
      </trkpt>
      <trkpt lat="48.41105" lon="7.31354">
        <ele>767</ele>
        <time>2020-06-24T07:27:28.114Z</time>
      </trkpt>
      <trkpt lat="48.41104" lon="7.31354">
        <ele>766</ele>
        <time>2020-06-24T07:27:29.113Z</time>
      </trkpt>
      <trkpt lat="48.41103" lon="7.31353">
        <ele>765</ele>
        <time>2020-06-24T07:27:30.113Z</time>
      </trkpt>
      <trkpt lat="48.41102" lon="7.31353">
        <ele>765</ele>
        <time>2020-06-24T07:27:31.114Z</time>
      </trkpt>
      <trkpt lat="48.41101" lon="7.31352">
        <ele>765</ele>
        <time>2020-06-24T07:27:32.113Z</time>
      </trkpt>
      <trkpt lat="48.411" lon="7.3135">
        <ele>764</ele>
        <time>2020-06-24T07:27:33.114Z</time>
      </trkpt>
      <trkpt lat="48.41099" lon="7.31349">
        <ele>764</ele>
        <time>2020-06-24T07:27:34.114Z</time>
      </trkpt>
      <trkpt lat="48.41097" lon="7.31343">
        <ele>762</ele>
        <time>2020-06-24T07:27:35.114Z</time>
      </trkpt>
      <trkpt lat="48.41097" lon="7.31341">
        <ele>761</ele>
        <time>2020-06-24T07:27:36.115Z</time>
      </trkpt>
      <trkpt lat="48.41096" lon="7.31339">
        <ele>761</ele>
        <time>2020-06-24T07:27:37.115Z</time>
      </trkpt>
      <trkpt lat="48.41095" lon="7.31338">
        <ele>761</ele>
        <time>2020-06-24T07:27:38.114Z</time>
      </trkpt>
      <trkpt lat="48.41095" lon="7.31337">
        <ele>761</ele>
        <time>2020-06-24T07:27:39.115Z</time>
      </trkpt>
      <trkpt lat="48.41095" lon="7.31337">
        <ele>761</ele>
        <time>2020-06-24T07:27:40.115Z</time>
      </trkpt>
      <trkpt lat="48.41095" lon="7.31336">
        <ele>761</ele>
        <time>2020-06-24T07:27:41.114Z</time>
      </trkpt>
      <trkpt lat="48.41094" lon="7.31334">
        <ele>761</ele>
        <time>2020-06-24T07:27:42.114Z</time>
      </trkpt>
      <trkpt lat="48.41094" lon="7.31333">
        <ele>762</ele>
        <time>2020-06-24T07:27:43.114Z</time>
      </trkpt>
      <trkpt lat="48.41093" lon="7.31331">
        <ele>762</ele>
        <time>2020-06-24T07:27:44.114Z</time>
      </trkpt>
      <trkpt lat="48.41093" lon="7.3133">
        <ele>763</ele>
        <time>2020-06-24T07:27:45.115Z</time>
      </trkpt>
      <trkpt lat="48.41093" lon="7.3133">
        <ele>763</ele>
        <time>2020-06-24T07:27:46.115Z</time>
      </trkpt>
      <trkpt lat="48.41092" lon="7.31329">
        <ele>764</ele>
        <time>2020-06-24T07:27:47.115Z</time>
      </trkpt>
      <trkpt lat="48.41092" lon="7.31328">
        <ele>764</ele>
        <time>2020-06-24T07:27:48.115Z</time>
      </trkpt>
      <trkpt lat="48.41092" lon="7.31326">
        <ele>765</ele>
        <time>2020-06-24T07:27:49.115Z</time>
      </trkpt>
      <trkpt lat="48.41091" lon="7.31325">
        <ele>765</ele>
        <time>2020-06-24T07:27:50.115Z</time>
      </trkpt>
      <trkpt lat="48.41091" lon="7.31323">
        <ele>766</ele>
        <time>2020-06-24T07:27:51.115Z</time>
      </trkpt>
      <trkpt lat="48.41091" lon="7.31321">
        <ele>767</ele>
        <time>2020-06-24T07:27:52.115Z</time>
      </trkpt>
      <trkpt lat="48.41091" lon="7.31319">
        <ele>768</ele>
        <time>2020-06-24T07:27:53.115Z</time>
      </trkpt>
      <trkpt lat="48.4109" lon="7.31318">
        <ele>769</ele>
        <time>2020-06-24T07:27:54.115Z</time>
      </trkpt>
      <trkpt lat="48.4109" lon="7.31316">
        <ele>771</ele>
        <time>2020-06-24T07:27:55.115Z</time>
      </trkpt>
      <trkpt lat="48.41089" lon="7.31314">
        <ele>773</ele>
        <time>2020-06-24T07:27:56.115Z</time>
      </trkpt>
      <trkpt lat="48.41089" lon="7.31312">
        <ele>774</ele>
        <time>2020-06-24T07:27:57.115Z</time>
      </trkpt>
      <trkpt lat="48.41089" lon="7.3131">
        <ele>775</ele>
        <time>2020-06-24T07:27:58.115Z</time>
      </trkpt>
      <trkpt lat="48.41088" lon="7.31308">
        <ele>776</ele>
        <time>2020-06-24T07:27:59.115Z</time>
      </trkpt>
      <trkpt lat="48.41088" lon="7.31307">
        <ele>777</ele>
        <time>2020-06-24T07:28:00.115Z</time>
      </trkpt>
      <trkpt lat="48.41087" lon="7.31306">
        <ele>778</ele>
        <time>2020-06-24T07:28:01.114Z</time>
      </trkpt>
      <trkpt lat="48.41086" lon="7.31305">
        <ele>779</ele>
        <time>2020-06-24T07:28:02.115Z</time>
      </trkpt>
      <trkpt lat="48.41085" lon="7.31303">
        <ele>780</ele>
        <time>2020-06-24T07:28:03.115Z</time>
      </trkpt>
      <trkpt lat="48.41085" lon="7.31302">
        <ele>780</ele>
        <time>2020-06-24T07:28:04.114Z</time>
      </trkpt>
      <trkpt lat="48.41084" lon="7.313">
        <ele>781</ele>
        <time>2020-06-24T07:28:05.114Z</time>
      </trkpt>
      <trkpt lat="48.41084" lon="7.31298">
        <ele>781</ele>
        <time>2020-06-24T07:28:06.114Z</time>
      </trkpt>
      <trkpt lat="48.41083" lon="7.31295">
        <ele>782</ele>
        <time>2020-06-24T07:28:07.115Z</time>
      </trkpt>
      <trkpt lat="48.41082" lon="7.31293">
        <ele>782</ele>
        <time>2020-06-24T07:28:08.115Z</time>
      </trkpt>
      <trkpt lat="48.4108" lon="7.31291">
        <ele>783</ele>
        <time>2020-06-24T07:28:09.114Z</time>
      </trkpt>
      <trkpt lat="48.41079" lon="7.31288">
        <ele>783</ele>
        <time>2020-06-24T07:28:10.114Z</time>
      </trkpt>
      <trkpt lat="48.41078" lon="7.31286">
        <ele>783</ele>
        <time>2020-06-24T07:28:11.115Z</time>
      </trkpt>
      <trkpt lat="48.41077" lon="7.31284">
        <ele>783</ele>
        <time>2020-06-24T07:28:12.115Z</time>
      </trkpt>
      <trkpt lat="48.41077" lon="7.31283">
        <ele>783</ele>
        <time>2020-06-24T07:28:13.115Z</time>
      </trkpt>
      <trkpt lat="48.41076" lon="7.31281">
        <ele>783</ele>
        <time>2020-06-24T07:28:14.115Z</time>
      </trkpt>
      <trkpt lat="48.41075" lon="7.31279">
        <ele>783</ele>
        <time>2020-06-24T07:28:15.115Z</time>
      </trkpt>
      <trkpt lat="48.41075" lon="7.31277">
        <ele>783</ele>
        <time>2020-06-24T07:28:16.115Z</time>
      </trkpt>
      <trkpt lat="48.41075" lon="7.31275">
        <ele>783</ele>
        <time>2020-06-24T07:28:17.115Z</time>
      </trkpt>
      <trkpt lat="48.41074" lon="7.31274">
        <ele>783</ele>
        <time>2020-06-24T07:28:18.115Z</time>
      </trkpt>
      <trkpt lat="48.41073" lon="7.31272">
        <ele>783</ele>
        <time>2020-06-24T07:28:19.115Z</time>
      </trkpt>
      <trkpt lat="48.41073" lon="7.31271">
        <ele>783</ele>
        <time>2020-06-24T07:28:20.114Z</time>
      </trkpt>
      <trkpt lat="48.41072" lon="7.31269">
        <ele>782</ele>
        <time>2020-06-24T07:28:21.115Z</time>
      </trkpt>
      <trkpt lat="48.41072" lon="7.31267">
        <ele>782</ele>
        <time>2020-06-24T07:28:22.115Z</time>
      </trkpt>
      <trkpt lat="48.41071" lon="7.31266">
        <ele>782</ele>
        <time>2020-06-24T07:28:23.115Z</time>
      </trkpt>
      <trkpt lat="48.41071" lon="7.31264">
        <ele>782</ele>
        <time>2020-06-24T07:28:24.115Z</time>
      </trkpt>
      <trkpt lat="48.41071" lon="7.31261">
        <ele>781</ele>
        <time>2020-06-24T07:28:25.115Z</time>
      </trkpt>
      <trkpt lat="48.4107" lon="7.31258">
        <ele>781</ele>
        <time>2020-06-24T07:28:26.114Z</time>
      </trkpt>
      <trkpt lat="48.41069" lon="7.31256">
        <ele>780</ele>
        <time>2020-06-24T07:28:27.115Z</time>
      </trkpt>
      <trkpt lat="48.41068" lon="7.31253">
        <ele>780</ele>
        <time>2020-06-24T07:28:28.115Z</time>
      </trkpt>
      <trkpt lat="48.41067" lon="7.31252">
        <ele>780</ele>
        <time>2020-06-24T07:28:29.114Z</time>
      </trkpt>
      <trkpt lat="48.41066" lon="7.3125">
        <ele>779</ele>
        <time>2020-06-24T07:28:30.115Z</time>
      </trkpt>
      <trkpt lat="48.41066" lon="7.31248">
        <ele>779</ele>
        <time>2020-06-24T07:28:31.115Z</time>
      </trkpt>
      <trkpt lat="48.41066" lon="7.31246">
        <ele>778</ele>
        <time>2020-06-24T07:28:32.115Z</time>
      </trkpt>
      <trkpt lat="48.41065" lon="7.31244">
        <ele>778</ele>
        <time>2020-06-24T07:28:33.114Z</time>
      </trkpt>
      <trkpt lat="48.41065" lon="7.31242">
        <ele>778</ele>
        <time>2020-06-24T07:28:34.115Z</time>
      </trkpt>
      <trkpt lat="48.41065" lon="7.31241">
        <ele>778</ele>
        <time>2020-06-24T07:28:35.114Z</time>
      </trkpt>
      <trkpt lat="48.41064" lon="7.31239">
        <ele>778</ele>
        <time>2020-06-24T07:28:36.114Z</time>
      </trkpt>
      <trkpt lat="48.41064" lon="7.31237">
        <ele>778</ele>
        <time>2020-06-24T07:28:37.115Z</time>
      </trkpt>
      <trkpt lat="48.41064" lon="7.31235">
        <ele>778</ele>
        <time>2020-06-24T07:28:38.114Z</time>
      </trkpt>
      <trkpt lat="48.41063" lon="7.31234">
        <ele>778</ele>
        <time>2020-06-24T07:28:39.115Z</time>
      </trkpt>
      <trkpt lat="48.41063" lon="7.31232">
        <ele>778</ele>
        <time>2020-06-24T07:28:40.114Z</time>
      </trkpt>
      <trkpt lat="48.41062" lon="7.31231">
        <ele>778</ele>
        <time>2020-06-24T07:28:41.115Z</time>
      </trkpt>
      <trkpt lat="48.41062" lon="7.31229">
        <ele>778</ele>
        <time>2020-06-24T07:28:42.115Z</time>
      </trkpt>
      <trkpt lat="48.41062" lon="7.31227">
        <ele>778</ele>
        <time>2020-06-24T07:28:43.115Z</time>
      </trkpt>
      <trkpt lat="48.41061" lon="7.31225">
        <ele>778</ele>
        <time>2020-06-24T07:28:44.115Z</time>
      </trkpt>
      <trkpt lat="48.41061" lon="7.31223">
        <ele>778</ele>
        <time>2020-06-24T07:28:45.115Z</time>
      </trkpt>
      <trkpt lat="48.4106" lon="7.31221">
        <ele>777</ele>
        <time>2020-06-24T07:28:46.115Z</time>
      </trkpt>
      <trkpt lat="48.4106" lon="7.3122">
        <ele>777</ele>
        <time>2020-06-24T07:28:47.115Z</time>
      </trkpt>
      <trkpt lat="48.41059" lon="7.31218">
        <ele>776</ele>
        <time>2020-06-24T07:28:48.115Z</time>
      </trkpt>
      <trkpt lat="48.4106" lon="7.31216">
        <ele>775</ele>
        <time>2020-06-24T07:28:49.115Z</time>
      </trkpt>
      <trkpt lat="48.4106" lon="7.31214">
        <ele>774</ele>
        <time>2020-06-24T07:28:50.115Z</time>
      </trkpt>
      <trkpt lat="48.4106" lon="7.31212">
        <ele>774</ele>
        <time>2020-06-24T07:28:51.115Z</time>
      </trkpt>
      <trkpt lat="48.4106" lon="7.3121">
        <ele>774</ele>
        <time>2020-06-24T07:28:52.115Z</time>
      </trkpt>
      <trkpt lat="48.4106" lon="7.31208">
        <ele>775</ele>
        <time>2020-06-24T07:28:53.115Z</time>
      </trkpt>
      <trkpt lat="48.41061" lon="7.31204">
        <ele>775</ele>
        <time>2020-06-24T07:28:54.114Z</time>
      </trkpt>
      <trkpt lat="48.41062" lon="7.31199">
        <ele>776</ele>
        <time>2020-06-24T07:28:55.115Z</time>
      </trkpt>
      <trkpt lat="48.41062" lon="7.31197">
        <ele>777</ele>
        <time>2020-06-24T07:28:56.114Z</time>
      </trkpt>
      <trkpt lat="48.41063" lon="7.31194">
        <ele>777</ele>
        <time>2020-06-24T07:28:57.114Z</time>
      </trkpt>
      <trkpt lat="48.41063" lon="7.31191">
        <ele>778</ele>
        <time>2020-06-24T07:28:58.115Z</time>
      </trkpt>
      <trkpt lat="48.41064" lon="7.31188">
        <ele>778</ele>
        <time>2020-06-24T07:28:59.115Z</time>
      </trkpt>
      <trkpt lat="48.41065" lon="7.31186">
        <ele>778</ele>
        <time>2020-06-24T07:29:00.115Z</time>
      </trkpt>
      <trkpt lat="48.41067" lon="7.31183">
        <ele>779</ele>
        <time>2020-06-24T07:29:01.115Z</time>
      </trkpt>
      <trkpt lat="48.41069" lon="7.31181">
        <ele>779</ele>
        <time>2020-06-24T07:29:02.115Z</time>
      </trkpt>
      <trkpt lat="48.4107" lon="7.31178">
        <ele>780</ele>
        <time>2020-06-24T07:29:03.115Z</time>
      </trkpt>
      <trkpt lat="48.4107" lon="7.31176">
        <ele>780</ele>
        <time>2020-06-24T07:29:04.115Z</time>
      </trkpt>
      <trkpt lat="48.41072" lon="7.31174">
        <ele>780</ele>
        <time>2020-06-24T07:29:05.115Z</time>
      </trkpt>
      <trkpt lat="48.41072" lon="7.31172">
        <ele>780</ele>
        <time>2020-06-24T07:29:06.114Z</time>
      </trkpt>
      <trkpt lat="48.41073" lon="7.31171">
        <ele>781</ele>
        <time>2020-06-24T07:29:07.115Z</time>
      </trkpt>
      <trkpt lat="48.41075" lon="7.31169">
        <ele>781</ele>
        <time>2020-06-24T07:29:08.115Z</time>
      </trkpt>
      <trkpt lat="48.41075" lon="7.31167">
        <ele>782</ele>
        <time>2020-06-24T07:29:09.115Z</time>
      </trkpt>
      <trkpt lat="48.41076" lon="7.31166">
        <ele>782</ele>
        <time>2020-06-24T07:29:10.114Z</time>
      </trkpt>
      <trkpt lat="48.41077" lon="7.31164">
        <ele>783</ele>
        <time>2020-06-24T07:29:11.115Z</time>
      </trkpt>
      <trkpt lat="48.41077" lon="7.31163">
        <ele>783</ele>
        <time>2020-06-24T07:29:12.115Z</time>
      </trkpt>
      <trkpt lat="48.41078" lon="7.31161">
        <ele>784</ele>
        <time>2020-06-24T07:29:13.114Z</time>
      </trkpt>
      <trkpt lat="48.41079" lon="7.3116">
        <ele>785</ele>
        <time>2020-06-24T07:29:14.115Z</time>
      </trkpt>
      <trkpt lat="48.4108" lon="7.31158">
        <ele>785</ele>
        <time>2020-06-24T07:29:15.115Z</time>
      </trkpt>
      <trkpt lat="48.41081" lon="7.31157">
        <ele>786</ele>
        <time>2020-06-24T07:29:16.114Z</time>
      </trkpt>
      <trkpt lat="48.41081" lon="7.31155">
        <ele>786</ele>
        <time>2020-06-24T07:29:17.115Z</time>
      </trkpt>
      <trkpt lat="48.41082" lon="7.31153">
        <ele>786</ele>
        <time>2020-06-24T07:29:18.115Z</time>
      </trkpt>
      <trkpt lat="48.41082" lon="7.31152">
        <ele>786</ele>
        <time>2020-06-24T07:29:19.114Z</time>
      </trkpt>
      <trkpt lat="48.41083" lon="7.3115">
        <ele>787</ele>
        <time>2020-06-24T07:29:20.115Z</time>
      </trkpt>
      <trkpt lat="48.41084" lon="7.31147">
        <ele>787</ele>
        <time>2020-06-24T07:29:21.115Z</time>
      </trkpt>
      <trkpt lat="48.41085" lon="7.31145">
        <ele>787</ele>
        <time>2020-06-24T07:29:22.114Z</time>
      </trkpt>
      <trkpt lat="48.41086" lon="7.31143">
        <ele>786</ele>
        <time>2020-06-24T07:29:23.115Z</time>
      </trkpt>
      <trkpt lat="48.41086" lon="7.31141">
        <ele>786</ele>
        <time>2020-06-24T07:29:24.115Z</time>
      </trkpt>
      <trkpt lat="48.41087" lon="7.31139">
        <ele>786</ele>
        <time>2020-06-24T07:29:25.115Z</time>
      </trkpt>
      <trkpt lat="48.41088" lon="7.31137">
        <ele>787</ele>
        <time>2020-06-24T07:29:26.115Z</time>
      </trkpt>
      <trkpt lat="48.41089" lon="7.31135">
        <ele>787</ele>
        <time>2020-06-24T07:29:27.115Z</time>
      </trkpt>
      <trkpt lat="48.4109" lon="7.31132">
        <ele>787</ele>
        <time>2020-06-24T07:29:28.115Z</time>
      </trkpt>
      <trkpt lat="48.41091" lon="7.3113">
        <ele>787</ele>
        <time>2020-06-24T07:29:29.114Z</time>
      </trkpt>
      <trkpt lat="48.41092" lon="7.31129">
        <ele>787</ele>
        <time>2020-06-24T07:29:30.114Z</time>
      </trkpt>
      <trkpt lat="48.41093" lon="7.31128">
        <ele>788</ele>
        <time>2020-06-24T07:29:31.114Z</time>
      </trkpt>
      <trkpt lat="48.41094" lon="7.31126">
        <ele>788</ele>
        <time>2020-06-24T07:29:32.115Z</time>
      </trkpt>
      <trkpt lat="48.41094" lon="7.31125">
        <ele>788</ele>
        <time>2020-06-24T07:29:33.115Z</time>
      </trkpt>
      <trkpt lat="48.41095" lon="7.31124">
        <ele>789</ele>
        <time>2020-06-24T07:29:34.115Z</time>
      </trkpt>
      <trkpt lat="48.41097" lon="7.31122">
        <ele>789</ele>
        <time>2020-06-24T07:29:35.115Z</time>
      </trkpt>
      <trkpt lat="48.41098" lon="7.31121">
        <ele>790</ele>
        <time>2020-06-24T07:29:36.115Z</time>
      </trkpt>
      <trkpt lat="48.41099" lon="7.3112">
        <ele>790</ele>
        <time>2020-06-24T07:29:37.114Z</time>
      </trkpt>
      <trkpt lat="48.411" lon="7.31118">
        <ele>791</ele>
        <time>2020-06-24T07:29:38.115Z</time>
      </trkpt>
      <trkpt lat="48.41101" lon="7.31116">
        <ele>791</ele>
        <time>2020-06-24T07:29:39.115Z</time>
      </trkpt>
      <trkpt lat="48.41102" lon="7.31115">
        <ele>790</ele>
        <time>2020-06-24T07:29:40.114Z</time>
      </trkpt>
      <trkpt lat="48.41103" lon="7.31114">
        <ele>790</ele>
        <time>2020-06-24T07:29:41.114Z</time>
      </trkpt>
      <trkpt lat="48.41104" lon="7.31112">
        <ele>790</ele>
        <time>2020-06-24T07:29:42.114Z</time>
      </trkpt>
      <trkpt lat="48.41105" lon="7.31112">
        <ele>789</ele>
        <time>2020-06-24T07:29:43.115Z</time>
      </trkpt>
      <trkpt lat="48.41106" lon="7.3111">
        <ele>790</ele>
        <time>2020-06-24T07:29:44.115Z</time>
      </trkpt>
      <trkpt lat="48.41106" lon="7.31109">
        <ele>790</ele>
        <time>2020-06-24T07:29:45.115Z</time>
      </trkpt>
      <trkpt lat="48.41107" lon="7.31108">
        <ele>791</ele>
        <time>2020-06-24T07:29:46.114Z</time>
      </trkpt>
      <trkpt lat="48.41108" lon="7.31106">
        <ele>791</ele>
        <time>2020-06-24T07:29:47.115Z</time>
      </trkpt>
      <trkpt lat="48.41109" lon="7.31105">
        <ele>792</ele>
        <time>2020-06-24T07:29:48.115Z</time>
      </trkpt>
      <trkpt lat="48.4111" lon="7.31103">
        <ele>792</ele>
        <time>2020-06-24T07:29:49.115Z</time>
      </trkpt>
      <trkpt lat="48.41111" lon="7.31102">
        <ele>792</ele>
        <time>2020-06-24T07:29:50.114Z</time>
      </trkpt>
      <trkpt lat="48.41113" lon="7.311">
        <ele>792</ele>
        <time>2020-06-24T07:29:51.115Z</time>
      </trkpt>
      <trkpt lat="48.41114" lon="7.31099">
        <ele>792</ele>
        <time>2020-06-24T07:29:52.115Z</time>
      </trkpt>
      <trkpt lat="48.41116" lon="7.31099">
        <ele>792</ele>
        <time>2020-06-24T07:29:53.114Z</time>
      </trkpt>
      <trkpt lat="48.41117" lon="7.31098">
        <ele>792</ele>
        <time>2020-06-24T07:29:54.115Z</time>
      </trkpt>
      <trkpt lat="48.41118" lon="7.31098">
        <ele>792</ele>
        <time>2020-06-24T07:29:55.115Z</time>
      </trkpt>
      <trkpt lat="48.41119" lon="7.31097">
        <ele>792</ele>
        <time>2020-06-24T07:29:56.115Z</time>
      </trkpt>
      <trkpt lat="48.41121" lon="7.31096">
        <ele>793</ele>
        <time>2020-06-24T07:29:57.114Z</time>
      </trkpt>
      <trkpt lat="48.41122" lon="7.31096">
        <ele>793</ele>
        <time>2020-06-24T07:29:58.114Z</time>
      </trkpt>
      <trkpt lat="48.41123" lon="7.31095">
        <ele>793</ele>
        <time>2020-06-24T07:29:59.115Z</time>
      </trkpt>
      <trkpt lat="48.41123" lon="7.31096">
        <ele>793</ele>
        <time>2020-06-24T07:30:00.115Z</time>
      </trkpt>
      <trkpt lat="48.41123" lon="7.31096">
        <ele>793</ele>
        <time>2020-06-24T07:30:01.114Z</time>
      </trkpt>
      <trkpt lat="48.41126" lon="7.31096">
        <ele>792</ele>
        <time>2020-06-24T07:30:02.114Z</time>
      </trkpt>
      <trkpt lat="48.41127" lon="7.31095">
        <ele>792</ele>
        <time>2020-06-24T07:30:03.114Z</time>
      </trkpt>
      <trkpt lat="48.41127" lon="7.31094">
        <ele>792</ele>
        <time>2020-06-24T07:30:04.115Z</time>
      </trkpt>
      <trkpt lat="48.41128" lon="7.31094">
        <ele>792</ele>
        <time>2020-06-24T07:30:05.115Z</time>
      </trkpt>
      <trkpt lat="48.41129" lon="7.31092">
        <ele>792</ele>
        <time>2020-06-24T07:30:06.114Z</time>
      </trkpt>
      <trkpt lat="48.41129" lon="7.31091">
        <ele>793</ele>
        <time>2020-06-24T07:30:07.114Z</time>
      </trkpt>
      <trkpt lat="48.41129" lon="7.3109">
        <ele>793</ele>
        <time>2020-06-24T07:30:08.114Z</time>
      </trkpt>
      <trkpt lat="48.4113" lon="7.31089">
        <ele>793</ele>
        <time>2020-06-24T07:30:09.115Z</time>
      </trkpt>
      <trkpt lat="48.4113" lon="7.31088">
        <ele>793</ele>
        <time>2020-06-24T07:30:10.115Z</time>
      </trkpt>
      <trkpt lat="48.4113" lon="7.31087">
        <ele>793</ele>
        <time>2020-06-24T07:30:11.114Z</time>
      </trkpt>
      <trkpt lat="48.41132" lon="7.31085">
        <ele>793</ele>
        <time>2020-06-24T07:30:12.115Z</time>
      </trkpt>
      <trkpt lat="48.41132" lon="7.31081">
        <ele>794</ele>
        <time>2020-06-24T07:30:13.115Z</time>
      </trkpt>
      <trkpt lat="48.41133" lon="7.31078">
        <ele>795</ele>
        <time>2020-06-24T07:30:14.115Z</time>
      </trkpt>
      <trkpt lat="48.41134" lon="7.31076">
        <ele>796</ele>
        <time>2020-06-24T07:30:15.115Z</time>
      </trkpt>
      <trkpt lat="48.41134" lon="7.31075">
        <ele>797</ele>
        <time>2020-06-24T07:30:16.115Z</time>
      </trkpt>
      <trkpt lat="48.41135" lon="7.31073">
        <ele>797</ele>
        <time>2020-06-24T07:30:17.115Z</time>
      </trkpt>
      <trkpt lat="48.41136" lon="7.31072">
        <ele>798</ele>
        <time>2020-06-24T07:30:18.114Z</time>
      </trkpt>
      <trkpt lat="48.41137" lon="7.31071">
        <ele>798</ele>
        <time>2020-06-24T07:30:19.115Z</time>
      </trkpt>
      <trkpt lat="48.41139" lon="7.3107">
        <ele>799</ele>
        <time>2020-06-24T07:30:20.115Z</time>
      </trkpt>
      <trkpt lat="48.4114" lon="7.31069">
        <ele>799</ele>
        <time>2020-06-24T07:30:21.115Z</time>
      </trkpt>
      <trkpt lat="48.41142" lon="7.31069">
        <ele>799</ele>
        <time>2020-06-24T07:30:22.115Z</time>
      </trkpt>
      <trkpt lat="48.41144" lon="7.31069">
        <ele>799</ele>
        <time>2020-06-24T07:30:23.114Z</time>
      </trkpt>
      <trkpt lat="48.41145" lon="7.31068">
        <ele>799</ele>
        <time>2020-06-24T07:30:24.115Z</time>
      </trkpt>
      <trkpt lat="48.41147" lon="7.31068">
        <ele>799</ele>
        <time>2020-06-24T07:30:25.115Z</time>
      </trkpt>
      <trkpt lat="48.41148" lon="7.31067">
        <ele>799</ele>
        <time>2020-06-24T07:30:26.114Z</time>
      </trkpt>
      <trkpt lat="48.4115" lon="7.31066">
        <ele>799</ele>
        <time>2020-06-24T07:30:27.114Z</time>
      </trkpt>
      <trkpt lat="48.41151" lon="7.31065">
        <ele>800</ele>
        <time>2020-06-24T07:30:28.114Z</time>
      </trkpt>
      <trkpt lat="48.41152" lon="7.31065">
        <ele>800</ele>
        <time>2020-06-24T07:30:29.114Z</time>
      </trkpt>
      <trkpt lat="48.41154" lon="7.31063">
        <ele>801</ele>
        <time>2020-06-24T07:30:30.115Z</time>
      </trkpt>
      <trkpt lat="48.41155" lon="7.31063">
        <ele>801</ele>
        <time>2020-06-24T07:30:31.114Z</time>
      </trkpt>
      <trkpt lat="48.41156" lon="7.31062">
        <ele>802</ele>
        <time>2020-06-24T07:30:32.114Z</time>
      </trkpt>
      <trkpt lat="48.41158" lon="7.31061">
        <ele>802</ele>
        <time>2020-06-24T07:30:33.115Z</time>
      </trkpt>
      <trkpt lat="48.41159" lon="7.3106">
        <ele>803</ele>
        <time>2020-06-24T07:30:34.115Z</time>
      </trkpt>
      <trkpt lat="48.4116" lon="7.3106">
        <ele>803</ele>
        <time>2020-06-24T07:30:35.115Z</time>
      </trkpt>
      <trkpt lat="48.41163" lon="7.31058">
        <ele>804</ele>
        <time>2020-06-24T07:30:36.114Z</time>
      </trkpt>
      <trkpt lat="48.41164" lon="7.31057">
        <ele>804</ele>
        <time>2020-06-24T07:30:37.114Z</time>
      </trkpt>
      <trkpt lat="48.41165" lon="7.31056">
        <ele>804</ele>
        <time>2020-06-24T07:30:38.114Z</time>
      </trkpt>
      <trkpt lat="48.41166" lon="7.31057">
        <ele>805</ele>
        <time>2020-06-24T07:30:39.115Z</time>
      </trkpt>
      <trkpt lat="48.41167" lon="7.31056">
        <ele>805</ele>
        <time>2020-06-24T07:30:40.115Z</time>
      </trkpt>
      <trkpt lat="48.41168" lon="7.31055">
        <ele>805</ele>
        <time>2020-06-24T07:30:41.115Z</time>
      </trkpt>
      <trkpt lat="48.4117" lon="7.31054">
        <ele>805</ele>
        <time>2020-06-24T07:30:42.114Z</time>
      </trkpt>
      <trkpt lat="48.41172" lon="7.31053">
        <ele>805</ele>
        <time>2020-06-24T07:30:43.114Z</time>
      </trkpt>
      <trkpt lat="48.41174" lon="7.31052">
        <ele>806</ele>
        <time>2020-06-24T07:30:44.114Z</time>
      </trkpt>
      <trkpt lat="48.41175" lon="7.31051">
        <ele>806</ele>
        <time>2020-06-24T07:30:45.115Z</time>
      </trkpt>
      <trkpt lat="48.41176" lon="7.31049">
        <ele>806</ele>
        <time>2020-06-24T07:30:46.115Z</time>
      </trkpt>
      <trkpt lat="48.41178" lon="7.31049">
        <ele>806</ele>
        <time>2020-06-24T07:30:47.114Z</time>
      </trkpt>
      <trkpt lat="48.41179" lon="7.31048">
        <ele>806</ele>
        <time>2020-06-24T07:30:48.114Z</time>
      </trkpt>
      <trkpt lat="48.4118" lon="7.31048">
        <ele>806</ele>
        <time>2020-06-24T07:30:49.115Z</time>
      </trkpt>
      <trkpt lat="48.41182" lon="7.31048">
        <ele>807</ele>
        <time>2020-06-24T07:30:50.114Z</time>
      </trkpt>
      <trkpt lat="48.41183" lon="7.31047">
        <ele>807</ele>
        <time>2020-06-24T07:30:51.115Z</time>
      </trkpt>
      <trkpt lat="48.41184" lon="7.31046">
        <ele>808</ele>
        <time>2020-06-24T07:30:52.114Z</time>
      </trkpt>
      <trkpt lat="48.41185" lon="7.31046">
        <ele>808</ele>
        <time>2020-06-24T07:30:53.114Z</time>
      </trkpt>
      <trkpt lat="48.41186" lon="7.31046">
        <ele>808</ele>
        <time>2020-06-24T07:30:54.114Z</time>
      </trkpt>
      <trkpt lat="48.41188" lon="7.31046">
        <ele>807</ele>
        <time>2020-06-24T07:30:55.114Z</time>
      </trkpt>
      <trkpt lat="48.41189" lon="7.31046">
        <ele>807</ele>
        <time>2020-06-24T07:30:56.114Z</time>
      </trkpt>
      <trkpt lat="48.4119" lon="7.31046">
        <ele>807</ele>
        <time>2020-06-24T07:30:57.114Z</time>
      </trkpt>
      <trkpt lat="48.4119" lon="7.31046">
        <ele>807</ele>
        <time>2020-06-24T07:30:58.114Z</time>
      </trkpt>
      <trkpt lat="48.41191" lon="7.31046">
        <ele>806</ele>
        <time>2020-06-24T07:30:59.114Z</time>
      </trkpt>
      <trkpt lat="48.41191" lon="7.31046">
        <ele>806</ele>
        <time>2020-06-24T07:31:00.115Z</time>
      </trkpt>
      <trkpt lat="48.41193" lon="7.31046">
        <ele>804</ele>
        <time>2020-06-24T07:31:01.116Z</time>
      </trkpt>
      <trkpt lat="48.41194" lon="7.31045">
        <ele>803</ele>
        <time>2020-06-24T07:31:02.115Z</time>
      </trkpt>
      <trkpt lat="48.41195" lon="7.31044">
        <ele>803</ele>
        <time>2020-06-24T07:31:03.115Z</time>
      </trkpt>
      <trkpt lat="48.41197" lon="7.31044">
        <ele>804</ele>
        <time>2020-06-24T07:31:04.115Z</time>
      </trkpt>
      <trkpt lat="48.41199" lon="7.31044">
        <ele>804</ele>
        <time>2020-06-24T07:31:05.116Z</time>
      </trkpt>
      <trkpt lat="48.41202" lon="7.31043">
        <ele>805</ele>
        <time>2020-06-24T07:31:06.115Z</time>
      </trkpt>
      <trkpt lat="48.41204" lon="7.31043">
        <ele>806</ele>
        <time>2020-06-24T07:31:07.115Z</time>
      </trkpt>
      <trkpt lat="48.41206" lon="7.31043">
        <ele>806</ele>
        <time>2020-06-24T07:31:08.116Z</time>
      </trkpt>
      <trkpt lat="48.41208" lon="7.31043">
        <ele>807</ele>
        <time>2020-06-24T07:31:09.116Z</time>
      </trkpt>
      <trkpt lat="48.41209" lon="7.31043">
        <ele>808</ele>
        <time>2020-06-24T07:31:10.116Z</time>
      </trkpt>
      <trkpt lat="48.4121" lon="7.31042">
        <ele>808</ele>
        <time>2020-06-24T07:31:11.115Z</time>
      </trkpt>
      <trkpt lat="48.41211" lon="7.31041">
        <ele>809</ele>
        <time>2020-06-24T07:31:12.116Z</time>
      </trkpt>
      <trkpt lat="48.41213" lon="7.31041">
        <ele>810</ele>
        <time>2020-06-24T07:31:13.115Z</time>
      </trkpt>
      <trkpt lat="48.41213" lon="7.3104">
        <ele>811</ele>
        <time>2020-06-24T07:31:14.116Z</time>
      </trkpt>
      <trkpt lat="48.41214" lon="7.31039">
        <ele>811</ele>
        <time>2020-06-24T07:31:15.116Z</time>
      </trkpt>
      <trkpt lat="48.41215" lon="7.31038">
        <ele>811</ele>
        <time>2020-06-24T07:31:16.116Z</time>
      </trkpt>
      <trkpt lat="48.41216" lon="7.31038">
        <ele>812</ele>
        <time>2020-06-24T07:31:17.116Z</time>
      </trkpt>
      <trkpt lat="48.41217" lon="7.31037">
        <ele>812</ele>
        <time>2020-06-24T07:31:18.116Z</time>
      </trkpt>
      <trkpt lat="48.41218" lon="7.31036">
        <ele>813</ele>
        <time>2020-06-24T07:31:19.116Z</time>
      </trkpt>
      <trkpt lat="48.41219" lon="7.31036">
        <ele>813</ele>
        <time>2020-06-24T07:31:20.115Z</time>
      </trkpt>
      <trkpt lat="48.41221" lon="7.31035">
        <ele>813</ele>
        <time>2020-06-24T07:31:21.116Z</time>
      </trkpt>
      <trkpt lat="48.41222" lon="7.31034">
        <ele>813</ele>
        <time>2020-06-24T07:31:22.115Z</time>
      </trkpt>
      <trkpt lat="48.41224" lon="7.31033">
        <ele>814</ele>
        <time>2020-06-24T07:31:23.116Z</time>
      </trkpt>
      <trkpt lat="48.41226" lon="7.31033">
        <ele>815</ele>
        <time>2020-06-24T07:31:24.115Z</time>
      </trkpt>
      <trkpt lat="48.41227" lon="7.31032">
        <ele>816</ele>
        <time>2020-06-24T07:31:25.116Z</time>
      </trkpt>
      <trkpt lat="48.41229" lon="7.31032">
        <ele>816</ele>
        <time>2020-06-24T07:31:26.116Z</time>
      </trkpt>
      <trkpt lat="48.41231" lon="7.31032">
        <ele>817</ele>
        <time>2020-06-24T07:31:27.116Z</time>
      </trkpt>
      <trkpt lat="48.41233" lon="7.31033">
        <ele>817</ele>
        <time>2020-06-24T07:31:28.116Z</time>
      </trkpt>
      <trkpt lat="48.41235" lon="7.31034">
        <ele>817</ele>
        <time>2020-06-24T07:31:29.115Z</time>
      </trkpt>
      <trkpt lat="48.41237" lon="7.31035">
        <ele>817</ele>
        <time>2020-06-24T07:31:30.116Z</time>
      </trkpt>
      <trkpt lat="48.41239" lon="7.31035">
        <ele>817</ele>
        <time>2020-06-24T07:31:31.115Z</time>
      </trkpt>
      <trkpt lat="48.41241" lon="7.31035">
        <ele>817</ele>
        <time>2020-06-24T07:31:32.116Z</time>
      </trkpt>
      <trkpt lat="48.41243" lon="7.31035">
        <ele>817</ele>
        <time>2020-06-24T07:31:33.116Z</time>
      </trkpt>
      <trkpt lat="48.41244" lon="7.31036">
        <ele>817</ele>
        <time>2020-06-24T07:31:34.116Z</time>
      </trkpt>
      <trkpt lat="48.41245" lon="7.31036">
        <ele>816</ele>
        <time>2020-06-24T07:31:35.116Z</time>
      </trkpt>
      <trkpt lat="48.41246" lon="7.31036">
        <ele>816</ele>
        <time>2020-06-24T07:31:36.115Z</time>
      </trkpt>
      <trkpt lat="48.41248" lon="7.31036">
        <ele>816</ele>
        <time>2020-06-24T07:31:37.116Z</time>
      </trkpt>
      <trkpt lat="48.41249" lon="7.31035">
        <ele>815</ele>
        <time>2020-06-24T07:31:38.115Z</time>
      </trkpt>
      <trkpt lat="48.4125" lon="7.31035">
        <ele>815</ele>
        <time>2020-06-24T07:31:39.116Z</time>
      </trkpt>
      <trkpt lat="48.41252" lon="7.31035">
        <ele>815</ele>
        <time>2020-06-24T07:31:40.116Z</time>
      </trkpt>
      <trkpt lat="48.41254" lon="7.31036">
        <ele>815</ele>
        <time>2020-06-24T07:31:41.116Z</time>
      </trkpt>
      <trkpt lat="48.41255" lon="7.31036">
        <ele>814</ele>
        <time>2020-06-24T07:31:42.116Z</time>
      </trkpt>
      <trkpt lat="48.41256" lon="7.31036">
        <ele>814</ele>
        <time>2020-06-24T07:31:43.116Z</time>
      </trkpt>
      <trkpt lat="48.41258" lon="7.31035">
        <ele>813</ele>
        <time>2020-06-24T07:31:44.116Z</time>
      </trkpt>
      <trkpt lat="48.41259" lon="7.31035">
        <ele>812</ele>
        <time>2020-06-24T07:31:45.116Z</time>
      </trkpt>
      <trkpt lat="48.41261" lon="7.31035">
        <ele>811</ele>
        <time>2020-06-24T07:31:46.116Z</time>
      </trkpt>
      <trkpt lat="48.41262" lon="7.31035">
        <ele>811</ele>
        <time>2020-06-24T07:31:47.116Z</time>
      </trkpt>
      <trkpt lat="48.41264" lon="7.31035">
        <ele>811</ele>
        <time>2020-06-24T07:31:48.116Z</time>
      </trkpt>
      <trkpt lat="48.41265" lon="7.31036">
        <ele>812</ele>
        <time>2020-06-24T07:31:49.115Z</time>
      </trkpt>
      <trkpt lat="48.41267" lon="7.31037">
        <ele>813</ele>
        <time>2020-06-24T07:31:50.116Z</time>
      </trkpt>
      <trkpt lat="48.41268" lon="7.31038">
        <ele>813</ele>
        <time>2020-06-24T07:31:51.115Z</time>
      </trkpt>
      <trkpt lat="48.41269" lon="7.31039">
        <ele>814</ele>
        <time>2020-06-24T07:31:52.115Z</time>
      </trkpt>
      <trkpt lat="48.41271" lon="7.3104">
        <ele>814</ele>
        <time>2020-06-24T07:31:53.116Z</time>
      </trkpt>
      <trkpt lat="48.41273" lon="7.31041">
        <ele>815</ele>
        <time>2020-06-24T07:31:54.116Z</time>
      </trkpt>
      <trkpt lat="48.41275" lon="7.31041">
        <ele>815</ele>
        <time>2020-06-24T07:31:55.116Z</time>
      </trkpt>
      <trkpt lat="48.41276" lon="7.31042">
        <ele>814</ele>
        <time>2020-06-24T07:31:56.116Z</time>
      </trkpt>
      <trkpt lat="48.41278" lon="7.31043">
        <ele>813</ele>
        <time>2020-06-24T07:31:57.115Z</time>
      </trkpt>
      <trkpt lat="48.4128" lon="7.31044">
        <ele>812</ele>
        <time>2020-06-24T07:31:58.116Z</time>
      </trkpt>
      <trkpt lat="48.41281" lon="7.31045">
        <ele>812</ele>
        <time>2020-06-24T07:31:59.115Z</time>
      </trkpt>
      <trkpt lat="48.41283" lon="7.31046">
        <ele>811</ele>
        <time>2020-06-24T07:32:00.115Z</time>
      </trkpt>
      <trkpt lat="48.41284" lon="7.31047">
        <ele>811</ele>
        <time>2020-06-24T07:32:01.116Z</time>
      </trkpt>
      <trkpt lat="48.41285" lon="7.31048">
        <ele>810</ele>
        <time>2020-06-24T07:32:02.116Z</time>
      </trkpt>
      <trkpt lat="48.41286" lon="7.31049">
        <ele>809</ele>
        <time>2020-06-24T07:32:03.116Z</time>
      </trkpt>
      <trkpt lat="48.41288" lon="7.31049">
        <ele>808</ele>
        <time>2020-06-24T07:32:04.116Z</time>
      </trkpt>
      <trkpt lat="48.4129" lon="7.3105">
        <ele>807</ele>
        <time>2020-06-24T07:32:05.115Z</time>
      </trkpt>
      <trkpt lat="48.41292" lon="7.31051">
        <ele>806</ele>
        <time>2020-06-24T07:32:06.116Z</time>
      </trkpt>
      <trkpt lat="48.41294" lon="7.31051">
        <ele>805</ele>
        <time>2020-06-24T07:32:07.116Z</time>
      </trkpt>
      <trkpt lat="48.41296" lon="7.31052">
        <ele>804</ele>
        <time>2020-06-24T07:32:08.116Z</time>
      </trkpt>
      <trkpt lat="48.41298" lon="7.31053">
        <ele>804</ele>
        <time>2020-06-24T07:32:09.115Z</time>
      </trkpt>
      <trkpt lat="48.41299" lon="7.31054">
        <ele>804</ele>
        <time>2020-06-24T07:32:10.115Z</time>
      </trkpt>
      <trkpt lat="48.413" lon="7.31054">
        <ele>804</ele>
        <time>2020-06-24T07:32:11.115Z</time>
      </trkpt>
      <trkpt lat="48.41301" lon="7.31054">
        <ele>804</ele>
        <time>2020-06-24T07:32:12.116Z</time>
      </trkpt>
      <trkpt lat="48.41302" lon="7.31054">
        <ele>804</ele>
        <time>2020-06-24T07:32:13.115Z</time>
      </trkpt>
      <trkpt lat="48.41304" lon="7.31054">
        <ele>804</ele>
        <time>2020-06-24T07:32:14.116Z</time>
      </trkpt>
      <trkpt lat="48.41305" lon="7.31054">
        <ele>804</ele>
        <time>2020-06-24T07:32:15.116Z</time>
      </trkpt>
      <trkpt lat="48.41307" lon="7.31054">
        <ele>804</ele>
        <time>2020-06-24T07:32:16.115Z</time>
      </trkpt>
      <trkpt lat="48.41308" lon="7.31054">
        <ele>804</ele>
        <time>2020-06-24T07:32:17.115Z</time>
      </trkpt>
      <trkpt lat="48.4131" lon="7.31054">
        <ele>805</ele>
        <time>2020-06-24T07:32:18.116Z</time>
      </trkpt>
      <trkpt lat="48.41311" lon="7.31054">
        <ele>806</ele>
        <time>2020-06-24T07:32:19.116Z</time>
      </trkpt>
      <trkpt lat="48.41312" lon="7.31054">
        <ele>807</ele>
        <time>2020-06-24T07:32:20.116Z</time>
      </trkpt>
      <trkpt lat="48.41313" lon="7.31054">
        <ele>808</ele>
        <time>2020-06-24T07:32:21.116Z</time>
      </trkpt>
      <trkpt lat="48.41314" lon="7.31054">
        <ele>808</ele>
        <time>2020-06-24T07:32:22.116Z</time>
      </trkpt>
      <trkpt lat="48.41316" lon="7.31054">
        <ele>809</ele>
        <time>2020-06-24T07:32:23.115Z</time>
      </trkpt>
      <trkpt lat="48.41318" lon="7.31055">
        <ele>809</ele>
        <time>2020-06-24T07:32:24.115Z</time>
      </trkpt>
      <trkpt lat="48.41319" lon="7.31055">
        <ele>809</ele>
        <time>2020-06-24T07:32:25.115Z</time>
      </trkpt>
      <trkpt lat="48.41321" lon="7.31055">
        <ele>810</ele>
        <time>2020-06-24T07:32:26.116Z</time>
      </trkpt>
      <trkpt lat="48.41322" lon="7.31055">
        <ele>810</ele>
        <time>2020-06-24T07:32:27.115Z</time>
      </trkpt>
      <trkpt lat="48.41323" lon="7.31055">
        <ele>811</ele>
        <time>2020-06-24T07:32:28.115Z</time>
      </trkpt>
      <trkpt lat="48.41324" lon="7.31055">
        <ele>812</ele>
        <time>2020-06-24T07:32:29.115Z</time>
      </trkpt>
      <trkpt lat="48.41325" lon="7.31055">
        <ele>813</ele>
        <time>2020-06-24T07:32:30.115Z</time>
      </trkpt>
      <trkpt lat="48.41326" lon="7.31054">
        <ele>814</ele>
        <time>2020-06-24T07:32:31.115Z</time>
      </trkpt>
      <trkpt lat="48.41327" lon="7.31054">
        <ele>815</ele>
        <time>2020-06-24T07:32:32.116Z</time>
      </trkpt>
      <trkpt lat="48.41328" lon="7.31054">
        <ele>816</ele>
        <time>2020-06-24T07:32:33.116Z</time>
      </trkpt>
      <trkpt lat="48.4133" lon="7.31053">
        <ele>817</ele>
        <time>2020-06-24T07:32:34.115Z</time>
      </trkpt>
      <trkpt lat="48.41331" lon="7.31054">
        <ele>817</ele>
        <time>2020-06-24T07:32:35.115Z</time>
      </trkpt>
      <trkpt lat="48.41332" lon="7.31054">
        <ele>818</ele>
        <time>2020-06-24T07:32:36.115Z</time>
      </trkpt>
      <trkpt lat="48.41333" lon="7.31054">
        <ele>817</ele>
        <time>2020-06-24T07:32:37.115Z</time>
      </trkpt>
      <trkpt lat="48.41336" lon="7.31054">
        <ele>817</ele>
        <time>2020-06-24T07:32:38.116Z</time>
      </trkpt>
      <trkpt lat="48.41338" lon="7.31053">
        <ele>817</ele>
        <time>2020-06-24T07:32:39.115Z</time>
      </trkpt>
      <trkpt lat="48.4134" lon="7.31053">
        <ele>817</ele>
        <time>2020-06-24T07:32:40.115Z</time>
      </trkpt>
      <trkpt lat="48.41341" lon="7.31053">
        <ele>817</ele>
        <time>2020-06-24T07:32:41.115Z</time>
      </trkpt>
      <trkpt lat="48.41343" lon="7.31053">
        <ele>818</ele>
        <time>2020-06-24T07:32:42.116Z</time>
      </trkpt>
      <trkpt lat="48.41344" lon="7.31053">
        <ele>818</ele>
        <time>2020-06-24T07:32:43.116Z</time>
      </trkpt>
      <trkpt lat="48.41346" lon="7.31053">
        <ele>819</ele>
        <time>2020-06-24T07:32:44.116Z</time>
      </trkpt>
      <trkpt lat="48.41347" lon="7.31054">
        <ele>818</ele>
        <time>2020-06-24T07:32:45.116Z</time>
      </trkpt>
      <trkpt lat="48.41348" lon="7.31054">
        <ele>818</ele>
        <time>2020-06-24T07:32:46.115Z</time>
      </trkpt>
      <trkpt lat="48.41349" lon="7.31053">
        <ele>817</ele>
        <time>2020-06-24T07:32:47.116Z</time>
      </trkpt>
      <trkpt lat="48.41351" lon="7.31053">
        <ele>817</ele>
        <time>2020-06-24T07:32:48.116Z</time>
      </trkpt>
      <trkpt lat="48.41353" lon="7.31052">
        <ele>817</ele>
        <time>2020-06-24T07:32:49.116Z</time>
      </trkpt>
      <trkpt lat="48.41354" lon="7.31051">
        <ele>817</ele>
        <time>2020-06-24T07:32:50.116Z</time>
      </trkpt>
      <trkpt lat="48.41355" lon="7.31051">
        <ele>818</ele>
        <time>2020-06-24T07:32:51.115Z</time>
      </trkpt>
      <trkpt lat="48.41358" lon="7.31051">
        <ele>818</ele>
        <time>2020-06-24T07:32:52.116Z</time>
      </trkpt>
      <trkpt lat="48.41359" lon="7.31052">
        <ele>819</ele>
        <time>2020-06-24T07:32:53.116Z</time>
      </trkpt>
      <trkpt lat="48.4136" lon="7.31054">
        <ele>819</ele>
        <time>2020-06-24T07:32:54.116Z</time>
      </trkpt>
      <trkpt lat="48.41361" lon="7.31055">
        <ele>819</ele>
        <time>2020-06-24T07:32:55.115Z</time>
      </trkpt>
      <trkpt lat="48.41362" lon="7.31056">
        <ele>819</ele>
        <time>2020-06-24T07:32:56.116Z</time>
      </trkpt>
      <trkpt lat="48.41364" lon="7.31056">
        <ele>819</ele>
        <time>2020-06-24T07:32:57.116Z</time>
      </trkpt>
      <trkpt lat="48.41365" lon="7.31056">
        <ele>819</ele>
        <time>2020-06-24T07:32:58.116Z</time>
      </trkpt>
      <trkpt lat="48.41367" lon="7.31057">
        <ele>819</ele>
        <time>2020-06-24T07:32:59.116Z</time>
      </trkpt>
      <trkpt lat="48.41368" lon="7.31057">
        <ele>818</ele>
        <time>2020-06-24T07:33:00.116Z</time>
      </trkpt>
      <trkpt lat="48.4137" lon="7.31058">
        <ele>818</ele>
        <time>2020-06-24T07:33:01.115Z</time>
      </trkpt>
      <trkpt lat="48.41372" lon="7.31058">
        <ele>818</ele>
        <time>2020-06-24T07:33:02.116Z</time>
      </trkpt>
      <trkpt lat="48.41374" lon="7.31059">
        <ele>818</ele>
        <time>2020-06-24T07:33:03.116Z</time>
      </trkpt>
      <trkpt lat="48.41375" lon="7.31059">
        <ele>817</ele>
        <time>2020-06-24T07:33:04.115Z</time>
      </trkpt>
      <trkpt lat="48.41377" lon="7.3106">
        <ele>817</ele>
        <time>2020-06-24T07:33:05.115Z</time>
      </trkpt>
      <trkpt lat="48.41378" lon="7.3106">
        <ele>817</ele>
        <time>2020-06-24T07:33:06.115Z</time>
      </trkpt>
      <trkpt lat="48.41378" lon="7.31061">
        <ele>816</ele>
        <time>2020-06-24T07:33:07.116Z</time>
      </trkpt>
      <trkpt lat="48.41379" lon="7.31061">
        <ele>816</ele>
        <time>2020-06-24T07:33:08.115Z</time>
      </trkpt>
      <trkpt lat="48.4138" lon="7.31061">
        <ele>816</ele>
        <time>2020-06-24T07:33:09.116Z</time>
      </trkpt>
      <trkpt lat="48.41382" lon="7.31061">
        <ele>816</ele>
        <time>2020-06-24T07:33:10.115Z</time>
      </trkpt>
      <trkpt lat="48.41384" lon="7.3106">
        <ele>815</ele>
        <time>2020-06-24T07:33:11.115Z</time>
      </trkpt>
      <trkpt lat="48.41385" lon="7.3106">
        <ele>815</ele>
        <time>2020-06-24T07:33:12.115Z</time>
      </trkpt>
      <trkpt lat="48.41387" lon="7.3106">
        <ele>815</ele>
        <time>2020-06-24T07:33:13.116Z</time>
      </trkpt>
      <trkpt lat="48.41388" lon="7.31061">
        <ele>815</ele>
        <time>2020-06-24T07:33:14.116Z</time>
      </trkpt>
      <trkpt lat="48.4139" lon="7.31061">
        <ele>815</ele>
        <time>2020-06-24T07:33:15.115Z</time>
      </trkpt>
      <trkpt lat="48.41392" lon="7.3106">
        <ele>815</ele>
        <time>2020-06-24T07:33:16.115Z</time>
      </trkpt>
      <trkpt lat="48.41394" lon="7.3106">
        <ele>815</ele>
        <time>2020-06-24T07:33:17.116Z</time>
      </trkpt>
      <trkpt lat="48.41396" lon="7.3106">
        <ele>815</ele>
        <time>2020-06-24T07:33:18.116Z</time>
      </trkpt>
      <trkpt lat="48.41397" lon="7.3106">
        <ele>814</ele>
        <time>2020-06-24T07:33:19.115Z</time>
      </trkpt>
      <trkpt lat="48.41398" lon="7.31061">
        <ele>814</ele>
        <time>2020-06-24T07:33:20.115Z</time>
      </trkpt>
      <trkpt lat="48.41399" lon="7.31061">
        <ele>814</ele>
        <time>2020-06-24T07:33:21.116Z</time>
      </trkpt>
      <trkpt lat="48.41401" lon="7.3106">
        <ele>814</ele>
        <time>2020-06-24T07:33:22.116Z</time>
      </trkpt>
      <trkpt lat="48.41402" lon="7.3106">
        <ele>814</ele>
        <time>2020-06-24T07:33:23.115Z</time>
      </trkpt>
      <trkpt lat="48.41403" lon="7.3106">
        <ele>814</ele>
        <time>2020-06-24T07:33:24.116Z</time>
      </trkpt>
      <trkpt lat="48.41405" lon="7.31059">
        <ele>815</ele>
        <time>2020-06-24T07:33:25.116Z</time>
      </trkpt>
      <trkpt lat="48.41406" lon="7.31059">
        <ele>815</ele>
        <time>2020-06-24T07:33:26.115Z</time>
      </trkpt>
      <trkpt lat="48.41408" lon="7.31058">
        <ele>816</ele>
        <time>2020-06-24T07:33:27.116Z</time>
      </trkpt>
      <trkpt lat="48.4141" lon="7.31056">
        <ele>817</ele>
        <time>2020-06-24T07:33:28.116Z</time>
      </trkpt>
      <trkpt lat="48.41412" lon="7.31055">
        <ele>818</ele>
        <time>2020-06-24T07:33:29.115Z</time>
      </trkpt>
      <trkpt lat="48.41413" lon="7.31054">
        <ele>819</ele>
        <time>2020-06-24T07:33:30.115Z</time>
      </trkpt>
      <trkpt lat="48.41413" lon="7.31053">
        <ele>819</ele>
        <time>2020-06-24T07:33:31.115Z</time>
      </trkpt>
      <trkpt lat="48.41415" lon="7.31052">
        <ele>820</ele>
        <time>2020-06-24T07:33:32.116Z</time>
      </trkpt>
      <trkpt lat="48.41416" lon="7.3105">
        <ele>820</ele>
        <time>2020-06-24T07:33:33.115Z</time>
      </trkpt>
      <trkpt lat="48.41418" lon="7.31049">
        <ele>820</ele>
        <time>2020-06-24T07:33:34.116Z</time>
      </trkpt>
      <trkpt lat="48.41419" lon="7.31048">
        <ele>821</ele>
        <time>2020-06-24T07:33:35.115Z</time>
      </trkpt>
      <trkpt lat="48.41421" lon="7.31048">
        <ele>821</ele>
        <time>2020-06-24T07:33:36.115Z</time>
      </trkpt>
      <trkpt lat="48.41422" lon="7.31047">
        <ele>822</ele>
        <time>2020-06-24T07:33:37.116Z</time>
      </trkpt>
      <trkpt lat="48.41423" lon="7.31046">
        <ele>822</ele>
        <time>2020-06-24T07:33:38.116Z</time>
      </trkpt>
      <trkpt lat="48.41424" lon="7.31046">
        <ele>823</ele>
        <time>2020-06-24T07:33:39.116Z</time>
      </trkpt>
      <trkpt lat="48.41425" lon="7.31045">
        <ele>823</ele>
        <time>2020-06-24T07:33:40.116Z</time>
      </trkpt>
      <trkpt lat="48.41426" lon="7.31045">
        <ele>823</ele>
        <time>2020-06-24T07:33:41.115Z</time>
      </trkpt>
      <trkpt lat="48.41427" lon="7.31045">
        <ele>823</ele>
        <time>2020-06-24T07:33:42.116Z</time>
      </trkpt>
      <trkpt lat="48.41429" lon="7.31045">
        <ele>823</ele>
        <time>2020-06-24T07:33:43.116Z</time>
      </trkpt>
      <trkpt lat="48.41431" lon="7.31045">
        <ele>823</ele>
        <time>2020-06-24T07:33:44.116Z</time>
      </trkpt>
      <trkpt lat="48.41433" lon="7.31043">
        <ele>823</ele>
        <time>2020-06-24T07:33:45.116Z</time>
      </trkpt>
      <trkpt lat="48.41434" lon="7.31041">
        <ele>823</ele>
        <time>2020-06-24T07:33:46.115Z</time>
      </trkpt>
      <trkpt lat="48.41434" lon="7.31041">
        <ele>823</ele>
        <time>2020-06-24T07:33:47.116Z</time>
      </trkpt>
      <trkpt lat="48.41436" lon="7.31039">
        <ele>824</ele>
        <time>2020-06-24T07:33:48.116Z</time>
      </trkpt>
      <trkpt lat="48.41437" lon="7.31038">
        <ele>824</ele>
        <time>2020-06-24T07:33:49.116Z</time>
      </trkpt>
      <trkpt lat="48.41438" lon="7.31037">
        <ele>824</ele>
        <time>2020-06-24T07:33:50.115Z</time>
      </trkpt>
      <trkpt lat="48.41438" lon="7.31036">
        <ele>823</ele>
        <time>2020-06-24T07:33:51.115Z</time>
      </trkpt>
      <trkpt lat="48.41439" lon="7.31035">
        <ele>823</ele>
        <time>2020-06-24T07:33:52.116Z</time>
      </trkpt>
      <trkpt lat="48.41441" lon="7.31034">
        <ele>822</ele>
        <time>2020-06-24T07:33:53.116Z</time>
      </trkpt>
      <trkpt lat="48.41443" lon="7.31034">
        <ele>821</ele>
        <time>2020-06-24T07:33:54.116Z</time>
      </trkpt>
      <trkpt lat="48.41444" lon="7.31033">
        <ele>820</ele>
        <time>2020-06-24T07:33:55.116Z</time>
      </trkpt>
      <trkpt lat="48.41445" lon="7.31032">
        <ele>820</ele>
        <time>2020-06-24T07:33:56.116Z</time>
      </trkpt>
      <trkpt lat="48.41447" lon="7.3103">
        <ele>819</ele>
        <time>2020-06-24T07:33:57.116Z</time>
      </trkpt>
      <trkpt lat="48.41448" lon="7.3103">
        <ele>819</ele>
        <time>2020-06-24T07:33:58.115Z</time>
      </trkpt>
      <trkpt lat="48.41449" lon="7.31029">
        <ele>818</ele>
        <time>2020-06-24T07:33:59.116Z</time>
      </trkpt>
      <trkpt lat="48.4145" lon="7.31028">
        <ele>819</ele>
        <time>2020-06-24T07:34:00.115Z</time>
      </trkpt>
      <trkpt lat="48.41451" lon="7.31027">
        <ele>819</ele>
        <time>2020-06-24T07:34:01.116Z</time>
      </trkpt>
      <trkpt lat="48.41453" lon="7.31027">
        <ele>820</ele>
        <time>2020-06-24T07:34:02.115Z</time>
      </trkpt>
      <trkpt lat="48.41455" lon="7.31026">
        <ele>820</ele>
        <time>2020-06-24T07:34:03.116Z</time>
      </trkpt>
      <trkpt lat="48.41456" lon="7.31025">
        <ele>821</ele>
        <time>2020-06-24T07:34:04.116Z</time>
      </trkpt>
      <trkpt lat="48.41458" lon="7.31024">
        <ele>821</ele>
        <time>2020-06-24T07:34:05.116Z</time>
      </trkpt>
      <trkpt lat="48.41459" lon="7.31024">
        <ele>821</ele>
        <time>2020-06-24T07:34:06.115Z</time>
      </trkpt>
      <trkpt lat="48.4146" lon="7.31023">
        <ele>822</ele>
        <time>2020-06-24T07:34:07.116Z</time>
      </trkpt>
      <trkpt lat="48.41461" lon="7.31022">
        <ele>822</ele>
        <time>2020-06-24T07:34:08.115Z</time>
      </trkpt>
      <trkpt lat="48.41463" lon="7.31021">
        <ele>822</ele>
        <time>2020-06-24T07:34:09.115Z</time>
      </trkpt>
      <trkpt lat="48.41464" lon="7.3102">
        <ele>823</ele>
        <time>2020-06-24T07:34:10.115Z</time>
      </trkpt>
      <trkpt lat="48.41465" lon="7.31019">
        <ele>823</ele>
        <time>2020-06-24T07:34:11.116Z</time>
      </trkpt>
      <trkpt lat="48.41467" lon="7.31017">
        <ele>824</ele>
        <time>2020-06-24T07:34:12.116Z</time>
      </trkpt>
      <trkpt lat="48.41467" lon="7.31016">
        <ele>824</ele>
        <time>2020-06-24T07:34:13.116Z</time>
      </trkpt>
      <trkpt lat="48.41468" lon="7.31015">
        <ele>825</ele>
        <time>2020-06-24T07:34:14.115Z</time>
      </trkpt>
      <trkpt lat="48.41469" lon="7.31014">
        <ele>825</ele>
        <time>2020-06-24T07:34:15.116Z</time>
      </trkpt>
      <trkpt lat="48.41471" lon="7.31012">
        <ele>825</ele>
        <time>2020-06-24T07:34:16.116Z</time>
      </trkpt>
      <trkpt lat="48.41472" lon="7.31011">
        <ele>826</ele>
        <time>2020-06-24T07:34:17.116Z</time>
      </trkpt>
      <trkpt lat="48.41474" lon="7.3101">
        <ele>825</ele>
        <time>2020-06-24T07:34:18.115Z</time>
      </trkpt>
      <trkpt lat="48.41476" lon="7.31008">
        <ele>825</ele>
        <time>2020-06-24T07:34:19.116Z</time>
      </trkpt>
      <trkpt lat="48.41478" lon="7.31006">
        <ele>825</ele>
        <time>2020-06-24T07:34:20.116Z</time>
      </trkpt>
      <trkpt lat="48.41479" lon="7.31005">
        <ele>825</ele>
        <time>2020-06-24T07:34:21.116Z</time>
      </trkpt>
      <trkpt lat="48.4148" lon="7.31004">
        <ele>825</ele>
        <time>2020-06-24T07:34:22.115Z</time>
      </trkpt>
      <trkpt lat="48.41481" lon="7.31004">
        <ele>824</ele>
        <time>2020-06-24T07:34:23.116Z</time>
      </trkpt>
      <trkpt lat="48.41481" lon="7.31003">
        <ele>824</ele>
        <time>2020-06-24T07:34:24.116Z</time>
      </trkpt>
      <trkpt lat="48.41482" lon="7.31002">
        <ele>824</ele>
        <time>2020-06-24T07:34:25.116Z</time>
      </trkpt>
      <trkpt lat="48.41484" lon="7.31001">
        <ele>824</ele>
        <time>2020-06-24T07:34:26.115Z</time>
      </trkpt>
      <trkpt lat="48.41485" lon="7.31">
        <ele>824</ele>
        <time>2020-06-24T07:34:27.116Z</time>
      </trkpt>
      <trkpt lat="48.41487" lon="7.30999">
        <ele>824</ele>
        <time>2020-06-24T07:34:28.116Z</time>
      </trkpt>
      <trkpt lat="48.41489" lon="7.30999">
        <ele>824</ele>
        <time>2020-06-24T07:34:29.116Z</time>
      </trkpt>
      <trkpt lat="48.4149" lon="7.30998">
        <ele>824</ele>
        <time>2020-06-24T07:34:30.116Z</time>
      </trkpt>
      <trkpt lat="48.41491" lon="7.30997">
        <ele>824</ele>
        <time>2020-06-24T07:34:31.115Z</time>
      </trkpt>
      <trkpt lat="48.41492" lon="7.30997">
        <ele>824</ele>
        <time>2020-06-24T07:34:32.116Z</time>
      </trkpt>
      <trkpt lat="48.41493" lon="7.30996">
        <ele>824</ele>
        <time>2020-06-24T07:34:33.116Z</time>
      </trkpt>
      <trkpt lat="48.41494" lon="7.30996">
        <ele>824</ele>
        <time>2020-06-24T07:34:34.115Z</time>
      </trkpt>
      <trkpt lat="48.41495" lon="7.30995">
        <ele>824</ele>
        <time>2020-06-24T07:34:35.115Z</time>
      </trkpt>
      <trkpt lat="48.41497" lon="7.30994">
        <ele>824</ele>
        <time>2020-06-24T07:34:36.116Z</time>
      </trkpt>
      <trkpt lat="48.41498" lon="7.30993">
        <ele>824</ele>
        <time>2020-06-24T07:34:37.115Z</time>
      </trkpt>
      <trkpt lat="48.415" lon="7.30993">
        <ele>824</ele>
        <time>2020-06-24T07:34:38.116Z</time>
      </trkpt>
      <trkpt lat="48.41501" lon="7.30992">
        <ele>824</ele>
        <time>2020-06-24T07:34:39.116Z</time>
      </trkpt>
      <trkpt lat="48.41502" lon="7.3099">
        <ele>824</ele>
        <time>2020-06-24T07:34:40.116Z</time>
      </trkpt>
      <trkpt lat="48.41503" lon="7.30988">
        <ele>825</ele>
        <time>2020-06-24T07:34:41.116Z</time>
      </trkpt>
      <trkpt lat="48.41504" lon="7.30987">
        <ele>825</ele>
        <time>2020-06-24T07:34:42.116Z</time>
      </trkpt>
      <trkpt lat="48.41505" lon="7.30986">
        <ele>825</ele>
        <time>2020-06-24T07:34:43.116Z</time>
      </trkpt>
      <trkpt lat="48.41506" lon="7.30985">
        <ele>825</ele>
        <time>2020-06-24T07:34:44.116Z</time>
      </trkpt>
      <trkpt lat="48.41507" lon="7.30985">
        <ele>826</ele>
        <time>2020-06-24T07:34:45.116Z</time>
      </trkpt>
      <trkpt lat="48.41508" lon="7.30984">
        <ele>826</ele>
        <time>2020-06-24T07:34:46.116Z</time>
      </trkpt>
      <trkpt lat="48.41509" lon="7.30983">
        <ele>826</ele>
        <time>2020-06-24T07:34:47.115Z</time>
      </trkpt>
      <trkpt lat="48.4151" lon="7.30982">
        <ele>826</ele>
        <time>2020-06-24T07:34:48.116Z</time>
      </trkpt>
      <trkpt lat="48.41512" lon="7.30981">
        <ele>825</ele>
        <time>2020-06-24T07:34:49.116Z</time>
      </trkpt>
      <trkpt lat="48.41513" lon="7.3098">
        <ele>825</ele>
        <time>2020-06-24T07:34:50.115Z</time>
      </trkpt>
      <trkpt lat="48.41513" lon="7.3098">
        <ele>824</ele>
        <time>2020-06-24T07:34:51.116Z</time>
      </trkpt>
      <trkpt lat="48.41514" lon="7.30979">
        <ele>824</ele>
        <time>2020-06-24T07:34:52.116Z</time>
      </trkpt>
      <trkpt lat="48.41515" lon="7.30978">
        <ele>823</ele>
        <time>2020-06-24T07:34:53.116Z</time>
      </trkpt>
      <trkpt lat="48.41515" lon="7.30977">
        <ele>822</ele>
        <time>2020-06-24T07:34:54.115Z</time>
      </trkpt>
      <trkpt lat="48.41516" lon="7.30976">
        <ele>822</ele>
        <time>2020-06-24T07:34:55.115Z</time>
      </trkpt>
      <trkpt lat="48.41517" lon="7.30975">
        <ele>822</ele>
        <time>2020-06-24T07:34:56.116Z</time>
      </trkpt>
      <trkpt lat="48.41518" lon="7.30974">
        <ele>821</ele>
        <time>2020-06-24T07:34:57.116Z</time>
      </trkpt>
      <trkpt lat="48.41518" lon="7.30973">
        <ele>821</ele>
        <time>2020-06-24T07:34:58.116Z</time>
      </trkpt>
      <trkpt lat="48.41519" lon="7.30972">
        <ele>820</ele>
        <time>2020-06-24T07:34:59.115Z</time>
      </trkpt>
      <trkpt lat="48.4152" lon="7.30971">
        <ele>820</ele>
        <time>2020-06-24T07:35:00.115Z</time>
      </trkpt>
      <trkpt lat="48.41522" lon="7.30969">
        <ele>820</ele>
        <time>2020-06-24T07:35:01.116Z</time>
      </trkpt>
      <trkpt lat="48.41524" lon="7.30967">
        <ele>821</ele>
        <time>2020-06-24T07:35:02.116Z</time>
      </trkpt>
      <trkpt lat="48.41525" lon="7.30965">
        <ele>821</ele>
        <time>2020-06-24T07:35:03.116Z</time>
      </trkpt>
      <trkpt lat="48.41527" lon="7.30964">
        <ele>822</ele>
        <time>2020-06-24T07:35:04.116Z</time>
      </trkpt>
      <trkpt lat="48.41528" lon="7.30963">
        <ele>823</ele>
        <time>2020-06-24T07:35:05.116Z</time>
      </trkpt>
      <trkpt lat="48.41529" lon="7.30962">
        <ele>823</ele>
        <time>2020-06-24T07:35:06.115Z</time>
      </trkpt>
      <trkpt lat="48.4153" lon="7.30961">
        <ele>824</ele>
        <time>2020-06-24T07:35:07.116Z</time>
      </trkpt>
      <trkpt lat="48.41532" lon="7.3096">
        <ele>825</ele>
        <time>2020-06-24T07:35:08.116Z</time>
      </trkpt>
      <trkpt lat="48.41533" lon="7.30959">
        <ele>825</ele>
        <time>2020-06-24T07:35:09.116Z</time>
      </trkpt>
      <trkpt lat="48.41533" lon="7.30958">
        <ele>826</ele>
        <time>2020-06-24T07:35:10.116Z</time>
      </trkpt>
      <trkpt lat="48.41534" lon="7.30957">
        <ele>827</ele>
        <time>2020-06-24T07:35:11.116Z</time>
      </trkpt>
      <trkpt lat="48.41534" lon="7.30956">
        <ele>827</ele>
        <time>2020-06-24T07:35:12.116Z</time>
      </trkpt>
      <trkpt lat="48.41535" lon="7.30955">
        <ele>828</ele>
        <time>2020-06-24T07:35:13.116Z</time>
      </trkpt>
      <trkpt lat="48.41536" lon="7.30954">
        <ele>829</ele>
        <time>2020-06-24T07:35:14.116Z</time>
      </trkpt>
      <trkpt lat="48.41536" lon="7.30953">
        <ele>829</ele>
        <time>2020-06-24T07:35:15.116Z</time>
      </trkpt>
      <trkpt lat="48.41537" lon="7.30951">
        <ele>829</ele>
        <time>2020-06-24T07:35:16.115Z</time>
      </trkpt>
      <trkpt lat="48.41537" lon="7.3095">
        <ele>829</ele>
        <time>2020-06-24T07:35:17.116Z</time>
      </trkpt>
      <trkpt lat="48.41538" lon="7.30948">
        <ele>830</ele>
        <time>2020-06-24T07:35:18.116Z</time>
      </trkpt>
      <trkpt lat="48.41539" lon="7.30947">
        <ele>830</ele>
        <time>2020-06-24T07:35:19.116Z</time>
      </trkpt>
      <trkpt lat="48.4154" lon="7.30945">
        <ele>830</ele>
        <time>2020-06-24T07:35:20.116Z</time>
      </trkpt>
      <trkpt lat="48.41541" lon="7.30942">
        <ele>831</ele>
        <time>2020-06-24T07:35:21.116Z</time>
      </trkpt>
      <trkpt lat="48.41542" lon="7.3094">
        <ele>831</ele>
        <time>2020-06-24T07:35:22.116Z</time>
      </trkpt>
      <trkpt lat="48.41544" lon="7.30939">
        <ele>831</ele>
        <time>2020-06-24T07:35:23.116Z</time>
      </trkpt>
      <trkpt lat="48.41545" lon="7.30937">
        <ele>831</ele>
        <time>2020-06-24T07:35:24.116Z</time>
      </trkpt>
      <trkpt lat="48.41545" lon="7.30936">
        <ele>831</ele>
        <time>2020-06-24T07:35:25.116Z</time>
      </trkpt>
      <trkpt lat="48.41546" lon="7.30933">
        <ele>830</ele>
        <time>2020-06-24T07:35:26.116Z</time>
      </trkpt>
      <trkpt lat="48.41546" lon="7.30932">
        <ele>831</ele>
        <time>2020-06-24T07:35:27.116Z</time>
      </trkpt>
      <trkpt lat="48.41546" lon="7.3093">
        <ele>831</ele>
        <time>2020-06-24T07:35:28.116Z</time>
      </trkpt>
      <trkpt lat="48.41547" lon="7.30929">
        <ele>831</ele>
        <time>2020-06-24T07:35:29.115Z</time>
      </trkpt>
      <trkpt lat="48.41547" lon="7.30928">
        <ele>831</ele>
        <time>2020-06-24T07:35:30.115Z</time>
      </trkpt>
      <trkpt lat="48.41548" lon="7.30925">
        <ele>831</ele>
        <time>2020-06-24T07:35:31.116Z</time>
      </trkpt>
      <trkpt lat="48.41549" lon="7.30923">
        <ele>831</ele>
        <time>2020-06-24T07:35:32.115Z</time>
      </trkpt>
      <trkpt lat="48.4155" lon="7.30921">
        <ele>831</ele>
        <time>2020-06-24T07:35:33.115Z</time>
      </trkpt>
      <trkpt lat="48.41551" lon="7.30918">
        <ele>831</ele>
        <time>2020-06-24T07:35:34.116Z</time>
      </trkpt>
      <trkpt lat="48.41552" lon="7.30916">
        <ele>831</ele>
        <time>2020-06-24T07:35:35.116Z</time>
      </trkpt>
      <trkpt lat="48.41553" lon="7.30914">
        <ele>831</ele>
        <time>2020-06-24T07:35:36.116Z</time>
      </trkpt>
      <trkpt lat="48.41554" lon="7.30913">
        <ele>832</ele>
        <time>2020-06-24T07:35:37.115Z</time>
      </trkpt>
      <trkpt lat="48.41555" lon="7.30911">
        <ele>832</ele>
        <time>2020-06-24T07:35:38.115Z</time>
      </trkpt>
      <trkpt lat="48.41556" lon="7.3091">
        <ele>832</ele>
        <time>2020-06-24T07:35:39.116Z</time>
      </trkpt>
      <trkpt lat="48.41557" lon="7.30908">
        <ele>832</ele>
        <time>2020-06-24T07:35:40.116Z</time>
      </trkpt>
      <trkpt lat="48.41558" lon="7.30906">
        <ele>832</ele>
        <time>2020-06-24T07:35:41.115Z</time>
      </trkpt>
      <trkpt lat="48.41559" lon="7.30904">
        <ele>832</ele>
        <time>2020-06-24T07:35:42.116Z</time>
      </trkpt>
      <trkpt lat="48.4156" lon="7.30901">
        <ele>833</ele>
        <time>2020-06-24T07:35:43.116Z</time>
      </trkpt>
      <trkpt lat="48.41561" lon="7.30899">
        <ele>833</ele>
        <time>2020-06-24T07:35:44.116Z</time>
      </trkpt>
      <trkpt lat="48.41561" lon="7.30897">
        <ele>834</ele>
        <time>2020-06-24T07:35:45.115Z</time>
      </trkpt>
      <trkpt lat="48.41562" lon="7.30895">
        <ele>834</ele>
        <time>2020-06-24T07:35:46.116Z</time>
      </trkpt>
      <trkpt lat="48.41563" lon="7.30892">
        <ele>835</ele>
        <time>2020-06-24T07:35:47.116Z</time>
      </trkpt>
      <trkpt lat="48.41564" lon="7.3089">
        <ele>835</ele>
        <time>2020-06-24T07:35:48.115Z</time>
      </trkpt>
      <trkpt lat="48.41565" lon="7.30887">
        <ele>835</ele>
        <time>2020-06-24T07:35:49.116Z</time>
      </trkpt>
      <trkpt lat="48.41566" lon="7.30885">
        <ele>835</ele>
        <time>2020-06-24T07:35:50.115Z</time>
      </trkpt>
      <trkpt lat="48.41567" lon="7.30883">
        <ele>835</ele>
        <time>2020-06-24T07:35:51.115Z</time>
      </trkpt>
      <trkpt lat="48.41568" lon="7.30881">
        <ele>835</ele>
        <time>2020-06-24T07:35:52.116Z</time>
      </trkpt>
      <trkpt lat="48.41568" lon="7.3088">
        <ele>835</ele>
        <time>2020-06-24T07:35:53.116Z</time>
      </trkpt>
      <trkpt lat="48.41569" lon="7.30879">
        <ele>835</ele>
        <time>2020-06-24T07:35:54.116Z</time>
      </trkpt>
      <trkpt lat="48.41569" lon="7.30877">
        <ele>834</ele>
        <time>2020-06-24T07:35:55.116Z</time>
      </trkpt>
      <trkpt lat="48.4157" lon="7.30875">
        <ele>834</ele>
        <time>2020-06-24T07:35:56.116Z</time>
      </trkpt>
      <trkpt lat="48.4157" lon="7.30874">
        <ele>833</ele>
        <time>2020-06-24T07:35:57.116Z</time>
      </trkpt>
      <trkpt lat="48.41571" lon="7.30871">
        <ele>833</ele>
        <time>2020-06-24T07:35:58.116Z</time>
      </trkpt>
      <trkpt lat="48.41572" lon="7.30869">
        <ele>833</ele>
        <time>2020-06-24T07:35:59.116Z</time>
      </trkpt>
      <trkpt lat="48.41573" lon="7.30868">
        <ele>832</ele>
        <time>2020-06-24T07:36:00.116Z</time>
      </trkpt>
      <trkpt lat="48.41573" lon="7.30867">
        <ele>832</ele>
        <time>2020-06-24T07:36:01.116Z</time>
      </trkpt>
      <trkpt lat="48.41574" lon="7.30864">
        <ele>832</ele>
        <time>2020-06-24T07:36:02.115Z</time>
      </trkpt>
      <trkpt lat="48.41574" lon="7.30862">
        <ele>832</ele>
        <time>2020-06-24T07:36:03.116Z</time>
      </trkpt>
      <trkpt lat="48.41575" lon="7.30859">
        <ele>832</ele>
        <time>2020-06-24T07:36:04.115Z</time>
      </trkpt>
      <trkpt lat="48.41575" lon="7.30857">
        <ele>832</ele>
        <time>2020-06-24T07:36:05.115Z</time>
      </trkpt>
      <trkpt lat="48.41576" lon="7.30856">
        <ele>832</ele>
        <time>2020-06-24T07:36:06.116Z</time>
      </trkpt>
      <trkpt lat="48.41577" lon="7.30855">
        <ele>832</ele>
        <time>2020-06-24T07:36:07.116Z</time>
      </trkpt>
      <trkpt lat="48.41579" lon="7.30854">
        <ele>832</ele>
        <time>2020-06-24T07:36:08.116Z</time>
      </trkpt>
      <trkpt lat="48.4158" lon="7.30853">
        <ele>832</ele>
        <time>2020-06-24T07:36:09.116Z</time>
      </trkpt>
      <trkpt lat="48.41582" lon="7.30852">
        <ele>833</ele>
        <time>2020-06-24T07:36:10.115Z</time>
      </trkpt>
      <trkpt lat="48.41583" lon="7.3085">
        <ele>833</ele>
        <time>2020-06-24T07:36:11.116Z</time>
      </trkpt>
      <trkpt lat="48.41584" lon="7.30849">
        <ele>833</ele>
        <time>2020-06-24T07:36:12.116Z</time>
      </trkpt>
      <trkpt lat="48.41584" lon="7.30847">
        <ele>834</ele>
        <time>2020-06-24T07:36:13.115Z</time>
      </trkpt>
      <trkpt lat="48.41585" lon="7.30846">
        <ele>834</ele>
        <time>2020-06-24T07:36:14.116Z</time>
      </trkpt>
      <trkpt lat="48.41585" lon="7.30845">
        <ele>833</ele>
        <time>2020-06-24T07:36:15.116Z</time>
      </trkpt>
      <trkpt lat="48.41587" lon="7.30843">
        <ele>834</ele>
        <time>2020-06-24T07:36:16.116Z</time>
      </trkpt>
      <trkpt lat="48.41588" lon="7.30842">
        <ele>834</ele>
        <time>2020-06-24T07:36:17.116Z</time>
      </trkpt>
      <trkpt lat="48.41589" lon="7.3084">
        <ele>834</ele>
        <time>2020-06-24T07:36:18.115Z</time>
      </trkpt>
      <trkpt lat="48.4159" lon="7.30839">
        <ele>834</ele>
        <time>2020-06-24T07:36:19.116Z</time>
      </trkpt>
      <trkpt lat="48.41591" lon="7.30837">
        <ele>834</ele>
        <time>2020-06-24T07:36:20.116Z</time>
      </trkpt>
      <trkpt lat="48.41592" lon="7.30836">
        <ele>835</ele>
        <time>2020-06-24T07:36:21.116Z</time>
      </trkpt>
      <trkpt lat="48.41593" lon="7.30834">
        <ele>835</ele>
        <time>2020-06-24T07:36:22.116Z</time>
      </trkpt>
      <trkpt lat="48.41594" lon="7.30832">
        <ele>835</ele>
        <time>2020-06-24T07:36:23.116Z</time>
      </trkpt>
      <trkpt lat="48.41594" lon="7.3083">
        <ele>836</ele>
        <time>2020-06-24T07:36:24.116Z</time>
      </trkpt>
      <trkpt lat="48.41594" lon="7.30828">
        <ele>836</ele>
        <time>2020-06-24T07:36:25.116Z</time>
      </trkpt>
      <trkpt lat="48.41595" lon="7.30826">
        <ele>836</ele>
        <time>2020-06-24T07:36:26.116Z</time>
      </trkpt>
      <trkpt lat="48.41595" lon="7.30825">
        <ele>837</ele>
        <time>2020-06-24T07:36:27.116Z</time>
      </trkpt>
      <trkpt lat="48.41596" lon="7.30823">
        <ele>837</ele>
        <time>2020-06-24T07:36:28.116Z</time>
      </trkpt>
      <trkpt lat="48.41597" lon="7.30822">
        <ele>837</ele>
        <time>2020-06-24T07:36:29.116Z</time>
      </trkpt>
      <trkpt lat="48.41598" lon="7.30821">
        <ele>837</ele>
        <time>2020-06-24T07:36:30.115Z</time>
      </trkpt>
      <trkpt lat="48.41599" lon="7.3082">
        <ele>837</ele>
        <time>2020-06-24T07:36:31.115Z</time>
      </trkpt>
      <trkpt lat="48.41599" lon="7.30818">
        <ele>837</ele>
        <time>2020-06-24T07:36:32.116Z</time>
      </trkpt>
      <trkpt lat="48.416" lon="7.30816">
        <ele>836</ele>
        <time>2020-06-24T07:36:33.116Z</time>
      </trkpt>
      <trkpt lat="48.41601" lon="7.30815">
        <ele>836</ele>
        <time>2020-06-24T07:36:34.116Z</time>
      </trkpt>
      <trkpt lat="48.41602" lon="7.30813">
        <ele>836</ele>
        <time>2020-06-24T07:36:35.115Z</time>
      </trkpt>
      <trkpt lat="48.41603" lon="7.30811">
        <ele>836</ele>
        <time>2020-06-24T07:36:36.116Z</time>
      </trkpt>
      <trkpt lat="48.41604" lon="7.30809">
        <ele>837</ele>
        <time>2020-06-24T07:36:37.116Z</time>
      </trkpt>
      <trkpt lat="48.41604" lon="7.30807">
        <ele>837</ele>
        <time>2020-06-24T07:36:38.116Z</time>
      </trkpt>
      <trkpt lat="48.41605" lon="7.30806">
        <ele>837</ele>
        <time>2020-06-24T07:36:39.115Z</time>
      </trkpt>
      <trkpt lat="48.41606" lon="7.30804">
        <ele>838</ele>
        <time>2020-06-24T07:36:40.116Z</time>
      </trkpt>
      <trkpt lat="48.41607" lon="7.30802">
        <ele>838</ele>
        <time>2020-06-24T07:36:41.116Z</time>
      </trkpt>
      <trkpt lat="48.41608" lon="7.308">
        <ele>838</ele>
        <time>2020-06-24T07:36:42.116Z</time>
      </trkpt>
      <trkpt lat="48.41608" lon="7.30798">
        <ele>839</ele>
        <time>2020-06-24T07:36:43.116Z</time>
      </trkpt>
      <trkpt lat="48.41609" lon="7.30797">
        <ele>839</ele>
        <time>2020-06-24T07:36:44.116Z</time>
      </trkpt>
      <trkpt lat="48.41609" lon="7.30796">
        <ele>839</ele>
        <time>2020-06-24T07:36:45.116Z</time>
      </trkpt>
      <trkpt lat="48.4161" lon="7.30795">
        <ele>839</ele>
        <time>2020-06-24T07:36:46.116Z</time>
      </trkpt>
      <trkpt lat="48.41611" lon="7.30794">
        <ele>838</ele>
        <time>2020-06-24T07:36:47.116Z</time>
      </trkpt>
      <trkpt lat="48.41612" lon="7.30792">
        <ele>838</ele>
        <time>2020-06-24T07:36:48.116Z</time>
      </trkpt>
      <trkpt lat="48.41613" lon="7.30791">
        <ele>838</ele>
        <time>2020-06-24T07:36:49.116Z</time>
      </trkpt>
      <trkpt lat="48.41614" lon="7.30789">
        <ele>838</ele>
        <time>2020-06-24T07:36:50.115Z</time>
      </trkpt>
      <trkpt lat="48.41614" lon="7.30786">
        <ele>838</ele>
        <time>2020-06-24T07:36:51.115Z</time>
      </trkpt>
      <trkpt lat="48.41615" lon="7.30784">
        <ele>838</ele>
        <time>2020-06-24T07:36:52.116Z</time>
      </trkpt>
      <trkpt lat="48.41616" lon="7.30782">
        <ele>838</ele>
        <time>2020-06-24T07:36:53.116Z</time>
      </trkpt>
      <trkpt lat="48.41617" lon="7.30781">
        <ele>838</ele>
        <time>2020-06-24T07:36:54.115Z</time>
      </trkpt>
      <trkpt lat="48.41618" lon="7.30778">
        <ele>838</ele>
        <time>2020-06-24T07:36:55.116Z</time>
      </trkpt>
      <trkpt lat="48.41619" lon="7.30776">
        <ele>839</ele>
        <time>2020-06-24T07:36:56.116Z</time>
      </trkpt>
      <trkpt lat="48.41619" lon="7.30774">
        <ele>839</ele>
        <time>2020-06-24T07:36:57.115Z</time>
      </trkpt>
      <trkpt lat="48.4162" lon="7.30772">
        <ele>839</ele>
        <time>2020-06-24T07:36:58.116Z</time>
      </trkpt>
      <trkpt lat="48.41621" lon="7.3077">
        <ele>840</ele>
        <time>2020-06-24T07:36:59.116Z</time>
      </trkpt>
      <trkpt lat="48.41622" lon="7.30769">
        <ele>840</ele>
        <time>2020-06-24T07:37:00.115Z</time>
      </trkpt>
      <trkpt lat="48.41622" lon="7.30766">
        <ele>840</ele>
        <time>2020-06-24T07:37:01.116Z</time>
      </trkpt>
      <trkpt lat="48.41622" lon="7.30765">
        <ele>840</ele>
        <time>2020-06-24T07:37:02.116Z</time>
      </trkpt>
      <trkpt lat="48.41622" lon="7.30764">
        <ele>840</ele>
        <time>2020-06-24T07:37:03.116Z</time>
      </trkpt>
      <trkpt lat="48.41623" lon="7.30762">
        <ele>840</ele>
        <time>2020-06-24T07:37:04.115Z</time>
      </trkpt>
      <trkpt lat="48.41624" lon="7.30761">
        <ele>839</ele>
        <time>2020-06-24T07:37:05.115Z</time>
      </trkpt>
      <trkpt lat="48.41624" lon="7.30759">
        <ele>839</ele>
        <time>2020-06-24T07:37:06.115Z</time>
      </trkpt>
      <trkpt lat="48.41625" lon="7.30757">
        <ele>839</ele>
        <time>2020-06-24T07:37:07.116Z</time>
      </trkpt>
      <trkpt lat="48.41625" lon="7.30756">
        <ele>839</ele>
        <time>2020-06-24T07:37:08.116Z</time>
      </trkpt>
      <trkpt lat="48.41626" lon="7.30754">
        <ele>838</ele>
        <time>2020-06-24T07:37:09.116Z</time>
      </trkpt>
      <trkpt lat="48.41627" lon="7.30752">
        <ele>838</ele>
        <time>2020-06-24T07:37:10.116Z</time>
      </trkpt>
      <trkpt lat="48.41628" lon="7.30751">
        <ele>838</ele>
        <time>2020-06-24T07:37:11.116Z</time>
      </trkpt>
      <trkpt lat="48.41629" lon="7.30749">
        <ele>838</ele>
        <time>2020-06-24T07:37:12.115Z</time>
      </trkpt>
      <trkpt lat="48.4163" lon="7.30746">
        <ele>838</ele>
        <time>2020-06-24T07:37:13.116Z</time>
      </trkpt>
      <trkpt lat="48.41633" lon="7.30743">
        <ele>838</ele>
        <time>2020-06-24T07:37:14.116Z</time>
      </trkpt>
      <trkpt lat="48.41634" lon="7.30741">
        <ele>838</ele>
        <time>2020-06-24T07:37:15.115Z</time>
      </trkpt>
      <trkpt lat="48.41635" lon="7.30738">
        <ele>838</ele>
        <time>2020-06-24T07:37:16.115Z</time>
      </trkpt>
      <trkpt lat="48.41636" lon="7.30737">
        <ele>837</ele>
        <time>2020-06-24T07:37:17.116Z</time>
      </trkpt>
      <trkpt lat="48.41637" lon="7.30736">
        <ele>837</ele>
        <time>2020-06-24T07:37:18.116Z</time>
      </trkpt>
      <trkpt lat="48.41638" lon="7.30735">
        <ele>837</ele>
        <time>2020-06-24T07:37:19.115Z</time>
      </trkpt>
      <trkpt lat="48.41638" lon="7.30734">
        <ele>837</ele>
        <time>2020-06-24T07:37:20.116Z</time>
      </trkpt>
      <trkpt lat="48.41639" lon="7.30733">
        <ele>837</ele>
        <time>2020-06-24T07:37:21.116Z</time>
      </trkpt>
      <trkpt lat="48.4164" lon="7.30732">
        <ele>837</ele>
        <time>2020-06-24T07:37:22.115Z</time>
      </trkpt>
      <trkpt lat="48.41641" lon="7.30731">
        <ele>837</ele>
        <time>2020-06-24T07:37:23.115Z</time>
      </trkpt>
      <trkpt lat="48.41642" lon="7.3073">
        <ele>837</ele>
        <time>2020-06-24T07:37:24.116Z</time>
      </trkpt>
      <trkpt lat="48.41644" lon="7.30729">
        <ele>837</ele>
        <time>2020-06-24T07:37:25.116Z</time>
      </trkpt>
      <trkpt lat="48.41645" lon="7.30728">
        <ele>837</ele>
        <time>2020-06-24T07:37:26.115Z</time>
      </trkpt>
      <trkpt lat="48.41646" lon="7.30727">
        <ele>837</ele>
        <time>2020-06-24T07:37:27.116Z</time>
      </trkpt>
      <trkpt lat="48.41647" lon="7.30726">
        <ele>838</ele>
        <time>2020-06-24T07:37:28.115Z</time>
      </trkpt>
      <trkpt lat="48.41648" lon="7.30725">
        <ele>838</ele>
        <time>2020-06-24T07:37:29.116Z</time>
      </trkpt>
      <trkpt lat="48.41649" lon="7.30724">
        <ele>839</ele>
        <time>2020-06-24T07:37:30.116Z</time>
      </trkpt>
      <trkpt lat="48.4165" lon="7.30723">
        <ele>839</ele>
        <time>2020-06-24T07:37:31.116Z</time>
      </trkpt>
      <trkpt lat="48.41652" lon="7.30722">
        <ele>839</ele>
        <time>2020-06-24T07:37:32.116Z</time>
      </trkpt>
      <trkpt lat="48.41653" lon="7.30721">
        <ele>839</ele>
        <time>2020-06-24T07:37:33.115Z</time>
      </trkpt>
      <trkpt lat="48.41654" lon="7.3072">
        <ele>839</ele>
        <time>2020-06-24T07:37:34.116Z</time>
      </trkpt>
      <trkpt lat="48.41655" lon="7.30719">
        <ele>839</ele>
        <time>2020-06-24T07:37:35.116Z</time>
      </trkpt>
      <trkpt lat="48.41656" lon="7.30718">
        <ele>839</ele>
        <time>2020-06-24T07:37:36.116Z</time>
      </trkpt>
      <trkpt lat="48.41657" lon="7.30716">
        <ele>839</ele>
        <time>2020-06-24T07:37:37.115Z</time>
      </trkpt>
      <trkpt lat="48.41658" lon="7.30715">
        <ele>839</ele>
        <time>2020-06-24T07:37:38.116Z</time>
      </trkpt>
      <trkpt lat="48.41659" lon="7.30714">
        <ele>839</ele>
        <time>2020-06-24T07:37:39.116Z</time>
      </trkpt>
      <trkpt lat="48.4166" lon="7.30712">
        <ele>839</ele>
        <time>2020-06-24T07:37:40.115Z</time>
      </trkpt>
      <trkpt lat="48.41661" lon="7.30712">
        <ele>839</ele>
        <time>2020-06-24T07:37:41.116Z</time>
      </trkpt>
      <trkpt lat="48.41662" lon="7.3071">
        <ele>839</ele>
        <time>2020-06-24T07:37:42.116Z</time>
      </trkpt>
      <trkpt lat="48.41664" lon="7.30709">
        <ele>839</ele>
        <time>2020-06-24T07:37:43.116Z</time>
      </trkpt>
      <trkpt lat="48.41665" lon="7.30708">
        <ele>840</ele>
        <time>2020-06-24T07:37:44.116Z</time>
      </trkpt>
      <trkpt lat="48.41666" lon="7.30706">
        <ele>840</ele>
        <time>2020-06-24T07:37:45.116Z</time>
      </trkpt>
      <trkpt lat="48.41668" lon="7.30705">
        <ele>841</ele>
        <time>2020-06-24T07:37:46.116Z</time>
      </trkpt>
      <trkpt lat="48.41669" lon="7.30704">
        <ele>841</ele>
        <time>2020-06-24T07:37:47.116Z</time>
      </trkpt>
      <trkpt lat="48.41671" lon="7.30703">
        <ele>841</ele>
        <time>2020-06-24T07:37:48.116Z</time>
      </trkpt>
      <trkpt lat="48.41673" lon="7.30701">
        <ele>842</ele>
        <time>2020-06-24T07:37:49.116Z</time>
      </trkpt>
      <trkpt lat="48.41674" lon="7.307">
        <ele>842</ele>
        <time>2020-06-24T07:37:50.116Z</time>
      </trkpt>
      <trkpt lat="48.41676" lon="7.30698">
        <ele>842</ele>
        <time>2020-06-24T07:37:51.116Z</time>
      </trkpt>
      <trkpt lat="48.41677" lon="7.30697">
        <ele>842</ele>
        <time>2020-06-24T07:37:52.116Z</time>
      </trkpt>
      <trkpt lat="48.41679" lon="7.30696">
        <ele>843</ele>
        <time>2020-06-24T07:37:53.116Z</time>
      </trkpt>
      <trkpt lat="48.4168" lon="7.30695">
        <ele>843</ele>
        <time>2020-06-24T07:37:54.116Z</time>
      </trkpt>
      <trkpt lat="48.41681" lon="7.30694">
        <ele>843</ele>
        <time>2020-06-24T07:37:55.116Z</time>
      </trkpt>
      <trkpt lat="48.41682" lon="7.30693">
        <ele>843</ele>
        <time>2020-06-24T07:37:56.116Z</time>
      </trkpt>
      <trkpt lat="48.41683" lon="7.30692">
        <ele>843</ele>
        <time>2020-06-24T07:37:57.115Z</time>
      </trkpt>
      <trkpt lat="48.41684" lon="7.30692">
        <ele>843</ele>
        <time>2020-06-24T07:37:58.116Z</time>
      </trkpt>
      <trkpt lat="48.41685" lon="7.30691">
        <ele>843</ele>
        <time>2020-06-24T07:37:59.116Z</time>
      </trkpt>
      <trkpt lat="48.41687" lon="7.3069">
        <ele>843</ele>
        <time>2020-06-24T07:38:00.116Z</time>
      </trkpt>
      <trkpt lat="48.41689" lon="7.30688">
        <ele>843</ele>
        <time>2020-06-24T07:38:01.116Z</time>
      </trkpt>
      <trkpt lat="48.41691" lon="7.30687">
        <ele>843</ele>
        <time>2020-06-24T07:38:02.115Z</time>
      </trkpt>
      <trkpt lat="48.41692" lon="7.30686">
        <ele>844</ele>
        <time>2020-06-24T07:38:03.116Z</time>
      </trkpt>
      <trkpt lat="48.41693" lon="7.30685">
        <ele>844</ele>
        <time>2020-06-24T07:38:04.116Z</time>
      </trkpt>
      <trkpt lat="48.41695" lon="7.30684">
        <ele>844</ele>
        <time>2020-06-24T07:38:05.116Z</time>
      </trkpt>
      <trkpt lat="48.41696" lon="7.30684">
        <ele>844</ele>
        <time>2020-06-24T07:38:06.115Z</time>
      </trkpt>
      <trkpt lat="48.41698" lon="7.30682">
        <ele>844</ele>
        <time>2020-06-24T07:38:07.116Z</time>
      </trkpt>
      <trkpt lat="48.417" lon="7.30681">
        <ele>844</ele>
        <time>2020-06-24T07:38:08.115Z</time>
      </trkpt>
      <trkpt lat="48.41701" lon="7.3068">
        <ele>845</ele>
        <time>2020-06-24T07:38:09.116Z</time>
      </trkpt>
      <trkpt lat="48.41703" lon="7.30678">
        <ele>846</ele>
        <time>2020-06-24T07:38:10.115Z</time>
      </trkpt>
      <trkpt lat="48.41705" lon="7.30677">
        <ele>847</ele>
        <time>2020-06-24T07:38:11.115Z</time>
      </trkpt>
      <trkpt lat="48.41706" lon="7.30675">
        <ele>847</ele>
        <time>2020-06-24T07:38:12.115Z</time>
      </trkpt>
      <trkpt lat="48.41708" lon="7.30674">
        <ele>848</ele>
        <time>2020-06-24T07:38:13.116Z</time>
      </trkpt>
      <trkpt lat="48.4171" lon="7.30673">
        <ele>849</ele>
        <time>2020-06-24T07:38:14.116Z</time>
      </trkpt>
      <trkpt lat="48.41711" lon="7.30673">
        <ele>850</ele>
        <time>2020-06-24T07:38:15.116Z</time>
      </trkpt>
      <trkpt lat="48.41713" lon="7.30672">
        <ele>850</ele>
        <time>2020-06-24T07:38:16.116Z</time>
      </trkpt>
      <trkpt lat="48.41714" lon="7.30672">
        <ele>850</ele>
        <time>2020-06-24T07:38:17.116Z</time>
      </trkpt>
      <trkpt lat="48.41715" lon="7.30671">
        <ele>851</ele>
        <time>2020-06-24T07:38:18.116Z</time>
      </trkpt>
      <trkpt lat="48.41716" lon="7.3067">
        <ele>851</ele>
        <time>2020-06-24T07:38:19.116Z</time>
      </trkpt>
      <trkpt lat="48.41717" lon="7.30669">
        <ele>851</ele>
        <time>2020-06-24T07:38:20.116Z</time>
      </trkpt>
      <trkpt lat="48.41718" lon="7.30668">
        <ele>851</ele>
        <time>2020-06-24T07:38:21.115Z</time>
      </trkpt>
      <trkpt lat="48.41719" lon="7.30667">
        <ele>852</ele>
        <time>2020-06-24T07:38:22.116Z</time>
      </trkpt>
      <trkpt lat="48.41721" lon="7.30665">
        <ele>852</ele>
        <time>2020-06-24T07:38:23.116Z</time>
      </trkpt>
      <trkpt lat="48.41722" lon="7.30664">
        <ele>853</ele>
        <time>2020-06-24T07:38:24.116Z</time>
      </trkpt>
      <trkpt lat="48.41724" lon="7.30663">
        <ele>854</ele>
        <time>2020-06-24T07:38:25.116Z</time>
      </trkpt>
      <trkpt lat="48.41725" lon="7.30663">
        <ele>854</ele>
        <time>2020-06-24T07:38:26.115Z</time>
      </trkpt>
      <trkpt lat="48.41727" lon="7.30663">
        <ele>855</ele>
        <time>2020-06-24T07:38:27.115Z</time>
      </trkpt>
      <trkpt lat="48.41728" lon="7.30663">
        <ele>855</ele>
        <time>2020-06-24T07:38:28.115Z</time>
      </trkpt>
      <trkpt lat="48.41729" lon="7.30663">
        <ele>855</ele>
        <time>2020-06-24T07:38:29.116Z</time>
      </trkpt>
      <trkpt lat="48.4173" lon="7.30663">
        <ele>855</ele>
        <time>2020-06-24T07:38:30.116Z</time>
      </trkpt>
      <trkpt lat="48.41731" lon="7.30662">
        <ele>855</ele>
        <time>2020-06-24T07:38:31.115Z</time>
      </trkpt>
      <trkpt lat="48.41733" lon="7.30661">
        <ele>855</ele>
        <time>2020-06-24T07:38:32.116Z</time>
      </trkpt>
      <trkpt lat="48.41735" lon="7.30661">
        <ele>856</ele>
        <time>2020-06-24T07:38:33.116Z</time>
      </trkpt>
      <trkpt lat="48.41736" lon="7.3066">
        <ele>857</ele>
        <time>2020-06-24T07:38:34.115Z</time>
      </trkpt>
      <trkpt lat="48.41737" lon="7.30659">
        <ele>857</ele>
        <time>2020-06-24T07:38:35.115Z</time>
      </trkpt>
      <trkpt lat="48.41738" lon="7.30658">
        <ele>858</ele>
        <time>2020-06-24T07:38:36.115Z</time>
      </trkpt>
      <trkpt lat="48.41739" lon="7.30658">
        <ele>858</ele>
        <time>2020-06-24T07:38:37.116Z</time>
      </trkpt>
      <trkpt lat="48.41741" lon="7.30658">
        <ele>858</ele>
        <time>2020-06-24T07:38:38.115Z</time>
      </trkpt>
      <trkpt lat="48.41742" lon="7.30657">
        <ele>858</ele>
        <time>2020-06-24T07:38:39.115Z</time>
      </trkpt>
      <trkpt lat="48.41743" lon="7.30657">
        <ele>858</ele>
        <time>2020-06-24T07:38:40.116Z</time>
      </trkpt>
      <trkpt lat="48.41744" lon="7.30656">
        <ele>858</ele>
        <time>2020-06-24T07:38:41.116Z</time>
      </trkpt>
      <trkpt lat="48.41745" lon="7.30656">
        <ele>857</ele>
        <time>2020-06-24T07:38:42.115Z</time>
      </trkpt>
      <trkpt lat="48.41746" lon="7.30655">
        <ele>857</ele>
        <time>2020-06-24T07:38:43.115Z</time>
      </trkpt>
      <trkpt lat="48.41747" lon="7.30654">
        <ele>857</ele>
        <time>2020-06-24T07:38:44.116Z</time>
      </trkpt>
      <trkpt lat="48.41747" lon="7.30654">
        <ele>856</ele>
        <time>2020-06-24T07:38:45.116Z</time>
      </trkpt>
      <trkpt lat="48.41748" lon="7.30654">
        <ele>856</ele>
        <time>2020-06-24T07:38:46.116Z</time>
      </trkpt>
      <trkpt lat="48.41749" lon="7.30653">
        <ele>855</ele>
        <time>2020-06-24T07:38:47.115Z</time>
      </trkpt>
      <trkpt lat="48.4175" lon="7.30653">
        <ele>854</ele>
        <time>2020-06-24T07:38:48.116Z</time>
      </trkpt>
      <trkpt lat="48.4175" lon="7.30652">
        <ele>854</ele>
        <time>2020-06-24T07:38:49.116Z</time>
      </trkpt>
      <trkpt lat="48.41751" lon="7.30651">
        <ele>853</ele>
        <time>2020-06-24T07:38:50.115Z</time>
      </trkpt>
      <trkpt lat="48.41752" lon="7.30651">
        <ele>853</ele>
        <time>2020-06-24T07:38:51.116Z</time>
      </trkpt>
      <trkpt lat="48.41754" lon="7.3065">
        <ele>853</ele>
        <time>2020-06-24T07:38:52.116Z</time>
      </trkpt>
      <trkpt lat="48.41755" lon="7.30649">
        <ele>853</ele>
        <time>2020-06-24T07:38:53.116Z</time>
      </trkpt>
      <trkpt lat="48.41756" lon="7.30648">
        <ele>852</ele>
        <time>2020-06-24T07:38:54.116Z</time>
      </trkpt>
      <trkpt lat="48.41757" lon="7.30647">
        <ele>852</ele>
        <time>2020-06-24T07:38:55.115Z</time>
      </trkpt>
      <trkpt lat="48.41757" lon="7.30646">
        <ele>851</ele>
        <time>2020-06-24T07:38:56.115Z</time>
      </trkpt>
      <trkpt lat="48.41758" lon="7.30645">
        <ele>850</ele>
        <time>2020-06-24T07:38:57.116Z</time>
      </trkpt>
      <trkpt lat="48.41759" lon="7.30645">
        <ele>849</ele>
        <time>2020-06-24T07:38:58.116Z</time>
      </trkpt>
      <trkpt lat="48.4176" lon="7.30644">
        <ele>849</ele>
        <time>2020-06-24T07:38:59.115Z</time>
      </trkpt>
      <trkpt lat="48.41761" lon="7.30643">
        <ele>849</ele>
        <time>2020-06-24T07:39:00.115Z</time>
      </trkpt>
      <trkpt lat="48.41762" lon="7.30642">
        <ele>849</ele>
        <time>2020-06-24T07:39:01.115Z</time>
      </trkpt>
      <trkpt lat="48.41763" lon="7.30641">
        <ele>850</ele>
        <time>2020-06-24T07:39:02.116Z</time>
      </trkpt>
      <trkpt lat="48.41763" lon="7.3064">
        <ele>850</ele>
        <time>2020-06-24T07:39:03.116Z</time>
      </trkpt>
      <trkpt lat="48.41764" lon="7.30639">
        <ele>851</ele>
        <time>2020-06-24T07:39:04.116Z</time>
      </trkpt>
      <trkpt lat="48.41765" lon="7.30638">
        <ele>851</ele>
        <time>2020-06-24T07:39:05.116Z</time>
      </trkpt>
      <trkpt lat="48.41766" lon="7.30637">
        <ele>852</ele>
        <time>2020-06-24T07:39:06.115Z</time>
      </trkpt>
      <trkpt lat="48.41768" lon="7.30634">
        <ele>853</ele>
        <time>2020-06-24T07:39:07.116Z</time>
      </trkpt>
      <trkpt lat="48.4177" lon="7.30632">
        <ele>853</ele>
        <time>2020-06-24T07:39:08.115Z</time>
      </trkpt>
      <trkpt lat="48.4177" lon="7.30632">
        <ele>854</ele>
        <time>2020-06-24T07:39:09.115Z</time>
      </trkpt>
      <trkpt lat="48.4177" lon="7.30632">
        <ele>854</ele>
        <time>2020-06-24T07:39:10.116Z</time>
      </trkpt>
      <trkpt lat="48.41769" lon="7.30632">
        <ele>854</ele>
        <time>2020-06-24T07:39:11.115Z</time>
      </trkpt>
      <trkpt lat="48.41769" lon="7.30632">
        <ele>855</ele>
        <time>2020-06-24T07:39:12.116Z</time>
      </trkpt>
      <trkpt lat="48.41768" lon="7.30632">
        <ele>855</ele>
        <time>2020-06-24T07:39:13.116Z</time>
      </trkpt>
      <trkpt lat="48.41768" lon="7.30631">
        <ele>855</ele>
        <time>2020-06-24T07:39:14.116Z</time>
      </trkpt>
      <trkpt lat="48.41767" lon="7.30631">
        <ele>856</ele>
        <time>2020-06-24T07:39:15.115Z</time>
      </trkpt>
      <trkpt lat="48.41766" lon="7.3063">
        <ele>856</ele>
        <time>2020-06-24T07:39:16.116Z</time>
      </trkpt>
      <trkpt lat="48.41765" lon="7.3063">
        <ele>856</ele>
        <time>2020-06-24T07:39:17.116Z</time>
      </trkpt>
      <trkpt lat="48.41764" lon="7.3063">
        <ele>856</ele>
        <time>2020-06-24T07:39:18.115Z</time>
      </trkpt>
      <trkpt lat="48.41763" lon="7.3063">
        <ele>857</ele>
        <time>2020-06-24T07:39:19.116Z</time>
      </trkpt>
      <trkpt lat="48.41762" lon="7.3063">
        <ele>857</ele>
        <time>2020-06-24T07:39:20.115Z</time>
      </trkpt>
      <trkpt lat="48.41761" lon="7.3063">
        <ele>857</ele>
        <time>2020-06-24T07:39:21.116Z</time>
      </trkpt>
      <trkpt lat="48.4176" lon="7.3063">
        <ele>858</ele>
        <time>2020-06-24T07:39:22.116Z</time>
      </trkpt>
      <trkpt lat="48.41758" lon="7.3063">
        <ele>858</ele>
        <time>2020-06-24T07:39:23.116Z</time>
      </trkpt>
      <trkpt lat="48.41757" lon="7.3063">
        <ele>858</ele>
        <time>2020-06-24T07:39:24.115Z</time>
      </trkpt>
      <trkpt lat="48.41755" lon="7.3063">
        <ele>858</ele>
        <time>2020-06-24T07:39:25.116Z</time>
      </trkpt>
      <trkpt lat="48.41754" lon="7.30629">
        <ele>858</ele>
        <time>2020-06-24T07:39:26.116Z</time>
      </trkpt>
      <trkpt lat="48.41754" lon="7.30628">
        <ele>858</ele>
        <time>2020-06-24T07:39:27.116Z</time>
      </trkpt>
      <trkpt lat="48.41753" lon="7.30626">
        <ele>857</ele>
        <time>2020-06-24T07:39:28.116Z</time>
      </trkpt>
      <trkpt lat="48.41752" lon="7.30624">
        <ele>856</ele>
        <time>2020-06-24T07:39:29.116Z</time>
      </trkpt>
      <trkpt lat="48.41752" lon="7.30623">
        <ele>854</ele>
        <time>2020-06-24T07:39:30.115Z</time>
      </trkpt>
      <trkpt lat="48.41752" lon="7.30622">
        <ele>853</ele>
        <time>2020-06-24T07:39:31.115Z</time>
      </trkpt>
      <trkpt lat="48.41751" lon="7.30622">
        <ele>852</ele>
        <time>2020-06-24T07:39:32.116Z</time>
      </trkpt>
      <trkpt lat="48.41751" lon="7.30622">
        <ele>851</ele>
        <time>2020-06-24T07:39:33.115Z</time>
      </trkpt>
      <trkpt lat="48.4175" lon="7.30623">
        <ele>850</ele>
        <time>2020-06-24T07:39:34.116Z</time>
      </trkpt>
      <trkpt lat="48.4175" lon="7.30623">
        <ele>849</ele>
        <time>2020-06-24T07:39:35.116Z</time>
      </trkpt>
      <trkpt lat="48.4175" lon="7.30623">
        <ele>848</ele>
        <time>2020-06-24T07:39:36.116Z</time>
      </trkpt>
      <trkpt lat="48.4175" lon="7.30623">
        <ele>847</ele>
        <time>2020-06-24T07:39:37.115Z</time>
      </trkpt>
      <trkpt lat="48.41749" lon="7.30623">
        <ele>845</ele>
        <time>2020-06-24T07:39:38.116Z</time>
      </trkpt>
      <trkpt lat="48.41748" lon="7.30623">
        <ele>845</ele>
        <time>2020-06-24T07:39:39.116Z</time>
      </trkpt>
      <trkpt lat="48.41748" lon="7.30622">
        <ele>844</ele>
        <time>2020-06-24T07:39:40.116Z</time>
      </trkpt>
      <trkpt lat="48.41748" lon="7.3062">
        <ele>844</ele>
        <time>2020-06-24T07:39:41.116Z</time>
      </trkpt>
      <trkpt lat="48.41748" lon="7.30618">
        <ele>844</ele>
        <time>2020-06-24T07:39:42.116Z</time>
      </trkpt>
      <trkpt lat="48.41749" lon="7.30616">
        <ele>845</ele>
        <time>2020-06-24T07:39:43.116Z</time>
      </trkpt>
      <trkpt lat="48.41749" lon="7.30613">
        <ele>845</ele>
        <time>2020-06-24T07:39:44.116Z</time>
      </trkpt>
      <trkpt lat="48.4175" lon="7.30611">
        <ele>845</ele>
        <time>2020-06-24T07:39:45.116Z</time>
      </trkpt>
      <trkpt lat="48.41751" lon="7.30608">
        <ele>845</ele>
        <time>2020-06-24T07:39:46.116Z</time>
      </trkpt>
      <trkpt lat="48.41752" lon="7.30605">
        <ele>845</ele>
        <time>2020-06-24T07:39:47.116Z</time>
      </trkpt>
      <trkpt lat="48.41752" lon="7.30603">
        <ele>846</ele>
        <time>2020-06-24T07:39:48.116Z</time>
      </trkpt>
      <trkpt lat="48.41753" lon="7.30601">
        <ele>846</ele>
        <time>2020-06-24T07:39:49.116Z</time>
      </trkpt>
      <trkpt lat="48.41754" lon="7.30599">
        <ele>847</ele>
        <time>2020-06-24T07:39:50.116Z</time>
      </trkpt>
      <trkpt lat="48.41755" lon="7.30597">
        <ele>847</ele>
        <time>2020-06-24T07:39:51.116Z</time>
      </trkpt>
      <trkpt lat="48.41757" lon="7.30594">
        <ele>847</ele>
        <time>2020-06-24T07:39:52.116Z</time>
      </trkpt>
      <trkpt lat="48.41758" lon="7.30592">
        <ele>847</ele>
        <time>2020-06-24T07:39:53.116Z</time>
      </trkpt>
      <trkpt lat="48.41759" lon="7.3059">
        <ele>847</ele>
        <time>2020-06-24T07:39:54.116Z</time>
      </trkpt>
      <trkpt lat="48.4176" lon="7.30587">
        <ele>847</ele>
        <time>2020-06-24T07:39:55.116Z</time>
      </trkpt>
      <trkpt lat="48.41761" lon="7.30585">
        <ele>847</ele>
        <time>2020-06-24T07:39:56.116Z</time>
      </trkpt>
      <trkpt lat="48.41762" lon="7.30584">
        <ele>847</ele>
        <time>2020-06-24T07:39:57.116Z</time>
      </trkpt>
      <trkpt lat="48.41762" lon="7.30582">
        <ele>847</ele>
        <time>2020-06-24T07:39:58.116Z</time>
      </trkpt>
      <trkpt lat="48.41763" lon="7.3058">
        <ele>846</ele>
        <time>2020-06-24T07:39:59.116Z</time>
      </trkpt>
      <trkpt lat="48.41762" lon="7.30578">
        <ele>846</ele>
        <time>2020-06-24T07:40:00.116Z</time>
      </trkpt>
      <trkpt lat="48.41762" lon="7.30576">
        <ele>846</ele>
        <time>2020-06-24T07:40:01.116Z</time>
      </trkpt>
      <trkpt lat="48.41762" lon="7.30575">
        <ele>847</ele>
        <time>2020-06-24T07:40:02.116Z</time>
      </trkpt>
      <trkpt lat="48.41764" lon="7.30574">
        <ele>847</ele>
        <time>2020-06-24T07:40:03.116Z</time>
      </trkpt>
      <trkpt lat="48.41764" lon="7.30574">
        <ele>847</ele>
        <time>2020-06-24T07:40:04.116Z</time>
      </trkpt>
      <trkpt lat="48.41764" lon="7.30573">
        <ele>848</ele>
        <time>2020-06-24T07:40:05.116Z</time>
      </trkpt>
      <trkpt lat="48.41764" lon="7.30573">
        <ele>848</ele>
        <time>2020-06-24T07:40:06.116Z</time>
      </trkpt>
      <trkpt lat="48.41763" lon="7.30572">
        <ele>848</ele>
        <time>2020-06-24T07:40:07.116Z</time>
      </trkpt>
      <trkpt lat="48.41764" lon="7.3057">
        <ele>848</ele>
        <time>2020-06-24T07:40:08.116Z</time>
      </trkpt>
      <trkpt lat="48.41765" lon="7.30568">
        <ele>849</ele>
        <time>2020-06-24T07:40:09.116Z</time>
      </trkpt>
      <trkpt lat="48.41767" lon="7.30566">
        <ele>849</ele>
        <time>2020-06-24T07:40:10.116Z</time>
      </trkpt>
      <trkpt lat="48.41767" lon="7.30565">
        <ele>850</ele>
        <time>2020-06-24T07:40:11.116Z</time>
      </trkpt>
      <trkpt lat="48.41768" lon="7.30564">
        <ele>850</ele>
        <time>2020-06-24T07:40:12.116Z</time>
      </trkpt>
      <trkpt lat="48.41769" lon="7.30564">
        <ele>851</ele>
        <time>2020-06-24T07:40:13.116Z</time>
      </trkpt>
      <trkpt lat="48.4177" lon="7.30564">
        <ele>851</ele>
        <time>2020-06-24T07:40:14.116Z</time>
      </trkpt>
      <trkpt lat="48.4177" lon="7.30563">
        <ele>852</ele>
        <time>2020-06-24T07:40:15.116Z</time>
      </trkpt>
      <trkpt lat="48.4177" lon="7.30562">
        <ele>852</ele>
        <time>2020-06-24T07:40:16.116Z</time>
      </trkpt>
      <trkpt lat="48.4177" lon="7.30561">
        <ele>853</ele>
        <time>2020-06-24T07:40:17.116Z</time>
      </trkpt>
      <trkpt lat="48.4177" lon="7.3056">
        <ele>853</ele>
        <time>2020-06-24T07:40:18.116Z</time>
      </trkpt>
      <trkpt lat="48.4177" lon="7.30559">
        <ele>854</ele>
        <time>2020-06-24T07:40:19.116Z</time>
      </trkpt>
      <trkpt lat="48.4177" lon="7.30559">
        <ele>854</ele>
        <time>2020-06-24T07:40:20.116Z</time>
      </trkpt>
      <trkpt lat="48.41769" lon="7.30558">
        <ele>855</ele>
        <time>2020-06-24T07:40:21.116Z</time>
      </trkpt>
      <trkpt lat="48.41769" lon="7.30557">
        <ele>855</ele>
        <time>2020-06-24T07:40:22.116Z</time>
      </trkpt>
      <trkpt lat="48.41769" lon="7.30557">
        <ele>856</ele>
        <time>2020-06-24T07:40:23.116Z</time>
      </trkpt>
      <trkpt lat="48.41768" lon="7.30557">
        <ele>856</ele>
        <time>2020-06-24T07:40:24.116Z</time>
      </trkpt>
      <trkpt lat="48.41767" lon="7.30557">
        <ele>857</ele>
        <time>2020-06-24T07:40:25.116Z</time>
      </trkpt>
      <trkpt lat="48.41766" lon="7.30556">
        <ele>858</ele>
        <time>2020-06-24T07:40:26.116Z</time>
      </trkpt>
      <trkpt lat="48.41766" lon="7.30555">
        <ele>859</ele>
        <time>2020-06-24T07:40:27.116Z</time>
      </trkpt>
      <trkpt lat="48.41765" lon="7.30555">
        <ele>859</ele>
        <time>2020-06-24T07:40:28.116Z</time>
      </trkpt>
      <trkpt lat="48.41764" lon="7.30555">
        <ele>860</ele>
        <time>2020-06-24T07:40:29.116Z</time>
      </trkpt>
      <trkpt lat="48.41762" lon="7.30554">
        <ele>860</ele>
        <time>2020-06-24T07:40:30.116Z</time>
      </trkpt>
      <trkpt lat="48.4176" lon="7.30554">
        <ele>860</ele>
        <time>2020-06-24T07:40:31.116Z</time>
      </trkpt>
      <trkpt lat="48.41759" lon="7.30553">
        <ele>860</ele>
        <time>2020-06-24T07:40:32.116Z</time>
      </trkpt>
      <trkpt lat="48.41758" lon="7.30552">
        <ele>860</ele>
        <time>2020-06-24T07:40:33.116Z</time>
      </trkpt>
      <trkpt lat="48.41757" lon="7.30551">
        <ele>861</ele>
        <time>2020-06-24T07:40:34.116Z</time>
      </trkpt>
      <trkpt lat="48.41756" lon="7.3055">
        <ele>861</ele>
        <time>2020-06-24T07:40:35.116Z</time>
      </trkpt>
      <trkpt lat="48.41755" lon="7.30549">
        <ele>861</ele>
        <time>2020-06-24T07:40:36.116Z</time>
      </trkpt>
      <trkpt lat="48.41755" lon="7.30548">
        <ele>862</ele>
        <time>2020-06-24T07:40:37.116Z</time>
      </trkpt>
      <trkpt lat="48.41754" lon="7.30546">
        <ele>862</ele>
        <time>2020-06-24T07:40:38.116Z</time>
      </trkpt>
      <trkpt lat="48.41753" lon="7.30546">
        <ele>862</ele>
        <time>2020-06-24T07:40:39.116Z</time>
      </trkpt>
      <trkpt lat="48.41752" lon="7.30545">
        <ele>863</ele>
        <time>2020-06-24T07:40:40.116Z</time>
      </trkpt>
      <trkpt lat="48.41751" lon="7.30544">
        <ele>863</ele>
        <time>2020-06-24T07:40:41.116Z</time>
      </trkpt>
      <trkpt lat="48.4175" lon="7.30544">
        <ele>863</ele>
        <time>2020-06-24T07:40:42.116Z</time>
      </trkpt>
      <trkpt lat="48.4175" lon="7.30543">
        <ele>863</ele>
        <time>2020-06-24T07:40:43.116Z</time>
      </trkpt>
      <trkpt lat="48.4175" lon="7.30543">
        <ele>863</ele>
        <time>2020-06-24T07:40:44.116Z</time>
      </trkpt>
      <trkpt lat="48.4175" lon="7.30542">
        <ele>864</ele>
        <time>2020-06-24T07:40:45.116Z</time>
      </trkpt>
      <trkpt lat="48.41748" lon="7.3054">
        <ele>864</ele>
        <time>2020-06-24T07:40:46.116Z</time>
      </trkpt>
      <trkpt lat="48.41746" lon="7.3054">
        <ele>864</ele>
        <time>2020-06-24T07:40:47.116Z</time>
      </trkpt>
      <trkpt lat="48.41745" lon="7.30538">
        <ele>865</ele>
        <time>2020-06-24T07:40:48.116Z</time>
      </trkpt>
      <trkpt lat="48.41744" lon="7.30538">
        <ele>865</ele>
        <time>2020-06-24T07:40:49.116Z</time>
      </trkpt>
      <trkpt lat="48.41743" lon="7.30537">
        <ele>865</ele>
        <time>2020-06-24T07:40:50.116Z</time>
      </trkpt>
      <trkpt lat="48.41741" lon="7.30537">
        <ele>866</ele>
        <time>2020-06-24T07:40:51.116Z</time>
      </trkpt>
      <trkpt lat="48.41739" lon="7.30536">
        <ele>866</ele>
        <time>2020-06-24T07:40:52.116Z</time>
      </trkpt>
      <trkpt lat="48.41738" lon="7.30535">
        <ele>867</ele>
        <time>2020-06-24T07:40:53.116Z</time>
      </trkpt>
      <trkpt lat="48.41736" lon="7.30535">
        <ele>867</ele>
        <time>2020-06-24T07:40:54.116Z</time>
      </trkpt>
      <trkpt lat="48.41736" lon="7.30534">
        <ele>868</ele>
        <time>2020-06-24T07:40:55.116Z</time>
      </trkpt>
      <trkpt lat="48.41736" lon="7.30532">
        <ele>868</ele>
        <time>2020-06-24T07:40:56.116Z</time>
      </trkpt>
      <trkpt lat="48.41735" lon="7.3053">
        <ele>869</ele>
        <time>2020-06-24T07:40:57.116Z</time>
      </trkpt>
      <trkpt lat="48.41735" lon="7.30528">
        <ele>870</ele>
        <time>2020-06-24T07:40:58.116Z</time>
      </trkpt>
      <trkpt lat="48.41734" lon="7.30525">
        <ele>870</ele>
        <time>2020-06-24T07:40:59.116Z</time>
      </trkpt>
      <trkpt lat="48.41733" lon="7.30523">
        <ele>871</ele>
        <time>2020-06-24T07:41:00.116Z</time>
      </trkpt>
      <trkpt lat="48.41733" lon="7.30519">
        <ele>871</ele>
        <time>2020-06-24T07:41:01.116Z</time>
      </trkpt>
      <trkpt lat="48.41732" lon="7.30518">
        <ele>870</ele>
        <time>2020-06-24T07:41:02.116Z</time>
      </trkpt>
      <trkpt lat="48.41732" lon="7.30516">
        <ele>870</ele>
        <time>2020-06-24T07:41:03.116Z</time>
      </trkpt>
      <trkpt lat="48.41732" lon="7.30514">
        <ele>869</ele>
        <time>2020-06-24T07:41:04.116Z</time>
      </trkpt>
      <trkpt lat="48.41732" lon="7.30512">
        <ele>868</ele>
        <time>2020-06-24T07:41:05.116Z</time>
      </trkpt>
      <trkpt lat="48.41731" lon="7.3051">
        <ele>868</ele>
        <time>2020-06-24T07:41:06.116Z</time>
      </trkpt>
      <trkpt lat="48.4173" lon="7.30508">
        <ele>867</ele>
        <time>2020-06-24T07:41:07.116Z</time>
      </trkpt>
      <trkpt lat="48.41728" lon="7.30505">
        <ele>866</ele>
        <time>2020-06-24T07:41:08.116Z</time>
      </trkpt>
      <trkpt lat="48.41728" lon="7.30504">
        <ele>865</ele>
        <time>2020-06-24T07:41:09.116Z</time>
      </trkpt>
      <trkpt lat="48.41727" lon="7.30502">
        <ele>865</ele>
        <time>2020-06-24T07:41:10.116Z</time>
      </trkpt>
      <trkpt lat="48.41727" lon="7.30499">
        <ele>864</ele>
        <time>2020-06-24T07:41:11.116Z</time>
      </trkpt>
      <trkpt lat="48.41726" lon="7.30496">
        <ele>863</ele>
        <time>2020-06-24T07:41:12.116Z</time>
      </trkpt>
      <trkpt lat="48.41726" lon="7.30492">
        <ele>863</ele>
        <time>2020-06-24T07:41:13.116Z</time>
      </trkpt>
      <trkpt lat="48.41726" lon="7.30489">
        <ele>862</ele>
        <time>2020-06-24T07:41:14.116Z</time>
      </trkpt>
      <trkpt lat="48.41726" lon="7.30486">
        <ele>862</ele>
        <time>2020-06-24T07:41:15.116Z</time>
      </trkpt>
      <trkpt lat="48.41725" lon="7.30483">
        <ele>861</ele>
        <time>2020-06-24T07:41:16.116Z</time>
      </trkpt>
      <trkpt lat="48.41724" lon="7.3048">
        <ele>861</ele>
        <time>2020-06-24T07:41:17.116Z</time>
      </trkpt>
      <trkpt lat="48.41724" lon="7.30478">
        <ele>860</ele>
        <time>2020-06-24T07:41:18.116Z</time>
      </trkpt>
      <trkpt lat="48.41724" lon="7.30475">
        <ele>860</ele>
        <time>2020-06-24T07:41:19.116Z</time>
      </trkpt>
      <trkpt lat="48.41724" lon="7.30472">
        <ele>860</ele>
        <time>2020-06-24T07:41:20.116Z</time>
      </trkpt>
      <trkpt lat="48.41722" lon="7.3047">
        <ele>859</ele>
        <time>2020-06-24T07:41:21.116Z</time>
      </trkpt>
      <trkpt lat="48.41721" lon="7.30468">
        <ele>859</ele>
        <time>2020-06-24T07:41:22.116Z</time>
      </trkpt>
      <trkpt lat="48.4172" lon="7.30466">
        <ele>859</ele>
        <time>2020-06-24T07:41:23.116Z</time>
      </trkpt>
      <trkpt lat="48.41719" lon="7.30464">
        <ele>859</ele>
        <time>2020-06-24T07:41:24.116Z</time>
      </trkpt>
      <trkpt lat="48.41719" lon="7.30461">
        <ele>858</ele>
        <time>2020-06-24T07:41:25.116Z</time>
      </trkpt>
      <trkpt lat="48.41718" lon="7.3046">
        <ele>858</ele>
        <time>2020-06-24T07:41:26.116Z</time>
      </trkpt>
      <trkpt lat="48.41718" lon="7.30459">
        <ele>858</ele>
        <time>2020-06-24T07:41:27.116Z</time>
      </trkpt>
      <trkpt lat="48.41717" lon="7.30457">
        <ele>858</ele>
        <time>2020-06-24T07:41:28.116Z</time>
      </trkpt>
      <trkpt lat="48.41716" lon="7.30456">
        <ele>857</ele>
        <time>2020-06-24T07:41:29.116Z</time>
      </trkpt>
      <trkpt lat="48.41716" lon="7.30453">
        <ele>857</ele>
        <time>2020-06-24T07:41:30.116Z</time>
      </trkpt>
      <trkpt lat="48.41715" lon="7.30451">
        <ele>857</ele>
        <time>2020-06-24T07:41:31.116Z</time>
      </trkpt>
      <trkpt lat="48.41714" lon="7.30449">
        <ele>857</ele>
        <time>2020-06-24T07:41:32.116Z</time>
      </trkpt>
      <trkpt lat="48.41713" lon="7.30448">
        <ele>857</ele>
        <time>2020-06-24T07:41:33.116Z</time>
      </trkpt>
      <trkpt lat="48.41713" lon="7.30445">
        <ele>857</ele>
        <time>2020-06-24T07:41:34.116Z</time>
      </trkpt>
      <trkpt lat="48.41712" lon="7.30443">
        <ele>857</ele>
        <time>2020-06-24T07:41:35.116Z</time>
      </trkpt>
      <trkpt lat="48.41711" lon="7.30439">
        <ele>857</ele>
        <time>2020-06-24T07:41:36.116Z</time>
      </trkpt>
      <trkpt lat="48.41711" lon="7.30437">
        <ele>857</ele>
        <time>2020-06-24T07:41:37.116Z</time>
      </trkpt>
      <trkpt lat="48.41711" lon="7.30435">
        <ele>856</ele>
        <time>2020-06-24T07:41:38.116Z</time>
      </trkpt>
      <trkpt lat="48.41711" lon="7.30432">
        <ele>856</ele>
        <time>2020-06-24T07:41:39.116Z</time>
      </trkpt>
      <trkpt lat="48.41711" lon="7.30431">
        <ele>855</ele>
        <time>2020-06-24T07:41:40.116Z</time>
      </trkpt>
      <trkpt lat="48.41711" lon="7.30429">
        <ele>855</ele>
        <time>2020-06-24T07:41:41.116Z</time>
      </trkpt>
      <trkpt lat="48.41712" lon="7.30427">
        <ele>855</ele>
        <time>2020-06-24T07:41:42.116Z</time>
      </trkpt>
      <trkpt lat="48.41713" lon="7.30426">
        <ele>855</ele>
        <time>2020-06-24T07:41:43.116Z</time>
      </trkpt>
      <trkpt lat="48.41713" lon="7.30425">
        <ele>855</ele>
        <time>2020-06-24T07:41:44.116Z</time>
      </trkpt>
      <trkpt lat="48.41714" lon="7.30424">
        <ele>856</ele>
        <time>2020-06-24T07:41:45.116Z</time>
      </trkpt>
      <trkpt lat="48.41715" lon="7.30423">
        <ele>856</ele>
        <time>2020-06-24T07:41:46.116Z</time>
      </trkpt>
      <trkpt lat="48.41717" lon="7.30421">
        <ele>857</ele>
        <time>2020-06-24T07:41:47.116Z</time>
      </trkpt>
      <trkpt lat="48.41719" lon="7.30419">
        <ele>857</ele>
        <time>2020-06-24T07:41:48.116Z</time>
      </trkpt>
      <trkpt lat="48.4172" lon="7.30417">
        <ele>857</ele>
        <time>2020-06-24T07:41:49.116Z</time>
      </trkpt>
      <trkpt lat="48.4172" lon="7.30416">
        <ele>857</ele>
        <time>2020-06-24T07:41:50.116Z</time>
      </trkpt>
      <trkpt lat="48.4172" lon="7.30415">
        <ele>857</ele>
        <time>2020-06-24T07:41:51.116Z</time>
      </trkpt>
      <trkpt lat="48.4172" lon="7.30413">
        <ele>857</ele>
        <time>2020-06-24T07:41:52.116Z</time>
      </trkpt>
      <trkpt lat="48.4172" lon="7.30412">
        <ele>857</ele>
        <time>2020-06-24T07:41:53.116Z</time>
      </trkpt>
      <trkpt lat="48.4172" lon="7.3041">
        <ele>857</ele>
        <time>2020-06-24T07:41:54.116Z</time>
      </trkpt>
      <trkpt lat="48.41719" lon="7.30409">
        <ele>857</ele>
        <time>2020-06-24T07:41:55.116Z</time>
      </trkpt>
      <trkpt lat="48.41719" lon="7.30408">
        <ele>858</ele>
        <time>2020-06-24T07:41:56.116Z</time>
      </trkpt>
      <trkpt lat="48.41719" lon="7.30407">
        <ele>859</ele>
        <time>2020-06-24T07:41:57.116Z</time>
      </trkpt>
      <trkpt lat="48.41719" lon="7.30406">
        <ele>859</ele>
        <time>2020-06-24T07:41:58.116Z</time>
      </trkpt>
      <trkpt lat="48.41718" lon="7.30406">
        <ele>860</ele>
        <time>2020-06-24T07:41:59.116Z</time>
      </trkpt>
      <trkpt lat="48.41717" lon="7.30405">
        <ele>860</ele>
        <time>2020-06-24T07:42:00.116Z</time>
      </trkpt>
      <trkpt lat="48.41717" lon="7.30404">
        <ele>861</ele>
        <time>2020-06-24T07:42:01.116Z</time>
      </trkpt>
      <trkpt lat="48.41716" lon="7.30403">
        <ele>861</ele>
        <time>2020-06-24T07:42:02.116Z</time>
      </trkpt>
      <trkpt lat="48.41716" lon="7.30401">
        <ele>862</ele>
        <time>2020-06-24T07:42:03.116Z</time>
      </trkpt>
      <trkpt lat="48.41715" lon="7.30399">
        <ele>862</ele>
        <time>2020-06-24T07:42:04.116Z</time>
      </trkpt>
      <trkpt lat="48.41716" lon="7.30398">
        <ele>863</ele>
        <time>2020-06-24T07:42:05.116Z</time>
      </trkpt>
      <trkpt lat="48.41715" lon="7.30397">
        <ele>864</ele>
        <time>2020-06-24T07:42:06.116Z</time>
      </trkpt>
      <trkpt lat="48.41715" lon="7.30396">
        <ele>864</ele>
        <time>2020-06-24T07:42:07.116Z</time>
      </trkpt>
      <trkpt lat="48.41715" lon="7.30394">
        <ele>865</ele>
        <time>2020-06-24T07:42:08.116Z</time>
      </trkpt>
      <trkpt lat="48.41714" lon="7.30393">
        <ele>866</ele>
        <time>2020-06-24T07:42:09.116Z</time>
      </trkpt>
      <trkpt lat="48.41714" lon="7.30392">
        <ele>866</ele>
        <time>2020-06-24T07:42:10.116Z</time>
      </trkpt>
      <trkpt lat="48.41714" lon="7.30391">
        <ele>867</ele>
        <time>2020-06-24T07:42:11.116Z</time>
      </trkpt>
      <trkpt lat="48.41714" lon="7.30389">
        <ele>868</ele>
        <time>2020-06-24T07:42:12.116Z</time>
      </trkpt>
      <trkpt lat="48.41715" lon="7.30388">
        <ele>869</ele>
        <time>2020-06-24T07:42:13.116Z</time>
      </trkpt>
      <trkpt lat="48.41715" lon="7.30386">
        <ele>870</ele>
        <time>2020-06-24T07:42:14.116Z</time>
      </trkpt>
      <trkpt lat="48.41714" lon="7.30385">
        <ele>870</ele>
        <time>2020-06-24T07:42:15.116Z</time>
      </trkpt>
      <trkpt lat="48.41713" lon="7.30383">
        <ele>871</ele>
        <time>2020-06-24T07:42:16.116Z</time>
      </trkpt>
      <trkpt lat="48.41713" lon="7.30382">
        <ele>871</ele>
        <time>2020-06-24T07:42:17.116Z</time>
      </trkpt>
      <trkpt lat="48.41712" lon="7.30381">
        <ele>871</ele>
        <time>2020-06-24T07:42:18.116Z</time>
      </trkpt>
      <trkpt lat="48.41712" lon="7.30379">
        <ele>871</ele>
        <time>2020-06-24T07:42:19.116Z</time>
      </trkpt>
      <trkpt lat="48.41712" lon="7.30377">
        <ele>871</ele>
        <time>2020-06-24T07:42:20.116Z</time>
      </trkpt>
      <trkpt lat="48.41711" lon="7.30375">
        <ele>870</ele>
        <time>2020-06-24T07:42:21.116Z</time>
      </trkpt>
      <trkpt lat="48.41711" lon="7.30373">
        <ele>870</ele>
        <time>2020-06-24T07:42:22.116Z</time>
      </trkpt>
      <trkpt lat="48.41709" lon="7.30372">
        <ele>869</ele>
        <time>2020-06-24T07:42:23.116Z</time>
      </trkpt>
      <trkpt lat="48.41707" lon="7.30371">
        <ele>869</ele>
        <time>2020-06-24T07:42:24.116Z</time>
      </trkpt>
      <trkpt lat="48.41706" lon="7.3037">
        <ele>868</ele>
        <time>2020-06-24T07:42:25.116Z</time>
      </trkpt>
      <trkpt lat="48.41704" lon="7.30369">
        <ele>867</ele>
        <time>2020-06-24T07:42:26.116Z</time>
      </trkpt>
      <trkpt lat="48.41703" lon="7.30368">
        <ele>867</ele>
        <time>2020-06-24T07:42:27.116Z</time>
      </trkpt>
      <trkpt lat="48.41701" lon="7.30367">
        <ele>867</ele>
        <time>2020-06-24T07:42:28.116Z</time>
      </trkpt>
      <trkpt lat="48.417" lon="7.30366">
        <ele>867</ele>
        <time>2020-06-24T07:42:29.116Z</time>
      </trkpt>
      <trkpt lat="48.41699" lon="7.30365">
        <ele>867</ele>
        <time>2020-06-24T07:42:30.116Z</time>
      </trkpt>
      <trkpt lat="48.41697" lon="7.30363">
        <ele>867</ele>
        <time>2020-06-24T07:42:31.116Z</time>
      </trkpt>
      <trkpt lat="48.41696" lon="7.30361">
        <ele>867</ele>
        <time>2020-06-24T07:42:32.116Z</time>
      </trkpt>
      <trkpt lat="48.41695" lon="7.30359">
        <ele>867</ele>
        <time>2020-06-24T07:42:33.116Z</time>
      </trkpt>
      <trkpt lat="48.41694" lon="7.30358">
        <ele>868</ele>
        <time>2020-06-24T07:42:34.116Z</time>
      </trkpt>
      <trkpt lat="48.41693" lon="7.30357">
        <ele>868</ele>
        <time>2020-06-24T07:42:35.116Z</time>
      </trkpt>
      <trkpt lat="48.41692" lon="7.30355">
        <ele>868</ele>
        <time>2020-06-24T07:42:36.116Z</time>
      </trkpt>
      <trkpt lat="48.41691" lon="7.30353">
        <ele>868</ele>
        <time>2020-06-24T07:42:37.116Z</time>
      </trkpt>
      <trkpt lat="48.4169" lon="7.30351">
        <ele>869</ele>
        <time>2020-06-24T07:42:38.116Z</time>
      </trkpt>
      <trkpt lat="48.41689" lon="7.30349">
        <ele>869</ele>
        <time>2020-06-24T07:42:39.116Z</time>
      </trkpt>
      <trkpt lat="48.41688" lon="7.30347">
        <ele>869</ele>
        <time>2020-06-24T07:42:40.116Z</time>
      </trkpt>
      <trkpt lat="48.41688" lon="7.30345">
        <ele>869</ele>
        <time>2020-06-24T07:42:41.116Z</time>
      </trkpt>
      <trkpt lat="48.41687" lon="7.30343">
        <ele>868</ele>
        <time>2020-06-24T07:42:42.116Z</time>
      </trkpt>
      <trkpt lat="48.41687" lon="7.30341">
        <ele>869</ele>
        <time>2020-06-24T07:42:43.116Z</time>
      </trkpt>
      <trkpt lat="48.41685" lon="7.3034">
        <ele>869</ele>
        <time>2020-06-24T07:42:44.116Z</time>
      </trkpt>
      <trkpt lat="48.41685" lon="7.30338">
        <ele>869</ele>
        <time>2020-06-24T07:42:45.116Z</time>
      </trkpt>
      <trkpt lat="48.41684" lon="7.30335">
        <ele>869</ele>
        <time>2020-06-24T07:42:46.116Z</time>
      </trkpt>
      <trkpt lat="48.41683" lon="7.30333">
        <ele>869</ele>
        <time>2020-06-24T07:42:47.116Z</time>
      </trkpt>
      <trkpt lat="48.41684" lon="7.30332">
        <ele>869</ele>
        <time>2020-06-24T07:42:48.116Z</time>
      </trkpt>
      <trkpt lat="48.41684" lon="7.3033">
        <ele>869</ele>
        <time>2020-06-24T07:42:49.116Z</time>
      </trkpt>
      <trkpt lat="48.41685" lon="7.30329">
        <ele>869</ele>
        <time>2020-06-24T07:42:50.116Z</time>
      </trkpt>
      <trkpt lat="48.41684" lon="7.30328">
        <ele>869</ele>
        <time>2020-06-24T07:42:51.116Z</time>
      </trkpt>
      <trkpt lat="48.41684" lon="7.30327">
        <ele>868</ele>
        <time>2020-06-24T07:42:52.116Z</time>
      </trkpt>
      <trkpt lat="48.41683" lon="7.30326">
        <ele>869</ele>
        <time>2020-06-24T07:42:53.116Z</time>
      </trkpt>
      <trkpt lat="48.41682" lon="7.30326">
        <ele>869</ele>
        <time>2020-06-24T07:42:54.116Z</time>
      </trkpt>
      <trkpt lat="48.41681" lon="7.30325">
        <ele>869</ele>
        <time>2020-06-24T07:42:55.116Z</time>
      </trkpt>
      <trkpt lat="48.4168" lon="7.30324">
        <ele>870</ele>
        <time>2020-06-24T07:42:56.116Z</time>
      </trkpt>
      <trkpt lat="48.41679" lon="7.30323">
        <ele>870</ele>
        <time>2020-06-24T07:42:57.116Z</time>
      </trkpt>
      <trkpt lat="48.41678" lon="7.30321">
        <ele>871</ele>
        <time>2020-06-24T07:42:58.116Z</time>
      </trkpt>
      <trkpt lat="48.41678" lon="7.30319">
        <ele>871</ele>
        <time>2020-06-24T07:42:59.116Z</time>
      </trkpt>
      <trkpt lat="48.41677" lon="7.30317">
        <ele>872</ele>
        <time>2020-06-24T07:43:00.116Z</time>
      </trkpt>
      <trkpt lat="48.41676" lon="7.30315">
        <ele>872</ele>
        <time>2020-06-24T07:43:01.116Z</time>
      </trkpt>
      <trkpt lat="48.41676" lon="7.30313">
        <ele>873</ele>
        <time>2020-06-24T07:43:02.116Z</time>
      </trkpt>
      <trkpt lat="48.41675" lon="7.30311">
        <ele>873</ele>
        <time>2020-06-24T07:43:03.116Z</time>
      </trkpt>
      <trkpt lat="48.41674" lon="7.3031">
        <ele>874</ele>
        <time>2020-06-24T07:43:04.116Z</time>
      </trkpt>
      <trkpt lat="48.41673" lon="7.30307">
        <ele>874</ele>
        <time>2020-06-24T07:43:05.116Z</time>
      </trkpt>
      <trkpt lat="48.41673" lon="7.30306">
        <ele>874</ele>
        <time>2020-06-24T07:43:06.116Z</time>
      </trkpt>
      <trkpt lat="48.41671" lon="7.30305">
        <ele>874</ele>
        <time>2020-06-24T07:43:07.116Z</time>
      </trkpt>
      <trkpt lat="48.4167" lon="7.30304">
        <ele>875</ele>
        <time>2020-06-24T07:43:08.116Z</time>
      </trkpt>
      <trkpt lat="48.41668" lon="7.30303">
        <ele>875</ele>
        <time>2020-06-24T07:43:09.116Z</time>
      </trkpt>
      <trkpt lat="48.41667" lon="7.30302">
        <ele>875</ele>
        <time>2020-06-24T07:43:10.116Z</time>
      </trkpt>
      <trkpt lat="48.41666" lon="7.30301">
        <ele>875</ele>
        <time>2020-06-24T07:43:11.116Z</time>
      </trkpt>
      <trkpt lat="48.41665" lon="7.303">
        <ele>875</ele>
        <time>2020-06-24T07:43:12.116Z</time>
      </trkpt>
      <trkpt lat="48.41665" lon="7.30299">
        <ele>875</ele>
        <time>2020-06-24T07:43:13.116Z</time>
      </trkpt>
      <trkpt lat="48.41664" lon="7.30298">
        <ele>874</ele>
        <time>2020-06-24T07:43:14.116Z</time>
      </trkpt>
      <trkpt lat="48.41663" lon="7.30297">
        <ele>874</ele>
        <time>2020-06-24T07:43:15.116Z</time>
      </trkpt>
      <trkpt lat="48.41662" lon="7.30295">
        <ele>873</ele>
        <time>2020-06-24T07:43:16.116Z</time>
      </trkpt>
      <trkpt lat="48.41661" lon="7.30292">
        <ele>873</ele>
        <time>2020-06-24T07:43:17.116Z</time>
      </trkpt>
      <trkpt lat="48.41661" lon="7.30289">
        <ele>873</ele>
        <time>2020-06-24T07:43:18.116Z</time>
      </trkpt>
      <trkpt lat="48.41661" lon="7.30286">
        <ele>873</ele>
        <time>2020-06-24T07:43:19.116Z</time>
      </trkpt>
      <trkpt lat="48.41661" lon="7.30283">
        <ele>872</ele>
        <time>2020-06-24T07:43:20.116Z</time>
      </trkpt>
      <trkpt lat="48.41662" lon="7.3028">
        <ele>872</ele>
        <time>2020-06-24T07:43:21.116Z</time>
      </trkpt>
      <trkpt lat="48.41662" lon="7.30278">
        <ele>872</ele>
        <time>2020-06-24T07:43:22.116Z</time>
      </trkpt>
      <trkpt lat="48.41662" lon="7.30276">
        <ele>872</ele>
        <time>2020-06-24T07:43:23.116Z</time>
      </trkpt>
      <trkpt lat="48.41663" lon="7.30274">
        <ele>872</ele>
        <time>2020-06-24T07:43:24.116Z</time>
      </trkpt>
      <trkpt lat="48.41662" lon="7.30273">
        <ele>872</ele>
        <time>2020-06-24T07:43:25.116Z</time>
      </trkpt>
      <trkpt lat="48.41661" lon="7.30272">
        <ele>872</ele>
        <time>2020-06-24T07:43:26.116Z</time>
      </trkpt>
      <trkpt lat="48.41661" lon="7.3027">
        <ele>872</ele>
        <time>2020-06-24T07:43:27.116Z</time>
      </trkpt>
      <trkpt lat="48.4166" lon="7.30268">
        <ele>872</ele>
        <time>2020-06-24T07:43:28.116Z</time>
      </trkpt>
      <trkpt lat="48.41659" lon="7.30266">
        <ele>872</ele>
        <time>2020-06-24T07:43:29.116Z</time>
      </trkpt>
      <trkpt lat="48.41658" lon="7.30264">
        <ele>873</ele>
        <time>2020-06-24T07:43:30.116Z</time>
      </trkpt>
      <trkpt lat="48.41657" lon="7.30262">
        <ele>873</ele>
        <time>2020-06-24T07:43:31.116Z</time>
      </trkpt>
      <trkpt lat="48.41656" lon="7.3026">
        <ele>873</ele>
        <time>2020-06-24T07:43:32.116Z</time>
      </trkpt>
      <trkpt lat="48.41655" lon="7.30258">
        <ele>873</ele>
        <time>2020-06-24T07:43:33.116Z</time>
      </trkpt>
      <trkpt lat="48.41655" lon="7.30255">
        <ele>873</ele>
        <time>2020-06-24T07:43:34.116Z</time>
      </trkpt>
      <trkpt lat="48.41655" lon="7.30253">
        <ele>873</ele>
        <time>2020-06-24T07:43:35.116Z</time>
      </trkpt>
      <trkpt lat="48.41655" lon="7.3025">
        <ele>874</ele>
        <time>2020-06-24T07:43:36.116Z</time>
      </trkpt>
      <trkpt lat="48.41654" lon="7.30248">
        <ele>874</ele>
        <time>2020-06-24T07:43:37.116Z</time>
      </trkpt>
      <trkpt lat="48.41654" lon="7.30246">
        <ele>874</ele>
        <time>2020-06-24T07:43:38.116Z</time>
      </trkpt>
      <trkpt lat="48.41654" lon="7.30244">
        <ele>874</ele>
        <time>2020-06-24T07:43:39.116Z</time>
      </trkpt>
      <trkpt lat="48.41654" lon="7.30242">
        <ele>875</ele>
        <time>2020-06-24T07:43:40.116Z</time>
      </trkpt>
      <trkpt lat="48.41654" lon="7.3024">
        <ele>875</ele>
        <time>2020-06-24T07:43:41.116Z</time>
      </trkpt>
      <trkpt lat="48.41653" lon="7.30238">
        <ele>876</ele>
        <time>2020-06-24T07:43:42.116Z</time>
      </trkpt>
      <trkpt lat="48.41652" lon="7.30236">
        <ele>876</ele>
        <time>2020-06-24T07:43:43.116Z</time>
      </trkpt>
      <trkpt lat="48.41651" lon="7.30234">
        <ele>877</ele>
        <time>2020-06-24T07:43:44.116Z</time>
      </trkpt>
      <trkpt lat="48.41651" lon="7.30232">
        <ele>877</ele>
        <time>2020-06-24T07:43:45.116Z</time>
      </trkpt>
      <trkpt lat="48.41651" lon="7.3023">
        <ele>878</ele>
        <time>2020-06-24T07:43:46.116Z</time>
      </trkpt>
      <trkpt lat="48.41652" lon="7.30227">
        <ele>878</ele>
        <time>2020-06-24T07:43:47.116Z</time>
      </trkpt>
      <trkpt lat="48.41651" lon="7.30225">
        <ele>879</ele>
        <time>2020-06-24T07:43:48.116Z</time>
      </trkpt>
      <trkpt lat="48.41651" lon="7.30223">
        <ele>880</ele>
        <time>2020-06-24T07:43:49.116Z</time>
      </trkpt>
      <trkpt lat="48.4165" lon="7.30221">
        <ele>880</ele>
        <time>2020-06-24T07:43:50.116Z</time>
      </trkpt>
      <trkpt lat="48.4165" lon="7.30219">
        <ele>881</ele>
        <time>2020-06-24T07:43:51.116Z</time>
      </trkpt>
      <trkpt lat="48.4165" lon="7.30217">
        <ele>881</ele>
        <time>2020-06-24T07:43:52.116Z</time>
      </trkpt>
      <trkpt lat="48.4165" lon="7.30215">
        <ele>882</ele>
        <time>2020-06-24T07:43:53.116Z</time>
      </trkpt>
      <trkpt lat="48.41649" lon="7.30212">
        <ele>882</ele>
        <time>2020-06-24T07:43:54.116Z</time>
      </trkpt>
      <trkpt lat="48.41649" lon="7.30209">
        <ele>882</ele>
        <time>2020-06-24T07:43:55.116Z</time>
      </trkpt>
      <trkpt lat="48.41648" lon="7.30205">
        <ele>882</ele>
        <time>2020-06-24T07:43:56.116Z</time>
      </trkpt>
      <trkpt lat="48.41647" lon="7.30202">
        <ele>882</ele>
        <time>2020-06-24T07:43:57.116Z</time>
      </trkpt>
      <trkpt lat="48.41647" lon="7.302">
        <ele>882</ele>
        <time>2020-06-24T07:43:58.116Z</time>
      </trkpt>
      <trkpt lat="48.41646" lon="7.30197">
        <ele>882</ele>
        <time>2020-06-24T07:43:59.116Z</time>
      </trkpt>
      <trkpt lat="48.41646" lon="7.30196">
        <ele>881</ele>
        <time>2020-06-24T07:44:00.116Z</time>
      </trkpt>
      <trkpt lat="48.41645" lon="7.30193">
        <ele>881</ele>
        <time>2020-06-24T07:44:01.116Z</time>
      </trkpt>
      <trkpt lat="48.41644" lon="7.30192">
        <ele>880</ele>
        <time>2020-06-24T07:44:02.116Z</time>
      </trkpt>
      <trkpt lat="48.41643" lon="7.30191">
        <ele>880</ele>
        <time>2020-06-24T07:44:03.116Z</time>
      </trkpt>
      <trkpt lat="48.41642" lon="7.30189">
        <ele>879</ele>
        <time>2020-06-24T07:44:04.116Z</time>
      </trkpt>
      <trkpt lat="48.41641" lon="7.30187">
        <ele>879</ele>
        <time>2020-06-24T07:44:05.116Z</time>
      </trkpt>
      <trkpt lat="48.4164" lon="7.30186">
        <ele>878</ele>
        <time>2020-06-24T07:44:06.116Z</time>
      </trkpt>
      <trkpt lat="48.4164" lon="7.30184">
        <ele>877</ele>
        <time>2020-06-24T07:44:07.116Z</time>
      </trkpt>
      <trkpt lat="48.41639" lon="7.30182">
        <ele>876</ele>
        <time>2020-06-24T07:44:08.116Z</time>
      </trkpt>
      <trkpt lat="48.41639" lon="7.30181">
        <ele>876</ele>
        <time>2020-06-24T07:44:09.116Z</time>
      </trkpt>
      <trkpt lat="48.41637" lon="7.30179">
        <ele>875</ele>
        <time>2020-06-24T07:44:10.116Z</time>
      </trkpt>
      <trkpt lat="48.41636" lon="7.30177">
        <ele>875</ele>
        <time>2020-06-24T07:44:11.116Z</time>
      </trkpt>
      <trkpt lat="48.41636" lon="7.30176">
        <ele>875</ele>
        <time>2020-06-24T07:44:12.116Z</time>
      </trkpt>
      <trkpt lat="48.41635" lon="7.30174">
        <ele>875</ele>
        <time>2020-06-24T07:44:13.116Z</time>
      </trkpt>
      <trkpt lat="48.41635" lon="7.30173">
        <ele>875</ele>
        <time>2020-06-24T07:44:14.116Z</time>
      </trkpt>
      <trkpt lat="48.41635" lon="7.30171">
        <ele>875</ele>
        <time>2020-06-24T07:44:15.116Z</time>
      </trkpt>
      <trkpt lat="48.41634" lon="7.30169">
        <ele>875</ele>
        <time>2020-06-24T07:44:16.116Z</time>
      </trkpt>
      <trkpt lat="48.41633" lon="7.30168">
        <ele>875</ele>
        <time>2020-06-24T07:44:17.116Z</time>
      </trkpt>
      <trkpt lat="48.41632" lon="7.30167">
        <ele>874</ele>
        <time>2020-06-24T07:44:18.116Z</time>
      </trkpt>
      <trkpt lat="48.41632" lon="7.30165">
        <ele>874</ele>
        <time>2020-06-24T07:44:19.116Z</time>
      </trkpt>
      <trkpt lat="48.41631" lon="7.30163">
        <ele>874</ele>
        <time>2020-06-24T07:44:20.116Z</time>
      </trkpt>
      <trkpt lat="48.4163" lon="7.30162">
        <ele>873</ele>
        <time>2020-06-24T07:44:21.116Z</time>
      </trkpt>
      <trkpt lat="48.41629" lon="7.3016">
        <ele>873</ele>
        <time>2020-06-24T07:44:22.116Z</time>
      </trkpt>
      <trkpt lat="48.41629" lon="7.30158">
        <ele>873</ele>
        <time>2020-06-24T07:44:23.116Z</time>
      </trkpt>
      <trkpt lat="48.41628" lon="7.30156">
        <ele>874</ele>
        <time>2020-06-24T07:44:24.116Z</time>
      </trkpt>
      <trkpt lat="48.41628" lon="7.30153">
        <ele>874</ele>
        <time>2020-06-24T07:44:25.116Z</time>
      </trkpt>
      <trkpt lat="48.41628" lon="7.30152">
        <ele>874</ele>
        <time>2020-06-24T07:44:26.116Z</time>
      </trkpt>
      <trkpt lat="48.41628" lon="7.3015">
        <ele>874</ele>
        <time>2020-06-24T07:44:27.116Z</time>
      </trkpt>
      <trkpt lat="48.41627" lon="7.30148">
        <ele>874</ele>
        <time>2020-06-24T07:44:28.116Z</time>
      </trkpt>
      <trkpt lat="48.41628" lon="7.30146">
        <ele>874</ele>
        <time>2020-06-24T07:44:29.116Z</time>
      </trkpt>
      <trkpt lat="48.41627" lon="7.30143">
        <ele>875</ele>
        <time>2020-06-24T07:44:30.116Z</time>
      </trkpt>
      <trkpt lat="48.41627" lon="7.30141">
        <ele>875</ele>
        <time>2020-06-24T07:44:31.116Z</time>
      </trkpt>
      <trkpt lat="48.41625" lon="7.30138">
        <ele>876</ele>
        <time>2020-06-24T07:44:32.116Z</time>
      </trkpt>
      <trkpt lat="48.41624" lon="7.30136">
        <ele>876</ele>
        <time>2020-06-24T07:44:33.116Z</time>
      </trkpt>
      <trkpt lat="48.41622" lon="7.30134">
        <ele>877</ele>
        <time>2020-06-24T07:44:34.116Z</time>
      </trkpt>
      <trkpt lat="48.41622" lon="7.30132">
        <ele>878</ele>
        <time>2020-06-24T07:44:35.116Z</time>
      </trkpt>
      <trkpt lat="48.41621" lon="7.30131">
        <ele>878</ele>
        <time>2020-06-24T07:44:36.116Z</time>
      </trkpt>
      <trkpt lat="48.41621" lon="7.3013">
        <ele>879</ele>
        <time>2020-06-24T07:44:37.116Z</time>
      </trkpt>
      <trkpt lat="48.4162" lon="7.30129">
        <ele>880</ele>
        <time>2020-06-24T07:44:38.116Z</time>
      </trkpt>
      <trkpt lat="48.41619" lon="7.30128">
        <ele>880</ele>
        <time>2020-06-24T07:44:39.116Z</time>
      </trkpt>
      <trkpt lat="48.41619" lon="7.30126">
        <ele>881</ele>
        <time>2020-06-24T07:44:40.116Z</time>
      </trkpt>
      <trkpt lat="48.41618" lon="7.30124">
        <ele>882</ele>
        <time>2020-06-24T07:44:41.116Z</time>
      </trkpt>
      <trkpt lat="48.41618" lon="7.30122">
        <ele>883</ele>
        <time>2020-06-24T07:44:42.116Z</time>
      </trkpt>
      <trkpt lat="48.41618" lon="7.3012">
        <ele>884</ele>
        <time>2020-06-24T07:44:43.116Z</time>
      </trkpt>
      <trkpt lat="48.41618" lon="7.30119">
        <ele>885</ele>
        <time>2020-06-24T07:44:44.116Z</time>
      </trkpt>
      <trkpt lat="48.41617" lon="7.30117">
        <ele>885</ele>
        <time>2020-06-24T07:44:45.116Z</time>
      </trkpt>
      <trkpt lat="48.41617" lon="7.30115">
        <ele>886</ele>
        <time>2020-06-24T07:44:46.116Z</time>
      </trkpt>
      <trkpt lat="48.41617" lon="7.30112">
        <ele>887</ele>
        <time>2020-06-24T07:44:47.116Z</time>
      </trkpt>
      <trkpt lat="48.41616" lon="7.3011">
        <ele>887</ele>
        <time>2020-06-24T07:44:48.116Z</time>
      </trkpt>
      <trkpt lat="48.41616" lon="7.30108">
        <ele>888</ele>
        <time>2020-06-24T07:44:49.116Z</time>
      </trkpt>
      <trkpt lat="48.41616" lon="7.30106">
        <ele>888</ele>
        <time>2020-06-24T07:44:50.116Z</time>
      </trkpt>
      <trkpt lat="48.41616" lon="7.30104">
        <ele>888</ele>
        <time>2020-06-24T07:44:51.116Z</time>
      </trkpt>
      <trkpt lat="48.41615" lon="7.30102">
        <ele>889</ele>
        <time>2020-06-24T07:44:52.116Z</time>
      </trkpt>
      <trkpt lat="48.41614" lon="7.301">
        <ele>889</ele>
        <time>2020-06-24T07:44:53.116Z</time>
      </trkpt>
      <trkpt lat="48.41614" lon="7.30098">
        <ele>889</ele>
        <time>2020-06-24T07:44:54.116Z</time>
      </trkpt>
      <trkpt lat="48.41613" lon="7.30097">
        <ele>890</ele>
        <time>2020-06-24T07:44:55.116Z</time>
      </trkpt>
      <trkpt lat="48.41612" lon="7.30096">
        <ele>891</ele>
        <time>2020-06-24T07:44:56.116Z</time>
      </trkpt>
      <trkpt lat="48.41612" lon="7.30094">
        <ele>892</ele>
        <time>2020-06-24T07:44:57.116Z</time>
      </trkpt>
      <trkpt lat="48.41611" lon="7.30092">
        <ele>892</ele>
        <time>2020-06-24T07:44:58.116Z</time>
      </trkpt>
      <trkpt lat="48.41611" lon="7.3009">
        <ele>893</ele>
        <time>2020-06-24T07:44:59.116Z</time>
      </trkpt>
      <trkpt lat="48.4161" lon="7.30088">
        <ele>893</ele>
        <time>2020-06-24T07:45:00.116Z</time>
      </trkpt>
      <trkpt lat="48.4161" lon="7.30086">
        <ele>893</ele>
        <time>2020-06-24T07:45:01.116Z</time>
      </trkpt>
      <trkpt lat="48.4161" lon="7.30084">
        <ele>893</ele>
        <time>2020-06-24T07:45:02.116Z</time>
      </trkpt>
      <trkpt lat="48.4161" lon="7.30082">
        <ele>892</ele>
        <time>2020-06-24T07:45:03.116Z</time>
      </trkpt>
      <trkpt lat="48.41609" lon="7.3008">
        <ele>892</ele>
        <time>2020-06-24T07:45:04.116Z</time>
      </trkpt>
      <trkpt lat="48.41609" lon="7.30078">
        <ele>892</ele>
        <time>2020-06-24T07:45:05.116Z</time>
      </trkpt>
      <trkpt lat="48.41608" lon="7.30077">
        <ele>891</ele>
        <time>2020-06-24T07:45:06.116Z</time>
      </trkpt>
      <trkpt lat="48.41607" lon="7.30075">
        <ele>891</ele>
        <time>2020-06-24T07:45:07.116Z</time>
      </trkpt>
      <trkpt lat="48.41607" lon="7.30074">
        <ele>891</ele>
        <time>2020-06-24T07:45:08.116Z</time>
      </trkpt>
      <trkpt lat="48.41606" lon="7.30072">
        <ele>891</ele>
        <time>2020-06-24T07:45:09.116Z</time>
      </trkpt>
      <trkpt lat="48.41606" lon="7.3007">
        <ele>891</ele>
        <time>2020-06-24T07:45:10.116Z</time>
      </trkpt>
      <trkpt lat="48.41605" lon="7.30068">
        <ele>891</ele>
        <time>2020-06-24T07:45:11.116Z</time>
      </trkpt>
      <trkpt lat="48.41605" lon="7.30065">
        <ele>891</ele>
        <time>2020-06-24T07:45:12.116Z</time>
      </trkpt>
      <trkpt lat="48.41605" lon="7.30061">
        <ele>891</ele>
        <time>2020-06-24T07:45:13.116Z</time>
      </trkpt>
      <trkpt lat="48.41604" lon="7.30059">
        <ele>891</ele>
        <time>2020-06-24T07:45:14.116Z</time>
      </trkpt>
      <trkpt lat="48.41604" lon="7.30058">
        <ele>891</ele>
        <time>2020-06-24T07:45:15.116Z</time>
      </trkpt>
      <trkpt lat="48.41604" lon="7.30056">
        <ele>891</ele>
        <time>2020-06-24T07:45:16.116Z</time>
      </trkpt>
      <trkpt lat="48.41603" lon="7.30054">
        <ele>890</ele>
        <time>2020-06-24T07:45:17.116Z</time>
      </trkpt>
      <trkpt lat="48.41602" lon="7.30052">
        <ele>891</ele>
        <time>2020-06-24T07:45:18.116Z</time>
      </trkpt>
      <trkpt lat="48.41601" lon="7.3005">
        <ele>891</ele>
        <time>2020-06-24T07:45:19.116Z</time>
      </trkpt>
      <trkpt lat="48.41601" lon="7.30049">
        <ele>891</ele>
        <time>2020-06-24T07:45:20.116Z</time>
      </trkpt>
      <trkpt lat="48.41601" lon="7.30047">
        <ele>891</ele>
        <time>2020-06-24T07:45:21.116Z</time>
      </trkpt>
      <trkpt lat="48.41602" lon="7.30045">
        <ele>891</ele>
        <time>2020-06-24T07:45:22.116Z</time>
      </trkpt>
      <trkpt lat="48.41603" lon="7.30043">
        <ele>892</ele>
        <time>2020-06-24T07:45:23.116Z</time>
      </trkpt>
      <trkpt lat="48.41604" lon="7.30041">
        <ele>892</ele>
        <time>2020-06-24T07:45:24.116Z</time>
      </trkpt>
      <trkpt lat="48.41604" lon="7.3004">
        <ele>892</ele>
        <time>2020-06-24T07:45:25.116Z</time>
      </trkpt>
      <trkpt lat="48.41604" lon="7.30038">
        <ele>893</ele>
        <time>2020-06-24T07:45:26.116Z</time>
      </trkpt>
      <trkpt lat="48.41603" lon="7.30036">
        <ele>893</ele>
        <time>2020-06-24T07:45:27.116Z</time>
      </trkpt>
      <trkpt lat="48.41603" lon="7.30034">
        <ele>894</ele>
        <time>2020-06-24T07:45:28.116Z</time>
      </trkpt>
      <trkpt lat="48.41602" lon="7.30033">
        <ele>895</ele>
        <time>2020-06-24T07:45:29.116Z</time>
      </trkpt>
      <trkpt lat="48.41601" lon="7.30032">
        <ele>896</ele>
        <time>2020-06-24T07:45:30.116Z</time>
      </trkpt>
      <trkpt lat="48.416" lon="7.3003">
        <ele>896</ele>
        <time>2020-06-24T07:45:31.116Z</time>
      </trkpt>
      <trkpt lat="48.416" lon="7.30029">
        <ele>897</ele>
        <time>2020-06-24T07:45:32.116Z</time>
      </trkpt>
      <trkpt lat="48.41599" lon="7.30028">
        <ele>897</ele>
        <time>2020-06-24T07:45:33.116Z</time>
      </trkpt>
      <trkpt lat="48.41599" lon="7.30026">
        <ele>898</ele>
        <time>2020-06-24T07:45:34.116Z</time>
      </trkpt>
      <trkpt lat="48.416" lon="7.30025">
        <ele>898</ele>
        <time>2020-06-24T07:45:35.116Z</time>
      </trkpt>
      <trkpt lat="48.416" lon="7.30022">
        <ele>898</ele>
        <time>2020-06-24T07:45:36.116Z</time>
      </trkpt>
      <trkpt lat="48.416" lon="7.30021">
        <ele>898</ele>
        <time>2020-06-24T07:45:37.116Z</time>
      </trkpt>
      <trkpt lat="48.416" lon="7.30018">
        <ele>898</ele>
        <time>2020-06-24T07:45:38.116Z</time>
      </trkpt>
      <trkpt lat="48.41599" lon="7.30015">
        <ele>897</ele>
        <time>2020-06-24T07:45:39.116Z</time>
      </trkpt>
      <trkpt lat="48.41598" lon="7.30013">
        <ele>897</ele>
        <time>2020-06-24T07:45:40.116Z</time>
      </trkpt>
      <trkpt lat="48.41597" lon="7.3001">
        <ele>896</ele>
        <time>2020-06-24T07:45:41.116Z</time>
      </trkpt>
      <trkpt lat="48.41596" lon="7.30007">
        <ele>896</ele>
        <time>2020-06-24T07:45:42.116Z</time>
      </trkpt>
      <trkpt lat="48.41596" lon="7.30004">
        <ele>895</ele>
        <time>2020-06-24T07:45:43.116Z</time>
      </trkpt>
      <trkpt lat="48.41596" lon="7.30002">
        <ele>895</ele>
        <time>2020-06-24T07:45:44.116Z</time>
      </trkpt>
      <trkpt lat="48.41596" lon="7.3">
        <ele>894</ele>
        <time>2020-06-24T07:45:45.116Z</time>
      </trkpt>
      <trkpt lat="48.41596" lon="7.29998">
        <ele>894</ele>
        <time>2020-06-24T07:45:46.116Z</time>
      </trkpt>
      <trkpt lat="48.41596" lon="7.29995">
        <ele>893</ele>
        <time>2020-06-24T07:45:47.116Z</time>
      </trkpt>
      <trkpt lat="48.41595" lon="7.29993">
        <ele>893</ele>
        <time>2020-06-24T07:45:48.116Z</time>
      </trkpt>
      <trkpt lat="48.41595" lon="7.29991">
        <ele>892</ele>
        <time>2020-06-24T07:45:49.116Z</time>
      </trkpt>
      <trkpt lat="48.41594" lon="7.29989">
        <ele>892</ele>
        <time>2020-06-24T07:45:50.116Z</time>
      </trkpt>
      <trkpt lat="48.41594" lon="7.29986">
        <ele>892</ele>
        <time>2020-06-24T07:45:51.116Z</time>
      </trkpt>
      <trkpt lat="48.41594" lon="7.29983">
        <ele>892</ele>
        <time>2020-06-24T07:45:52.116Z</time>
      </trkpt>
      <trkpt lat="48.41594" lon="7.2998">
        <ele>892</ele>
        <time>2020-06-24T07:45:53.116Z</time>
      </trkpt>
      <trkpt lat="48.41594" lon="7.29978">
        <ele>892</ele>
        <time>2020-06-24T07:45:54.116Z</time>
      </trkpt>
      <trkpt lat="48.41594" lon="7.29975">
        <ele>892</ele>
        <time>2020-06-24T07:45:55.116Z</time>
      </trkpt>
      <trkpt lat="48.41592" lon="7.29972">
        <ele>892</ele>
        <time>2020-06-24T07:45:56.116Z</time>
      </trkpt>
      <trkpt lat="48.41592" lon="7.2997">
        <ele>892</ele>
        <time>2020-06-24T07:45:57.116Z</time>
      </trkpt>
      <trkpt lat="48.41592" lon="7.29967">
        <ele>892</ele>
        <time>2020-06-24T07:45:58.116Z</time>
      </trkpt>
      <trkpt lat="48.41592" lon="7.29964">
        <ele>892</ele>
        <time>2020-06-24T07:45:59.116Z</time>
      </trkpt>
      <trkpt lat="48.41593" lon="7.29962">
        <ele>892</ele>
        <time>2020-06-24T07:46:00.116Z</time>
      </trkpt>
      <trkpt lat="48.41592" lon="7.2996">
        <ele>892</ele>
        <time>2020-06-24T07:46:01.116Z</time>
      </trkpt>
      <trkpt lat="48.41592" lon="7.29959">
        <ele>893</ele>
        <time>2020-06-24T07:46:02.116Z</time>
      </trkpt>
      <trkpt lat="48.41592" lon="7.29957">
        <ele>893</ele>
        <time>2020-06-24T07:46:03.116Z</time>
      </trkpt>
      <trkpt lat="48.41591" lon="7.29955">
        <ele>894</ele>
        <time>2020-06-24T07:46:04.116Z</time>
      </trkpt>
      <trkpt lat="48.41591" lon="7.29953">
        <ele>895</ele>
        <time>2020-06-24T07:46:05.116Z</time>
      </trkpt>
      <trkpt lat="48.41591" lon="7.29951">
        <ele>895</ele>
        <time>2020-06-24T07:46:06.116Z</time>
      </trkpt>
      <trkpt lat="48.41592" lon="7.29949">
        <ele>896</ele>
        <time>2020-06-24T07:46:07.116Z</time>
      </trkpt>
      <trkpt lat="48.41592" lon="7.29947">
        <ele>896</ele>
        <time>2020-06-24T07:46:08.116Z</time>
      </trkpt>
      <trkpt lat="48.41592" lon="7.29944">
        <ele>897</ele>
        <time>2020-06-24T07:46:09.116Z</time>
      </trkpt>
      <trkpt lat="48.41592" lon="7.29942">
        <ele>897</ele>
        <time>2020-06-24T07:46:10.116Z</time>
      </trkpt>
      <trkpt lat="48.41591" lon="7.2994">
        <ele>898</ele>
        <time>2020-06-24T07:46:11.116Z</time>
      </trkpt>
      <trkpt lat="48.41591" lon="7.29938">
        <ele>898</ele>
        <time>2020-06-24T07:46:12.116Z</time>
      </trkpt>
      <trkpt lat="48.41592" lon="7.29934">
        <ele>898</ele>
        <time>2020-06-24T07:46:13.116Z</time>
      </trkpt>
      <trkpt lat="48.41593" lon="7.29931">
        <ele>898</ele>
        <time>2020-06-24T07:46:14.116Z</time>
      </trkpt>
      <trkpt lat="48.41592" lon="7.2993">
        <ele>898</ele>
        <time>2020-06-24T07:46:15.116Z</time>
      </trkpt>
      <trkpt lat="48.41592" lon="7.29928">
        <ele>898</ele>
        <time>2020-06-24T07:46:16.116Z</time>
      </trkpt>
      <trkpt lat="48.41592" lon="7.29925">
        <ele>898</ele>
        <time>2020-06-24T07:46:17.116Z</time>
      </trkpt>
      <trkpt lat="48.41591" lon="7.29923">
        <ele>898</ele>
        <time>2020-06-24T07:46:18.116Z</time>
      </trkpt>
      <trkpt lat="48.4159" lon="7.29921">
        <ele>899</ele>
        <time>2020-06-24T07:46:19.116Z</time>
      </trkpt>
      <trkpt lat="48.41589" lon="7.29919">
        <ele>899</ele>
        <time>2020-06-24T07:46:20.116Z</time>
      </trkpt>
      <trkpt lat="48.41588" lon="7.29917">
        <ele>899</ele>
        <time>2020-06-24T07:46:21.116Z</time>
      </trkpt>
      <trkpt lat="48.41587" lon="7.29916">
        <ele>899</ele>
        <time>2020-06-24T07:46:22.116Z</time>
      </trkpt>
      <trkpt lat="48.41587" lon="7.29914">
        <ele>899</ele>
        <time>2020-06-24T07:46:23.116Z</time>
      </trkpt>
      <trkpt lat="48.41585" lon="7.29913">
        <ele>899</ele>
        <time>2020-06-24T07:46:24.116Z</time>
      </trkpt>
      <trkpt lat="48.41585" lon="7.29912">
        <ele>899</ele>
        <time>2020-06-24T07:46:25.116Z</time>
      </trkpt>
      <trkpt lat="48.41585" lon="7.2991">
        <ele>899</ele>
        <time>2020-06-24T07:46:26.116Z</time>
      </trkpt>
      <trkpt lat="48.41584" lon="7.29908">
        <ele>899</ele>
        <time>2020-06-24T07:46:27.116Z</time>
      </trkpt>
      <trkpt lat="48.41584" lon="7.29906">
        <ele>898</ele>
        <time>2020-06-24T07:46:28.116Z</time>
      </trkpt>
      <trkpt lat="48.41583" lon="7.29905">
        <ele>898</ele>
        <time>2020-06-24T07:46:29.116Z</time>
      </trkpt>
      <trkpt lat="48.41582" lon="7.29904">
        <ele>898</ele>
        <time>2020-06-24T07:46:30.116Z</time>
      </trkpt>
      <trkpt lat="48.41582" lon="7.29902">
        <ele>898</ele>
        <time>2020-06-24T07:46:31.116Z</time>
      </trkpt>
      <trkpt lat="48.41582" lon="7.29901">
        <ele>898</ele>
        <time>2020-06-24T07:46:32.116Z</time>
      </trkpt>
      <trkpt lat="48.41582" lon="7.299">
        <ele>898</ele>
        <time>2020-06-24T07:46:33.116Z</time>
      </trkpt>
      <trkpt lat="48.41582" lon="7.29899">
        <ele>898</ele>
        <time>2020-06-24T07:46:34.116Z</time>
      </trkpt>
      <trkpt lat="48.41582" lon="7.29897">
        <ele>899</ele>
        <time>2020-06-24T07:46:35.116Z</time>
      </trkpt>
      <trkpt lat="48.41582" lon="7.29895">
        <ele>899</ele>
        <time>2020-06-24T07:46:36.116Z</time>
      </trkpt>
      <trkpt lat="48.41582" lon="7.29894">
        <ele>900</ele>
        <time>2020-06-24T07:46:37.116Z</time>
      </trkpt>
      <trkpt lat="48.41581" lon="7.29892">
        <ele>900</ele>
        <time>2020-06-24T07:46:38.116Z</time>
      </trkpt>
      <trkpt lat="48.41581" lon="7.29891">
        <ele>900</ele>
        <time>2020-06-24T07:46:39.116Z</time>
      </trkpt>
      <trkpt lat="48.41581" lon="7.2989">
        <ele>901</ele>
        <time>2020-06-24T07:46:40.116Z</time>
      </trkpt>
      <trkpt lat="48.41581" lon="7.29888">
        <ele>901</ele>
        <time>2020-06-24T07:46:41.116Z</time>
      </trkpt>
      <trkpt lat="48.4158" lon="7.29886">
        <ele>901</ele>
        <time>2020-06-24T07:46:42.116Z</time>
      </trkpt>
      <trkpt lat="48.41581" lon="7.29884">
        <ele>902</ele>
        <time>2020-06-24T07:46:43.116Z</time>
      </trkpt>
      <trkpt lat="48.41581" lon="7.29882">
        <ele>902</ele>
        <time>2020-06-24T07:46:44.116Z</time>
      </trkpt>
      <trkpt lat="48.41581" lon="7.29879">
        <ele>903</ele>
        <time>2020-06-24T07:46:45.116Z</time>
      </trkpt>
      <trkpt lat="48.41581" lon="7.29877">
        <ele>903</ele>
        <time>2020-06-24T07:46:46.116Z</time>
      </trkpt>
      <trkpt lat="48.4158" lon="7.29875">
        <ele>903</ele>
        <time>2020-06-24T07:46:47.116Z</time>
      </trkpt>
      <trkpt lat="48.4158" lon="7.29872">
        <ele>903</ele>
        <time>2020-06-24T07:46:48.116Z</time>
      </trkpt>
      <trkpt lat="48.41579" lon="7.29869">
        <ele>903</ele>
        <time>2020-06-24T07:46:49.116Z</time>
      </trkpt>
      <trkpt lat="48.41579" lon="7.29865">
        <ele>903</ele>
        <time>2020-06-24T07:46:50.116Z</time>
      </trkpt>
      <trkpt lat="48.41578" lon="7.29861">
        <ele>903</ele>
        <time>2020-06-24T07:46:51.116Z</time>
      </trkpt>
      <trkpt lat="48.41578" lon="7.29857">
        <ele>902</ele>
        <time>2020-06-24T07:46:52.116Z</time>
      </trkpt>
      <trkpt lat="48.41577" lon="7.29854">
        <ele>902</ele>
        <time>2020-06-24T07:46:53.116Z</time>
      </trkpt>
      <trkpt lat="48.41577" lon="7.29851">
        <ele>901</ele>
        <time>2020-06-24T07:46:54.116Z</time>
      </trkpt>
      <trkpt lat="48.41577" lon="7.29849">
        <ele>901</ele>
        <time>2020-06-24T07:46:55.116Z</time>
      </trkpt>
      <trkpt lat="48.41576" lon="7.29846">
        <ele>901</ele>
        <time>2020-06-24T07:46:56.116Z</time>
      </trkpt>
      <trkpt lat="48.41576" lon="7.29844">
        <ele>901</ele>
        <time>2020-06-24T07:46:57.116Z</time>
      </trkpt>
      <trkpt lat="48.41575" lon="7.29842">
        <ele>901</ele>
        <time>2020-06-24T07:46:58.116Z</time>
      </trkpt>
      <trkpt lat="48.41574" lon="7.2984">
        <ele>901</ele>
        <time>2020-06-24T07:46:59.116Z</time>
      </trkpt>
      <trkpt lat="48.41572" lon="7.29838">
        <ele>900</ele>
        <time>2020-06-24T07:47:00.116Z</time>
      </trkpt>
      <trkpt lat="48.41571" lon="7.29835">
        <ele>900</ele>
        <time>2020-06-24T07:47:01.116Z</time>
      </trkpt>
      <trkpt lat="48.41571" lon="7.29834">
        <ele>900</ele>
        <time>2020-06-24T07:47:02.116Z</time>
      </trkpt>
      <trkpt lat="48.4157" lon="7.29832">
        <ele>900</ele>
        <time>2020-06-24T07:47:03.116Z</time>
      </trkpt>
      <trkpt lat="48.4157" lon="7.2983">
        <ele>900</ele>
        <time>2020-06-24T07:47:04.116Z</time>
      </trkpt>
      <trkpt lat="48.4157" lon="7.29828">
        <ele>900</ele>
        <time>2020-06-24T07:47:05.116Z</time>
      </trkpt>
      <trkpt lat="48.41571" lon="7.29825">
        <ele>901</ele>
        <time>2020-06-24T07:47:06.116Z</time>
      </trkpt>
      <trkpt lat="48.41571" lon="7.29824">
        <ele>901</ele>
        <time>2020-06-24T07:47:07.116Z</time>
      </trkpt>
      <trkpt lat="48.41571" lon="7.29822">
        <ele>901</ele>
        <time>2020-06-24T07:47:08.116Z</time>
      </trkpt>
      <trkpt lat="48.41571" lon="7.2982">
        <ele>901</ele>
        <time>2020-06-24T07:47:09.116Z</time>
      </trkpt>
      <trkpt lat="48.41571" lon="7.29819">
        <ele>901</ele>
        <time>2020-06-24T07:47:10.116Z</time>
      </trkpt>
      <trkpt lat="48.41571" lon="7.29817">
        <ele>901</ele>
        <time>2020-06-24T07:47:11.116Z</time>
      </trkpt>
      <trkpt lat="48.41572" lon="7.29815">
        <ele>901</ele>
        <time>2020-06-24T07:47:12.116Z</time>
      </trkpt>
      <trkpt lat="48.41572" lon="7.29814">
        <ele>902</ele>
        <time>2020-06-24T07:47:13.116Z</time>
      </trkpt>
      <trkpt lat="48.41572" lon="7.29812">
        <ele>902</ele>
        <time>2020-06-24T07:47:14.116Z</time>
      </trkpt>
      <trkpt lat="48.41573" lon="7.29809">
        <ele>903</ele>
        <time>2020-06-24T07:47:15.116Z</time>
      </trkpt>
      <trkpt lat="48.41573" lon="7.29806">
        <ele>903</ele>
        <time>2020-06-24T07:47:16.116Z</time>
      </trkpt>
      <trkpt lat="48.41574" lon="7.29801">
        <ele>903</ele>
        <time>2020-06-24T07:47:17.116Z</time>
      </trkpt>
      <trkpt lat="48.41574" lon="7.29799">
        <ele>903</ele>
        <time>2020-06-24T07:47:18.116Z</time>
      </trkpt>
      <trkpt lat="48.41574" lon="7.29797">
        <ele>903</ele>
        <time>2020-06-24T07:47:19.116Z</time>
      </trkpt>
      <trkpt lat="48.41574" lon="7.29796">
        <ele>903</ele>
        <time>2020-06-24T07:47:20.116Z</time>
      </trkpt>
      <trkpt lat="48.41575" lon="7.29795">
        <ele>903</ele>
        <time>2020-06-24T07:47:21.116Z</time>
      </trkpt>
      <trkpt lat="48.41575" lon="7.29793">
        <ele>904</ele>
        <time>2020-06-24T07:47:22.116Z</time>
      </trkpt>
      <trkpt lat="48.41575" lon="7.29791">
        <ele>904</ele>
        <time>2020-06-24T07:47:23.116Z</time>
      </trkpt>
      <trkpt lat="48.41575" lon="7.29789">
        <ele>904</ele>
        <time>2020-06-24T07:47:24.116Z</time>
      </trkpt>
      <trkpt lat="48.41575" lon="7.29787">
        <ele>904</ele>
        <time>2020-06-24T07:47:25.116Z</time>
      </trkpt>
      <trkpt lat="48.41575" lon="7.29785">
        <ele>903</ele>
        <time>2020-06-24T07:47:26.116Z</time>
      </trkpt>
      <trkpt lat="48.41573" lon="7.29782">
        <ele>903</ele>
        <time>2020-06-24T07:47:27.116Z</time>
      </trkpt>
      <trkpt lat="48.41572" lon="7.29781">
        <ele>903</ele>
        <time>2020-06-24T07:47:28.116Z</time>
      </trkpt>
      <trkpt lat="48.41572" lon="7.29779">
        <ele>903</ele>
        <time>2020-06-24T07:47:29.116Z</time>
      </trkpt>
      <trkpt lat="48.41572" lon="7.29778">
        <ele>903</ele>
        <time>2020-06-24T07:47:30.116Z</time>
      </trkpt>
      <trkpt lat="48.41573" lon="7.29776">
        <ele>904</ele>
        <time>2020-06-24T07:47:31.116Z</time>
      </trkpt>
      <trkpt lat="48.41573" lon="7.29774">
        <ele>905</ele>
        <time>2020-06-24T07:47:32.116Z</time>
      </trkpt>
      <trkpt lat="48.41573" lon="7.29772">
        <ele>905</ele>
        <time>2020-06-24T07:47:33.116Z</time>
      </trkpt>
      <trkpt lat="48.41573" lon="7.2977">
        <ele>906</ele>
        <time>2020-06-24T07:47:34.116Z</time>
      </trkpt>
      <trkpt lat="48.41573" lon="7.29768">
        <ele>907</ele>
        <time>2020-06-24T07:47:35.116Z</time>
      </trkpt>
      <trkpt lat="48.41573" lon="7.29766">
        <ele>907</ele>
        <time>2020-06-24T07:47:36.116Z</time>
      </trkpt>
      <trkpt lat="48.41572" lon="7.29765">
        <ele>907</ele>
        <time>2020-06-24T07:47:37.116Z</time>
      </trkpt>
      <trkpt lat="48.41571" lon="7.29763">
        <ele>907</ele>
        <time>2020-06-24T07:47:38.116Z</time>
      </trkpt>
      <trkpt lat="48.4157" lon="7.29761">
        <ele>908</ele>
        <time>2020-06-24T07:47:39.116Z</time>
      </trkpt>
      <trkpt lat="48.41569" lon="7.2976">
        <ele>908</ele>
        <time>2020-06-24T07:47:40.116Z</time>
      </trkpt>
      <trkpt lat="48.41569" lon="7.29758">
        <ele>908</ele>
        <time>2020-06-24T07:47:41.116Z</time>
      </trkpt>
      <trkpt lat="48.41569" lon="7.29755">
        <ele>909</ele>
        <time>2020-06-24T07:47:42.116Z</time>
      </trkpt>
      <trkpt lat="48.41571" lon="7.29753">
        <ele>909</ele>
        <time>2020-06-24T07:47:43.116Z</time>
      </trkpt>
      <trkpt lat="48.41572" lon="7.2975">
        <ele>909</ele>
        <time>2020-06-24T07:47:44.116Z</time>
      </trkpt>
      <trkpt lat="48.41573" lon="7.29746">
        <ele>910</ele>
        <time>2020-06-24T07:47:45.116Z</time>
      </trkpt>
      <trkpt lat="48.41574" lon="7.29743">
        <ele>910</ele>
        <time>2020-06-24T07:47:46.116Z</time>
      </trkpt>
      <trkpt lat="48.41574" lon="7.29741">
        <ele>911</ele>
        <time>2020-06-24T07:47:47.116Z</time>
      </trkpt>
      <trkpt lat="48.41573" lon="7.2974">
        <ele>911</ele>
        <time>2020-06-24T07:47:48.116Z</time>
      </trkpt>
      <trkpt lat="48.41572" lon="7.29738">
        <ele>910</ele>
        <time>2020-06-24T07:47:49.116Z</time>
      </trkpt>
      <trkpt lat="48.41572" lon="7.29736">
        <ele>910</ele>
        <time>2020-06-24T07:47:50.116Z</time>
      </trkpt>
      <trkpt lat="48.41572" lon="7.29734">
        <ele>910</ele>
        <time>2020-06-24T07:47:51.116Z</time>
      </trkpt>
      <trkpt lat="48.41572" lon="7.29732">
        <ele>910</ele>
        <time>2020-06-24T07:47:52.116Z</time>
      </trkpt>
      <trkpt lat="48.41572" lon="7.2973">
        <ele>910</ele>
        <time>2020-06-24T07:47:53.116Z</time>
      </trkpt>
      <trkpt lat="48.41571" lon="7.29728">
        <ele>910</ele>
        <time>2020-06-24T07:47:54.116Z</time>
      </trkpt>
      <trkpt lat="48.41571" lon="7.29727">
        <ele>910</ele>
        <time>2020-06-24T07:47:55.116Z</time>
      </trkpt>
      <trkpt lat="48.4157" lon="7.29726">
        <ele>910</ele>
        <time>2020-06-24T07:47:56.116Z</time>
      </trkpt>
      <trkpt lat="48.4157" lon="7.29724">
        <ele>910</ele>
        <time>2020-06-24T07:47:57.116Z</time>
      </trkpt>
      <trkpt lat="48.4157" lon="7.29721">
        <ele>911</ele>
        <time>2020-06-24T07:47:58.116Z</time>
      </trkpt>
      <trkpt lat="48.41571" lon="7.29719">
        <ele>911</ele>
        <time>2020-06-24T07:47:59.116Z</time>
      </trkpt>
      <trkpt lat="48.4157" lon="7.29717">
        <ele>912</ele>
        <time>2020-06-24T07:48:00.116Z</time>
      </trkpt>
      <trkpt lat="48.4157" lon="7.29715">
        <ele>912</ele>
        <time>2020-06-24T07:48:01.116Z</time>
      </trkpt>
      <trkpt lat="48.4157" lon="7.29714">
        <ele>913</ele>
        <time>2020-06-24T07:48:02.116Z</time>
      </trkpt>
      <trkpt lat="48.41569" lon="7.29713">
        <ele>914</ele>
        <time>2020-06-24T07:48:03.116Z</time>
      </trkpt>
      <trkpt lat="48.41569" lon="7.29712">
        <ele>915</ele>
        <time>2020-06-24T07:48:04.116Z</time>
      </trkpt>
      <trkpt lat="48.41569" lon="7.2971">
        <ele>915</ele>
        <time>2020-06-24T07:48:05.116Z</time>
      </trkpt>
      <trkpt lat="48.4157" lon="7.29709">
        <ele>916</ele>
        <time>2020-06-24T07:48:06.116Z</time>
      </trkpt>
      <trkpt lat="48.4157" lon="7.29707">
        <ele>916</ele>
        <time>2020-06-24T07:48:07.116Z</time>
      </trkpt>
      <trkpt lat="48.4157" lon="7.29705">
        <ele>917</ele>
        <time>2020-06-24T07:48:08.116Z</time>
      </trkpt>
      <trkpt lat="48.4157" lon="7.29703">
        <ele>917</ele>
        <time>2020-06-24T07:48:09.116Z</time>
      </trkpt>
      <trkpt lat="48.41569" lon="7.29701">
        <ele>918</ele>
        <time>2020-06-24T07:48:10.116Z</time>
      </trkpt>
      <trkpt lat="48.41568" lon="7.297">
        <ele>918</ele>
        <time>2020-06-24T07:48:11.116Z</time>
      </trkpt>
      <trkpt lat="48.41567" lon="7.29698">
        <ele>918</ele>
        <time>2020-06-24T07:48:12.116Z</time>
      </trkpt>
      <trkpt lat="48.41566" lon="7.29697">
        <ele>919</ele>
        <time>2020-06-24T07:48:13.116Z</time>
      </trkpt>
      <trkpt lat="48.41566" lon="7.29695">
        <ele>919</ele>
        <time>2020-06-24T07:48:14.116Z</time>
      </trkpt>
      <trkpt lat="48.41565" lon="7.29694">
        <ele>919</ele>
        <time>2020-06-24T07:48:15.116Z</time>
      </trkpt>
      <trkpt lat="48.41564" lon="7.29693">
        <ele>920</ele>
        <time>2020-06-24T07:48:16.116Z</time>
      </trkpt>
      <trkpt lat="48.41564" lon="7.29693">
        <ele>921</ele>
        <time>2020-06-24T07:48:17.116Z</time>
      </trkpt>
      <trkpt lat="48.41563" lon="7.29693">
        <ele>921</ele>
        <time>2020-06-24T07:48:18.116Z</time>
      </trkpt>
      <trkpt lat="48.41562" lon="7.29693">
        <ele>922</ele>
        <time>2020-06-24T07:48:19.116Z</time>
      </trkpt>
      <trkpt lat="48.41561" lon="7.29692">
        <ele>922</ele>
        <time>2020-06-24T07:48:20.116Z</time>
      </trkpt>
      <trkpt lat="48.41561" lon="7.29692">
        <ele>922</ele>
        <time>2020-06-24T07:48:21.116Z</time>
      </trkpt>
      <trkpt lat="48.4156" lon="7.29692">
        <ele>923</ele>
        <time>2020-06-24T07:48:22.116Z</time>
      </trkpt>
      <trkpt lat="48.4156" lon="7.29692">
        <ele>923</ele>
        <time>2020-06-24T07:48:23.116Z</time>
      </trkpt>
      <trkpt lat="48.41559" lon="7.29693">
        <ele>923</ele>
        <time>2020-06-24T07:48:24.116Z</time>
      </trkpt>
      <trkpt lat="48.41559" lon="7.29693">
        <ele>923</ele>
        <time>2020-06-24T07:48:25.116Z</time>
      </trkpt>
      <trkpt lat="48.41559" lon="7.29694">
        <ele>924</ele>
        <time>2020-06-24T07:48:26.116Z</time>
      </trkpt>
      <trkpt lat="48.41558" lon="7.29694">
        <ele>924</ele>
        <time>2020-06-24T07:48:27.116Z</time>
      </trkpt>
      <trkpt lat="48.41557" lon="7.29694">
        <ele>924</ele>
        <time>2020-06-24T07:48:28.116Z</time>
      </trkpt>
      <trkpt lat="48.41556" lon="7.29694">
        <ele>925</ele>
        <time>2020-06-24T07:48:29.116Z</time>
      </trkpt>
      <trkpt lat="48.41555" lon="7.29694">
        <ele>925</ele>
        <time>2020-06-24T07:48:30.116Z</time>
      </trkpt>
      <trkpt lat="48.41554" lon="7.29694">
        <ele>925</ele>
        <time>2020-06-24T07:48:31.116Z</time>
      </trkpt>
      <trkpt lat="48.41553" lon="7.29694">
        <ele>925</ele>
        <time>2020-06-24T07:48:32.116Z</time>
      </trkpt>
      <trkpt lat="48.41553" lon="7.29695">
        <ele>925</ele>
        <time>2020-06-24T07:48:33.116Z</time>
      </trkpt>
      <trkpt lat="48.41552" lon="7.29694">
        <ele>925</ele>
        <time>2020-06-24T07:48:34.116Z</time>
      </trkpt>
      <trkpt lat="48.41552" lon="7.29694">
        <ele>925</ele>
        <time>2020-06-24T07:48:35.116Z</time>
      </trkpt>
      <trkpt lat="48.41551" lon="7.29694">
        <ele>926</ele>
        <time>2020-06-24T07:48:36.116Z</time>
      </trkpt>
      <trkpt lat="48.41551" lon="7.29693">
        <ele>926</ele>
        <time>2020-06-24T07:48:37.116Z</time>
      </trkpt>
      <trkpt lat="48.4155" lon="7.29692">
        <ele>926</ele>
        <time>2020-06-24T07:48:38.116Z</time>
      </trkpt>
      <trkpt lat="48.41549" lon="7.29692">
        <ele>927</ele>
        <time>2020-06-24T07:48:39.116Z</time>
      </trkpt>
      <trkpt lat="48.41548" lon="7.29691">
        <ele>927</ele>
        <time>2020-06-24T07:48:40.116Z</time>
      </trkpt>
      <trkpt lat="48.41547" lon="7.2969">
        <ele>928</ele>
        <time>2020-06-24T07:48:41.116Z</time>
      </trkpt>
      <trkpt lat="48.41546" lon="7.2969">
        <ele>929</ele>
        <time>2020-06-24T07:48:42.116Z</time>
      </trkpt>
      <trkpt lat="48.41545" lon="7.29688">
        <ele>929</ele>
        <time>2020-06-24T07:48:43.116Z</time>
      </trkpt>
      <trkpt lat="48.41545" lon="7.29688">
        <ele>930</ele>
        <time>2020-06-24T07:48:44.116Z</time>
      </trkpt>
      <trkpt lat="48.41545" lon="7.29688">
        <ele>931</ele>
        <time>2020-06-24T07:48:45.116Z</time>
      </trkpt>
      <trkpt lat="48.41545" lon="7.29688">
        <ele>931</ele>
        <time>2020-06-24T07:48:46.116Z</time>
      </trkpt>
      <trkpt lat="48.41546" lon="7.29687">
        <ele>932</ele>
        <time>2020-06-24T07:48:47.116Z</time>
      </trkpt>
      <trkpt lat="48.41546" lon="7.29686">
        <ele>933</ele>
        <time>2020-06-24T07:48:48.116Z</time>
      </trkpt>
      <trkpt lat="48.41546" lon="7.29686">
        <ele>934</ele>
        <time>2020-06-24T07:48:49.116Z</time>
      </trkpt>
      <trkpt lat="48.41547" lon="7.29685">
        <ele>934</ele>
        <time>2020-06-24T07:48:50.116Z</time>
      </trkpt>
      <trkpt lat="48.41548" lon="7.29685">
        <ele>935</ele>
        <time>2020-06-24T07:48:51.116Z</time>
      </trkpt>
      <trkpt lat="48.41547" lon="7.29685">
        <ele>936</ele>
        <time>2020-06-24T07:48:52.116Z</time>
      </trkpt>
      <trkpt lat="48.41547" lon="7.29685">
        <ele>936</ele>
        <time>2020-06-24T07:48:53.116Z</time>
      </trkpt>
      <trkpt lat="48.41547" lon="7.29686">
        <ele>936</ele>
        <time>2020-06-24T07:48:54.116Z</time>
      </trkpt>
      <trkpt lat="48.41548" lon="7.29686">
        <ele>936</ele>
        <time>2020-06-24T07:48:55.116Z</time>
      </trkpt>
      <trkpt lat="48.41548" lon="7.29686">
        <ele>936</ele>
        <time>2020-06-24T07:48:56.116Z</time>
      </trkpt>
      <trkpt lat="48.41551" lon="7.29689">
        <ele>938</ele>
        <time>2020-06-24T07:48:57.116Z</time>
      </trkpt>
      <trkpt lat="48.41552" lon="7.29689">
        <ele>937</ele>
        <time>2020-06-24T07:48:58.117Z</time>
      </trkpt>
      <trkpt lat="48.41552" lon="7.2969">
        <ele>937</ele>
        <time>2020-06-24T07:48:59.116Z</time>
      </trkpt>
      <trkpt lat="48.41553" lon="7.29691">
        <ele>937</ele>
        <time>2020-06-24T07:49:00.117Z</time>
      </trkpt>
      <trkpt lat="48.41553" lon="7.29692">
        <ele>937</ele>
        <time>2020-06-24T07:49:01.117Z</time>
      </trkpt>
      <trkpt lat="48.41554" lon="7.29693">
        <ele>931</ele>
        <time>2020-06-24T07:49:02.117Z</time>
      </trkpt>
      <trkpt lat="48.41554" lon="7.29693">
        <ele>930</ele>
        <time>2020-06-24T07:49:03.118Z</time>
      </trkpt>
      <trkpt lat="48.41553" lon="7.29693">
        <ele>930</ele>
        <time>2020-06-24T07:49:04.117Z</time>
      </trkpt>
      <trkpt lat="48.41551" lon="7.29692">
        <ele>930</ele>
        <time>2020-06-24T07:49:05.117Z</time>
      </trkpt>
      <trkpt lat="48.41549" lon="7.29691">
        <ele>930</ele>
        <time>2020-06-24T07:49:06.118Z</time>
      </trkpt>
      <trkpt lat="48.41547" lon="7.29691">
        <ele>929</ele>
        <time>2020-06-24T07:49:07.117Z</time>
      </trkpt>
      <trkpt lat="48.41546" lon="7.29691">
        <ele>929</ele>
        <time>2020-06-24T07:49:08.117Z</time>
      </trkpt>
      <trkpt lat="48.41544" lon="7.29691">
        <ele>929</ele>
        <time>2020-06-24T07:49:09.118Z</time>
      </trkpt>
      <trkpt lat="48.41542" lon="7.2969">
        <ele>929</ele>
        <time>2020-06-24T07:49:10.118Z</time>
      </trkpt>
      <trkpt lat="48.4154" lon="7.2969">
        <ele>929</ele>
        <time>2020-06-24T07:49:11.117Z</time>
      </trkpt>
      <trkpt lat="48.41539" lon="7.2969">
        <ele>929</ele>
        <time>2020-06-24T07:49:12.118Z</time>
      </trkpt>
      <trkpt lat="48.41538" lon="7.2969">
        <ele>929</ele>
        <time>2020-06-24T07:49:13.118Z</time>
      </trkpt>
      <trkpt lat="48.41536" lon="7.2969">
        <ele>929</ele>
        <time>2020-06-24T07:49:14.118Z</time>
      </trkpt>
      <trkpt lat="48.41535" lon="7.2969">
        <ele>928</ele>
        <time>2020-06-24T07:49:15.118Z</time>
      </trkpt>
      <trkpt lat="48.41534" lon="7.29689">
        <ele>928</ele>
        <time>2020-06-24T07:49:16.118Z</time>
      </trkpt>
      <trkpt lat="48.41533" lon="7.29688">
        <ele>928</ele>
        <time>2020-06-24T07:49:17.118Z</time>
      </trkpt>
      <trkpt lat="48.41532" lon="7.29687">
        <ele>928</ele>
        <time>2020-06-24T07:49:18.118Z</time>
      </trkpt>
      <trkpt lat="48.4153" lon="7.29687">
        <ele>928</ele>
        <time>2020-06-24T07:49:19.117Z</time>
      </trkpt>
      <trkpt lat="48.41529" lon="7.29686">
        <ele>927</ele>
        <time>2020-06-24T07:49:20.118Z</time>
      </trkpt>
      <trkpt lat="48.41528" lon="7.29684">
        <ele>927</ele>
        <time>2020-06-24T07:49:21.118Z</time>
      </trkpt>
      <trkpt lat="48.41527" lon="7.29683">
        <ele>927</ele>
        <time>2020-06-24T07:49:22.118Z</time>
      </trkpt>
      <trkpt lat="48.41525" lon="7.29682">
        <ele>927</ele>
        <time>2020-06-24T07:49:23.118Z</time>
      </trkpt>
      <trkpt lat="48.41524" lon="7.29682">
        <ele>927</ele>
        <time>2020-06-24T07:49:24.117Z</time>
      </trkpt>
      <trkpt lat="48.41521" lon="7.29681">
        <ele>927</ele>
        <time>2020-06-24T07:49:25.118Z</time>
      </trkpt>
      <trkpt lat="48.41518" lon="7.29679">
        <ele>926</ele>
        <time>2020-06-24T07:49:26.118Z</time>
      </trkpt>
      <trkpt lat="48.41516" lon="7.29678">
        <ele>926</ele>
        <time>2020-06-24T07:49:27.118Z</time>
      </trkpt>
      <trkpt lat="48.41514" lon="7.29677">
        <ele>926</ele>
        <time>2020-06-24T07:49:28.118Z</time>
      </trkpt>
      <trkpt lat="48.41513" lon="7.29676">
        <ele>926</ele>
        <time>2020-06-24T07:49:29.117Z</time>
      </trkpt>
      <trkpt lat="48.41512" lon="7.29674">
        <ele>926</ele>
        <time>2020-06-24T07:49:30.117Z</time>
      </trkpt>
      <trkpt lat="48.4151" lon="7.29672">
        <ele>927</ele>
        <time>2020-06-24T07:49:31.118Z</time>
      </trkpt>
      <trkpt lat="48.41509" lon="7.29671">
        <ele>927</ele>
        <time>2020-06-24T07:49:32.118Z</time>
      </trkpt>
      <trkpt lat="48.41508" lon="7.29669">
        <ele>926</ele>
        <time>2020-06-24T07:49:33.117Z</time>
      </trkpt>
      <trkpt lat="48.41506" lon="7.29667">
        <ele>926</ele>
        <time>2020-06-24T07:49:34.118Z</time>
      </trkpt>
      <trkpt lat="48.41505" lon="7.29666">
        <ele>926</ele>
        <time>2020-06-24T07:49:35.118Z</time>
      </trkpt>
      <trkpt lat="48.41503" lon="7.29665">
        <ele>925</ele>
        <time>2020-06-24T07:49:36.117Z</time>
      </trkpt>
      <trkpt lat="48.41502" lon="7.29664">
        <ele>925</ele>
        <time>2020-06-24T07:49:37.118Z</time>
      </trkpt>
      <trkpt lat="48.41501" lon="7.29663">
        <ele>925</ele>
        <time>2020-06-24T07:49:38.118Z</time>
      </trkpt>
      <trkpt lat="48.41499" lon="7.2966">
        <ele>925</ele>
        <time>2020-06-24T07:49:39.118Z</time>
      </trkpt>
      <trkpt lat="48.41498" lon="7.29658">
        <ele>924</ele>
        <time>2020-06-24T07:49:40.118Z</time>
      </trkpt>
      <trkpt lat="48.41497" lon="7.29656">
        <ele>924</ele>
        <time>2020-06-24T07:49:41.118Z</time>
      </trkpt>
      <trkpt lat="48.41496" lon="7.29655">
        <ele>923</ele>
        <time>2020-06-24T07:49:42.118Z</time>
      </trkpt>
      <trkpt lat="48.41495" lon="7.29654">
        <ele>923</ele>
        <time>2020-06-24T07:49:43.117Z</time>
      </trkpt>
      <trkpt lat="48.41493" lon="7.29653">
        <ele>922</ele>
        <time>2020-06-24T07:49:44.117Z</time>
      </trkpt>
      <trkpt lat="48.41492" lon="7.29652">
        <ele>921</ele>
        <time>2020-06-24T07:49:45.118Z</time>
      </trkpt>
      <trkpt lat="48.4149" lon="7.29652">
        <ele>921</ele>
        <time>2020-06-24T07:49:46.118Z</time>
      </trkpt>
      <trkpt lat="48.4149" lon="7.29651">
        <ele>920</ele>
        <time>2020-06-24T07:49:47.117Z</time>
      </trkpt>
      <trkpt lat="48.41489" lon="7.29651">
        <ele>920</ele>
        <time>2020-06-24T07:49:48.118Z</time>
      </trkpt>
      <trkpt lat="48.41487" lon="7.2965">
        <ele>920</ele>
        <time>2020-06-24T07:49:49.118Z</time>
      </trkpt>
      <trkpt lat="48.41487" lon="7.29649">
        <ele>920</ele>
        <time>2020-06-24T07:49:50.118Z</time>
      </trkpt>
      <trkpt lat="48.41486" lon="7.29648">
        <ele>920</ele>
        <time>2020-06-24T07:49:51.118Z</time>
      </trkpt>
      <trkpt lat="48.41485" lon="7.29647">
        <ele>920</ele>
        <time>2020-06-24T07:49:52.117Z</time>
      </trkpt>
      <trkpt lat="48.41484" lon="7.29646">
        <ele>920</ele>
        <time>2020-06-24T07:49:53.118Z</time>
      </trkpt>
      <trkpt lat="48.41483" lon="7.29645">
        <ele>920</ele>
        <time>2020-06-24T07:49:54.118Z</time>
      </trkpt>
      <trkpt lat="48.41482" lon="7.29644">
        <ele>920</ele>
        <time>2020-06-24T07:49:55.118Z</time>
      </trkpt>
      <trkpt lat="48.41481" lon="7.29642">
        <ele>921</ele>
        <time>2020-06-24T07:49:56.118Z</time>
      </trkpt>
      <trkpt lat="48.4148" lon="7.29641">
        <ele>921</ele>
        <time>2020-06-24T07:49:57.117Z</time>
      </trkpt>
      <trkpt lat="48.41479" lon="7.2964">
        <ele>921</ele>
        <time>2020-06-24T07:49:58.118Z</time>
      </trkpt>
      <trkpt lat="48.41478" lon="7.2964">
        <ele>921</ele>
        <time>2020-06-24T07:49:59.118Z</time>
      </trkpt>
      <trkpt lat="48.41477" lon="7.29639">
        <ele>921</ele>
        <time>2020-06-24T07:50:00.118Z</time>
      </trkpt>
      <trkpt lat="48.41476" lon="7.29637">
        <ele>922</ele>
        <time>2020-06-24T07:50:01.117Z</time>
      </trkpt>
      <trkpt lat="48.41475" lon="7.29636">
        <ele>922</ele>
        <time>2020-06-24T07:50:02.118Z</time>
      </trkpt>
      <trkpt lat="48.41474" lon="7.29635">
        <ele>922</ele>
        <time>2020-06-24T07:50:03.118Z</time>
      </trkpt>
      <trkpt lat="48.41473" lon="7.29633">
        <ele>923</ele>
        <time>2020-06-24T07:50:04.118Z</time>
      </trkpt>
      <trkpt lat="48.41472" lon="7.29632">
        <ele>923</ele>
        <time>2020-06-24T07:50:05.118Z</time>
      </trkpt>
      <trkpt lat="48.41472" lon="7.29631">
        <ele>924</ele>
        <time>2020-06-24T07:50:06.118Z</time>
      </trkpt>
      <trkpt lat="48.41471" lon="7.2963">
        <ele>925</ele>
        <time>2020-06-24T07:50:07.117Z</time>
      </trkpt>
      <trkpt lat="48.41471" lon="7.29629">
        <ele>925</ele>
        <time>2020-06-24T07:50:08.118Z</time>
      </trkpt>
      <trkpt lat="48.4147" lon="7.29628">
        <ele>925</ele>
        <time>2020-06-24T07:50:09.118Z</time>
      </trkpt>
      <trkpt lat="48.41469" lon="7.29627">
        <ele>926</ele>
        <time>2020-06-24T07:50:10.117Z</time>
      </trkpt>
      <trkpt lat="48.41468" lon="7.29627">
        <ele>926</ele>
        <time>2020-06-24T07:50:11.117Z</time>
      </trkpt>
      <trkpt lat="48.41466" lon="7.29626">
        <ele>927</ele>
        <time>2020-06-24T07:50:12.118Z</time>
      </trkpt>
      <trkpt lat="48.41464" lon="7.29625">
        <ele>927</ele>
        <time>2020-06-24T07:50:13.118Z</time>
      </trkpt>
      <trkpt lat="48.41463" lon="7.29624">
        <ele>928</ele>
        <time>2020-06-24T07:50:14.118Z</time>
      </trkpt>
      <trkpt lat="48.41462" lon="7.29622">
        <ele>929</ele>
        <time>2020-06-24T07:50:15.117Z</time>
      </trkpt>
      <trkpt lat="48.41461" lon="7.2962">
        <ele>929</ele>
        <time>2020-06-24T07:50:16.118Z</time>
      </trkpt>
      <trkpt lat="48.4146" lon="7.29618">
        <ele>930</ele>
        <time>2020-06-24T07:50:17.118Z</time>
      </trkpt>
      <trkpt lat="48.41459" lon="7.29616">
        <ele>931</ele>
        <time>2020-06-24T07:50:18.118Z</time>
      </trkpt>
      <trkpt lat="48.41458" lon="7.29615">
        <ele>931</ele>
        <time>2020-06-24T07:50:19.118Z</time>
      </trkpt>
      <trkpt lat="48.41456" lon="7.29614">
        <ele>932</ele>
        <time>2020-06-24T07:50:20.117Z</time>
      </trkpt>
      <trkpt lat="48.41455" lon="7.29613">
        <ele>932</ele>
        <time>2020-06-24T07:50:21.118Z</time>
      </trkpt>
      <trkpt lat="48.41455" lon="7.29611">
        <ele>933</ele>
        <time>2020-06-24T07:50:22.118Z</time>
      </trkpt>
      <trkpt lat="48.41454" lon="7.2961">
        <ele>933</ele>
        <time>2020-06-24T07:50:23.118Z</time>
      </trkpt>
      <trkpt lat="48.41451" lon="7.29609">
        <ele>933</ele>
        <time>2020-06-24T07:50:24.118Z</time>
      </trkpt>
      <trkpt lat="48.41449" lon="7.29607">
        <ele>934</ele>
        <time>2020-06-24T07:50:25.117Z</time>
      </trkpt>
      <trkpt lat="48.41448" lon="7.29605">
        <ele>934</ele>
        <time>2020-06-24T07:50:26.118Z</time>
      </trkpt>
      <trkpt lat="48.41448" lon="7.29603">
        <ele>935</ele>
        <time>2020-06-24T07:50:27.118Z</time>
      </trkpt>
      <trkpt lat="48.41448" lon="7.29601">
        <ele>935</ele>
        <time>2020-06-24T07:50:28.118Z</time>
      </trkpt>
      <trkpt lat="48.41448" lon="7.29599">
        <ele>936</ele>
        <time>2020-06-24T07:50:29.117Z</time>
      </trkpt>
      <trkpt lat="48.41448" lon="7.29597">
        <ele>936</ele>
        <time>2020-06-24T07:50:30.118Z</time>
      </trkpt>
      <trkpt lat="48.41447" lon="7.29595">
        <ele>936</ele>
        <time>2020-06-24T07:50:31.118Z</time>
      </trkpt>
      <trkpt lat="48.41446" lon="7.29593">
        <ele>936</ele>
        <time>2020-06-24T07:50:32.118Z</time>
      </trkpt>
      <trkpt lat="48.41446" lon="7.29592">
        <ele>936</ele>
        <time>2020-06-24T07:50:33.118Z</time>
      </trkpt>
      <trkpt lat="48.41446" lon="7.2959">
        <ele>936</ele>
        <time>2020-06-24T07:50:34.118Z</time>
      </trkpt>
      <trkpt lat="48.41445" lon="7.29589">
        <ele>936</ele>
        <time>2020-06-24T07:50:35.118Z</time>
      </trkpt>
      <trkpt lat="48.41445" lon="7.29587">
        <ele>936</ele>
        <time>2020-06-24T07:50:36.118Z</time>
      </trkpt>
      <trkpt lat="48.41444" lon="7.29586">
        <ele>936</ele>
        <time>2020-06-24T07:50:37.118Z</time>
      </trkpt>
      <trkpt lat="48.41442" lon="7.29584">
        <ele>935</ele>
        <time>2020-06-24T07:50:38.118Z</time>
      </trkpt>
      <trkpt lat="48.41441" lon="7.29583">
        <ele>935</ele>
        <time>2020-06-24T07:50:39.118Z</time>
      </trkpt>
      <trkpt lat="48.4144" lon="7.29583">
        <ele>935</ele>
        <time>2020-06-24T07:50:40.117Z</time>
      </trkpt>
      <trkpt lat="48.41439" lon="7.29582">
        <ele>935</ele>
        <time>2020-06-24T07:50:41.118Z</time>
      </trkpt>
      <trkpt lat="48.41438" lon="7.29581">
        <ele>935</ele>
        <time>2020-06-24T07:50:42.118Z</time>
      </trkpt>
      <trkpt lat="48.41437" lon="7.2958">
        <ele>934</ele>
        <time>2020-06-24T07:50:43.118Z</time>
      </trkpt>
      <trkpt lat="48.41437" lon="7.29578">
        <ele>934</ele>
        <time>2020-06-24T07:50:44.118Z</time>
      </trkpt>
      <trkpt lat="48.41437" lon="7.29576">
        <ele>934</ele>
        <time>2020-06-24T07:50:45.117Z</time>
      </trkpt>
      <trkpt lat="48.41436" lon="7.29575">
        <ele>934</ele>
        <time>2020-06-24T07:50:46.118Z</time>
      </trkpt>
      <trkpt lat="48.41435" lon="7.29574">
        <ele>934</ele>
        <time>2020-06-24T07:50:47.117Z</time>
      </trkpt>
      <trkpt lat="48.41434" lon="7.29573">
        <ele>935</ele>
        <time>2020-06-24T07:50:48.118Z</time>
      </trkpt>
      <trkpt lat="48.41433" lon="7.29573">
        <ele>935</ele>
        <time>2020-06-24T07:50:49.117Z</time>
      </trkpt>
      <trkpt lat="48.41433" lon="7.29571">
        <ele>935</ele>
        <time>2020-06-24T07:50:50.117Z</time>
      </trkpt>
      <trkpt lat="48.41433" lon="7.2957">
        <ele>936</ele>
        <time>2020-06-24T07:50:51.118Z</time>
      </trkpt>
      <trkpt lat="48.41432" lon="7.29568">
        <ele>936</ele>
        <time>2020-06-24T07:50:52.118Z</time>
      </trkpt>
      <trkpt lat="48.41432" lon="7.29566">
        <ele>936</ele>
        <time>2020-06-24T07:50:53.117Z</time>
      </trkpt>
      <trkpt lat="48.41431" lon="7.29565">
        <ele>936</ele>
        <time>2020-06-24T07:50:54.118Z</time>
      </trkpt>
      <trkpt lat="48.4143" lon="7.29564">
        <ele>936</ele>
        <time>2020-06-24T07:50:55.118Z</time>
      </trkpt>
      <trkpt lat="48.4143" lon="7.29562">
        <ele>936</ele>
        <time>2020-06-24T07:50:56.118Z</time>
      </trkpt>
      <trkpt lat="48.41429" lon="7.29561">
        <ele>936</ele>
        <time>2020-06-24T07:50:57.118Z</time>
      </trkpt>
      <trkpt lat="48.41428" lon="7.29558">
        <ele>936</ele>
        <time>2020-06-24T07:50:58.118Z</time>
      </trkpt>
      <trkpt lat="48.41428" lon="7.29557">
        <ele>936</ele>
        <time>2020-06-24T07:50:59.118Z</time>
      </trkpt>
      <trkpt lat="48.41427" lon="7.29556">
        <ele>936</ele>
        <time>2020-06-24T07:51:00.118Z</time>
      </trkpt>
      <trkpt lat="48.41427" lon="7.29554">
        <ele>935</ele>
        <time>2020-06-24T07:51:01.117Z</time>
      </trkpt>
      <trkpt lat="48.41426" lon="7.29552">
        <ele>935</ele>
        <time>2020-06-24T07:51:02.118Z</time>
      </trkpt>
      <trkpt lat="48.41425" lon="7.29551">
        <ele>935</ele>
        <time>2020-06-24T07:51:03.117Z</time>
      </trkpt>
      <trkpt lat="48.41425" lon="7.2955">
        <ele>935</ele>
        <time>2020-06-24T07:51:04.118Z</time>
      </trkpt>
      <trkpt lat="48.41423" lon="7.29549">
        <ele>935</ele>
        <time>2020-06-24T07:51:05.118Z</time>
      </trkpt>
      <trkpt lat="48.41422" lon="7.29548">
        <ele>935</ele>
        <time>2020-06-24T07:51:06.118Z</time>
      </trkpt>
      <trkpt lat="48.4142" lon="7.29546">
        <ele>935</ele>
        <time>2020-06-24T07:51:07.118Z</time>
      </trkpt>
      <trkpt lat="48.41419" lon="7.29545">
        <ele>935</ele>
        <time>2020-06-24T07:51:08.117Z</time>
      </trkpt>
      <trkpt lat="48.41418" lon="7.29544">
        <ele>936</ele>
        <time>2020-06-24T07:51:09.118Z</time>
      </trkpt>
      <trkpt lat="48.41418" lon="7.29543">
        <ele>936</ele>
        <time>2020-06-24T07:51:10.117Z</time>
      </trkpt>
      <trkpt lat="48.41417" lon="7.29541">
        <ele>937</ele>
        <time>2020-06-24T07:51:11.118Z</time>
      </trkpt>
      <trkpt lat="48.41416" lon="7.2954">
        <ele>937</ele>
        <time>2020-06-24T07:51:12.118Z</time>
      </trkpt>
      <trkpt lat="48.41415" lon="7.29539">
        <ele>938</ele>
        <time>2020-06-24T07:51:13.118Z</time>
      </trkpt>
      <trkpt lat="48.41414" lon="7.29538">
        <ele>938</ele>
        <time>2020-06-24T07:51:14.118Z</time>
      </trkpt>
      <trkpt lat="48.41413" lon="7.29536">
        <ele>939</ele>
        <time>2020-06-24T07:51:15.118Z</time>
      </trkpt>
      <trkpt lat="48.41413" lon="7.29535">
        <ele>940</ele>
        <time>2020-06-24T07:51:16.118Z</time>
      </trkpt>
      <trkpt lat="48.41412" lon="7.29534">
        <ele>940</ele>
        <time>2020-06-24T07:51:17.118Z</time>
      </trkpt>
      <trkpt lat="48.41411" lon="7.29532">
        <ele>940</ele>
        <time>2020-06-24T07:51:18.118Z</time>
      </trkpt>
      <trkpt lat="48.4141" lon="7.29531">
        <ele>940</ele>
        <time>2020-06-24T07:51:19.117Z</time>
      </trkpt>
      <trkpt lat="48.41409" lon="7.29528">
        <ele>941</ele>
        <time>2020-06-24T07:51:20.118Z</time>
      </trkpt>
      <trkpt lat="48.41408" lon="7.29527">
        <ele>941</ele>
        <time>2020-06-24T07:51:21.117Z</time>
      </trkpt>
      <trkpt lat="48.41407" lon="7.29525">
        <ele>942</ele>
        <time>2020-06-24T07:51:22.118Z</time>
      </trkpt>
      <trkpt lat="48.41406" lon="7.29523">
        <ele>942</ele>
        <time>2020-06-24T07:51:23.117Z</time>
      </trkpt>
      <trkpt lat="48.41405" lon="7.29521">
        <ele>943</ele>
        <time>2020-06-24T07:51:24.118Z</time>
      </trkpt>
      <trkpt lat="48.41404" lon="7.2952">
        <ele>943</ele>
        <time>2020-06-24T07:51:25.118Z</time>
      </trkpt>
      <trkpt lat="48.41404" lon="7.29518">
        <ele>943</ele>
        <time>2020-06-24T07:51:26.117Z</time>
      </trkpt>
      <trkpt lat="48.41404" lon="7.29515">
        <ele>944</ele>
        <time>2020-06-24T07:51:27.117Z</time>
      </trkpt>
      <trkpt lat="48.41403" lon="7.29513">
        <ele>944</ele>
        <time>2020-06-24T07:51:28.118Z</time>
      </trkpt>
      <trkpt lat="48.41401" lon="7.2951">
        <ele>944</ele>
        <time>2020-06-24T07:51:29.118Z</time>
      </trkpt>
      <trkpt lat="48.414" lon="7.29509">
        <ele>944</ele>
        <time>2020-06-24T07:51:30.118Z</time>
      </trkpt>
      <trkpt lat="48.414" lon="7.29507">
        <ele>944</ele>
        <time>2020-06-24T07:51:31.117Z</time>
      </trkpt>
      <trkpt lat="48.41399" lon="7.29506">
        <ele>944</ele>
        <time>2020-06-24T07:51:32.117Z</time>
      </trkpt>
      <trkpt lat="48.41399" lon="7.29505">
        <ele>944</ele>
        <time>2020-06-24T07:51:33.117Z</time>
      </trkpt>
      <trkpt lat="48.41398" lon="7.29504">
        <ele>944</ele>
        <time>2020-06-24T07:51:34.118Z</time>
      </trkpt>
      <trkpt lat="48.41398" lon="7.29502">
        <ele>944</ele>
        <time>2020-06-24T07:51:35.117Z</time>
      </trkpt>
      <trkpt lat="48.41397" lon="7.29501">
        <ele>945</ele>
        <time>2020-06-24T07:51:36.117Z</time>
      </trkpt>
      <trkpt lat="48.41397" lon="7.295">
        <ele>945</ele>
        <time>2020-06-24T07:51:37.117Z</time>
      </trkpt>
      <trkpt lat="48.41395" lon="7.295">
        <ele>946</ele>
        <time>2020-06-24T07:51:38.118Z</time>
      </trkpt>
      <trkpt lat="48.41394" lon="7.29499">
        <ele>946</ele>
        <time>2020-06-24T07:51:39.117Z</time>
      </trkpt>
      <trkpt lat="48.41394" lon="7.29498">
        <ele>946</ele>
        <time>2020-06-24T07:51:40.118Z</time>
      </trkpt>
      <trkpt lat="48.41393" lon="7.29497">
        <ele>947</ele>
        <time>2020-06-24T07:51:41.118Z</time>
      </trkpt>
      <trkpt lat="48.41393" lon="7.29496">
        <ele>947</ele>
        <time>2020-06-24T07:51:42.118Z</time>
      </trkpt>
      <trkpt lat="48.41393" lon="7.29495">
        <ele>947</ele>
        <time>2020-06-24T07:51:43.118Z</time>
      </trkpt>
      <trkpt lat="48.41392" lon="7.29494">
        <ele>947</ele>
        <time>2020-06-24T07:51:44.118Z</time>
      </trkpt>
      <trkpt lat="48.41392" lon="7.29492">
        <ele>947</ele>
        <time>2020-06-24T07:51:45.118Z</time>
      </trkpt>
      <trkpt lat="48.41391" lon="7.2949">
        <ele>947</ele>
        <time>2020-06-24T07:51:46.117Z</time>
      </trkpt>
      <trkpt lat="48.4139" lon="7.29487">
        <ele>947</ele>
        <time>2020-06-24T07:51:47.118Z</time>
      </trkpt>
      <trkpt lat="48.41389" lon="7.29484">
        <ele>946</ele>
        <time>2020-06-24T07:51:48.118Z</time>
      </trkpt>
      <trkpt lat="48.41389" lon="7.29482">
        <ele>946</ele>
        <time>2020-06-24T07:51:49.118Z</time>
      </trkpt>
      <trkpt lat="48.4139" lon="7.2948">
        <ele>945</ele>
        <time>2020-06-24T07:51:50.117Z</time>
      </trkpt>
      <trkpt lat="48.4139" lon="7.29478">
        <ele>945</ele>
        <time>2020-06-24T07:51:51.117Z</time>
      </trkpt>
      <trkpt lat="48.41389" lon="7.29476">
        <ele>944</ele>
        <time>2020-06-24T07:51:52.118Z</time>
      </trkpt>
      <trkpt lat="48.41388" lon="7.29474">
        <ele>944</ele>
        <time>2020-06-24T07:51:53.118Z</time>
      </trkpt>
      <trkpt lat="48.41387" lon="7.29473">
        <ele>944</ele>
        <time>2020-06-24T07:51:54.118Z</time>
      </trkpt>
      <trkpt lat="48.41386" lon="7.29472">
        <ele>944</ele>
        <time>2020-06-24T07:51:55.118Z</time>
      </trkpt>
      <trkpt lat="48.41386" lon="7.2947">
        <ele>944</ele>
        <time>2020-06-24T07:51:56.118Z</time>
      </trkpt>
      <trkpt lat="48.41386" lon="7.29468">
        <ele>944</ele>
        <time>2020-06-24T07:51:57.117Z</time>
      </trkpt>
      <trkpt lat="48.41385" lon="7.29466">
        <ele>944</ele>
        <time>2020-06-24T07:51:58.118Z</time>
      </trkpt>
      <trkpt lat="48.41384" lon="7.29464">
        <ele>943</ele>
        <time>2020-06-24T07:51:59.118Z</time>
      </trkpt>
      <trkpt lat="48.41383" lon="7.29463">
        <ele>942</ele>
        <time>2020-06-24T07:52:00.117Z</time>
      </trkpt>
      <trkpt lat="48.41382" lon="7.29462">
        <ele>941</ele>
        <time>2020-06-24T07:52:01.118Z</time>
      </trkpt>
      <trkpt lat="48.41381" lon="7.29461">
        <ele>941</ele>
        <time>2020-06-24T07:52:02.118Z</time>
      </trkpt>
      <trkpt lat="48.41379" lon="7.2946">
        <ele>940</ele>
        <time>2020-06-24T07:52:03.118Z</time>
      </trkpt>
      <trkpt lat="48.41379" lon="7.29458">
        <ele>940</ele>
        <time>2020-06-24T07:52:04.118Z</time>
      </trkpt>
      <trkpt lat="48.41378" lon="7.29456">
        <ele>939</ele>
        <time>2020-06-24T07:52:05.118Z</time>
      </trkpt>
      <trkpt lat="48.41378" lon="7.29454">
        <ele>939</ele>
        <time>2020-06-24T07:52:06.118Z</time>
      </trkpt>
      <trkpt lat="48.41378" lon="7.29451">
        <ele>940</ele>
        <time>2020-06-24T07:52:07.118Z</time>
      </trkpt>
      <trkpt lat="48.41377" lon="7.29449">
        <ele>940</ele>
        <time>2020-06-24T07:52:08.118Z</time>
      </trkpt>
      <trkpt lat="48.41377" lon="7.29447">
        <ele>940</ele>
        <time>2020-06-24T07:52:09.118Z</time>
      </trkpt>
      <trkpt lat="48.41376" lon="7.29444">
        <ele>939</ele>
        <time>2020-06-24T07:52:10.118Z</time>
      </trkpt>
      <trkpt lat="48.41375" lon="7.29443">
        <ele>939</ele>
        <time>2020-06-24T07:52:11.118Z</time>
      </trkpt>
      <trkpt lat="48.41375" lon="7.29441">
        <ele>939</ele>
        <time>2020-06-24T07:52:12.118Z</time>
      </trkpt>
      <trkpt lat="48.41375" lon="7.29438">
        <ele>938</ele>
        <time>2020-06-24T07:52:13.118Z</time>
      </trkpt>
      <trkpt lat="48.41375" lon="7.29436">
        <ele>938</ele>
        <time>2020-06-24T07:52:14.118Z</time>
      </trkpt>
      <trkpt lat="48.41374" lon="7.29434">
        <ele>938</ele>
        <time>2020-06-24T07:52:15.117Z</time>
      </trkpt>
      <trkpt lat="48.41374" lon="7.29432">
        <ele>938</ele>
        <time>2020-06-24T07:52:16.118Z</time>
      </trkpt>
      <trkpt lat="48.41374" lon="7.2943">
        <ele>938</ele>
        <time>2020-06-24T07:52:17.117Z</time>
      </trkpt>
      <trkpt lat="48.41374" lon="7.29428">
        <ele>938</ele>
        <time>2020-06-24T07:52:18.117Z</time>
      </trkpt>
      <trkpt lat="48.41373" lon="7.29426">
        <ele>938</ele>
        <time>2020-06-24T07:52:19.117Z</time>
      </trkpt>
      <trkpt lat="48.41374" lon="7.29424">
        <ele>938</ele>
        <time>2020-06-24T07:52:20.118Z</time>
      </trkpt>
      <trkpt lat="48.41374" lon="7.29422">
        <ele>938</ele>
        <time>2020-06-24T07:52:21.118Z</time>
      </trkpt>
      <trkpt lat="48.41374" lon="7.29419">
        <ele>938</ele>
        <time>2020-06-24T07:52:22.117Z</time>
      </trkpt>
      <trkpt lat="48.41374" lon="7.29418">
        <ele>938</ele>
        <time>2020-06-24T07:52:23.118Z</time>
      </trkpt>
      <trkpt lat="48.41373" lon="7.29416">
        <ele>938</ele>
        <time>2020-06-24T07:52:24.117Z</time>
      </trkpt>
      <trkpt lat="48.41373" lon="7.29415">
        <ele>939</ele>
        <time>2020-06-24T07:52:25.118Z</time>
      </trkpt>
      <trkpt lat="48.41372" lon="7.29413">
        <ele>939</ele>
        <time>2020-06-24T07:52:26.117Z</time>
      </trkpt>
      <trkpt lat="48.41372" lon="7.29411">
        <ele>939</ele>
        <time>2020-06-24T07:52:27.118Z</time>
      </trkpt>
      <trkpt lat="48.41371" lon="7.29409">
        <ele>939</ele>
        <time>2020-06-24T07:52:28.118Z</time>
      </trkpt>
      <trkpt lat="48.41371" lon="7.29407">
        <ele>939</ele>
        <time>2020-06-24T07:52:29.117Z</time>
      </trkpt>
      <trkpt lat="48.41371" lon="7.29405">
        <ele>940</ele>
        <time>2020-06-24T07:52:30.117Z</time>
      </trkpt>
      <trkpt lat="48.41372" lon="7.29402">
        <ele>940</ele>
        <time>2020-06-24T07:52:31.118Z</time>
      </trkpt>
      <trkpt lat="48.41372" lon="7.294">
        <ele>940</ele>
        <time>2020-06-24T07:52:32.118Z</time>
      </trkpt>
      <trkpt lat="48.41371" lon="7.29397">
        <ele>940</ele>
        <time>2020-06-24T07:52:33.117Z</time>
      </trkpt>
      <trkpt lat="48.41371" lon="7.29396">
        <ele>940</ele>
        <time>2020-06-24T07:52:34.117Z</time>
      </trkpt>
      <trkpt lat="48.41371" lon="7.29394">
        <ele>940</ele>
        <time>2020-06-24T07:52:35.117Z</time>
      </trkpt>
      <trkpt lat="48.4137" lon="7.29393">
        <ele>940</ele>
        <time>2020-06-24T07:52:36.117Z</time>
      </trkpt>
      <trkpt lat="48.4137" lon="7.29391">
        <ele>941</ele>
        <time>2020-06-24T07:52:37.118Z</time>
      </trkpt>
      <trkpt lat="48.41369" lon="7.2939">
        <ele>941</ele>
        <time>2020-06-24T07:52:38.118Z</time>
      </trkpt>
      <trkpt lat="48.4137" lon="7.29389">
        <ele>941</ele>
        <time>2020-06-24T07:52:39.118Z</time>
      </trkpt>
      <trkpt lat="48.4137" lon="7.29388">
        <ele>941</ele>
        <time>2020-06-24T07:52:40.118Z</time>
      </trkpt>
      <trkpt lat="48.4137" lon="7.29388">
        <ele>941</ele>
        <time>2020-06-24T07:52:41.117Z</time>
      </trkpt>
      <trkpt lat="48.41371" lon="7.29388">
        <ele>941</ele>
        <time>2020-06-24T07:52:42.117Z</time>
      </trkpt>
      <trkpt lat="48.41372" lon="7.29388">
        <ele>941</ele>
        <time>2020-06-24T07:52:43.118Z</time>
      </trkpt>
      <trkpt lat="48.41373" lon="7.29388">
        <ele>942</ele>
        <time>2020-06-24T07:52:44.118Z</time>
      </trkpt>
      <trkpt lat="48.41373" lon="7.29389">
        <ele>942</ele>
        <time>2020-06-24T07:52:45.117Z</time>
      </trkpt>
      <trkpt lat="48.41371" lon="7.29382">
        <ele>948</ele>
        <time>2020-06-24T07:52:46.117Z</time>
      </trkpt>
      <trkpt lat="48.4137" lon="7.2938">
        <ele>948</ele>
        <time>2020-06-24T07:52:47.117Z</time>
      </trkpt>
      <trkpt lat="48.41369" lon="7.29379">
        <ele>948</ele>
        <time>2020-06-24T07:52:48.117Z</time>
      </trkpt>
      <trkpt lat="48.41368" lon="7.29378">
        <ele>948</ele>
        <time>2020-06-24T07:52:49.118Z</time>
      </trkpt>
      <trkpt lat="48.41361" lon="7.29376">
        <ele>947</ele>
        <time>2020-06-24T07:52:50.118Z</time>
      </trkpt>
      <trkpt lat="48.4136" lon="7.29374">
        <ele>947</ele>
        <time>2020-06-24T07:52:51.118Z</time>
      </trkpt>
      <trkpt lat="48.41359" lon="7.29373">
        <ele>946</ele>
        <time>2020-06-24T07:52:52.117Z</time>
      </trkpt>
      <trkpt lat="48.41357" lon="7.29371">
        <ele>946</ele>
        <time>2020-06-24T07:52:53.117Z</time>
      </trkpt>
      <trkpt lat="48.41356" lon="7.29369">
        <ele>945</ele>
        <time>2020-06-24T07:52:54.118Z</time>
      </trkpt>
      <trkpt lat="48.41355" lon="7.29368">
        <ele>945</ele>
        <time>2020-06-24T07:52:55.117Z</time>
      </trkpt>
      <trkpt lat="48.41355" lon="7.29365">
        <ele>945</ele>
        <time>2020-06-24T07:52:56.118Z</time>
      </trkpt>
      <trkpt lat="48.41354" lon="7.29363">
        <ele>945</ele>
        <time>2020-06-24T07:52:57.118Z</time>
      </trkpt>
      <trkpt lat="48.41353" lon="7.29362">
        <ele>945</ele>
        <time>2020-06-24T07:52:58.117Z</time>
      </trkpt>
      <trkpt lat="48.41353" lon="7.29359">
        <ele>945</ele>
        <time>2020-06-24T07:52:59.117Z</time>
      </trkpt>
      <trkpt lat="48.41353" lon="7.29357">
        <ele>945</ele>
        <time>2020-06-24T07:53:00.117Z</time>
      </trkpt>
      <trkpt lat="48.41353" lon="7.29355">
        <ele>944</ele>
        <time>2020-06-24T07:53:01.117Z</time>
      </trkpt>
      <trkpt lat="48.41354" lon="7.29353">
        <ele>944</ele>
        <time>2020-06-24T07:53:02.118Z</time>
      </trkpt>
      <trkpt lat="48.41354" lon="7.29351">
        <ele>945</ele>
        <time>2020-06-24T07:53:03.118Z</time>
      </trkpt>
      <trkpt lat="48.41354" lon="7.29349">
        <ele>945</ele>
        <time>2020-06-24T07:53:04.118Z</time>
      </trkpt>
      <trkpt lat="48.41355" lon="7.29348">
        <ele>946</ele>
        <time>2020-06-24T07:53:05.117Z</time>
      </trkpt>
      <trkpt lat="48.41355" lon="7.29346">
        <ele>946</ele>
        <time>2020-06-24T07:53:06.118Z</time>
      </trkpt>
      <trkpt lat="48.41355" lon="7.29344">
        <ele>946</ele>
        <time>2020-06-24T07:53:07.118Z</time>
      </trkpt>
      <trkpt lat="48.41356" lon="7.29343">
        <ele>947</ele>
        <time>2020-06-24T07:53:08.118Z</time>
      </trkpt>
      <trkpt lat="48.41355" lon="7.29342">
        <ele>947</ele>
        <time>2020-06-24T07:53:09.118Z</time>
      </trkpt>
      <trkpt lat="48.41355" lon="7.2934">
        <ele>947</ele>
        <time>2020-06-24T07:53:10.118Z</time>
      </trkpt>
      <trkpt lat="48.41355" lon="7.29339">
        <ele>946</ele>
        <time>2020-06-24T07:53:11.118Z</time>
      </trkpt>
      <trkpt lat="48.41354" lon="7.29337">
        <ele>946</ele>
        <time>2020-06-24T07:53:12.118Z</time>
      </trkpt>
      <trkpt lat="48.41352" lon="7.29336">
        <ele>945</ele>
        <time>2020-06-24T07:53:13.118Z</time>
      </trkpt>
      <trkpt lat="48.41352" lon="7.29335">
        <ele>945</ele>
        <time>2020-06-24T07:53:14.118Z</time>
      </trkpt>
      <trkpt lat="48.41352" lon="7.29333">
        <ele>944</ele>
        <time>2020-06-24T07:53:15.118Z</time>
      </trkpt>
      <trkpt lat="48.41351" lon="7.29332">
        <ele>944</ele>
        <time>2020-06-24T07:53:16.118Z</time>
      </trkpt>
      <trkpt lat="48.41351" lon="7.2933">
        <ele>943</ele>
        <time>2020-06-24T07:53:17.118Z</time>
      </trkpt>
      <trkpt lat="48.41351" lon="7.29328">
        <ele>943</ele>
        <time>2020-06-24T07:53:18.118Z</time>
      </trkpt>
      <trkpt lat="48.41351" lon="7.29325">
        <ele>943</ele>
        <time>2020-06-24T07:53:19.117Z</time>
      </trkpt>
      <trkpt lat="48.41351" lon="7.29323">
        <ele>942</ele>
        <time>2020-06-24T07:53:20.117Z</time>
      </trkpt>
      <trkpt lat="48.41352" lon="7.29321">
        <ele>943</ele>
        <time>2020-06-24T07:53:21.117Z</time>
      </trkpt>
      <trkpt lat="48.41351" lon="7.2932">
        <ele>943</ele>
        <time>2020-06-24T07:53:22.117Z</time>
      </trkpt>
      <trkpt lat="48.41351" lon="7.29318">
        <ele>943</ele>
        <time>2020-06-24T07:53:23.117Z</time>
      </trkpt>
      <trkpt lat="48.4135" lon="7.29317">
        <ele>943</ele>
        <time>2020-06-24T07:53:24.118Z</time>
      </trkpt>
      <trkpt lat="48.41349" lon="7.29316">
        <ele>943</ele>
        <time>2020-06-24T07:53:25.117Z</time>
      </trkpt>
      <trkpt lat="48.41348" lon="7.29314">
        <ele>944</ele>
        <time>2020-06-24T07:53:26.118Z</time>
      </trkpt>
      <trkpt lat="48.41347" lon="7.29313">
        <ele>944</ele>
        <time>2020-06-24T07:53:27.117Z</time>
      </trkpt>
      <trkpt lat="48.41345" lon="7.29312">
        <ele>945</ele>
        <time>2020-06-24T07:53:28.118Z</time>
      </trkpt>
      <trkpt lat="48.41344" lon="7.29311">
        <ele>946</ele>
        <time>2020-06-24T07:53:29.118Z</time>
      </trkpt>
      <trkpt lat="48.41344" lon="7.29311">
        <ele>946</ele>
        <time>2020-06-24T07:53:30.118Z</time>
      </trkpt>
      <trkpt lat="48.41343" lon="7.2931">
        <ele>947</ele>
        <time>2020-06-24T07:53:31.118Z</time>
      </trkpt>
      <trkpt lat="48.41343" lon="7.29309">
        <ele>948</ele>
        <time>2020-06-24T07:53:32.117Z</time>
      </trkpt>
      <trkpt lat="48.41343" lon="7.29308">
        <ele>948</ele>
        <time>2020-06-24T07:53:33.117Z</time>
      </trkpt>
      <trkpt lat="48.41343" lon="7.29308">
        <ele>948</ele>
        <time>2020-06-24T07:53:34.118Z</time>
      </trkpt>
      <trkpt lat="48.41342" lon="7.29307">
        <ele>948</ele>
        <time>2020-06-24T07:53:35.118Z</time>
      </trkpt>
      <trkpt lat="48.41342" lon="7.29306">
        <ele>947</ele>
        <time>2020-06-24T07:53:36.118Z</time>
      </trkpt>
      <trkpt lat="48.41343" lon="7.29305">
        <ele>948</ele>
        <time>2020-06-24T07:53:37.118Z</time>
      </trkpt>
      <trkpt lat="48.41344" lon="7.29306">
        <ele>948</ele>
        <time>2020-06-24T07:53:38.118Z</time>
      </trkpt>
      <trkpt lat="48.41345" lon="7.29306">
        <ele>948</ele>
        <time>2020-06-24T07:53:39.118Z</time>
      </trkpt>
      <trkpt lat="48.41346" lon="7.29307">
        <ele>948</ele>
        <time>2020-06-24T07:53:40.118Z</time>
      </trkpt>
      <trkpt lat="48.41347" lon="7.29308">
        <ele>949</ele>
        <time>2020-06-24T07:53:41.117Z</time>
      </trkpt>
      <trkpt lat="48.41347" lon="7.29309">
        <ele>949</ele>
        <time>2020-06-24T07:53:42.118Z</time>
      </trkpt>
      <trkpt lat="48.41347" lon="7.29309">
        <ele>949</ele>
        <time>2020-06-24T07:53:43.118Z</time>
      </trkpt>
      <trkpt lat="48.41348" lon="7.29309">
        <ele>949</ele>
        <time>2020-06-24T07:53:44.117Z</time>
      </trkpt>
      <trkpt lat="48.41347" lon="7.29309">
        <ele>948</ele>
        <time>2020-06-24T07:53:45.118Z</time>
      </trkpt>
      <trkpt lat="48.41347" lon="7.29309">
        <ele>948</ele>
        <time>2020-06-24T07:53:46.117Z</time>
      </trkpt>
      <trkpt lat="48.41348" lon="7.29308">
        <ele>948</ele>
        <time>2020-06-24T07:53:47.118Z</time>
      </trkpt>
      <trkpt lat="48.41348" lon="7.29307">
        <ele>948</ele>
        <time>2020-06-24T07:53:48.117Z</time>
      </trkpt>
      <trkpt lat="48.41349" lon="7.29306">
        <ele>948</ele>
        <time>2020-06-24T07:53:49.118Z</time>
      </trkpt>
      <trkpt lat="48.41348" lon="7.29306">
        <ele>947</ele>
        <time>2020-06-24T07:53:50.118Z</time>
      </trkpt>
      <trkpt lat="48.41348" lon="7.29306">
        <ele>946</ele>
        <time>2020-06-24T07:53:51.118Z</time>
      </trkpt>
      <trkpt lat="48.41348" lon="7.29306">
        <ele>946</ele>
        <time>2020-06-24T07:53:52.118Z</time>
      </trkpt>
      <trkpt lat="48.41347" lon="7.29305">
        <ele>946</ele>
        <time>2020-06-24T07:53:53.117Z</time>
      </trkpt>
      <trkpt lat="48.41347" lon="7.29305">
        <ele>946</ele>
        <time>2020-06-24T07:53:54.118Z</time>
      </trkpt>
      <trkpt lat="48.41347" lon="7.29305">
        <ele>946</ele>
        <time>2020-06-24T07:53:55.117Z</time>
      </trkpt>
      <trkpt lat="48.41346" lon="7.29304">
        <ele>947</ele>
        <time>2020-06-24T07:53:56.118Z</time>
      </trkpt>
      <trkpt lat="48.41345" lon="7.29303">
        <ele>947</ele>
        <time>2020-06-24T07:53:57.118Z</time>
      </trkpt>
      <trkpt lat="48.41344" lon="7.29303">
        <ele>947</ele>
        <time>2020-06-24T07:53:58.118Z</time>
      </trkpt>
      <trkpt lat="48.41342" lon="7.29302">
        <ele>948</ele>
        <time>2020-06-24T07:53:59.118Z</time>
      </trkpt>
      <trkpt lat="48.41341" lon="7.29301">
        <ele>949</ele>
        <time>2020-06-24T07:54:00.118Z</time>
      </trkpt>
      <trkpt lat="48.4134" lon="7.29299">
        <ele>949</ele>
        <time>2020-06-24T07:54:01.117Z</time>
      </trkpt>
      <trkpt lat="48.41339" lon="7.29298">
        <ele>950</ele>
        <time>2020-06-24T07:54:02.118Z</time>
      </trkpt>
      <trkpt lat="48.41338" lon="7.29297">
        <ele>950</ele>
        <time>2020-06-24T07:54:03.118Z</time>
      </trkpt>
      <trkpt lat="48.41337" lon="7.29296">
        <ele>950</ele>
        <time>2020-06-24T07:54:04.118Z</time>
      </trkpt>
      <trkpt lat="48.41336" lon="7.29296">
        <ele>951</ele>
        <time>2020-06-24T07:54:05.117Z</time>
      </trkpt>
      <trkpt lat="48.41335" lon="7.29295">
        <ele>951</ele>
        <time>2020-06-24T07:54:06.118Z</time>
      </trkpt>
      <trkpt lat="48.41334" lon="7.29294">
        <ele>952</ele>
        <time>2020-06-24T07:54:07.118Z</time>
      </trkpt>
      <trkpt lat="48.41333" lon="7.29294">
        <ele>952</ele>
        <time>2020-06-24T07:54:08.117Z</time>
      </trkpt>
      <trkpt lat="48.41331" lon="7.29294">
        <ele>952</ele>
        <time>2020-06-24T07:54:09.118Z</time>
      </trkpt>
      <trkpt lat="48.4133" lon="7.29294">
        <ele>953</ele>
        <time>2020-06-24T07:54:10.117Z</time>
      </trkpt>
      <trkpt lat="48.41328" lon="7.29293">
        <ele>953</ele>
        <time>2020-06-24T07:54:11.118Z</time>
      </trkpt>
      <trkpt lat="48.41327" lon="7.29292">
        <ele>954</ele>
        <time>2020-06-24T07:54:12.117Z</time>
      </trkpt>
      <trkpt lat="48.41326" lon="7.29291">
        <ele>954</ele>
        <time>2020-06-24T07:54:13.118Z</time>
      </trkpt>
      <trkpt lat="48.41325" lon="7.2929">
        <ele>953</ele>
        <time>2020-06-24T07:54:14.117Z</time>
      </trkpt>
      <trkpt lat="48.41324" lon="7.29289">
        <ele>953</ele>
        <time>2020-06-24T07:54:15.118Z</time>
      </trkpt>
      <trkpt lat="48.41324" lon="7.29289">
        <ele>953</ele>
        <time>2020-06-24T07:54:16.118Z</time>
      </trkpt>
      <trkpt lat="48.41324" lon="7.29288">
        <ele>953</ele>
        <time>2020-06-24T07:54:17.118Z</time>
      </trkpt>
      <trkpt lat="48.41323" lon="7.29288">
        <ele>952</ele>
        <time>2020-06-24T07:54:18.117Z</time>
      </trkpt>
      <trkpt lat="48.41323" lon="7.29287">
        <ele>952</ele>
        <time>2020-06-24T07:54:19.118Z</time>
      </trkpt>
      <trkpt lat="48.41322" lon="7.29287">
        <ele>952</ele>
        <time>2020-06-24T07:54:20.118Z</time>
      </trkpt>
      <trkpt lat="48.41322" lon="7.29286">
        <ele>952</ele>
        <time>2020-06-24T07:54:21.117Z</time>
      </trkpt>
      <trkpt lat="48.41321" lon="7.29286">
        <ele>952</ele>
        <time>2020-06-24T07:54:22.118Z</time>
      </trkpt>
      <trkpt lat="48.4132" lon="7.29285">
        <ele>951</ele>
        <time>2020-06-24T07:54:23.118Z</time>
      </trkpt>
      <trkpt lat="48.41318" lon="7.29285">
        <ele>951</ele>
        <time>2020-06-24T07:54:24.118Z</time>
      </trkpt>
      <trkpt lat="48.41317" lon="7.29285">
        <ele>952</ele>
        <time>2020-06-24T07:54:25.118Z</time>
      </trkpt>
      <trkpt lat="48.41316" lon="7.29284">
        <ele>952</ele>
        <time>2020-06-24T07:54:26.118Z</time>
      </trkpt>
      <trkpt lat="48.41315" lon="7.29283">
        <ele>952</ele>
        <time>2020-06-24T07:54:27.117Z</time>
      </trkpt>
      <trkpt lat="48.41314" lon="7.29282">
        <ele>953</ele>
        <time>2020-06-24T07:54:28.118Z</time>
      </trkpt>
      <trkpt lat="48.41313" lon="7.29282">
        <ele>953</ele>
        <time>2020-06-24T07:54:29.118Z</time>
      </trkpt>
      <trkpt lat="48.41311" lon="7.29281">
        <ele>953</ele>
        <time>2020-06-24T07:54:30.118Z</time>
      </trkpt>
      <trkpt lat="48.4131" lon="7.29281">
        <ele>953</ele>
        <time>2020-06-24T07:54:31.118Z</time>
      </trkpt>
      <trkpt lat="48.41309" lon="7.2928">
        <ele>954</ele>
        <time>2020-06-24T07:54:32.118Z</time>
      </trkpt>
      <trkpt lat="48.41308" lon="7.29279">
        <ele>954</ele>
        <time>2020-06-24T07:54:33.117Z</time>
      </trkpt>
      <trkpt lat="48.41307" lon="7.29279">
        <ele>954</ele>
        <time>2020-06-24T07:54:34.118Z</time>
      </trkpt>
      <trkpt lat="48.41306" lon="7.29278">
        <ele>954</ele>
        <time>2020-06-24T07:54:35.118Z</time>
      </trkpt>
      <trkpt lat="48.41304" lon="7.29277">
        <ele>955</ele>
        <time>2020-06-24T07:54:36.118Z</time>
      </trkpt>
      <trkpt lat="48.41302" lon="7.29277">
        <ele>955</ele>
        <time>2020-06-24T07:54:37.118Z</time>
      </trkpt>
      <trkpt lat="48.413" lon="7.29277">
        <ele>955</ele>
        <time>2020-06-24T07:54:38.118Z</time>
      </trkpt>
      <trkpt lat="48.41299" lon="7.29277">
        <ele>955</ele>
        <time>2020-06-24T07:54:39.118Z</time>
      </trkpt>
      <trkpt lat="48.41298" lon="7.29277">
        <ele>954</ele>
        <time>2020-06-24T07:54:40.118Z</time>
      </trkpt>
      <trkpt lat="48.41296" lon="7.29278">
        <ele>954</ele>
        <time>2020-06-24T07:54:41.118Z</time>
      </trkpt>
      <trkpt lat="48.41295" lon="7.29278">
        <ele>953</ele>
        <time>2020-06-24T07:54:42.118Z</time>
      </trkpt>
      <trkpt lat="48.41295" lon="7.29279">
        <ele>952</ele>
        <time>2020-06-24T07:54:43.117Z</time>
      </trkpt>
      <trkpt lat="48.41293" lon="7.29279">
        <ele>952</ele>
        <time>2020-06-24T07:54:44.117Z</time>
      </trkpt>
      <trkpt lat="48.41293" lon="7.29279">
        <ele>952</ele>
        <time>2020-06-24T07:54:45.118Z</time>
      </trkpt>
      <trkpt lat="48.41293" lon="7.2928">
        <ele>952</ele>
        <time>2020-06-24T07:54:46.118Z</time>
      </trkpt>
      <trkpt lat="48.41292" lon="7.29281">
        <ele>952</ele>
        <time>2020-06-24T07:54:47.118Z</time>
      </trkpt>
      <trkpt lat="48.41294" lon="7.29279">
        <ele>953</ele>
        <time>2020-06-24T07:54:48.118Z</time>
      </trkpt>
      <trkpt lat="48.41295" lon="7.29279">
        <ele>953</ele>
        <time>2020-06-24T07:54:49.117Z</time>
      </trkpt>
      <trkpt lat="48.41293" lon="7.29281">
        <ele>955</ele>
        <time>2020-06-24T07:54:50.119Z</time>
      </trkpt>
      <trkpt lat="48.41294" lon="7.2928">
        <ele>956</ele>
        <time>2020-06-24T07:54:51.120Z</time>
      </trkpt>
      <trkpt lat="48.41294" lon="7.29279">
        <ele>956</ele>
        <time>2020-06-24T07:54:52.119Z</time>
      </trkpt>
      <trkpt lat="48.41294" lon="7.29279">
        <ele>956</ele>
        <time>2020-06-24T07:54:53.119Z</time>
      </trkpt>
      <trkpt lat="48.41298" lon="7.2928">
        <ele>961</ele>
        <time>2020-06-24T07:54:54.120Z</time>
      </trkpt>
      <trkpt lat="48.41299" lon="7.2928">
        <ele>961</ele>
        <time>2020-06-24T07:54:55.121Z</time>
      </trkpt>
      <trkpt lat="48.41301" lon="7.29279">
        <ele>960</ele>
        <time>2020-06-24T07:54:56.120Z</time>
      </trkpt>
      <trkpt lat="48.41303" lon="7.29279">
        <ele>960</ele>
        <time>2020-06-24T07:54:57.120Z</time>
      </trkpt>
      <trkpt lat="48.41305" lon="7.29278">
        <ele>960</ele>
        <time>2020-06-24T07:54:58.121Z</time>
      </trkpt>
      <trkpt lat="48.41306" lon="7.29278">
        <ele>960</ele>
        <time>2020-06-24T07:54:59.121Z</time>
      </trkpt>
      <trkpt lat="48.41308" lon="7.29278">
        <ele>959</ele>
        <time>2020-06-24T07:55:00.121Z</time>
      </trkpt>
      <trkpt lat="48.41309" lon="7.29277">
        <ele>959</ele>
        <time>2020-06-24T07:55:01.121Z</time>
      </trkpt>
      <trkpt lat="48.41311" lon="7.29278">
        <ele>959</ele>
        <time>2020-06-24T07:55:02.121Z</time>
      </trkpt>
      <trkpt lat="48.41313" lon="7.29278">
        <ele>959</ele>
        <time>2020-06-24T07:55:03.121Z</time>
      </trkpt>
      <trkpt lat="48.41315" lon="7.29279">
        <ele>959</ele>
        <time>2020-06-24T07:55:04.121Z</time>
      </trkpt>
      <trkpt lat="48.41316" lon="7.2928">
        <ele>958</ele>
        <time>2020-06-24T07:55:05.120Z</time>
      </trkpt>
      <trkpt lat="48.41317" lon="7.29281">
        <ele>958</ele>
        <time>2020-06-24T07:55:06.120Z</time>
      </trkpt>
      <trkpt lat="48.41318" lon="7.29282">
        <ele>958</ele>
        <time>2020-06-24T07:55:07.121Z</time>
      </trkpt>
      <trkpt lat="48.41318" lon="7.29283">
        <ele>958</ele>
        <time>2020-06-24T07:55:08.121Z</time>
      </trkpt>
      <trkpt lat="48.4132" lon="7.29282">
        <ele>957</ele>
        <time>2020-06-24T07:55:09.121Z</time>
      </trkpt>
      <trkpt lat="48.41321" lon="7.29282">
        <ele>957</ele>
        <time>2020-06-24T07:55:10.121Z</time>
      </trkpt>
      <trkpt lat="48.41322" lon="7.29282">
        <ele>957</ele>
        <time>2020-06-24T07:55:11.121Z</time>
      </trkpt>
      <trkpt lat="48.41323" lon="7.29282">
        <ele>957</ele>
        <time>2020-06-24T07:55:12.121Z</time>
      </trkpt>
      <trkpt lat="48.41325" lon="7.29282">
        <ele>958</ele>
        <time>2020-06-24T07:55:13.120Z</time>
      </trkpt>
      <trkpt lat="48.41326" lon="7.29282">
        <ele>958</ele>
        <time>2020-06-24T07:55:14.121Z</time>
      </trkpt>
      <trkpt lat="48.41327" lon="7.29282">
        <ele>959</ele>
        <time>2020-06-24T07:55:15.121Z</time>
      </trkpt>
      <trkpt lat="48.41327" lon="7.29281">
        <ele>959</ele>
        <time>2020-06-24T07:55:16.120Z</time>
      </trkpt>
      <trkpt lat="48.41326" lon="7.2928">
        <ele>960</ele>
        <time>2020-06-24T07:55:17.121Z</time>
      </trkpt>
      <trkpt lat="48.41326" lon="7.29279">
        <ele>962</ele>
        <time>2020-06-24T07:55:18.120Z</time>
      </trkpt>
      <trkpt lat="48.41327" lon="7.2928">
        <ele>962</ele>
        <time>2020-06-24T07:55:19.121Z</time>
      </trkpt>
      <trkpt lat="48.41329" lon="7.29281">
        <ele>963</ele>
        <time>2020-06-24T07:55:20.121Z</time>
      </trkpt>
      <trkpt lat="48.4133" lon="7.29281">
        <ele>963</ele>
        <time>2020-06-24T07:55:21.120Z</time>
      </trkpt>
      <trkpt lat="48.4133" lon="7.29281">
        <ele>963</ele>
        <time>2020-06-24T07:55:22.121Z</time>
      </trkpt>
      <trkpt lat="48.41331" lon="7.29281">
        <ele>963</ele>
        <time>2020-06-24T07:55:23.121Z</time>
      </trkpt>
      <trkpt lat="48.41332" lon="7.29282">
        <ele>963</ele>
        <time>2020-06-24T07:55:24.121Z</time>
      </trkpt>
      <trkpt lat="48.41333" lon="7.29282">
        <ele>963</ele>
        <time>2020-06-24T07:55:25.121Z</time>
      </trkpt>
      <trkpt lat="48.41334" lon="7.29282">
        <ele>963</ele>
        <time>2020-06-24T07:55:26.120Z</time>
      </trkpt>
      <trkpt lat="48.41335" lon="7.29282">
        <ele>963</ele>
        <time>2020-06-24T07:55:27.121Z</time>
      </trkpt>
      <trkpt lat="48.41336" lon="7.29281">
        <ele>963</ele>
        <time>2020-06-24T07:55:28.121Z</time>
      </trkpt>
      <trkpt lat="48.41337" lon="7.29281">
        <ele>962</ele>
        <time>2020-06-24T07:55:29.120Z</time>
      </trkpt>
      <trkpt lat="48.41338" lon="7.2928">
        <ele>962</ele>
        <time>2020-06-24T07:55:30.121Z</time>
      </trkpt>
      <trkpt lat="48.41338" lon="7.29279">
        <ele>961</ele>
        <time>2020-06-24T07:55:31.121Z</time>
      </trkpt>
      <trkpt lat="48.41339" lon="7.29278">
        <ele>960</ele>
        <time>2020-06-24T07:55:32.121Z</time>
      </trkpt>
      <trkpt lat="48.41339" lon="7.29277">
        <ele>960</ele>
        <time>2020-06-24T07:55:33.121Z</time>
      </trkpt>
      <trkpt lat="48.4134" lon="7.29276">
        <ele>959</ele>
        <time>2020-06-24T07:55:34.121Z</time>
      </trkpt>
      <trkpt lat="48.4134" lon="7.29275">
        <ele>959</ele>
        <time>2020-06-24T07:55:35.121Z</time>
      </trkpt>
      <trkpt lat="48.41339" lon="7.29275">
        <ele>958</ele>
        <time>2020-06-24T07:55:36.121Z</time>
      </trkpt>
      <trkpt lat="48.4134" lon="7.29274">
        <ele>958</ele>
        <time>2020-06-24T07:55:37.121Z</time>
      </trkpt>
      <trkpt lat="48.4134" lon="7.29274">
        <ele>958</ele>
        <time>2020-06-24T07:55:38.121Z</time>
      </trkpt>
      <trkpt lat="48.41342" lon="7.29274">
        <ele>957</ele>
        <time>2020-06-24T07:55:39.121Z</time>
      </trkpt>
      <trkpt lat="48.41343" lon="7.29274">
        <ele>957</ele>
        <time>2020-06-24T07:55:40.121Z</time>
      </trkpt>
      <trkpt lat="48.41343" lon="7.29275">
        <ele>957</ele>
        <time>2020-06-24T07:55:41.121Z</time>
      </trkpt>
      <trkpt lat="48.41344" lon="7.29276">
        <ele>957</ele>
        <time>2020-06-24T07:55:42.121Z</time>
      </trkpt>
      <trkpt lat="48.41345" lon="7.29277">
        <ele>957</ele>
        <time>2020-06-24T07:55:43.121Z</time>
      </trkpt>
      <trkpt lat="48.41345" lon="7.29278">
        <ele>957</ele>
        <time>2020-06-24T07:55:44.120Z</time>
      </trkpt>
      <trkpt lat="48.41346" lon="7.29279">
        <ele>957</ele>
        <time>2020-06-24T07:55:45.120Z</time>
      </trkpt>
      <trkpt lat="48.41346" lon="7.29281">
        <ele>956</ele>
        <time>2020-06-24T07:55:46.120Z</time>
      </trkpt>
      <trkpt lat="48.41347" lon="7.29282">
        <ele>956</ele>
        <time>2020-06-24T07:55:47.121Z</time>
      </trkpt>
      <trkpt lat="48.41347" lon="7.29283">
        <ele>955</ele>
        <time>2020-06-24T07:55:48.121Z</time>
      </trkpt>
      <trkpt lat="48.41348" lon="7.29285">
        <ele>955</ele>
        <time>2020-06-24T07:55:49.121Z</time>
      </trkpt>
      <trkpt lat="48.41348" lon="7.29285">
        <ele>954</ele>
        <time>2020-06-24T07:55:50.121Z</time>
      </trkpt>
      <trkpt lat="48.41348" lon="7.29287">
        <ele>953</ele>
        <time>2020-06-24T07:55:51.120Z</time>
      </trkpt>
      <trkpt lat="48.41348" lon="7.29288">
        <ele>953</ele>
        <time>2020-06-24T07:55:52.121Z</time>
      </trkpt>
      <trkpt lat="48.41349" lon="7.29289">
        <ele>953</ele>
        <time>2020-06-24T07:55:53.121Z</time>
      </trkpt>
      <trkpt lat="48.4135" lon="7.2929">
        <ele>953</ele>
        <time>2020-06-24T07:55:54.121Z</time>
      </trkpt>
      <trkpt lat="48.41352" lon="7.29291">
        <ele>953</ele>
        <time>2020-06-24T07:55:55.121Z</time>
      </trkpt>
      <trkpt lat="48.41352" lon="7.29293">
        <ele>952</ele>
        <time>2020-06-24T07:55:56.121Z</time>
      </trkpt>
      <trkpt lat="48.41352" lon="7.29293">
        <ele>952</ele>
        <time>2020-06-24T07:55:57.121Z</time>
      </trkpt>
      <trkpt lat="48.4135" lon="7.29298">
        <ele>952</ele>
        <time>2020-06-24T07:55:58.121Z</time>
      </trkpt>
      <trkpt lat="48.4135" lon="7.29297">
        <ele>953</ele>
        <time>2020-06-24T07:55:59.121Z</time>
      </trkpt>
      <trkpt lat="48.41347" lon="7.29293">
        <ele>954</ele>
        <time>2020-06-24T07:56:00.121Z</time>
      </trkpt>
      <trkpt lat="48.41346" lon="7.29291">
        <ele>954</ele>
        <time>2020-06-24T07:56:01.122Z</time>
      </trkpt>
      <trkpt lat="48.41344" lon="7.29289">
        <ele>954</ele>
        <time>2020-06-24T07:56:02.121Z</time>
      </trkpt>
      <trkpt lat="48.41344" lon="7.29287">
        <ele>954</ele>
        <time>2020-06-24T07:56:03.122Z</time>
      </trkpt>
      <trkpt lat="48.41343" lon="7.29285">
        <ele>953</ele>
        <time>2020-06-24T07:56:04.122Z</time>
      </trkpt>
      <trkpt lat="48.41343" lon="7.29283">
        <ele>953</ele>
        <time>2020-06-24T07:56:05.122Z</time>
      </trkpt>
      <trkpt lat="48.41342" lon="7.29282">
        <ele>953</ele>
        <time>2020-06-24T07:56:06.122Z</time>
      </trkpt>
      <trkpt lat="48.41342" lon="7.29281">
        <ele>953</ele>
        <time>2020-06-24T07:56:07.122Z</time>
      </trkpt>
      <trkpt lat="48.41342" lon="7.2928">
        <ele>953</ele>
        <time>2020-06-24T07:56:08.122Z</time>
      </trkpt>
      <trkpt lat="48.41342" lon="7.29279">
        <ele>952</ele>
        <time>2020-06-24T07:56:09.121Z</time>
      </trkpt>
      <trkpt lat="48.41342" lon="7.29278">
        <ele>952</ele>
        <time>2020-06-24T07:56:10.122Z</time>
      </trkpt>
      <trkpt lat="48.41341" lon="7.29278">
        <ele>952</ele>
        <time>2020-06-24T07:56:11.122Z</time>
      </trkpt>
      <trkpt lat="48.41341" lon="7.29278">
        <ele>951</ele>
        <time>2020-06-24T07:56:12.122Z</time>
      </trkpt>
      <trkpt lat="48.41341" lon="7.29279">
        <ele>950</ele>
        <time>2020-06-24T07:56:13.123Z</time>
      </trkpt>
      <trkpt lat="48.41341" lon="7.2928">
        <ele>949</ele>
        <time>2020-06-24T07:56:14.123Z</time>
      </trkpt>
      <trkpt lat="48.4134" lon="7.2928">
        <ele>949</ele>
        <time>2020-06-24T07:56:15.122Z</time>
      </trkpt>
      <trkpt lat="48.4134" lon="7.29281">
        <ele>948</ele>
        <time>2020-06-24T07:56:16.122Z</time>
      </trkpt>
      <trkpt lat="48.4134" lon="7.29282">
        <ele>947</ele>
        <time>2020-06-24T07:56:17.123Z</time>
      </trkpt>
      <trkpt lat="48.4134" lon="7.29283">
        <ele>947</ele>
        <time>2020-06-24T07:56:18.123Z</time>
      </trkpt>
      <trkpt lat="48.4134" lon="7.29283">
        <ele>946</ele>
        <time>2020-06-24T07:56:19.123Z</time>
      </trkpt>
      <trkpt lat="48.41339" lon="7.29283">
        <ele>946</ele>
        <time>2020-06-24T07:56:20.123Z</time>
      </trkpt>
      <trkpt lat="48.41337" lon="7.29283">
        <ele>945</ele>
        <time>2020-06-24T07:56:21.122Z</time>
      </trkpt>
      <trkpt lat="48.41336" lon="7.29283">
        <ele>945</ele>
        <time>2020-06-24T07:56:22.123Z</time>
      </trkpt>
      <trkpt lat="48.41335" lon="7.29283">
        <ele>945</ele>
        <time>2020-06-24T07:56:23.123Z</time>
      </trkpt>
      <trkpt lat="48.41334" lon="7.29284">
        <ele>946</ele>
        <time>2020-06-24T07:56:24.122Z</time>
      </trkpt>
      <trkpt lat="48.41333" lon="7.29284">
        <ele>946</ele>
        <time>2020-06-24T07:56:25.123Z</time>
      </trkpt>
      <trkpt lat="48.41332" lon="7.29285">
        <ele>947</ele>
        <time>2020-06-24T07:56:26.122Z</time>
      </trkpt>
      <trkpt lat="48.41332" lon="7.29285">
        <ele>947</ele>
        <time>2020-06-24T07:56:27.122Z</time>
      </trkpt>
      <trkpt lat="48.41331" lon="7.29285">
        <ele>948</ele>
        <time>2020-06-24T07:56:28.123Z</time>
      </trkpt>
      <trkpt lat="48.4133" lon="7.29285">
        <ele>948</ele>
        <time>2020-06-24T07:56:29.122Z</time>
      </trkpt>
      <trkpt lat="48.4133" lon="7.29285">
        <ele>947</ele>
        <time>2020-06-24T07:56:30.122Z</time>
      </trkpt>
      <trkpt lat="48.4133" lon="7.29285">
        <ele>947</ele>
        <time>2020-06-24T07:56:31.122Z</time>
      </trkpt>
      <trkpt lat="48.41329" lon="7.29285">
        <ele>947</ele>
        <time>2020-06-24T07:56:32.123Z</time>
      </trkpt>
      <trkpt lat="48.41329" lon="7.29285">
        <ele>946</ele>
        <time>2020-06-24T07:56:33.123Z</time>
      </trkpt>
      <trkpt lat="48.41321" lon="7.29286">
        <ele>950</ele>
        <time>2020-06-24T07:56:34.123Z</time>
      </trkpt>
      <trkpt lat="48.4132" lon="7.29285">
        <ele>950</ele>
        <time>2020-06-24T07:56:35.124Z</time>
      </trkpt>
      <trkpt lat="48.4132" lon="7.29283">
        <ele>951</ele>
        <time>2020-06-24T07:56:36.123Z</time>
      </trkpt>
      <trkpt lat="48.41319" lon="7.29282">
        <ele>951</ele>
        <time>2020-06-24T07:56:37.124Z</time>
      </trkpt>
      <trkpt lat="48.41318" lon="7.29282">
        <ele>951</ele>
        <time>2020-06-24T07:56:38.124Z</time>
      </trkpt>
      <trkpt lat="48.41317" lon="7.29282">
        <ele>951</ele>
        <time>2020-06-24T07:56:39.124Z</time>
      </trkpt>
      <trkpt lat="48.41316" lon="7.29282">
        <ele>951</ele>
        <time>2020-06-24T07:56:40.124Z</time>
      </trkpt>
      <trkpt lat="48.41314" lon="7.29283">
        <ele>953</ele>
        <time>2020-06-24T07:56:41.124Z</time>
      </trkpt>
      <trkpt lat="48.41314" lon="7.29282">
        <ele>953</ele>
        <time>2020-06-24T07:56:42.124Z</time>
      </trkpt>
      <trkpt lat="48.41314" lon="7.29282">
        <ele>953</ele>
        <time>2020-06-24T07:56:43.125Z</time>
      </trkpt>
      <trkpt lat="48.41314" lon="7.29282">
        <ele>953</ele>
        <time>2020-06-24T07:56:44.124Z</time>
      </trkpt>
      <trkpt lat="48.41313" lon="7.2928">
        <ele>953</ele>
        <time>2020-06-24T07:56:45.124Z</time>
      </trkpt>
      <trkpt lat="48.41313" lon="7.29278">
        <ele>953</ele>
        <time>2020-06-24T07:56:46.124Z</time>
      </trkpt>
      <trkpt lat="48.41312" lon="7.29277">
        <ele>953</ele>
        <time>2020-06-24T07:56:47.124Z</time>
      </trkpt>
      <trkpt lat="48.41311" lon="7.29275">
        <ele>953</ele>
        <time>2020-06-24T07:56:48.125Z</time>
      </trkpt>
      <trkpt lat="48.41311" lon="7.29273">
        <ele>953</ele>
        <time>2020-06-24T07:56:49.124Z</time>
      </trkpt>
      <trkpt lat="48.41309" lon="7.29272">
        <ele>953</ele>
        <time>2020-06-24T07:56:50.125Z</time>
      </trkpt>
      <trkpt lat="48.41308" lon="7.29271">
        <ele>953</ele>
        <time>2020-06-24T07:56:51.124Z</time>
      </trkpt>
      <trkpt lat="48.41306" lon="7.29269">
        <ele>953</ele>
        <time>2020-06-24T07:56:52.125Z</time>
      </trkpt>
      <trkpt lat="48.41304" lon="7.29267">
        <ele>953</ele>
        <time>2020-06-24T07:56:53.125Z</time>
      </trkpt>
      <trkpt lat="48.41303" lon="7.29266">
        <ele>953</ele>
        <time>2020-06-24T07:56:54.124Z</time>
      </trkpt>
      <trkpt lat="48.41301" lon="7.29265">
        <ele>953</ele>
        <time>2020-06-24T07:56:55.124Z</time>
      </trkpt>
      <trkpt lat="48.41299" lon="7.29264">
        <ele>953</ele>
        <time>2020-06-24T07:56:56.124Z</time>
      </trkpt>
      <trkpt lat="48.41298" lon="7.29263">
        <ele>954</ele>
        <time>2020-06-24T07:56:57.125Z</time>
      </trkpt>
      <trkpt lat="48.41296" lon="7.29262">
        <ele>954</ele>
        <time>2020-06-24T07:56:58.124Z</time>
      </trkpt>
      <trkpt lat="48.41295" lon="7.29261">
        <ele>955</ele>
        <time>2020-06-24T07:56:59.124Z</time>
      </trkpt>
      <trkpt lat="48.41293" lon="7.2926">
        <ele>955</ele>
        <time>2020-06-24T07:57:00.125Z</time>
      </trkpt>
      <trkpt lat="48.41293" lon="7.29258">
        <ele>956</ele>
        <time>2020-06-24T07:57:01.124Z</time>
      </trkpt>
      <trkpt lat="48.41292" lon="7.29255">
        <ele>956</ele>
        <time>2020-06-24T07:57:02.124Z</time>
      </trkpt>
      <trkpt lat="48.41291" lon="7.29254">
        <ele>956</ele>
        <time>2020-06-24T07:57:03.125Z</time>
      </trkpt>
      <trkpt lat="48.4129" lon="7.29253">
        <ele>957</ele>
        <time>2020-06-24T07:57:04.124Z</time>
      </trkpt>
      <trkpt lat="48.41288" lon="7.29252">
        <ele>957</ele>
        <time>2020-06-24T07:57:05.124Z</time>
      </trkpt>
      <trkpt lat="48.41286" lon="7.29251">
        <ele>958</ele>
        <time>2020-06-24T07:57:06.124Z</time>
      </trkpt>
      <trkpt lat="48.41284" lon="7.2925">
        <ele>958</ele>
        <time>2020-06-24T07:57:07.124Z</time>
      </trkpt>
      <trkpt lat="48.41282" lon="7.2925">
        <ele>959</ele>
        <time>2020-06-24T07:57:08.125Z</time>
      </trkpt>
      <trkpt lat="48.4128" lon="7.29249">
        <ele>959</ele>
        <time>2020-06-24T07:57:09.124Z</time>
      </trkpt>
      <trkpt lat="48.41279" lon="7.29248">
        <ele>960</ele>
        <time>2020-06-24T07:57:10.124Z</time>
      </trkpt>
      <trkpt lat="48.41278" lon="7.29247">
        <ele>960</ele>
        <time>2020-06-24T07:57:11.124Z</time>
      </trkpt>
      <trkpt lat="48.41277" lon="7.29246">
        <ele>960</ele>
        <time>2020-06-24T07:57:12.124Z</time>
      </trkpt>
      <trkpt lat="48.41275" lon="7.29246">
        <ele>960</ele>
        <time>2020-06-24T07:57:13.125Z</time>
      </trkpt>
      <trkpt lat="48.41274" lon="7.29246">
        <ele>961</ele>
        <time>2020-06-24T07:57:14.124Z</time>
      </trkpt>
      <trkpt lat="48.41273" lon="7.29245">
        <ele>961</ele>
        <time>2020-06-24T07:57:15.124Z</time>
      </trkpt>
      <trkpt lat="48.41271" lon="7.29244">
        <ele>961</ele>
        <time>2020-06-24T07:57:16.125Z</time>
      </trkpt>
      <trkpt lat="48.4127" lon="7.29242">
        <ele>961</ele>
        <time>2020-06-24T07:57:17.124Z</time>
      </trkpt>
      <trkpt lat="48.41269" lon="7.29241">
        <ele>961</ele>
        <time>2020-06-24T07:57:18.124Z</time>
      </trkpt>
      <trkpt lat="48.41269" lon="7.29239">
        <ele>961</ele>
        <time>2020-06-24T07:57:19.124Z</time>
      </trkpt>
      <trkpt lat="48.41269" lon="7.29237">
        <ele>962</ele>
        <time>2020-06-24T07:57:20.125Z</time>
      </trkpt>
      <trkpt lat="48.41269" lon="7.29236">
        <ele>962</ele>
        <time>2020-06-24T07:57:21.124Z</time>
      </trkpt>
      <trkpt lat="48.41269" lon="7.29235">
        <ele>962</ele>
        <time>2020-06-24T07:57:22.124Z</time>
      </trkpt>
      <trkpt lat="48.41268" lon="7.29234">
        <ele>962</ele>
        <time>2020-06-24T07:57:23.125Z</time>
      </trkpt>
      <trkpt lat="48.41267" lon="7.29233">
        <ele>962</ele>
        <time>2020-06-24T07:57:24.124Z</time>
      </trkpt>
      <trkpt lat="48.41266" lon="7.29233">
        <ele>961</ele>
        <time>2020-06-24T07:57:25.124Z</time>
      </trkpt>
      <trkpt lat="48.41266" lon="7.29232">
        <ele>961</ele>
        <time>2020-06-24T07:57:26.124Z</time>
      </trkpt>
      <trkpt lat="48.41265" lon="7.29232">
        <ele>961</ele>
        <time>2020-06-24T07:57:27.124Z</time>
      </trkpt>
      <trkpt lat="48.41264" lon="7.29232">
        <ele>961</ele>
        <time>2020-06-24T07:57:28.124Z</time>
      </trkpt>
      <trkpt lat="48.41263" lon="7.29232">
        <ele>961</ele>
        <time>2020-06-24T07:57:29.124Z</time>
      </trkpt>
      <trkpt lat="48.41262" lon="7.29232">
        <ele>961</ele>
        <time>2020-06-24T07:57:30.124Z</time>
      </trkpt>
      <trkpt lat="48.4126" lon="7.29231">
        <ele>960</ele>
        <time>2020-06-24T07:57:31.124Z</time>
      </trkpt>
      <trkpt lat="48.41259" lon="7.29229">
        <ele>960</ele>
        <time>2020-06-24T07:57:32.125Z</time>
      </trkpt>
      <trkpt lat="48.41257" lon="7.29228">
        <ele>960</ele>
        <time>2020-06-24T07:57:33.125Z</time>
      </trkpt>
      <trkpt lat="48.41256" lon="7.29227">
        <ele>960</ele>
        <time>2020-06-24T07:57:34.124Z</time>
      </trkpt>
      <trkpt lat="48.41255" lon="7.29227">
        <ele>960</ele>
        <time>2020-06-24T07:57:35.125Z</time>
      </trkpt>
      <trkpt lat="48.41254" lon="7.29227">
        <ele>960</ele>
        <time>2020-06-24T07:57:36.124Z</time>
      </trkpt>
      <trkpt lat="48.41253" lon="7.29226">
        <ele>960</ele>
        <time>2020-06-24T07:57:37.125Z</time>
      </trkpt>
      <trkpt lat="48.41253" lon="7.29225">
        <ele>961</ele>
        <time>2020-06-24T07:57:38.124Z</time>
      </trkpt>
      <trkpt lat="48.41253" lon="7.29225">
        <ele>961</ele>
        <time>2020-06-24T07:57:39.125Z</time>
      </trkpt>
      <trkpt lat="48.41252" lon="7.29224">
        <ele>961</ele>
        <time>2020-06-24T07:57:40.124Z</time>
      </trkpt>
      <trkpt lat="48.41252" lon="7.29223">
        <ele>961</ele>
        <time>2020-06-24T07:57:41.125Z</time>
      </trkpt>
      <trkpt lat="48.41249" lon="7.29222">
        <ele>961</ele>
        <time>2020-06-24T07:57:42.124Z</time>
      </trkpt>
      <trkpt lat="48.41248" lon="7.29221">
        <ele>961</ele>
        <time>2020-06-24T07:57:43.124Z</time>
      </trkpt>
      <trkpt lat="48.41246" lon="7.29221">
        <ele>961</ele>
        <time>2020-06-24T07:57:44.125Z</time>
      </trkpt>
      <trkpt lat="48.41245" lon="7.29221">
        <ele>961</ele>
        <time>2020-06-24T07:57:45.124Z</time>
      </trkpt>
      <trkpt lat="48.41243" lon="7.29221">
        <ele>961</ele>
        <time>2020-06-24T07:57:46.125Z</time>
      </trkpt>
      <trkpt lat="48.41243" lon="7.2922">
        <ele>961</ele>
        <time>2020-06-24T07:57:47.125Z</time>
      </trkpt>
      <trkpt lat="48.41242" lon="7.2922">
        <ele>962</ele>
        <time>2020-06-24T07:57:48.125Z</time>
      </trkpt>
      <trkpt lat="48.41241" lon="7.29219">
        <ele>962</ele>
        <time>2020-06-24T07:57:49.124Z</time>
      </trkpt>
      <trkpt lat="48.41241" lon="7.29218">
        <ele>963</ele>
        <time>2020-06-24T07:57:50.125Z</time>
      </trkpt>
      <trkpt lat="48.41239" lon="7.29218">
        <ele>963</ele>
        <time>2020-06-24T07:57:51.124Z</time>
      </trkpt>
      <trkpt lat="48.41238" lon="7.29218">
        <ele>963</ele>
        <time>2020-06-24T07:57:52.125Z</time>
      </trkpt>
      <trkpt lat="48.41237" lon="7.29218">
        <ele>963</ele>
        <time>2020-06-24T07:57:53.125Z</time>
      </trkpt>
      <trkpt lat="48.41236" lon="7.29218">
        <ele>963</ele>
        <time>2020-06-24T07:57:54.125Z</time>
      </trkpt>
      <trkpt lat="48.41235" lon="7.29218">
        <ele>963</ele>
        <time>2020-06-24T07:57:55.125Z</time>
      </trkpt>
      <trkpt lat="48.41234" lon="7.29217">
        <ele>963</ele>
        <time>2020-06-24T07:57:56.124Z</time>
      </trkpt>
      <trkpt lat="48.41233" lon="7.29217">
        <ele>963</ele>
        <time>2020-06-24T07:57:57.125Z</time>
      </trkpt>
      <trkpt lat="48.41231" lon="7.29216">
        <ele>963</ele>
        <time>2020-06-24T07:57:58.124Z</time>
      </trkpt>
      <trkpt lat="48.4123" lon="7.29215">
        <ele>962</ele>
        <time>2020-06-24T07:57:59.125Z</time>
      </trkpt>
      <trkpt lat="48.41229" lon="7.29214">
        <ele>962</ele>
        <time>2020-06-24T07:58:00.124Z</time>
      </trkpt>
      <trkpt lat="48.41228" lon="7.29214">
        <ele>962</ele>
        <time>2020-06-24T07:58:01.124Z</time>
      </trkpt>
      <trkpt lat="48.41226" lon="7.29214">
        <ele>962</ele>
        <time>2020-06-24T07:58:02.125Z</time>
      </trkpt>
      <trkpt lat="48.41225" lon="7.29214">
        <ele>962</ele>
        <time>2020-06-24T07:58:03.124Z</time>
      </trkpt>
      <trkpt lat="48.41223" lon="7.29214">
        <ele>962</ele>
        <time>2020-06-24T07:58:04.125Z</time>
      </trkpt>
      <trkpt lat="48.41222" lon="7.29213">
        <ele>962</ele>
        <time>2020-06-24T07:58:05.124Z</time>
      </trkpt>
      <trkpt lat="48.41221" lon="7.29213">
        <ele>962</ele>
        <time>2020-06-24T07:58:06.125Z</time>
      </trkpt>
      <trkpt lat="48.41219" lon="7.29213">
        <ele>962</ele>
        <time>2020-06-24T07:58:07.125Z</time>
      </trkpt>
      <trkpt lat="48.41218" lon="7.29213">
        <ele>962</ele>
        <time>2020-06-24T07:58:08.124Z</time>
      </trkpt>
      <trkpt lat="48.41217" lon="7.29213">
        <ele>962</ele>
        <time>2020-06-24T07:58:09.124Z</time>
      </trkpt>
      <trkpt lat="48.41215" lon="7.29213">
        <ele>962</ele>
        <time>2020-06-24T07:58:10.125Z</time>
      </trkpt>
      <trkpt lat="48.41214" lon="7.29214">
        <ele>962</ele>
        <time>2020-06-24T07:58:11.124Z</time>
      </trkpt>
      <trkpt lat="48.41212" lon="7.29214">
        <ele>962</ele>
        <time>2020-06-24T07:58:12.124Z</time>
      </trkpt>
      <trkpt lat="48.41211" lon="7.29214">
        <ele>962</ele>
        <time>2020-06-24T07:58:13.124Z</time>
      </trkpt>
      <trkpt lat="48.41209" lon="7.29215">
        <ele>962</ele>
        <time>2020-06-24T07:58:14.124Z</time>
      </trkpt>
      <trkpt lat="48.41208" lon="7.29216">
        <ele>963</ele>
        <time>2020-06-24T07:58:15.124Z</time>
      </trkpt>
      <trkpt lat="48.41206" lon="7.29216">
        <ele>963</ele>
        <time>2020-06-24T07:58:16.124Z</time>
      </trkpt>
      <trkpt lat="48.41205" lon="7.29216">
        <ele>963</ele>
        <time>2020-06-24T07:58:17.125Z</time>
      </trkpt>
      <trkpt lat="48.41204" lon="7.29217">
        <ele>963</ele>
        <time>2020-06-24T07:58:18.125Z</time>
      </trkpt>
      <trkpt lat="48.41203" lon="7.29217">
        <ele>963</ele>
        <time>2020-06-24T07:58:19.125Z</time>
      </trkpt>
      <trkpt lat="48.41202" lon="7.29217">
        <ele>964</ele>
        <time>2020-06-24T07:58:20.125Z</time>
      </trkpt>
      <trkpt lat="48.41201" lon="7.29216">
        <ele>964</ele>
        <time>2020-06-24T07:58:21.125Z</time>
      </trkpt>
      <trkpt lat="48.412" lon="7.29216">
        <ele>964</ele>
        <time>2020-06-24T07:58:22.124Z</time>
      </trkpt>
      <trkpt lat="48.41198" lon="7.29217">
        <ele>964</ele>
        <time>2020-06-24T07:58:23.125Z</time>
      </trkpt>
      <trkpt lat="48.41197" lon="7.29216">
        <ele>965</ele>
        <time>2020-06-24T07:58:24.124Z</time>
      </trkpt>
      <trkpt lat="48.41197" lon="7.29216">
        <ele>965</ele>
        <time>2020-06-24T07:58:25.124Z</time>
      </trkpt>
      <trkpt lat="48.41196" lon="7.29216">
        <ele>966</ele>
        <time>2020-06-24T07:58:26.125Z</time>
      </trkpt>
      <trkpt lat="48.41195" lon="7.29216">
        <ele>966</ele>
        <time>2020-06-24T07:58:27.124Z</time>
      </trkpt>
      <trkpt lat="48.41194" lon="7.29216">
        <ele>966</ele>
        <time>2020-06-24T07:58:28.124Z</time>
      </trkpt>
      <trkpt lat="48.41193" lon="7.29217">
        <ele>966</ele>
        <time>2020-06-24T07:58:29.124Z</time>
      </trkpt>
      <trkpt lat="48.41192" lon="7.29217">
        <ele>966</ele>
        <time>2020-06-24T07:58:30.125Z</time>
      </trkpt>
      <trkpt lat="48.4119" lon="7.29218">
        <ele>966</ele>
        <time>2020-06-24T07:58:31.125Z</time>
      </trkpt>
      <trkpt lat="48.41189" lon="7.29218">
        <ele>966</ele>
        <time>2020-06-24T07:58:32.124Z</time>
      </trkpt>
      <trkpt lat="48.41188" lon="7.29218">
        <ele>966</ele>
        <time>2020-06-24T07:58:33.125Z</time>
      </trkpt>
      <trkpt lat="48.41186" lon="7.29218">
        <ele>966</ele>
        <time>2020-06-24T07:58:34.125Z</time>
      </trkpt>
      <trkpt lat="48.41184" lon="7.29218">
        <ele>966</ele>
        <time>2020-06-24T07:58:35.124Z</time>
      </trkpt>
      <trkpt lat="48.41183" lon="7.29218">
        <ele>966</ele>
        <time>2020-06-24T07:58:36.125Z</time>
      </trkpt>
      <trkpt lat="48.41182" lon="7.29218">
        <ele>967</ele>
        <time>2020-06-24T07:58:37.125Z</time>
      </trkpt>
      <trkpt lat="48.41181" lon="7.29218">
        <ele>967</ele>
        <time>2020-06-24T07:58:38.124Z</time>
      </trkpt>
      <trkpt lat="48.41179" lon="7.29217">
        <ele>967</ele>
        <time>2020-06-24T07:58:39.124Z</time>
      </trkpt>
      <trkpt lat="48.41177" lon="7.29216">
        <ele>967</ele>
        <time>2020-06-24T07:58:40.124Z</time>
      </trkpt>
      <trkpt lat="48.41176" lon="7.29216">
        <ele>967</ele>
        <time>2020-06-24T07:58:41.124Z</time>
      </trkpt>
      <trkpt lat="48.41175" lon="7.29216">
        <ele>967</ele>
        <time>2020-06-24T07:58:42.124Z</time>
      </trkpt>
      <trkpt lat="48.41174" lon="7.29215">
        <ele>967</ele>
        <time>2020-06-24T07:58:43.124Z</time>
      </trkpt>
      <trkpt lat="48.41171" lon="7.29215">
        <ele>967</ele>
        <time>2020-06-24T07:58:44.124Z</time>
      </trkpt>
      <trkpt lat="48.41169" lon="7.29215">
        <ele>967</ele>
        <time>2020-06-24T07:58:45.124Z</time>
      </trkpt>
      <trkpt lat="48.41167" lon="7.29215">
        <ele>967</ele>
        <time>2020-06-24T07:58:46.125Z</time>
      </trkpt>
      <trkpt lat="48.41165" lon="7.29215">
        <ele>967</ele>
        <time>2020-06-24T07:58:47.124Z</time>
      </trkpt>
      <trkpt lat="48.41164" lon="7.29215">
        <ele>967</ele>
        <time>2020-06-24T07:58:48.125Z</time>
      </trkpt>
      <trkpt lat="48.41163" lon="7.29213">
        <ele>967</ele>
        <time>2020-06-24T07:58:49.124Z</time>
      </trkpt>
      <trkpt lat="48.41162" lon="7.29213">
        <ele>967</ele>
        <time>2020-06-24T07:58:50.124Z</time>
      </trkpt>
      <trkpt lat="48.41161" lon="7.29213">
        <ele>966</ele>
        <time>2020-06-24T07:58:51.124Z</time>
      </trkpt>
      <trkpt lat="48.4116" lon="7.29212">
        <ele>966</ele>
        <time>2020-06-24T07:58:52.125Z</time>
      </trkpt>
      <trkpt lat="48.41158" lon="7.29212">
        <ele>966</ele>
        <time>2020-06-24T07:58:53.124Z</time>
      </trkpt>
      <trkpt lat="48.41157" lon="7.29211">
        <ele>965</ele>
        <time>2020-06-24T07:58:54.125Z</time>
      </trkpt>
      <trkpt lat="48.41155" lon="7.2921">
        <ele>965</ele>
        <time>2020-06-24T07:58:55.125Z</time>
      </trkpt>
      <trkpt lat="48.41154" lon="7.29209">
        <ele>965</ele>
        <time>2020-06-24T07:58:56.125Z</time>
      </trkpt>
      <trkpt lat="48.41153" lon="7.29208">
        <ele>965</ele>
        <time>2020-06-24T07:58:57.124Z</time>
      </trkpt>
      <trkpt lat="48.41152" lon="7.29206">
        <ele>966</ele>
        <time>2020-06-24T07:58:58.124Z</time>
      </trkpt>
      <trkpt lat="48.41151" lon="7.29205">
        <ele>965</ele>
        <time>2020-06-24T07:58:59.125Z</time>
      </trkpt>
      <trkpt lat="48.41151" lon="7.29204">
        <ele>966</ele>
        <time>2020-06-24T07:59:00.124Z</time>
      </trkpt>
      <trkpt lat="48.4115" lon="7.29203">
        <ele>966</ele>
        <time>2020-06-24T07:59:01.124Z</time>
      </trkpt>
      <trkpt lat="48.41148" lon="7.29202">
        <ele>966</ele>
        <time>2020-06-24T07:59:02.124Z</time>
      </trkpt>
      <trkpt lat="48.41147" lon="7.29201">
        <ele>966</ele>
        <time>2020-06-24T07:59:03.124Z</time>
      </trkpt>
      <trkpt lat="48.41146" lon="7.29201">
        <ele>966</ele>
        <time>2020-06-24T07:59:04.124Z</time>
      </trkpt>
      <trkpt lat="48.41145" lon="7.292">
        <ele>966</ele>
        <time>2020-06-24T07:59:05.125Z</time>
      </trkpt>
      <trkpt lat="48.41144" lon="7.29199">
        <ele>966</ele>
        <time>2020-06-24T07:59:06.124Z</time>
      </trkpt>
      <trkpt lat="48.41143" lon="7.29198">
        <ele>967</ele>
        <time>2020-06-24T07:59:07.125Z</time>
      </trkpt>
      <trkpt lat="48.41142" lon="7.29198">
        <ele>967</ele>
        <time>2020-06-24T07:59:08.125Z</time>
      </trkpt>
      <trkpt lat="48.41141" lon="7.29197">
        <ele>967</ele>
        <time>2020-06-24T07:59:09.124Z</time>
      </trkpt>
      <trkpt lat="48.4114" lon="7.29196">
        <ele>967</ele>
        <time>2020-06-24T07:59:10.124Z</time>
      </trkpt>
      <trkpt lat="48.41139" lon="7.29196">
        <ele>967</ele>
        <time>2020-06-24T07:59:11.124Z</time>
      </trkpt>
      <trkpt lat="48.41138" lon="7.29195">
        <ele>967</ele>
        <time>2020-06-24T07:59:12.124Z</time>
      </trkpt>
      <trkpt lat="48.41136" lon="7.29194">
        <ele>967</ele>
        <time>2020-06-24T07:59:13.125Z</time>
      </trkpt>
      <trkpt lat="48.41135" lon="7.29193">
        <ele>967</ele>
        <time>2020-06-24T07:59:14.124Z</time>
      </trkpt>
      <trkpt lat="48.41134" lon="7.29193">
        <ele>967</ele>
        <time>2020-06-24T07:59:15.124Z</time>
      </trkpt>
      <trkpt lat="48.41132" lon="7.29191">
        <ele>967</ele>
        <time>2020-06-24T07:59:16.125Z</time>
      </trkpt>
      <trkpt lat="48.4113" lon="7.2919">
        <ele>967</ele>
        <time>2020-06-24T07:59:17.125Z</time>
      </trkpt>
      <trkpt lat="48.41129" lon="7.29189">
        <ele>967</ele>
        <time>2020-06-24T07:59:18.124Z</time>
      </trkpt>
      <trkpt lat="48.41126" lon="7.29188">
        <ele>967</ele>
        <time>2020-06-24T07:59:19.125Z</time>
      </trkpt>
      <trkpt lat="48.41124" lon="7.29186">
        <ele>967</ele>
        <time>2020-06-24T07:59:20.124Z</time>
      </trkpt>
      <trkpt lat="48.41124" lon="7.29185">
        <ele>967</ele>
        <time>2020-06-24T07:59:21.124Z</time>
      </trkpt>
      <trkpt lat="48.41123" lon="7.29184">
        <ele>968</ele>
        <time>2020-06-24T07:59:22.124Z</time>
      </trkpt>
      <trkpt lat="48.41122" lon="7.29184">
        <ele>968</ele>
        <time>2020-06-24T07:59:23.124Z</time>
      </trkpt>
      <trkpt lat="48.41121" lon="7.29183">
        <ele>968</ele>
        <time>2020-06-24T07:59:24.124Z</time>
      </trkpt>
      <trkpt lat="48.4112" lon="7.29182">
        <ele>968</ele>
        <time>2020-06-24T07:59:25.124Z</time>
      </trkpt>
      <trkpt lat="48.41118" lon="7.29181">
        <ele>968</ele>
        <time>2020-06-24T07:59:26.124Z</time>
      </trkpt>
      <trkpt lat="48.41116" lon="7.29179">
        <ele>968</ele>
        <time>2020-06-24T07:59:27.124Z</time>
      </trkpt>
      <trkpt lat="48.41115" lon="7.29178">
        <ele>968</ele>
        <time>2020-06-24T07:59:28.124Z</time>
      </trkpt>
      <trkpt lat="48.41114" lon="7.29177">
        <ele>968</ele>
        <time>2020-06-24T07:59:29.124Z</time>
      </trkpt>
      <trkpt lat="48.41113" lon="7.29175">
        <ele>968</ele>
        <time>2020-06-24T07:59:30.124Z</time>
      </trkpt>
      <trkpt lat="48.41111" lon="7.29174">
        <ele>968</ele>
        <time>2020-06-24T07:59:31.125Z</time>
      </trkpt>
      <trkpt lat="48.41109" lon="7.29172">
        <ele>968</ele>
        <time>2020-06-24T07:59:32.125Z</time>
      </trkpt>
      <trkpt lat="48.41108" lon="7.29171">
        <ele>969</ele>
        <time>2020-06-24T07:59:33.124Z</time>
      </trkpt>
      <trkpt lat="48.41107" lon="7.29169">
        <ele>969</ele>
        <time>2020-06-24T07:59:34.125Z</time>
      </trkpt>
      <trkpt lat="48.41106" lon="7.29168">
        <ele>969</ele>
        <time>2020-06-24T07:59:35.124Z</time>
      </trkpt>
      <trkpt lat="48.41106" lon="7.29167">
        <ele>969</ele>
        <time>2020-06-24T07:59:36.124Z</time>
      </trkpt>
      <trkpt lat="48.41105" lon="7.29166">
        <ele>969</ele>
        <time>2020-06-24T07:59:37.124Z</time>
      </trkpt>
      <trkpt lat="48.41103" lon="7.29166">
        <ele>970</ele>
        <time>2020-06-24T07:59:38.125Z</time>
      </trkpt>
      <trkpt lat="48.41102" lon="7.29165">
        <ele>970</ele>
        <time>2020-06-24T07:59:39.124Z</time>
      </trkpt>
      <trkpt lat="48.411" lon="7.29164">
        <ele>970</ele>
        <time>2020-06-24T07:59:40.125Z</time>
      </trkpt>
      <trkpt lat="48.41098" lon="7.29163">
        <ele>971</ele>
        <time>2020-06-24T07:59:41.124Z</time>
      </trkpt>
      <trkpt lat="48.41097" lon="7.29162">
        <ele>971</ele>
        <time>2020-06-24T07:59:42.125Z</time>
      </trkpt>
      <trkpt lat="48.41096" lon="7.2916">
        <ele>972</ele>
        <time>2020-06-24T07:59:43.125Z</time>
      </trkpt>
      <trkpt lat="48.41096" lon="7.29159">
        <ele>972</ele>
        <time>2020-06-24T07:59:44.125Z</time>
      </trkpt>
      <trkpt lat="48.41096" lon="7.29157">
        <ele>972</ele>
        <time>2020-06-24T07:59:45.124Z</time>
      </trkpt>
      <trkpt lat="48.41095" lon="7.29156">
        <ele>973</ele>
        <time>2020-06-24T07:59:46.124Z</time>
      </trkpt>
      <trkpt lat="48.41094" lon="7.29154">
        <ele>973</ele>
        <time>2020-06-24T07:59:47.125Z</time>
      </trkpt>
      <trkpt lat="48.41092" lon="7.29154">
        <ele>973</ele>
        <time>2020-06-24T07:59:48.124Z</time>
      </trkpt>
      <trkpt lat="48.41091" lon="7.29153">
        <ele>973</ele>
        <time>2020-06-24T07:59:49.124Z</time>
      </trkpt>
      <trkpt lat="48.41089" lon="7.29152">
        <ele>973</ele>
        <time>2020-06-24T07:59:50.125Z</time>
      </trkpt>
      <trkpt lat="48.41088" lon="7.29151">
        <ele>973</ele>
        <time>2020-06-24T07:59:51.124Z</time>
      </trkpt>
      <trkpt lat="48.41088" lon="7.2915">
        <ele>973</ele>
        <time>2020-06-24T07:59:52.125Z</time>
      </trkpt>
      <trkpt lat="48.41087" lon="7.29148">
        <ele>973</ele>
        <time>2020-06-24T07:59:53.124Z</time>
      </trkpt>
      <trkpt lat="48.41086" lon="7.29147">
        <ele>973</ele>
        <time>2020-06-24T07:59:54.125Z</time>
      </trkpt>
      <trkpt lat="48.41086" lon="7.29146">
        <ele>973</ele>
        <time>2020-06-24T07:59:55.124Z</time>
      </trkpt>
      <trkpt lat="48.41085" lon="7.29144">
        <ele>974</ele>
        <time>2020-06-24T07:59:56.125Z</time>
      </trkpt>
      <trkpt lat="48.41084" lon="7.29143">
        <ele>974</ele>
        <time>2020-06-24T07:59:57.124Z</time>
      </trkpt>
      <trkpt lat="48.41084" lon="7.29143">
        <ele>974</ele>
        <time>2020-06-24T07:59:58.124Z</time>
      </trkpt>
      <trkpt lat="48.41082" lon="7.29142">
        <ele>974</ele>
        <time>2020-06-24T07:59:59.124Z</time>
      </trkpt>
      <trkpt lat="48.41081" lon="7.2914">
        <ele>975</ele>
        <time>2020-06-24T08:00:00.125Z</time>
      </trkpt>
      <trkpt lat="48.4108" lon="7.29138">
        <ele>975</ele>
        <time>2020-06-24T08:00:01.124Z</time>
      </trkpt>
      <trkpt lat="48.41079" lon="7.29137">
        <ele>975</ele>
        <time>2020-06-24T08:00:02.125Z</time>
      </trkpt>
      <trkpt lat="48.41078" lon="7.29135">
        <ele>975</ele>
        <time>2020-06-24T08:00:03.125Z</time>
      </trkpt>
      <trkpt lat="48.41076" lon="7.29133">
        <ele>975</ele>
        <time>2020-06-24T08:00:04.124Z</time>
      </trkpt>
      <trkpt lat="48.41075" lon="7.29132">
        <ele>975</ele>
        <time>2020-06-24T08:00:05.124Z</time>
      </trkpt>
      <trkpt lat="48.41074" lon="7.2913">
        <ele>975</ele>
        <time>2020-06-24T08:00:06.124Z</time>
      </trkpt>
      <trkpt lat="48.41073" lon="7.29128">
        <ele>975</ele>
        <time>2020-06-24T08:00:07.124Z</time>
      </trkpt>
      <trkpt lat="48.41072" lon="7.29127">
        <ele>976</ele>
        <time>2020-06-24T08:00:08.124Z</time>
      </trkpt>
      <trkpt lat="48.41071" lon="7.29125">
        <ele>976</ele>
        <time>2020-06-24T08:00:09.124Z</time>
      </trkpt>
      <trkpt lat="48.41069" lon="7.29122">
        <ele>976</ele>
        <time>2020-06-24T08:00:10.125Z</time>
      </trkpt>
      <trkpt lat="48.41068" lon="7.29121">
        <ele>977</ele>
        <time>2020-06-24T08:00:11.124Z</time>
      </trkpt>
      <trkpt lat="48.41066" lon="7.29119">
        <ele>977</ele>
        <time>2020-06-24T08:00:12.125Z</time>
      </trkpt>
      <trkpt lat="48.41064" lon="7.29117">
        <ele>977</ele>
        <time>2020-06-24T08:00:13.124Z</time>
      </trkpt>
      <trkpt lat="48.41062" lon="7.29116">
        <ele>977</ele>
        <time>2020-06-24T08:00:14.124Z</time>
      </trkpt>
      <trkpt lat="48.41061" lon="7.29115">
        <ele>978</ele>
        <time>2020-06-24T08:00:15.124Z</time>
      </trkpt>
      <trkpt lat="48.4106" lon="7.29113">
        <ele>978</ele>
        <time>2020-06-24T08:00:16.124Z</time>
      </trkpt>
      <trkpt lat="48.4106" lon="7.29111">
        <ele>978</ele>
        <time>2020-06-24T08:00:17.125Z</time>
      </trkpt>
      <trkpt lat="48.41059" lon="7.29109">
        <ele>978</ele>
        <time>2020-06-24T08:00:18.124Z</time>
      </trkpt>
      <trkpt lat="48.41059" lon="7.29106">
        <ele>978</ele>
        <time>2020-06-24T08:00:19.125Z</time>
      </trkpt>
      <trkpt lat="48.41059" lon="7.29104">
        <ele>978</ele>
        <time>2020-06-24T08:00:20.124Z</time>
      </trkpt>
      <trkpt lat="48.41059" lon="7.29101">
        <ele>978</ele>
        <time>2020-06-24T08:00:21.125Z</time>
      </trkpt>
      <trkpt lat="48.41058" lon="7.29099">
        <ele>978</ele>
        <time>2020-06-24T08:00:22.125Z</time>
      </trkpt>
      <trkpt lat="48.41057" lon="7.29096">
        <ele>978</ele>
        <time>2020-06-24T08:00:23.124Z</time>
      </trkpt>
      <trkpt lat="48.41056" lon="7.29092">
        <ele>978</ele>
        <time>2020-06-24T08:00:24.125Z</time>
      </trkpt>
      <trkpt lat="48.41056" lon="7.29089">
        <ele>977</ele>
        <time>2020-06-24T08:00:25.125Z</time>
      </trkpt>
      <trkpt lat="48.41056" lon="7.29087">
        <ele>977</ele>
        <time>2020-06-24T08:00:26.125Z</time>
      </trkpt>
      <trkpt lat="48.41055" lon="7.29085">
        <ele>977</ele>
        <time>2020-06-24T08:00:27.124Z</time>
      </trkpt>
      <trkpt lat="48.41055" lon="7.29083">
        <ele>977</ele>
        <time>2020-06-24T08:00:28.125Z</time>
      </trkpt>
      <trkpt lat="48.41054" lon="7.29081">
        <ele>977</ele>
        <time>2020-06-24T08:00:29.124Z</time>
      </trkpt>
      <trkpt lat="48.41054" lon="7.29079">
        <ele>977</ele>
        <time>2020-06-24T08:00:30.125Z</time>
      </trkpt>
      <trkpt lat="48.41053" lon="7.29078">
        <ele>977</ele>
        <time>2020-06-24T08:00:31.125Z</time>
      </trkpt>
      <trkpt lat="48.41052" lon="7.29076">
        <ele>977</ele>
        <time>2020-06-24T08:00:32.124Z</time>
      </trkpt>
      <trkpt lat="48.41052" lon="7.29073">
        <ele>977</ele>
        <time>2020-06-24T08:00:33.125Z</time>
      </trkpt>
      <trkpt lat="48.41051" lon="7.29071">
        <ele>977</ele>
        <time>2020-06-24T08:00:34.124Z</time>
      </trkpt>
      <trkpt lat="48.41051" lon="7.29068">
        <ele>976</ele>
        <time>2020-06-24T08:00:35.124Z</time>
      </trkpt>
      <trkpt lat="48.4105" lon="7.29066">
        <ele>976</ele>
        <time>2020-06-24T08:00:36.125Z</time>
      </trkpt>
      <trkpt lat="48.4105" lon="7.29064">
        <ele>976</ele>
        <time>2020-06-24T08:00:37.125Z</time>
      </trkpt>
      <trkpt lat="48.41049" lon="7.29062">
        <ele>977</ele>
        <time>2020-06-24T08:00:38.125Z</time>
      </trkpt>
      <trkpt lat="48.41045" lon="7.29062">
        <ele>977</ele>
        <time>2020-06-24T08:00:39.124Z</time>
      </trkpt>
      <trkpt lat="48.41043" lon="7.2906">
        <ele>977</ele>
        <time>2020-06-24T08:00:40.125Z</time>
      </trkpt>
      <trkpt lat="48.41041" lon="7.29058">
        <ele>977</ele>
        <time>2020-06-24T08:00:41.125Z</time>
      </trkpt>
      <trkpt lat="48.4104" lon="7.29056">
        <ele>977</ele>
        <time>2020-06-24T08:00:42.125Z</time>
      </trkpt>
      <trkpt lat="48.4104" lon="7.29055">
        <ele>978</ele>
        <time>2020-06-24T08:00:43.125Z</time>
      </trkpt>
      <trkpt lat="48.41039" lon="7.29053">
        <ele>978</ele>
        <time>2020-06-24T08:00:44.124Z</time>
      </trkpt>
      <trkpt lat="48.41039" lon="7.2905">
        <ele>978</ele>
        <time>2020-06-24T08:00:45.125Z</time>
      </trkpt>
      <trkpt lat="48.41038" lon="7.29048">
        <ele>978</ele>
        <time>2020-06-24T08:00:46.124Z</time>
      </trkpt>
      <trkpt lat="48.41038" lon="7.29045">
        <ele>978</ele>
        <time>2020-06-24T08:00:47.124Z</time>
      </trkpt>
      <trkpt lat="48.41037" lon="7.29044">
        <ele>978</ele>
        <time>2020-06-24T08:00:48.125Z</time>
      </trkpt>
      <trkpt lat="48.41037" lon="7.29042">
        <ele>978</ele>
        <time>2020-06-24T08:00:49.124Z</time>
      </trkpt>
      <trkpt lat="48.41037" lon="7.2904">
        <ele>979</ele>
        <time>2020-06-24T08:00:50.124Z</time>
      </trkpt>
      <trkpt lat="48.41036" lon="7.29039">
        <ele>979</ele>
        <time>2020-06-24T08:00:51.124Z</time>
      </trkpt>
      <trkpt lat="48.41035" lon="7.29037">
        <ele>979</ele>
        <time>2020-06-24T08:00:52.124Z</time>
      </trkpt>
      <trkpt lat="48.41035" lon="7.29035">
        <ele>979</ele>
        <time>2020-06-24T08:00:53.125Z</time>
      </trkpt>
      <trkpt lat="48.41035" lon="7.29032">
        <ele>979</ele>
        <time>2020-06-24T08:00:54.124Z</time>
      </trkpt>
      <trkpt lat="48.41034" lon="7.2903">
        <ele>979</ele>
        <time>2020-06-24T08:00:55.124Z</time>
      </trkpt>
      <trkpt lat="48.41034" lon="7.29029">
        <ele>979</ele>
        <time>2020-06-24T08:00:56.125Z</time>
      </trkpt>
      <trkpt lat="48.41033" lon="7.29028">
        <ele>979</ele>
        <time>2020-06-24T08:00:57.124Z</time>
      </trkpt>
      <trkpt lat="48.41032" lon="7.29028">
        <ele>979</ele>
        <time>2020-06-24T08:00:58.125Z</time>
      </trkpt>
      <trkpt lat="48.41031" lon="7.29027">
        <ele>979</ele>
        <time>2020-06-24T08:00:59.124Z</time>
      </trkpt>
      <trkpt lat="48.4103" lon="7.29027">
        <ele>979</ele>
        <time>2020-06-24T08:01:00.125Z</time>
      </trkpt>
      <trkpt lat="48.41029" lon="7.29026">
        <ele>979</ele>
        <time>2020-06-24T08:01:01.125Z</time>
      </trkpt>
      <trkpt lat="48.41027" lon="7.29025">
        <ele>979</ele>
        <time>2020-06-24T08:01:02.124Z</time>
      </trkpt>
      <trkpt lat="48.41026" lon="7.29024">
        <ele>979</ele>
        <time>2020-06-24T08:01:03.124Z</time>
      </trkpt>
      <trkpt lat="48.41025" lon="7.29023">
        <ele>979</ele>
        <time>2020-06-24T08:01:04.125Z</time>
      </trkpt>
      <trkpt lat="48.41024" lon="7.29023">
        <ele>979</ele>
        <time>2020-06-24T08:01:05.124Z</time>
      </trkpt>
      <trkpt lat="48.41023" lon="7.29023">
        <ele>979</ele>
        <time>2020-06-24T08:01:06.124Z</time>
      </trkpt>
      <trkpt lat="48.41023" lon="7.29024">
        <ele>979</ele>
        <time>2020-06-24T08:01:07.124Z</time>
      </trkpt>
      <trkpt lat="48.41022" lon="7.29024">
        <ele>979</ele>
        <time>2020-06-24T08:01:08.124Z</time>
      </trkpt>
      <trkpt lat="48.41022" lon="7.29024">
        <ele>980</ele>
        <time>2020-06-24T08:01:09.125Z</time>
      </trkpt>
      <trkpt lat="48.41021" lon="7.29025">
        <ele>980</ele>
        <time>2020-06-24T08:01:10.124Z</time>
      </trkpt>
      <trkpt lat="48.41019" lon="7.29024">
        <ele>981</ele>
        <time>2020-06-24T08:01:11.125Z</time>
      </trkpt>
      <trkpt lat="48.41018" lon="7.29022">
        <ele>981</ele>
        <time>2020-06-24T08:01:12.125Z</time>
      </trkpt>
      <trkpt lat="48.41017" lon="7.29021">
        <ele>982</ele>
        <time>2020-06-24T08:01:13.124Z</time>
      </trkpt>
      <trkpt lat="48.41016" lon="7.2902">
        <ele>982</ele>
        <time>2020-06-24T08:01:14.124Z</time>
      </trkpt>
      <trkpt lat="48.41014" lon="7.2902">
        <ele>982</ele>
        <time>2020-06-24T08:01:15.124Z</time>
      </trkpt>
      <trkpt lat="48.41013" lon="7.29019">
        <ele>982</ele>
        <time>2020-06-24T08:01:16.125Z</time>
      </trkpt>
      <trkpt lat="48.41012" lon="7.29019">
        <ele>983</ele>
        <time>2020-06-24T08:01:17.125Z</time>
      </trkpt>
      <trkpt lat="48.4101" lon="7.29018">
        <ele>983</ele>
        <time>2020-06-24T08:01:18.125Z</time>
      </trkpt>
      <trkpt lat="48.41009" lon="7.29017">
        <ele>983</ele>
        <time>2020-06-24T08:01:19.125Z</time>
      </trkpt>
      <trkpt lat="48.41008" lon="7.29015">
        <ele>982</ele>
        <time>2020-06-24T08:01:20.124Z</time>
      </trkpt>
      <trkpt lat="48.41006" lon="7.29014">
        <ele>982</ele>
        <time>2020-06-24T08:01:21.124Z</time>
      </trkpt>
      <trkpt lat="48.41004" lon="7.29013">
        <ele>982</ele>
        <time>2020-06-24T08:01:22.125Z</time>
      </trkpt>
      <trkpt lat="48.41002" lon="7.29012">
        <ele>983</ele>
        <time>2020-06-24T08:01:23.124Z</time>
      </trkpt>
      <trkpt lat="48.41" lon="7.29012">
        <ele>983</ele>
        <time>2020-06-24T08:01:24.125Z</time>
      </trkpt>
      <trkpt lat="48.40999" lon="7.29011">
        <ele>983</ele>
        <time>2020-06-24T08:01:25.125Z</time>
      </trkpt>
      <trkpt lat="48.40998" lon="7.2901">
        <ele>983</ele>
        <time>2020-06-24T08:01:26.125Z</time>
      </trkpt>
      <trkpt lat="48.40997" lon="7.2901">
        <ele>983</ele>
        <time>2020-06-24T08:01:27.125Z</time>
      </trkpt>
      <trkpt lat="48.40996" lon="7.29009">
        <ele>983</ele>
        <time>2020-06-24T08:01:28.125Z</time>
      </trkpt>
      <trkpt lat="48.40996" lon="7.29009">
        <ele>983</ele>
        <time>2020-06-24T08:01:29.125Z</time>
      </trkpt>
      <trkpt lat="48.40994" lon="7.29008">
        <ele>982</ele>
        <time>2020-06-24T08:01:30.124Z</time>
      </trkpt>
      <trkpt lat="48.40992" lon="7.29007">
        <ele>982</ele>
        <time>2020-06-24T08:01:31.125Z</time>
      </trkpt>
      <trkpt lat="48.4099" lon="7.29006">
        <ele>982</ele>
        <time>2020-06-24T08:01:32.125Z</time>
      </trkpt>
      <trkpt lat="48.40989" lon="7.29005">
        <ele>982</ele>
        <time>2020-06-24T08:01:33.125Z</time>
      </trkpt>
      <trkpt lat="48.40988" lon="7.29005">
        <ele>982</ele>
        <time>2020-06-24T08:01:34.124Z</time>
      </trkpt>
      <trkpt lat="48.40987" lon="7.29004">
        <ele>982</ele>
        <time>2020-06-24T08:01:35.125Z</time>
      </trkpt>
      <trkpt lat="48.40985" lon="7.29004">
        <ele>982</ele>
        <time>2020-06-24T08:01:36.125Z</time>
      </trkpt>
      <trkpt lat="48.40983" lon="7.29003">
        <ele>982</ele>
        <time>2020-06-24T08:01:37.124Z</time>
      </trkpt>
      <trkpt lat="48.40981" lon="7.29003">
        <ele>982</ele>
        <time>2020-06-24T08:01:38.125Z</time>
      </trkpt>
      <trkpt lat="48.4098" lon="7.29002">
        <ele>982</ele>
        <time>2020-06-24T08:01:39.125Z</time>
      </trkpt>
      <trkpt lat="48.40978" lon="7.29001">
        <ele>982</ele>
        <time>2020-06-24T08:01:40.125Z</time>
      </trkpt>
      <trkpt lat="48.40976" lon="7.29001">
        <ele>981</ele>
        <time>2020-06-24T08:01:41.125Z</time>
      </trkpt>
      <trkpt lat="48.40974" lon="7.29">
        <ele>981</ele>
        <time>2020-06-24T08:01:42.125Z</time>
      </trkpt>
      <trkpt lat="48.40973" lon="7.29">
        <ele>981</ele>
        <time>2020-06-24T08:01:43.125Z</time>
      </trkpt>
      <trkpt lat="48.40972" lon="7.29001">
        <ele>981</ele>
        <time>2020-06-24T08:01:44.125Z</time>
      </trkpt>
      <trkpt lat="48.4097" lon="7.29001">
        <ele>982</ele>
        <time>2020-06-24T08:01:45.125Z</time>
      </trkpt>
      <trkpt lat="48.40969" lon="7.29002">
        <ele>982</ele>
        <time>2020-06-24T08:01:46.124Z</time>
      </trkpt>
      <trkpt lat="48.40967" lon="7.29002">
        <ele>982</ele>
        <time>2020-06-24T08:01:47.124Z</time>
      </trkpt>
      <trkpt lat="48.40966" lon="7.29002">
        <ele>983</ele>
        <time>2020-06-24T08:01:48.125Z</time>
      </trkpt>
      <trkpt lat="48.40964" lon="7.29002">
        <ele>983</ele>
        <time>2020-06-24T08:01:49.124Z</time>
      </trkpt>
      <trkpt lat="48.40963" lon="7.29002">
        <ele>984</ele>
        <time>2020-06-24T08:01:50.125Z</time>
      </trkpt>
      <trkpt lat="48.40961" lon="7.29003">
        <ele>984</ele>
        <time>2020-06-24T08:01:51.124Z</time>
      </trkpt>
      <trkpt lat="48.4096" lon="7.29003">
        <ele>985</ele>
        <time>2020-06-24T08:01:52.125Z</time>
      </trkpt>
      <trkpt lat="48.40958" lon="7.29002">
        <ele>985</ele>
        <time>2020-06-24T08:01:53.124Z</time>
      </trkpt>
      <trkpt lat="48.40957" lon="7.29001">
        <ele>985</ele>
        <time>2020-06-24T08:01:54.125Z</time>
      </trkpt>
      <trkpt lat="48.40956" lon="7.29001">
        <ele>984</ele>
        <time>2020-06-24T08:01:55.125Z</time>
      </trkpt>
      <trkpt lat="48.40954" lon="7.29001">
        <ele>984</ele>
        <time>2020-06-24T08:01:56.125Z</time>
      </trkpt>
      <trkpt lat="48.40953" lon="7.29001">
        <ele>984</ele>
        <time>2020-06-24T08:01:57.125Z</time>
      </trkpt>
      <trkpt lat="48.40952" lon="7.29001">
        <ele>984</ele>
        <time>2020-06-24T08:01:58.125Z</time>
      </trkpt>
      <trkpt lat="48.4095" lon="7.29001">
        <ele>984</ele>
        <time>2020-06-24T08:01:59.125Z</time>
      </trkpt>
      <trkpt lat="48.40949" lon="7.29001">
        <ele>984</ele>
        <time>2020-06-24T08:02:00.125Z</time>
      </trkpt>
      <trkpt lat="48.40948" lon="7.29">
        <ele>984</ele>
        <time>2020-06-24T08:02:01.124Z</time>
      </trkpt>
      <trkpt lat="48.40945" lon="7.29">
        <ele>984</ele>
        <time>2020-06-24T08:02:02.125Z</time>
      </trkpt>
      <trkpt lat="48.40943" lon="7.29">
        <ele>984</ele>
        <time>2020-06-24T08:02:03.125Z</time>
      </trkpt>
      <trkpt lat="48.4094" lon="7.29001">
        <ele>985</ele>
        <time>2020-06-24T08:02:04.125Z</time>
      </trkpt>
      <trkpt lat="48.40939" lon="7.29002">
        <ele>985</ele>
        <time>2020-06-24T08:02:05.124Z</time>
      </trkpt>
      <trkpt lat="48.40939" lon="7.29002">
        <ele>985</ele>
        <time>2020-06-24T08:02:06.124Z</time>
      </trkpt>
      <trkpt lat="48.40937" lon="7.29">
        <ele>985</ele>
        <time>2020-06-24T08:02:07.125Z</time>
      </trkpt>
      <trkpt lat="48.40935" lon="7.29">
        <ele>985</ele>
        <time>2020-06-24T08:02:08.125Z</time>
      </trkpt>
      <trkpt lat="48.40933" lon="7.28999">
        <ele>985</ele>
        <time>2020-06-24T08:02:09.125Z</time>
      </trkpt>
      <trkpt lat="48.40931" lon="7.28999">
        <ele>985</ele>
        <time>2020-06-24T08:02:10.125Z</time>
      </trkpt>
      <trkpt lat="48.4093" lon="7.28998">
        <ele>985</ele>
        <time>2020-06-24T08:02:11.125Z</time>
      </trkpt>
      <trkpt lat="48.40929" lon="7.28998">
        <ele>985</ele>
        <time>2020-06-24T08:02:12.125Z</time>
      </trkpt>
      <trkpt lat="48.40928" lon="7.28998">
        <ele>985</ele>
        <time>2020-06-24T08:02:13.124Z</time>
      </trkpt>
      <trkpt lat="48.40927" lon="7.28998">
        <ele>985</ele>
        <time>2020-06-24T08:02:14.125Z</time>
      </trkpt>
      <trkpt lat="48.40925" lon="7.28997">
        <ele>984</ele>
        <time>2020-06-24T08:02:15.125Z</time>
      </trkpt>
      <trkpt lat="48.40924" lon="7.28996">
        <ele>984</ele>
        <time>2020-06-24T08:02:16.124Z</time>
      </trkpt>
      <trkpt lat="48.40922" lon="7.28996">
        <ele>984</ele>
        <time>2020-06-24T08:02:17.125Z</time>
      </trkpt>
      <trkpt lat="48.40921" lon="7.28995">
        <ele>984</ele>
        <time>2020-06-24T08:02:18.125Z</time>
      </trkpt>
      <trkpt lat="48.4092" lon="7.28994">
        <ele>984</ele>
        <time>2020-06-24T08:02:19.125Z</time>
      </trkpt>
      <trkpt lat="48.40919" lon="7.28994">
        <ele>984</ele>
        <time>2020-06-24T08:02:20.125Z</time>
      </trkpt>
      <trkpt lat="48.40917" lon="7.28993">
        <ele>984</ele>
        <time>2020-06-24T08:02:21.124Z</time>
      </trkpt>
      <trkpt lat="48.40916" lon="7.28992">
        <ele>985</ele>
        <time>2020-06-24T08:02:22.125Z</time>
      </trkpt>
      <trkpt lat="48.40914" lon="7.28992">
        <ele>985</ele>
        <time>2020-06-24T08:02:23.125Z</time>
      </trkpt>
      <trkpt lat="48.40913" lon="7.28991">
        <ele>985</ele>
        <time>2020-06-24T08:02:24.124Z</time>
      </trkpt>
      <trkpt lat="48.40912" lon="7.28989">
        <ele>986</ele>
        <time>2020-06-24T08:02:25.125Z</time>
      </trkpt>
      <trkpt lat="48.4091" lon="7.28988">
        <ele>986</ele>
        <time>2020-06-24T08:02:26.124Z</time>
      </trkpt>
      <trkpt lat="48.40909" lon="7.28987">
        <ele>986</ele>
        <time>2020-06-24T08:02:27.124Z</time>
      </trkpt>
      <trkpt lat="48.40908" lon="7.28986">
        <ele>987</ele>
        <time>2020-06-24T08:02:28.124Z</time>
      </trkpt>
      <trkpt lat="48.40906" lon="7.28986">
        <ele>987</ele>
        <time>2020-06-24T08:02:29.125Z</time>
      </trkpt>
      <trkpt lat="48.40906" lon="7.28986">
        <ele>987</ele>
        <time>2020-06-24T08:02:30.124Z</time>
      </trkpt>
      <trkpt lat="48.40905" lon="7.28986">
        <ele>987</ele>
        <time>2020-06-24T08:02:31.124Z</time>
      </trkpt>
      <trkpt lat="48.40903" lon="7.28985">
        <ele>987</ele>
        <time>2020-06-24T08:02:32.125Z</time>
      </trkpt>
      <trkpt lat="48.40902" lon="7.28984">
        <ele>987</ele>
        <time>2020-06-24T08:02:33.124Z</time>
      </trkpt>
      <trkpt lat="48.40901" lon="7.28983">
        <ele>987</ele>
        <time>2020-06-24T08:02:34.125Z</time>
      </trkpt>
      <trkpt lat="48.409" lon="7.28982">
        <ele>987</ele>
        <time>2020-06-24T08:02:35.125Z</time>
      </trkpt>
      <trkpt lat="48.409" lon="7.2898">
        <ele>987</ele>
        <time>2020-06-24T08:02:36.125Z</time>
      </trkpt>
      <trkpt lat="48.40899" lon="7.28979">
        <ele>987</ele>
        <time>2020-06-24T08:02:37.124Z</time>
      </trkpt>
      <trkpt lat="48.40897" lon="7.28978">
        <ele>987</ele>
        <time>2020-06-24T08:02:38.124Z</time>
      </trkpt>
      <trkpt lat="48.40896" lon="7.28978">
        <ele>987</ele>
        <time>2020-06-24T08:02:39.125Z</time>
      </trkpt>
      <trkpt lat="48.40894" lon="7.28977">
        <ele>987</ele>
        <time>2020-06-24T08:02:40.124Z</time>
      </trkpt>
      <trkpt lat="48.40892" lon="7.28976">
        <ele>987</ele>
        <time>2020-06-24T08:02:41.125Z</time>
      </trkpt>
      <trkpt lat="48.40891" lon="7.28975">
        <ele>987</ele>
        <time>2020-06-24T08:02:42.124Z</time>
      </trkpt>
      <trkpt lat="48.4089" lon="7.28974">
        <ele>987</ele>
        <time>2020-06-24T08:02:43.125Z</time>
      </trkpt>
      <trkpt lat="48.40889" lon="7.28973">
        <ele>988</ele>
        <time>2020-06-24T08:02:44.125Z</time>
      </trkpt>
      <trkpt lat="48.40888" lon="7.28972">
        <ele>988</ele>
        <time>2020-06-24T08:02:45.124Z</time>
      </trkpt>
      <trkpt lat="48.40887" lon="7.28971">
        <ele>988</ele>
        <time>2020-06-24T08:02:46.125Z</time>
      </trkpt>
      <trkpt lat="48.40886" lon="7.28969">
        <ele>988</ele>
        <time>2020-06-24T08:02:47.124Z</time>
      </trkpt>
      <trkpt lat="48.40884" lon="7.28968">
        <ele>988</ele>
        <time>2020-06-24T08:02:48.124Z</time>
      </trkpt>
      <trkpt lat="48.40883" lon="7.28966">
        <ele>988</ele>
        <time>2020-06-24T08:02:49.124Z</time>
      </trkpt>
      <trkpt lat="48.40882" lon="7.28963">
        <ele>988</ele>
        <time>2020-06-24T08:02:50.124Z</time>
      </trkpt>
      <trkpt lat="48.40881" lon="7.28962">
        <ele>988</ele>
        <time>2020-06-24T08:02:51.124Z</time>
      </trkpt>
      <trkpt lat="48.40881" lon="7.2896">
        <ele>988</ele>
        <time>2020-06-24T08:02:52.125Z</time>
      </trkpt>
      <trkpt lat="48.40881" lon="7.28959">
        <ele>988</ele>
        <time>2020-06-24T08:02:53.124Z</time>
      </trkpt>
      <trkpt lat="48.4088" lon="7.28957">
        <ele>988</ele>
        <time>2020-06-24T08:02:54.124Z</time>
      </trkpt>
      <trkpt lat="48.4088" lon="7.28956">
        <ele>988</ele>
        <time>2020-06-24T08:02:55.124Z</time>
      </trkpt>
      <trkpt lat="48.40879" lon="7.28955">
        <ele>988</ele>
        <time>2020-06-24T08:02:56.125Z</time>
      </trkpt>
      <trkpt lat="48.40878" lon="7.28954">
        <ele>988</ele>
        <time>2020-06-24T08:02:57.124Z</time>
      </trkpt>
      <trkpt lat="48.40877" lon="7.28953">
        <ele>988</ele>
        <time>2020-06-24T08:02:58.125Z</time>
      </trkpt>
      <trkpt lat="48.40876" lon="7.28952">
        <ele>988</ele>
        <time>2020-06-24T08:02:59.124Z</time>
      </trkpt>
      <trkpt lat="48.40875" lon="7.28951">
        <ele>988</ele>
        <time>2020-06-24T08:03:00.125Z</time>
      </trkpt>
      <trkpt lat="48.40874" lon="7.2895">
        <ele>988</ele>
        <time>2020-06-24T08:03:01.125Z</time>
      </trkpt>
      <trkpt lat="48.40872" lon="7.2895">
        <ele>987</ele>
        <time>2020-06-24T08:03:02.125Z</time>
      </trkpt>
      <trkpt lat="48.40871" lon="7.28949">
        <ele>987</ele>
        <time>2020-06-24T08:03:03.125Z</time>
      </trkpt>
      <trkpt lat="48.4087" lon="7.28948">
        <ele>987</ele>
        <time>2020-06-24T08:03:04.125Z</time>
      </trkpt>
      <trkpt lat="48.40869" lon="7.28946">
        <ele>986</ele>
        <time>2020-06-24T08:03:05.125Z</time>
      </trkpt>
      <trkpt lat="48.40868" lon="7.28945">
        <ele>986</ele>
        <time>2020-06-24T08:03:06.125Z</time>
      </trkpt>
      <trkpt lat="48.40867" lon="7.28944">
        <ele>985</ele>
        <time>2020-06-24T08:03:07.124Z</time>
      </trkpt>
      <trkpt lat="48.40866" lon="7.28943">
        <ele>985</ele>
        <time>2020-06-24T08:03:08.124Z</time>
      </trkpt>
      <trkpt lat="48.40865" lon="7.28942">
        <ele>985</ele>
        <time>2020-06-24T08:03:09.125Z</time>
      </trkpt>
      <trkpt lat="48.40864" lon="7.28941">
        <ele>985</ele>
        <time>2020-06-24T08:03:10.125Z</time>
      </trkpt>
      <trkpt lat="48.40864" lon="7.2894">
        <ele>984</ele>
        <time>2020-06-24T08:03:11.125Z</time>
      </trkpt>
      <trkpt lat="48.40863" lon="7.28939">
        <ele>984</ele>
        <time>2020-06-24T08:03:12.124Z</time>
      </trkpt>
      <trkpt lat="48.40861" lon="7.28938">
        <ele>984</ele>
        <time>2020-06-24T08:03:13.125Z</time>
      </trkpt>
      <trkpt lat="48.4086" lon="7.28937">
        <ele>984</ele>
        <time>2020-06-24T08:03:14.125Z</time>
      </trkpt>
      <trkpt lat="48.40859" lon="7.28935">
        <ele>984</ele>
        <time>2020-06-24T08:03:15.125Z</time>
      </trkpt>
      <trkpt lat="48.40858" lon="7.28932">
        <ele>984</ele>
        <time>2020-06-24T08:03:16.125Z</time>
      </trkpt>
      <trkpt lat="48.40858" lon="7.2893">
        <ele>984</ele>
        <time>2020-06-24T08:03:17.125Z</time>
      </trkpt>
      <trkpt lat="48.40857" lon="7.28927">
        <ele>984</ele>
        <time>2020-06-24T08:03:18.125Z</time>
      </trkpt>
      <trkpt lat="48.40856" lon="7.28925">
        <ele>984</ele>
        <time>2020-06-24T08:03:19.125Z</time>
      </trkpt>
      <trkpt lat="48.40854" lon="7.28924">
        <ele>984</ele>
        <time>2020-06-24T08:03:20.125Z</time>
      </trkpt>
      <trkpt lat="48.40853" lon="7.28922">
        <ele>985</ele>
        <time>2020-06-24T08:03:21.125Z</time>
      </trkpt>
      <trkpt lat="48.40852" lon="7.28919">
        <ele>985</ele>
        <time>2020-06-24T08:03:22.125Z</time>
      </trkpt>
      <trkpt lat="48.4085" lon="7.28917">
        <ele>985</ele>
        <time>2020-06-24T08:03:23.125Z</time>
      </trkpt>
      <trkpt lat="48.40848" lon="7.28916">
        <ele>985</ele>
        <time>2020-06-24T08:03:24.125Z</time>
      </trkpt>
      <trkpt lat="48.40846" lon="7.28914">
        <ele>985</ele>
        <time>2020-06-24T08:03:25.125Z</time>
      </trkpt>
      <trkpt lat="48.40845" lon="7.28913">
        <ele>985</ele>
        <time>2020-06-24T08:03:26.125Z</time>
      </trkpt>
      <trkpt lat="48.40843" lon="7.28911">
        <ele>985</ele>
        <time>2020-06-24T08:03:27.125Z</time>
      </trkpt>
      <trkpt lat="48.40843" lon="7.28908">
        <ele>984</ele>
        <time>2020-06-24T08:03:28.125Z</time>
      </trkpt>
      <trkpt lat="48.40842" lon="7.28907">
        <ele>984</ele>
        <time>2020-06-24T08:03:29.125Z</time>
      </trkpt>
      <trkpt lat="48.40841" lon="7.28905">
        <ele>984</ele>
        <time>2020-06-24T08:03:30.124Z</time>
      </trkpt>
      <trkpt lat="48.4084" lon="7.28904">
        <ele>984</ele>
        <time>2020-06-24T08:03:31.124Z</time>
      </trkpt>
      <trkpt lat="48.4084" lon="7.28902">
        <ele>984</ele>
        <time>2020-06-24T08:03:32.125Z</time>
      </trkpt>
      <trkpt lat="48.40839" lon="7.289">
        <ele>983</ele>
        <time>2020-06-24T08:03:33.125Z</time>
      </trkpt>
      <trkpt lat="48.40838" lon="7.28898">
        <ele>983</ele>
        <time>2020-06-24T08:03:34.125Z</time>
      </trkpt>
      <trkpt lat="48.40838" lon="7.28895">
        <ele>983</ele>
        <time>2020-06-24T08:03:35.125Z</time>
      </trkpt>
      <trkpt lat="48.40837" lon="7.28893">
        <ele>983</ele>
        <time>2020-06-24T08:03:36.125Z</time>
      </trkpt>
      <trkpt lat="48.40835" lon="7.28892">
        <ele>983</ele>
        <time>2020-06-24T08:03:37.125Z</time>
      </trkpt>
      <trkpt lat="48.40834" lon="7.28891">
        <ele>983</ele>
        <time>2020-06-24T08:03:38.125Z</time>
      </trkpt>
      <trkpt lat="48.40833" lon="7.2889">
        <ele>983</ele>
        <time>2020-06-24T08:03:39.125Z</time>
      </trkpt>
      <trkpt lat="48.40831" lon="7.28888">
        <ele>983</ele>
        <time>2020-06-24T08:03:40.125Z</time>
      </trkpt>
      <trkpt lat="48.4083" lon="7.28887">
        <ele>983</ele>
        <time>2020-06-24T08:03:41.124Z</time>
      </trkpt>
      <trkpt lat="48.40829" lon="7.28885">
        <ele>984</ele>
        <time>2020-06-24T08:03:42.124Z</time>
      </trkpt>
      <trkpt lat="48.40828" lon="7.28882">
        <ele>984</ele>
        <time>2020-06-24T08:03:43.124Z</time>
      </trkpt>
      <trkpt lat="48.40828" lon="7.2888">
        <ele>984</ele>
        <time>2020-06-24T08:03:44.124Z</time>
      </trkpt>
      <trkpt lat="48.40827" lon="7.28877">
        <ele>984</ele>
        <time>2020-06-24T08:03:45.124Z</time>
      </trkpt>
      <trkpt lat="48.40827" lon="7.28875">
        <ele>983</ele>
        <time>2020-06-24T08:03:46.125Z</time>
      </trkpt>
      <trkpt lat="48.40826" lon="7.28873">
        <ele>983</ele>
        <time>2020-06-24T08:03:47.124Z</time>
      </trkpt>
      <trkpt lat="48.40825" lon="7.28871">
        <ele>983</ele>
        <time>2020-06-24T08:03:48.124Z</time>
      </trkpt>
      <trkpt lat="48.40824" lon="7.2887">
        <ele>983</ele>
        <time>2020-06-24T08:03:49.125Z</time>
      </trkpt>
      <trkpt lat="48.40823" lon="7.28869">
        <ele>984</ele>
        <time>2020-06-24T08:03:50.124Z</time>
      </trkpt>
      <trkpt lat="48.40821" lon="7.28867">
        <ele>984</ele>
        <time>2020-06-24T08:03:51.124Z</time>
      </trkpt>
      <trkpt lat="48.4082" lon="7.28865">
        <ele>985</ele>
        <time>2020-06-24T08:03:52.124Z</time>
      </trkpt>
      <trkpt lat="48.40819" lon="7.28863">
        <ele>985</ele>
        <time>2020-06-24T08:03:53.124Z</time>
      </trkpt>
      <trkpt lat="48.40818" lon="7.28861">
        <ele>986</ele>
        <time>2020-06-24T08:03:54.125Z</time>
      </trkpt>
      <trkpt lat="48.40818" lon="7.28859">
        <ele>986</ele>
        <time>2020-06-24T08:03:55.125Z</time>
      </trkpt>
      <trkpt lat="48.40817" lon="7.28858">
        <ele>987</ele>
        <time>2020-06-24T08:03:56.125Z</time>
      </trkpt>
      <trkpt lat="48.40816" lon="7.28856">
        <ele>988</ele>
        <time>2020-06-24T08:03:57.125Z</time>
      </trkpt>
      <trkpt lat="48.40816" lon="7.28854">
        <ele>988</ele>
        <time>2020-06-24T08:03:58.125Z</time>
      </trkpt>
      <trkpt lat="48.40815" lon="7.28852">
        <ele>989</ele>
        <time>2020-06-24T08:03:59.124Z</time>
      </trkpt>
      <trkpt lat="48.40814" lon="7.28851">
        <ele>989</ele>
        <time>2020-06-24T08:04:00.124Z</time>
      </trkpt>
      <trkpt lat="48.40813" lon="7.2885">
        <ele>990</ele>
        <time>2020-06-24T08:04:01.124Z</time>
      </trkpt>
      <trkpt lat="48.40812" lon="7.28848">
        <ele>990</ele>
        <time>2020-06-24T08:04:02.124Z</time>
      </trkpt>
      <trkpt lat="48.40811" lon="7.28846">
        <ele>990</ele>
        <time>2020-06-24T08:04:03.125Z</time>
      </trkpt>
      <trkpt lat="48.4081" lon="7.28845">
        <ele>991</ele>
        <time>2020-06-24T08:04:04.125Z</time>
      </trkpt>
      <trkpt lat="48.40809" lon="7.28843">
        <ele>991</ele>
        <time>2020-06-24T08:04:05.125Z</time>
      </trkpt>
      <trkpt lat="48.40808" lon="7.28841">
        <ele>992</ele>
        <time>2020-06-24T08:04:06.125Z</time>
      </trkpt>
      <trkpt lat="48.40807" lon="7.28839">
        <ele>992</ele>
        <time>2020-06-24T08:04:07.125Z</time>
      </trkpt>
      <trkpt lat="48.40807" lon="7.28837">
        <ele>993</ele>
        <time>2020-06-24T08:04:08.125Z</time>
      </trkpt>
      <trkpt lat="48.40806" lon="7.28835">
        <ele>993</ele>
        <time>2020-06-24T08:04:09.125Z</time>
      </trkpt>
      <trkpt lat="48.40806" lon="7.28833">
        <ele>993</ele>
        <time>2020-06-24T08:04:10.124Z</time>
      </trkpt>
      <trkpt lat="48.40806" lon="7.28832">
        <ele>993</ele>
        <time>2020-06-24T08:04:11.124Z</time>
      </trkpt>
      <trkpt lat="48.40804" lon="7.2883">
        <ele>993</ele>
        <time>2020-06-24T08:04:12.125Z</time>
      </trkpt>
      <trkpt lat="48.40803" lon="7.28829">
        <ele>993</ele>
        <time>2020-06-24T08:04:13.124Z</time>
      </trkpt>
      <trkpt lat="48.40803" lon="7.28827">
        <ele>993</ele>
        <time>2020-06-24T08:04:14.124Z</time>
      </trkpt>
      <trkpt lat="48.40802" lon="7.28825">
        <ele>993</ele>
        <time>2020-06-24T08:04:15.124Z</time>
      </trkpt>
      <trkpt lat="48.40801" lon="7.28823">
        <ele>992</ele>
        <time>2020-06-24T08:04:16.125Z</time>
      </trkpt>
      <trkpt lat="48.40801" lon="7.28821">
        <ele>992</ele>
        <time>2020-06-24T08:04:17.125Z</time>
      </trkpt>
      <trkpt lat="48.40799" lon="7.2882">
        <ele>992</ele>
        <time>2020-06-24T08:04:18.125Z</time>
      </trkpt>
      <trkpt lat="48.40797" lon="7.28818">
        <ele>992</ele>
        <time>2020-06-24T08:04:19.124Z</time>
      </trkpt>
      <trkpt lat="48.40796" lon="7.28816">
        <ele>992</ele>
        <time>2020-06-24T08:04:20.125Z</time>
      </trkpt>
      <trkpt lat="48.40795" lon="7.28813">
        <ele>993</ele>
        <time>2020-06-24T08:04:21.125Z</time>
      </trkpt>
      <trkpt lat="48.40794" lon="7.28811">
        <ele>993</ele>
        <time>2020-06-24T08:04:22.125Z</time>
      </trkpt>
      <trkpt lat="48.40793" lon="7.28808">
        <ele>994</ele>
        <time>2020-06-24T08:04:23.124Z</time>
      </trkpt>
      <trkpt lat="48.40792" lon="7.28806">
        <ele>994</ele>
        <time>2020-06-24T08:04:24.125Z</time>
      </trkpt>
      <trkpt lat="48.40791" lon="7.28804">
        <ele>995</ele>
        <time>2020-06-24T08:04:25.125Z</time>
      </trkpt>
      <trkpt lat="48.40791" lon="7.28801">
        <ele>995</ele>
        <time>2020-06-24T08:04:26.125Z</time>
      </trkpt>
      <trkpt lat="48.4079" lon="7.28799">
        <ele>995</ele>
        <time>2020-06-24T08:04:27.124Z</time>
      </trkpt>
      <trkpt lat="48.40789" lon="7.28797">
        <ele>995</ele>
        <time>2020-06-24T08:04:28.125Z</time>
      </trkpt>
      <trkpt lat="48.40788" lon="7.28795">
        <ele>994</ele>
        <time>2020-06-24T08:04:29.125Z</time>
      </trkpt>
      <trkpt lat="48.40787" lon="7.28793">
        <ele>994</ele>
        <time>2020-06-24T08:04:30.124Z</time>
      </trkpt>
      <trkpt lat="48.40787" lon="7.28791">
        <ele>994</ele>
        <time>2020-06-24T08:04:31.124Z</time>
      </trkpt>
      <trkpt lat="48.40786" lon="7.28789">
        <ele>994</ele>
        <time>2020-06-24T08:04:32.125Z</time>
      </trkpt>
      <trkpt lat="48.40785" lon="7.28788">
        <ele>994</ele>
        <time>2020-06-24T08:04:33.124Z</time>
      </trkpt>
      <trkpt lat="48.40785" lon="7.28786">
        <ele>993</ele>
        <time>2020-06-24T08:04:34.125Z</time>
      </trkpt>
      <trkpt lat="48.40784" lon="7.28784">
        <ele>993</ele>
        <time>2020-06-24T08:04:35.125Z</time>
      </trkpt>
      <trkpt lat="48.40784" lon="7.28782">
        <ele>993</ele>
        <time>2020-06-24T08:04:36.125Z</time>
      </trkpt>
      <trkpt lat="48.40784" lon="7.28781">
        <ele>993</ele>
        <time>2020-06-24T08:04:37.124Z</time>
      </trkpt>
      <trkpt lat="48.40784" lon="7.28779">
        <ele>993</ele>
        <time>2020-06-24T08:04:38.125Z</time>
      </trkpt>
      <trkpt lat="48.40784" lon="7.28777">
        <ele>993</ele>
        <time>2020-06-24T08:04:39.124Z</time>
      </trkpt>
      <trkpt lat="48.40783" lon="7.28775">
        <ele>993</ele>
        <time>2020-06-24T08:04:40.125Z</time>
      </trkpt>
      <trkpt lat="48.40781" lon="7.28773">
        <ele>993</ele>
        <time>2020-06-24T08:04:41.124Z</time>
      </trkpt>
      <trkpt lat="48.40781" lon="7.28772">
        <ele>994</ele>
        <time>2020-06-24T08:04:42.125Z</time>
      </trkpt>
      <trkpt lat="48.4078" lon="7.2877">
        <ele>994</ele>
        <time>2020-06-24T08:04:43.125Z</time>
      </trkpt>
      <trkpt lat="48.40779" lon="7.28768">
        <ele>994</ele>
        <time>2020-06-24T08:04:44.125Z</time>
      </trkpt>
      <trkpt lat="48.40778" lon="7.28767">
        <ele>994</ele>
        <time>2020-06-24T08:04:45.125Z</time>
      </trkpt>
      <trkpt lat="48.40778" lon="7.28764">
        <ele>995</ele>
        <time>2020-06-24T08:04:46.125Z</time>
      </trkpt>
      <trkpt lat="48.40777" lon="7.28762">
        <ele>995</ele>
        <time>2020-06-24T08:04:47.124Z</time>
      </trkpt>
      <trkpt lat="48.40776" lon="7.2876">
        <ele>995</ele>
        <time>2020-06-24T08:04:48.125Z</time>
      </trkpt>
      <trkpt lat="48.40776" lon="7.28759">
        <ele>995</ele>
        <time>2020-06-24T08:04:49.125Z</time>
      </trkpt>
      <trkpt lat="48.40776" lon="7.28758">
        <ele>995</ele>
        <time>2020-06-24T08:04:50.125Z</time>
      </trkpt>
      <trkpt lat="48.40775" lon="7.28756">
        <ele>995</ele>
        <time>2020-06-24T08:04:51.125Z</time>
      </trkpt>
      <trkpt lat="48.40774" lon="7.28755">
        <ele>995</ele>
        <time>2020-06-24T08:04:52.125Z</time>
      </trkpt>
      <trkpt lat="48.40773" lon="7.28753">
        <ele>996</ele>
        <time>2020-06-24T08:04:53.124Z</time>
      </trkpt>
      <trkpt lat="48.40772" lon="7.28751">
        <ele>996</ele>
        <time>2020-06-24T08:04:54.125Z</time>
      </trkpt>
      <trkpt lat="48.4077" lon="7.28749">
        <ele>996</ele>
        <time>2020-06-24T08:04:55.124Z</time>
      </trkpt>
      <trkpt lat="48.40769" lon="7.28747">
        <ele>996</ele>
        <time>2020-06-24T08:04:56.124Z</time>
      </trkpt>
      <trkpt lat="48.40769" lon="7.28745">
        <ele>997</ele>
        <time>2020-06-24T08:04:57.125Z</time>
      </trkpt>
      <trkpt lat="48.40768" lon="7.28743">
        <ele>997</ele>
        <time>2020-06-24T08:04:58.124Z</time>
      </trkpt>
      <trkpt lat="48.40768" lon="7.28741">
        <ele>997</ele>
        <time>2020-06-24T08:04:59.124Z</time>
      </trkpt>
      <trkpt lat="48.40768" lon="7.28739">
        <ele>998</ele>
        <time>2020-06-24T08:05:00.124Z</time>
      </trkpt>
      <trkpt lat="48.40768" lon="7.28737">
        <ele>998</ele>
        <time>2020-06-24T08:05:01.124Z</time>
      </trkpt>
      <trkpt lat="48.40768" lon="7.28735">
        <ele>999</ele>
        <time>2020-06-24T08:05:02.125Z</time>
      </trkpt>
      <trkpt lat="48.40768" lon="7.28733">
        <ele>999</ele>
        <time>2020-06-24T08:05:03.125Z</time>
      </trkpt>
      <trkpt lat="48.40767" lon="7.2873">
        <ele>999</ele>
        <time>2020-06-24T08:05:04.125Z</time>
      </trkpt>
      <trkpt lat="48.40767" lon="7.28729">
        <ele>999</ele>
        <time>2020-06-24T08:05:05.125Z</time>
      </trkpt>
      <trkpt lat="48.40767" lon="7.28727">
        <ele>999</ele>
        <time>2020-06-24T08:05:06.125Z</time>
      </trkpt>
      <trkpt lat="48.40767" lon="7.28725">
        <ele>999</ele>
        <time>2020-06-24T08:05:07.125Z</time>
      </trkpt>
      <trkpt lat="48.40767" lon="7.28723">
        <ele>999</ele>
        <time>2020-06-24T08:05:08.124Z</time>
      </trkpt>
      <trkpt lat="48.40767" lon="7.28721">
        <ele>999</ele>
        <time>2020-06-24T08:05:09.124Z</time>
      </trkpt>
      <trkpt lat="48.40766" lon="7.28719">
        <ele>999</ele>
        <time>2020-06-24T08:05:10.125Z</time>
      </trkpt>
      <trkpt lat="48.40765" lon="7.28717">
        <ele>999</ele>
        <time>2020-06-24T08:05:11.124Z</time>
      </trkpt>
      <trkpt lat="48.40765" lon="7.28715">
        <ele>1000</ele>
        <time>2020-06-24T08:05:12.125Z</time>
      </trkpt>
      <trkpt lat="48.40765" lon="7.28712">
        <ele>1000</ele>
        <time>2020-06-24T08:05:13.124Z</time>
      </trkpt>
      <trkpt lat="48.40765" lon="7.28709">
        <ele>1000</ele>
        <time>2020-06-24T08:05:14.125Z</time>
      </trkpt>
      <trkpt lat="48.40764" lon="7.28707">
        <ele>1000</ele>
        <time>2020-06-24T08:05:15.125Z</time>
      </trkpt>
      <trkpt lat="48.40763" lon="7.28706">
        <ele>1001</ele>
        <time>2020-06-24T08:05:16.125Z</time>
      </trkpt>
      <trkpt lat="48.40762" lon="7.28704">
        <ele>1001</ele>
        <time>2020-06-24T08:05:17.125Z</time>
      </trkpt>
      <trkpt lat="48.40762" lon="7.28702">
        <ele>1001</ele>
        <time>2020-06-24T08:05:18.125Z</time>
      </trkpt>
      <trkpt lat="48.40761" lon="7.287">
        <ele>1001</ele>
        <time>2020-06-24T08:05:19.125Z</time>
      </trkpt>
      <trkpt lat="48.4076" lon="7.28698">
        <ele>1001</ele>
        <time>2020-06-24T08:05:20.124Z</time>
      </trkpt>
      <trkpt lat="48.4076" lon="7.28696">
        <ele>1000</ele>
        <time>2020-06-24T08:05:21.125Z</time>
      </trkpt>
      <trkpt lat="48.40759" lon="7.28694">
        <ele>1000</ele>
        <time>2020-06-24T08:05:22.124Z</time>
      </trkpt>
      <trkpt lat="48.40757" lon="7.28693">
        <ele>1000</ele>
        <time>2020-06-24T08:05:23.125Z</time>
      </trkpt>
      <trkpt lat="48.40756" lon="7.28691">
        <ele>1000</ele>
        <time>2020-06-24T08:05:24.125Z</time>
      </trkpt>
      <trkpt lat="48.40755" lon="7.28689">
        <ele>1000</ele>
        <time>2020-06-24T08:05:25.125Z</time>
      </trkpt>
      <trkpt lat="48.40754" lon="7.28688">
        <ele>1000</ele>
        <time>2020-06-24T08:05:26.125Z</time>
      </trkpt>
      <trkpt lat="48.40754" lon="7.28685">
        <ele>1000</ele>
        <time>2020-06-24T08:05:27.125Z</time>
      </trkpt>
      <trkpt lat="48.40754" lon="7.28683">
        <ele>1001</ele>
        <time>2020-06-24T08:05:28.125Z</time>
      </trkpt>
      <trkpt lat="48.40753" lon="7.2868">
        <ele>1001</ele>
        <time>2020-06-24T08:05:29.124Z</time>
      </trkpt>
      <trkpt lat="48.40753" lon="7.28678">
        <ele>1001</ele>
        <time>2020-06-24T08:05:30.125Z</time>
      </trkpt>
      <trkpt lat="48.40753" lon="7.28675">
        <ele>1001</ele>
        <time>2020-06-24T08:05:31.125Z</time>
      </trkpt>
      <trkpt lat="48.40753" lon="7.28673">
        <ele>1002</ele>
        <time>2020-06-24T08:05:32.124Z</time>
      </trkpt>
      <trkpt lat="48.40753" lon="7.28671">
        <ele>1002</ele>
        <time>2020-06-24T08:05:33.125Z</time>
      </trkpt>
      <trkpt lat="48.40753" lon="7.28669">
        <ele>1002</ele>
        <time>2020-06-24T08:05:34.125Z</time>
      </trkpt>
      <trkpt lat="48.40753" lon="7.28667">
        <ele>1002</ele>
        <time>2020-06-24T08:05:35.125Z</time>
      </trkpt>
      <trkpt lat="48.40753" lon="7.28665">
        <ele>1002</ele>
        <time>2020-06-24T08:05:36.125Z</time>
      </trkpt>
      <trkpt lat="48.40752" lon="7.28663">
        <ele>1002</ele>
        <time>2020-06-24T08:05:37.124Z</time>
      </trkpt>
      <trkpt lat="48.40752" lon="7.2866">
        <ele>1002</ele>
        <time>2020-06-24T08:05:38.125Z</time>
      </trkpt>
      <trkpt lat="48.40751" lon="7.28658">
        <ele>1001</ele>
        <time>2020-06-24T08:05:39.125Z</time>
      </trkpt>
      <trkpt lat="48.40751" lon="7.28656">
        <ele>1001</ele>
        <time>2020-06-24T08:05:40.125Z</time>
      </trkpt>
      <trkpt lat="48.40751" lon="7.28654">
        <ele>1002</ele>
        <time>2020-06-24T08:05:41.125Z</time>
      </trkpt>
      <trkpt lat="48.4075" lon="7.28651">
        <ele>1002</ele>
        <time>2020-06-24T08:05:42.125Z</time>
      </trkpt>
      <trkpt lat="48.40749" lon="7.28648">
        <ele>1002</ele>
        <time>2020-06-24T08:05:43.125Z</time>
      </trkpt>
      <trkpt lat="48.40749" lon="7.28645">
        <ele>1002</ele>
        <time>2020-06-24T08:05:44.125Z</time>
      </trkpt>
      <trkpt lat="48.40749" lon="7.28642">
        <ele>1002</ele>
        <time>2020-06-24T08:05:45.125Z</time>
      </trkpt>
      <trkpt lat="48.40748" lon="7.28639">
        <ele>1002</ele>
        <time>2020-06-24T08:05:46.125Z</time>
      </trkpt>
      <trkpt lat="48.40748" lon="7.28637">
        <ele>1003</ele>
        <time>2020-06-24T08:05:47.125Z</time>
      </trkpt>
      <trkpt lat="48.40748" lon="7.28635">
        <ele>1003</ele>
        <time>2020-06-24T08:05:48.125Z</time>
      </trkpt>
      <trkpt lat="48.40748" lon="7.28632">
        <ele>1002</ele>
        <time>2020-06-24T08:05:49.124Z</time>
      </trkpt>
      <trkpt lat="48.40748" lon="7.28631">
        <ele>1002</ele>
        <time>2020-06-24T08:05:50.125Z</time>
      </trkpt>
      <trkpt lat="48.40749" lon="7.28629">
        <ele>1002</ele>
        <time>2020-06-24T08:05:51.125Z</time>
      </trkpt>
      <trkpt lat="48.40749" lon="7.28626">
        <ele>1002</ele>
        <time>2020-06-24T08:05:52.125Z</time>
      </trkpt>
      <trkpt lat="48.4075" lon="7.28624">
        <ele>1002</ele>
        <time>2020-06-24T08:05:53.124Z</time>
      </trkpt>
      <trkpt lat="48.40749" lon="7.28622">
        <ele>1002</ele>
        <time>2020-06-24T08:05:54.124Z</time>
      </trkpt>
      <trkpt lat="48.40749" lon="7.2862">
        <ele>1002</ele>
        <time>2020-06-24T08:05:55.125Z</time>
      </trkpt>
      <trkpt lat="48.40748" lon="7.28618">
        <ele>1002</ele>
        <time>2020-06-24T08:05:56.125Z</time>
      </trkpt>
      <trkpt lat="48.40748" lon="7.28615">
        <ele>1003</ele>
        <time>2020-06-24T08:05:57.125Z</time>
      </trkpt>
      <trkpt lat="48.40748" lon="7.28612">
        <ele>1003</ele>
        <time>2020-06-24T08:05:58.124Z</time>
      </trkpt>
      <trkpt lat="48.40748" lon="7.28609">
        <ele>1003</ele>
        <time>2020-06-24T08:05:59.125Z</time>
      </trkpt>
      <trkpt lat="48.40748" lon="7.28607">
        <ele>1003</ele>
        <time>2020-06-24T08:06:00.124Z</time>
      </trkpt>
      <trkpt lat="48.40748" lon="7.28605">
        <ele>1003</ele>
        <time>2020-06-24T08:06:01.124Z</time>
      </trkpt>
      <trkpt lat="48.40748" lon="7.28603">
        <ele>1004</ele>
        <time>2020-06-24T08:06:02.124Z</time>
      </trkpt>
      <trkpt lat="48.40748" lon="7.28601">
        <ele>1004</ele>
        <time>2020-06-24T08:06:03.124Z</time>
      </trkpt>
      <trkpt lat="48.40748" lon="7.28599">
        <ele>1004</ele>
        <time>2020-06-24T08:06:04.124Z</time>
      </trkpt>
      <trkpt lat="48.40748" lon="7.28597">
        <ele>1004</ele>
        <time>2020-06-24T08:06:05.125Z</time>
      </trkpt>
      <trkpt lat="48.40748" lon="7.28596">
        <ele>1004</ele>
        <time>2020-06-24T08:06:06.125Z</time>
      </trkpt>
      <trkpt lat="48.40748" lon="7.28594">
        <ele>1004</ele>
        <time>2020-06-24T08:06:07.124Z</time>
      </trkpt>
      <trkpt lat="48.40748" lon="7.28592">
        <ele>1004</ele>
        <time>2020-06-24T08:06:08.125Z</time>
      </trkpt>
      <trkpt lat="48.40747" lon="7.2859">
        <ele>1005</ele>
        <time>2020-06-24T08:06:09.124Z</time>
      </trkpt>
      <trkpt lat="48.40747" lon="7.28588">
        <ele>1005</ele>
        <time>2020-06-24T08:06:10.124Z</time>
      </trkpt>
      <trkpt lat="48.40747" lon="7.28586">
        <ele>1005</ele>
        <time>2020-06-24T08:06:11.125Z</time>
      </trkpt>
      <trkpt lat="48.40747" lon="7.28584">
        <ele>1005</ele>
        <time>2020-06-24T08:06:12.125Z</time>
      </trkpt>
      <trkpt lat="48.40747" lon="7.28582">
        <ele>1005</ele>
        <time>2020-06-24T08:06:13.124Z</time>
      </trkpt>
      <trkpt lat="48.40747" lon="7.2858">
        <ele>1005</ele>
        <time>2020-06-24T08:06:14.125Z</time>
      </trkpt>
      <trkpt lat="48.40747" lon="7.28578">
        <ele>1004</ele>
        <time>2020-06-24T08:06:15.124Z</time>
      </trkpt>
      <trkpt lat="48.40746" lon="7.28575">
        <ele>1004</ele>
        <time>2020-06-24T08:06:16.125Z</time>
      </trkpt>
      <trkpt lat="48.40747" lon="7.28573">
        <ele>1004</ele>
        <time>2020-06-24T08:06:17.125Z</time>
      </trkpt>
      <trkpt lat="48.40747" lon="7.2857">
        <ele>1003</ele>
        <time>2020-06-24T08:06:18.124Z</time>
      </trkpt>
      <trkpt lat="48.40747" lon="7.28568">
        <ele>1003</ele>
        <time>2020-06-24T08:06:19.124Z</time>
      </trkpt>
      <trkpt lat="48.40747" lon="7.28565">
        <ele>1003</ele>
        <time>2020-06-24T08:06:20.125Z</time>
      </trkpt>
      <trkpt lat="48.40747" lon="7.28563">
        <ele>1003</ele>
        <time>2020-06-24T08:06:21.124Z</time>
      </trkpt>
      <trkpt lat="48.40747" lon="7.28561">
        <ele>1003</ele>
        <time>2020-06-24T08:06:22.125Z</time>
      </trkpt>
      <trkpt lat="48.40747" lon="7.28558">
        <ele>1003</ele>
        <time>2020-06-24T08:06:23.124Z</time>
      </trkpt>
      <trkpt lat="48.40747" lon="7.28555">
        <ele>1003</ele>
        <time>2020-06-24T08:06:24.124Z</time>
      </trkpt>
      <trkpt lat="48.40748" lon="7.28552">
        <ele>1004</ele>
        <time>2020-06-24T08:06:25.125Z</time>
      </trkpt>
      <trkpt lat="48.40748" lon="7.2855">
        <ele>1004</ele>
        <time>2020-06-24T08:06:26.124Z</time>
      </trkpt>
      <trkpt lat="48.40749" lon="7.28548">
        <ele>1004</ele>
        <time>2020-06-24T08:06:27.124Z</time>
      </trkpt>
      <trkpt lat="48.4075" lon="7.28546">
        <ele>1004</ele>
        <time>2020-06-24T08:06:28.124Z</time>
      </trkpt>
      <trkpt lat="48.40751" lon="7.28542">
        <ele>1004</ele>
        <time>2020-06-24T08:06:29.125Z</time>
      </trkpt>
      <trkpt lat="48.40752" lon="7.28539">
        <ele>1004</ele>
        <time>2020-06-24T08:06:30.124Z</time>
      </trkpt>
      <trkpt lat="48.40752" lon="7.28537">
        <ele>1004</ele>
        <time>2020-06-24T08:06:31.125Z</time>
      </trkpt>
      <trkpt lat="48.40751" lon="7.28535">
        <ele>1003</ele>
        <time>2020-06-24T08:06:32.124Z</time>
      </trkpt>
      <trkpt lat="48.40751" lon="7.28532">
        <ele>1003</ele>
        <time>2020-06-24T08:06:33.124Z</time>
      </trkpt>
      <trkpt lat="48.40751" lon="7.28531">
        <ele>1003</ele>
        <time>2020-06-24T08:06:34.125Z</time>
      </trkpt>
      <trkpt lat="48.40751" lon="7.28529">
        <ele>1003</ele>
        <time>2020-06-24T08:06:35.124Z</time>
      </trkpt>
      <trkpt lat="48.40751" lon="7.28527">
        <ele>1004</ele>
        <time>2020-06-24T08:06:36.125Z</time>
      </trkpt>
      <trkpt lat="48.40751" lon="7.28525">
        <ele>1004</ele>
        <time>2020-06-24T08:06:37.125Z</time>
      </trkpt>
      <trkpt lat="48.40751" lon="7.28523">
        <ele>1005</ele>
        <time>2020-06-24T08:06:38.124Z</time>
      </trkpt>
      <trkpt lat="48.40751" lon="7.28521">
        <ele>1005</ele>
        <time>2020-06-24T08:06:39.124Z</time>
      </trkpt>
      <trkpt lat="48.40751" lon="7.28518">
        <ele>1005</ele>
        <time>2020-06-24T08:06:40.124Z</time>
      </trkpt>
      <trkpt lat="48.40751" lon="7.28516">
        <ele>1005</ele>
        <time>2020-06-24T08:06:41.125Z</time>
      </trkpt>
      <trkpt lat="48.40751" lon="7.28514">
        <ele>1004</ele>
        <time>2020-06-24T08:06:42.125Z</time>
      </trkpt>
      <trkpt lat="48.40752" lon="7.28512">
        <ele>1004</ele>
        <time>2020-06-24T08:06:43.124Z</time>
      </trkpt>
      <trkpt lat="48.40752" lon="7.2851">
        <ele>1004</ele>
        <time>2020-06-24T08:06:44.125Z</time>
      </trkpt>
      <trkpt lat="48.40752" lon="7.28508">
        <ele>1004</ele>
        <time>2020-06-24T08:06:45.125Z</time>
      </trkpt>
      <trkpt lat="48.40752" lon="7.28506">
        <ele>1004</ele>
        <time>2020-06-24T08:06:46.125Z</time>
      </trkpt>
      <trkpt lat="48.40752" lon="7.28504">
        <ele>1004</ele>
        <time>2020-06-24T08:06:47.125Z</time>
      </trkpt>
      <trkpt lat="48.40752" lon="7.28502">
        <ele>1004</ele>
        <time>2020-06-24T08:06:48.125Z</time>
      </trkpt>
      <trkpt lat="48.40753" lon="7.285">
        <ele>1004</ele>
        <time>2020-06-24T08:06:49.124Z</time>
      </trkpt>
      <trkpt lat="48.40753" lon="7.28498">
        <ele>1005</ele>
        <time>2020-06-24T08:06:50.124Z</time>
      </trkpt>
      <trkpt lat="48.40753" lon="7.28495">
        <ele>1005</ele>
        <time>2020-06-24T08:06:51.125Z</time>
      </trkpt>
      <trkpt lat="48.40753" lon="7.28493">
        <ele>1005</ele>
        <time>2020-06-24T08:06:52.125Z</time>
      </trkpt>
      <trkpt lat="48.40751" lon="7.28491">
        <ele>1005</ele>
        <time>2020-06-24T08:06:53.125Z</time>
      </trkpt>
      <trkpt lat="48.40751" lon="7.28489">
        <ele>1005</ele>
        <time>2020-06-24T08:06:54.125Z</time>
      </trkpt>
      <trkpt lat="48.40752" lon="7.28487">
        <ele>1004</ele>
        <time>2020-06-24T08:06:55.125Z</time>
      </trkpt>
      <trkpt lat="48.40751" lon="7.28485">
        <ele>1004</ele>
        <time>2020-06-24T08:06:56.125Z</time>
      </trkpt>
      <trkpt lat="48.4075" lon="7.28482">
        <ele>1005</ele>
        <time>2020-06-24T08:06:57.125Z</time>
      </trkpt>
      <trkpt lat="48.40751" lon="7.28479">
        <ele>1005</ele>
        <time>2020-06-24T08:06:58.124Z</time>
      </trkpt>
      <trkpt lat="48.4075" lon="7.28477">
        <ele>1006</ele>
        <time>2020-06-24T08:06:59.125Z</time>
      </trkpt>
      <trkpt lat="48.4075" lon="7.28475">
        <ele>1006</ele>
        <time>2020-06-24T08:07:00.124Z</time>
      </trkpt>
      <trkpt lat="48.4075" lon="7.28473">
        <ele>1007</ele>
        <time>2020-06-24T08:07:01.125Z</time>
      </trkpt>
      <trkpt lat="48.4075" lon="7.2847">
        <ele>1007</ele>
        <time>2020-06-24T08:07:02.125Z</time>
      </trkpt>
      <trkpt lat="48.4075" lon="7.28469">
        <ele>1008</ele>
        <time>2020-06-24T08:07:03.125Z</time>
      </trkpt>
      <trkpt lat="48.4075" lon="7.28467">
        <ele>1008</ele>
        <time>2020-06-24T08:07:04.124Z</time>
      </trkpt>
      <trkpt lat="48.4075" lon="7.28465">
        <ele>1009</ele>
        <time>2020-06-24T08:07:05.125Z</time>
      </trkpt>
      <trkpt lat="48.40751" lon="7.28462">
        <ele>1009</ele>
        <time>2020-06-24T08:07:06.124Z</time>
      </trkpt>
      <trkpt lat="48.40751" lon="7.2846">
        <ele>1009</ele>
        <time>2020-06-24T08:07:07.125Z</time>
      </trkpt>
      <trkpt lat="48.40751" lon="7.28459">
        <ele>1009</ele>
        <time>2020-06-24T08:07:08.125Z</time>
      </trkpt>
      <trkpt lat="48.40751" lon="7.28457">
        <ele>1010</ele>
        <time>2020-06-24T08:07:09.125Z</time>
      </trkpt>
      <trkpt lat="48.4075" lon="7.28455">
        <ele>1010</ele>
        <time>2020-06-24T08:07:10.125Z</time>
      </trkpt>
      <trkpt lat="48.4075" lon="7.28453">
        <ele>1010</ele>
        <time>2020-06-24T08:07:11.125Z</time>
      </trkpt>
      <trkpt lat="48.4075" lon="7.28451">
        <ele>1011</ele>
        <time>2020-06-24T08:07:12.125Z</time>
      </trkpt>
      <trkpt lat="48.4075" lon="7.28449">
        <ele>1011</ele>
        <time>2020-06-24T08:07:13.125Z</time>
      </trkpt>
      <trkpt lat="48.4075" lon="7.28446">
        <ele>1011</ele>
        <time>2020-06-24T08:07:14.125Z</time>
      </trkpt>
      <trkpt lat="48.4075" lon="7.28444">
        <ele>1012</ele>
        <time>2020-06-24T08:07:15.124Z</time>
      </trkpt>
      <trkpt lat="48.4075" lon="7.28442">
        <ele>1012</ele>
        <time>2020-06-24T08:07:16.125Z</time>
      </trkpt>
      <trkpt lat="48.40749" lon="7.28439">
        <ele>1012</ele>
        <time>2020-06-24T08:07:17.125Z</time>
      </trkpt>
      <trkpt lat="48.40749" lon="7.28437">
        <ele>1012</ele>
        <time>2020-06-24T08:07:18.124Z</time>
      </trkpt>
      <trkpt lat="48.40749" lon="7.28435">
        <ele>1012</ele>
        <time>2020-06-24T08:07:19.124Z</time>
      </trkpt>
      <trkpt lat="48.40748" lon="7.28433">
        <ele>1013</ele>
        <time>2020-06-24T08:07:20.124Z</time>
      </trkpt>
      <trkpt lat="48.40749" lon="7.2843">
        <ele>1013</ele>
        <time>2020-06-24T08:07:21.125Z</time>
      </trkpt>
      <trkpt lat="48.4075" lon="7.28427">
        <ele>1013</ele>
        <time>2020-06-24T08:07:22.125Z</time>
      </trkpt>
      <trkpt lat="48.40751" lon="7.28424">
        <ele>1013</ele>
        <time>2020-06-24T08:07:23.125Z</time>
      </trkpt>
      <trkpt lat="48.40751" lon="7.28422">
        <ele>1013</ele>
        <time>2020-06-24T08:07:24.124Z</time>
      </trkpt>
      <trkpt lat="48.40751" lon="7.28421">
        <ele>1013</ele>
        <time>2020-06-24T08:07:25.124Z</time>
      </trkpt>
      <trkpt lat="48.40752" lon="7.28419">
        <ele>1013</ele>
        <time>2020-06-24T08:07:26.124Z</time>
      </trkpt>
      <trkpt lat="48.40752" lon="7.28417">
        <ele>1013</ele>
        <time>2020-06-24T08:07:27.125Z</time>
      </trkpt>
      <trkpt lat="48.40753" lon="7.28415">
        <ele>1013</ele>
        <time>2020-06-24T08:07:28.124Z</time>
      </trkpt>
      <trkpt lat="48.40753" lon="7.28413">
        <ele>1013</ele>
        <time>2020-06-24T08:07:29.124Z</time>
      </trkpt>
      <trkpt lat="48.40754" lon="7.28411">
        <ele>1013</ele>
        <time>2020-06-24T08:07:30.124Z</time>
      </trkpt>
      <trkpt lat="48.40753" lon="7.2841">
        <ele>1012</ele>
        <time>2020-06-24T08:07:31.124Z</time>
      </trkpt>
      <trkpt lat="48.40753" lon="7.28409">
        <ele>1013</ele>
        <time>2020-06-24T08:07:32.125Z</time>
      </trkpt>
      <trkpt lat="48.40752" lon="7.28408">
        <ele>1012</ele>
        <time>2020-06-24T08:07:33.125Z</time>
      </trkpt>
      <trkpt lat="48.40752" lon="7.28408">
        <ele>1013</ele>
        <time>2020-06-24T08:07:34.124Z</time>
      </trkpt>
      <trkpt lat="48.40752" lon="7.28407">
        <ele>1013</ele>
        <time>2020-06-24T08:07:35.125Z</time>
      </trkpt>
      <trkpt lat="48.40753" lon="7.28406">
        <ele>1013</ele>
        <time>2020-06-24T08:07:36.124Z</time>
      </trkpt>
      <trkpt lat="48.40751" lon="7.28406">
        <ele>1013</ele>
        <time>2020-06-24T08:07:37.125Z</time>
      </trkpt>
      <trkpt lat="48.40751" lon="7.28405">
        <ele>1013</ele>
        <time>2020-06-24T08:07:38.124Z</time>
      </trkpt>
      <trkpt lat="48.4075" lon="7.28404">
        <ele>1013</ele>
        <time>2020-06-24T08:07:39.125Z</time>
      </trkpt>
      <trkpt lat="48.4075" lon="7.28402">
        <ele>1013</ele>
        <time>2020-06-24T08:07:40.125Z</time>
      </trkpt>
      <trkpt lat="48.40749" lon="7.28399">
        <ele>1013</ele>
        <time>2020-06-24T08:07:41.125Z</time>
      </trkpt>
      <trkpt lat="48.40749" lon="7.28398">
        <ele>1013</ele>
        <time>2020-06-24T08:07:42.124Z</time>
      </trkpt>
      <trkpt lat="48.40748" lon="7.28396">
        <ele>1014</ele>
        <time>2020-06-24T08:07:43.125Z</time>
      </trkpt>
      <trkpt lat="48.40748" lon="7.28394">
        <ele>1014</ele>
        <time>2020-06-24T08:07:44.124Z</time>
      </trkpt>
      <trkpt lat="48.40747" lon="7.28393">
        <ele>1014</ele>
        <time>2020-06-24T08:07:45.125Z</time>
      </trkpt>
      <trkpt lat="48.40747" lon="7.28391">
        <ele>1015</ele>
        <time>2020-06-24T08:07:46.125Z</time>
      </trkpt>
      <trkpt lat="48.40746" lon="7.2839">
        <ele>1015</ele>
        <time>2020-06-24T08:07:47.124Z</time>
      </trkpt>
      <trkpt lat="48.40746" lon="7.28388">
        <ele>1015</ele>
        <time>2020-06-24T08:07:48.124Z</time>
      </trkpt>
      <trkpt lat="48.40745" lon="7.28387">
        <ele>1015</ele>
        <time>2020-06-24T08:07:49.125Z</time>
      </trkpt>
      <trkpt lat="48.40745" lon="7.28386">
        <ele>1016</ele>
        <time>2020-06-24T08:07:50.125Z</time>
      </trkpt>
      <trkpt lat="48.40745" lon="7.28384">
        <ele>1016</ele>
        <time>2020-06-24T08:07:51.125Z</time>
      </trkpt>
      <trkpt lat="48.40744" lon="7.28383">
        <ele>1016</ele>
        <time>2020-06-24T08:07:52.125Z</time>
      </trkpt>
      <trkpt lat="48.40744" lon="7.28381">
        <ele>1016</ele>
        <time>2020-06-24T08:07:53.125Z</time>
      </trkpt>
      <trkpt lat="48.40743" lon="7.2838">
        <ele>1016</ele>
        <time>2020-06-24T08:07:54.124Z</time>
      </trkpt>
      <trkpt lat="48.40741" lon="7.28378">
        <ele>1016</ele>
        <time>2020-06-24T08:07:55.125Z</time>
      </trkpt>
      <trkpt lat="48.4074" lon="7.28377">
        <ele>1016</ele>
        <time>2020-06-24T08:07:56.124Z</time>
      </trkpt>
      <trkpt lat="48.4074" lon="7.28375">
        <ele>1016</ele>
        <time>2020-06-24T08:07:57.125Z</time>
      </trkpt>
      <trkpt lat="48.4074" lon="7.28374">
        <ele>1017</ele>
        <time>2020-06-24T08:07:58.125Z</time>
      </trkpt>
      <trkpt lat="48.40739" lon="7.28373">
        <ele>1017</ele>
        <time>2020-06-24T08:07:59.125Z</time>
      </trkpt>
      <trkpt lat="48.40738" lon="7.28372">
        <ele>1017</ele>
        <time>2020-06-24T08:08:00.125Z</time>
      </trkpt>
      <trkpt lat="48.40736" lon="7.28372">
        <ele>1017</ele>
        <time>2020-06-24T08:08:01.125Z</time>
      </trkpt>
      <trkpt lat="48.40735" lon="7.28371">
        <ele>1017</ele>
        <time>2020-06-24T08:08:02.125Z</time>
      </trkpt>
      <trkpt lat="48.40734" lon="7.28371">
        <ele>1017</ele>
        <time>2020-06-24T08:08:03.125Z</time>
      </trkpt>
      <trkpt lat="48.40734" lon="7.2837">
        <ele>1017</ele>
        <time>2020-06-24T08:08:04.124Z</time>
      </trkpt>
      <trkpt lat="48.40733" lon="7.28369">
        <ele>1017</ele>
        <time>2020-06-24T08:08:05.125Z</time>
      </trkpt>
      <trkpt lat="48.40732" lon="7.28367">
        <ele>1017</ele>
        <time>2020-06-24T08:08:06.125Z</time>
      </trkpt>
      <trkpt lat="48.40731" lon="7.28365">
        <ele>1017</ele>
        <time>2020-06-24T08:08:07.125Z</time>
      </trkpt>
      <trkpt lat="48.40731" lon="7.28363">
        <ele>1017</ele>
        <time>2020-06-24T08:08:08.124Z</time>
      </trkpt>
      <trkpt lat="48.40729" lon="7.28362">
        <ele>1017</ele>
        <time>2020-06-24T08:08:09.124Z</time>
      </trkpt>
      <trkpt lat="48.40727" lon="7.28361">
        <ele>1017</ele>
        <time>2020-06-24T08:08:10.125Z</time>
      </trkpt>
      <trkpt lat="48.40726" lon="7.2836">
        <ele>1017</ele>
        <time>2020-06-24T08:08:11.125Z</time>
      </trkpt>
      <trkpt lat="48.40724" lon="7.28359">
        <ele>1017</ele>
        <time>2020-06-24T08:08:12.125Z</time>
      </trkpt>
      <trkpt lat="48.40723" lon="7.28358">
        <ele>1017</ele>
        <time>2020-06-24T08:08:13.125Z</time>
      </trkpt>
      <trkpt lat="48.40721" lon="7.28357">
        <ele>1017</ele>
        <time>2020-06-24T08:08:14.125Z</time>
      </trkpt>
      <trkpt lat="48.40721" lon="7.28356">
        <ele>1017</ele>
        <time>2020-06-24T08:08:15.125Z</time>
      </trkpt>
      <trkpt lat="48.4072" lon="7.28355">
        <ele>1016</ele>
        <time>2020-06-24T08:08:16.125Z</time>
      </trkpt>
      <trkpt lat="48.40719" lon="7.28354">
        <ele>1016</ele>
        <time>2020-06-24T08:08:17.125Z</time>
      </trkpt>
      <trkpt lat="48.40718" lon="7.28353">
        <ele>1016</ele>
        <time>2020-06-24T08:08:18.125Z</time>
      </trkpt>
      <trkpt lat="48.40717" lon="7.28352">
        <ele>1015</ele>
        <time>2020-06-24T08:08:19.125Z</time>
      </trkpt>
      <trkpt lat="48.40717" lon="7.28352">
        <ele>1015</ele>
        <time>2020-06-24T08:08:20.125Z</time>
      </trkpt>
      <trkpt lat="48.40716" lon="7.28351">
        <ele>1015</ele>
        <time>2020-06-24T08:08:21.124Z</time>
      </trkpt>
      <trkpt lat="48.40716" lon="7.2835">
        <ele>1014</ele>
        <time>2020-06-24T08:08:22.124Z</time>
      </trkpt>
      <trkpt lat="48.40715" lon="7.28349">
        <ele>1014</ele>
        <time>2020-06-24T08:08:23.124Z</time>
      </trkpt>
      <trkpt lat="48.40714" lon="7.28348">
        <ele>1014</ele>
        <time>2020-06-24T08:08:24.125Z</time>
      </trkpt>
      <trkpt lat="48.40713" lon="7.28348">
        <ele>1013</ele>
        <time>2020-06-24T08:08:25.125Z</time>
      </trkpt>
      <trkpt lat="48.40713" lon="7.28347">
        <ele>1013</ele>
        <time>2020-06-24T08:08:26.125Z</time>
      </trkpt>
      <trkpt lat="48.40712" lon="7.28347">
        <ele>1013</ele>
        <time>2020-06-24T08:08:27.125Z</time>
      </trkpt>
      <trkpt lat="48.40711" lon="7.28346">
        <ele>1013</ele>
        <time>2020-06-24T08:08:28.125Z</time>
      </trkpt>
      <trkpt lat="48.40709" lon="7.28345">
        <ele>1012</ele>
        <time>2020-06-24T08:08:29.125Z</time>
      </trkpt>
      <trkpt lat="48.40708" lon="7.28344">
        <ele>1012</ele>
        <time>2020-06-24T08:08:30.125Z</time>
      </trkpt>
      <trkpt lat="48.40706" lon="7.28344">
        <ele>1012</ele>
        <time>2020-06-24T08:08:31.125Z</time>
      </trkpt>
      <trkpt lat="48.40705" lon="7.28343">
        <ele>1012</ele>
        <time>2020-06-24T08:08:32.125Z</time>
      </trkpt>
      <trkpt lat="48.40703" lon="7.28342">
        <ele>1012</ele>
        <time>2020-06-24T08:08:33.125Z</time>
      </trkpt>
      <trkpt lat="48.40703" lon="7.28341">
        <ele>1012</ele>
        <time>2020-06-24T08:08:34.124Z</time>
      </trkpt>
      <trkpt lat="48.40702" lon="7.2834">
        <ele>1012</ele>
        <time>2020-06-24T08:08:35.125Z</time>
      </trkpt>
      <trkpt lat="48.40702" lon="7.28339">
        <ele>1012</ele>
        <time>2020-06-24T08:08:36.125Z</time>
      </trkpt>
      <trkpt lat="48.40701" lon="7.28339">
        <ele>1011</ele>
        <time>2020-06-24T08:08:37.124Z</time>
      </trkpt>
      <trkpt lat="48.407" lon="7.28338">
        <ele>1010</ele>
        <time>2020-06-24T08:08:38.124Z</time>
      </trkpt>
      <trkpt lat="48.407" lon="7.28338">
        <ele>1010</ele>
        <time>2020-06-24T08:08:39.125Z</time>
      </trkpt>
      <trkpt lat="48.40699" lon="7.28337">
        <ele>1010</ele>
        <time>2020-06-24T08:08:40.124Z</time>
      </trkpt>
      <trkpt lat="48.40699" lon="7.28337">
        <ele>1010</ele>
        <time>2020-06-24T08:08:41.125Z</time>
      </trkpt>
      <trkpt lat="48.40697" lon="7.28336">
        <ele>1009</ele>
        <time>2020-06-24T08:08:42.125Z</time>
      </trkpt>
      <trkpt lat="48.40696" lon="7.28335">
        <ele>1009</ele>
        <time>2020-06-24T08:08:43.125Z</time>
      </trkpt>
      <trkpt lat="48.40695" lon="7.28334">
        <ele>1009</ele>
        <time>2020-06-24T08:08:44.125Z</time>
      </trkpt>
      <trkpt lat="48.40694" lon="7.28333">
        <ele>1009</ele>
        <time>2020-06-24T08:08:45.125Z</time>
      </trkpt>
      <trkpt lat="48.40693" lon="7.28332">
        <ele>1009</ele>
        <time>2020-06-24T08:08:46.125Z</time>
      </trkpt>
      <trkpt lat="48.40692" lon="7.28331">
        <ele>1009</ele>
        <time>2020-06-24T08:08:47.125Z</time>
      </trkpt>
      <trkpt lat="48.4069" lon="7.2833">
        <ele>1009</ele>
        <time>2020-06-24T08:08:48.125Z</time>
      </trkpt>
      <trkpt lat="48.40689" lon="7.2833">
        <ele>1009</ele>
        <time>2020-06-24T08:08:49.125Z</time>
      </trkpt>
      <trkpt lat="48.40687" lon="7.28329">
        <ele>1009</ele>
        <time>2020-06-24T08:08:50.125Z</time>
      </trkpt>
      <trkpt lat="48.40686" lon="7.28327">
        <ele>1009</ele>
        <time>2020-06-24T08:08:51.125Z</time>
      </trkpt>
      <trkpt lat="48.40685" lon="7.28323">
        <ele>1009</ele>
        <time>2020-06-24T08:08:52.124Z</time>
      </trkpt>
      <trkpt lat="48.40684" lon="7.2832">
        <ele>1008</ele>
        <time>2020-06-24T08:08:53.125Z</time>
      </trkpt>
      <trkpt lat="48.40677" lon="7.28305">
        <ele>1008</ele>
        <time>2020-06-24T08:08:54.125Z</time>
      </trkpt>
      <trkpt lat="48.40679" lon="7.28305">
        <ele>1008</ele>
        <time>2020-06-24T08:08:55.125Z</time>
      </trkpt>
      <trkpt lat="48.4068" lon="7.28305">
        <ele>1009</ele>
        <time>2020-06-24T08:08:56.126Z</time>
      </trkpt>
      <trkpt lat="48.40681" lon="7.28305">
        <ele>1009</ele>
        <time>2020-06-24T08:08:57.125Z</time>
      </trkpt>
      <trkpt lat="48.40682" lon="7.28306">
        <ele>1009</ele>
        <time>2020-06-24T08:08:58.125Z</time>
      </trkpt>
      <trkpt lat="48.40682" lon="7.28307">
        <ele>1009</ele>
        <time>2020-06-24T08:08:59.125Z</time>
      </trkpt>
      <trkpt lat="48.40684" lon="7.28308">
        <ele>1010</ele>
        <time>2020-06-24T08:09:00.126Z</time>
      </trkpt>
      <trkpt lat="48.40684" lon="7.28309">
        <ele>1010</ele>
        <time>2020-06-24T08:09:01.125Z</time>
      </trkpt>
      <trkpt lat="48.40685" lon="7.28309">
        <ele>1010</ele>
        <time>2020-06-24T08:09:02.126Z</time>
      </trkpt>
      <trkpt lat="48.40686" lon="7.28309">
        <ele>1011</ele>
        <time>2020-06-24T08:09:03.126Z</time>
      </trkpt>
      <trkpt lat="48.40687" lon="7.28309">
        <ele>1011</ele>
        <time>2020-06-24T08:09:04.125Z</time>
      </trkpt>
      <trkpt lat="48.40689" lon="7.2831">
        <ele>1012</ele>
        <time>2020-06-24T08:09:05.126Z</time>
      </trkpt>
      <trkpt lat="48.4069" lon="7.28311">
        <ele>1012</ele>
        <time>2020-06-24T08:09:06.125Z</time>
      </trkpt>
      <trkpt lat="48.40692" lon="7.28312">
        <ele>1013</ele>
        <time>2020-06-24T08:09:07.125Z</time>
      </trkpt>
      <trkpt lat="48.40693" lon="7.28312">
        <ele>1013</ele>
        <time>2020-06-24T08:09:08.125Z</time>
      </trkpt>
      <trkpt lat="48.40694" lon="7.28314">
        <ele>1013</ele>
        <time>2020-06-24T08:09:09.125Z</time>
      </trkpt>
      <trkpt lat="48.40695" lon="7.28315">
        <ele>1013</ele>
        <time>2020-06-24T08:09:10.125Z</time>
      </trkpt>
      <trkpt lat="48.40697" lon="7.28317">
        <ele>1013</ele>
        <time>2020-06-24T08:09:11.125Z</time>
      </trkpt>
      <trkpt lat="48.40698" lon="7.28319">
        <ele>1013</ele>
        <time>2020-06-24T08:09:12.125Z</time>
      </trkpt>
      <trkpt lat="48.40699" lon="7.28321">
        <ele>1013</ele>
        <time>2020-06-24T08:09:13.125Z</time>
      </trkpt>
      <trkpt lat="48.40699" lon="7.28322">
        <ele>1013</ele>
        <time>2020-06-24T08:09:14.125Z</time>
      </trkpt>
      <trkpt lat="48.407" lon="7.28322">
        <ele>1013</ele>
        <time>2020-06-24T08:09:15.125Z</time>
      </trkpt>
      <trkpt lat="48.407" lon="7.28322">
        <ele>1013</ele>
        <time>2020-06-24T08:09:16.126Z</time>
      </trkpt>
      <trkpt lat="48.40701" lon="7.28322">
        <ele>1012</ele>
        <time>2020-06-24T08:09:17.126Z</time>
      </trkpt>
      <trkpt lat="48.40701" lon="7.28323">
        <ele>1012</ele>
        <time>2020-06-24T08:09:18.125Z</time>
      </trkpt>
      <trkpt lat="48.40703" lon="7.28325">
        <ele>1012</ele>
        <time>2020-06-24T08:09:19.125Z</time>
      </trkpt>
      <trkpt lat="48.40704" lon="7.28326">
        <ele>1012</ele>
        <time>2020-06-24T08:09:20.125Z</time>
      </trkpt>
      <trkpt lat="48.40705" lon="7.28327">
        <ele>1012</ele>
        <time>2020-06-24T08:09:21.126Z</time>
      </trkpt>
      <trkpt lat="48.40706" lon="7.28327">
        <ele>1011</ele>
        <time>2020-06-24T08:09:22.125Z</time>
      </trkpt>
      <trkpt lat="48.40706" lon="7.28328">
        <ele>1011</ele>
        <time>2020-06-24T08:09:23.125Z</time>
      </trkpt>
      <trkpt lat="48.40707" lon="7.28328">
        <ele>1010</ele>
        <time>2020-06-24T08:09:24.126Z</time>
      </trkpt>
      <trkpt lat="48.40708" lon="7.28328">
        <ele>1010</ele>
        <time>2020-06-24T08:09:25.126Z</time>
      </trkpt>
      <trkpt lat="48.40709" lon="7.28329">
        <ele>1009</ele>
        <time>2020-06-24T08:09:26.125Z</time>
      </trkpt>
      <trkpt lat="48.4071" lon="7.2833">
        <ele>1009</ele>
        <time>2020-06-24T08:09:27.125Z</time>
      </trkpt>
      <trkpt lat="48.40711" lon="7.28331">
        <ele>1008</ele>
        <time>2020-06-24T08:09:28.125Z</time>
      </trkpt>
      <trkpt lat="48.40712" lon="7.28331">
        <ele>1008</ele>
        <time>2020-06-24T08:09:29.126Z</time>
      </trkpt>
      <trkpt lat="48.40713" lon="7.28332">
        <ele>1007</ele>
        <time>2020-06-24T08:09:30.126Z</time>
      </trkpt>
      <trkpt lat="48.40715" lon="7.28333">
        <ele>1007</ele>
        <time>2020-06-24T08:09:31.126Z</time>
      </trkpt>
      <trkpt lat="48.40717" lon="7.28334">
        <ele>1007</ele>
        <time>2020-06-24T08:09:32.125Z</time>
      </trkpt>
      <trkpt lat="48.4072" lon="7.28336">
        <ele>1007</ele>
        <time>2020-06-24T08:09:33.125Z</time>
      </trkpt>
      <trkpt lat="48.40723" lon="7.28337">
        <ele>1007</ele>
        <time>2020-06-24T08:09:34.125Z</time>
      </trkpt>
      <trkpt lat="48.40724" lon="7.28339">
        <ele>1008</ele>
        <time>2020-06-24T08:09:35.125Z</time>
      </trkpt>
      <trkpt lat="48.40725" lon="7.2834">
        <ele>1008</ele>
        <time>2020-06-24T08:09:36.125Z</time>
      </trkpt>
      <trkpt lat="48.40725" lon="7.2834">
        <ele>1009</ele>
        <time>2020-06-24T08:09:37.126Z</time>
      </trkpt>
      <trkpt lat="48.40725" lon="7.28341">
        <ele>1009</ele>
        <time>2020-06-24T08:09:38.125Z</time>
      </trkpt>
      <trkpt lat="48.40726" lon="7.28341">
        <ele>1009</ele>
        <time>2020-06-24T08:09:39.125Z</time>
      </trkpt>
      <trkpt lat="48.40727" lon="7.28342">
        <ele>1009</ele>
        <time>2020-06-24T08:09:40.126Z</time>
      </trkpt>
      <trkpt lat="48.40728" lon="7.28343">
        <ele>1009</ele>
        <time>2020-06-24T08:09:41.126Z</time>
      </trkpt>
      <trkpt lat="48.40729" lon="7.28343">
        <ele>1009</ele>
        <time>2020-06-24T08:09:42.125Z</time>
      </trkpt>
      <trkpt lat="48.40729" lon="7.28344">
        <ele>1008</ele>
        <time>2020-06-24T08:09:43.125Z</time>
      </trkpt>
      <trkpt lat="48.4073" lon="7.28345">
        <ele>1007</ele>
        <time>2020-06-24T08:09:44.125Z</time>
      </trkpt>
      <trkpt lat="48.4073" lon="7.28346">
        <ele>1007</ele>
        <time>2020-06-24T08:09:45.126Z</time>
      </trkpt>
      <trkpt lat="48.4073" lon="7.28347">
        <ele>1007</ele>
        <time>2020-06-24T08:09:46.126Z</time>
      </trkpt>
      <trkpt lat="48.40731" lon="7.28347">
        <ele>1007</ele>
        <time>2020-06-24T08:09:47.125Z</time>
      </trkpt>
      <trkpt lat="48.40731" lon="7.28348">
        <ele>1007</ele>
        <time>2020-06-24T08:09:48.126Z</time>
      </trkpt>
      <trkpt lat="48.40732" lon="7.2835">
        <ele>1008</ele>
        <time>2020-06-24T08:09:49.125Z</time>
      </trkpt>
      <trkpt lat="48.40732" lon="7.28351">
        <ele>1009</ele>
        <time>2020-06-24T08:09:50.125Z</time>
      </trkpt>
      <trkpt lat="48.40733" lon="7.28352">
        <ele>1010</ele>
        <time>2020-06-24T08:09:51.125Z</time>
      </trkpt>
      <trkpt lat="48.40734" lon="7.28354">
        <ele>1010</ele>
        <time>2020-06-24T08:09:52.125Z</time>
      </trkpt>
      <trkpt lat="48.40734" lon="7.28355">
        <ele>1010</ele>
        <time>2020-06-24T08:09:53.126Z</time>
      </trkpt>
      <trkpt lat="48.40734" lon="7.28356">
        <ele>1010</ele>
        <time>2020-06-24T08:09:54.125Z</time>
      </trkpt>
      <trkpt lat="48.40735" lon="7.28358">
        <ele>1010</ele>
        <time>2020-06-24T08:09:55.125Z</time>
      </trkpt>
      <trkpt lat="48.40735" lon="7.28359">
        <ele>1010</ele>
        <time>2020-06-24T08:09:56.125Z</time>
      </trkpt>
      <trkpt lat="48.40736" lon="7.2836">
        <ele>1011</ele>
        <time>2020-06-24T08:09:57.126Z</time>
      </trkpt>
      <trkpt lat="48.40736" lon="7.28361">
        <ele>1011</ele>
        <time>2020-06-24T08:09:58.125Z</time>
      </trkpt>
      <trkpt lat="48.40737" lon="7.28362">
        <ele>1012</ele>
        <time>2020-06-24T08:09:59.125Z</time>
      </trkpt>
      <trkpt lat="48.40737" lon="7.28364">
        <ele>1012</ele>
        <time>2020-06-24T08:10:00.125Z</time>
      </trkpt>
      <trkpt lat="48.40738" lon="7.28365">
        <ele>1013</ele>
        <time>2020-06-24T08:10:01.125Z</time>
      </trkpt>
      <trkpt lat="48.40739" lon="7.28366">
        <ele>1013</ele>
        <time>2020-06-24T08:10:02.125Z</time>
      </trkpt>
      <trkpt lat="48.40739" lon="7.28367">
        <ele>1013</ele>
        <time>2020-06-24T08:10:03.125Z</time>
      </trkpt>
      <trkpt lat="48.40739" lon="7.28368">
        <ele>1013</ele>
        <time>2020-06-24T08:10:04.125Z</time>
      </trkpt>
      <trkpt lat="48.4074" lon="7.28369">
        <ele>1013</ele>
        <time>2020-06-24T08:10:05.126Z</time>
      </trkpt>
      <trkpt lat="48.4074" lon="7.2837">
        <ele>1013</ele>
        <time>2020-06-24T08:10:06.125Z</time>
      </trkpt>
      <trkpt lat="48.40741" lon="7.28371">
        <ele>1013</ele>
        <time>2020-06-24T08:10:07.125Z</time>
      </trkpt>
      <trkpt lat="48.40741" lon="7.28372">
        <ele>1013</ele>
        <time>2020-06-24T08:10:08.126Z</time>
      </trkpt>
      <trkpt lat="48.40742" lon="7.28374">
        <ele>1013</ele>
        <time>2020-06-24T08:10:09.125Z</time>
      </trkpt>
      <trkpt lat="48.40743" lon="7.28375">
        <ele>1014</ele>
        <time>2020-06-24T08:10:10.126Z</time>
      </trkpt>
      <trkpt lat="48.40744" lon="7.28377">
        <ele>1014</ele>
        <time>2020-06-24T08:10:11.125Z</time>
      </trkpt>
      <trkpt lat="48.40745" lon="7.28379">
        <ele>1015</ele>
        <time>2020-06-24T08:10:12.125Z</time>
      </trkpt>
      <trkpt lat="48.40746" lon="7.28381">
        <ele>1016</ele>
        <time>2020-06-24T08:10:13.125Z</time>
      </trkpt>
      <trkpt lat="48.40746" lon="7.28382">
        <ele>1017</ele>
        <time>2020-06-24T08:10:14.126Z</time>
      </trkpt>
      <trkpt lat="48.40747" lon="7.28384">
        <ele>1018</ele>
        <time>2020-06-24T08:10:15.125Z</time>
      </trkpt>
      <trkpt lat="48.40747" lon="7.28385">
        <ele>1018</ele>
        <time>2020-06-24T08:10:16.125Z</time>
      </trkpt>
      <trkpt lat="48.40747" lon="7.28386">
        <ele>1019</ele>
        <time>2020-06-24T08:10:17.125Z</time>
      </trkpt>
      <trkpt lat="48.40747" lon="7.28384">
        <ele>1019</ele>
        <time>2020-06-24T08:10:18.126Z</time>
      </trkpt>
      <trkpt lat="48.40754" lon="7.28391">
        <ele>1020</ele>
        <time>2020-06-24T08:10:19.126Z</time>
      </trkpt>
      <trkpt lat="48.40755" lon="7.28392">
        <ele>1020</ele>
        <time>2020-06-24T08:10:20.125Z</time>
      </trkpt>
      <trkpt lat="48.40755" lon="7.28392">
        <ele>1020</ele>
        <time>2020-06-24T08:10:21.125Z</time>
      </trkpt>
      <trkpt lat="48.40755" lon="7.28393">
        <ele>1020</ele>
        <time>2020-06-24T08:10:22.125Z</time>
      </trkpt>
      <trkpt lat="48.40754" lon="7.28394">
        <ele>1020</ele>
        <time>2020-06-24T08:10:23.125Z</time>
      </trkpt>
      <trkpt lat="48.40754" lon="7.28394">
        <ele>1020</ele>
        <time>2020-06-24T08:10:24.125Z</time>
      </trkpt>
      <trkpt lat="48.40754" lon="7.28394">
        <ele>1020</ele>
        <time>2020-06-24T08:10:25.125Z</time>
      </trkpt>
      <trkpt lat="48.40754" lon="7.28396">
        <ele>1020</ele>
        <time>2020-06-24T08:10:26.126Z</time>
      </trkpt>
      <trkpt lat="48.40754" lon="7.28396">
        <ele>1020</ele>
        <time>2020-06-24T08:10:27.125Z</time>
      </trkpt>
      <trkpt lat="48.40755" lon="7.28393">
        <ele>1019</ele>
        <time>2020-06-24T08:10:28.126Z</time>
      </trkpt>
      <trkpt lat="48.40756" lon="7.28391">
        <ele>1019</ele>
        <time>2020-06-24T08:10:29.126Z</time>
      </trkpt>
      <trkpt lat="48.40756" lon="7.2839">
        <ele>1019</ele>
        <time>2020-06-24T08:10:30.126Z</time>
      </trkpt>
      <trkpt lat="48.40757" lon="7.28387">
        <ele>1019</ele>
        <time>2020-06-24T08:10:31.126Z</time>
      </trkpt>
      <trkpt lat="48.40757" lon="7.28385">
        <ele>1019</ele>
        <time>2020-06-24T08:10:32.125Z</time>
      </trkpt>
      <trkpt lat="48.40757" lon="7.28384">
        <ele>1019</ele>
        <time>2020-06-24T08:10:33.125Z</time>
      </trkpt>
      <trkpt lat="48.40758" lon="7.28382">
        <ele>1020</ele>
        <time>2020-06-24T08:10:34.126Z</time>
      </trkpt>
      <trkpt lat="48.40759" lon="7.2838">
        <ele>1020</ele>
        <time>2020-06-24T08:10:35.126Z</time>
      </trkpt>
      <trkpt lat="48.40759" lon="7.28378">
        <ele>1020</ele>
        <time>2020-06-24T08:10:36.126Z</time>
      </trkpt>
      <trkpt lat="48.40759" lon="7.28376">
        <ele>1020</ele>
        <time>2020-06-24T08:10:37.125Z</time>
      </trkpt>
      <trkpt lat="48.40759" lon="7.28373">
        <ele>1020</ele>
        <time>2020-06-24T08:10:38.126Z</time>
      </trkpt>
      <trkpt lat="48.40758" lon="7.28371">
        <ele>1020</ele>
        <time>2020-06-24T08:10:39.126Z</time>
      </trkpt>
      <trkpt lat="48.40758" lon="7.2837">
        <ele>1020</ele>
        <time>2020-06-24T08:10:40.126Z</time>
      </trkpt>
      <trkpt lat="48.40758" lon="7.28369">
        <ele>1020</ele>
        <time>2020-06-24T08:10:41.126Z</time>
      </trkpt>
      <trkpt lat="48.40758" lon="7.28367">
        <ele>1020</ele>
        <time>2020-06-24T08:10:42.126Z</time>
      </trkpt>
      <trkpt lat="48.40758" lon="7.28366">
        <ele>1020</ele>
        <time>2020-06-24T08:10:43.126Z</time>
      </trkpt>
      <trkpt lat="48.40758" lon="7.28364">
        <ele>1020</ele>
        <time>2020-06-24T08:10:44.126Z</time>
      </trkpt>
      <trkpt lat="48.40757" lon="7.28361">
        <ele>1020</ele>
        <time>2020-06-24T08:10:45.126Z</time>
      </trkpt>
      <trkpt lat="48.40757" lon="7.28359">
        <ele>1020</ele>
        <time>2020-06-24T08:10:46.126Z</time>
      </trkpt>
      <trkpt lat="48.40756" lon="7.28357">
        <ele>1020</ele>
        <time>2020-06-24T08:10:47.125Z</time>
      </trkpt>
      <trkpt lat="48.40756" lon="7.28355">
        <ele>1020</ele>
        <time>2020-06-24T08:10:48.125Z</time>
      </trkpt>
      <trkpt lat="48.40756" lon="7.28353">
        <ele>1020</ele>
        <time>2020-06-24T08:10:49.125Z</time>
      </trkpt>
      <trkpt lat="48.40756" lon="7.28351">
        <ele>1019</ele>
        <time>2020-06-24T08:10:50.126Z</time>
      </trkpt>
      <trkpt lat="48.40756" lon="7.28349">
        <ele>1019</ele>
        <time>2020-06-24T08:10:51.125Z</time>
      </trkpt>
      <trkpt lat="48.40756" lon="7.28348">
        <ele>1019</ele>
        <time>2020-06-24T08:10:52.126Z</time>
      </trkpt>
      <trkpt lat="48.40756" lon="7.28347">
        <ele>1019</ele>
        <time>2020-06-24T08:10:53.125Z</time>
      </trkpt>
      <trkpt lat="48.40756" lon="7.28345">
        <ele>1019</ele>
        <time>2020-06-24T08:10:54.126Z</time>
      </trkpt>
      <trkpt lat="48.40756" lon="7.28342">
        <ele>1019</ele>
        <time>2020-06-24T08:10:55.126Z</time>
      </trkpt>
      <trkpt lat="48.40756" lon="7.2834">
        <ele>1019</ele>
        <time>2020-06-24T08:10:56.126Z</time>
      </trkpt>
      <trkpt lat="48.40755" lon="7.28337">
        <ele>1019</ele>
        <time>2020-06-24T08:10:57.126Z</time>
      </trkpt>
      <trkpt lat="48.40754" lon="7.28335">
        <ele>1019</ele>
        <time>2020-06-24T08:10:58.126Z</time>
      </trkpt>
      <trkpt lat="48.40753" lon="7.28332">
        <ele>1020</ele>
        <time>2020-06-24T08:10:59.126Z</time>
      </trkpt>
      <trkpt lat="48.40752" lon="7.28331">
        <ele>1020</ele>
        <time>2020-06-24T08:11:00.125Z</time>
      </trkpt>
      <trkpt lat="48.40751" lon="7.28329">
        <ele>1020</ele>
        <time>2020-06-24T08:11:01.125Z</time>
      </trkpt>
      <trkpt lat="48.40751" lon="7.28327">
        <ele>1021</ele>
        <time>2020-06-24T08:11:02.126Z</time>
      </trkpt>
      <trkpt lat="48.4075" lon="7.28325">
        <ele>1021</ele>
        <time>2020-06-24T08:11:03.125Z</time>
      </trkpt>
      <trkpt lat="48.4075" lon="7.28323">
        <ele>1021</ele>
        <time>2020-06-24T08:11:04.126Z</time>
      </trkpt>
      <trkpt lat="48.4075" lon="7.2832">
        <ele>1022</ele>
        <time>2020-06-24T08:11:05.126Z</time>
      </trkpt>
      <trkpt lat="48.40749" lon="7.28319">
        <ele>1022</ele>
        <time>2020-06-24T08:11:06.126Z</time>
      </trkpt>
      <trkpt lat="48.40749" lon="7.28316">
        <ele>1023</ele>
        <time>2020-06-24T08:11:07.126Z</time>
      </trkpt>
      <trkpt lat="48.40749" lon="7.28315">
        <ele>1023</ele>
        <time>2020-06-24T08:11:08.126Z</time>
      </trkpt>
      <trkpt lat="48.40748" lon="7.28312">
        <ele>1024</ele>
        <time>2020-06-24T08:11:09.126Z</time>
      </trkpt>
      <trkpt lat="48.40747" lon="7.28311">
        <ele>1024</ele>
        <time>2020-06-24T08:11:10.125Z</time>
      </trkpt>
      <trkpt lat="48.40747" lon="7.28309">
        <ele>1024</ele>
        <time>2020-06-24T08:11:11.126Z</time>
      </trkpt>
      <trkpt lat="48.40746" lon="7.28307">
        <ele>1024</ele>
        <time>2020-06-24T08:11:12.126Z</time>
      </trkpt>
      <trkpt lat="48.40745" lon="7.28304">
        <ele>1024</ele>
        <time>2020-06-24T08:11:13.126Z</time>
      </trkpt>
      <trkpt lat="48.40745" lon="7.28302">
        <ele>1024</ele>
        <time>2020-06-24T08:11:14.125Z</time>
      </trkpt>
      <trkpt lat="48.40745" lon="7.283">
        <ele>1024</ele>
        <time>2020-06-24T08:11:15.126Z</time>
      </trkpt>
      <trkpt lat="48.40744" lon="7.28299">
        <ele>1024</ele>
        <time>2020-06-24T08:11:16.125Z</time>
      </trkpt>
      <trkpt lat="48.40744" lon="7.28297">
        <ele>1025</ele>
        <time>2020-06-24T08:11:17.126Z</time>
      </trkpt>
      <trkpt lat="48.40744" lon="7.28295">
        <ele>1025</ele>
        <time>2020-06-24T08:11:18.126Z</time>
      </trkpt>
      <trkpt lat="48.40744" lon="7.28292">
        <ele>1025</ele>
        <time>2020-06-24T08:11:19.126Z</time>
      </trkpt>
      <trkpt lat="48.40744" lon="7.2829">
        <ele>1025</ele>
        <time>2020-06-24T08:11:20.126Z</time>
      </trkpt>
      <trkpt lat="48.40743" lon="7.28288">
        <ele>1025</ele>
        <time>2020-06-24T08:11:21.126Z</time>
      </trkpt>
      <trkpt lat="48.40743" lon="7.28286">
        <ele>1026</ele>
        <time>2020-06-24T08:11:22.126Z</time>
      </trkpt>
      <trkpt lat="48.40743" lon="7.28284">
        <ele>1026</ele>
        <time>2020-06-24T08:11:23.126Z</time>
      </trkpt>
      <trkpt lat="48.40743" lon="7.28281">
        <ele>1026</ele>
        <time>2020-06-24T08:11:24.126Z</time>
      </trkpt>
      <trkpt lat="48.40743" lon="7.28279">
        <ele>1027</ele>
        <time>2020-06-24T08:11:25.126Z</time>
      </trkpt>
      <trkpt lat="48.40743" lon="7.28277">
        <ele>1027</ele>
        <time>2020-06-24T08:11:26.125Z</time>
      </trkpt>
      <trkpt lat="48.40742" lon="7.28274">
        <ele>1027</ele>
        <time>2020-06-24T08:11:27.125Z</time>
      </trkpt>
      <trkpt lat="48.40742" lon="7.28272">
        <ele>1028</ele>
        <time>2020-06-24T08:11:28.126Z</time>
      </trkpt>
      <trkpt lat="48.40741" lon="7.28269">
        <ele>1028</ele>
        <time>2020-06-24T08:11:29.126Z</time>
      </trkpt>
      <trkpt lat="48.4074" lon="7.28268">
        <ele>1028</ele>
        <time>2020-06-24T08:11:30.126Z</time>
      </trkpt>
      <trkpt lat="48.4074" lon="7.28267">
        <ele>1028</ele>
        <time>2020-06-24T08:11:31.126Z</time>
      </trkpt>
      <trkpt lat="48.4074" lon="7.28264">
        <ele>1028</ele>
        <time>2020-06-24T08:11:32.126Z</time>
      </trkpt>
      <trkpt lat="48.4074" lon="7.28262">
        <ele>1028</ele>
        <time>2020-06-24T08:11:33.126Z</time>
      </trkpt>
      <trkpt lat="48.4074" lon="7.28259">
        <ele>1028</ele>
        <time>2020-06-24T08:11:34.126Z</time>
      </trkpt>
      <trkpt lat="48.40739" lon="7.28258">
        <ele>1028</ele>
        <time>2020-06-24T08:11:35.126Z</time>
      </trkpt>
      <trkpt lat="48.4074" lon="7.28257">
        <ele>1028</ele>
        <time>2020-06-24T08:11:36.125Z</time>
      </trkpt>
      <trkpt lat="48.4074" lon="7.28255">
        <ele>1028</ele>
        <time>2020-06-24T08:11:37.125Z</time>
      </trkpt>
      <trkpt lat="48.4074" lon="7.28253">
        <ele>1028</ele>
        <time>2020-06-24T08:11:38.125Z</time>
      </trkpt>
      <trkpt lat="48.40739" lon="7.2825">
        <ele>1029</ele>
        <time>2020-06-24T08:11:39.125Z</time>
      </trkpt>
      <trkpt lat="48.40739" lon="7.28247">
        <ele>1029</ele>
        <time>2020-06-24T08:11:40.125Z</time>
      </trkpt>
      <trkpt lat="48.40739" lon="7.28244">
        <ele>1029</ele>
        <time>2020-06-24T08:11:41.126Z</time>
      </trkpt>
      <trkpt lat="48.40739" lon="7.28242">
        <ele>1029</ele>
        <time>2020-06-24T08:11:42.125Z</time>
      </trkpt>
      <trkpt lat="48.40739" lon="7.28239">
        <ele>1029</ele>
        <time>2020-06-24T08:11:43.126Z</time>
      </trkpt>
      <trkpt lat="48.40739" lon="7.28237">
        <ele>1029</ele>
        <time>2020-06-24T08:11:44.126Z</time>
      </trkpt>
      <trkpt lat="48.40738" lon="7.28235">
        <ele>1028</ele>
        <time>2020-06-24T08:11:45.126Z</time>
      </trkpt>
      <trkpt lat="48.40738" lon="7.28233">
        <ele>1028</ele>
        <time>2020-06-24T08:11:46.126Z</time>
      </trkpt>
      <trkpt lat="48.40738" lon="7.2823">
        <ele>1028</ele>
        <time>2020-06-24T08:11:47.125Z</time>
      </trkpt>
      <trkpt lat="48.40738" lon="7.28228">
        <ele>1027</ele>
        <time>2020-06-24T08:11:48.126Z</time>
      </trkpt>
      <trkpt lat="48.40739" lon="7.28226">
        <ele>1027</ele>
        <time>2020-06-24T08:11:49.126Z</time>
      </trkpt>
      <trkpt lat="48.40739" lon="7.28224">
        <ele>1026</ele>
        <time>2020-06-24T08:11:50.125Z</time>
      </trkpt>
      <trkpt lat="48.40739" lon="7.28221">
        <ele>1026</ele>
        <time>2020-06-24T08:11:51.126Z</time>
      </trkpt>
      <trkpt lat="48.40738" lon="7.28218">
        <ele>1026</ele>
        <time>2020-06-24T08:11:52.125Z</time>
      </trkpt>
      <trkpt lat="48.40738" lon="7.28215">
        <ele>1025</ele>
        <time>2020-06-24T08:11:53.125Z</time>
      </trkpt>
      <trkpt lat="48.40738" lon="7.28213">
        <ele>1025</ele>
        <time>2020-06-24T08:11:54.126Z</time>
      </trkpt>
      <trkpt lat="48.40738" lon="7.2821">
        <ele>1025</ele>
        <time>2020-06-24T08:11:55.125Z</time>
      </trkpt>
      <trkpt lat="48.40738" lon="7.28208">
        <ele>1025</ele>
        <time>2020-06-24T08:11:56.126Z</time>
      </trkpt>
      <trkpt lat="48.40738" lon="7.28207">
        <ele>1025</ele>
        <time>2020-06-24T08:11:57.126Z</time>
      </trkpt>
      <trkpt lat="48.40738" lon="7.28206">
        <ele>1025</ele>
        <time>2020-06-24T08:11:58.126Z</time>
      </trkpt>
      <trkpt lat="48.40737" lon="7.28204">
        <ele>1026</ele>
        <time>2020-06-24T08:11:59.126Z</time>
      </trkpt>
      <trkpt lat="48.40737" lon="7.28202">
        <ele>1026</ele>
        <time>2020-06-24T08:12:00.125Z</time>
      </trkpt>
      <trkpt lat="48.40736" lon="7.28199">
        <ele>1026</ele>
        <time>2020-06-24T08:12:01.125Z</time>
      </trkpt>
      <trkpt lat="48.40736" lon="7.28196">
        <ele>1027</ele>
        <time>2020-06-24T08:12:02.125Z</time>
      </trkpt>
      <trkpt lat="48.40736" lon="7.28192">
        <ele>1027</ele>
        <time>2020-06-24T08:12:03.125Z</time>
      </trkpt>
      <trkpt lat="48.40736" lon="7.2819">
        <ele>1027</ele>
        <time>2020-06-24T08:12:04.125Z</time>
      </trkpt>
      <trkpt lat="48.40735" lon="7.28188">
        <ele>1027</ele>
        <time>2020-06-24T08:12:05.126Z</time>
      </trkpt>
      <trkpt lat="48.40734" lon="7.28186">
        <ele>1028</ele>
        <time>2020-06-24T08:12:06.125Z</time>
      </trkpt>
      <trkpt lat="48.40733" lon="7.28184">
        <ele>1028</ele>
        <time>2020-06-24T08:12:07.126Z</time>
      </trkpt>
      <trkpt lat="48.40733" lon="7.28182">
        <ele>1028</ele>
        <time>2020-06-24T08:12:08.126Z</time>
      </trkpt>
      <trkpt lat="48.40733" lon="7.28179">
        <ele>1027</ele>
        <time>2020-06-24T08:12:09.126Z</time>
      </trkpt>
      <trkpt lat="48.40734" lon="7.28177">
        <ele>1027</ele>
        <time>2020-06-24T08:12:10.126Z</time>
      </trkpt>
      <trkpt lat="48.40734" lon="7.28175">
        <ele>1027</ele>
        <time>2020-06-24T08:12:11.126Z</time>
      </trkpt>
      <trkpt lat="48.40734" lon="7.28173">
        <ele>1027</ele>
        <time>2020-06-24T08:12:12.126Z</time>
      </trkpt>
      <trkpt lat="48.40734" lon="7.28172">
        <ele>1027</ele>
        <time>2020-06-24T08:12:13.126Z</time>
      </trkpt>
      <trkpt lat="48.40734" lon="7.2817">
        <ele>1026</ele>
        <time>2020-06-24T08:12:14.125Z</time>
      </trkpt>
      <trkpt lat="48.40734" lon="7.28169">
        <ele>1026</ele>
        <time>2020-06-24T08:12:15.126Z</time>
      </trkpt>
      <trkpt lat="48.40733" lon="7.28167">
        <ele>1026</ele>
        <time>2020-06-24T08:12:16.126Z</time>
      </trkpt>
      <trkpt lat="48.40733" lon="7.28166">
        <ele>1025</ele>
        <time>2020-06-24T08:12:17.126Z</time>
      </trkpt>
      <trkpt lat="48.40733" lon="7.28165">
        <ele>1025</ele>
        <time>2020-06-24T08:12:18.125Z</time>
      </trkpt>
      <trkpt lat="48.40732" lon="7.28163">
        <ele>1024</ele>
        <time>2020-06-24T08:12:19.126Z</time>
      </trkpt>
      <trkpt lat="48.40732" lon="7.28162">
        <ele>1024</ele>
        <time>2020-06-24T08:12:20.126Z</time>
      </trkpt>
      <trkpt lat="48.40732" lon="7.28161">
        <ele>1024</ele>
        <time>2020-06-24T08:12:21.125Z</time>
      </trkpt>
      <trkpt lat="48.40731" lon="7.28159">
        <ele>1024</ele>
        <time>2020-06-24T08:12:22.125Z</time>
      </trkpt>
      <trkpt lat="48.40731" lon="7.28157">
        <ele>1024</ele>
        <time>2020-06-24T08:12:23.126Z</time>
      </trkpt>
      <trkpt lat="48.40731" lon="7.28155">
        <ele>1024</ele>
        <time>2020-06-24T08:12:24.126Z</time>
      </trkpt>
      <trkpt lat="48.4073" lon="7.28153">
        <ele>1024</ele>
        <time>2020-06-24T08:12:25.126Z</time>
      </trkpt>
      <trkpt lat="48.40729" lon="7.28151">
        <ele>1024</ele>
        <time>2020-06-24T08:12:26.126Z</time>
      </trkpt>
      <trkpt lat="48.40729" lon="7.28149">
        <ele>1025</ele>
        <time>2020-06-24T08:12:27.126Z</time>
      </trkpt>
      <trkpt lat="48.40728" lon="7.28145">
        <ele>1025</ele>
        <time>2020-06-24T08:12:28.125Z</time>
      </trkpt>
      <trkpt lat="48.40728" lon="7.28142">
        <ele>1026</ele>
        <time>2020-06-24T08:12:29.126Z</time>
      </trkpt>
      <trkpt lat="48.40728" lon="7.28139">
        <ele>1026</ele>
        <time>2020-06-24T08:12:30.126Z</time>
      </trkpt>
      <trkpt lat="48.40728" lon="7.28136">
        <ele>1027</ele>
        <time>2020-06-24T08:12:31.126Z</time>
      </trkpt>
      <trkpt lat="48.40727" lon="7.28133">
        <ele>1027</ele>
        <time>2020-06-24T08:12:32.126Z</time>
      </trkpt>
      <trkpt lat="48.40728" lon="7.2813">
        <ele>1027</ele>
        <time>2020-06-24T08:12:33.126Z</time>
      </trkpt>
      <trkpt lat="48.40727" lon="7.28127">
        <ele>1027</ele>
        <time>2020-06-24T08:12:34.126Z</time>
      </trkpt>
      <trkpt lat="48.40727" lon="7.28125">
        <ele>1027</ele>
        <time>2020-06-24T08:12:35.126Z</time>
      </trkpt>
      <trkpt lat="48.40726" lon="7.28123">
        <ele>1027</ele>
        <time>2020-06-24T08:12:36.125Z</time>
      </trkpt>
      <trkpt lat="48.40726" lon="7.28121">
        <ele>1027</ele>
        <time>2020-06-24T08:12:37.125Z</time>
      </trkpt>
      <trkpt lat="48.40725" lon="7.28119">
        <ele>1027</ele>
        <time>2020-06-24T08:12:38.125Z</time>
      </trkpt>
      <trkpt lat="48.40725" lon="7.28117">
        <ele>1027</ele>
        <time>2020-06-24T08:12:39.125Z</time>
      </trkpt>
      <trkpt lat="48.40725" lon="7.28115">
        <ele>1027</ele>
        <time>2020-06-24T08:12:40.126Z</time>
      </trkpt>
      <trkpt lat="48.40725" lon="7.28114">
        <ele>1028</ele>
        <time>2020-06-24T08:12:41.125Z</time>
      </trkpt>
      <trkpt lat="48.40725" lon="7.28112">
        <ele>1028</ele>
        <time>2020-06-24T08:12:42.126Z</time>
      </trkpt>
      <trkpt lat="48.40725" lon="7.2811">
        <ele>1028</ele>
        <time>2020-06-24T08:12:43.125Z</time>
      </trkpt>
      <trkpt lat="48.40725" lon="7.28108">
        <ele>1028</ele>
        <time>2020-06-24T08:12:44.126Z</time>
      </trkpt>
      <trkpt lat="48.40725" lon="7.28106">
        <ele>1029</ele>
        <time>2020-06-24T08:12:45.126Z</time>
      </trkpt>
      <trkpt lat="48.40725" lon="7.28104">
        <ele>1029</ele>
        <time>2020-06-24T08:12:46.126Z</time>
      </trkpt>
      <trkpt lat="48.40725" lon="7.28101">
        <ele>1029</ele>
        <time>2020-06-24T08:12:47.126Z</time>
      </trkpt>
      <trkpt lat="48.40725" lon="7.28099">
        <ele>1029</ele>
        <time>2020-06-24T08:12:48.125Z</time>
      </trkpt>
      <trkpt lat="48.40725" lon="7.28097">
        <ele>1029</ele>
        <time>2020-06-24T08:12:49.125Z</time>
      </trkpt>
      <trkpt lat="48.40725" lon="7.28095">
        <ele>1029</ele>
        <time>2020-06-24T08:12:50.126Z</time>
      </trkpt>
      <trkpt lat="48.40725" lon="7.28093">
        <ele>1029</ele>
        <time>2020-06-24T08:12:51.126Z</time>
      </trkpt>
      <trkpt lat="48.40725" lon="7.28091">
        <ele>1029</ele>
        <time>2020-06-24T08:12:52.126Z</time>
      </trkpt>
      <trkpt lat="48.40724" lon="7.28089">
        <ele>1029</ele>
        <time>2020-06-24T08:12:53.126Z</time>
      </trkpt>
      <trkpt lat="48.40723" lon="7.28088">
        <ele>1029</ele>
        <time>2020-06-24T08:12:54.126Z</time>
      </trkpt>
      <trkpt lat="48.40723" lon="7.28086">
        <ele>1030</ele>
        <time>2020-06-24T08:12:55.126Z</time>
      </trkpt>
      <trkpt lat="48.40723" lon="7.28084">
        <ele>1030</ele>
        <time>2020-06-24T08:12:56.126Z</time>
      </trkpt>
      <trkpt lat="48.40723" lon="7.28081">
        <ele>1030</ele>
        <time>2020-06-24T08:12:57.126Z</time>
      </trkpt>
      <trkpt lat="48.40723" lon="7.28079">
        <ele>1031</ele>
        <time>2020-06-24T08:12:58.126Z</time>
      </trkpt>
      <trkpt lat="48.40722" lon="7.28076">
        <ele>1031</ele>
        <time>2020-06-24T08:12:59.126Z</time>
      </trkpt>
      <trkpt lat="48.40723" lon="7.28073">
        <ele>1031</ele>
        <time>2020-06-24T08:13:00.126Z</time>
      </trkpt>
      <trkpt lat="48.40723" lon="7.28071">
        <ele>1031</ele>
        <time>2020-06-24T08:13:01.126Z</time>
      </trkpt>
      <trkpt lat="48.40723" lon="7.28069">
        <ele>1031</ele>
        <time>2020-06-24T08:13:02.126Z</time>
      </trkpt>
      <trkpt lat="48.40723" lon="7.28067">
        <ele>1031</ele>
        <time>2020-06-24T08:13:03.126Z</time>
      </trkpt>
      <trkpt lat="48.40722" lon="7.28065">
        <ele>1031</ele>
        <time>2020-06-24T08:13:04.125Z</time>
      </trkpt>
      <trkpt lat="48.40723" lon="7.28062">
        <ele>1031</ele>
        <time>2020-06-24T08:13:05.125Z</time>
      </trkpt>
      <trkpt lat="48.40724" lon="7.28059">
        <ele>1031</ele>
        <time>2020-06-24T08:13:06.126Z</time>
      </trkpt>
      <trkpt lat="48.40724" lon="7.28057">
        <ele>1031</ele>
        <time>2020-06-24T08:13:07.126Z</time>
      </trkpt>
      <trkpt lat="48.40724" lon="7.28054">
        <ele>1031</ele>
        <time>2020-06-24T08:13:08.126Z</time>
      </trkpt>
      <trkpt lat="48.40724" lon="7.28052">
        <ele>1031</ele>
        <time>2020-06-24T08:13:09.126Z</time>
      </trkpt>
      <trkpt lat="48.40724" lon="7.28049">
        <ele>1031</ele>
        <time>2020-06-24T08:13:10.126Z</time>
      </trkpt>
      <trkpt lat="48.40725" lon="7.28047">
        <ele>1031</ele>
        <time>2020-06-24T08:13:11.126Z</time>
      </trkpt>
      <trkpt lat="48.40726" lon="7.28044">
        <ele>1031</ele>
        <time>2020-06-24T08:13:12.125Z</time>
      </trkpt>
      <trkpt lat="48.40726" lon="7.28043">
        <ele>1031</ele>
        <time>2020-06-24T08:13:13.126Z</time>
      </trkpt>
      <trkpt lat="48.40726" lon="7.28041">
        <ele>1031</ele>
        <time>2020-06-24T08:13:14.126Z</time>
      </trkpt>
      <trkpt lat="48.40725" lon="7.2804">
        <ele>1031</ele>
        <time>2020-06-24T08:13:15.125Z</time>
      </trkpt>
      <trkpt lat="48.40725" lon="7.28039">
        <ele>1031</ele>
        <time>2020-06-24T08:13:16.126Z</time>
      </trkpt>
      <trkpt lat="48.40725" lon="7.28037">
        <ele>1031</ele>
        <time>2020-06-24T08:13:17.126Z</time>
      </trkpt>
      <trkpt lat="48.40726" lon="7.28035">
        <ele>1031</ele>
        <time>2020-06-24T08:13:18.125Z</time>
      </trkpt>
      <trkpt lat="48.40725" lon="7.28033">
        <ele>1031</ele>
        <time>2020-06-24T08:13:19.126Z</time>
      </trkpt>
      <trkpt lat="48.40725" lon="7.28031">
        <ele>1031</ele>
        <time>2020-06-24T08:13:20.125Z</time>
      </trkpt>
      <trkpt lat="48.40725" lon="7.28029">
        <ele>1031</ele>
        <time>2020-06-24T08:13:21.126Z</time>
      </trkpt>
      <trkpt lat="48.40725" lon="7.28027">
        <ele>1032</ele>
        <time>2020-06-24T08:13:22.125Z</time>
      </trkpt>
      <trkpt lat="48.40724" lon="7.28025">
        <ele>1032</ele>
        <time>2020-06-24T08:13:23.125Z</time>
      </trkpt>
      <trkpt lat="48.40725" lon="7.28023">
        <ele>1032</ele>
        <time>2020-06-24T08:13:24.126Z</time>
      </trkpt>
      <trkpt lat="48.40725" lon="7.28022">
        <ele>1032</ele>
        <time>2020-06-24T08:13:25.125Z</time>
      </trkpt>
      <trkpt lat="48.40726" lon="7.28021">
        <ele>1032</ele>
        <time>2020-06-24T08:13:26.126Z</time>
      </trkpt>
      <trkpt lat="48.40726" lon="7.28019">
        <ele>1032</ele>
        <time>2020-06-24T08:13:27.126Z</time>
      </trkpt>
      <trkpt lat="48.40727" lon="7.28018">
        <ele>1032</ele>
        <time>2020-06-24T08:13:28.126Z</time>
      </trkpt>
      <trkpt lat="48.40727" lon="7.28016">
        <ele>1033</ele>
        <time>2020-06-24T08:13:29.125Z</time>
      </trkpt>
      <trkpt lat="48.40728" lon="7.28015">
        <ele>1033</ele>
        <time>2020-06-24T08:13:30.126Z</time>
      </trkpt>
      <trkpt lat="48.40728" lon="7.28014">
        <ele>1033</ele>
        <time>2020-06-24T08:13:31.126Z</time>
      </trkpt>
      <trkpt lat="48.40728" lon="7.28012">
        <ele>1033</ele>
        <time>2020-06-24T08:13:32.125Z</time>
      </trkpt>
      <trkpt lat="48.40728" lon="7.2801">
        <ele>1033</ele>
        <time>2020-06-24T08:13:33.126Z</time>
      </trkpt>
      <trkpt lat="48.40728" lon="7.28009">
        <ele>1033</ele>
        <time>2020-06-24T08:13:34.126Z</time>
      </trkpt>
      <trkpt lat="48.40729" lon="7.28006">
        <ele>1034</ele>
        <time>2020-06-24T08:13:35.126Z</time>
      </trkpt>
      <trkpt lat="48.4073" lon="7.28004">
        <ele>1034</ele>
        <time>2020-06-24T08:13:36.125Z</time>
      </trkpt>
      <trkpt lat="48.4073" lon="7.28002">
        <ele>1034</ele>
        <time>2020-06-24T08:13:37.125Z</time>
      </trkpt>
      <trkpt lat="48.4073" lon="7.28">
        <ele>1034</ele>
        <time>2020-06-24T08:13:38.126Z</time>
      </trkpt>
      <trkpt lat="48.40731" lon="7.27998">
        <ele>1034</ele>
        <time>2020-06-24T08:13:39.125Z</time>
      </trkpt>
      <trkpt lat="48.40731" lon="7.27997">
        <ele>1034</ele>
        <time>2020-06-24T08:13:40.126Z</time>
      </trkpt>
      <trkpt lat="48.40731" lon="7.27995">
        <ele>1034</ele>
        <time>2020-06-24T08:13:41.126Z</time>
      </trkpt>
      <trkpt lat="48.40731" lon="7.27994">
        <ele>1035</ele>
        <time>2020-06-24T08:13:42.125Z</time>
      </trkpt>
      <trkpt lat="48.40731" lon="7.27992">
        <ele>1035</ele>
        <time>2020-06-24T08:13:43.126Z</time>
      </trkpt>
      <trkpt lat="48.4073" lon="7.27991">
        <ele>1035</ele>
        <time>2020-06-24T08:13:44.125Z</time>
      </trkpt>
      <trkpt lat="48.4073" lon="7.27989">
        <ele>1036</ele>
        <time>2020-06-24T08:13:45.126Z</time>
      </trkpt>
      <trkpt lat="48.4073" lon="7.27987">
        <ele>1036</ele>
        <time>2020-06-24T08:13:46.125Z</time>
      </trkpt>
      <trkpt lat="48.4073" lon="7.27986">
        <ele>1037</ele>
        <time>2020-06-24T08:13:47.126Z</time>
      </trkpt>
      <trkpt lat="48.4073" lon="7.27984">
        <ele>1037</ele>
        <time>2020-06-24T08:13:48.126Z</time>
      </trkpt>
      <trkpt lat="48.4073" lon="7.27982">
        <ele>1037</ele>
        <time>2020-06-24T08:13:49.125Z</time>
      </trkpt>
      <trkpt lat="48.40731" lon="7.2798">
        <ele>1038</ele>
        <time>2020-06-24T08:13:50.126Z</time>
      </trkpt>
      <trkpt lat="48.40731" lon="7.27977">
        <ele>1038</ele>
        <time>2020-06-24T08:13:51.126Z</time>
      </trkpt>
      <trkpt lat="48.4073" lon="7.27976">
        <ele>1038</ele>
        <time>2020-06-24T08:13:52.126Z</time>
      </trkpt>
      <trkpt lat="48.4073" lon="7.27973">
        <ele>1038</ele>
        <time>2020-06-24T08:13:53.126Z</time>
      </trkpt>
      <trkpt lat="48.4073" lon="7.27971">
        <ele>1038</ele>
        <time>2020-06-24T08:13:54.126Z</time>
      </trkpt>
      <trkpt lat="48.4073" lon="7.27968">
        <ele>1038</ele>
        <time>2020-06-24T08:13:55.126Z</time>
      </trkpt>
      <trkpt lat="48.4073" lon="7.27966">
        <ele>1039</ele>
        <time>2020-06-24T08:13:56.126Z</time>
      </trkpt>
      <trkpt lat="48.4073" lon="7.27965">
        <ele>1039</ele>
        <time>2020-06-24T08:13:57.125Z</time>
      </trkpt>
      <trkpt lat="48.40729" lon="7.27964">
        <ele>1040</ele>
        <time>2020-06-24T08:13:58.126Z</time>
      </trkpt>
      <trkpt lat="48.40729" lon="7.27963">
        <ele>1040</ele>
        <time>2020-06-24T08:13:59.125Z</time>
      </trkpt>
      <trkpt lat="48.40728" lon="7.27961">
        <ele>1041</ele>
        <time>2020-06-24T08:14:00.125Z</time>
      </trkpt>
      <trkpt lat="48.40728" lon="7.27959">
        <ele>1042</ele>
        <time>2020-06-24T08:14:01.125Z</time>
      </trkpt>
      <trkpt lat="48.40728" lon="7.27957">
        <ele>1043</ele>
        <time>2020-06-24T08:14:02.126Z</time>
      </trkpt>
      <trkpt lat="48.40728" lon="7.27954">
        <ele>1043</ele>
        <time>2020-06-24T08:14:03.126Z</time>
      </trkpt>
      <trkpt lat="48.40728" lon="7.27952">
        <ele>1044</ele>
        <time>2020-06-24T08:14:04.126Z</time>
      </trkpt>
      <trkpt lat="48.40727" lon="7.2795">
        <ele>1044</ele>
        <time>2020-06-24T08:14:05.125Z</time>
      </trkpt>
      <trkpt lat="48.40727" lon="7.27948">
        <ele>1045</ele>
        <time>2020-06-24T08:14:06.126Z</time>
      </trkpt>
      <trkpt lat="48.40727" lon="7.27947">
        <ele>1045</ele>
        <time>2020-06-24T08:14:07.126Z</time>
      </trkpt>
      <trkpt lat="48.40728" lon="7.27945">
        <ele>1046</ele>
        <time>2020-06-24T08:14:08.126Z</time>
      </trkpt>
      <trkpt lat="48.40728" lon="7.27944">
        <ele>1046</ele>
        <time>2020-06-24T08:14:09.126Z</time>
      </trkpt>
      <trkpt lat="48.40729" lon="7.27941">
        <ele>1047</ele>
        <time>2020-06-24T08:14:10.126Z</time>
      </trkpt>
      <trkpt lat="48.40729" lon="7.27939">
        <ele>1047</ele>
        <time>2020-06-24T08:14:11.126Z</time>
      </trkpt>
      <trkpt lat="48.40729" lon="7.27936">
        <ele>1047</ele>
        <time>2020-06-24T08:14:12.125Z</time>
      </trkpt>
      <trkpt lat="48.40728" lon="7.27934">
        <ele>1047</ele>
        <time>2020-06-24T08:14:13.126Z</time>
      </trkpt>
      <trkpt lat="48.40728" lon="7.27933">
        <ele>1047</ele>
        <time>2020-06-24T08:14:14.126Z</time>
      </trkpt>
      <trkpt lat="48.40728" lon="7.27931">
        <ele>1047</ele>
        <time>2020-06-24T08:14:15.125Z</time>
      </trkpt>
      <trkpt lat="48.40728" lon="7.2793">
        <ele>1047</ele>
        <time>2020-06-24T08:14:16.125Z</time>
      </trkpt>
      <trkpt lat="48.40728" lon="7.27929">
        <ele>1047</ele>
        <time>2020-06-24T08:14:17.125Z</time>
      </trkpt>
      <trkpt lat="48.40728" lon="7.27926">
        <ele>1047</ele>
        <time>2020-06-24T08:14:18.126Z</time>
      </trkpt>
      <trkpt lat="48.40728" lon="7.27925">
        <ele>1047</ele>
        <time>2020-06-24T08:14:19.125Z</time>
      </trkpt>
      <trkpt lat="48.40728" lon="7.27923">
        <ele>1048</ele>
        <time>2020-06-24T08:14:20.125Z</time>
      </trkpt>
      <trkpt lat="48.40728" lon="7.27921">
        <ele>1048</ele>
        <time>2020-06-24T08:14:21.125Z</time>
      </trkpt>
      <trkpt lat="48.40728" lon="7.27919">
        <ele>1048</ele>
        <time>2020-06-24T08:14:22.125Z</time>
      </trkpt>
      <trkpt lat="48.40728" lon="7.27916">
        <ele>1049</ele>
        <time>2020-06-24T08:14:23.126Z</time>
      </trkpt>
      <trkpt lat="48.40728" lon="7.27914">
        <ele>1049</ele>
        <time>2020-06-24T08:14:24.125Z</time>
      </trkpt>
      <trkpt lat="48.40728" lon="7.27913">
        <ele>1049</ele>
        <time>2020-06-24T08:14:25.125Z</time>
      </trkpt>
      <trkpt lat="48.40728" lon="7.27911">
        <ele>1049</ele>
        <time>2020-06-24T08:14:26.126Z</time>
      </trkpt>
      <trkpt lat="48.40728" lon="7.27909">
        <ele>1049</ele>
        <time>2020-06-24T08:14:27.125Z</time>
      </trkpt>
      <trkpt lat="48.40727" lon="7.27907">
        <ele>1049</ele>
        <time>2020-06-24T08:14:28.126Z</time>
      </trkpt>
      <trkpt lat="48.40728" lon="7.27904">
        <ele>1049</ele>
        <time>2020-06-24T08:14:29.126Z</time>
      </trkpt>
      <trkpt lat="48.40728" lon="7.27902">
        <ele>1049</ele>
        <time>2020-06-24T08:14:30.126Z</time>
      </trkpt>
      <trkpt lat="48.40729" lon="7.27899">
        <ele>1049</ele>
        <time>2020-06-24T08:14:31.126Z</time>
      </trkpt>
      <trkpt lat="48.40729" lon="7.27897">
        <ele>1050</ele>
        <time>2020-06-24T08:14:32.126Z</time>
      </trkpt>
      <trkpt lat="48.40729" lon="7.27895">
        <ele>1050</ele>
        <time>2020-06-24T08:14:33.126Z</time>
      </trkpt>
      <trkpt lat="48.4073" lon="7.27892">
        <ele>1050</ele>
        <time>2020-06-24T08:14:34.126Z</time>
      </trkpt>
      <trkpt lat="48.40729" lon="7.27891">
        <ele>1050</ele>
        <time>2020-06-24T08:14:35.125Z</time>
      </trkpt>
      <trkpt lat="48.4073" lon="7.27888">
        <ele>1050</ele>
        <time>2020-06-24T08:14:36.126Z</time>
      </trkpt>
      <trkpt lat="48.4073" lon="7.27887">
        <ele>1050</ele>
        <time>2020-06-24T08:14:37.126Z</time>
      </trkpt>
      <trkpt lat="48.4073" lon="7.27885">
        <ele>1049</ele>
        <time>2020-06-24T08:14:38.126Z</time>
      </trkpt>
      <trkpt lat="48.4073" lon="7.27884">
        <ele>1049</ele>
        <time>2020-06-24T08:14:39.125Z</time>
      </trkpt>
      <trkpt lat="48.40729" lon="7.27882">
        <ele>1049</ele>
        <time>2020-06-24T08:14:40.126Z</time>
      </trkpt>
      <trkpt lat="48.40729" lon="7.27881">
        <ele>1050</ele>
        <time>2020-06-24T08:14:41.125Z</time>
      </trkpt>
      <trkpt lat="48.40729" lon="7.27879">
        <ele>1050</ele>
        <time>2020-06-24T08:14:42.126Z</time>
      </trkpt>
      <trkpt lat="48.40729" lon="7.27878">
        <ele>1050</ele>
        <time>2020-06-24T08:14:43.126Z</time>
      </trkpt>
      <trkpt lat="48.40729" lon="7.27876">
        <ele>1051</ele>
        <time>2020-06-24T08:14:44.125Z</time>
      </trkpt>
      <trkpt lat="48.4073" lon="7.27874">
        <ele>1051</ele>
        <time>2020-06-24T08:14:45.125Z</time>
      </trkpt>
      <trkpt lat="48.4073" lon="7.27872">
        <ele>1051</ele>
        <time>2020-06-24T08:14:46.126Z</time>
      </trkpt>
      <trkpt lat="48.40731" lon="7.2787">
        <ele>1051</ele>
        <time>2020-06-24T08:14:47.125Z</time>
      </trkpt>
      <trkpt lat="48.4073" lon="7.27868">
        <ele>1050</ele>
        <time>2020-06-24T08:14:48.126Z</time>
      </trkpt>
      <trkpt lat="48.40731" lon="7.27865">
        <ele>1050</ele>
        <time>2020-06-24T08:14:49.125Z</time>
      </trkpt>
      <trkpt lat="48.40731" lon="7.27862">
        <ele>1049</ele>
        <time>2020-06-24T08:14:50.126Z</time>
      </trkpt>
      <trkpt lat="48.40731" lon="7.2786">
        <ele>1049</ele>
        <time>2020-06-24T08:14:51.125Z</time>
      </trkpt>
      <trkpt lat="48.40731" lon="7.27858">
        <ele>1048</ele>
        <time>2020-06-24T08:14:52.126Z</time>
      </trkpt>
      <trkpt lat="48.40732" lon="7.27856">
        <ele>1048</ele>
        <time>2020-06-24T08:14:53.126Z</time>
      </trkpt>
      <trkpt lat="48.40732" lon="7.27853">
        <ele>1048</ele>
        <time>2020-06-24T08:14:54.125Z</time>
      </trkpt>
      <trkpt lat="48.40733" lon="7.27851">
        <ele>1048</ele>
        <time>2020-06-24T08:14:55.126Z</time>
      </trkpt>
      <trkpt lat="48.40733" lon="7.27849">
        <ele>1047</ele>
        <time>2020-06-24T08:14:56.126Z</time>
      </trkpt>
      <trkpt lat="48.40733" lon="7.27845">
        <ele>1047</ele>
        <time>2020-06-24T08:14:57.125Z</time>
      </trkpt>
      <trkpt lat="48.40734" lon="7.27844">
        <ele>1047</ele>
        <time>2020-06-24T08:14:58.125Z</time>
      </trkpt>
      <trkpt lat="48.40734" lon="7.27842">
        <ele>1047</ele>
        <time>2020-06-24T08:14:59.126Z</time>
      </trkpt>
      <trkpt lat="48.40735" lon="7.2784">
        <ele>1048</ele>
        <time>2020-06-24T08:15:00.125Z</time>
      </trkpt>
      <trkpt lat="48.40735" lon="7.27838">
        <ele>1048</ele>
        <time>2020-06-24T08:15:01.125Z</time>
      </trkpt>
      <trkpt lat="48.40736" lon="7.27837">
        <ele>1048</ele>
        <time>2020-06-24T08:15:02.126Z</time>
      </trkpt>
      <trkpt lat="48.40736" lon="7.27835">
        <ele>1048</ele>
        <time>2020-06-24T08:15:03.125Z</time>
      </trkpt>
      <trkpt lat="48.40736" lon="7.27834">
        <ele>1049</ele>
        <time>2020-06-24T08:15:04.126Z</time>
      </trkpt>
      <trkpt lat="48.40736" lon="7.27832">
        <ele>1049</ele>
        <time>2020-06-24T08:15:05.126Z</time>
      </trkpt>
      <trkpt lat="48.40736" lon="7.2783">
        <ele>1049</ele>
        <time>2020-06-24T08:15:06.126Z</time>
      </trkpt>
      <trkpt lat="48.40736" lon="7.27828">
        <ele>1050</ele>
        <time>2020-06-24T08:15:07.126Z</time>
      </trkpt>
      <trkpt lat="48.40735" lon="7.27825">
        <ele>1050</ele>
        <time>2020-06-24T08:15:08.126Z</time>
      </trkpt>
      <trkpt lat="48.40735" lon="7.27823">
        <ele>1050</ele>
        <time>2020-06-24T08:15:09.125Z</time>
      </trkpt>
      <trkpt lat="48.40734" lon="7.2782">
        <ele>1050</ele>
        <time>2020-06-24T08:15:10.125Z</time>
      </trkpt>
      <trkpt lat="48.40734" lon="7.27818">
        <ele>1050</ele>
        <time>2020-06-24T08:15:11.126Z</time>
      </trkpt>
      <trkpt lat="48.40734" lon="7.27815">
        <ele>1050</ele>
        <time>2020-06-24T08:15:12.126Z</time>
      </trkpt>
      <trkpt lat="48.40734" lon="7.27813">
        <ele>1050</ele>
        <time>2020-06-24T08:15:13.126Z</time>
      </trkpt>
      <trkpt lat="48.40734" lon="7.2781">
        <ele>1050</ele>
        <time>2020-06-24T08:15:14.125Z</time>
      </trkpt>
      <trkpt lat="48.40735" lon="7.27808">
        <ele>1050</ele>
        <time>2020-06-24T08:15:15.125Z</time>
      </trkpt>
      <trkpt lat="48.40736" lon="7.27806">
        <ele>1051</ele>
        <time>2020-06-24T08:15:16.125Z</time>
      </trkpt>
      <trkpt lat="48.40736" lon="7.27804">
        <ele>1051</ele>
        <time>2020-06-24T08:15:17.126Z</time>
      </trkpt>
      <trkpt lat="48.40736" lon="7.27802">
        <ele>1051</ele>
        <time>2020-06-24T08:15:18.125Z</time>
      </trkpt>
      <trkpt lat="48.40737" lon="7.27799">
        <ele>1051</ele>
        <time>2020-06-24T08:15:19.126Z</time>
      </trkpt>
      <trkpt lat="48.40737" lon="7.27797">
        <ele>1051</ele>
        <time>2020-06-24T08:15:20.126Z</time>
      </trkpt>
      <trkpt lat="48.40737" lon="7.27796">
        <ele>1051</ele>
        <time>2020-06-24T08:15:21.126Z</time>
      </trkpt>
      <trkpt lat="48.40738" lon="7.27794">
        <ele>1052</ele>
        <time>2020-06-24T08:15:22.126Z</time>
      </trkpt>
      <trkpt lat="48.40738" lon="7.27792">
        <ele>1051</ele>
        <time>2020-06-24T08:15:23.126Z</time>
      </trkpt>
      <trkpt lat="48.40738" lon="7.27791">
        <ele>1051</ele>
        <time>2020-06-24T08:15:24.126Z</time>
      </trkpt>
      <trkpt lat="48.40738" lon="7.27789">
        <ele>1051</ele>
        <time>2020-06-24T08:15:25.126Z</time>
      </trkpt>
      <trkpt lat="48.40738" lon="7.27788">
        <ele>1051</ele>
        <time>2020-06-24T08:15:26.126Z</time>
      </trkpt>
      <trkpt lat="48.40738" lon="7.27787">
        <ele>1051</ele>
        <time>2020-06-24T08:15:27.126Z</time>
      </trkpt>
      <trkpt lat="48.40738" lon="7.27784">
        <ele>1051</ele>
        <time>2020-06-24T08:15:28.126Z</time>
      </trkpt>
      <trkpt lat="48.40738" lon="7.27781">
        <ele>1051</ele>
        <time>2020-06-24T08:15:29.126Z</time>
      </trkpt>
      <trkpt lat="48.40738" lon="7.27779">
        <ele>1052</ele>
        <time>2020-06-24T08:15:30.126Z</time>
      </trkpt>
      <trkpt lat="48.40738" lon="7.27777">
        <ele>1052</ele>
        <time>2020-06-24T08:15:31.126Z</time>
      </trkpt>
      <trkpt lat="48.40738" lon="7.27774">
        <ele>1053</ele>
        <time>2020-06-24T08:15:32.125Z</time>
      </trkpt>
      <trkpt lat="48.40738" lon="7.27772">
        <ele>1053</ele>
        <time>2020-06-24T08:15:33.126Z</time>
      </trkpt>
      <trkpt lat="48.40738" lon="7.2777">
        <ele>1053</ele>
        <time>2020-06-24T08:15:34.126Z</time>
      </trkpt>
      <trkpt lat="48.40738" lon="7.27768">
        <ele>1053</ele>
        <time>2020-06-24T08:15:35.126Z</time>
      </trkpt>
      <trkpt lat="48.40739" lon="7.27767">
        <ele>1054</ele>
        <time>2020-06-24T08:15:36.126Z</time>
      </trkpt>
      <trkpt lat="48.4074" lon="7.27765">
        <ele>1054</ele>
        <time>2020-06-24T08:15:37.126Z</time>
      </trkpt>
      <trkpt lat="48.4074" lon="7.27763">
        <ele>1054</ele>
        <time>2020-06-24T08:15:38.126Z</time>
      </trkpt>
      <trkpt lat="48.4074" lon="7.27761">
        <ele>1054</ele>
        <time>2020-06-24T08:15:39.125Z</time>
      </trkpt>
      <trkpt lat="48.40741" lon="7.27758">
        <ele>1054</ele>
        <time>2020-06-24T08:15:40.126Z</time>
      </trkpt>
      <trkpt lat="48.40741" lon="7.27756">
        <ele>1054</ele>
        <time>2020-06-24T08:15:41.126Z</time>
      </trkpt>
      <trkpt lat="48.40741" lon="7.27754">
        <ele>1054</ele>
        <time>2020-06-24T08:15:42.126Z</time>
      </trkpt>
      <trkpt lat="48.40741" lon="7.27752">
        <ele>1054</ele>
        <time>2020-06-24T08:15:43.125Z</time>
      </trkpt>
      <trkpt lat="48.40741" lon="7.2775">
        <ele>1054</ele>
        <time>2020-06-24T08:15:44.126Z</time>
      </trkpt>
      <trkpt lat="48.40741" lon="7.27748">
        <ele>1054</ele>
        <time>2020-06-24T08:15:45.126Z</time>
      </trkpt>
      <trkpt lat="48.40741" lon="7.27746">
        <ele>1054</ele>
        <time>2020-06-24T08:15:46.126Z</time>
      </trkpt>
      <trkpt lat="48.40741" lon="7.27744">
        <ele>1054</ele>
        <time>2020-06-24T08:15:47.125Z</time>
      </trkpt>
      <trkpt lat="48.40741" lon="7.27742">
        <ele>1054</ele>
        <time>2020-06-24T08:15:48.126Z</time>
      </trkpt>
      <trkpt lat="48.40741" lon="7.2774">
        <ele>1054</ele>
        <time>2020-06-24T08:15:49.126Z</time>
      </trkpt>
      <trkpt lat="48.40741" lon="7.27738">
        <ele>1054</ele>
        <time>2020-06-24T08:15:50.126Z</time>
      </trkpt>
      <trkpt lat="48.40741" lon="7.27735">
        <ele>1055</ele>
        <time>2020-06-24T08:15:51.126Z</time>
      </trkpt>
      <trkpt lat="48.40741" lon="7.27733">
        <ele>1055</ele>
        <time>2020-06-24T08:15:52.126Z</time>
      </trkpt>
      <trkpt lat="48.40741" lon="7.27731">
        <ele>1055</ele>
        <time>2020-06-24T08:15:53.126Z</time>
      </trkpt>
      <trkpt lat="48.4074" lon="7.27728">
        <ele>1056</ele>
        <time>2020-06-24T08:15:54.125Z</time>
      </trkpt>
      <trkpt lat="48.40741" lon="7.27725">
        <ele>1056</ele>
        <time>2020-06-24T08:15:55.126Z</time>
      </trkpt>
      <trkpt lat="48.40741" lon="7.27723">
        <ele>1056</ele>
        <time>2020-06-24T08:15:56.126Z</time>
      </trkpt>
      <trkpt lat="48.40741" lon="7.27721">
        <ele>1056</ele>
        <time>2020-06-24T08:15:57.126Z</time>
      </trkpt>
      <trkpt lat="48.40741" lon="7.27717">
        <ele>1056</ele>
        <time>2020-06-24T08:15:58.125Z</time>
      </trkpt>
      <trkpt lat="48.40741" lon="7.27715">
        <ele>1056</ele>
        <time>2020-06-24T08:15:59.125Z</time>
      </trkpt>
      <trkpt lat="48.40741" lon="7.27713">
        <ele>1056</ele>
        <time>2020-06-24T08:16:00.126Z</time>
      </trkpt>
      <trkpt lat="48.40741" lon="7.27711">
        <ele>1056</ele>
        <time>2020-06-24T08:16:01.126Z</time>
      </trkpt>
      <trkpt lat="48.40741" lon="7.27709">
        <ele>1056</ele>
        <time>2020-06-24T08:16:02.126Z</time>
      </trkpt>
      <trkpt lat="48.40741" lon="7.27707">
        <ele>1057</ele>
        <time>2020-06-24T08:16:03.126Z</time>
      </trkpt>
      <trkpt lat="48.40742" lon="7.27705">
        <ele>1057</ele>
        <time>2020-06-24T08:16:04.126Z</time>
      </trkpt>
      <trkpt lat="48.40742" lon="7.27702">
        <ele>1057</ele>
        <time>2020-06-24T08:16:05.126Z</time>
      </trkpt>
      <trkpt lat="48.40743" lon="7.27699">
        <ele>1058</ele>
        <time>2020-06-24T08:16:06.126Z</time>
      </trkpt>
      <trkpt lat="48.40743" lon="7.27698">
        <ele>1058</ele>
        <time>2020-06-24T08:16:07.126Z</time>
      </trkpt>
      <trkpt lat="48.40743" lon="7.27696">
        <ele>1058</ele>
        <time>2020-06-24T08:16:08.126Z</time>
      </trkpt>
      <trkpt lat="48.40743" lon="7.27695">
        <ele>1059</ele>
        <time>2020-06-24T08:16:09.125Z</time>
      </trkpt>
      <trkpt lat="48.40744" lon="7.27693">
        <ele>1059</ele>
        <time>2020-06-24T08:16:10.126Z</time>
      </trkpt>
      <trkpt lat="48.40744" lon="7.27692">
        <ele>1059</ele>
        <time>2020-06-24T08:16:11.125Z</time>
      </trkpt>
      <trkpt lat="48.40744" lon="7.27691">
        <ele>1059</ele>
        <time>2020-06-24T08:16:12.126Z</time>
      </trkpt>
      <trkpt lat="48.40744" lon="7.27689">
        <ele>1060</ele>
        <time>2020-06-24T08:16:13.126Z</time>
      </trkpt>
      <trkpt lat="48.40742" lon="7.27689">
        <ele>1060</ele>
        <time>2020-06-24T08:16:14.126Z</time>
      </trkpt>
      <trkpt lat="48.40741" lon="7.27689">
        <ele>1061</ele>
        <time>2020-06-24T08:16:15.126Z</time>
      </trkpt>
      <trkpt lat="48.40741" lon="7.27689">
        <ele>1062</ele>
        <time>2020-06-24T08:16:16.126Z</time>
      </trkpt>
      <trkpt lat="48.40736" lon="7.27687">
        <ele>1067</ele>
        <time>2020-06-24T08:16:17.127Z</time>
      </trkpt>
      <trkpt lat="48.40737" lon="7.27685">
        <ele>1067</ele>
        <time>2020-06-24T08:16:18.127Z</time>
      </trkpt>
      <trkpt lat="48.40738" lon="7.27683">
        <ele>1067</ele>
        <time>2020-06-24T08:16:19.127Z</time>
      </trkpt>
      <trkpt lat="48.40738" lon="7.2768">
        <ele>1067</ele>
        <time>2020-06-24T08:16:20.126Z</time>
      </trkpt>
      <trkpt lat="48.40738" lon="7.27677">
        <ele>1067</ele>
        <time>2020-06-24T08:16:21.127Z</time>
      </trkpt>
      <trkpt lat="48.40739" lon="7.27674">
        <ele>1067</ele>
        <time>2020-06-24T08:16:22.127Z</time>
      </trkpt>
      <trkpt lat="48.40739" lon="7.27671">
        <ele>1067</ele>
        <time>2020-06-24T08:16:23.127Z</time>
      </trkpt>
      <trkpt lat="48.4074" lon="7.27669">
        <ele>1067</ele>
        <time>2020-06-24T08:16:24.127Z</time>
      </trkpt>
      <trkpt lat="48.40741" lon="7.27666">
        <ele>1066</ele>
        <time>2020-06-24T08:16:25.127Z</time>
      </trkpt>
      <trkpt lat="48.40741" lon="7.27663">
        <ele>1066</ele>
        <time>2020-06-24T08:16:26.126Z</time>
      </trkpt>
      <trkpt lat="48.40741" lon="7.2766">
        <ele>1066</ele>
        <time>2020-06-24T08:16:27.126Z</time>
      </trkpt>
      <trkpt lat="48.40742" lon="7.27657">
        <ele>1065</ele>
        <time>2020-06-24T08:16:28.126Z</time>
      </trkpt>
      <trkpt lat="48.40742" lon="7.27656">
        <ele>1065</ele>
        <time>2020-06-24T08:16:29.127Z</time>
      </trkpt>
      <trkpt lat="48.40743" lon="7.27653">
        <ele>1065</ele>
        <time>2020-06-24T08:16:30.127Z</time>
      </trkpt>
      <trkpt lat="48.40744" lon="7.27651">
        <ele>1065</ele>
        <time>2020-06-24T08:16:31.127Z</time>
      </trkpt>
      <trkpt lat="48.40744" lon="7.27648">
        <ele>1065</ele>
        <time>2020-06-24T08:16:32.126Z</time>
      </trkpt>
      <trkpt lat="48.40744" lon="7.27647">
        <ele>1064</ele>
        <time>2020-06-24T08:16:33.126Z</time>
      </trkpt>
      <trkpt lat="48.40743" lon="7.27645">
        <ele>1064</ele>
        <time>2020-06-24T08:16:34.127Z</time>
      </trkpt>
      <trkpt lat="48.40743" lon="7.27644">
        <ele>1064</ele>
        <time>2020-06-24T08:16:35.127Z</time>
      </trkpt>
      <trkpt lat="48.40743" lon="7.27643">
        <ele>1063</ele>
        <time>2020-06-24T08:16:36.127Z</time>
      </trkpt>
      <trkpt lat="48.40743" lon="7.27641">
        <ele>1063</ele>
        <time>2020-06-24T08:16:37.126Z</time>
      </trkpt>
      <trkpt lat="48.40744" lon="7.27639">
        <ele>1064</ele>
        <time>2020-06-24T08:16:38.127Z</time>
      </trkpt>
      <trkpt lat="48.40744" lon="7.27637">
        <ele>1064</ele>
        <time>2020-06-24T08:16:39.126Z</time>
      </trkpt>
      <trkpt lat="48.40744" lon="7.27635">
        <ele>1065</ele>
        <time>2020-06-24T08:16:40.127Z</time>
      </trkpt>
      <trkpt lat="48.40744" lon="7.27632">
        <ele>1065</ele>
        <time>2020-06-24T08:16:41.127Z</time>
      </trkpt>
      <trkpt lat="48.40745" lon="7.2763">
        <ele>1065</ele>
        <time>2020-06-24T08:16:42.127Z</time>
      </trkpt>
      <trkpt lat="48.40745" lon="7.27629">
        <ele>1066</ele>
        <time>2020-06-24T08:16:43.127Z</time>
      </trkpt>
      <trkpt lat="48.40746" lon="7.27627">
        <ele>1066</ele>
        <time>2020-06-24T08:16:44.126Z</time>
      </trkpt>
      <trkpt lat="48.40746" lon="7.27625">
        <ele>1066</ele>
        <time>2020-06-24T08:16:45.127Z</time>
      </trkpt>
      <trkpt lat="48.40746" lon="7.27623">
        <ele>1066</ele>
        <time>2020-06-24T08:16:46.127Z</time>
      </trkpt>
      <trkpt lat="48.40746" lon="7.27622">
        <ele>1066</ele>
        <time>2020-06-24T08:16:47.126Z</time>
      </trkpt>
      <trkpt lat="48.40746" lon="7.27621">
        <ele>1066</ele>
        <time>2020-06-24T08:16:48.127Z</time>
      </trkpt>
      <trkpt lat="48.40746" lon="7.27621">
        <ele>1066</ele>
        <time>2020-06-24T08:16:49.127Z</time>
      </trkpt>
      <trkpt lat="48.40748" lon="7.27622">
        <ele>1067</ele>
        <time>2020-06-24T08:16:50.126Z</time>
      </trkpt>
      <trkpt lat="48.4075" lon="7.27623">
        <ele>1067</ele>
        <time>2020-06-24T08:16:51.127Z</time>
      </trkpt>
      <trkpt lat="48.40753" lon="7.27623">
        <ele>1067</ele>
        <time>2020-06-24T08:16:52.127Z</time>
      </trkpt>
      <trkpt lat="48.40754" lon="7.27624">
        <ele>1067</ele>
        <time>2020-06-24T08:16:53.126Z</time>
      </trkpt>
      <trkpt lat="48.40755" lon="7.27624">
        <ele>1067</ele>
        <time>2020-06-24T08:16:54.127Z</time>
      </trkpt>
      <trkpt lat="48.40755" lon="7.27624">
        <ele>1067</ele>
        <time>2020-06-24T08:16:55.126Z</time>
      </trkpt>
      <trkpt lat="48.40755" lon="7.27624">
        <ele>1066</ele>
        <time>2020-06-24T08:16:56.127Z</time>
      </trkpt>
      <trkpt lat="48.40754" lon="7.27624">
        <ele>1066</ele>
        <time>2020-06-24T08:16:57.127Z</time>
      </trkpt>
      <trkpt lat="48.40754" lon="7.27624">
        <ele>1066</ele>
        <time>2020-06-24T08:16:58.127Z</time>
      </trkpt>
      <trkpt lat="48.40754" lon="7.27623">
        <ele>1065</ele>
        <time>2020-06-24T08:16:59.127Z</time>
      </trkpt>
      <trkpt lat="48.40754" lon="7.27622">
        <ele>1065</ele>
        <time>2020-06-24T08:17:00.127Z</time>
      </trkpt>
      <trkpt lat="48.40754" lon="7.27621">
        <ele>1065</ele>
        <time>2020-06-24T08:17:01.126Z</time>
      </trkpt>
      <trkpt lat="48.40754" lon="7.27619">
        <ele>1065</ele>
        <time>2020-06-24T08:17:02.126Z</time>
      </trkpt>
      <trkpt lat="48.40754" lon="7.27619">
        <ele>1065</ele>
        <time>2020-06-24T08:17:03.127Z</time>
      </trkpt>
      <trkpt lat="48.40754" lon="7.27618">
        <ele>1065</ele>
        <time>2020-06-24T08:17:04.127Z</time>
      </trkpt>
      <trkpt lat="48.40754" lon="7.27617">
        <ele>1065</ele>
        <time>2020-06-24T08:17:05.127Z</time>
      </trkpt>
      <trkpt lat="48.40754" lon="7.27616">
        <ele>1064</ele>
        <time>2020-06-24T08:17:06.127Z</time>
      </trkpt>
      <trkpt lat="48.40753" lon="7.27612">
        <ele>1054</ele>
        <time>2020-06-24T08:17:07.127Z</time>
      </trkpt>
      <trkpt lat="48.40753" lon="7.2761">
        <ele>1054</ele>
        <time>2020-06-24T08:17:08.127Z</time>
      </trkpt>
      <trkpt lat="48.40754" lon="7.27608">
        <ele>1054</ele>
        <time>2020-06-24T08:17:09.127Z</time>
      </trkpt>
      <trkpt lat="48.40754" lon="7.27604">
        <ele>1054</ele>
        <time>2020-06-24T08:17:10.128Z</time>
      </trkpt>
      <trkpt lat="48.40755" lon="7.27601">
        <ele>1054</ele>
        <time>2020-06-24T08:17:11.127Z</time>
      </trkpt>
      <trkpt lat="48.40755" lon="7.27598">
        <ele>1054</ele>
        <time>2020-06-24T08:17:12.128Z</time>
      </trkpt>
      <trkpt lat="48.40755" lon="7.27594">
        <ele>1055</ele>
        <time>2020-06-24T08:17:13.128Z</time>
      </trkpt>
      <trkpt lat="48.40755" lon="7.27591">
        <ele>1054</ele>
        <time>2020-06-24T08:17:14.128Z</time>
      </trkpt>
      <trkpt lat="48.40755" lon="7.27587">
        <ele>1055</ele>
        <time>2020-06-24T08:17:15.128Z</time>
      </trkpt>
      <trkpt lat="48.40755" lon="7.27585">
        <ele>1055</ele>
        <time>2020-06-24T08:17:16.128Z</time>
      </trkpt>
      <trkpt lat="48.40755" lon="7.27584">
        <ele>1056</ele>
        <time>2020-06-24T08:17:17.128Z</time>
      </trkpt>
      <trkpt lat="48.40755" lon="7.27582">
        <ele>1057</ele>
        <time>2020-06-24T08:17:18.127Z</time>
      </trkpt>
      <trkpt lat="48.40755" lon="7.27581">
        <ele>1057</ele>
        <time>2020-06-24T08:17:19.128Z</time>
      </trkpt>
      <trkpt lat="48.40756" lon="7.27578">
        <ele>1059</ele>
        <time>2020-06-24T08:17:20.128Z</time>
      </trkpt>
      <trkpt lat="48.40756" lon="7.27576">
        <ele>1059</ele>
        <time>2020-06-24T08:17:21.128Z</time>
      </trkpt>
      <trkpt lat="48.40756" lon="7.27573">
        <ele>1060</ele>
        <time>2020-06-24T08:17:22.128Z</time>
      </trkpt>
      <trkpt lat="48.40756" lon="7.27571">
        <ele>1061</ele>
        <time>2020-06-24T08:17:23.128Z</time>
      </trkpt>
      <trkpt lat="48.40756" lon="7.27568">
        <ele>1061</ele>
        <time>2020-06-24T08:17:24.128Z</time>
      </trkpt>
      <trkpt lat="48.40757" lon="7.27566">
        <ele>1061</ele>
        <time>2020-06-24T08:17:25.128Z</time>
      </trkpt>
      <trkpt lat="48.40757" lon="7.27564">
        <ele>1061</ele>
        <time>2020-06-24T08:17:26.128Z</time>
      </trkpt>
      <trkpt lat="48.40757" lon="7.27562">
        <ele>1061</ele>
        <time>2020-06-24T08:17:27.128Z</time>
      </trkpt>
      <trkpt lat="48.40757" lon="7.2756">
        <ele>1061</ele>
        <time>2020-06-24T08:17:28.128Z</time>
      </trkpt>
      <trkpt lat="48.40758" lon="7.27558">
        <ele>1062</ele>
        <time>2020-06-24T08:17:29.128Z</time>
      </trkpt>
      <trkpt lat="48.40758" lon="7.27556">
        <ele>1062</ele>
        <time>2020-06-24T08:17:30.128Z</time>
      </trkpt>
      <trkpt lat="48.40758" lon="7.27555">
        <ele>1063</ele>
        <time>2020-06-24T08:17:31.128Z</time>
      </trkpt>
      <trkpt lat="48.40757" lon="7.27552">
        <ele>1063</ele>
        <time>2020-06-24T08:17:32.127Z</time>
      </trkpt>
      <trkpt lat="48.40757" lon="7.2755">
        <ele>1063</ele>
        <time>2020-06-24T08:17:33.127Z</time>
      </trkpt>
      <trkpt lat="48.40757" lon="7.27548">
        <ele>1064</ele>
        <time>2020-06-24T08:17:34.128Z</time>
      </trkpt>
      <trkpt lat="48.40758" lon="7.27546">
        <ele>1064</ele>
        <time>2020-06-24T08:17:35.128Z</time>
      </trkpt>
      <trkpt lat="48.40758" lon="7.27544">
        <ele>1064</ele>
        <time>2020-06-24T08:17:36.128Z</time>
      </trkpt>
      <trkpt lat="48.40758" lon="7.27542">
        <ele>1065</ele>
        <time>2020-06-24T08:17:37.128Z</time>
      </trkpt>
      <trkpt lat="48.40758" lon="7.27539">
        <ele>1065</ele>
        <time>2020-06-24T08:17:38.128Z</time>
      </trkpt>
      <trkpt lat="48.40758" lon="7.27537">
        <ele>1066</ele>
        <time>2020-06-24T08:17:39.127Z</time>
      </trkpt>
      <trkpt lat="48.40758" lon="7.27535">
        <ele>1066</ele>
        <time>2020-06-24T08:17:40.128Z</time>
      </trkpt>
      <trkpt lat="48.40759" lon="7.27534">
        <ele>1067</ele>
        <time>2020-06-24T08:17:41.127Z</time>
      </trkpt>
      <trkpt lat="48.40759" lon="7.27532">
        <ele>1067</ele>
        <time>2020-06-24T08:17:42.128Z</time>
      </trkpt>
      <trkpt lat="48.4076" lon="7.2753">
        <ele>1067</ele>
        <time>2020-06-24T08:17:43.128Z</time>
      </trkpt>
      <trkpt lat="48.4076" lon="7.27529">
        <ele>1067</ele>
        <time>2020-06-24T08:17:44.128Z</time>
      </trkpt>
      <trkpt lat="48.4076" lon="7.27527">
        <ele>1068</ele>
        <time>2020-06-24T08:17:45.128Z</time>
      </trkpt>
      <trkpt lat="48.40761" lon="7.27524">
        <ele>1068</ele>
        <time>2020-06-24T08:17:46.128Z</time>
      </trkpt>
      <trkpt lat="48.40761" lon="7.27523">
        <ele>1068</ele>
        <time>2020-06-24T08:17:47.128Z</time>
      </trkpt>
      <trkpt lat="48.40762" lon="7.2752">
        <ele>1068</ele>
        <time>2020-06-24T08:17:48.128Z</time>
      </trkpt>
      <trkpt lat="48.40762" lon="7.27517">
        <ele>1068</ele>
        <time>2020-06-24T08:17:49.128Z</time>
      </trkpt>
      <trkpt lat="48.40762" lon="7.27515">
        <ele>1067</ele>
        <time>2020-06-24T08:17:50.128Z</time>
      </trkpt>
      <trkpt lat="48.40763" lon="7.27513">
        <ele>1067</ele>
        <time>2020-06-24T08:17:51.128Z</time>
      </trkpt>
      <trkpt lat="48.40764" lon="7.2751">
        <ele>1067</ele>
        <time>2020-06-24T08:17:52.127Z</time>
      </trkpt>
      <trkpt lat="48.40764" lon="7.27509">
        <ele>1067</ele>
        <time>2020-06-24T08:17:53.128Z</time>
      </trkpt>
      <trkpt lat="48.40765" lon="7.27507">
        <ele>1066</ele>
        <time>2020-06-24T08:17:54.128Z</time>
      </trkpt>
      <trkpt lat="48.40766" lon="7.27505">
        <ele>1066</ele>
        <time>2020-06-24T08:17:55.128Z</time>
      </trkpt>
      <trkpt lat="48.40767" lon="7.27503">
        <ele>1066</ele>
        <time>2020-06-24T08:17:56.128Z</time>
      </trkpt>
      <trkpt lat="48.40768" lon="7.27501">
        <ele>1066</ele>
        <time>2020-06-24T08:17:57.128Z</time>
      </trkpt>
      <trkpt lat="48.40768" lon="7.27499">
        <ele>1065</ele>
        <time>2020-06-24T08:17:58.128Z</time>
      </trkpt>
      <trkpt lat="48.40769" lon="7.27497">
        <ele>1066</ele>
        <time>2020-06-24T08:17:59.128Z</time>
      </trkpt>
      <trkpt lat="48.4077" lon="7.27495">
        <ele>1066</ele>
        <time>2020-06-24T08:18:00.127Z</time>
      </trkpt>
      <trkpt lat="48.4077" lon="7.27493">
        <ele>1066</ele>
        <time>2020-06-24T08:18:01.128Z</time>
      </trkpt>
      <trkpt lat="48.40771" lon="7.27491">
        <ele>1067</ele>
        <time>2020-06-24T08:18:02.128Z</time>
      </trkpt>
      <trkpt lat="48.40772" lon="7.27489">
        <ele>1068</ele>
        <time>2020-06-24T08:18:03.128Z</time>
      </trkpt>
      <trkpt lat="48.40773" lon="7.27487">
        <ele>1068</ele>
        <time>2020-06-24T08:18:04.127Z</time>
      </trkpt>
      <trkpt lat="48.40773" lon="7.27485">
        <ele>1069</ele>
        <time>2020-06-24T08:18:05.128Z</time>
      </trkpt>
      <trkpt lat="48.40774" lon="7.27483">
        <ele>1069</ele>
        <time>2020-06-24T08:18:06.128Z</time>
      </trkpt>
      <trkpt lat="48.40774" lon="7.27481">
        <ele>1069</ele>
        <time>2020-06-24T08:18:07.127Z</time>
      </trkpt>
      <trkpt lat="48.40774" lon="7.27478">
        <ele>1069</ele>
        <time>2020-06-24T08:18:08.128Z</time>
      </trkpt>
      <trkpt lat="48.40775" lon="7.27477">
        <ele>1070</ele>
        <time>2020-06-24T08:18:09.128Z</time>
      </trkpt>
      <trkpt lat="48.40775" lon="7.27475">
        <ele>1070</ele>
        <time>2020-06-24T08:18:10.128Z</time>
      </trkpt>
      <trkpt lat="48.40775" lon="7.27473">
        <ele>1070</ele>
        <time>2020-06-24T08:18:11.128Z</time>
      </trkpt>
      <trkpt lat="48.40776" lon="7.27471">
        <ele>1070</ele>
        <time>2020-06-24T08:18:12.128Z</time>
      </trkpt>
      <trkpt lat="48.40776" lon="7.27469">
        <ele>1070</ele>
        <time>2020-06-24T08:18:13.127Z</time>
      </trkpt>
      <trkpt lat="48.40776" lon="7.27467">
        <ele>1070</ele>
        <time>2020-06-24T08:18:14.128Z</time>
      </trkpt>
      <trkpt lat="48.40777" lon="7.27465">
        <ele>1070</ele>
        <time>2020-06-24T08:18:15.128Z</time>
      </trkpt>
      <trkpt lat="48.40778" lon="7.27463">
        <ele>1070</ele>
        <time>2020-06-24T08:18:16.127Z</time>
      </trkpt>
      <trkpt lat="48.40778" lon="7.27461">
        <ele>1070</ele>
        <time>2020-06-24T08:18:17.127Z</time>
      </trkpt>
      <trkpt lat="48.40778" lon="7.27459">
        <ele>1069</ele>
        <time>2020-06-24T08:18:18.127Z</time>
      </trkpt>
      <trkpt lat="48.40778" lon="7.27457">
        <ele>1069</ele>
        <time>2020-06-24T08:18:19.128Z</time>
      </trkpt>
      <trkpt lat="48.40779" lon="7.27455">
        <ele>1069</ele>
        <time>2020-06-24T08:18:20.128Z</time>
      </trkpt>
      <trkpt lat="48.40779" lon="7.27453">
        <ele>1069</ele>
        <time>2020-06-24T08:18:21.128Z</time>
      </trkpt>
      <trkpt lat="48.40779" lon="7.27451">
        <ele>1069</ele>
        <time>2020-06-24T08:18:22.128Z</time>
      </trkpt>
      <trkpt lat="48.4078" lon="7.2745">
        <ele>1070</ele>
        <time>2020-06-24T08:18:23.127Z</time>
      </trkpt>
      <trkpt lat="48.4078" lon="7.27448">
        <ele>1070</ele>
        <time>2020-06-24T08:18:24.128Z</time>
      </trkpt>
      <trkpt lat="48.4078" lon="7.27446">
        <ele>1069</ele>
        <time>2020-06-24T08:18:25.128Z</time>
      </trkpt>
      <trkpt lat="48.40781" lon="7.27444">
        <ele>1069</ele>
        <time>2020-06-24T08:18:26.128Z</time>
      </trkpt>
      <trkpt lat="48.40781" lon="7.27442">
        <ele>1069</ele>
        <time>2020-06-24T08:18:27.127Z</time>
      </trkpt>
      <trkpt lat="48.40782" lon="7.2744">
        <ele>1069</ele>
        <time>2020-06-24T08:18:28.128Z</time>
      </trkpt>
      <trkpt lat="48.40782" lon="7.27438">
        <ele>1069</ele>
        <time>2020-06-24T08:18:29.128Z</time>
      </trkpt>
      <trkpt lat="48.40783" lon="7.27436">
        <ele>1069</ele>
        <time>2020-06-24T08:18:30.128Z</time>
      </trkpt>
      <trkpt lat="48.40783" lon="7.27434">
        <ele>1068</ele>
        <time>2020-06-24T08:18:31.128Z</time>
      </trkpt>
      <trkpt lat="48.40783" lon="7.27432">
        <ele>1068</ele>
        <time>2020-06-24T08:18:32.128Z</time>
      </trkpt>
      <trkpt lat="48.40784" lon="7.2743">
        <ele>1068</ele>
        <time>2020-06-24T08:18:33.128Z</time>
      </trkpt>
      <trkpt lat="48.40784" lon="7.27427">
        <ele>1068</ele>
        <time>2020-06-24T08:18:34.128Z</time>
      </trkpt>
      <trkpt lat="48.40784" lon="7.27425">
        <ele>1068</ele>
        <time>2020-06-24T08:18:35.128Z</time>
      </trkpt>
      <trkpt lat="48.40784" lon="7.27422">
        <ele>1068</ele>
        <time>2020-06-24T08:18:36.128Z</time>
      </trkpt>
      <trkpt lat="48.40785" lon="7.2742">
        <ele>1069</ele>
        <time>2020-06-24T08:18:37.128Z</time>
      </trkpt>
      <trkpt lat="48.40785" lon="7.27419">
        <ele>1069</ele>
        <time>2020-06-24T08:18:38.127Z</time>
      </trkpt>
      <trkpt lat="48.40785" lon="7.27417">
        <ele>1070</ele>
        <time>2020-06-24T08:18:39.127Z</time>
      </trkpt>
      <trkpt lat="48.40786" lon="7.27415">
        <ele>1070</ele>
        <time>2020-06-24T08:18:40.128Z</time>
      </trkpt>
      <trkpt lat="48.40787" lon="7.27413">
        <ele>1070</ele>
        <time>2020-06-24T08:18:41.127Z</time>
      </trkpt>
      <trkpt lat="48.40787" lon="7.27411">
        <ele>1070</ele>
        <time>2020-06-24T08:18:42.127Z</time>
      </trkpt>
      <trkpt lat="48.40788" lon="7.2741">
        <ele>1070</ele>
        <time>2020-06-24T08:18:43.127Z</time>
      </trkpt>
      <trkpt lat="48.40788" lon="7.27407">
        <ele>1070</ele>
        <time>2020-06-24T08:18:44.128Z</time>
      </trkpt>
      <trkpt lat="48.40788" lon="7.27406">
        <ele>1070</ele>
        <time>2020-06-24T08:18:45.128Z</time>
      </trkpt>
      <trkpt lat="48.40789" lon="7.27403">
        <ele>1070</ele>
        <time>2020-06-24T08:18:46.128Z</time>
      </trkpt>
      <trkpt lat="48.40789" lon="7.27402">
        <ele>1070</ele>
        <time>2020-06-24T08:18:47.127Z</time>
      </trkpt>
      <trkpt lat="48.40789" lon="7.274">
        <ele>1070</ele>
        <time>2020-06-24T08:18:48.128Z</time>
      </trkpt>
      <trkpt lat="48.40789" lon="7.27398">
        <ele>1070</ele>
        <time>2020-06-24T08:18:49.127Z</time>
      </trkpt>
      <trkpt lat="48.40789" lon="7.27396">
        <ele>1071</ele>
        <time>2020-06-24T08:18:50.128Z</time>
      </trkpt>
      <trkpt lat="48.40789" lon="7.27394">
        <ele>1071</ele>
        <time>2020-06-24T08:18:51.128Z</time>
      </trkpt>
      <trkpt lat="48.40789" lon="7.27392">
        <ele>1070</ele>
        <time>2020-06-24T08:18:52.128Z</time>
      </trkpt>
      <trkpt lat="48.40789" lon="7.2739">
        <ele>1070</ele>
        <time>2020-06-24T08:18:53.128Z</time>
      </trkpt>
      <trkpt lat="48.40788" lon="7.27387">
        <ele>1070</ele>
        <time>2020-06-24T08:18:54.127Z</time>
      </trkpt>
      <trkpt lat="48.40788" lon="7.27385">
        <ele>1070</ele>
        <time>2020-06-24T08:18:55.128Z</time>
      </trkpt>
      <trkpt lat="48.40788" lon="7.27383">
        <ele>1069</ele>
        <time>2020-06-24T08:18:56.128Z</time>
      </trkpt>
      <trkpt lat="48.40788" lon="7.27381">
        <ele>1069</ele>
        <time>2020-06-24T08:18:57.127Z</time>
      </trkpt>
      <trkpt lat="48.40787" lon="7.27379">
        <ele>1069</ele>
        <time>2020-06-24T08:18:58.128Z</time>
      </trkpt>
      <trkpt lat="48.40787" lon="7.27377">
        <ele>1069</ele>
        <time>2020-06-24T08:18:59.128Z</time>
      </trkpt>
      <trkpt lat="48.40786" lon="7.27375">
        <ele>1069</ele>
        <time>2020-06-24T08:19:00.128Z</time>
      </trkpt>
      <trkpt lat="48.40785" lon="7.27374">
        <ele>1069</ele>
        <time>2020-06-24T08:19:01.128Z</time>
      </trkpt>
      <trkpt lat="48.40784" lon="7.27372">
        <ele>1069</ele>
        <time>2020-06-24T08:19:02.128Z</time>
      </trkpt>
      <trkpt lat="48.40783" lon="7.2737">
        <ele>1069</ele>
        <time>2020-06-24T08:19:03.128Z</time>
      </trkpt>
      <trkpt lat="48.40782" lon="7.27369">
        <ele>1069</ele>
        <time>2020-06-24T08:19:04.127Z</time>
      </trkpt>
      <trkpt lat="48.40781" lon="7.27368">
        <ele>1069</ele>
        <time>2020-06-24T08:19:05.128Z</time>
      </trkpt>
      <trkpt lat="48.4078" lon="7.27367">
        <ele>1069</ele>
        <time>2020-06-24T08:19:06.127Z</time>
      </trkpt>
      <trkpt lat="48.40779" lon="7.27365">
        <ele>1069</ele>
        <time>2020-06-24T08:19:07.128Z</time>
      </trkpt>
      <trkpt lat="48.40778" lon="7.27364">
        <ele>1068</ele>
        <time>2020-06-24T08:19:08.127Z</time>
      </trkpt>
      <trkpt lat="48.40777" lon="7.27363">
        <ele>1068</ele>
        <time>2020-06-24T08:19:09.128Z</time>
      </trkpt>
      <trkpt lat="48.40776" lon="7.27362">
        <ele>1067</ele>
        <time>2020-06-24T08:19:10.127Z</time>
      </trkpt>
      <trkpt lat="48.40776" lon="7.27361">
        <ele>1066</ele>
        <time>2020-06-24T08:19:11.128Z</time>
      </trkpt>
      <trkpt lat="48.40775" lon="7.2736">
        <ele>1065</ele>
        <time>2020-06-24T08:19:12.128Z</time>
      </trkpt>
      <trkpt lat="48.40774" lon="7.2736">
        <ele>1065</ele>
        <time>2020-06-24T08:19:13.127Z</time>
      </trkpt>
      <trkpt lat="48.40773" lon="7.27359">
        <ele>1064</ele>
        <time>2020-06-24T08:19:14.128Z</time>
      </trkpt>
      <trkpt lat="48.40772" lon="7.27358">
        <ele>1064</ele>
        <time>2020-06-24T08:19:15.128Z</time>
      </trkpt>
      <trkpt lat="48.40771" lon="7.27358">
        <ele>1065</ele>
        <time>2020-06-24T08:19:16.128Z</time>
      </trkpt>
      <trkpt lat="48.40771" lon="7.27358">
        <ele>1065</ele>
        <time>2020-06-24T08:19:17.128Z</time>
      </trkpt>
      <trkpt lat="48.40771" lon="7.27358">
        <ele>1065</ele>
        <time>2020-06-24T08:19:18.128Z</time>
      </trkpt>
      <trkpt lat="48.4077" lon="7.27358">
        <ele>1065</ele>
        <time>2020-06-24T08:19:19.128Z</time>
      </trkpt>
      <trkpt lat="48.40771" lon="7.27357">
        <ele>1065</ele>
        <time>2020-06-24T08:19:20.127Z</time>
      </trkpt>
      <trkpt lat="48.40772" lon="7.27357">
        <ele>1065</ele>
        <time>2020-06-24T08:19:21.128Z</time>
      </trkpt>
      <trkpt lat="48.40774" lon="7.27358">
        <ele>1065</ele>
        <time>2020-06-24T08:19:22.128Z</time>
      </trkpt>
      <trkpt lat="48.40775" lon="7.27359">
        <ele>1065</ele>
        <time>2020-06-24T08:19:23.127Z</time>
      </trkpt>
      <trkpt lat="48.40776" lon="7.27359">
        <ele>1065</ele>
        <time>2020-06-24T08:19:24.127Z</time>
      </trkpt>
      <trkpt lat="48.40777" lon="7.2736">
        <ele>1065</ele>
        <time>2020-06-24T08:19:25.127Z</time>
      </trkpt>
      <trkpt lat="48.40778" lon="7.2736">
        <ele>1065</ele>
        <time>2020-06-24T08:19:26.127Z</time>
      </trkpt>
      <trkpt lat="48.40779" lon="7.27361">
        <ele>1065</ele>
        <time>2020-06-24T08:19:27.128Z</time>
      </trkpt>
      <trkpt lat="48.4078" lon="7.27362">
        <ele>1065</ele>
        <time>2020-06-24T08:19:28.127Z</time>
      </trkpt>
      <trkpt lat="48.40782" lon="7.27363">
        <ele>1065</ele>
        <time>2020-06-24T08:19:29.127Z</time>
      </trkpt>
      <trkpt lat="48.40783" lon="7.27363">
        <ele>1065</ele>
        <time>2020-06-24T08:19:30.128Z</time>
      </trkpt>
      <trkpt lat="48.40785" lon="7.27363">
        <ele>1064</ele>
        <time>2020-06-24T08:19:31.128Z</time>
      </trkpt>
      <trkpt lat="48.40786" lon="7.27363">
        <ele>1063</ele>
        <time>2020-06-24T08:19:32.128Z</time>
      </trkpt>
      <trkpt lat="48.40787" lon="7.27362">
        <ele>1062</ele>
        <time>2020-06-24T08:19:33.128Z</time>
      </trkpt>
      <trkpt lat="48.40787" lon="7.27361">
        <ele>1062</ele>
        <time>2020-06-24T08:19:34.128Z</time>
      </trkpt>
      <trkpt lat="48.40788" lon="7.2736">
        <ele>1062</ele>
        <time>2020-06-24T08:19:35.127Z</time>
      </trkpt>
      <trkpt lat="48.40789" lon="7.27358">
        <ele>1062</ele>
        <time>2020-06-24T08:19:36.128Z</time>
      </trkpt>
      <trkpt lat="48.40789" lon="7.27356">
        <ele>1063</ele>
        <time>2020-06-24T08:19:37.127Z</time>
      </trkpt>
      <trkpt lat="48.4079" lon="7.27354">
        <ele>1063</ele>
        <time>2020-06-24T08:19:38.128Z</time>
      </trkpt>
      <trkpt lat="48.4079" lon="7.27352">
        <ele>1063</ele>
        <time>2020-06-24T08:19:39.128Z</time>
      </trkpt>
      <trkpt lat="48.40791" lon="7.2735">
        <ele>1063</ele>
        <time>2020-06-24T08:19:40.127Z</time>
      </trkpt>
      <trkpt lat="48.40792" lon="7.27348">
        <ele>1064</ele>
        <time>2020-06-24T08:19:41.128Z</time>
      </trkpt>
      <trkpt lat="48.40792" lon="7.27346">
        <ele>1064</ele>
        <time>2020-06-24T08:19:42.128Z</time>
      </trkpt>
      <trkpt lat="48.40793" lon="7.27345">
        <ele>1065</ele>
        <time>2020-06-24T08:19:43.127Z</time>
      </trkpt>
      <trkpt lat="48.40793" lon="7.27343">
        <ele>1065</ele>
        <time>2020-06-24T08:19:44.128Z</time>
      </trkpt>
      <trkpt lat="48.40794" lon="7.2734">
        <ele>1065</ele>
        <time>2020-06-24T08:19:45.128Z</time>
      </trkpt>
      <trkpt lat="48.40794" lon="7.27338">
        <ele>1066</ele>
        <time>2020-06-24T08:19:46.128Z</time>
      </trkpt>
      <trkpt lat="48.40795" lon="7.27336">
        <ele>1066</ele>
        <time>2020-06-24T08:19:47.128Z</time>
      </trkpt>
      <trkpt lat="48.40795" lon="7.27335">
        <ele>1066</ele>
        <time>2020-06-24T08:19:48.128Z</time>
      </trkpt>
      <trkpt lat="48.40795" lon="7.27334">
        <ele>1066</ele>
        <time>2020-06-24T08:19:49.127Z</time>
      </trkpt>
      <trkpt lat="48.40795" lon="7.27331">
        <ele>1066</ele>
        <time>2020-06-24T08:19:50.128Z</time>
      </trkpt>
      <trkpt lat="48.40795" lon="7.27329">
        <ele>1065</ele>
        <time>2020-06-24T08:19:51.128Z</time>
      </trkpt>
      <trkpt lat="48.40795" lon="7.27328">
        <ele>1064</ele>
        <time>2020-06-24T08:19:52.128Z</time>
      </trkpt>
      <trkpt lat="48.40795" lon="7.27326">
        <ele>1064</ele>
        <time>2020-06-24T08:19:53.127Z</time>
      </trkpt>
      <trkpt lat="48.40795" lon="7.27323">
        <ele>1064</ele>
        <time>2020-06-24T08:19:54.128Z</time>
      </trkpt>
      <trkpt lat="48.40795" lon="7.27322">
        <ele>1064</ele>
        <time>2020-06-24T08:19:55.128Z</time>
      </trkpt>
      <trkpt lat="48.40795" lon="7.2732">
        <ele>1064</ele>
        <time>2020-06-24T08:19:56.128Z</time>
      </trkpt>
      <trkpt lat="48.40795" lon="7.27319">
        <ele>1063</ele>
        <time>2020-06-24T08:19:57.128Z</time>
      </trkpt>
      <trkpt lat="48.40795" lon="7.27317">
        <ele>1063</ele>
        <time>2020-06-24T08:19:58.127Z</time>
      </trkpt>
      <trkpt lat="48.40795" lon="7.27315">
        <ele>1063</ele>
        <time>2020-06-24T08:19:59.128Z</time>
      </trkpt>
      <trkpt lat="48.40794" lon="7.27313">
        <ele>1062</ele>
        <time>2020-06-24T08:20:00.128Z</time>
      </trkpt>
      <trkpt lat="48.40795" lon="7.27312">
        <ele>1062</ele>
        <time>2020-06-24T08:20:01.128Z</time>
      </trkpt>
      <trkpt lat="48.40795" lon="7.27311">
        <ele>1061</ele>
        <time>2020-06-24T08:20:02.128Z</time>
      </trkpt>
      <trkpt lat="48.40795" lon="7.2731">
        <ele>1061</ele>
        <time>2020-06-24T08:20:03.128Z</time>
      </trkpt>
      <trkpt lat="48.40795" lon="7.2731">
        <ele>1061</ele>
        <time>2020-06-24T08:20:04.127Z</time>
      </trkpt>
      <trkpt lat="48.40795" lon="7.2731">
        <ele>1061</ele>
        <time>2020-06-24T08:20:05.128Z</time>
      </trkpt>
      <trkpt lat="48.40796" lon="7.2731">
        <ele>1061</ele>
        <time>2020-06-24T08:20:06.128Z</time>
      </trkpt>
      <trkpt lat="48.40796" lon="7.27311">
        <ele>1061</ele>
        <time>2020-06-24T08:20:07.128Z</time>
      </trkpt>
      <trkpt lat="48.40797" lon="7.27311">
        <ele>1061</ele>
        <time>2020-06-24T08:20:08.128Z</time>
      </trkpt>
      <trkpt lat="48.40797" lon="7.27311">
        <ele>1061</ele>
        <time>2020-06-24T08:20:09.128Z</time>
      </trkpt>
      <trkpt lat="48.40799" lon="7.27314">
        <ele>1057</ele>
        <time>2020-06-24T08:20:10.128Z</time>
      </trkpt>
      <trkpt lat="48.408" lon="7.27316">
        <ele>1058</ele>
        <time>2020-06-24T08:20:11.127Z</time>
      </trkpt>
      <trkpt lat="48.40801" lon="7.27319">
        <ele>1058</ele>
        <time>2020-06-24T08:20:12.127Z</time>
      </trkpt>
      <trkpt lat="48.40801" lon="7.27321">
        <ele>1058</ele>
        <time>2020-06-24T08:20:13.127Z</time>
      </trkpt>
      <trkpt lat="48.40802" lon="7.27323">
        <ele>1058</ele>
        <time>2020-06-24T08:20:14.127Z</time>
      </trkpt>
      <trkpt lat="48.40803" lon="7.27325">
        <ele>1058</ele>
        <time>2020-06-24T08:20:15.128Z</time>
      </trkpt>
      <trkpt lat="48.40803" lon="7.27328">
        <ele>1058</ele>
        <time>2020-06-24T08:20:16.128Z</time>
      </trkpt>
      <trkpt lat="48.40803" lon="7.2733">
        <ele>1058</ele>
        <time>2020-06-24T08:20:17.127Z</time>
      </trkpt>
      <trkpt lat="48.40803" lon="7.27332">
        <ele>1059</ele>
        <time>2020-06-24T08:20:18.127Z</time>
      </trkpt>
      <trkpt lat="48.40804" lon="7.27334">
        <ele>1059</ele>
        <time>2020-06-24T08:20:19.128Z</time>
      </trkpt>
      <trkpt lat="48.40804" lon="7.27336">
        <ele>1059</ele>
        <time>2020-06-24T08:20:20.128Z</time>
      </trkpt>
      <trkpt lat="48.40805" lon="7.27337">
        <ele>1060</ele>
        <time>2020-06-24T08:20:21.128Z</time>
      </trkpt>
      <trkpt lat="48.40806" lon="7.27338">
        <ele>1060</ele>
        <time>2020-06-24T08:20:22.128Z</time>
      </trkpt>
      <trkpt lat="48.40807" lon="7.27339">
        <ele>1061</ele>
        <time>2020-06-24T08:20:23.128Z</time>
      </trkpt>
      <trkpt lat="48.40808" lon="7.2734">
        <ele>1061</ele>
        <time>2020-06-24T08:20:24.127Z</time>
      </trkpt>
      <trkpt lat="48.40809" lon="7.27343">
        <ele>1062</ele>
        <time>2020-06-24T08:20:25.127Z</time>
      </trkpt>
      <trkpt lat="48.4081" lon="7.27345">
        <ele>1063</ele>
        <time>2020-06-24T08:20:26.127Z</time>
      </trkpt>
      <trkpt lat="48.4081" lon="7.27347">
        <ele>1064</ele>
        <time>2020-06-24T08:20:27.127Z</time>
      </trkpt>
      <trkpt lat="48.4081" lon="7.27348">
        <ele>1064</ele>
        <time>2020-06-24T08:20:28.127Z</time>
      </trkpt>
      <trkpt lat="48.4081" lon="7.2735">
        <ele>1065</ele>
        <time>2020-06-24T08:20:29.127Z</time>
      </trkpt>
      <trkpt lat="48.4081" lon="7.27352">
        <ele>1065</ele>
        <time>2020-06-24T08:20:30.128Z</time>
      </trkpt>
      <trkpt lat="48.4081" lon="7.27354">
        <ele>1066</ele>
        <time>2020-06-24T08:20:31.128Z</time>
      </trkpt>
      <trkpt lat="48.40811" lon="7.27356">
        <ele>1066</ele>
        <time>2020-06-24T08:20:32.128Z</time>
      </trkpt>
      <trkpt lat="48.40811" lon="7.27357">
        <ele>1066</ele>
        <time>2020-06-24T08:20:33.128Z</time>
      </trkpt>
      <trkpt lat="48.40811" lon="7.2736">
        <ele>1067</ele>
        <time>2020-06-24T08:20:34.128Z</time>
      </trkpt>
      <trkpt lat="48.40811" lon="7.27362">
        <ele>1067</ele>
        <time>2020-06-24T08:20:35.128Z</time>
      </trkpt>
      <trkpt lat="48.40811" lon="7.27363">
        <ele>1066</ele>
        <time>2020-06-24T08:20:36.127Z</time>
      </trkpt>
      <trkpt lat="48.4081" lon="7.27365">
        <ele>1066</ele>
        <time>2020-06-24T08:20:37.128Z</time>
      </trkpt>
      <trkpt lat="48.4081" lon="7.27367">
        <ele>1065</ele>
        <time>2020-06-24T08:20:38.127Z</time>
      </trkpt>
      <trkpt lat="48.4081" lon="7.27369">
        <ele>1065</ele>
        <time>2020-06-24T08:20:39.128Z</time>
      </trkpt>
      <trkpt lat="48.4081" lon="7.27371">
        <ele>1064</ele>
        <time>2020-06-24T08:20:40.128Z</time>
      </trkpt>
      <trkpt lat="48.4081" lon="7.27372">
        <ele>1064</ele>
        <time>2020-06-24T08:20:41.127Z</time>
      </trkpt>
      <trkpt lat="48.40811" lon="7.27374">
        <ele>1063</ele>
        <time>2020-06-24T08:20:42.128Z</time>
      </trkpt>
      <trkpt lat="48.40811" lon="7.27376">
        <ele>1064</ele>
        <time>2020-06-24T08:20:43.128Z</time>
      </trkpt>
      <trkpt lat="48.40812" lon="7.27378">
        <ele>1064</ele>
        <time>2020-06-24T08:20:44.127Z</time>
      </trkpt>
      <trkpt lat="48.40812" lon="7.2738">
        <ele>1064</ele>
        <time>2020-06-24T08:20:45.127Z</time>
      </trkpt>
      <trkpt lat="48.40812" lon="7.27382">
        <ele>1064</ele>
        <time>2020-06-24T08:20:46.127Z</time>
      </trkpt>
      <trkpt lat="48.40813" lon="7.27383">
        <ele>1064</ele>
        <time>2020-06-24T08:20:47.127Z</time>
      </trkpt>
      <trkpt lat="48.40813" lon="7.27385">
        <ele>1064</ele>
        <time>2020-06-24T08:20:48.128Z</time>
      </trkpt>
      <trkpt lat="48.40813" lon="7.27386">
        <ele>1064</ele>
        <time>2020-06-24T08:20:49.128Z</time>
      </trkpt>
      <trkpt lat="48.40814" lon="7.27386">
        <ele>1064</ele>
        <time>2020-06-24T08:20:50.127Z</time>
      </trkpt>
      <trkpt lat="48.40815" lon="7.27387">
        <ele>1064</ele>
        <time>2020-06-24T08:20:51.127Z</time>
      </trkpt>
      <trkpt lat="48.40815" lon="7.27387">
        <ele>1064</ele>
        <time>2020-06-24T08:20:52.128Z</time>
      </trkpt>
      <trkpt lat="48.40816" lon="7.27387">
        <ele>1063</ele>
        <time>2020-06-24T08:20:53.127Z</time>
      </trkpt>
      <trkpt lat="48.40816" lon="7.27387">
        <ele>1063</ele>
        <time>2020-06-24T08:20:54.128Z</time>
      </trkpt>
      <trkpt lat="48.40816" lon="7.27387">
        <ele>1063</ele>
        <time>2020-06-24T08:20:55.128Z</time>
      </trkpt>
      <trkpt lat="48.40817" lon="7.27387">
        <ele>1063</ele>
        <time>2020-06-24T08:20:56.127Z</time>
      </trkpt>
      <trkpt lat="48.40817" lon="7.27387">
        <ele>1063</ele>
        <time>2020-06-24T08:20:57.127Z</time>
      </trkpt>
      <trkpt lat="48.40818" lon="7.27386">
        <ele>1063</ele>
        <time>2020-06-24T08:20:58.128Z</time>
      </trkpt>
      <trkpt lat="48.40818" lon="7.27383">
        <ele>1062</ele>
        <time>2020-06-24T08:20:59.127Z</time>
      </trkpt>
      <trkpt lat="48.40819" lon="7.2738">
        <ele>1062</ele>
        <time>2020-06-24T08:21:00.128Z</time>
      </trkpt>
      <trkpt lat="48.4082" lon="7.27378">
        <ele>1062</ele>
        <time>2020-06-24T08:21:01.128Z</time>
      </trkpt>
      <trkpt lat="48.40821" lon="7.27377">
        <ele>1061</ele>
        <time>2020-06-24T08:21:02.127Z</time>
      </trkpt>
      <trkpt lat="48.40823" lon="7.27377">
        <ele>1061</ele>
        <time>2020-06-24T08:21:03.128Z</time>
      </trkpt>
      <trkpt lat="48.40824" lon="7.27377">
        <ele>1061</ele>
        <time>2020-06-24T08:21:04.127Z</time>
      </trkpt>
      <trkpt lat="48.40825" lon="7.27377">
        <ele>1062</ele>
        <time>2020-06-24T08:21:05.128Z</time>
      </trkpt>
      <trkpt lat="48.40826" lon="7.27377">
        <ele>1062</ele>
        <time>2020-06-24T08:21:06.128Z</time>
      </trkpt>
      <trkpt lat="48.40827" lon="7.27377">
        <ele>1062</ele>
        <time>2020-06-24T08:21:07.128Z</time>
      </trkpt>
      <trkpt lat="48.40828" lon="7.27376">
        <ele>1062</ele>
        <time>2020-06-24T08:21:08.127Z</time>
      </trkpt>
      <trkpt lat="48.40829" lon="7.27376">
        <ele>1062</ele>
        <time>2020-06-24T08:21:09.128Z</time>
      </trkpt>
      <trkpt lat="48.4083" lon="7.27376">
        <ele>1062</ele>
        <time>2020-06-24T08:21:10.128Z</time>
      </trkpt>
      <trkpt lat="48.40831" lon="7.27376">
        <ele>1063</ele>
        <time>2020-06-24T08:21:11.128Z</time>
      </trkpt>
      <trkpt lat="48.40832" lon="7.27376">
        <ele>1063</ele>
        <time>2020-06-24T08:21:12.127Z</time>
      </trkpt>
      <trkpt lat="48.40831" lon="7.27376">
        <ele>1063</ele>
        <time>2020-06-24T08:21:13.128Z</time>
      </trkpt>
      <trkpt lat="48.40831" lon="7.27377">
        <ele>1064</ele>
        <time>2020-06-24T08:21:14.128Z</time>
      </trkpt>
      <trkpt lat="48.40831" lon="7.27377">
        <ele>1064</ele>
        <time>2020-06-24T08:21:15.128Z</time>
      </trkpt>
      <trkpt lat="48.40832" lon="7.27377">
        <ele>1064</ele>
        <time>2020-06-24T08:21:16.127Z</time>
      </trkpt>
      <trkpt lat="48.40833" lon="7.27377">
        <ele>1065</ele>
        <time>2020-06-24T08:21:17.128Z</time>
      </trkpt>
      <trkpt lat="48.40835" lon="7.27379">
        <ele>1065</ele>
        <time>2020-06-24T08:21:18.127Z</time>
      </trkpt>
      <trkpt lat="48.40836" lon="7.27379">
        <ele>1064</ele>
        <time>2020-06-24T08:21:19.128Z</time>
      </trkpt>
      <trkpt lat="48.40837" lon="7.27379">
        <ele>1064</ele>
        <time>2020-06-24T08:21:20.128Z</time>
      </trkpt>
      <trkpt lat="48.40838" lon="7.27379">
        <ele>1064</ele>
        <time>2020-06-24T08:21:21.127Z</time>
      </trkpt>
      <trkpt lat="48.4084" lon="7.27379">
        <ele>1063</ele>
        <time>2020-06-24T08:21:22.128Z</time>
      </trkpt>
      <trkpt lat="48.40842" lon="7.27379">
        <ele>1063</ele>
        <time>2020-06-24T08:21:23.128Z</time>
      </trkpt>
      <trkpt lat="48.40843" lon="7.27379">
        <ele>1062</ele>
        <time>2020-06-24T08:21:24.128Z</time>
      </trkpt>
      <trkpt lat="48.40844" lon="7.2738">
        <ele>1061</ele>
        <time>2020-06-24T08:21:25.127Z</time>
      </trkpt>
      <trkpt lat="48.40846" lon="7.2738">
        <ele>1060</ele>
        <time>2020-06-24T08:21:26.128Z</time>
      </trkpt>
      <trkpt lat="48.40848" lon="7.27379">
        <ele>1060</ele>
        <time>2020-06-24T08:21:27.128Z</time>
      </trkpt>
      <trkpt lat="48.40849" lon="7.27379">
        <ele>1060</ele>
        <time>2020-06-24T08:21:28.127Z</time>
      </trkpt>
      <trkpt lat="48.4085" lon="7.27379">
        <ele>1060</ele>
        <time>2020-06-24T08:21:29.127Z</time>
      </trkpt>
      <trkpt lat="48.40851" lon="7.27379">
        <ele>1060</ele>
        <time>2020-06-24T08:21:30.128Z</time>
      </trkpt>
      <trkpt lat="48.40852" lon="7.27378">
        <ele>1060</ele>
        <time>2020-06-24T08:21:31.128Z</time>
      </trkpt>
      <trkpt lat="48.40853" lon="7.27377">
        <ele>1060</ele>
        <time>2020-06-24T08:21:32.128Z</time>
      </trkpt>
      <trkpt lat="48.40853" lon="7.27375">
        <ele>1060</ele>
        <time>2020-06-24T08:21:33.127Z</time>
      </trkpt>
      <trkpt lat="48.40854" lon="7.27374">
        <ele>1060</ele>
        <time>2020-06-24T08:21:34.128Z</time>
      </trkpt>
      <trkpt lat="48.40854" lon="7.27372">
        <ele>1060</ele>
        <time>2020-06-24T08:21:35.128Z</time>
      </trkpt>
      <trkpt lat="48.40854" lon="7.2737">
        <ele>1059</ele>
        <time>2020-06-24T08:21:36.128Z</time>
      </trkpt>
      <trkpt lat="48.40854" lon="7.27369">
        <ele>1059</ele>
        <time>2020-06-24T08:21:37.128Z</time>
      </trkpt>
      <trkpt lat="48.40854" lon="7.27368">
        <ele>1058</ele>
        <time>2020-06-24T08:21:38.128Z</time>
      </trkpt>
      <trkpt lat="48.40854" lon="7.27366">
        <ele>1058</ele>
        <time>2020-06-24T08:21:39.128Z</time>
      </trkpt>
      <trkpt lat="48.40854" lon="7.27365">
        <ele>1058</ele>
        <time>2020-06-24T08:21:40.127Z</time>
      </trkpt>
      <trkpt lat="48.40854" lon="7.27363">
        <ele>1058</ele>
        <time>2020-06-24T08:21:41.127Z</time>
      </trkpt>
      <trkpt lat="48.40854" lon="7.27362">
        <ele>1058</ele>
        <time>2020-06-24T08:21:42.128Z</time>
      </trkpt>
      <trkpt lat="48.40853" lon="7.27361">
        <ele>1058</ele>
        <time>2020-06-24T08:21:43.127Z</time>
      </trkpt>
      <trkpt lat="48.40853" lon="7.27359">
        <ele>1058</ele>
        <time>2020-06-24T08:21:44.127Z</time>
      </trkpt>
      <trkpt lat="48.40853" lon="7.27357">
        <ele>1058</ele>
        <time>2020-06-24T08:21:45.128Z</time>
      </trkpt>
      <trkpt lat="48.40853" lon="7.27356">
        <ele>1058</ele>
        <time>2020-06-24T08:21:46.128Z</time>
      </trkpt>
      <trkpt lat="48.40852" lon="7.27354">
        <ele>1058</ele>
        <time>2020-06-24T08:21:47.127Z</time>
      </trkpt>
      <trkpt lat="48.40852" lon="7.27353">
        <ele>1058</ele>
        <time>2020-06-24T08:21:48.127Z</time>
      </trkpt>
      <trkpt lat="48.40851" lon="7.27352">
        <ele>1058</ele>
        <time>2020-06-24T08:21:49.128Z</time>
      </trkpt>
      <trkpt lat="48.40851" lon="7.2735">
        <ele>1058</ele>
        <time>2020-06-24T08:21:50.128Z</time>
      </trkpt>
      <trkpt lat="48.40851" lon="7.27349">
        <ele>1059</ele>
        <time>2020-06-24T08:21:51.127Z</time>
      </trkpt>
      <trkpt lat="48.4085" lon="7.27347">
        <ele>1059</ele>
        <time>2020-06-24T08:21:52.128Z</time>
      </trkpt>
      <trkpt lat="48.4085" lon="7.27345">
        <ele>1059</ele>
        <time>2020-06-24T08:21:53.128Z</time>
      </trkpt>
      <trkpt lat="48.4085" lon="7.27343">
        <ele>1059</ele>
        <time>2020-06-24T08:21:54.127Z</time>
      </trkpt>
      <trkpt lat="48.4085" lon="7.27341">
        <ele>1059</ele>
        <time>2020-06-24T08:21:55.127Z</time>
      </trkpt>
      <trkpt lat="48.4085" lon="7.27339">
        <ele>1059</ele>
        <time>2020-06-24T08:21:56.128Z</time>
      </trkpt>
      <trkpt lat="48.40849" lon="7.27337">
        <ele>1058</ele>
        <time>2020-06-24T08:21:57.128Z</time>
      </trkpt>
      <trkpt lat="48.40849" lon="7.27335">
        <ele>1057</ele>
        <time>2020-06-24T08:21:58.127Z</time>
      </trkpt>
      <trkpt lat="48.40848" lon="7.27333">
        <ele>1057</ele>
        <time>2020-06-24T08:21:59.128Z</time>
      </trkpt>
      <trkpt lat="48.40848" lon="7.27331">
        <ele>1057</ele>
        <time>2020-06-24T08:22:00.128Z</time>
      </trkpt>
      <trkpt lat="48.40848" lon="7.27329">
        <ele>1057</ele>
        <time>2020-06-24T08:22:01.128Z</time>
      </trkpt>
      <trkpt lat="48.40847" lon="7.27327">
        <ele>1057</ele>
        <time>2020-06-24T08:22:02.128Z</time>
      </trkpt>
      <trkpt lat="48.40846" lon="7.27326">
        <ele>1057</ele>
        <time>2020-06-24T08:22:03.128Z</time>
      </trkpt>
      <trkpt lat="48.40846" lon="7.27324">
        <ele>1057</ele>
        <time>2020-06-24T08:22:04.128Z</time>
      </trkpt>
      <trkpt lat="48.40845" lon="7.27322">
        <ele>1058</ele>
        <time>2020-06-24T08:22:05.128Z</time>
      </trkpt>
      <trkpt lat="48.40845" lon="7.2732">
        <ele>1057</ele>
        <time>2020-06-24T08:22:06.128Z</time>
      </trkpt>
      <trkpt lat="48.40844" lon="7.27318">
        <ele>1057</ele>
        <time>2020-06-24T08:22:07.127Z</time>
      </trkpt>
      <trkpt lat="48.40843" lon="7.27316">
        <ele>1057</ele>
        <time>2020-06-24T08:22:08.128Z</time>
      </trkpt>
      <trkpt lat="48.40843" lon="7.27314">
        <ele>1057</ele>
        <time>2020-06-24T08:22:09.128Z</time>
      </trkpt>
      <trkpt lat="48.40843" lon="7.27312">
        <ele>1057</ele>
        <time>2020-06-24T08:22:10.128Z</time>
      </trkpt>
      <trkpt lat="48.40842" lon="7.2731">
        <ele>1057</ele>
        <time>2020-06-24T08:22:11.127Z</time>
      </trkpt>
      <trkpt lat="48.40842" lon="7.27308">
        <ele>1058</ele>
        <time>2020-06-24T08:22:12.128Z</time>
      </trkpt>
      <trkpt lat="48.40841" lon="7.27306">
        <ele>1058</ele>
        <time>2020-06-24T08:22:13.128Z</time>
      </trkpt>
      <trkpt lat="48.40841" lon="7.27305">
        <ele>1057</ele>
        <time>2020-06-24T08:22:14.128Z</time>
      </trkpt>
      <trkpt lat="48.40841" lon="7.27303">
        <ele>1057</ele>
        <time>2020-06-24T08:22:15.128Z</time>
      </trkpt>
      <trkpt lat="48.40841" lon="7.27302">
        <ele>1057</ele>
        <time>2020-06-24T08:22:16.128Z</time>
      </trkpt>
      <trkpt lat="48.40841" lon="7.27301">
        <ele>1057</ele>
        <time>2020-06-24T08:22:17.128Z</time>
      </trkpt>
      <trkpt lat="48.40841" lon="7.27301">
        <ele>1057</ele>
        <time>2020-06-24T08:22:18.128Z</time>
      </trkpt>
      <trkpt lat="48.40841" lon="7.27301">
        <ele>1057</ele>
        <time>2020-06-24T08:22:19.127Z</time>
      </trkpt>
      <trkpt lat="48.4084" lon="7.27302">
        <ele>1058</ele>
        <time>2020-06-24T08:22:20.127Z</time>
      </trkpt>
      <trkpt lat="48.4084" lon="7.27302">
        <ele>1058</ele>
        <time>2020-06-24T08:22:21.128Z</time>
      </trkpt>
      <trkpt lat="48.4084" lon="7.27302">
        <ele>1058</ele>
        <time>2020-06-24T08:22:22.128Z</time>
      </trkpt>
      <trkpt lat="48.4084" lon="7.27302">
        <ele>1058</ele>
        <time>2020-06-24T08:22:23.128Z</time>
      </trkpt>
      <trkpt lat="48.4084" lon="7.27302">
        <ele>1058</ele>
        <time>2020-06-24T08:22:24.128Z</time>
      </trkpt>
      <trkpt lat="48.40841" lon="7.27302">
        <ele>1058</ele>
        <time>2020-06-24T08:22:25.128Z</time>
      </trkpt>
      <trkpt lat="48.4084" lon="7.27295">
        <ele>1059</ele>
        <time>2020-06-24T08:22:26.129Z</time>
      </trkpt>
      <trkpt lat="48.4084" lon="7.27293">
        <ele>1059</ele>
        <time>2020-06-24T08:22:27.128Z</time>
      </trkpt>
      <trkpt lat="48.40839" lon="7.2729">
        <ele>1059</ele>
        <time>2020-06-24T08:22:28.129Z</time>
      </trkpt>
      <trkpt lat="48.40838" lon="7.27288">
        <ele>1060</ele>
        <time>2020-06-24T08:22:29.128Z</time>
      </trkpt>
      <trkpt lat="48.40838" lon="7.27286">
        <ele>1060</ele>
        <time>2020-06-24T08:22:30.128Z</time>
      </trkpt>
      <trkpt lat="48.40837" lon="7.27283">
        <ele>1060</ele>
        <time>2020-06-24T08:22:31.128Z</time>
      </trkpt>
      <trkpt lat="48.40836" lon="7.27281">
        <ele>1060</ele>
        <time>2020-06-24T08:22:32.128Z</time>
      </trkpt>
      <trkpt lat="48.40835" lon="7.27278">
        <ele>1061</ele>
        <time>2020-06-24T08:22:33.129Z</time>
      </trkpt>
      <trkpt lat="48.40835" lon="7.27276">
        <ele>1061</ele>
        <time>2020-06-24T08:22:34.128Z</time>
      </trkpt>
      <trkpt lat="48.40834" lon="7.27274">
        <ele>1061</ele>
        <time>2020-06-24T08:22:35.128Z</time>
      </trkpt>
      <trkpt lat="48.40834" lon="7.27272">
        <ele>1062</ele>
        <time>2020-06-24T08:22:36.128Z</time>
      </trkpt>
      <trkpt lat="48.40833" lon="7.2727">
        <ele>1063</ele>
        <time>2020-06-24T08:22:37.128Z</time>
      </trkpt>
      <trkpt lat="48.40833" lon="7.27268">
        <ele>1063</ele>
        <time>2020-06-24T08:22:38.129Z</time>
      </trkpt>
      <trkpt lat="48.40833" lon="7.27266">
        <ele>1063</ele>
        <time>2020-06-24T08:22:39.128Z</time>
      </trkpt>
      <trkpt lat="48.40832" lon="7.27264">
        <ele>1063</ele>
        <time>2020-06-24T08:22:40.128Z</time>
      </trkpt>
      <trkpt lat="48.40832" lon="7.27261">
        <ele>1063</ele>
        <time>2020-06-24T08:22:41.128Z</time>
      </trkpt>
      <trkpt lat="48.40831" lon="7.27259">
        <ele>1064</ele>
        <time>2020-06-24T08:22:42.129Z</time>
      </trkpt>
      <trkpt lat="48.4083" lon="7.27256">
        <ele>1064</ele>
        <time>2020-06-24T08:22:43.128Z</time>
      </trkpt>
      <trkpt lat="48.4083" lon="7.27254">
        <ele>1064</ele>
        <time>2020-06-24T08:22:44.128Z</time>
      </trkpt>
      <trkpt lat="48.40829" lon="7.27252">
        <ele>1064</ele>
        <time>2020-06-24T08:22:45.129Z</time>
      </trkpt>
      <trkpt lat="48.40829" lon="7.2725">
        <ele>1064</ele>
        <time>2020-06-24T08:22:46.128Z</time>
      </trkpt>
      <trkpt lat="48.40828" lon="7.27247">
        <ele>1063</ele>
        <time>2020-06-24T08:22:47.128Z</time>
      </trkpt>
      <trkpt lat="48.40828" lon="7.27245">
        <ele>1063</ele>
        <time>2020-06-24T08:22:48.128Z</time>
      </trkpt>
      <trkpt lat="48.40828" lon="7.27243">
        <ele>1062</ele>
        <time>2020-06-24T08:22:49.129Z</time>
      </trkpt>
      <trkpt lat="48.40827" lon="7.27241">
        <ele>1062</ele>
        <time>2020-06-24T08:22:50.128Z</time>
      </trkpt>
      <trkpt lat="48.40827" lon="7.27239">
        <ele>1062</ele>
        <time>2020-06-24T08:22:51.129Z</time>
      </trkpt>
      <trkpt lat="48.40827" lon="7.27238">
        <ele>1062</ele>
        <time>2020-06-24T08:22:52.128Z</time>
      </trkpt>
      <trkpt lat="48.40826" lon="7.27236">
        <ele>1062</ele>
        <time>2020-06-24T08:22:53.128Z</time>
      </trkpt>
      <trkpt lat="48.40826" lon="7.27234">
        <ele>1062</ele>
        <time>2020-06-24T08:22:54.128Z</time>
      </trkpt>
      <trkpt lat="48.40825" lon="7.27232">
        <ele>1062</ele>
        <time>2020-06-24T08:22:55.128Z</time>
      </trkpt>
      <trkpt lat="48.40825" lon="7.27231">
        <ele>1062</ele>
        <time>2020-06-24T08:22:56.128Z</time>
      </trkpt>
      <trkpt lat="48.40825" lon="7.27229">
        <ele>1062</ele>
        <time>2020-06-24T08:22:57.128Z</time>
      </trkpt>
      <trkpt lat="48.40825" lon="7.27228">
        <ele>1062</ele>
        <time>2020-06-24T08:22:58.129Z</time>
      </trkpt>
      <trkpt lat="48.40824" lon="7.27226">
        <ele>1062</ele>
        <time>2020-06-24T08:22:59.128Z</time>
      </trkpt>
      <trkpt lat="48.40824" lon="7.27224">
        <ele>1062</ele>
        <time>2020-06-24T08:23:00.129Z</time>
      </trkpt>
      <trkpt lat="48.40824" lon="7.27222">
        <ele>1062</ele>
        <time>2020-06-24T08:23:01.128Z</time>
      </trkpt>
      <trkpt lat="48.40823" lon="7.2722">
        <ele>1062</ele>
        <time>2020-06-24T08:23:02.128Z</time>
      </trkpt>
      <trkpt lat="48.40823" lon="7.27218">
        <ele>1061</ele>
        <time>2020-06-24T08:23:03.128Z</time>
      </trkpt>
      <trkpt lat="48.40823" lon="7.27216">
        <ele>1061</ele>
        <time>2020-06-24T08:23:04.128Z</time>
      </trkpt>
      <trkpt lat="48.40822" lon="7.27214">
        <ele>1061</ele>
        <time>2020-06-24T08:23:05.128Z</time>
      </trkpt>
      <trkpt lat="48.40822" lon="7.27212">
        <ele>1061</ele>
        <time>2020-06-24T08:23:06.128Z</time>
      </trkpt>
      <trkpt lat="48.40821" lon="7.2721">
        <ele>1062</ele>
        <time>2020-06-24T08:23:07.128Z</time>
      </trkpt>
      <trkpt lat="48.40821" lon="7.27208">
        <ele>1062</ele>
        <time>2020-06-24T08:23:08.128Z</time>
      </trkpt>
      <trkpt lat="48.4082" lon="7.27206">
        <ele>1062</ele>
        <time>2020-06-24T08:23:09.128Z</time>
      </trkpt>
      <trkpt lat="48.4082" lon="7.27204">
        <ele>1062</ele>
        <time>2020-06-24T08:23:10.128Z</time>
      </trkpt>
      <trkpt lat="48.40819" lon="7.27202">
        <ele>1062</ele>
        <time>2020-06-24T08:23:11.129Z</time>
      </trkpt>
      <trkpt lat="48.40819" lon="7.272">
        <ele>1062</ele>
        <time>2020-06-24T08:23:12.129Z</time>
      </trkpt>
      <trkpt lat="48.40818" lon="7.27199">
        <ele>1063</ele>
        <time>2020-06-24T08:23:13.128Z</time>
      </trkpt>
      <trkpt lat="48.40818" lon="7.27197">
        <ele>1063</ele>
        <time>2020-06-24T08:23:14.129Z</time>
      </trkpt>
      <trkpt lat="48.40817" lon="7.27195">
        <ele>1063</ele>
        <time>2020-06-24T08:23:15.129Z</time>
      </trkpt>
      <trkpt lat="48.40817" lon="7.27193">
        <ele>1064</ele>
        <time>2020-06-24T08:23:16.129Z</time>
      </trkpt>
      <trkpt lat="48.40816" lon="7.27191">
        <ele>1064</ele>
        <time>2020-06-24T08:23:17.129Z</time>
      </trkpt>
      <trkpt lat="48.40816" lon="7.27189">
        <ele>1065</ele>
        <time>2020-06-24T08:23:18.129Z</time>
      </trkpt>
      <trkpt lat="48.40815" lon="7.27187">
        <ele>1066</ele>
        <time>2020-06-24T08:23:19.128Z</time>
      </trkpt>
      <trkpt lat="48.40815" lon="7.27186">
        <ele>1066</ele>
        <time>2020-06-24T08:23:20.129Z</time>
      </trkpt>
      <trkpt lat="48.40814" lon="7.27184">
        <ele>1066</ele>
        <time>2020-06-24T08:23:21.129Z</time>
      </trkpt>
      <trkpt lat="48.40814" lon="7.27182">
        <ele>1066</ele>
        <time>2020-06-24T08:23:22.129Z</time>
      </trkpt>
      <trkpt lat="48.40814" lon="7.2718">
        <ele>1065</ele>
        <time>2020-06-24T08:23:23.129Z</time>
      </trkpt>
      <trkpt lat="48.40813" lon="7.27178">
        <ele>1064</ele>
        <time>2020-06-24T08:23:24.128Z</time>
      </trkpt>
      <trkpt lat="48.40813" lon="7.27176">
        <ele>1064</ele>
        <time>2020-06-24T08:23:25.129Z</time>
      </trkpt>
      <trkpt lat="48.40813" lon="7.27174">
        <ele>1063</ele>
        <time>2020-06-24T08:23:26.129Z</time>
      </trkpt>
      <trkpt lat="48.40813" lon="7.27173">
        <ele>1062</ele>
        <time>2020-06-24T08:23:27.129Z</time>
      </trkpt>
      <trkpt lat="48.40813" lon="7.27171">
        <ele>1061</ele>
        <time>2020-06-24T08:23:28.129Z</time>
      </trkpt>
      <trkpt lat="48.40813" lon="7.27168">
        <ele>1061</ele>
        <time>2020-06-24T08:23:29.128Z</time>
      </trkpt>
      <trkpt lat="48.40812" lon="7.27167">
        <ele>1061</ele>
        <time>2020-06-24T08:23:30.128Z</time>
      </trkpt>
      <trkpt lat="48.40812" lon="7.27165">
        <ele>1060</ele>
        <time>2020-06-24T08:23:31.128Z</time>
      </trkpt>
      <trkpt lat="48.40811" lon="7.27164">
        <ele>1060</ele>
        <time>2020-06-24T08:23:32.129Z</time>
      </trkpt>
      <trkpt lat="48.40811" lon="7.27162">
        <ele>1061</ele>
        <time>2020-06-24T08:23:33.129Z</time>
      </trkpt>
      <trkpt lat="48.4081" lon="7.27161">
        <ele>1061</ele>
        <time>2020-06-24T08:23:34.128Z</time>
      </trkpt>
      <trkpt lat="48.4081" lon="7.2716">
        <ele>1061</ele>
        <time>2020-06-24T08:23:35.128Z</time>
      </trkpt>
      <trkpt lat="48.40809" lon="7.27159">
        <ele>1060</ele>
        <time>2020-06-24T08:23:36.128Z</time>
      </trkpt>
      <trkpt lat="48.40808" lon="7.27159">
        <ele>1060</ele>
        <time>2020-06-24T08:23:37.129Z</time>
      </trkpt>
      <trkpt lat="48.40807" lon="7.27159">
        <ele>1060</ele>
        <time>2020-06-24T08:23:38.128Z</time>
      </trkpt>
      <trkpt lat="48.40806" lon="7.2716">
        <ele>1060</ele>
        <time>2020-06-24T08:23:39.129Z</time>
      </trkpt>
      <trkpt lat="48.40806" lon="7.27161">
        <ele>1060</ele>
        <time>2020-06-24T08:23:40.128Z</time>
      </trkpt>
      <trkpt lat="48.40805" lon="7.27161">
        <ele>1060</ele>
        <time>2020-06-24T08:23:41.128Z</time>
      </trkpt>
      <trkpt lat="48.40804" lon="7.27163">
        <ele>1060</ele>
        <time>2020-06-24T08:23:42.128Z</time>
      </trkpt>
      <trkpt lat="48.40804" lon="7.27165">
        <ele>1060</ele>
        <time>2020-06-24T08:23:43.128Z</time>
      </trkpt>
      <trkpt lat="48.40803" lon="7.27166">
        <ele>1059</ele>
        <time>2020-06-24T08:23:44.129Z</time>
      </trkpt>
      <trkpt lat="48.40803" lon="7.27167">
        <ele>1059</ele>
        <time>2020-06-24T08:23:45.129Z</time>
      </trkpt>
      <trkpt lat="48.40802" lon="7.27168">
        <ele>1058</ele>
        <time>2020-06-24T08:23:46.128Z</time>
      </trkpt>
      <trkpt lat="48.40801" lon="7.27169">
        <ele>1058</ele>
        <time>2020-06-24T08:23:47.128Z</time>
      </trkpt>
      <trkpt lat="48.408" lon="7.2717">
        <ele>1058</ele>
        <time>2020-06-24T08:23:48.129Z</time>
      </trkpt>
      <trkpt lat="48.408" lon="7.27171">
        <ele>1057</ele>
        <time>2020-06-24T08:23:49.129Z</time>
      </trkpt>
      <trkpt lat="48.40799" lon="7.27171">
        <ele>1057</ele>
        <time>2020-06-24T08:23:50.129Z</time>
      </trkpt>
      <trkpt lat="48.40798" lon="7.27171">
        <ele>1057</ele>
        <time>2020-06-24T08:23:51.128Z</time>
      </trkpt>
      <trkpt lat="48.40796" lon="7.27169">
        <ele>1057</ele>
        <time>2020-06-24T08:23:52.128Z</time>
      </trkpt>
      <trkpt lat="48.40795" lon="7.27168">
        <ele>1058</ele>
        <time>2020-06-24T08:23:53.128Z</time>
      </trkpt>
      <trkpt lat="48.40794" lon="7.27168">
        <ele>1058</ele>
        <time>2020-06-24T08:23:54.129Z</time>
      </trkpt>
      <trkpt lat="48.40793" lon="7.27166">
        <ele>1058</ele>
        <time>2020-06-24T08:23:55.128Z</time>
      </trkpt>
      <trkpt lat="48.40792" lon="7.27165">
        <ele>1058</ele>
        <time>2020-06-24T08:23:56.128Z</time>
      </trkpt>
      <trkpt lat="48.40791" lon="7.27164">
        <ele>1058</ele>
        <time>2020-06-24T08:23:57.128Z</time>
      </trkpt>
      <trkpt lat="48.4079" lon="7.27163">
        <ele>1058</ele>
        <time>2020-06-24T08:23:58.128Z</time>
      </trkpt>
      <trkpt lat="48.40789" lon="7.27162">
        <ele>1058</ele>
        <time>2020-06-24T08:23:59.128Z</time>
      </trkpt>
      <trkpt lat="48.40788" lon="7.27162">
        <ele>1058</ele>
        <time>2020-06-24T08:24:00.128Z</time>
      </trkpt>
      <trkpt lat="48.40787" lon="7.27161">
        <ele>1059</ele>
        <time>2020-06-24T08:24:01.128Z</time>
      </trkpt>
      <trkpt lat="48.40786" lon="7.2716">
        <ele>1059</ele>
        <time>2020-06-24T08:24:02.128Z</time>
      </trkpt>
      <trkpt lat="48.40785" lon="7.27159">
        <ele>1059</ele>
        <time>2020-06-24T08:24:03.128Z</time>
      </trkpt>
      <trkpt lat="48.40785" lon="7.27158">
        <ele>1059</ele>
        <time>2020-06-24T08:24:04.128Z</time>
      </trkpt>
      <trkpt lat="48.40784" lon="7.27156">
        <ele>1058</ele>
        <time>2020-06-24T08:24:05.128Z</time>
      </trkpt>
      <trkpt lat="48.40784" lon="7.27154">
        <ele>1058</ele>
        <time>2020-06-24T08:24:06.129Z</time>
      </trkpt>
      <trkpt lat="48.40784" lon="7.27153">
        <ele>1058</ele>
        <time>2020-06-24T08:24:07.128Z</time>
      </trkpt>
      <trkpt lat="48.40784" lon="7.27151">
        <ele>1058</ele>
        <time>2020-06-24T08:24:08.128Z</time>
      </trkpt>
      <trkpt lat="48.40783" lon="7.27149">
        <ele>1059</ele>
        <time>2020-06-24T08:24:09.129Z</time>
      </trkpt>
      <trkpt lat="48.40783" lon="7.27147">
        <ele>1059</ele>
        <time>2020-06-24T08:24:10.128Z</time>
      </trkpt>
      <trkpt lat="48.40782" lon="7.27146">
        <ele>1060</ele>
        <time>2020-06-24T08:24:11.128Z</time>
      </trkpt>
      <trkpt lat="48.40782" lon="7.27146">
        <ele>1060</ele>
        <time>2020-06-24T08:24:12.128Z</time>
      </trkpt>
      <trkpt lat="48.40783" lon="7.27146">
        <ele>1061</ele>
        <time>2020-06-24T08:24:13.128Z</time>
      </trkpt>
      <trkpt lat="48.40784" lon="7.27147">
        <ele>1061</ele>
        <time>2020-06-24T08:24:14.128Z</time>
      </trkpt>
      <trkpt lat="48.40785" lon="7.27148">
        <ele>1061</ele>
        <time>2020-06-24T08:24:15.129Z</time>
      </trkpt>
      <trkpt lat="48.40785" lon="7.27149">
        <ele>1062</ele>
        <time>2020-06-24T08:24:16.128Z</time>
      </trkpt>
      <trkpt lat="48.40785" lon="7.27149">
        <ele>1062</ele>
        <time>2020-06-24T08:24:17.128Z</time>
      </trkpt>
      <trkpt lat="48.40785" lon="7.27149">
        <ele>1061</ele>
        <time>2020-06-24T08:24:18.129Z</time>
      </trkpt>
      <trkpt lat="48.40786" lon="7.27152">
        <ele>1059</ele>
        <time>2020-06-24T08:24:19.129Z</time>
      </trkpt>
      <trkpt lat="48.40786" lon="7.27147">
        <ele>1055</ele>
        <time>2020-06-24T08:24:20.129Z</time>
      </trkpt>
      <trkpt lat="48.40785" lon="7.27145">
        <ele>1055</ele>
        <time>2020-06-24T08:24:21.129Z</time>
      </trkpt>
      <trkpt lat="48.40784" lon="7.27142">
        <ele>1055</ele>
        <time>2020-06-24T08:24:22.129Z</time>
      </trkpt>
      <trkpt lat="48.40783" lon="7.27139">
        <ele>1056</ele>
        <time>2020-06-24T08:24:23.129Z</time>
      </trkpt>
      <trkpt lat="48.40782" lon="7.27137">
        <ele>1056</ele>
        <time>2020-06-24T08:24:24.130Z</time>
      </trkpt>
      <trkpt lat="48.40781" lon="7.27134">
        <ele>1057</ele>
        <time>2020-06-24T08:24:25.129Z</time>
      </trkpt>
      <trkpt lat="48.40781" lon="7.27131">
        <ele>1057</ele>
        <time>2020-06-24T08:24:26.130Z</time>
      </trkpt>
      <trkpt lat="48.4078" lon="7.27129">
        <ele>1057</ele>
        <time>2020-06-24T08:24:27.129Z</time>
      </trkpt>
      <trkpt lat="48.4078" lon="7.27127">
        <ele>1057</ele>
        <time>2020-06-24T08:24:28.130Z</time>
      </trkpt>
      <trkpt lat="48.40779" lon="7.27125">
        <ele>1057</ele>
        <time>2020-06-24T08:24:29.129Z</time>
      </trkpt>
      <trkpt lat="48.40779" lon="7.27123">
        <ele>1058</ele>
        <time>2020-06-24T08:24:30.129Z</time>
      </trkpt>
      <trkpt lat="48.40778" lon="7.27121">
        <ele>1058</ele>
        <time>2020-06-24T08:24:31.129Z</time>
      </trkpt>
      <trkpt lat="48.40778" lon="7.2712">
        <ele>1058</ele>
        <time>2020-06-24T08:24:32.130Z</time>
      </trkpt>
      <trkpt lat="48.40778" lon="7.27118">
        <ele>1058</ele>
        <time>2020-06-24T08:24:33.130Z</time>
      </trkpt>
      <trkpt lat="48.40777" lon="7.27115">
        <ele>1058</ele>
        <time>2020-06-24T08:24:34.130Z</time>
      </trkpt>
      <trkpt lat="48.40777" lon="7.27114">
        <ele>1058</ele>
        <time>2020-06-24T08:24:35.129Z</time>
      </trkpt>
      <trkpt lat="48.40777" lon="7.27112">
        <ele>1058</ele>
        <time>2020-06-24T08:24:36.130Z</time>
      </trkpt>
      <trkpt lat="48.40776" lon="7.2711">
        <ele>1058</ele>
        <time>2020-06-24T08:24:37.129Z</time>
      </trkpt>
      <trkpt lat="48.40776" lon="7.27108">
        <ele>1058</ele>
        <time>2020-06-24T08:24:38.130Z</time>
      </trkpt>
      <trkpt lat="48.40775" lon="7.27106">
        <ele>1058</ele>
        <time>2020-06-24T08:24:39.129Z</time>
      </trkpt>
      <trkpt lat="48.40775" lon="7.27104">
        <ele>1059</ele>
        <time>2020-06-24T08:24:40.130Z</time>
      </trkpt>
      <trkpt lat="48.40775" lon="7.27102">
        <ele>1059</ele>
        <time>2020-06-24T08:24:41.130Z</time>
      </trkpt>
      <trkpt lat="48.40774" lon="7.271">
        <ele>1059</ele>
        <time>2020-06-24T08:24:42.129Z</time>
      </trkpt>
      <trkpt lat="48.40773" lon="7.27098">
        <ele>1059</ele>
        <time>2020-06-24T08:24:43.129Z</time>
      </trkpt>
      <trkpt lat="48.40773" lon="7.27095">
        <ele>1059</ele>
        <time>2020-06-24T08:24:44.130Z</time>
      </trkpt>
      <trkpt lat="48.40773" lon="7.27093">
        <ele>1059</ele>
        <time>2020-06-24T08:24:45.130Z</time>
      </trkpt>
      <trkpt lat="48.40772" lon="7.27091">
        <ele>1059</ele>
        <time>2020-06-24T08:24:46.130Z</time>
      </trkpt>
      <trkpt lat="48.40772" lon="7.27089">
        <ele>1058</ele>
        <time>2020-06-24T08:24:47.130Z</time>
      </trkpt>
      <trkpt lat="48.40772" lon="7.27087">
        <ele>1058</ele>
        <time>2020-06-24T08:24:48.130Z</time>
      </trkpt>
      <trkpt lat="48.40772" lon="7.27085">
        <ele>1058</ele>
        <time>2020-06-24T08:24:49.130Z</time>
      </trkpt>
      <trkpt lat="48.40771" lon="7.27083">
        <ele>1058</ele>
        <time>2020-06-24T08:24:50.129Z</time>
      </trkpt>
      <trkpt lat="48.40771" lon="7.27081">
        <ele>1058</ele>
        <time>2020-06-24T08:24:51.130Z</time>
      </trkpt>
      <trkpt lat="48.40771" lon="7.27079">
        <ele>1058</ele>
        <time>2020-06-24T08:24:52.129Z</time>
      </trkpt>
      <trkpt lat="48.4077" lon="7.27076">
        <ele>1058</ele>
        <time>2020-06-24T08:24:53.129Z</time>
      </trkpt>
      <trkpt lat="48.4077" lon="7.27074">
        <ele>1058</ele>
        <time>2020-06-24T08:24:54.130Z</time>
      </trkpt>
      <trkpt lat="48.40769" lon="7.27072">
        <ele>1058</ele>
        <time>2020-06-24T08:24:55.130Z</time>
      </trkpt>
      <trkpt lat="48.40769" lon="7.2707">
        <ele>1058</ele>
        <time>2020-06-24T08:24:56.130Z</time>
      </trkpt>
      <trkpt lat="48.40768" lon="7.27068">
        <ele>1059</ele>
        <time>2020-06-24T08:24:57.130Z</time>
      </trkpt>
      <trkpt lat="48.40768" lon="7.27066">
        <ele>1059</ele>
        <time>2020-06-24T08:24:58.130Z</time>
      </trkpt>
      <trkpt lat="48.40768" lon="7.27063">
        <ele>1059</ele>
        <time>2020-06-24T08:24:59.130Z</time>
      </trkpt>
      <trkpt lat="48.40767" lon="7.27062">
        <ele>1059</ele>
        <time>2020-06-24T08:25:00.130Z</time>
      </trkpt>
      <trkpt lat="48.40767" lon="7.2706">
        <ele>1059</ele>
        <time>2020-06-24T08:25:01.130Z</time>
      </trkpt>
      <trkpt lat="48.40766" lon="7.27058">
        <ele>1060</ele>
        <time>2020-06-24T08:25:02.129Z</time>
      </trkpt>
      <trkpt lat="48.40766" lon="7.27056">
        <ele>1060</ele>
        <time>2020-06-24T08:25:03.130Z</time>
      </trkpt>
      <trkpt lat="48.40765" lon="7.27053">
        <ele>1059</ele>
        <time>2020-06-24T08:25:04.130Z</time>
      </trkpt>
      <trkpt lat="48.40765" lon="7.27051">
        <ele>1059</ele>
        <time>2020-06-24T08:25:05.129Z</time>
      </trkpt>
      <trkpt lat="48.40765" lon="7.27048">
        <ele>1058</ele>
        <time>2020-06-24T08:25:06.130Z</time>
      </trkpt>
      <trkpt lat="48.40765" lon="7.27046">
        <ele>1058</ele>
        <time>2020-06-24T08:25:07.130Z</time>
      </trkpt>
      <trkpt lat="48.40765" lon="7.27043">
        <ele>1057</ele>
        <time>2020-06-24T08:25:08.130Z</time>
      </trkpt>
      <trkpt lat="48.40765" lon="7.27041">
        <ele>1057</ele>
        <time>2020-06-24T08:25:09.130Z</time>
      </trkpt>
      <trkpt lat="48.40765" lon="7.27038">
        <ele>1056</ele>
        <time>2020-06-24T08:25:10.130Z</time>
      </trkpt>
      <trkpt lat="48.40765" lon="7.27036">
        <ele>1056</ele>
        <time>2020-06-24T08:25:11.130Z</time>
      </trkpt>
      <trkpt lat="48.40765" lon="7.27034">
        <ele>1056</ele>
        <time>2020-06-24T08:25:12.130Z</time>
      </trkpt>
      <trkpt lat="48.40765" lon="7.27032">
        <ele>1056</ele>
        <time>2020-06-24T08:25:13.129Z</time>
      </trkpt>
      <trkpt lat="48.40765" lon="7.2703">
        <ele>1056</ele>
        <time>2020-06-24T08:25:14.129Z</time>
      </trkpt>
      <trkpt lat="48.40765" lon="7.27028">
        <ele>1057</ele>
        <time>2020-06-24T08:25:15.129Z</time>
      </trkpt>
      <trkpt lat="48.40765" lon="7.27025">
        <ele>1057</ele>
        <time>2020-06-24T08:25:16.130Z</time>
      </trkpt>
      <trkpt lat="48.40765" lon="7.27023">
        <ele>1057</ele>
        <time>2020-06-24T08:25:17.130Z</time>
      </trkpt>
      <trkpt lat="48.40765" lon="7.27021">
        <ele>1057</ele>
        <time>2020-06-24T08:25:18.129Z</time>
      </trkpt>
      <trkpt lat="48.40764" lon="7.27019">
        <ele>1058</ele>
        <time>2020-06-24T08:25:19.130Z</time>
      </trkpt>
      <trkpt lat="48.40764" lon="7.27016">
        <ele>1058</ele>
        <time>2020-06-24T08:25:20.129Z</time>
      </trkpt>
      <trkpt lat="48.40764" lon="7.27014">
        <ele>1059</ele>
        <time>2020-06-24T08:25:21.130Z</time>
      </trkpt>
      <trkpt lat="48.40764" lon="7.27012">
        <ele>1060</ele>
        <time>2020-06-24T08:25:22.130Z</time>
      </trkpt>
      <trkpt lat="48.40764" lon="7.2701">
        <ele>1060</ele>
        <time>2020-06-24T08:25:23.130Z</time>
      </trkpt>
      <trkpt lat="48.40764" lon="7.27008">
        <ele>1060</ele>
        <time>2020-06-24T08:25:24.129Z</time>
      </trkpt>
      <trkpt lat="48.40764" lon="7.27005">
        <ele>1060</ele>
        <time>2020-06-24T08:25:25.130Z</time>
      </trkpt>
      <trkpt lat="48.40764" lon="7.27003">
        <ele>1060</ele>
        <time>2020-06-24T08:25:26.130Z</time>
      </trkpt>
      <trkpt lat="48.40764" lon="7.27001">
        <ele>1060</ele>
        <time>2020-06-24T08:25:27.130Z</time>
      </trkpt>
      <trkpt lat="48.40763" lon="7.26998">
        <ele>1060</ele>
        <time>2020-06-24T08:25:28.130Z</time>
      </trkpt>
      <trkpt lat="48.40763" lon="7.26996">
        <ele>1060</ele>
        <time>2020-06-24T08:25:29.129Z</time>
      </trkpt>
      <trkpt lat="48.40762" lon="7.26994">
        <ele>1060</ele>
        <time>2020-06-24T08:25:30.130Z</time>
      </trkpt>
      <trkpt lat="48.40762" lon="7.26992">
        <ele>1059</ele>
        <time>2020-06-24T08:25:31.130Z</time>
      </trkpt>
      <trkpt lat="48.40762" lon="7.26989">
        <ele>1059</ele>
        <time>2020-06-24T08:25:32.130Z</time>
      </trkpt>
      <trkpt lat="48.40762" lon="7.26987">
        <ele>1059</ele>
        <time>2020-06-24T08:25:33.130Z</time>
      </trkpt>
      <trkpt lat="48.40761" lon="7.26984">
        <ele>1058</ele>
        <time>2020-06-24T08:25:34.130Z</time>
      </trkpt>
      <trkpt lat="48.40761" lon="7.26982">
        <ele>1058</ele>
        <time>2020-06-24T08:25:35.130Z</time>
      </trkpt>
      <trkpt lat="48.4076" lon="7.26979">
        <ele>1058</ele>
        <time>2020-06-24T08:25:36.130Z</time>
      </trkpt>
      <trkpt lat="48.4076" lon="7.26977">
        <ele>1058</ele>
        <time>2020-06-24T08:25:37.129Z</time>
      </trkpt>
      <trkpt lat="48.4076" lon="7.26975">
        <ele>1058</ele>
        <time>2020-06-24T08:25:38.130Z</time>
      </trkpt>
      <trkpt lat="48.40759" lon="7.26972">
        <ele>1057</ele>
        <time>2020-06-24T08:25:39.130Z</time>
      </trkpt>
      <trkpt lat="48.40759" lon="7.2697">
        <ele>1057</ele>
        <time>2020-06-24T08:25:40.130Z</time>
      </trkpt>
      <trkpt lat="48.40759" lon="7.26968">
        <ele>1057</ele>
        <time>2020-06-24T08:25:41.129Z</time>
      </trkpt>
      <trkpt lat="48.40759" lon="7.26966">
        <ele>1057</ele>
        <time>2020-06-24T08:25:42.130Z</time>
      </trkpt>
      <trkpt lat="48.40758" lon="7.26964">
        <ele>1057</ele>
        <time>2020-06-24T08:25:43.130Z</time>
      </trkpt>
      <trkpt lat="48.40758" lon="7.26961">
        <ele>1057</ele>
        <time>2020-06-24T08:25:44.129Z</time>
      </trkpt>
      <trkpt lat="48.40758" lon="7.26959">
        <ele>1056</ele>
        <time>2020-06-24T08:25:45.129Z</time>
      </trkpt>
      <trkpt lat="48.40758" lon="7.26957">
        <ele>1057</ele>
        <time>2020-06-24T08:25:46.129Z</time>
      </trkpt>
      <trkpt lat="48.40758" lon="7.26954">
        <ele>1057</ele>
        <time>2020-06-24T08:25:47.129Z</time>
      </trkpt>
      <trkpt lat="48.40758" lon="7.26952">
        <ele>1056</ele>
        <time>2020-06-24T08:25:48.130Z</time>
      </trkpt>
      <trkpt lat="48.40758" lon="7.2695">
        <ele>1056</ele>
        <time>2020-06-24T08:25:49.130Z</time>
      </trkpt>
      <trkpt lat="48.40758" lon="7.26948">
        <ele>1055</ele>
        <time>2020-06-24T08:25:50.130Z</time>
      </trkpt>
      <trkpt lat="48.40758" lon="7.26946">
        <ele>1055</ele>
        <time>2020-06-24T08:25:51.129Z</time>
      </trkpt>
      <trkpt lat="48.40757" lon="7.26944">
        <ele>1055</ele>
        <time>2020-06-24T08:25:52.130Z</time>
      </trkpt>
      <trkpt lat="48.40757" lon="7.26942">
        <ele>1055</ele>
        <time>2020-06-24T08:25:53.129Z</time>
      </trkpt>
      <trkpt lat="48.40757" lon="7.2694">
        <ele>1055</ele>
        <time>2020-06-24T08:25:54.130Z</time>
      </trkpt>
      <trkpt lat="48.40757" lon="7.26938">
        <ele>1055</ele>
        <time>2020-06-24T08:25:55.129Z</time>
      </trkpt>
      <trkpt lat="48.40757" lon="7.26936">
        <ele>1055</ele>
        <time>2020-06-24T08:25:56.130Z</time>
      </trkpt>
      <trkpt lat="48.40756" lon="7.26934">
        <ele>1055</ele>
        <time>2020-06-24T08:25:57.130Z</time>
      </trkpt>
      <trkpt lat="48.40756" lon="7.26932">
        <ele>1055</ele>
        <time>2020-06-24T08:25:58.130Z</time>
      </trkpt>
      <trkpt lat="48.40756" lon="7.2693">
        <ele>1055</ele>
        <time>2020-06-24T08:25:59.130Z</time>
      </trkpt>
      <trkpt lat="48.40756" lon="7.26927">
        <ele>1055</ele>
        <time>2020-06-24T08:26:00.129Z</time>
      </trkpt>
      <trkpt lat="48.40756" lon="7.26925">
        <ele>1055</ele>
        <time>2020-06-24T08:26:01.130Z</time>
      </trkpt>
      <trkpt lat="48.40756" lon="7.26923">
        <ele>1055</ele>
        <time>2020-06-24T08:26:02.130Z</time>
      </trkpt>
      <trkpt lat="48.40756" lon="7.26921">
        <ele>1055</ele>
        <time>2020-06-24T08:26:03.130Z</time>
      </trkpt>
      <trkpt lat="48.40756" lon="7.2692">
        <ele>1055</ele>
        <time>2020-06-24T08:26:04.130Z</time>
      </trkpt>
      <trkpt lat="48.40756" lon="7.26917">
        <ele>1055</ele>
        <time>2020-06-24T08:26:05.129Z</time>
      </trkpt>
      <trkpt lat="48.40756" lon="7.26915">
        <ele>1055</ele>
        <time>2020-06-24T08:26:06.129Z</time>
      </trkpt>
      <trkpt lat="48.40755" lon="7.26913">
        <ele>1055</ele>
        <time>2020-06-24T08:26:07.130Z</time>
      </trkpt>
      <trkpt lat="48.40755" lon="7.26911">
        <ele>1055</ele>
        <time>2020-06-24T08:26:08.129Z</time>
      </trkpt>
      <trkpt lat="48.40755" lon="7.26909">
        <ele>1055</ele>
        <time>2020-06-24T08:26:09.130Z</time>
      </trkpt>
      <trkpt lat="48.40754" lon="7.26907">
        <ele>1055</ele>
        <time>2020-06-24T08:26:10.130Z</time>
      </trkpt>
      <trkpt lat="48.40754" lon="7.26905">
        <ele>1055</ele>
        <time>2020-06-24T08:26:11.130Z</time>
      </trkpt>
      <trkpt lat="48.40753" lon="7.26903">
        <ele>1055</ele>
        <time>2020-06-24T08:26:12.129Z</time>
      </trkpt>
      <trkpt lat="48.40753" lon="7.26901">
        <ele>1055</ele>
        <time>2020-06-24T08:26:13.130Z</time>
      </trkpt>
      <trkpt lat="48.40752" lon="7.26899">
        <ele>1055</ele>
        <time>2020-06-24T08:26:14.130Z</time>
      </trkpt>
      <trkpt lat="48.40752" lon="7.26897">
        <ele>1055</ele>
        <time>2020-06-24T08:26:15.129Z</time>
      </trkpt>
      <trkpt lat="48.40751" lon="7.26895">
        <ele>1055</ele>
        <time>2020-06-24T08:26:16.129Z</time>
      </trkpt>
      <trkpt lat="48.40751" lon="7.26893">
        <ele>1054</ele>
        <time>2020-06-24T08:26:17.130Z</time>
      </trkpt>
      <trkpt lat="48.40751" lon="7.26891">
        <ele>1054</ele>
        <time>2020-06-24T08:26:18.129Z</time>
      </trkpt>
      <trkpt lat="48.4075" lon="7.26889">
        <ele>1053</ele>
        <time>2020-06-24T08:26:19.129Z</time>
      </trkpt>
      <trkpt lat="48.4075" lon="7.26887">
        <ele>1053</ele>
        <time>2020-06-24T08:26:20.130Z</time>
      </trkpt>
      <trkpt lat="48.4075" lon="7.26885">
        <ele>1053</ele>
        <time>2020-06-24T08:26:21.130Z</time>
      </trkpt>
      <trkpt lat="48.40749" lon="7.26883">
        <ele>1052</ele>
        <time>2020-06-24T08:26:22.130Z</time>
      </trkpt>
      <trkpt lat="48.40749" lon="7.26881">
        <ele>1053</ele>
        <time>2020-06-24T08:26:23.130Z</time>
      </trkpt>
      <trkpt lat="48.40748" lon="7.26878">
        <ele>1053</ele>
        <time>2020-06-24T08:26:24.130Z</time>
      </trkpt>
      <trkpt lat="48.40748" lon="7.26876">
        <ele>1053</ele>
        <time>2020-06-24T08:26:25.129Z</time>
      </trkpt>
      <trkpt lat="48.40747" lon="7.26874">
        <ele>1053</ele>
        <time>2020-06-24T08:26:26.130Z</time>
      </trkpt>
      <trkpt lat="48.40747" lon="7.26872">
        <ele>1053</ele>
        <time>2020-06-24T08:26:27.129Z</time>
      </trkpt>
      <trkpt lat="48.40747" lon="7.2687">
        <ele>1054</ele>
        <time>2020-06-24T08:26:28.130Z</time>
      </trkpt>
      <trkpt lat="48.40747" lon="7.26868">
        <ele>1054</ele>
        <time>2020-06-24T08:26:29.130Z</time>
      </trkpt>
      <trkpt lat="48.40747" lon="7.26865">
        <ele>1054</ele>
        <time>2020-06-24T08:26:30.130Z</time>
      </trkpt>
      <trkpt lat="48.40747" lon="7.26863">
        <ele>1055</ele>
        <time>2020-06-24T08:26:31.129Z</time>
      </trkpt>
      <trkpt lat="48.40746" lon="7.26861">
        <ele>1056</ele>
        <time>2020-06-24T08:26:32.130Z</time>
      </trkpt>
      <trkpt lat="48.40746" lon="7.26859">
        <ele>1056</ele>
        <time>2020-06-24T08:26:33.130Z</time>
      </trkpt>
      <trkpt lat="48.40746" lon="7.26857">
        <ele>1056</ele>
        <time>2020-06-24T08:26:34.130Z</time>
      </trkpt>
      <trkpt lat="48.40745" lon="7.26855">
        <ele>1056</ele>
        <time>2020-06-24T08:26:35.129Z</time>
      </trkpt>
      <trkpt lat="48.40745" lon="7.26853">
        <ele>1056</ele>
        <time>2020-06-24T08:26:36.129Z</time>
      </trkpt>
      <trkpt lat="48.40744" lon="7.26851">
        <ele>1056</ele>
        <time>2020-06-24T08:26:37.130Z</time>
      </trkpt>
      <trkpt lat="48.40744" lon="7.26848">
        <ele>1057</ele>
        <time>2020-06-24T08:26:38.130Z</time>
      </trkpt>
      <trkpt lat="48.40744" lon="7.26846">
        <ele>1058</ele>
        <time>2020-06-24T08:26:39.129Z</time>
      </trkpt>
      <trkpt lat="48.40744" lon="7.26844">
        <ele>1058</ele>
        <time>2020-06-24T08:26:40.130Z</time>
      </trkpt>
      <trkpt lat="48.40744" lon="7.26842">
        <ele>1059</ele>
        <time>2020-06-24T08:26:41.129Z</time>
      </trkpt>
      <trkpt lat="48.40744" lon="7.26839">
        <ele>1059</ele>
        <time>2020-06-24T08:26:42.130Z</time>
      </trkpt>
      <trkpt lat="48.40744" lon="7.26837">
        <ele>1059</ele>
        <time>2020-06-24T08:26:43.130Z</time>
      </trkpt>
      <trkpt lat="48.40744" lon="7.26835">
        <ele>1059</ele>
        <time>2020-06-24T08:26:44.129Z</time>
      </trkpt>
      <trkpt lat="48.40744" lon="7.26833">
        <ele>1059</ele>
        <time>2020-06-24T08:26:45.130Z</time>
      </trkpt>
      <trkpt lat="48.40744" lon="7.26831">
        <ele>1058</ele>
        <time>2020-06-24T08:26:46.130Z</time>
      </trkpt>
      <trkpt lat="48.40744" lon="7.2683">
        <ele>1058</ele>
        <time>2020-06-24T08:26:47.129Z</time>
      </trkpt>
      <trkpt lat="48.40744" lon="7.26828">
        <ele>1057</ele>
        <time>2020-06-24T08:26:48.130Z</time>
      </trkpt>
      <trkpt lat="48.40744" lon="7.26827">
        <ele>1057</ele>
        <time>2020-06-24T08:26:49.130Z</time>
      </trkpt>
      <trkpt lat="48.40743" lon="7.26825">
        <ele>1057</ele>
        <time>2020-06-24T08:26:50.130Z</time>
      </trkpt>
      <trkpt lat="48.40743" lon="7.26823">
        <ele>1057</ele>
        <time>2020-06-24T08:26:51.129Z</time>
      </trkpt>
      <trkpt lat="48.40743" lon="7.26821">
        <ele>1058</ele>
        <time>2020-06-24T08:26:52.130Z</time>
      </trkpt>
      <trkpt lat="48.40743" lon="7.26819">
        <ele>1058</ele>
        <time>2020-06-24T08:26:53.130Z</time>
      </trkpt>
      <trkpt lat="48.40743" lon="7.26818">
        <ele>1058</ele>
        <time>2020-06-24T08:26:54.130Z</time>
      </trkpt>
      <trkpt lat="48.40743" lon="7.26815">
        <ele>1059</ele>
        <time>2020-06-24T08:26:55.129Z</time>
      </trkpt>
      <trkpt lat="48.40744" lon="7.26813">
        <ele>1059</ele>
        <time>2020-06-24T08:26:56.130Z</time>
      </trkpt>
      <trkpt lat="48.40744" lon="7.26811">
        <ele>1059</ele>
        <time>2020-06-24T08:26:57.130Z</time>
      </trkpt>
      <trkpt lat="48.40743" lon="7.26809">
        <ele>1059</ele>
        <time>2020-06-24T08:26:58.130Z</time>
      </trkpt>
      <trkpt lat="48.40743" lon="7.26807">
        <ele>1059</ele>
        <time>2020-06-24T08:26:59.130Z</time>
      </trkpt>
      <trkpt lat="48.40743" lon="7.26805">
        <ele>1059</ele>
        <time>2020-06-24T08:27:00.130Z</time>
      </trkpt>
      <trkpt lat="48.40743" lon="7.26803">
        <ele>1059</ele>
        <time>2020-06-24T08:27:01.130Z</time>
      </trkpt>
      <trkpt lat="48.40743" lon="7.26802">
        <ele>1059</ele>
        <time>2020-06-24T08:27:02.130Z</time>
      </trkpt>
      <trkpt lat="48.40743" lon="7.26801">
        <ele>1059</ele>
        <time>2020-06-24T08:27:03.129Z</time>
      </trkpt>
      <trkpt lat="48.40743" lon="7.26801">
        <ele>1058</ele>
        <time>2020-06-24T08:27:04.129Z</time>
      </trkpt>
      <trkpt lat="48.40743" lon="7.268">
        <ele>1057</ele>
        <time>2020-06-24T08:27:05.129Z</time>
      </trkpt>
      <trkpt lat="48.40743" lon="7.26799">
        <ele>1057</ele>
        <time>2020-06-24T08:27:06.130Z</time>
      </trkpt>
      <trkpt lat="48.40744" lon="7.26798">
        <ele>1056</ele>
        <time>2020-06-24T08:27:07.130Z</time>
      </trkpt>
      <trkpt lat="48.40744" lon="7.26797">
        <ele>1056</ele>
        <time>2020-06-24T08:27:08.130Z</time>
      </trkpt>
      <trkpt lat="48.40744" lon="7.26795">
        <ele>1055</ele>
        <time>2020-06-24T08:27:09.130Z</time>
      </trkpt>
      <trkpt lat="48.40744" lon="7.26793">
        <ele>1055</ele>
        <time>2020-06-24T08:27:10.130Z</time>
      </trkpt>
      <trkpt lat="48.40745" lon="7.26791">
        <ele>1054</ele>
        <time>2020-06-24T08:27:11.130Z</time>
      </trkpt>
      <trkpt lat="48.40745" lon="7.26789">
        <ele>1054</ele>
        <time>2020-06-24T08:27:12.130Z</time>
      </trkpt>
      <trkpt lat="48.40745" lon="7.26788">
        <ele>1055</ele>
        <time>2020-06-24T08:27:13.129Z</time>
      </trkpt>
      <trkpt lat="48.40745" lon="7.26785">
        <ele>1056</ele>
        <time>2020-06-24T08:27:14.130Z</time>
      </trkpt>
      <trkpt lat="48.40745" lon="7.26783">
        <ele>1057</ele>
        <time>2020-06-24T08:27:15.130Z</time>
      </trkpt>
      <trkpt lat="48.40745" lon="7.2678">
        <ele>1057</ele>
        <time>2020-06-24T08:27:16.129Z</time>
      </trkpt>
      <trkpt lat="48.40745" lon="7.26778">
        <ele>1057</ele>
        <time>2020-06-24T08:27:17.130Z</time>
      </trkpt>
      <trkpt lat="48.40745" lon="7.26776">
        <ele>1057</ele>
        <time>2020-06-24T08:27:18.129Z</time>
      </trkpt>
      <trkpt lat="48.40745" lon="7.26774">
        <ele>1056</ele>
        <time>2020-06-24T08:27:19.129Z</time>
      </trkpt>
      <trkpt lat="48.40746" lon="7.26772">
        <ele>1056</ele>
        <time>2020-06-24T08:27:20.130Z</time>
      </trkpt>
      <trkpt lat="48.40746" lon="7.2677">
        <ele>1055</ele>
        <time>2020-06-24T08:27:21.130Z</time>
      </trkpt>
      <trkpt lat="48.40746" lon="7.26768">
        <ele>1056</ele>
        <time>2020-06-24T08:27:22.130Z</time>
      </trkpt>
      <trkpt lat="48.40746" lon="7.26765">
        <ele>1056</ele>
        <time>2020-06-24T08:27:23.130Z</time>
      </trkpt>
      <trkpt lat="48.40746" lon="7.26763">
        <ele>1056</ele>
        <time>2020-06-24T08:27:24.130Z</time>
      </trkpt>
      <trkpt lat="48.40746" lon="7.26761">
        <ele>1057</ele>
        <time>2020-06-24T08:27:25.129Z</time>
      </trkpt>
      <trkpt lat="48.40747" lon="7.2676">
        <ele>1058</ele>
        <time>2020-06-24T08:27:26.129Z</time>
      </trkpt>
      <trkpt lat="48.40747" lon="7.26757">
        <ele>1057</ele>
        <time>2020-06-24T08:27:27.130Z</time>
      </trkpt>
      <trkpt lat="48.40748" lon="7.26755">
        <ele>1057</ele>
        <time>2020-06-24T08:27:28.130Z</time>
      </trkpt>
      <trkpt lat="48.40748" lon="7.26753">
        <ele>1056</ele>
        <time>2020-06-24T08:27:29.129Z</time>
      </trkpt>
      <trkpt lat="48.40749" lon="7.26751">
        <ele>1056</ele>
        <time>2020-06-24T08:27:30.129Z</time>
      </trkpt>
      <trkpt lat="48.40749" lon="7.26749">
        <ele>1056</ele>
        <time>2020-06-24T08:27:31.129Z</time>
      </trkpt>
      <trkpt lat="48.4075" lon="7.26747">
        <ele>1056</ele>
        <time>2020-06-24T08:27:32.130Z</time>
      </trkpt>
      <trkpt lat="48.4075" lon="7.26745">
        <ele>1056</ele>
        <time>2020-06-24T08:27:33.130Z</time>
      </trkpt>
      <trkpt lat="48.40751" lon="7.26743">
        <ele>1056</ele>
        <time>2020-06-24T08:27:34.130Z</time>
      </trkpt>
      <trkpt lat="48.40751" lon="7.26741">
        <ele>1056</ele>
        <time>2020-06-24T08:27:35.130Z</time>
      </trkpt>
      <trkpt lat="48.40752" lon="7.2674">
        <ele>1056</ele>
        <time>2020-06-24T08:27:36.129Z</time>
      </trkpt>
      <trkpt lat="48.40752" lon="7.26738">
        <ele>1056</ele>
        <time>2020-06-24T08:27:37.130Z</time>
      </trkpt>
      <trkpt lat="48.40753" lon="7.26737">
        <ele>1056</ele>
        <time>2020-06-24T08:27:38.130Z</time>
      </trkpt>
      <trkpt lat="48.40753" lon="7.26735">
        <ele>1056</ele>
        <time>2020-06-24T08:27:39.130Z</time>
      </trkpt>
      <trkpt lat="48.40754" lon="7.26733">
        <ele>1055</ele>
        <time>2020-06-24T08:27:40.130Z</time>
      </trkpt>
      <trkpt lat="48.40755" lon="7.26731">
        <ele>1055</ele>
        <time>2020-06-24T08:27:41.130Z</time>
      </trkpt>
      <trkpt lat="48.40755" lon="7.26729">
        <ele>1056</ele>
        <time>2020-06-24T08:27:42.130Z</time>
      </trkpt>
      <trkpt lat="48.40756" lon="7.26727">
        <ele>1056</ele>
        <time>2020-06-24T08:27:43.130Z</time>
      </trkpt>
      <trkpt lat="48.40756" lon="7.26725">
        <ele>1056</ele>
        <time>2020-06-24T08:27:44.130Z</time>
      </trkpt>
      <trkpt lat="48.40757" lon="7.26723">
        <ele>1055</ele>
        <time>2020-06-24T08:27:45.130Z</time>
      </trkpt>
      <trkpt lat="48.40758" lon="7.26721">
        <ele>1055</ele>
        <time>2020-06-24T08:27:46.129Z</time>
      </trkpt>
      <trkpt lat="48.40758" lon="7.26719">
        <ele>1055</ele>
        <time>2020-06-24T08:27:47.130Z</time>
      </trkpt>
      <trkpt lat="48.40759" lon="7.26717">
        <ele>1055</ele>
        <time>2020-06-24T08:27:48.129Z</time>
      </trkpt>
      <trkpt lat="48.40759" lon="7.26716">
        <ele>1055</ele>
        <time>2020-06-24T08:27:49.130Z</time>
      </trkpt>
      <trkpt lat="48.4076" lon="7.26713">
        <ele>1055</ele>
        <time>2020-06-24T08:27:50.130Z</time>
      </trkpt>
      <trkpt lat="48.40761" lon="7.26711">
        <ele>1055</ele>
        <time>2020-06-24T08:27:51.129Z</time>
      </trkpt>
      <trkpt lat="48.40761" lon="7.26709">
        <ele>1055</ele>
        <time>2020-06-24T08:27:52.130Z</time>
      </trkpt>
      <trkpt lat="48.40762" lon="7.26708">
        <ele>1055</ele>
        <time>2020-06-24T08:27:53.129Z</time>
      </trkpt>
      <trkpt lat="48.40763" lon="7.26705">
        <ele>1054</ele>
        <time>2020-06-24T08:27:54.130Z</time>
      </trkpt>
      <trkpt lat="48.40764" lon="7.26704">
        <ele>1054</ele>
        <time>2020-06-24T08:27:55.129Z</time>
      </trkpt>
      <trkpt lat="48.40764" lon="7.26702">
        <ele>1053</ele>
        <time>2020-06-24T08:27:56.130Z</time>
      </trkpt>
      <trkpt lat="48.40765" lon="7.267">
        <ele>1053</ele>
        <time>2020-06-24T08:27:57.129Z</time>
      </trkpt>
      <trkpt lat="48.40766" lon="7.26699">
        <ele>1052</ele>
        <time>2020-06-24T08:27:58.130Z</time>
      </trkpt>
      <trkpt lat="48.40766" lon="7.26696">
        <ele>1052</ele>
        <time>2020-06-24T08:27:59.130Z</time>
      </trkpt>
      <trkpt lat="48.40767" lon="7.26695">
        <ele>1051</ele>
        <time>2020-06-24T08:28:00.130Z</time>
      </trkpt>
      <trkpt lat="48.40768" lon="7.26693">
        <ele>1051</ele>
        <time>2020-06-24T08:28:01.130Z</time>
      </trkpt>
      <trkpt lat="48.40769" lon="7.26691">
        <ele>1051</ele>
        <time>2020-06-24T08:28:02.130Z</time>
      </trkpt>
      <trkpt lat="48.40769" lon="7.26689">
        <ele>1050</ele>
        <time>2020-06-24T08:28:03.129Z</time>
      </trkpt>
      <trkpt lat="48.4077" lon="7.26687">
        <ele>1050</ele>
        <time>2020-06-24T08:28:04.129Z</time>
      </trkpt>
      <trkpt lat="48.4077" lon="7.26684">
        <ele>1050</ele>
        <time>2020-06-24T08:28:05.129Z</time>
      </trkpt>
      <trkpt lat="48.40771" lon="7.26682">
        <ele>1050</ele>
        <time>2020-06-24T08:28:06.130Z</time>
      </trkpt>
      <trkpt lat="48.40771" lon="7.2668">
        <ele>1051</ele>
        <time>2020-06-24T08:28:07.130Z</time>
      </trkpt>
      <trkpt lat="48.40772" lon="7.26678">
        <ele>1051</ele>
        <time>2020-06-24T08:28:08.130Z</time>
      </trkpt>
      <trkpt lat="48.40773" lon="7.26676">
        <ele>1051</ele>
        <time>2020-06-24T08:28:09.130Z</time>
      </trkpt>
      <trkpt lat="48.40773" lon="7.26674">
        <ele>1051</ele>
        <time>2020-06-24T08:28:10.130Z</time>
      </trkpt>
      <trkpt lat="48.40773" lon="7.26673">
        <ele>1052</ele>
        <time>2020-06-24T08:28:11.130Z</time>
      </trkpt>
      <trkpt lat="48.40773" lon="7.2667">
        <ele>1052</ele>
        <time>2020-06-24T08:28:12.130Z</time>
      </trkpt>
      <trkpt lat="48.40774" lon="7.26668">
        <ele>1052</ele>
        <time>2020-06-24T08:28:13.129Z</time>
      </trkpt>
      <trkpt lat="48.40774" lon="7.26666">
        <ele>1052</ele>
        <time>2020-06-24T08:28:14.130Z</time>
      </trkpt>
      <trkpt lat="48.40775" lon="7.26664">
        <ele>1052</ele>
        <time>2020-06-24T08:28:15.130Z</time>
      </trkpt>
      <trkpt lat="48.40775" lon="7.26662">
        <ele>1052</ele>
        <time>2020-06-24T08:28:16.130Z</time>
      </trkpt>
      <trkpt lat="48.40776" lon="7.2666">
        <ele>1051</ele>
        <time>2020-06-24T08:28:17.130Z</time>
      </trkpt>
      <trkpt lat="48.40777" lon="7.26658">
        <ele>1050</ele>
        <time>2020-06-24T08:28:18.130Z</time>
      </trkpt>
      <trkpt lat="48.40777" lon="7.26656">
        <ele>1050</ele>
        <time>2020-06-24T08:28:19.129Z</time>
      </trkpt>
      <trkpt lat="48.40778" lon="7.26653">
        <ele>1049</ele>
        <time>2020-06-24T08:28:20.130Z</time>
      </trkpt>
      <trkpt lat="48.40778" lon="7.26651">
        <ele>1049</ele>
        <time>2020-06-24T08:28:21.129Z</time>
      </trkpt>
      <trkpt lat="48.40778" lon="7.26649">
        <ele>1049</ele>
        <time>2020-06-24T08:28:22.130Z</time>
      </trkpt>
      <trkpt lat="48.40779" lon="7.26646">
        <ele>1049</ele>
        <time>2020-06-24T08:28:23.130Z</time>
      </trkpt>
      <trkpt lat="48.40779" lon="7.26644">
        <ele>1050</ele>
        <time>2020-06-24T08:28:24.129Z</time>
      </trkpt>
      <trkpt lat="48.40779" lon="7.26642">
        <ele>1050</ele>
        <time>2020-06-24T08:28:25.129Z</time>
      </trkpt>
      <trkpt lat="48.40779" lon="7.2664">
        <ele>1050</ele>
        <time>2020-06-24T08:28:26.130Z</time>
      </trkpt>
      <trkpt lat="48.4078" lon="7.26637">
        <ele>1051</ele>
        <time>2020-06-24T08:28:27.130Z</time>
      </trkpt>
      <trkpt lat="48.4078" lon="7.26635">
        <ele>1051</ele>
        <time>2020-06-24T08:28:28.129Z</time>
      </trkpt>
      <trkpt lat="48.40781" lon="7.26633">
        <ele>1051</ele>
        <time>2020-06-24T08:28:29.130Z</time>
      </trkpt>
      <trkpt lat="48.40781" lon="7.26631">
        <ele>1051</ele>
        <time>2020-06-24T08:28:30.130Z</time>
      </trkpt>
      <trkpt lat="48.40782" lon="7.26629">
        <ele>1051</ele>
        <time>2020-06-24T08:28:31.129Z</time>
      </trkpt>
      <trkpt lat="48.40782" lon="7.26627">
        <ele>1051</ele>
        <time>2020-06-24T08:28:32.130Z</time>
      </trkpt>
      <trkpt lat="48.40782" lon="7.26624">
        <ele>1051</ele>
        <time>2020-06-24T08:28:33.130Z</time>
      </trkpt>
      <trkpt lat="48.40783" lon="7.26623">
        <ele>1051</ele>
        <time>2020-06-24T08:28:34.130Z</time>
      </trkpt>
      <trkpt lat="48.40783" lon="7.2662">
        <ele>1051</ele>
        <time>2020-06-24T08:28:35.130Z</time>
      </trkpt>
      <trkpt lat="48.40783" lon="7.26617">
        <ele>1051</ele>
        <time>2020-06-24T08:28:36.130Z</time>
      </trkpt>
      <trkpt lat="48.40783" lon="7.26615">
        <ele>1051</ele>
        <time>2020-06-24T08:28:37.130Z</time>
      </trkpt>
      <trkpt lat="48.40784" lon="7.26613">
        <ele>1051</ele>
        <time>2020-06-24T08:28:38.130Z</time>
      </trkpt>
      <trkpt lat="48.40784" lon="7.26611">
        <ele>1052</ele>
        <time>2020-06-24T08:28:39.130Z</time>
      </trkpt>
      <trkpt lat="48.40784" lon="7.26608">
        <ele>1052</ele>
        <time>2020-06-24T08:28:40.130Z</time>
      </trkpt>
      <trkpt lat="48.40784" lon="7.26606">
        <ele>1053</ele>
        <time>2020-06-24T08:28:41.129Z</time>
      </trkpt>
      <trkpt lat="48.40784" lon="7.26604">
        <ele>1053</ele>
        <time>2020-06-24T08:28:42.130Z</time>
      </trkpt>
      <trkpt lat="48.40785" lon="7.26603">
        <ele>1053</ele>
        <time>2020-06-24T08:28:43.130Z</time>
      </trkpt>
      <trkpt lat="48.40786" lon="7.26601">
        <ele>1052</ele>
        <time>2020-06-24T08:28:44.130Z</time>
      </trkpt>
      <trkpt lat="48.40785" lon="7.266">
        <ele>1052</ele>
        <time>2020-06-24T08:28:45.130Z</time>
      </trkpt>
      <trkpt lat="48.40785" lon="7.266">
        <ele>1052</ele>
        <time>2020-06-24T08:28:46.129Z</time>
      </trkpt>
      <trkpt lat="48.40785" lon="7.266">
        <ele>1052</ele>
        <time>2020-06-24T08:28:47.129Z</time>
      </trkpt>
      <trkpt lat="48.40785" lon="7.266">
        <ele>1052</ele>
        <time>2020-06-24T08:28:48.130Z</time>
      </trkpt>
      <trkpt lat="48.40785" lon="7.26594">
        <ele>1052</ele>
        <time>2020-06-24T08:28:49.131Z</time>
      </trkpt>
      <trkpt lat="48.40786" lon="7.26591">
        <ele>1052</ele>
        <time>2020-06-24T08:28:50.131Z</time>
      </trkpt>
      <trkpt lat="48.40786" lon="7.26589">
        <ele>1051</ele>
        <time>2020-06-24T08:28:51.130Z</time>
      </trkpt>
      <trkpt lat="48.40787" lon="7.26586">
        <ele>1051</ele>
        <time>2020-06-24T08:28:52.131Z</time>
      </trkpt>
      <trkpt lat="48.40787" lon="7.26584">
        <ele>1050</ele>
        <time>2020-06-24T08:28:53.131Z</time>
      </trkpt>
      <trkpt lat="48.40787" lon="7.26581">
        <ele>1050</ele>
        <time>2020-06-24T08:28:54.131Z</time>
      </trkpt>
      <trkpt lat="48.40787" lon="7.26579">
        <ele>1050</ele>
        <time>2020-06-24T08:28:55.131Z</time>
      </trkpt>
      <trkpt lat="48.40787" lon="7.26576">
        <ele>1050</ele>
        <time>2020-06-24T08:28:56.131Z</time>
      </trkpt>
      <trkpt lat="48.40787" lon="7.26574">
        <ele>1049</ele>
        <time>2020-06-24T08:28:57.131Z</time>
      </trkpt>
      <trkpt lat="48.40788" lon="7.26572">
        <ele>1049</ele>
        <time>2020-06-24T08:28:58.131Z</time>
      </trkpt>
      <trkpt lat="48.40788" lon="7.2657">
        <ele>1049</ele>
        <time>2020-06-24T08:28:59.131Z</time>
      </trkpt>
      <trkpt lat="48.40788" lon="7.26567">
        <ele>1049</ele>
        <time>2020-06-24T08:29:00.131Z</time>
      </trkpt>
      <trkpt lat="48.40788" lon="7.26566">
        <ele>1049</ele>
        <time>2020-06-24T08:29:01.131Z</time>
      </trkpt>
      <trkpt lat="48.40788" lon="7.26563">
        <ele>1048</ele>
        <time>2020-06-24T08:29:02.131Z</time>
      </trkpt>
      <trkpt lat="48.40788" lon="7.26561">
        <ele>1048</ele>
        <time>2020-06-24T08:29:03.130Z</time>
      </trkpt>
      <trkpt lat="48.40788" lon="7.26558">
        <ele>1047</ele>
        <time>2020-06-24T08:29:04.130Z</time>
      </trkpt>
      <trkpt lat="48.40788" lon="7.26556">
        <ele>1047</ele>
        <time>2020-06-24T08:29:05.131Z</time>
      </trkpt>
      <trkpt lat="48.40789" lon="7.26554">
        <ele>1047</ele>
        <time>2020-06-24T08:29:06.130Z</time>
      </trkpt>
      <trkpt lat="48.40789" lon="7.26551">
        <ele>1047</ele>
        <time>2020-06-24T08:29:07.131Z</time>
      </trkpt>
      <trkpt lat="48.40789" lon="7.26549">
        <ele>1047</ele>
        <time>2020-06-24T08:29:08.130Z</time>
      </trkpt>
      <trkpt lat="48.40789" lon="7.26546">
        <ele>1047</ele>
        <time>2020-06-24T08:29:09.131Z</time>
      </trkpt>
      <trkpt lat="48.40788" lon="7.26544">
        <ele>1047</ele>
        <time>2020-06-24T08:29:10.130Z</time>
      </trkpt>
      <trkpt lat="48.40788" lon="7.26542">
        <ele>1047</ele>
        <time>2020-06-24T08:29:11.131Z</time>
      </trkpt>
      <trkpt lat="48.40788" lon="7.2654">
        <ele>1046</ele>
        <time>2020-06-24T08:29:12.130Z</time>
      </trkpt>
      <trkpt lat="48.40788" lon="7.26538">
        <ele>1046</ele>
        <time>2020-06-24T08:29:13.131Z</time>
      </trkpt>
      <trkpt lat="48.40788" lon="7.26536">
        <ele>1046</ele>
        <time>2020-06-24T08:29:14.131Z</time>
      </trkpt>
      <trkpt lat="48.40788" lon="7.26534">
        <ele>1046</ele>
        <time>2020-06-24T08:29:15.131Z</time>
      </trkpt>
      <trkpt lat="48.40788" lon="7.26532">
        <ele>1047</ele>
        <time>2020-06-24T08:29:16.131Z</time>
      </trkpt>
      <trkpt lat="48.40788" lon="7.2653">
        <ele>1047</ele>
        <time>2020-06-24T08:29:17.130Z</time>
      </trkpt>
      <trkpt lat="48.40787" lon="7.2653">
        <ele>1046</ele>
        <time>2020-06-24T08:29:18.131Z</time>
      </trkpt>
      <trkpt lat="48.40787" lon="7.26529">
        <ele>1046</ele>
        <time>2020-06-24T08:29:19.131Z</time>
      </trkpt>
      <trkpt lat="48.40787" lon="7.26529">
        <ele>1047</ele>
        <time>2020-06-24T08:29:20.131Z</time>
      </trkpt>
      <trkpt lat="48.40787" lon="7.2653">
        <ele>1047</ele>
        <time>2020-06-24T08:29:21.130Z</time>
      </trkpt>
      <trkpt lat="48.40787" lon="7.2653">
        <ele>1047</ele>
        <time>2020-06-24T08:29:22.130Z</time>
      </trkpt>
      <trkpt lat="48.40787" lon="7.2653">
        <ele>1047</ele>
        <time>2020-06-24T08:29:23.131Z</time>
      </trkpt>
      <trkpt lat="48.40787" lon="7.26531">
        <ele>1047</ele>
        <time>2020-06-24T08:29:24.133Z</time>
      </trkpt>
      <trkpt lat="48.40787" lon="7.26531">
        <ele>1047</ele>
        <time>2020-06-24T08:29:25.133Z</time>
      </trkpt>
      <trkpt lat="48.40788" lon="7.26526">
        <ele>1045</ele>
        <time>2020-06-24T08:29:26.133Z</time>
      </trkpt>
      <trkpt lat="48.40788" lon="7.26523">
        <ele>1044</ele>
        <time>2020-06-24T08:29:27.133Z</time>
      </trkpt>
      <trkpt lat="48.40788" lon="7.26521">
        <ele>1044</ele>
        <time>2020-06-24T08:29:28.132Z</time>
      </trkpt>
      <trkpt lat="48.40788" lon="7.26519">
        <ele>1043</ele>
        <time>2020-06-24T08:29:29.133Z</time>
      </trkpt>
      <trkpt lat="48.40788" lon="7.26516">
        <ele>1043</ele>
        <time>2020-06-24T08:29:30.133Z</time>
      </trkpt>
      <trkpt lat="48.40788" lon="7.26514">
        <ele>1043</ele>
        <time>2020-06-24T08:29:31.132Z</time>
      </trkpt>
      <trkpt lat="48.40788" lon="7.26511">
        <ele>1043</ele>
        <time>2020-06-24T08:29:32.133Z</time>
      </trkpt>
      <trkpt lat="48.40788" lon="7.26509">
        <ele>1043</ele>
        <time>2020-06-24T08:29:33.132Z</time>
      </trkpt>
      <trkpt lat="48.40787" lon="7.26507">
        <ele>1043</ele>
        <time>2020-06-24T08:29:34.132Z</time>
      </trkpt>
      <trkpt lat="48.40787" lon="7.26504">
        <ele>1043</ele>
        <time>2020-06-24T08:29:35.133Z</time>
      </trkpt>
      <trkpt lat="48.40787" lon="7.26502">
        <ele>1043</ele>
        <time>2020-06-24T08:29:36.133Z</time>
      </trkpt>
      <trkpt lat="48.40786" lon="7.26499">
        <ele>1043</ele>
        <time>2020-06-24T08:29:37.133Z</time>
      </trkpt>
      <trkpt lat="48.40787" lon="7.26497">
        <ele>1043</ele>
        <time>2020-06-24T08:29:38.133Z</time>
      </trkpt>
      <trkpt lat="48.40787" lon="7.26495">
        <ele>1044</ele>
        <time>2020-06-24T08:29:39.133Z</time>
      </trkpt>
      <trkpt lat="48.40787" lon="7.26493">
        <ele>1044</ele>
        <time>2020-06-24T08:29:40.133Z</time>
      </trkpt>
      <trkpt lat="48.40787" lon="7.2649">
        <ele>1044</ele>
        <time>2020-06-24T08:29:41.133Z</time>
      </trkpt>
      <trkpt lat="48.40787" lon="7.26488">
        <ele>1045</ele>
        <time>2020-06-24T08:29:42.133Z</time>
      </trkpt>
      <trkpt lat="48.40787" lon="7.26486">
        <ele>1045</ele>
        <time>2020-06-24T08:29:43.133Z</time>
      </trkpt>
      <trkpt lat="48.40787" lon="7.26483">
        <ele>1046</ele>
        <time>2020-06-24T08:29:44.132Z</time>
      </trkpt>
      <trkpt lat="48.40787" lon="7.26481">
        <ele>1046</ele>
        <time>2020-06-24T08:29:45.132Z</time>
      </trkpt>
      <trkpt lat="48.40787" lon="7.26479">
        <ele>1046</ele>
        <time>2020-06-24T08:29:46.133Z</time>
      </trkpt>
      <trkpt lat="48.40787" lon="7.26476">
        <ele>1046</ele>
        <time>2020-06-24T08:29:47.133Z</time>
      </trkpt>
      <trkpt lat="48.40787" lon="7.26474">
        <ele>1046</ele>
        <time>2020-06-24T08:29:48.133Z</time>
      </trkpt>
      <trkpt lat="48.40787" lon="7.26471">
        <ele>1046</ele>
        <time>2020-06-24T08:29:49.133Z</time>
      </trkpt>
      <trkpt lat="48.40786" lon="7.26469">
        <ele>1045</ele>
        <time>2020-06-24T08:29:50.133Z</time>
      </trkpt>
      <trkpt lat="48.40786" lon="7.26468">
        <ele>1045</ele>
        <time>2020-06-24T08:29:51.133Z</time>
      </trkpt>
      <trkpt lat="48.40785" lon="7.26466">
        <ele>1045</ele>
        <time>2020-06-24T08:29:52.132Z</time>
      </trkpt>
      <trkpt lat="48.40785" lon="7.26463">
        <ele>1045</ele>
        <time>2020-06-24T08:29:53.132Z</time>
      </trkpt>
      <trkpt lat="48.40784" lon="7.26461">
        <ele>1045</ele>
        <time>2020-06-24T08:29:54.133Z</time>
      </trkpt>
      <trkpt lat="48.40784" lon="7.26459">
        <ele>1045</ele>
        <time>2020-06-24T08:29:55.133Z</time>
      </trkpt>
      <trkpt lat="48.40784" lon="7.26457">
        <ele>1045</ele>
        <time>2020-06-24T08:29:56.132Z</time>
      </trkpt>
      <trkpt lat="48.40784" lon="7.26455">
        <ele>1045</ele>
        <time>2020-06-24T08:29:57.133Z</time>
      </trkpt>
      <trkpt lat="48.40783" lon="7.26453">
        <ele>1045</ele>
        <time>2020-06-24T08:29:58.133Z</time>
      </trkpt>
      <trkpt lat="48.40783" lon="7.2645">
        <ele>1045</ele>
        <time>2020-06-24T08:29:59.132Z</time>
      </trkpt>
      <trkpt lat="48.40782" lon="7.26449">
        <ele>1045</ele>
        <time>2020-06-24T08:30:00.133Z</time>
      </trkpt>
      <trkpt lat="48.40782" lon="7.26446">
        <ele>1045</ele>
        <time>2020-06-24T08:30:01.133Z</time>
      </trkpt>
      <trkpt lat="48.40782" lon="7.26444">
        <ele>1045</ele>
        <time>2020-06-24T08:30:02.133Z</time>
      </trkpt>
      <trkpt lat="48.40781" lon="7.26442">
        <ele>1045</ele>
        <time>2020-06-24T08:30:03.133Z</time>
      </trkpt>
      <trkpt lat="48.40781" lon="7.2644">
        <ele>1045</ele>
        <time>2020-06-24T08:30:04.132Z</time>
      </trkpt>
      <trkpt lat="48.40781" lon="7.26437">
        <ele>1045</ele>
        <time>2020-06-24T08:30:05.133Z</time>
      </trkpt>
      <trkpt lat="48.40781" lon="7.26435">
        <ele>1046</ele>
        <time>2020-06-24T08:30:06.133Z</time>
      </trkpt>
      <trkpt lat="48.40781" lon="7.26433">
        <ele>1046</ele>
        <time>2020-06-24T08:30:07.133Z</time>
      </trkpt>
      <trkpt lat="48.40781" lon="7.26431">
        <ele>1046</ele>
        <time>2020-06-24T08:30:08.133Z</time>
      </trkpt>
      <trkpt lat="48.40781" lon="7.2643">
        <ele>1047</ele>
        <time>2020-06-24T08:30:09.132Z</time>
      </trkpt>
      <trkpt lat="48.4078" lon="7.26427">
        <ele>1047</ele>
        <time>2020-06-24T08:30:10.133Z</time>
      </trkpt>
      <trkpt lat="48.4078" lon="7.26425">
        <ele>1047</ele>
        <time>2020-06-24T08:30:11.132Z</time>
      </trkpt>
      <trkpt lat="48.4078" lon="7.26423">
        <ele>1046</ele>
        <time>2020-06-24T08:30:12.133Z</time>
      </trkpt>
      <trkpt lat="48.4078" lon="7.26421">
        <ele>1046</ele>
        <time>2020-06-24T08:30:13.132Z</time>
      </trkpt>
      <trkpt lat="48.40779" lon="7.26419">
        <ele>1046</ele>
        <time>2020-06-24T08:30:14.132Z</time>
      </trkpt>
      <trkpt lat="48.40779" lon="7.26416">
        <ele>1045</ele>
        <time>2020-06-24T08:30:15.133Z</time>
      </trkpt>
      <trkpt lat="48.40779" lon="7.26414">
        <ele>1045</ele>
        <time>2020-06-24T08:30:16.133Z</time>
      </trkpt>
      <trkpt lat="48.40778" lon="7.26412">
        <ele>1045</ele>
        <time>2020-06-24T08:30:17.133Z</time>
      </trkpt>
      <trkpt lat="48.40778" lon="7.2641">
        <ele>1045</ele>
        <time>2020-06-24T08:30:18.132Z</time>
      </trkpt>
      <trkpt lat="48.40777" lon="7.26408">
        <ele>1045</ele>
        <time>2020-06-24T08:30:19.133Z</time>
      </trkpt>
      <trkpt lat="48.40777" lon="7.26405">
        <ele>1044</ele>
        <time>2020-06-24T08:30:20.133Z</time>
      </trkpt>
      <trkpt lat="48.40777" lon="7.26403">
        <ele>1045</ele>
        <time>2020-06-24T08:30:21.133Z</time>
      </trkpt>
      <trkpt lat="48.40776" lon="7.264">
        <ele>1045</ele>
        <time>2020-06-24T08:30:22.133Z</time>
      </trkpt>
      <trkpt lat="48.40776" lon="7.26398">
        <ele>1044</ele>
        <time>2020-06-24T08:30:23.132Z</time>
      </trkpt>
      <trkpt lat="48.40776" lon="7.26396">
        <ele>1044</ele>
        <time>2020-06-24T08:30:24.132Z</time>
      </trkpt>
      <trkpt lat="48.40776" lon="7.26393">
        <ele>1043</ele>
        <time>2020-06-24T08:30:25.133Z</time>
      </trkpt>
      <trkpt lat="48.40775" lon="7.26391">
        <ele>1043</ele>
        <time>2020-06-24T08:30:26.132Z</time>
      </trkpt>
      <trkpt lat="48.40775" lon="7.26389">
        <ele>1043</ele>
        <time>2020-06-24T08:30:27.132Z</time>
      </trkpt>
      <trkpt lat="48.40774" lon="7.26387">
        <ele>1042</ele>
        <time>2020-06-24T08:30:28.132Z</time>
      </trkpt>
      <trkpt lat="48.40774" lon="7.26385">
        <ele>1042</ele>
        <time>2020-06-24T08:30:29.133Z</time>
      </trkpt>
      <trkpt lat="48.40774" lon="7.26382">
        <ele>1042</ele>
        <time>2020-06-24T08:30:30.132Z</time>
      </trkpt>
      <trkpt lat="48.40774" lon="7.2638">
        <ele>1042</ele>
        <time>2020-06-24T08:30:31.133Z</time>
      </trkpt>
      <trkpt lat="48.40773" lon="7.26378">
        <ele>1042</ele>
        <time>2020-06-24T08:30:32.133Z</time>
      </trkpt>
      <trkpt lat="48.40773" lon="7.26375">
        <ele>1042</ele>
        <time>2020-06-24T08:30:33.133Z</time>
      </trkpt>
      <trkpt lat="48.40773" lon="7.26373">
        <ele>1042</ele>
        <time>2020-06-24T08:30:34.133Z</time>
      </trkpt>
      <trkpt lat="48.40773" lon="7.26371">
        <ele>1042</ele>
        <time>2020-06-24T08:30:35.133Z</time>
      </trkpt>
      <trkpt lat="48.40773" lon="7.26369">
        <ele>1042</ele>
        <time>2020-06-24T08:30:36.133Z</time>
      </trkpt>
      <trkpt lat="48.40772" lon="7.26367">
        <ele>1043</ele>
        <time>2020-06-24T08:30:37.133Z</time>
      </trkpt>
      <trkpt lat="48.40772" lon="7.26365">
        <ele>1043</ele>
        <time>2020-06-24T08:30:38.133Z</time>
      </trkpt>
      <trkpt lat="48.40771" lon="7.26363">
        <ele>1043</ele>
        <time>2020-06-24T08:30:39.133Z</time>
      </trkpt>
      <trkpt lat="48.40771" lon="7.2636">
        <ele>1043</ele>
        <time>2020-06-24T08:30:40.132Z</time>
      </trkpt>
      <trkpt lat="48.40771" lon="7.26359">
        <ele>1043</ele>
        <time>2020-06-24T08:30:41.133Z</time>
      </trkpt>
      <trkpt lat="48.4077" lon="7.26356">
        <ele>1043</ele>
        <time>2020-06-24T08:30:42.133Z</time>
      </trkpt>
      <trkpt lat="48.4077" lon="7.26353">
        <ele>1043</ele>
        <time>2020-06-24T08:30:43.132Z</time>
      </trkpt>
      <trkpt lat="48.40769" lon="7.26351">
        <ele>1043</ele>
        <time>2020-06-24T08:30:44.133Z</time>
      </trkpt>
      <trkpt lat="48.40769" lon="7.26349">
        <ele>1043</ele>
        <time>2020-06-24T08:30:45.133Z</time>
      </trkpt>
      <trkpt lat="48.40769" lon="7.26348">
        <ele>1043</ele>
        <time>2020-06-24T08:30:46.133Z</time>
      </trkpt>
      <trkpt lat="48.40768" lon="7.26345">
        <ele>1043</ele>
        <time>2020-06-24T08:30:47.133Z</time>
      </trkpt>
      <trkpt lat="48.40768" lon="7.26343">
        <ele>1043</ele>
        <time>2020-06-24T08:30:48.133Z</time>
      </trkpt>
      <trkpt lat="48.40768" lon="7.2634">
        <ele>1043</ele>
        <time>2020-06-24T08:30:49.132Z</time>
      </trkpt>
      <trkpt lat="48.40768" lon="7.26338">
        <ele>1043</ele>
        <time>2020-06-24T08:30:50.133Z</time>
      </trkpt>
      <trkpt lat="48.40769" lon="7.26336">
        <ele>1043</ele>
        <time>2020-06-24T08:30:51.133Z</time>
      </trkpt>
      <trkpt lat="48.40769" lon="7.26333">
        <ele>1042</ele>
        <time>2020-06-24T08:30:52.132Z</time>
      </trkpt>
      <trkpt lat="48.4077" lon="7.26331">
        <ele>1041</ele>
        <time>2020-06-24T08:30:53.132Z</time>
      </trkpt>
      <trkpt lat="48.40771" lon="7.26329">
        <ele>1040</ele>
        <time>2020-06-24T08:30:54.133Z</time>
      </trkpt>
      <trkpt lat="48.40771" lon="7.26327">
        <ele>1039</ele>
        <time>2020-06-24T08:30:55.133Z</time>
      </trkpt>
      <trkpt lat="48.40771" lon="7.26325">
        <ele>1038</ele>
        <time>2020-06-24T08:30:56.133Z</time>
      </trkpt>
      <trkpt lat="48.40771" lon="7.26323">
        <ele>1038</ele>
        <time>2020-06-24T08:30:57.133Z</time>
      </trkpt>
      <trkpt lat="48.40772" lon="7.26321">
        <ele>1037</ele>
        <time>2020-06-24T08:30:58.133Z</time>
      </trkpt>
      <trkpt lat="48.40772" lon="7.26319">
        <ele>1037</ele>
        <time>2020-06-24T08:30:59.133Z</time>
      </trkpt>
      <trkpt lat="48.40772" lon="7.26317">
        <ele>1036</ele>
        <time>2020-06-24T08:31:00.133Z</time>
      </trkpt>
      <trkpt lat="48.40772" lon="7.26316">
        <ele>1036</ele>
        <time>2020-06-24T08:31:01.133Z</time>
      </trkpt>
      <trkpt lat="48.40772" lon="7.26316">
        <ele>1035</ele>
        <time>2020-06-24T08:31:02.133Z</time>
      </trkpt>
      <trkpt lat="48.40772" lon="7.26315">
        <ele>1035</ele>
        <time>2020-06-24T08:31:03.132Z</time>
      </trkpt>
      <trkpt lat="48.40772" lon="7.26315">
        <ele>1036</ele>
        <time>2020-06-24T08:31:04.133Z</time>
      </trkpt>
      <trkpt lat="48.40772" lon="7.26315">
        <ele>1036</ele>
        <time>2020-06-24T08:31:05.133Z</time>
      </trkpt>
      <trkpt lat="48.40772" lon="7.26315">
        <ele>1037</ele>
        <time>2020-06-24T08:31:06.132Z</time>
      </trkpt>
      <trkpt lat="48.4077" lon="7.2631">
        <ele>1041</ele>
        <time>2020-06-24T08:31:07.132Z</time>
      </trkpt>
      <trkpt lat="48.4077" lon="7.26308">
        <ele>1041</ele>
        <time>2020-06-24T08:31:08.132Z</time>
      </trkpt>
      <trkpt lat="48.4077" lon="7.26306">
        <ele>1041</ele>
        <time>2020-06-24T08:31:09.133Z</time>
      </trkpt>
      <trkpt lat="48.4077" lon="7.26305">
        <ele>1041</ele>
        <time>2020-06-24T08:31:10.133Z</time>
      </trkpt>
      <trkpt lat="48.40769" lon="7.26302">
        <ele>1040</ele>
        <time>2020-06-24T08:31:11.133Z</time>
      </trkpt>
      <trkpt lat="48.40768" lon="7.263">
        <ele>1040</ele>
        <time>2020-06-24T08:31:12.133Z</time>
      </trkpt>
      <trkpt lat="48.40768" lon="7.26297">
        <ele>1039</ele>
        <time>2020-06-24T08:31:13.133Z</time>
      </trkpt>
      <trkpt lat="48.40768" lon="7.26295">
        <ele>1039</ele>
        <time>2020-06-24T08:31:14.133Z</time>
      </trkpt>
      <trkpt lat="48.40768" lon="7.26293">
        <ele>1039</ele>
        <time>2020-06-24T08:31:15.133Z</time>
      </trkpt>
      <trkpt lat="48.40768" lon="7.26292">
        <ele>1038</ele>
        <time>2020-06-24T08:31:16.133Z</time>
      </trkpt>
      <trkpt lat="48.40768" lon="7.2629">
        <ele>1039</ele>
        <time>2020-06-24T08:31:17.132Z</time>
      </trkpt>
      <trkpt lat="48.40768" lon="7.26288">
        <ele>1039</ele>
        <time>2020-06-24T08:31:18.133Z</time>
      </trkpt>
      <trkpt lat="48.40768" lon="7.26287">
        <ele>1039</ele>
        <time>2020-06-24T08:31:19.133Z</time>
      </trkpt>
      <trkpt lat="48.40767" lon="7.26285">
        <ele>1039</ele>
        <time>2020-06-24T08:31:20.132Z</time>
      </trkpt>
      <trkpt lat="48.40766" lon="7.26282">
        <ele>1039</ele>
        <time>2020-06-24T08:31:21.133Z</time>
      </trkpt>
      <trkpt lat="48.40765" lon="7.2628">
        <ele>1039</ele>
        <time>2020-06-24T08:31:22.133Z</time>
      </trkpt>
      <trkpt lat="48.40765" lon="7.26278">
        <ele>1039</ele>
        <time>2020-06-24T08:31:23.133Z</time>
      </trkpt>
      <trkpt lat="48.40764" lon="7.26276">
        <ele>1038</ele>
        <time>2020-06-24T08:31:24.133Z</time>
      </trkpt>
      <trkpt lat="48.40764" lon="7.26274">
        <ele>1038</ele>
        <time>2020-06-24T08:31:25.132Z</time>
      </trkpt>
      <trkpt lat="48.40764" lon="7.26273">
        <ele>1037</ele>
        <time>2020-06-24T08:31:26.133Z</time>
      </trkpt>
      <trkpt lat="48.40763" lon="7.26271">
        <ele>1037</ele>
        <time>2020-06-24T08:31:27.133Z</time>
      </trkpt>
      <trkpt lat="48.40763" lon="7.2627">
        <ele>1036</ele>
        <time>2020-06-24T08:31:28.133Z</time>
      </trkpt>
      <trkpt lat="48.40763" lon="7.26269">
        <ele>1036</ele>
        <time>2020-06-24T08:31:29.133Z</time>
      </trkpt>
      <trkpt lat="48.40763" lon="7.26267">
        <ele>1036</ele>
        <time>2020-06-24T08:31:30.132Z</time>
      </trkpt>
      <trkpt lat="48.40762" lon="7.26265">
        <ele>1035</ele>
        <time>2020-06-24T08:31:31.132Z</time>
      </trkpt>
      <trkpt lat="48.40762" lon="7.26264">
        <ele>1035</ele>
        <time>2020-06-24T08:31:32.133Z</time>
      </trkpt>
      <trkpt lat="48.40762" lon="7.26263">
        <ele>1034</ele>
        <time>2020-06-24T08:31:33.132Z</time>
      </trkpt>
      <trkpt lat="48.40762" lon="7.26261">
        <ele>1034</ele>
        <time>2020-06-24T08:31:34.133Z</time>
      </trkpt>
      <trkpt lat="48.40762" lon="7.26259">
        <ele>1034</ele>
        <time>2020-06-24T08:31:35.133Z</time>
      </trkpt>
      <trkpt lat="48.40762" lon="7.26258">
        <ele>1034</ele>
        <time>2020-06-24T08:31:36.132Z</time>
      </trkpt>
      <trkpt lat="48.40762" lon="7.26255">
        <ele>1034</ele>
        <time>2020-06-24T08:31:37.132Z</time>
      </trkpt>
      <trkpt lat="48.40762" lon="7.26253">
        <ele>1033</ele>
        <time>2020-06-24T08:31:38.133Z</time>
      </trkpt>
      <trkpt lat="48.40761" lon="7.26251">
        <ele>1033</ele>
        <time>2020-06-24T08:31:39.133Z</time>
      </trkpt>
      <trkpt lat="48.40761" lon="7.26249">
        <ele>1032</ele>
        <time>2020-06-24T08:31:40.133Z</time>
      </trkpt>
      <trkpt lat="48.40761" lon="7.26247">
        <ele>1031</ele>
        <time>2020-06-24T08:31:41.133Z</time>
      </trkpt>
      <trkpt lat="48.40761" lon="7.26245">
        <ele>1030</ele>
        <time>2020-06-24T08:31:42.133Z</time>
      </trkpt>
      <trkpt lat="48.40761" lon="7.26243">
        <ele>1029</ele>
        <time>2020-06-24T08:31:43.133Z</time>
      </trkpt>
      <trkpt lat="48.40762" lon="7.2624">
        <ele>1028</ele>
        <time>2020-06-24T08:31:44.133Z</time>
      </trkpt>
      <trkpt lat="48.40762" lon="7.26238">
        <ele>1028</ele>
        <time>2020-06-24T08:31:45.133Z</time>
      </trkpt>
      <trkpt lat="48.40762" lon="7.26237">
        <ele>1027</ele>
        <time>2020-06-24T08:31:46.132Z</time>
      </trkpt>
      <trkpt lat="48.40763" lon="7.26234">
        <ele>1027</ele>
        <time>2020-06-24T08:31:47.133Z</time>
      </trkpt>
      <trkpt lat="48.40763" lon="7.26232">
        <ele>1027</ele>
        <time>2020-06-24T08:31:48.132Z</time>
      </trkpt>
      <trkpt lat="48.40764" lon="7.2623">
        <ele>1026</ele>
        <time>2020-06-24T08:31:49.133Z</time>
      </trkpt>
      <trkpt lat="48.40764" lon="7.26229">
        <ele>1026</ele>
        <time>2020-06-24T08:31:50.133Z</time>
      </trkpt>
      <trkpt lat="48.40764" lon="7.26226">
        <ele>1026</ele>
        <time>2020-06-24T08:31:51.133Z</time>
      </trkpt>
      <trkpt lat="48.40764" lon="7.26225">
        <ele>1026</ele>
        <time>2020-06-24T08:31:52.133Z</time>
      </trkpt>
      <trkpt lat="48.40764" lon="7.26223">
        <ele>1026</ele>
        <time>2020-06-24T08:31:53.132Z</time>
      </trkpt>
      <trkpt lat="48.40764" lon="7.2622">
        <ele>1026</ele>
        <time>2020-06-24T08:31:54.133Z</time>
      </trkpt>
      <trkpt lat="48.40764" lon="7.26218">
        <ele>1025</ele>
        <time>2020-06-24T08:31:55.133Z</time>
      </trkpt>
      <trkpt lat="48.40764" lon="7.26216">
        <ele>1025</ele>
        <time>2020-06-24T08:31:56.133Z</time>
      </trkpt>
      <trkpt lat="48.40764" lon="7.26215">
        <ele>1024</ele>
        <time>2020-06-24T08:31:57.133Z</time>
      </trkpt>
      <trkpt lat="48.40764" lon="7.26214">
        <ele>1024</ele>
        <time>2020-06-24T08:31:58.132Z</time>
      </trkpt>
      <trkpt lat="48.40763" lon="7.26212">
        <ele>1023</ele>
        <time>2020-06-24T08:31:59.132Z</time>
      </trkpt>
      <trkpt lat="48.40763" lon="7.2621">
        <ele>1022</ele>
        <time>2020-06-24T08:32:00.132Z</time>
      </trkpt>
      <trkpt lat="48.40763" lon="7.26208">
        <ele>1022</ele>
        <time>2020-06-24T08:32:01.132Z</time>
      </trkpt>
      <trkpt lat="48.40762" lon="7.26205">
        <ele>1022</ele>
        <time>2020-06-24T08:32:02.133Z</time>
      </trkpt>
      <trkpt lat="48.40762" lon="7.26203">
        <ele>1021</ele>
        <time>2020-06-24T08:32:03.132Z</time>
      </trkpt>
      <trkpt lat="48.40762" lon="7.26201">
        <ele>1021</ele>
        <time>2020-06-24T08:32:04.133Z</time>
      </trkpt>
      <trkpt lat="48.40762" lon="7.26198">
        <ele>1021</ele>
        <time>2020-06-24T08:32:05.132Z</time>
      </trkpt>
      <trkpt lat="48.40762" lon="7.26196">
        <ele>1020</ele>
        <time>2020-06-24T08:32:06.133Z</time>
      </trkpt>
      <trkpt lat="48.40761" lon="7.26195">
        <ele>1020</ele>
        <time>2020-06-24T08:32:07.133Z</time>
      </trkpt>
      <trkpt lat="48.40761" lon="7.26193">
        <ele>1019</ele>
        <time>2020-06-24T08:32:08.133Z</time>
      </trkpt>
      <trkpt lat="48.4076" lon="7.2619">
        <ele>1019</ele>
        <time>2020-06-24T08:32:09.133Z</time>
      </trkpt>
      <trkpt lat="48.4076" lon="7.26189">
        <ele>1018</ele>
        <time>2020-06-24T08:32:10.133Z</time>
      </trkpt>
      <trkpt lat="48.40759" lon="7.26187">
        <ele>1018</ele>
        <time>2020-06-24T08:32:11.132Z</time>
      </trkpt>
      <trkpt lat="48.40759" lon="7.26185">
        <ele>1017</ele>
        <time>2020-06-24T08:32:12.133Z</time>
      </trkpt>
      <trkpt lat="48.40759" lon="7.26183">
        <ele>1017</ele>
        <time>2020-06-24T08:32:13.132Z</time>
      </trkpt>
      <trkpt lat="48.40758" lon="7.26181">
        <ele>1016</ele>
        <time>2020-06-24T08:32:14.132Z</time>
      </trkpt>
      <trkpt lat="48.40758" lon="7.26179">
        <ele>1016</ele>
        <time>2020-06-24T08:32:15.133Z</time>
      </trkpt>
      <trkpt lat="48.40757" lon="7.26177">
        <ele>1017</ele>
        <time>2020-06-24T08:32:16.132Z</time>
      </trkpt>
      <trkpt lat="48.40757" lon="7.26175">
        <ele>1017</ele>
        <time>2020-06-24T08:32:17.133Z</time>
      </trkpt>
      <trkpt lat="48.40757" lon="7.26173">
        <ele>1017</ele>
        <time>2020-06-24T08:32:18.132Z</time>
      </trkpt>
      <trkpt lat="48.40756" lon="7.26171">
        <ele>1017</ele>
        <time>2020-06-24T08:32:19.133Z</time>
      </trkpt>
      <trkpt lat="48.40756" lon="7.26168">
        <ele>1017</ele>
        <time>2020-06-24T08:32:20.132Z</time>
      </trkpt>
      <trkpt lat="48.40755" lon="7.26166">
        <ele>1017</ele>
        <time>2020-06-24T08:32:21.132Z</time>
      </trkpt>
      <trkpt lat="48.40755" lon="7.26164">
        <ele>1017</ele>
        <time>2020-06-24T08:32:22.133Z</time>
      </trkpt>
      <trkpt lat="48.40755" lon="7.26161">
        <ele>1017</ele>
        <time>2020-06-24T08:32:23.133Z</time>
      </trkpt>
      <trkpt lat="48.40754" lon="7.26159">
        <ele>1017</ele>
        <time>2020-06-24T08:32:24.132Z</time>
      </trkpt>
      <trkpt lat="48.40754" lon="7.26157">
        <ele>1017</ele>
        <time>2020-06-24T08:32:25.132Z</time>
      </trkpt>
      <trkpt lat="48.40754" lon="7.26154">
        <ele>1017</ele>
        <time>2020-06-24T08:32:26.133Z</time>
      </trkpt>
      <trkpt lat="48.40753" lon="7.26152">
        <ele>1016</ele>
        <time>2020-06-24T08:32:27.132Z</time>
      </trkpt>
      <trkpt lat="48.40753" lon="7.2615">
        <ele>1016</ele>
        <time>2020-06-24T08:32:28.133Z</time>
      </trkpt>
      <trkpt lat="48.40753" lon="7.26148">
        <ele>1016</ele>
        <time>2020-06-24T08:32:29.132Z</time>
      </trkpt>
      <trkpt lat="48.40752" lon="7.26147">
        <ele>1016</ele>
        <time>2020-06-24T08:32:30.133Z</time>
      </trkpt>
      <trkpt lat="48.40752" lon="7.26145">
        <ele>1016</ele>
        <time>2020-06-24T08:32:31.133Z</time>
      </trkpt>
      <trkpt lat="48.40752" lon="7.26143">
        <ele>1016</ele>
        <time>2020-06-24T08:32:32.133Z</time>
      </trkpt>
      <trkpt lat="48.40751" lon="7.26141">
        <ele>1015</ele>
        <time>2020-06-24T08:32:33.132Z</time>
      </trkpt>
      <trkpt lat="48.40751" lon="7.26139">
        <ele>1015</ele>
        <time>2020-06-24T08:32:34.132Z</time>
      </trkpt>
      <trkpt lat="48.40751" lon="7.26137">
        <ele>1015</ele>
        <time>2020-06-24T08:32:35.133Z</time>
      </trkpt>
      <trkpt lat="48.40751" lon="7.26135">
        <ele>1015</ele>
        <time>2020-06-24T08:32:36.133Z</time>
      </trkpt>
      <trkpt lat="48.40752" lon="7.26133">
        <ele>1015</ele>
        <time>2020-06-24T08:32:37.133Z</time>
      </trkpt>
      <trkpt lat="48.40752" lon="7.26132">
        <ele>1015</ele>
        <time>2020-06-24T08:32:38.133Z</time>
      </trkpt>
      <trkpt lat="48.40753" lon="7.2613">
        <ele>1015</ele>
        <time>2020-06-24T08:32:39.133Z</time>
      </trkpt>
      <trkpt lat="48.40753" lon="7.2613">
        <ele>1015</ele>
        <time>2020-06-24T08:32:40.132Z</time>
      </trkpt>
      <trkpt lat="48.40755" lon="7.26128">
        <ele>1015</ele>
        <time>2020-06-24T08:32:41.132Z</time>
      </trkpt>
      <trkpt lat="48.40756" lon="7.26128">
        <ele>1015</ele>
        <time>2020-06-24T08:32:42.133Z</time>
      </trkpt>
      <trkpt lat="48.40758" lon="7.26128">
        <ele>1015</ele>
        <time>2020-06-24T08:32:43.133Z</time>
      </trkpt>
      <trkpt lat="48.40759" lon="7.26129">
        <ele>1015</ele>
        <time>2020-06-24T08:32:44.132Z</time>
      </trkpt>
      <trkpt lat="48.40761" lon="7.26131">
        <ele>1015</ele>
        <time>2020-06-24T08:32:45.133Z</time>
      </trkpt>
      <trkpt lat="48.40762" lon="7.26133">
        <ele>1014</ele>
        <time>2020-06-24T08:32:46.133Z</time>
      </trkpt>
      <trkpt lat="48.40763" lon="7.26136">
        <ele>1014</ele>
        <time>2020-06-24T08:32:47.133Z</time>
      </trkpt>
      <trkpt lat="48.40763" lon="7.26139">
        <ele>1013</ele>
        <time>2020-06-24T08:32:48.133Z</time>
      </trkpt>
      <trkpt lat="48.40764" lon="7.26141">
        <ele>1013</ele>
        <time>2020-06-24T08:32:49.133Z</time>
      </trkpt>
      <trkpt lat="48.40764" lon="7.26142">
        <ele>1012</ele>
        <time>2020-06-24T08:32:50.132Z</time>
      </trkpt>
      <trkpt lat="48.40764" lon="7.26143">
        <ele>1012</ele>
        <time>2020-06-24T08:32:51.133Z</time>
      </trkpt>
      <trkpt lat="48.40764" lon="7.26144">
        <ele>1012</ele>
        <time>2020-06-24T08:32:52.133Z</time>
      </trkpt>
      <trkpt lat="48.40763" lon="7.26145">
        <ele>1012</ele>
        <time>2020-06-24T08:32:53.133Z</time>
      </trkpt>
      <trkpt lat="48.40764" lon="7.26146">
        <ele>1012</ele>
        <time>2020-06-24T08:32:54.133Z</time>
      </trkpt>
      <trkpt lat="48.40764" lon="7.26147">
        <ele>1012</ele>
        <time>2020-06-24T08:32:55.132Z</time>
      </trkpt>
      <trkpt lat="48.40764" lon="7.26148">
        <ele>1012</ele>
        <time>2020-06-24T08:32:56.133Z</time>
      </trkpt>
      <trkpt lat="48.40764" lon="7.26147">
        <ele>1012</ele>
        <time>2020-06-24T08:32:57.133Z</time>
      </trkpt>
      <trkpt lat="48.40764" lon="7.26147">
        <ele>1012</ele>
        <time>2020-06-24T08:32:58.133Z</time>
      </trkpt>
      <trkpt lat="48.40762" lon="7.26145">
        <ele>1013</ele>
        <time>2020-06-24T08:32:59.134Z</time>
      </trkpt>
      <trkpt lat="48.40762" lon="7.26144">
        <ele>1013</ele>
        <time>2020-06-24T08:33:00.134Z</time>
      </trkpt>
      <trkpt lat="48.40762" lon="7.26144">
        <ele>1013</ele>
        <time>2020-06-24T08:33:01.133Z</time>
      </trkpt>
      <trkpt lat="48.4076" lon="7.26142">
        <ele>1016</ele>
        <time>2020-06-24T08:33:02.135Z</time>
      </trkpt>
      <trkpt lat="48.40759" lon="7.26139">
        <ele>1016</ele>
        <time>2020-06-24T08:33:03.135Z</time>
      </trkpt>
      <trkpt lat="48.40758" lon="7.26137">
        <ele>1017</ele>
        <time>2020-06-24T08:33:04.135Z</time>
      </trkpt>
      <trkpt lat="48.40757" lon="7.26134">
        <ele>1017</ele>
        <time>2020-06-24T08:33:05.134Z</time>
      </trkpt>
      <trkpt lat="48.40757" lon="7.26131">
        <ele>1017</ele>
        <time>2020-06-24T08:33:06.134Z</time>
      </trkpt>
      <trkpt lat="48.40756" lon="7.2613">
        <ele>1017</ele>
        <time>2020-06-24T08:33:07.135Z</time>
      </trkpt>
      <trkpt lat="48.40756" lon="7.26127">
        <ele>1017</ele>
        <time>2020-06-24T08:33:08.135Z</time>
      </trkpt>
      <trkpt lat="48.40755" lon="7.26125">
        <ele>1017</ele>
        <time>2020-06-24T08:33:09.135Z</time>
      </trkpt>
      <trkpt lat="48.40754" lon="7.26123">
        <ele>1017</ele>
        <time>2020-06-24T08:33:10.134Z</time>
      </trkpt>
      <trkpt lat="48.40754" lon="7.26121">
        <ele>1017</ele>
        <time>2020-06-24T08:33:11.134Z</time>
      </trkpt>
      <trkpt lat="48.40753" lon="7.26119">
        <ele>1017</ele>
        <time>2020-06-24T08:33:12.135Z</time>
      </trkpt>
      <trkpt lat="48.40753" lon="7.26117">
        <ele>1017</ele>
        <time>2020-06-24T08:33:13.135Z</time>
      </trkpt>
      <trkpt lat="48.40753" lon="7.26115">
        <ele>1018</ele>
        <time>2020-06-24T08:33:14.134Z</time>
      </trkpt>
      <trkpt lat="48.40753" lon="7.26112">
        <ele>1018</ele>
        <time>2020-06-24T08:33:15.135Z</time>
      </trkpt>
      <trkpt lat="48.40753" lon="7.2611">
        <ele>1019</ele>
        <time>2020-06-24T08:33:16.135Z</time>
      </trkpt>
      <trkpt lat="48.40753" lon="7.26108">
        <ele>1019</ele>
        <time>2020-06-24T08:33:17.135Z</time>
      </trkpt>
      <trkpt lat="48.40753" lon="7.26106">
        <ele>1019</ele>
        <time>2020-06-24T08:33:18.134Z</time>
      </trkpt>
      <trkpt lat="48.40753" lon="7.26104">
        <ele>1019</ele>
        <time>2020-06-24T08:33:19.135Z</time>
      </trkpt>
      <trkpt lat="48.40753" lon="7.26102">
        <ele>1019</ele>
        <time>2020-06-24T08:33:20.134Z</time>
      </trkpt>
      <trkpt lat="48.40753" lon="7.261">
        <ele>1018</ele>
        <time>2020-06-24T08:33:21.134Z</time>
      </trkpt>
      <trkpt lat="48.40753" lon="7.26098">
        <ele>1018</ele>
        <time>2020-06-24T08:33:22.135Z</time>
      </trkpt>
      <trkpt lat="48.40753" lon="7.26096">
        <ele>1017</ele>
        <time>2020-06-24T08:33:23.135Z</time>
      </trkpt>
      <trkpt lat="48.40753" lon="7.26094">
        <ele>1016</ele>
        <time>2020-06-24T08:33:24.135Z</time>
      </trkpt>
      <trkpt lat="48.40753" lon="7.26091">
        <ele>1016</ele>
        <time>2020-06-24T08:33:25.135Z</time>
      </trkpt>
      <trkpt lat="48.40753" lon="7.26089">
        <ele>1015</ele>
        <time>2020-06-24T08:33:26.135Z</time>
      </trkpt>
      <trkpt lat="48.40753" lon="7.26089">
        <ele>1015</ele>
        <time>2020-06-24T08:33:27.135Z</time>
      </trkpt>
      <trkpt lat="48.40753" lon="7.26088">
        <ele>1014</ele>
        <time>2020-06-24T08:33:28.134Z</time>
      </trkpt>
      <trkpt lat="48.40753" lon="7.26089">
        <ele>1014</ele>
        <time>2020-06-24T08:33:29.134Z</time>
      </trkpt>
      <trkpt lat="48.40754" lon="7.26089">
        <ele>1013</ele>
        <time>2020-06-24T08:33:30.135Z</time>
      </trkpt>
      <trkpt lat="48.40753" lon="7.26086">
        <ele>1013</ele>
        <time>2020-06-24T08:33:31.137Z</time>
      </trkpt>
      <trkpt lat="48.40753" lon="7.26085">
        <ele>1014</ele>
        <time>2020-06-24T08:33:32.136Z</time>
      </trkpt>
      <trkpt lat="48.40753" lon="7.26084">
        <ele>1014</ele>
        <time>2020-06-24T08:33:33.137Z</time>
      </trkpt>
      <trkpt lat="48.40753" lon="7.26082">
        <ele>1015</ele>
        <time>2020-06-24T08:33:34.136Z</time>
      </trkpt>
      <trkpt lat="48.40753" lon="7.2608">
        <ele>1014</ele>
        <time>2020-06-24T08:33:35.137Z</time>
      </trkpt>
      <trkpt lat="48.40753" lon="7.26078">
        <ele>1014</ele>
        <time>2020-06-24T08:33:36.137Z</time>
      </trkpt>
      <trkpt lat="48.40752" lon="7.26075">
        <ele>1014</ele>
        <time>2020-06-24T08:33:37.136Z</time>
      </trkpt>
      <trkpt lat="48.40752" lon="7.26073">
        <ele>1013</ele>
        <time>2020-06-24T08:33:38.137Z</time>
      </trkpt>
      <trkpt lat="48.40752" lon="7.26071">
        <ele>1012</ele>
        <time>2020-06-24T08:33:39.137Z</time>
      </trkpt>
      <trkpt lat="48.40752" lon="7.26068">
        <ele>1012</ele>
        <time>2020-06-24T08:33:40.137Z</time>
      </trkpt>
      <trkpt lat="48.40751" lon="7.26066">
        <ele>1012</ele>
        <time>2020-06-24T08:33:41.137Z</time>
      </trkpt>
      <trkpt lat="48.40751" lon="7.26063">
        <ele>1011</ele>
        <time>2020-06-24T08:33:42.137Z</time>
      </trkpt>
      <trkpt lat="48.40751" lon="7.26061">
        <ele>1010</ele>
        <time>2020-06-24T08:33:43.137Z</time>
      </trkpt>
      <trkpt lat="48.4075" lon="7.26059">
        <ele>1009</ele>
        <time>2020-06-24T08:33:44.137Z</time>
      </trkpt>
      <trkpt lat="48.4075" lon="7.26057">
        <ele>1009</ele>
        <time>2020-06-24T08:33:45.136Z</time>
      </trkpt>
      <trkpt lat="48.40749" lon="7.26055">
        <ele>1008</ele>
        <time>2020-06-24T08:33:46.137Z</time>
      </trkpt>
      <trkpt lat="48.40749" lon="7.26053">
        <ele>1008</ele>
        <time>2020-06-24T08:33:47.136Z</time>
      </trkpt>
      <trkpt lat="48.40748" lon="7.26051">
        <ele>1008</ele>
        <time>2020-06-24T08:33:48.137Z</time>
      </trkpt>
      <trkpt lat="48.40748" lon="7.26049">
        <ele>1008</ele>
        <time>2020-06-24T08:33:49.136Z</time>
      </trkpt>
      <trkpt lat="48.40747" lon="7.26047">
        <ele>1008</ele>
        <time>2020-06-24T08:33:50.137Z</time>
      </trkpt>
      <trkpt lat="48.40747" lon="7.26045">
        <ele>1008</ele>
        <time>2020-06-24T08:33:51.137Z</time>
      </trkpt>
      <trkpt lat="48.40746" lon="7.26043">
        <ele>1008</ele>
        <time>2020-06-24T08:33:52.137Z</time>
      </trkpt>
      <trkpt lat="48.40746" lon="7.26041">
        <ele>1008</ele>
        <time>2020-06-24T08:33:53.136Z</time>
      </trkpt>
      <trkpt lat="48.40745" lon="7.26039">
        <ele>1008</ele>
        <time>2020-06-24T08:33:54.137Z</time>
      </trkpt>
      <trkpt lat="48.40744" lon="7.26037">
        <ele>1008</ele>
        <time>2020-06-24T08:33:55.136Z</time>
      </trkpt>
      <trkpt lat="48.40744" lon="7.26036">
        <ele>1009</ele>
        <time>2020-06-24T08:33:56.137Z</time>
      </trkpt>
      <trkpt lat="48.40743" lon="7.26034">
        <ele>1009</ele>
        <time>2020-06-24T08:33:57.137Z</time>
      </trkpt>
      <trkpt lat="48.40742" lon="7.26032">
        <ele>1010</ele>
        <time>2020-06-24T08:33:58.136Z</time>
      </trkpt>
      <trkpt lat="48.40741" lon="7.26031">
        <ele>1010</ele>
        <time>2020-06-24T08:33:59.136Z</time>
      </trkpt>
      <trkpt lat="48.4074" lon="7.2603">
        <ele>1011</ele>
        <time>2020-06-24T08:34:00.136Z</time>
      </trkpt>
      <trkpt lat="48.40738" lon="7.2603">
        <ele>1011</ele>
        <time>2020-06-24T08:34:01.136Z</time>
      </trkpt>
      <trkpt lat="48.40737" lon="7.26029">
        <ele>1012</ele>
        <time>2020-06-24T08:34:02.137Z</time>
      </trkpt>
      <trkpt lat="48.40736" lon="7.26027">
        <ele>1012</ele>
        <time>2020-06-24T08:34:03.137Z</time>
      </trkpt>
      <trkpt lat="48.40735" lon="7.26026">
        <ele>1012</ele>
        <time>2020-06-24T08:34:04.137Z</time>
      </trkpt>
      <trkpt lat="48.40734" lon="7.26025">
        <ele>1012</ele>
        <time>2020-06-24T08:34:05.137Z</time>
      </trkpt>
      <trkpt lat="48.40733" lon="7.26024">
        <ele>1012</ele>
        <time>2020-06-24T08:34:06.137Z</time>
      </trkpt>
      <trkpt lat="48.40732" lon="7.26022">
        <ele>1012</ele>
        <time>2020-06-24T08:34:07.136Z</time>
      </trkpt>
      <trkpt lat="48.4073" lon="7.26021">
        <ele>1012</ele>
        <time>2020-06-24T08:34:08.137Z</time>
      </trkpt>
      <trkpt lat="48.40729" lon="7.2602">
        <ele>1013</ele>
        <time>2020-06-24T08:34:09.136Z</time>
      </trkpt>
      <trkpt lat="48.40728" lon="7.26019">
        <ele>1013</ele>
        <time>2020-06-24T08:34:10.137Z</time>
      </trkpt>
      <trkpt lat="48.40727" lon="7.26018">
        <ele>1013</ele>
        <time>2020-06-24T08:34:11.137Z</time>
      </trkpt>
      <trkpt lat="48.40725" lon="7.26016">
        <ele>1013</ele>
        <time>2020-06-24T08:34:12.137Z</time>
      </trkpt>
      <trkpt lat="48.40724" lon="7.26015">
        <ele>1013</ele>
        <time>2020-06-24T08:34:13.137Z</time>
      </trkpt>
      <trkpt lat="48.40724" lon="7.26013">
        <ele>1012</ele>
        <time>2020-06-24T08:34:14.137Z</time>
      </trkpt>
      <trkpt lat="48.40723" lon="7.26012">
        <ele>1012</ele>
        <time>2020-06-24T08:34:15.137Z</time>
      </trkpt>
      <trkpt lat="48.40722" lon="7.26011">
        <ele>1012</ele>
        <time>2020-06-24T08:34:16.137Z</time>
      </trkpt>
      <trkpt lat="48.40721" lon="7.2601">
        <ele>1012</ele>
        <time>2020-06-24T08:34:17.137Z</time>
      </trkpt>
      <trkpt lat="48.4072" lon="7.26008">
        <ele>1012</ele>
        <time>2020-06-24T08:34:18.136Z</time>
      </trkpt>
      <trkpt lat="48.40719" lon="7.26007">
        <ele>1011</ele>
        <time>2020-06-24T08:34:19.137Z</time>
      </trkpt>
      <trkpt lat="48.40718" lon="7.26006">
        <ele>1011</ele>
        <time>2020-06-24T08:34:20.137Z</time>
      </trkpt>
      <trkpt lat="48.40718" lon="7.26004">
        <ele>1010</ele>
        <time>2020-06-24T08:34:21.137Z</time>
      </trkpt>
      <trkpt lat="48.40717" lon="7.26003">
        <ele>1010</ele>
        <time>2020-06-24T08:34:22.136Z</time>
      </trkpt>
      <trkpt lat="48.40716" lon="7.26002">
        <ele>1010</ele>
        <time>2020-06-24T08:34:23.137Z</time>
      </trkpt>
      <trkpt lat="48.40715" lon="7.26001">
        <ele>1009</ele>
        <time>2020-06-24T08:34:24.137Z</time>
      </trkpt>
      <trkpt lat="48.40714" lon="7.26">
        <ele>1008</ele>
        <time>2020-06-24T08:34:25.137Z</time>
      </trkpt>
      <trkpt lat="48.40713" lon="7.25998">
        <ele>1008</ele>
        <time>2020-06-24T08:34:26.136Z</time>
      </trkpt>
      <trkpt lat="48.40712" lon="7.25997">
        <ele>1008</ele>
        <time>2020-06-24T08:34:27.137Z</time>
      </trkpt>
      <trkpt lat="48.40711" lon="7.25996">
        <ele>1008</ele>
        <time>2020-06-24T08:34:28.137Z</time>
      </trkpt>
      <trkpt lat="48.40711" lon="7.25996">
        <ele>1008</ele>
        <time>2020-06-24T08:34:29.137Z</time>
      </trkpt>
      <trkpt lat="48.40711" lon="7.25996">
        <ele>1009</ele>
        <time>2020-06-24T08:34:30.137Z</time>
      </trkpt>
      <trkpt lat="48.4071" lon="7.25996">
        <ele>1009</ele>
        <time>2020-06-24T08:34:31.137Z</time>
      </trkpt>
      <trkpt lat="48.4071" lon="7.25996">
        <ele>1009</ele>
        <time>2020-06-24T08:34:32.137Z</time>
      </trkpt>
      <trkpt lat="48.40709" lon="7.25991">
        <ele>1011</ele>
        <time>2020-06-24T08:34:33.138Z</time>
      </trkpt>
      <trkpt lat="48.40709" lon="7.25989">
        <ele>1010</ele>
        <time>2020-06-24T08:34:34.137Z</time>
      </trkpt>
      <trkpt lat="48.40709" lon="7.25987">
        <ele>1009</ele>
        <time>2020-06-24T08:34:35.138Z</time>
      </trkpt>
      <trkpt lat="48.40708" lon="7.25986">
        <ele>1008</ele>
        <time>2020-06-24T08:34:36.137Z</time>
      </trkpt>
      <trkpt lat="48.40708" lon="7.25984">
        <ele>1008</ele>
        <time>2020-06-24T08:34:37.137Z</time>
      </trkpt>
      <trkpt lat="48.40708" lon="7.25982">
        <ele>1007</ele>
        <time>2020-06-24T08:34:38.138Z</time>
      </trkpt>
      <trkpt lat="48.40708" lon="7.2598">
        <ele>1006</ele>
        <time>2020-06-24T08:34:39.138Z</time>
      </trkpt>
      <trkpt lat="48.40707" lon="7.25978">
        <ele>1006</ele>
        <time>2020-06-24T08:34:40.137Z</time>
      </trkpt>
      <trkpt lat="48.40707" lon="7.25976">
        <ele>1005</ele>
        <time>2020-06-24T08:34:41.137Z</time>
      </trkpt>
      <trkpt lat="48.40707" lon="7.25974">
        <ele>1005</ele>
        <time>2020-06-24T08:34:42.138Z</time>
      </trkpt>
      <trkpt lat="48.40706" lon="7.25973">
        <ele>1004</ele>
        <time>2020-06-24T08:34:43.138Z</time>
      </trkpt>
      <trkpt lat="48.40706" lon="7.25972">
        <ele>1004</ele>
        <time>2020-06-24T08:34:44.138Z</time>
      </trkpt>
      <trkpt lat="48.40705" lon="7.2597">
        <ele>1005</ele>
        <time>2020-06-24T08:34:45.138Z</time>
      </trkpt>
      <trkpt lat="48.40705" lon="7.2597">
        <ele>1005</ele>
        <time>2020-06-24T08:34:46.138Z</time>
      </trkpt>
      <trkpt lat="48.40704" lon="7.25969">
        <ele>1006</ele>
        <time>2020-06-24T08:34:47.137Z</time>
      </trkpt>
      <trkpt lat="48.40704" lon="7.25969">
        <ele>1006</ele>
        <time>2020-06-24T08:34:48.138Z</time>
      </trkpt>
      <trkpt lat="48.40702" lon="7.25968">
        <ele>1007</ele>
        <time>2020-06-24T08:34:49.139Z</time>
      </trkpt>
      <trkpt lat="48.40701" lon="7.25966">
        <ele>1007</ele>
        <time>2020-06-24T08:34:50.139Z</time>
      </trkpt>
      <trkpt lat="48.407" lon="7.25965">
        <ele>1008</ele>
        <time>2020-06-24T08:34:51.138Z</time>
      </trkpt>
      <trkpt lat="48.40699" lon="7.25964">
        <ele>1009</ele>
        <time>2020-06-24T08:34:52.139Z</time>
      </trkpt>
      <trkpt lat="48.40698" lon="7.25963">
        <ele>1009</ele>
        <time>2020-06-24T08:34:53.138Z</time>
      </trkpt>
      <trkpt lat="48.40697" lon="7.25962">
        <ele>1010</ele>
        <time>2020-06-24T08:34:54.139Z</time>
      </trkpt>
      <trkpt lat="48.40696" lon="7.25961">
        <ele>1010</ele>
        <time>2020-06-24T08:34:55.139Z</time>
      </trkpt>
      <trkpt lat="48.40695" lon="7.2596">
        <ele>1010</ele>
        <time>2020-06-24T08:34:56.139Z</time>
      </trkpt>
      <trkpt lat="48.40695" lon="7.25959">
        <ele>1011</ele>
        <time>2020-06-24T08:34:57.138Z</time>
      </trkpt>
      <trkpt lat="48.40694" lon="7.25958">
        <ele>1011</ele>
        <time>2020-06-24T08:34:58.139Z</time>
      </trkpt>
      <trkpt lat="48.40693" lon="7.25957">
        <ele>1011</ele>
        <time>2020-06-24T08:34:59.139Z</time>
      </trkpt>
      <trkpt lat="48.40693" lon="7.25956">
        <ele>1010</ele>
        <time>2020-06-24T08:35:00.139Z</time>
      </trkpt>
      <trkpt lat="48.40692" lon="7.25954">
        <ele>1010</ele>
        <time>2020-06-24T08:35:01.139Z</time>
      </trkpt>
      <trkpt lat="48.40692" lon="7.25953">
        <ele>1010</ele>
        <time>2020-06-24T08:35:02.139Z</time>
      </trkpt>
      <trkpt lat="48.40692" lon="7.25952">
        <ele>1009</ele>
        <time>2020-06-24T08:35:03.139Z</time>
      </trkpt>
      <trkpt lat="48.40692" lon="7.2595">
        <ele>1009</ele>
        <time>2020-06-24T08:35:04.138Z</time>
      </trkpt>
      <trkpt lat="48.40691" lon="7.25949">
        <ele>1009</ele>
        <time>2020-06-24T08:35:05.139Z</time>
      </trkpt>
      <trkpt lat="48.40691" lon="7.25947">
        <ele>1008</ele>
        <time>2020-06-24T08:35:06.139Z</time>
      </trkpt>
      <trkpt lat="48.40691" lon="7.25945">
        <ele>1007</ele>
        <time>2020-06-24T08:35:07.139Z</time>
      </trkpt>
      <trkpt lat="48.40691" lon="7.25943">
        <ele>1006</ele>
        <time>2020-06-24T08:35:08.139Z</time>
      </trkpt>
      <trkpt lat="48.4069" lon="7.25941">
        <ele>1005</ele>
        <time>2020-06-24T08:35:09.139Z</time>
      </trkpt>
      <trkpt lat="48.4069" lon="7.25939">
        <ele>1005</ele>
        <time>2020-06-24T08:35:10.138Z</time>
      </trkpt>
      <trkpt lat="48.4069" lon="7.25938">
        <ele>1005</ele>
        <time>2020-06-24T08:35:11.139Z</time>
      </trkpt>
      <trkpt lat="48.4069" lon="7.25936">
        <ele>1005</ele>
        <time>2020-06-24T08:35:12.138Z</time>
      </trkpt>
      <trkpt lat="48.4069" lon="7.25934">
        <ele>1004</ele>
        <time>2020-06-24T08:35:13.139Z</time>
      </trkpt>
      <trkpt lat="48.40689" lon="7.25933">
        <ele>1004</ele>
        <time>2020-06-24T08:35:14.139Z</time>
      </trkpt>
      <trkpt lat="48.40689" lon="7.25931">
        <ele>1005</ele>
        <time>2020-06-24T08:35:15.139Z</time>
      </trkpt>
      <trkpt lat="48.40689" lon="7.25929">
        <ele>1004</ele>
        <time>2020-06-24T08:35:16.139Z</time>
      </trkpt>
      <trkpt lat="48.40689" lon="7.25928">
        <ele>1004</ele>
        <time>2020-06-24T08:35:17.139Z</time>
      </trkpt>
      <trkpt lat="48.40689" lon="7.25926">
        <ele>1004</ele>
        <time>2020-06-24T08:35:18.139Z</time>
      </trkpt>
      <trkpt lat="48.40689" lon="7.25924">
        <ele>1004</ele>
        <time>2020-06-24T08:35:19.139Z</time>
      </trkpt>
      <trkpt lat="48.40689" lon="7.25922">
        <ele>1004</ele>
        <time>2020-06-24T08:35:20.139Z</time>
      </trkpt>
      <trkpt lat="48.40688" lon="7.2592">
        <ele>1004</ele>
        <time>2020-06-24T08:35:21.138Z</time>
      </trkpt>
      <trkpt lat="48.40688" lon="7.25918">
        <ele>1004</ele>
        <time>2020-06-24T08:35:22.139Z</time>
      </trkpt>
      <trkpt lat="48.40689" lon="7.25916">
        <ele>1004</ele>
        <time>2020-06-24T08:35:23.138Z</time>
      </trkpt>
      <trkpt lat="48.40688" lon="7.25914">
        <ele>1004</ele>
        <time>2020-06-24T08:35:24.138Z</time>
      </trkpt>
      <trkpt lat="48.40688" lon="7.25912">
        <ele>1004</ele>
        <time>2020-06-24T08:35:25.138Z</time>
      </trkpt>
      <trkpt lat="48.40688" lon="7.2591">
        <ele>1004</ele>
        <time>2020-06-24T08:35:26.139Z</time>
      </trkpt>
      <trkpt lat="48.40687" lon="7.25908">
        <ele>1005</ele>
        <time>2020-06-24T08:35:27.139Z</time>
      </trkpt>
      <trkpt lat="48.40687" lon="7.25906">
        <ele>1005</ele>
        <time>2020-06-24T08:35:28.138Z</time>
      </trkpt>
      <trkpt lat="48.40686" lon="7.25905">
        <ele>1005</ele>
        <time>2020-06-24T08:35:29.139Z</time>
      </trkpt>
      <trkpt lat="48.40686" lon="7.25904">
        <ele>1005</ele>
        <time>2020-06-24T08:35:30.139Z</time>
      </trkpt>
      <trkpt lat="48.40685" lon="7.25903">
        <ele>1005</ele>
        <time>2020-06-24T08:35:31.138Z</time>
      </trkpt>
      <trkpt lat="48.40684" lon="7.25902">
        <ele>1005</ele>
        <time>2020-06-24T08:35:32.138Z</time>
      </trkpt>
      <trkpt lat="48.40683" lon="7.25902">
        <ele>1006</ele>
        <time>2020-06-24T08:35:33.139Z</time>
      </trkpt>
      <trkpt lat="48.40682" lon="7.25902">
        <ele>1006</ele>
        <time>2020-06-24T08:35:34.139Z</time>
      </trkpt>
      <trkpt lat="48.4068" lon="7.25902">
        <ele>1007</ele>
        <time>2020-06-24T08:35:35.139Z</time>
      </trkpt>
      <trkpt lat="48.40679" lon="7.25902">
        <ele>1008</ele>
        <time>2020-06-24T08:35:36.138Z</time>
      </trkpt>
      <trkpt lat="48.40679" lon="7.25902">
        <ele>1009</ele>
        <time>2020-06-24T08:35:37.139Z</time>
      </trkpt>
      <trkpt lat="48.40678" lon="7.25902">
        <ele>1009</ele>
        <time>2020-06-24T08:35:38.139Z</time>
      </trkpt>
      <trkpt lat="48.40678" lon="7.25902">
        <ele>1009</ele>
        <time>2020-06-24T08:35:39.139Z</time>
      </trkpt>
      <trkpt lat="48.40677" lon="7.25903">
        <ele>1009</ele>
        <time>2020-06-24T08:35:40.139Z</time>
      </trkpt>
      <trkpt lat="48.40677" lon="7.25904">
        <ele>1008</ele>
        <time>2020-06-24T08:35:41.139Z</time>
      </trkpt>
      <trkpt lat="48.40676" lon="7.25905">
        <ele>1008</ele>
        <time>2020-06-24T08:35:42.139Z</time>
      </trkpt>
      <trkpt lat="48.40676" lon="7.25906">
        <ele>1009</ele>
        <time>2020-06-24T08:35:43.138Z</time>
      </trkpt>
      <trkpt lat="48.40677" lon="7.25907">
        <ele>1009</ele>
        <time>2020-06-24T08:35:44.139Z</time>
      </trkpt>
      <trkpt lat="48.40677" lon="7.25907">
        <ele>1009</ele>
        <time>2020-06-24T08:35:45.139Z</time>
      </trkpt>
      <trkpt lat="48.40678" lon="7.25907">
        <ele>1009</ele>
        <time>2020-06-24T08:35:46.139Z</time>
      </trkpt>
      <trkpt lat="48.40678" lon="7.25908">
        <ele>1009</ele>
        <time>2020-06-24T08:35:47.139Z</time>
      </trkpt>
      <trkpt lat="48.40679" lon="7.2591">
        <ele>1008</ele>
        <time>2020-06-24T08:35:48.139Z</time>
      </trkpt>
      <trkpt lat="48.40679" lon="7.25912">
        <ele>1008</ele>
        <time>2020-06-24T08:35:49.139Z</time>
      </trkpt>
      <trkpt lat="48.40678" lon="7.25913">
        <ele>1008</ele>
        <time>2020-06-24T08:35:50.139Z</time>
      </trkpt>
      <trkpt lat="48.40678" lon="7.25913">
        <ele>1008</ele>
        <time>2020-06-24T08:35:51.139Z</time>
      </trkpt>
      <trkpt lat="48.40678" lon="7.25913">
        <ele>1008</ele>
        <time>2020-06-24T08:35:52.139Z</time>
      </trkpt>
      <trkpt lat="48.40677" lon="7.25913">
        <ele>1008</ele>
        <time>2020-06-24T08:35:53.138Z</time>
      </trkpt>
      <trkpt lat="48.40677" lon="7.25914">
        <ele>1007</ele>
        <time>2020-06-24T08:35:54.138Z</time>
      </trkpt>
      <trkpt lat="48.40677" lon="7.25914">
        <ele>1007</ele>
        <time>2020-06-24T08:35:55.139Z</time>
      </trkpt>
      <trkpt lat="48.40677" lon="7.25915">
        <ele>1009</ele>
        <time>2020-06-24T08:35:56.140Z</time>
      </trkpt>
      <trkpt lat="48.40678" lon="7.25915">
        <ele>1009</ele>
        <time>2020-06-24T08:35:57.140Z</time>
      </trkpt>
      <trkpt lat="48.40678" lon="7.25914">
        <ele>1009</ele>
        <time>2020-06-24T08:35:58.139Z</time>
      </trkpt>
      <trkpt lat="48.40678" lon="7.25914">
        <ele>1010</ele>
        <time>2020-06-24T08:35:59.139Z</time>
      </trkpt>
      <trkpt lat="48.40678" lon="7.25914">
        <ele>1010</ele>
        <time>2020-06-24T08:36:00.140Z</time>
      </trkpt>
      <trkpt lat="48.40678" lon="7.25906">
        <ele>1020</ele>
        <time>2020-06-24T08:36:01.141Z</time>
      </trkpt>
      <trkpt lat="48.40679" lon="7.25904">
        <ele>1019</ele>
        <time>2020-06-24T08:36:02.141Z</time>
      </trkpt>
      <trkpt lat="48.40679" lon="7.25902">
        <ele>1019</ele>
        <time>2020-06-24T08:36:03.140Z</time>
      </trkpt>
      <trkpt lat="48.4068" lon="7.259">
        <ele>1019</ele>
        <time>2020-06-24T08:36:04.141Z</time>
      </trkpt>
      <trkpt lat="48.40681" lon="7.25898">
        <ele>1018</ele>
        <time>2020-06-24T08:36:05.141Z</time>
      </trkpt>
      <trkpt lat="48.40682" lon="7.25896">
        <ele>1018</ele>
        <time>2020-06-24T08:36:06.140Z</time>
      </trkpt>
      <trkpt lat="48.40683" lon="7.25894">
        <ele>1017</ele>
        <time>2020-06-24T08:36:07.141Z</time>
      </trkpt>
      <trkpt lat="48.40684" lon="7.25892">
        <ele>1017</ele>
        <time>2020-06-24T08:36:08.140Z</time>
      </trkpt>
      <trkpt lat="48.40685" lon="7.2589">
        <ele>1017</ele>
        <time>2020-06-24T08:36:09.141Z</time>
      </trkpt>
      <trkpt lat="48.40687" lon="7.25889">
        <ele>1016</ele>
        <time>2020-06-24T08:36:10.141Z</time>
      </trkpt>
      <trkpt lat="48.40688" lon="7.25888">
        <ele>1016</ele>
        <time>2020-06-24T08:36:11.141Z</time>
      </trkpt>
      <trkpt lat="48.40689" lon="7.25888">
        <ele>1016</ele>
        <time>2020-06-24T08:36:12.140Z</time>
      </trkpt>
      <trkpt lat="48.4069" lon="7.25887">
        <ele>1015</ele>
        <time>2020-06-24T08:36:13.141Z</time>
      </trkpt>
      <trkpt lat="48.40692" lon="7.25887">
        <ele>1015</ele>
        <time>2020-06-24T08:36:14.141Z</time>
      </trkpt>
      <trkpt lat="48.40693" lon="7.25887">
        <ele>1014</ele>
        <time>2020-06-24T08:36:15.141Z</time>
      </trkpt>
      <trkpt lat="48.40695" lon="7.25887">
        <ele>1013</ele>
        <time>2020-06-24T08:36:16.141Z</time>
      </trkpt>
      <trkpt lat="48.40696" lon="7.25886">
        <ele>1012</ele>
        <time>2020-06-24T08:36:17.141Z</time>
      </trkpt>
      <trkpt lat="48.40697" lon="7.25884">
        <ele>1012</ele>
        <time>2020-06-24T08:36:18.141Z</time>
      </trkpt>
      <trkpt lat="48.40698" lon="7.25882">
        <ele>1012</ele>
        <time>2020-06-24T08:36:19.141Z</time>
      </trkpt>
      <trkpt lat="48.40699" lon="7.25881">
        <ele>1011</ele>
        <time>2020-06-24T08:36:20.141Z</time>
      </trkpt>
      <trkpt lat="48.407" lon="7.2588">
        <ele>1011</ele>
        <time>2020-06-24T08:36:21.140Z</time>
      </trkpt>
      <trkpt lat="48.40701" lon="7.25879">
        <ele>1011</ele>
        <time>2020-06-24T08:36:22.140Z</time>
      </trkpt>
      <trkpt lat="48.40702" lon="7.25878">
        <ele>1010</ele>
        <time>2020-06-24T08:36:23.141Z</time>
      </trkpt>
      <trkpt lat="48.40702" lon="7.25876">
        <ele>1010</ele>
        <time>2020-06-24T08:36:24.141Z</time>
      </trkpt>
      <trkpt lat="48.40702" lon="7.25875">
        <ele>1009</ele>
        <time>2020-06-24T08:36:25.141Z</time>
      </trkpt>
      <trkpt lat="48.40703" lon="7.25873">
        <ele>1008</ele>
        <time>2020-06-24T08:36:26.140Z</time>
      </trkpt>
      <trkpt lat="48.40704" lon="7.2587">
        <ele>1007</ele>
        <time>2020-06-24T08:36:27.141Z</time>
      </trkpt>
      <trkpt lat="48.40704" lon="7.25869">
        <ele>1006</ele>
        <time>2020-06-24T08:36:28.141Z</time>
      </trkpt>
      <trkpt lat="48.40705" lon="7.25867">
        <ele>1005</ele>
        <time>2020-06-24T08:36:29.141Z</time>
      </trkpt>
      <trkpt lat="48.40705" lon="7.25866">
        <ele>1005</ele>
        <time>2020-06-24T08:36:30.140Z</time>
      </trkpt>
      <trkpt lat="48.40706" lon="7.25864">
        <ele>1005</ele>
        <time>2020-06-24T08:36:31.141Z</time>
      </trkpt>
      <trkpt lat="48.40707" lon="7.25863">
        <ele>1005</ele>
        <time>2020-06-24T08:36:32.140Z</time>
      </trkpt>
      <trkpt lat="48.40708" lon="7.25862">
        <ele>1005</ele>
        <time>2020-06-24T08:36:33.141Z</time>
      </trkpt>
      <trkpt lat="48.40708" lon="7.25861">
        <ele>1005</ele>
        <time>2020-06-24T08:36:34.141Z</time>
      </trkpt>
      <trkpt lat="48.40709" lon="7.25859">
        <ele>1005</ele>
        <time>2020-06-24T08:36:35.140Z</time>
      </trkpt>
      <trkpt lat="48.40708" lon="7.25856">
        <ele>1005</ele>
        <time>2020-06-24T08:36:36.141Z</time>
      </trkpt>
      <trkpt lat="48.40708" lon="7.25853">
        <ele>1005</ele>
        <time>2020-06-24T08:36:37.140Z</time>
      </trkpt>
      <trkpt lat="48.40708" lon="7.2585">
        <ele>1005</ele>
        <time>2020-06-24T08:36:38.141Z</time>
      </trkpt>
      <trkpt lat="48.40708" lon="7.25848">
        <ele>1005</ele>
        <time>2020-06-24T08:36:39.141Z</time>
      </trkpt>
      <trkpt lat="48.40708" lon="7.25847">
        <ele>1005</ele>
        <time>2020-06-24T08:36:40.141Z</time>
      </trkpt>
      <trkpt lat="48.40709" lon="7.25845">
        <ele>1005</ele>
        <time>2020-06-24T08:36:41.141Z</time>
      </trkpt>
      <trkpt lat="48.40709" lon="7.25843">
        <ele>1005</ele>
        <time>2020-06-24T08:36:42.141Z</time>
      </trkpt>
      <trkpt lat="48.40709" lon="7.25842">
        <ele>1005</ele>
        <time>2020-06-24T08:36:43.141Z</time>
      </trkpt>
      <trkpt lat="48.4071" lon="7.2584">
        <ele>1005</ele>
        <time>2020-06-24T08:36:44.140Z</time>
      </trkpt>
      <trkpt lat="48.4071" lon="7.25837">
        <ele>1005</ele>
        <time>2020-06-24T08:36:45.140Z</time>
      </trkpt>
      <trkpt lat="48.4071" lon="7.25835">
        <ele>1005</ele>
        <time>2020-06-24T08:36:46.141Z</time>
      </trkpt>
      <trkpt lat="48.4071" lon="7.25833">
        <ele>1005</ele>
        <time>2020-06-24T08:36:47.140Z</time>
      </trkpt>
      <trkpt lat="48.40711" lon="7.25831">
        <ele>1004</ele>
        <time>2020-06-24T08:36:48.141Z</time>
      </trkpt>
      <trkpt lat="48.40711" lon="7.2583">
        <ele>1004</ele>
        <time>2020-06-24T08:36:49.141Z</time>
      </trkpt>
      <trkpt lat="48.40712" lon="7.25829">
        <ele>1004</ele>
        <time>2020-06-24T08:36:50.141Z</time>
      </trkpt>
      <trkpt lat="48.40713" lon="7.25828">
        <ele>1004</ele>
        <time>2020-06-24T08:36:51.141Z</time>
      </trkpt>
      <trkpt lat="48.40713" lon="7.25827">
        <ele>1005</ele>
        <time>2020-06-24T08:36:52.141Z</time>
      </trkpt>
      <trkpt lat="48.40714" lon="7.25825">
        <ele>1006</ele>
        <time>2020-06-24T08:36:53.141Z</time>
      </trkpt>
      <trkpt lat="48.40714" lon="7.25823">
        <ele>1007</ele>
        <time>2020-06-24T08:36:54.141Z</time>
      </trkpt>
      <trkpt lat="48.40715" lon="7.25822">
        <ele>1007</ele>
        <time>2020-06-24T08:36:55.140Z</time>
      </trkpt>
      <trkpt lat="48.40715" lon="7.25819">
        <ele>1007</ele>
        <time>2020-06-24T08:36:56.140Z</time>
      </trkpt>
      <trkpt lat="48.40716" lon="7.25817">
        <ele>1008</ele>
        <time>2020-06-24T08:36:57.140Z</time>
      </trkpt>
      <trkpt lat="48.40717" lon="7.25815">
        <ele>1008</ele>
        <time>2020-06-24T08:36:58.141Z</time>
      </trkpt>
      <trkpt lat="48.40717" lon="7.25813">
        <ele>1008</ele>
        <time>2020-06-24T08:36:59.141Z</time>
      </trkpt>
      <trkpt lat="48.40718" lon="7.25811">
        <ele>1008</ele>
        <time>2020-06-24T08:37:00.140Z</time>
      </trkpt>
      <trkpt lat="48.40719" lon="7.25809">
        <ele>1008</ele>
        <time>2020-06-24T08:37:01.141Z</time>
      </trkpt>
      <trkpt lat="48.40719" lon="7.25807">
        <ele>1008</ele>
        <time>2020-06-24T08:37:02.140Z</time>
      </trkpt>
      <trkpt lat="48.40719" lon="7.25806">
        <ele>1008</ele>
        <time>2020-06-24T08:37:03.141Z</time>
      </trkpt>
      <trkpt lat="48.4072" lon="7.25804">
        <ele>1008</ele>
        <time>2020-06-24T08:37:04.141Z</time>
      </trkpt>
      <trkpt lat="48.4072" lon="7.25802">
        <ele>1008</ele>
        <time>2020-06-24T08:37:05.140Z</time>
      </trkpt>
      <trkpt lat="48.40721" lon="7.258">
        <ele>1008</ele>
        <time>2020-06-24T08:37:06.140Z</time>
      </trkpt>
      <trkpt lat="48.40722" lon="7.25798">
        <ele>1007</ele>
        <time>2020-06-24T08:37:07.141Z</time>
      </trkpt>
      <trkpt lat="48.40722" lon="7.25796">
        <ele>1007</ele>
        <time>2020-06-24T08:37:08.141Z</time>
      </trkpt>
      <trkpt lat="48.40722" lon="7.25794">
        <ele>1007</ele>
        <time>2020-06-24T08:37:09.140Z</time>
      </trkpt>
      <trkpt lat="48.40723" lon="7.25792">
        <ele>1006</ele>
        <time>2020-06-24T08:37:10.140Z</time>
      </trkpt>
      <trkpt lat="48.40723" lon="7.2579">
        <ele>1006</ele>
        <time>2020-06-24T08:37:11.141Z</time>
      </trkpt>
      <trkpt lat="48.40724" lon="7.25788">
        <ele>1005</ele>
        <time>2020-06-24T08:37:12.141Z</time>
      </trkpt>
      <trkpt lat="48.40724" lon="7.25787">
        <ele>1004</ele>
        <time>2020-06-24T08:37:13.140Z</time>
      </trkpt>
      <trkpt lat="48.40724" lon="7.25785">
        <ele>1004</ele>
        <time>2020-06-24T08:37:14.141Z</time>
      </trkpt>
      <trkpt lat="48.40725" lon="7.25783">
        <ele>1004</ele>
        <time>2020-06-24T08:37:15.141Z</time>
      </trkpt>
      <trkpt lat="48.40725" lon="7.25781">
        <ele>1004</ele>
        <time>2020-06-24T08:37:16.141Z</time>
      </trkpt>
      <trkpt lat="48.40726" lon="7.25779">
        <ele>1005</ele>
        <time>2020-06-24T08:37:17.141Z</time>
      </trkpt>
      <trkpt lat="48.40726" lon="7.25777">
        <ele>1005</ele>
        <time>2020-06-24T08:37:18.141Z</time>
      </trkpt>
      <trkpt lat="48.40726" lon="7.25775">
        <ele>1005</ele>
        <time>2020-06-24T08:37:19.141Z</time>
      </trkpt>
      <trkpt lat="48.40727" lon="7.25773">
        <ele>1005</ele>
        <time>2020-06-24T08:37:20.141Z</time>
      </trkpt>
      <trkpt lat="48.40727" lon="7.25772">
        <ele>1005</ele>
        <time>2020-06-24T08:37:21.140Z</time>
      </trkpt>
      <trkpt lat="48.40727" lon="7.2577">
        <ele>1005</ele>
        <time>2020-06-24T08:37:22.141Z</time>
      </trkpt>
      <trkpt lat="48.40728" lon="7.25768">
        <ele>1005</ele>
        <time>2020-06-24T08:37:23.141Z</time>
      </trkpt>
      <trkpt lat="48.40728" lon="7.25766">
        <ele>1005</ele>
        <time>2020-06-24T08:37:24.141Z</time>
      </trkpt>
      <trkpt lat="48.40729" lon="7.25765">
        <ele>1005</ele>
        <time>2020-06-24T08:37:25.141Z</time>
      </trkpt>
      <trkpt lat="48.40729" lon="7.25763">
        <ele>1006</ele>
        <time>2020-06-24T08:37:26.140Z</time>
      </trkpt>
      <trkpt lat="48.4073" lon="7.25762">
        <ele>1006</ele>
        <time>2020-06-24T08:37:27.140Z</time>
      </trkpt>
      <trkpt lat="48.40731" lon="7.2576">
        <ele>1007</ele>
        <time>2020-06-24T08:37:28.141Z</time>
      </trkpt>
      <trkpt lat="48.40731" lon="7.25758">
        <ele>1007</ele>
        <time>2020-06-24T08:37:29.141Z</time>
      </trkpt>
      <trkpt lat="48.40732" lon="7.25757">
        <ele>1007</ele>
        <time>2020-06-24T08:37:30.141Z</time>
      </trkpt>
      <trkpt lat="48.40733" lon="7.25755">
        <ele>1007</ele>
        <time>2020-06-24T08:37:31.141Z</time>
      </trkpt>
      <trkpt lat="48.40733" lon="7.25754">
        <ele>1007</ele>
        <time>2020-06-24T08:37:32.141Z</time>
      </trkpt>
      <trkpt lat="48.40734" lon="7.25753">
        <ele>1007</ele>
        <time>2020-06-24T08:37:33.140Z</time>
      </trkpt>
      <trkpt lat="48.40735" lon="7.25751">
        <ele>1007</ele>
        <time>2020-06-24T08:37:34.140Z</time>
      </trkpt>
      <trkpt lat="48.40736" lon="7.2575">
        <ele>1007</ele>
        <time>2020-06-24T08:37:35.141Z</time>
      </trkpt>
      <trkpt lat="48.40736" lon="7.2575">
        <ele>1007</ele>
        <time>2020-06-24T08:37:36.140Z</time>
      </trkpt>
      <trkpt lat="48.40737" lon="7.2575">
        <ele>1007</ele>
        <time>2020-06-24T08:37:37.141Z</time>
      </trkpt>
      <trkpt lat="48.40737" lon="7.25749">
        <ele>1007</ele>
        <time>2020-06-24T08:37:38.141Z</time>
      </trkpt>
      <trkpt lat="48.40737" lon="7.25749">
        <ele>1007</ele>
        <time>2020-06-24T08:37:39.141Z</time>
      </trkpt>
      <trkpt lat="48.40737" lon="7.25747">
        <ele>1007</ele>
        <time>2020-06-24T08:37:40.140Z</time>
      </trkpt>
      <trkpt lat="48.40737" lon="7.25746">
        <ele>1007</ele>
        <time>2020-06-24T08:37:41.141Z</time>
      </trkpt>
      <trkpt lat="48.40737" lon="7.25744">
        <ele>1007</ele>
        <time>2020-06-24T08:37:42.141Z</time>
      </trkpt>
      <trkpt lat="48.40738" lon="7.25742">
        <ele>1006</ele>
        <time>2020-06-24T08:37:43.140Z</time>
      </trkpt>
      <trkpt lat="48.40738" lon="7.25741">
        <ele>1006</ele>
        <time>2020-06-24T08:37:44.141Z</time>
      </trkpt>
      <trkpt lat="48.40739" lon="7.25738">
        <ele>1007</ele>
        <time>2020-06-24T08:37:45.141Z</time>
      </trkpt>
      <trkpt lat="48.40741" lon="7.25736">
        <ele>1007</ele>
        <time>2020-06-24T08:37:46.140Z</time>
      </trkpt>
      <trkpt lat="48.40742" lon="7.25733">
        <ele>1007</ele>
        <time>2020-06-24T08:37:47.141Z</time>
      </trkpt>
      <trkpt lat="48.40742" lon="7.25731">
        <ele>1008</ele>
        <time>2020-06-24T08:37:48.141Z</time>
      </trkpt>
      <trkpt lat="48.40743" lon="7.2573">
        <ele>1008</ele>
        <time>2020-06-24T08:37:49.140Z</time>
      </trkpt>
      <trkpt lat="48.40744" lon="7.25728">
        <ele>1008</ele>
        <time>2020-06-24T08:37:50.141Z</time>
      </trkpt>
      <trkpt lat="48.40745" lon="7.25727">
        <ele>1008</ele>
        <time>2020-06-24T08:37:51.140Z</time>
      </trkpt>
      <trkpt lat="48.40747" lon="7.25727">
        <ele>1009</ele>
        <time>2020-06-24T08:37:52.141Z</time>
      </trkpt>
      <trkpt lat="48.40748" lon="7.25726">
        <ele>1009</ele>
        <time>2020-06-24T08:37:53.141Z</time>
      </trkpt>
      <trkpt lat="48.40749" lon="7.25724">
        <ele>1009</ele>
        <time>2020-06-24T08:37:54.141Z</time>
      </trkpt>
      <trkpt lat="48.4075" lon="7.25723">
        <ele>1009</ele>
        <time>2020-06-24T08:37:55.141Z</time>
      </trkpt>
      <trkpt lat="48.40751" lon="7.25723">
        <ele>1009</ele>
        <time>2020-06-24T08:37:56.141Z</time>
      </trkpt>
      <trkpt lat="48.40752" lon="7.25722">
        <ele>1009</ele>
        <time>2020-06-24T08:37:57.141Z</time>
      </trkpt>
      <trkpt lat="48.40752" lon="7.25721">
        <ele>1009</ele>
        <time>2020-06-24T08:37:58.141Z</time>
      </trkpt>
      <trkpt lat="48.40753" lon="7.2572">
        <ele>1009</ele>
        <time>2020-06-24T08:37:59.140Z</time>
      </trkpt>
      <trkpt lat="48.40754" lon="7.25719">
        <ele>1009</ele>
        <time>2020-06-24T08:38:00.141Z</time>
      </trkpt>
      <trkpt lat="48.40755" lon="7.25718">
        <ele>1010</ele>
        <time>2020-06-24T08:38:01.140Z</time>
      </trkpt>
      <trkpt lat="48.40756" lon="7.25717">
        <ele>1010</ele>
        <time>2020-06-24T08:38:02.140Z</time>
      </trkpt>
      <trkpt lat="48.40756" lon="7.25715">
        <ele>1011</ele>
        <time>2020-06-24T08:38:03.141Z</time>
      </trkpt>
      <trkpt lat="48.40757" lon="7.25714">
        <ele>1011</ele>
        <time>2020-06-24T08:38:04.141Z</time>
      </trkpt>
      <trkpt lat="48.40758" lon="7.25713">
        <ele>1011</ele>
        <time>2020-06-24T08:38:05.141Z</time>
      </trkpt>
      <trkpt lat="48.40759" lon="7.25712">
        <ele>1011</ele>
        <time>2020-06-24T08:38:06.141Z</time>
      </trkpt>
      <trkpt lat="48.4076" lon="7.25711">
        <ele>1011</ele>
        <time>2020-06-24T08:38:07.141Z</time>
      </trkpt>
      <trkpt lat="48.40761" lon="7.2571">
        <ele>1012</ele>
        <time>2020-06-24T08:38:08.141Z</time>
      </trkpt>
      <trkpt lat="48.40762" lon="7.25709">
        <ele>1012</ele>
        <time>2020-06-24T08:38:09.140Z</time>
      </trkpt>
      <trkpt lat="48.40763" lon="7.25708">
        <ele>1012</ele>
        <time>2020-06-24T08:38:10.141Z</time>
      </trkpt>
      <trkpt lat="48.40763" lon="7.25708">
        <ele>1013</ele>
        <time>2020-06-24T08:38:11.141Z</time>
      </trkpt>
      <trkpt lat="48.40763" lon="7.25707">
        <ele>1013</ele>
        <time>2020-06-24T08:38:12.140Z</time>
      </trkpt>
      <trkpt lat="48.40763" lon="7.25707">
        <ele>1013</ele>
        <time>2020-06-24T08:38:13.141Z</time>
      </trkpt>
      <trkpt lat="48.40763" lon="7.25706">
        <ele>1013</ele>
        <time>2020-06-24T08:38:14.140Z</time>
      </trkpt>
      <trkpt lat="48.40762" lon="7.25706">
        <ele>1014</ele>
        <time>2020-06-24T08:38:15.141Z</time>
      </trkpt>
      <trkpt lat="48.40762" lon="7.25706">
        <ele>1014</ele>
        <time>2020-06-24T08:38:16.141Z</time>
      </trkpt>
      <trkpt lat="48.40761" lon="7.25705">
        <ele>1014</ele>
        <time>2020-06-24T08:38:17.141Z</time>
      </trkpt>
      <trkpt lat="48.40761" lon="7.25705">
        <ele>1015</ele>
        <time>2020-06-24T08:38:18.141Z</time>
      </trkpt>
      <trkpt lat="48.4076" lon="7.25705">
        <ele>1015</ele>
        <time>2020-06-24T08:38:19.141Z</time>
      </trkpt>
      <trkpt lat="48.40756" lon="7.25705">
        <ele>1017</ele>
        <time>2020-06-24T08:38:20.142Z</time>
      </trkpt>
      <trkpt lat="48.40751" lon="7.25703">
        <ele>1029</ele>
        <time>2020-06-24T08:38:21.142Z</time>
      </trkpt>
      <trkpt lat="48.4075" lon="7.25703">
        <ele>1029</ele>
        <time>2020-06-24T08:38:22.142Z</time>
      </trkpt>
      <trkpt lat="48.40748" lon="7.25703">
        <ele>1029</ele>
        <time>2020-06-24T08:38:23.141Z</time>
      </trkpt>
      <trkpt lat="48.40747" lon="7.25702">
        <ele>1029</ele>
        <time>2020-06-24T08:38:24.142Z</time>
      </trkpt>
      <trkpt lat="48.40746" lon="7.25702">
        <ele>1029</ele>
        <time>2020-06-24T08:38:25.141Z</time>
      </trkpt>
      <trkpt lat="48.40745" lon="7.25701">
        <ele>1029</ele>
        <time>2020-06-24T08:38:26.142Z</time>
      </trkpt>
      <trkpt lat="48.40744" lon="7.25701">
        <ele>1030</ele>
        <time>2020-06-24T08:38:27.142Z</time>
      </trkpt>
      <trkpt lat="48.40742" lon="7.25701">
        <ele>1030</ele>
        <time>2020-06-24T08:38:28.142Z</time>
      </trkpt>
      <trkpt lat="48.40742" lon="7.25702">
        <ele>1030</ele>
        <time>2020-06-24T08:38:29.142Z</time>
      </trkpt>
      <trkpt lat="48.40742" lon="7.25702">
        <ele>1031</ele>
        <time>2020-06-24T08:38:30.142Z</time>
      </trkpt>
      <trkpt lat="48.40741" lon="7.25703">
        <ele>1031</ele>
        <time>2020-06-24T08:38:31.142Z</time>
      </trkpt>
      <trkpt lat="48.40741" lon="7.25703">
        <ele>1032</ele>
        <time>2020-06-24T08:38:32.142Z</time>
      </trkpt>
      <trkpt lat="48.4074" lon="7.25703">
        <ele>1033</ele>
        <time>2020-06-24T08:38:33.142Z</time>
      </trkpt>
      <trkpt lat="48.4074" lon="7.25703">
        <ele>1034</ele>
        <time>2020-06-24T08:38:34.143Z</time>
      </trkpt>
      <trkpt lat="48.40736" lon="7.25705">
        <ele>1038</ele>
        <time>2020-06-24T08:38:35.143Z</time>
      </trkpt>
      <trkpt lat="48.40736" lon="7.25706">
        <ele>1039</ele>
        <time>2020-06-24T08:38:36.142Z</time>
      </trkpt>
      <trkpt lat="48.40731" lon="7.25703">
        <ele>1048</ele>
        <time>2020-06-24T08:38:37.143Z</time>
      </trkpt>
      <trkpt lat="48.4073" lon="7.25704">
        <ele>1050</ele>
        <time>2020-06-24T08:38:38.143Z</time>
      </trkpt>
      <trkpt lat="48.4073" lon="7.25704">
        <ele>1051</ele>
        <time>2020-06-24T08:38:39.142Z</time>
      </trkpt>
      <trkpt lat="48.4073" lon="7.25704">
        <ele>1052</ele>
        <time>2020-06-24T08:38:40.143Z</time>
      </trkpt>
      <trkpt lat="48.4073" lon="7.25704">
        <ele>1053</ele>
        <time>2020-06-24T08:38:41.143Z</time>
      </trkpt>
      <trkpt lat="48.4073" lon="7.25705">
        <ele>1054</ele>
        <time>2020-06-24T08:38:42.143Z</time>
      </trkpt>
      <trkpt lat="48.4073" lon="7.25704">
        <ele>1054</ele>
        <time>2020-06-24T08:38:43.142Z</time>
      </trkpt>
      <trkpt lat="48.4073" lon="7.25704">
        <ele>1053</ele>
        <time>2020-06-24T08:38:44.142Z</time>
      </trkpt>
      <trkpt lat="48.4073" lon="7.25705">
        <ele>1052</ele>
        <time>2020-06-24T08:38:45.143Z</time>
      </trkpt>
      <trkpt lat="48.4073" lon="7.25705">
        <ele>1051</ele>
        <time>2020-06-24T08:38:46.143Z</time>
      </trkpt>
      <trkpt lat="48.40732" lon="7.25705">
        <ele>1050</ele>
        <time>2020-06-24T08:38:47.142Z</time>
      </trkpt>
      <trkpt lat="48.40733" lon="7.25706">
        <ele>1049</ele>
        <time>2020-06-24T08:38:48.142Z</time>
      </trkpt>
      <trkpt lat="48.40733" lon="7.25706">
        <ele>1048</ele>
        <time>2020-06-24T08:38:49.143Z</time>
      </trkpt>
      <trkpt lat="48.40733" lon="7.25706">
        <ele>1047</ele>
        <time>2020-06-24T08:38:50.142Z</time>
      </trkpt>
      <trkpt lat="48.40733" lon="7.25706">
        <ele>1045</ele>
        <time>2020-06-24T08:38:51.142Z</time>
      </trkpt>
      <trkpt lat="48.40734" lon="7.25707">
        <ele>1042</ele>
        <time>2020-06-24T08:38:52.144Z</time>
      </trkpt>
      <trkpt lat="48.40734" lon="7.25707">
        <ele>1041</ele>
        <time>2020-06-24T08:38:53.143Z</time>
      </trkpt>
      <trkpt lat="48.40746" lon="7.25707">
        <ele>1031</ele>
        <time>2020-06-24T08:38:54.144Z</time>
      </trkpt>
      <trkpt lat="48.40749" lon="7.25707">
        <ele>1030</ele>
        <time>2020-06-24T08:38:55.143Z</time>
      </trkpt>
      <trkpt lat="48.40751" lon="7.25706">
        <ele>1029</ele>
        <time>2020-06-24T08:38:56.144Z</time>
      </trkpt>
      <trkpt lat="48.40752" lon="7.25706">
        <ele>1027</ele>
        <time>2020-06-24T08:38:57.143Z</time>
      </trkpt>
      <trkpt lat="48.40754" lon="7.25705">
        <ele>1026</ele>
        <time>2020-06-24T08:38:58.144Z</time>
      </trkpt>
      <trkpt lat="48.40755" lon="7.25703">
        <ele>1025</ele>
        <time>2020-06-24T08:38:59.143Z</time>
      </trkpt>
      <trkpt lat="48.40756" lon="7.25702">
        <ele>1024</ele>
        <time>2020-06-24T08:39:00.144Z</time>
      </trkpt>
      <trkpt lat="48.40757" lon="7.25701">
        <ele>1024</ele>
        <time>2020-06-24T08:39:01.143Z</time>
      </trkpt>
      <trkpt lat="48.40757" lon="7.25699">
        <ele>1023</ele>
        <time>2020-06-24T08:39:02.143Z</time>
      </trkpt>
      <trkpt lat="48.40758" lon="7.25698">
        <ele>1022</ele>
        <time>2020-06-24T08:39:03.143Z</time>
      </trkpt>
      <trkpt lat="48.40759" lon="7.25696">
        <ele>1021</ele>
        <time>2020-06-24T08:39:04.143Z</time>
      </trkpt>
      <trkpt lat="48.4076" lon="7.25695">
        <ele>1020</ele>
        <time>2020-06-24T08:39:05.143Z</time>
      </trkpt>
      <trkpt lat="48.40761" lon="7.25695">
        <ele>1019</ele>
        <time>2020-06-24T08:39:06.143Z</time>
      </trkpt>
      <trkpt lat="48.40763" lon="7.25694">
        <ele>1018</ele>
        <time>2020-06-24T08:39:07.143Z</time>
      </trkpt>
      <trkpt lat="48.40764" lon="7.25694">
        <ele>1017</ele>
        <time>2020-06-24T08:39:08.144Z</time>
      </trkpt>
      <trkpt lat="48.40766" lon="7.25693">
        <ele>1017</ele>
        <time>2020-06-24T08:39:09.144Z</time>
      </trkpt>
      <trkpt lat="48.40767" lon="7.25693">
        <ele>1016</ele>
        <time>2020-06-24T08:39:10.143Z</time>
      </trkpt>
      <trkpt lat="48.40768" lon="7.25693">
        <ele>1016</ele>
        <time>2020-06-24T08:39:11.143Z</time>
      </trkpt>
      <trkpt lat="48.40768" lon="7.25691">
        <ele>1015</ele>
        <time>2020-06-24T08:39:12.143Z</time>
      </trkpt>
      <trkpt lat="48.40769" lon="7.25689">
        <ele>1015</ele>
        <time>2020-06-24T08:39:13.144Z</time>
      </trkpt>
      <trkpt lat="48.4077" lon="7.25688">
        <ele>1014</ele>
        <time>2020-06-24T08:39:14.144Z</time>
      </trkpt>
      <trkpt lat="48.40771" lon="7.25687">
        <ele>1013</ele>
        <time>2020-06-24T08:39:15.143Z</time>
      </trkpt>
      <trkpt lat="48.40771" lon="7.25687">
        <ele>1012</ele>
        <time>2020-06-24T08:39:16.144Z</time>
      </trkpt>
      <trkpt lat="48.40772" lon="7.25686">
        <ele>1011</ele>
        <time>2020-06-24T08:39:17.143Z</time>
      </trkpt>
      <trkpt lat="48.40773" lon="7.25687">
        <ele>1011</ele>
        <time>2020-06-24T08:39:18.144Z</time>
      </trkpt>
      <trkpt lat="48.40771" lon="7.25688">
        <ele>1009</ele>
        <time>2020-06-24T08:39:19.144Z</time>
      </trkpt>
      <trkpt lat="48.40769" lon="7.25688">
        <ele>1009</ele>
        <time>2020-06-24T08:39:20.144Z</time>
      </trkpt>
      <trkpt lat="48.40768" lon="7.25689">
        <ele>1009</ele>
        <time>2020-06-24T08:39:21.143Z</time>
      </trkpt>
      <trkpt lat="48.40767" lon="7.2569">
        <ele>1009</ele>
        <time>2020-06-24T08:39:22.143Z</time>
      </trkpt>
      <trkpt lat="48.40765" lon="7.25692">
        <ele>1009</ele>
        <time>2020-06-24T08:39:23.144Z</time>
      </trkpt>
      <trkpt lat="48.40764" lon="7.25692">
        <ele>1010</ele>
        <time>2020-06-24T08:39:24.143Z</time>
      </trkpt>
      <trkpt lat="48.40762" lon="7.25692">
        <ele>1010</ele>
        <time>2020-06-24T08:39:25.144Z</time>
      </trkpt>
      <trkpt lat="48.40761" lon="7.25692">
        <ele>1010</ele>
        <time>2020-06-24T08:39:26.144Z</time>
      </trkpt>
      <trkpt lat="48.40761" lon="7.25692">
        <ele>1011</ele>
        <time>2020-06-24T08:39:27.144Z</time>
      </trkpt>
      <trkpt lat="48.4076" lon="7.25693">
        <ele>1011</ele>
        <time>2020-06-24T08:39:28.144Z</time>
      </trkpt>
      <trkpt lat="48.40759" lon="7.25694">
        <ele>1012</ele>
        <time>2020-06-24T08:39:29.144Z</time>
      </trkpt>
      <trkpt lat="48.40759" lon="7.25696">
        <ele>1012</ele>
        <time>2020-06-24T08:39:30.144Z</time>
      </trkpt>
      <trkpt lat="48.40758" lon="7.25697">
        <ele>1013</ele>
        <time>2020-06-24T08:39:31.144Z</time>
      </trkpt>
      <trkpt lat="48.40758" lon="7.257">
        <ele>1014</ele>
        <time>2020-06-24T08:39:32.143Z</time>
      </trkpt>
      <trkpt lat="48.40758" lon="7.25703">
        <ele>1014</ele>
        <time>2020-06-24T08:39:33.143Z</time>
      </trkpt>
      <trkpt lat="48.40757" lon="7.25706">
        <ele>1015</ele>
        <time>2020-06-24T08:39:34.144Z</time>
      </trkpt>
      <trkpt lat="48.40756" lon="7.25709">
        <ele>1016</ele>
        <time>2020-06-24T08:39:35.144Z</time>
      </trkpt>
      <trkpt lat="48.40756" lon="7.2571">
        <ele>1017</ele>
        <time>2020-06-24T08:39:36.144Z</time>
      </trkpt>
      <trkpt lat="48.40754" lon="7.25712">
        <ele>1018</ele>
        <time>2020-06-24T08:39:37.144Z</time>
      </trkpt>
      <trkpt lat="48.40754" lon="7.25713">
        <ele>1018</ele>
        <time>2020-06-24T08:39:38.144Z</time>
      </trkpt>
      <trkpt lat="48.40753" lon="7.25714">
        <ele>1018</ele>
        <time>2020-06-24T08:39:39.144Z</time>
      </trkpt>
      <trkpt lat="48.40752" lon="7.25714">
        <ele>1018</ele>
        <time>2020-06-24T08:39:40.144Z</time>
      </trkpt>
      <trkpt lat="48.4075" lon="7.25715">
        <ele>1018</ele>
        <time>2020-06-24T08:39:41.144Z</time>
      </trkpt>
      <trkpt lat="48.40749" lon="7.25716">
        <ele>1017</ele>
        <time>2020-06-24T08:39:42.143Z</time>
      </trkpt>
      <trkpt lat="48.40747" lon="7.25717">
        <ele>1017</ele>
        <time>2020-06-24T08:39:43.144Z</time>
      </trkpt>
      <trkpt lat="48.40745" lon="7.25717">
        <ele>1017</ele>
        <time>2020-06-24T08:39:44.144Z</time>
      </trkpt>
      <trkpt lat="48.40744" lon="7.25717">
        <ele>1017</ele>
        <time>2020-06-24T08:39:45.143Z</time>
      </trkpt>
      <trkpt lat="48.40743" lon="7.25716">
        <ele>1017</ele>
        <time>2020-06-24T08:39:46.143Z</time>
      </trkpt>
      <trkpt lat="48.40742" lon="7.25715">
        <ele>1018</ele>
        <time>2020-06-24T08:39:47.144Z</time>
      </trkpt>
      <trkpt lat="48.40741" lon="7.25715">
        <ele>1017</ele>
        <time>2020-06-24T08:39:48.144Z</time>
      </trkpt>
      <trkpt lat="48.40741" lon="7.25715">
        <ele>1017</ele>
        <time>2020-06-24T08:39:49.144Z</time>
      </trkpt>
      <trkpt lat="48.40741" lon="7.25716">
        <ele>1016</ele>
        <time>2020-06-24T08:39:50.144Z</time>
      </trkpt>
      <trkpt lat="48.4074" lon="7.25717">
        <ele>1015</ele>
        <time>2020-06-24T08:39:51.143Z</time>
      </trkpt>
      <trkpt lat="48.4074" lon="7.25717">
        <ele>1014</ele>
        <time>2020-06-24T08:39:52.143Z</time>
      </trkpt>
      <trkpt lat="48.4074" lon="7.25716">
        <ele>1014</ele>
        <time>2020-06-24T08:39:53.144Z</time>
      </trkpt>
      <trkpt lat="48.40739" lon="7.25715">
        <ele>1014</ele>
        <time>2020-06-24T08:39:54.145Z</time>
      </trkpt>
      <trkpt lat="48.40739" lon="7.25716">
        <ele>1012</ele>
        <time>2020-06-24T08:39:55.145Z</time>
      </trkpt>
      <trkpt lat="48.40738" lon="7.25716">
        <ele>1012</ele>
        <time>2020-06-24T08:39:56.145Z</time>
      </trkpt>
      <trkpt lat="48.40737" lon="7.25716">
        <ele>1011</ele>
        <time>2020-06-24T08:39:57.144Z</time>
      </trkpt>
      <trkpt lat="48.40736" lon="7.25717">
        <ele>1011</ele>
        <time>2020-06-24T08:39:58.144Z</time>
      </trkpt>
      <trkpt lat="48.40735" lon="7.25718">
        <ele>1011</ele>
        <time>2020-06-24T08:39:59.144Z</time>
      </trkpt>
      <trkpt lat="48.40734" lon="7.25718">
        <ele>1011</ele>
        <time>2020-06-24T08:40:00.145Z</time>
      </trkpt>
      <trkpt lat="48.40734" lon="7.25719">
        <ele>1011</ele>
        <time>2020-06-24T08:40:01.145Z</time>
      </trkpt>
      <trkpt lat="48.40733" lon="7.2572">
        <ele>1010</ele>
        <time>2020-06-24T08:40:02.145Z</time>
      </trkpt>
      <trkpt lat="48.40733" lon="7.25722">
        <ele>1009</ele>
        <time>2020-06-24T08:40:03.145Z</time>
      </trkpt>
      <trkpt lat="48.40733" lon="7.25724">
        <ele>1009</ele>
        <time>2020-06-24T08:40:04.145Z</time>
      </trkpt>
      <trkpt lat="48.40733" lon="7.25726">
        <ele>1008</ele>
        <time>2020-06-24T08:40:05.144Z</time>
      </trkpt>
      <trkpt lat="48.40732" lon="7.25728">
        <ele>1008</ele>
        <time>2020-06-24T08:40:06.145Z</time>
      </trkpt>
      <trkpt lat="48.40732" lon="7.2573">
        <ele>1008</ele>
        <time>2020-06-24T08:40:07.144Z</time>
      </trkpt>
      <trkpt lat="48.40731" lon="7.25732">
        <ele>1008</ele>
        <time>2020-06-24T08:40:08.145Z</time>
      </trkpt>
      <trkpt lat="48.40731" lon="7.25733">
        <ele>1008</ele>
        <time>2020-06-24T08:40:09.145Z</time>
      </trkpt>
      <trkpt lat="48.40731" lon="7.25735">
        <ele>1008</ele>
        <time>2020-06-24T08:40:10.145Z</time>
      </trkpt>
      <trkpt lat="48.40731" lon="7.25737">
        <ele>1007</ele>
        <time>2020-06-24T08:40:11.145Z</time>
      </trkpt>
      <trkpt lat="48.40731" lon="7.25739">
        <ele>1007</ele>
        <time>2020-06-24T08:40:12.145Z</time>
      </trkpt>
      <trkpt lat="48.40731" lon="7.25741">
        <ele>1007</ele>
        <time>2020-06-24T08:40:13.144Z</time>
      </trkpt>
      <trkpt lat="48.4073" lon="7.25743">
        <ele>1007</ele>
        <time>2020-06-24T08:40:14.145Z</time>
      </trkpt>
      <trkpt lat="48.4073" lon="7.25745">
        <ele>1007</ele>
        <time>2020-06-24T08:40:15.145Z</time>
      </trkpt>
      <trkpt lat="48.4073" lon="7.25747">
        <ele>1007</ele>
        <time>2020-06-24T08:40:16.144Z</time>
      </trkpt>
      <trkpt lat="48.40729" lon="7.25749">
        <ele>1007</ele>
        <time>2020-06-24T08:40:17.145Z</time>
      </trkpt>
      <trkpt lat="48.40729" lon="7.25751">
        <ele>1007</ele>
        <time>2020-06-24T08:40:18.145Z</time>
      </trkpt>
      <trkpt lat="48.40728" lon="7.25752">
        <ele>1007</ele>
        <time>2020-06-24T08:40:19.144Z</time>
      </trkpt>
      <trkpt lat="48.40727" lon="7.25754">
        <ele>1007</ele>
        <time>2020-06-24T08:40:20.144Z</time>
      </trkpt>
      <trkpt lat="48.40726" lon="7.25755">
        <ele>1007</ele>
        <time>2020-06-24T08:40:21.144Z</time>
      </trkpt>
      <trkpt lat="48.40725" lon="7.25755">
        <ele>1008</ele>
        <time>2020-06-24T08:40:22.145Z</time>
      </trkpt>
      <trkpt lat="48.40724" lon="7.25756">
        <ele>1008</ele>
        <time>2020-06-24T08:40:23.145Z</time>
      </trkpt>
      <trkpt lat="48.40723" lon="7.25757">
        <ele>1008</ele>
        <time>2020-06-24T08:40:24.144Z</time>
      </trkpt>
      <trkpt lat="48.40722" lon="7.25758">
        <ele>1008</ele>
        <time>2020-06-24T08:40:25.145Z</time>
      </trkpt>
      <trkpt lat="48.40721" lon="7.2576">
        <ele>1009</ele>
        <time>2020-06-24T08:40:26.145Z</time>
      </trkpt>
      <trkpt lat="48.40721" lon="7.25762">
        <ele>1009</ele>
        <time>2020-06-24T08:40:27.145Z</time>
      </trkpt>
      <trkpt lat="48.4072" lon="7.25763">
        <ele>1009</ele>
        <time>2020-06-24T08:40:28.145Z</time>
      </trkpt>
      <trkpt lat="48.40718" lon="7.25764">
        <ele>1010</ele>
        <time>2020-06-24T08:40:29.144Z</time>
      </trkpt>
      <trkpt lat="48.40716" lon="7.25764">
        <ele>1010</ele>
        <time>2020-06-24T08:40:30.145Z</time>
      </trkpt>
      <trkpt lat="48.40715" lon="7.25764">
        <ele>1010</ele>
        <time>2020-06-24T08:40:31.145Z</time>
      </trkpt>
      <trkpt lat="48.40712" lon="7.25765">
        <ele>1011</ele>
        <time>2020-06-24T08:40:32.145Z</time>
      </trkpt>
      <trkpt lat="48.40711" lon="7.25765">
        <ele>1011</ele>
        <time>2020-06-24T08:40:33.144Z</time>
      </trkpt>
      <trkpt lat="48.4071" lon="7.25765">
        <ele>1012</ele>
        <time>2020-06-24T08:40:34.145Z</time>
      </trkpt>
      <trkpt lat="48.40709" lon="7.25766">
        <ele>1012</ele>
        <time>2020-06-24T08:40:35.145Z</time>
      </trkpt>
      <trkpt lat="48.40708" lon="7.25767">
        <ele>1013</ele>
        <time>2020-06-24T08:40:36.145Z</time>
      </trkpt>
      <trkpt lat="48.40706" lon="7.25768">
        <ele>1013</ele>
        <time>2020-06-24T08:40:37.145Z</time>
      </trkpt>
      <trkpt lat="48.40705" lon="7.25769">
        <ele>1014</ele>
        <time>2020-06-24T08:40:38.145Z</time>
      </trkpt>
      <trkpt lat="48.40704" lon="7.25769">
        <ele>1014</ele>
        <time>2020-06-24T08:40:39.145Z</time>
      </trkpt>
      <trkpt lat="48.40704" lon="7.25769">
        <ele>1014</ele>
        <time>2020-06-24T08:40:40.145Z</time>
      </trkpt>
      <trkpt lat="48.40704" lon="7.25768">
        <ele>1014</ele>
        <time>2020-06-24T08:40:41.145Z</time>
      </trkpt>
      <trkpt lat="48.40704" lon="7.25768">
        <ele>1015</ele>
        <time>2020-06-24T08:40:42.145Z</time>
      </trkpt>
      <trkpt lat="48.40706" lon="7.25769">
        <ele>1015</ele>
        <time>2020-06-24T08:40:43.144Z</time>
      </trkpt>
      <trkpt lat="48.40705" lon="7.25771">
        <ele>1015</ele>
        <time>2020-06-24T08:40:44.144Z</time>
      </trkpt>
      <trkpt lat="48.40704" lon="7.25771">
        <ele>1014</ele>
        <time>2020-06-24T08:40:45.144Z</time>
      </trkpt>
      <trkpt lat="48.40703" lon="7.25772">
        <ele>1014</ele>
        <time>2020-06-24T08:40:46.145Z</time>
      </trkpt>
      <trkpt lat="48.40702" lon="7.25772">
        <ele>1014</ele>
        <time>2020-06-24T08:40:47.144Z</time>
      </trkpt>
      <trkpt lat="48.40701" lon="7.25773">
        <ele>1013</ele>
        <time>2020-06-24T08:40:48.145Z</time>
      </trkpt>
      <trkpt lat="48.407" lon="7.25774">
        <ele>1013</ele>
        <time>2020-06-24T08:40:49.145Z</time>
      </trkpt>
      <trkpt lat="48.40699" lon="7.25775">
        <ele>1013</ele>
        <time>2020-06-24T08:40:50.145Z</time>
      </trkpt>
      <trkpt lat="48.40698" lon="7.25777">
        <ele>1013</ele>
        <time>2020-06-24T08:40:51.144Z</time>
      </trkpt>
      <trkpt lat="48.40697" lon="7.25778">
        <ele>1013</ele>
        <time>2020-06-24T08:40:52.144Z</time>
      </trkpt>
      <trkpt lat="48.40696" lon="7.25779">
        <ele>1013</ele>
        <time>2020-06-24T08:40:53.144Z</time>
      </trkpt>
      <trkpt lat="48.40695" lon="7.2578">
        <ele>1013</ele>
        <time>2020-06-24T08:40:54.144Z</time>
      </trkpt>
      <trkpt lat="48.40693" lon="7.2578">
        <ele>1013</ele>
        <time>2020-06-24T08:40:55.145Z</time>
      </trkpt>
      <trkpt lat="48.40692" lon="7.25781">
        <ele>1013</ele>
        <time>2020-06-24T08:40:56.144Z</time>
      </trkpt>
      <trkpt lat="48.40691" lon="7.25783">
        <ele>1013</ele>
        <time>2020-06-24T08:40:57.144Z</time>
      </trkpt>
      <trkpt lat="48.4069" lon="7.25784">
        <ele>1013</ele>
        <time>2020-06-24T08:40:58.144Z</time>
      </trkpt>
      <trkpt lat="48.40689" lon="7.25785">
        <ele>1014</ele>
        <time>2020-06-24T08:40:59.144Z</time>
      </trkpt>
      <trkpt lat="48.40688" lon="7.25787">
        <ele>1014</ele>
        <time>2020-06-24T08:41:00.144Z</time>
      </trkpt>
      <trkpt lat="48.40688" lon="7.25788">
        <ele>1015</ele>
        <time>2020-06-24T08:41:01.145Z</time>
      </trkpt>
      <trkpt lat="48.40687" lon="7.25789">
        <ele>1015</ele>
        <time>2020-06-24T08:41:02.144Z</time>
      </trkpt>
      <trkpt lat="48.40686" lon="7.2579">
        <ele>1015</ele>
        <time>2020-06-24T08:41:03.145Z</time>
      </trkpt>
      <trkpt lat="48.40686" lon="7.25791">
        <ele>1016</ele>
        <time>2020-06-24T08:41:04.145Z</time>
      </trkpt>
      <trkpt lat="48.40686" lon="7.25793">
        <ele>1016</ele>
        <time>2020-06-24T08:41:05.145Z</time>
      </trkpt>
      <trkpt lat="48.40686" lon="7.25794">
        <ele>1016</ele>
        <time>2020-06-24T08:41:06.145Z</time>
      </trkpt>
      <trkpt lat="48.40685" lon="7.25796">
        <ele>1016</ele>
        <time>2020-06-24T08:41:07.145Z</time>
      </trkpt>
      <trkpt lat="48.40684" lon="7.25798">
        <ele>1016</ele>
        <time>2020-06-24T08:41:08.145Z</time>
      </trkpt>
      <trkpt lat="48.40683" lon="7.25799">
        <ele>1016</ele>
        <time>2020-06-24T08:41:09.145Z</time>
      </trkpt>
      <trkpt lat="48.40682" lon="7.25801">
        <ele>1016</ele>
        <time>2020-06-24T08:41:10.144Z</time>
      </trkpt>
      <trkpt lat="48.40681" lon="7.25802">
        <ele>1016</ele>
        <time>2020-06-24T08:41:11.145Z</time>
      </trkpt>
      <trkpt lat="48.40679" lon="7.25804">
        <ele>1016</ele>
        <time>2020-06-24T08:41:12.145Z</time>
      </trkpt>
      <trkpt lat="48.40677" lon="7.25805">
        <ele>1017</ele>
        <time>2020-06-24T08:41:13.145Z</time>
      </trkpt>
      <trkpt lat="48.40676" lon="7.25806">
        <ele>1017</ele>
        <time>2020-06-24T08:41:14.145Z</time>
      </trkpt>
      <trkpt lat="48.40674" lon="7.25807">
        <ele>1018</ele>
        <time>2020-06-24T08:41:15.145Z</time>
      </trkpt>
      <trkpt lat="48.40672" lon="7.25809">
        <ele>1018</ele>
        <time>2020-06-24T08:41:16.145Z</time>
      </trkpt>
      <trkpt lat="48.40671" lon="7.2581">
        <ele>1019</ele>
        <time>2020-06-24T08:41:17.144Z</time>
      </trkpt>
      <trkpt lat="48.40669" lon="7.25811">
        <ele>1019</ele>
        <time>2020-06-24T08:41:18.145Z</time>
      </trkpt>
      <trkpt lat="48.40668" lon="7.25811">
        <ele>1019</ele>
        <time>2020-06-24T08:41:19.145Z</time>
      </trkpt>
      <trkpt lat="48.40667" lon="7.25811">
        <ele>1019</ele>
        <time>2020-06-24T08:41:20.145Z</time>
      </trkpt>
      <trkpt lat="48.40666" lon="7.2581">
        <ele>1019</ele>
        <time>2020-06-24T08:41:21.144Z</time>
      </trkpt>
      <trkpt lat="48.40664" lon="7.25808">
        <ele>1019</ele>
        <time>2020-06-24T08:41:22.145Z</time>
      </trkpt>
      <trkpt lat="48.40663" lon="7.25808">
        <ele>1019</ele>
        <time>2020-06-24T08:41:23.144Z</time>
      </trkpt>
      <trkpt lat="48.40662" lon="7.25808">
        <ele>1019</ele>
        <time>2020-06-24T08:41:24.145Z</time>
      </trkpt>
      <trkpt lat="48.40661" lon="7.25808">
        <ele>1019</ele>
        <time>2020-06-24T08:41:25.145Z</time>
      </trkpt>
      <trkpt lat="48.4066" lon="7.25809">
        <ele>1019</ele>
        <time>2020-06-24T08:41:26.144Z</time>
      </trkpt>
      <trkpt lat="48.4066" lon="7.2581">
        <ele>1019</ele>
        <time>2020-06-24T08:41:27.145Z</time>
      </trkpt>
      <trkpt lat="48.40659" lon="7.25811">
        <ele>1020</ele>
        <time>2020-06-24T08:41:28.144Z</time>
      </trkpt>
      <trkpt lat="48.40659" lon="7.25812">
        <ele>1020</ele>
        <time>2020-06-24T08:41:29.145Z</time>
      </trkpt>
      <trkpt lat="48.40653" lon="7.25817">
        <ele>1018</ele>
        <time>2020-06-24T08:41:30.145Z</time>
      </trkpt>
      <trkpt lat="48.40651" lon="7.25817">
        <ele>1018</ele>
        <time>2020-06-24T08:41:31.146Z</time>
      </trkpt>
      <trkpt lat="48.4065" lon="7.25817">
        <ele>1018</ele>
        <time>2020-06-24T08:41:32.145Z</time>
      </trkpt>
      <trkpt lat="48.40648" lon="7.25818">
        <ele>1018</ele>
        <time>2020-06-24T08:41:33.146Z</time>
      </trkpt>
      <trkpt lat="48.40646" lon="7.25818">
        <ele>1018</ele>
        <time>2020-06-24T08:41:34.146Z</time>
      </trkpt>
      <trkpt lat="48.40644" lon="7.25819">
        <ele>1017</ele>
        <time>2020-06-24T08:41:35.146Z</time>
      </trkpt>
      <trkpt lat="48.40643" lon="7.25819">
        <ele>1017</ele>
        <time>2020-06-24T08:41:36.145Z</time>
      </trkpt>
      <trkpt lat="48.40642" lon="7.25821">
        <ele>1017</ele>
        <time>2020-06-24T08:41:37.145Z</time>
      </trkpt>
      <trkpt lat="48.40641" lon="7.25821">
        <ele>1018</ele>
        <time>2020-06-24T08:41:38.146Z</time>
      </trkpt>
      <trkpt lat="48.40639" lon="7.25822">
        <ele>1018</ele>
        <time>2020-06-24T08:41:39.145Z</time>
      </trkpt>
      <trkpt lat="48.40638" lon="7.25821">
        <ele>1018</ele>
        <time>2020-06-24T08:41:40.145Z</time>
      </trkpt>
      <trkpt lat="48.40637" lon="7.25821">
        <ele>1018</ele>
        <time>2020-06-24T08:41:41.145Z</time>
      </trkpt>
      <trkpt lat="48.40636" lon="7.2582">
        <ele>1018</ele>
        <time>2020-06-24T08:41:42.146Z</time>
      </trkpt>
      <trkpt lat="48.40635" lon="7.2582">
        <ele>1018</ele>
        <time>2020-06-24T08:41:43.145Z</time>
      </trkpt>
      <trkpt lat="48.40634" lon="7.25819">
        <ele>1018</ele>
        <time>2020-06-24T08:41:44.146Z</time>
      </trkpt>
      <trkpt lat="48.40633" lon="7.25819">
        <ele>1018</ele>
        <time>2020-06-24T08:41:45.145Z</time>
      </trkpt>
      <trkpt lat="48.40632" lon="7.2582">
        <ele>1018</ele>
        <time>2020-06-24T08:41:46.146Z</time>
      </trkpt>
      <trkpt lat="48.4063" lon="7.2582">
        <ele>1019</ele>
        <time>2020-06-24T08:41:47.146Z</time>
      </trkpt>
      <trkpt lat="48.40629" lon="7.25819">
        <ele>1019</ele>
        <time>2020-06-24T08:41:48.146Z</time>
      </trkpt>
      <trkpt lat="48.40628" lon="7.25819">
        <ele>1019</ele>
        <time>2020-06-24T08:41:49.145Z</time>
      </trkpt>
      <trkpt lat="48.40626" lon="7.25819">
        <ele>1020</ele>
        <time>2020-06-24T08:41:50.145Z</time>
      </trkpt>
      <trkpt lat="48.40625" lon="7.25819">
        <ele>1021</ele>
        <time>2020-06-24T08:41:51.145Z</time>
      </trkpt>
      <trkpt lat="48.40623" lon="7.25819">
        <ele>1021</ele>
        <time>2020-06-24T08:41:52.145Z</time>
      </trkpt>
      <trkpt lat="48.40622" lon="7.2582">
        <ele>1022</ele>
        <time>2020-06-24T08:41:53.145Z</time>
      </trkpt>
      <trkpt lat="48.40621" lon="7.25819">
        <ele>1022</ele>
        <time>2020-06-24T08:41:54.146Z</time>
      </trkpt>
      <trkpt lat="48.4062" lon="7.25819">
        <ele>1022</ele>
        <time>2020-06-24T08:41:55.145Z</time>
      </trkpt>
      <trkpt lat="48.40619" lon="7.25819">
        <ele>1022</ele>
        <time>2020-06-24T08:41:56.146Z</time>
      </trkpt>
      <trkpt lat="48.40617" lon="7.25818">
        <ele>1022</ele>
        <time>2020-06-24T08:41:57.146Z</time>
      </trkpt>
      <trkpt lat="48.40616" lon="7.25819">
        <ele>1022</ele>
        <time>2020-06-24T08:41:58.145Z</time>
      </trkpt>
      <trkpt lat="48.40615" lon="7.25819">
        <ele>1022</ele>
        <time>2020-06-24T08:41:59.145Z</time>
      </trkpt>
      <trkpt lat="48.40613" lon="7.25819">
        <ele>1022</ele>
        <time>2020-06-24T08:42:00.146Z</time>
      </trkpt>
      <trkpt lat="48.40612" lon="7.25819">
        <ele>1022</ele>
        <time>2020-06-24T08:42:01.145Z</time>
      </trkpt>
      <trkpt lat="48.4061" lon="7.25819">
        <ele>1023</ele>
        <time>2020-06-24T08:42:02.146Z</time>
      </trkpt>
      <trkpt lat="48.40608" lon="7.25819">
        <ele>1023</ele>
        <time>2020-06-24T08:42:03.146Z</time>
      </trkpt>
      <trkpt lat="48.40607" lon="7.25819">
        <ele>1023</ele>
        <time>2020-06-24T08:42:04.145Z</time>
      </trkpt>
      <trkpt lat="48.40605" lon="7.2582">
        <ele>1023</ele>
        <time>2020-06-24T08:42:05.145Z</time>
      </trkpt>
      <trkpt lat="48.40603" lon="7.25819">
        <ele>1024</ele>
        <time>2020-06-24T08:42:06.145Z</time>
      </trkpt>
      <trkpt lat="48.40602" lon="7.25818">
        <ele>1024</ele>
        <time>2020-06-24T08:42:07.146Z</time>
      </trkpt>
      <trkpt lat="48.40601" lon="7.25818">
        <ele>1024</ele>
        <time>2020-06-24T08:42:08.145Z</time>
      </trkpt>
      <trkpt lat="48.406" lon="7.25817">
        <ele>1024</ele>
        <time>2020-06-24T08:42:09.146Z</time>
      </trkpt>
      <trkpt lat="48.40598" lon="7.25818">
        <ele>1024</ele>
        <time>2020-06-24T08:42:10.146Z</time>
      </trkpt>
      <trkpt lat="48.40597" lon="7.25818">
        <ele>1024</ele>
        <time>2020-06-24T08:42:11.146Z</time>
      </trkpt>
      <trkpt lat="48.40596" lon="7.25819">
        <ele>1025</ele>
        <time>2020-06-24T08:42:12.146Z</time>
      </trkpt>
      <trkpt lat="48.40594" lon="7.25819">
        <ele>1025</ele>
        <time>2020-06-24T08:42:13.146Z</time>
      </trkpt>
      <trkpt lat="48.40593" lon="7.2582">
        <ele>1025</ele>
        <time>2020-06-24T08:42:14.145Z</time>
      </trkpt>
      <trkpt lat="48.40592" lon="7.2582">
        <ele>1025</ele>
        <time>2020-06-24T08:42:15.146Z</time>
      </trkpt>
      <trkpt lat="48.4059" lon="7.25821">
        <ele>1025</ele>
        <time>2020-06-24T08:42:16.145Z</time>
      </trkpt>
      <trkpt lat="48.40588" lon="7.25821">
        <ele>1026</ele>
        <time>2020-06-24T08:42:17.146Z</time>
      </trkpt>
      <trkpt lat="48.40587" lon="7.25821">
        <ele>1026</ele>
        <time>2020-06-24T08:42:18.146Z</time>
      </trkpt>
      <trkpt lat="48.40585" lon="7.25821">
        <ele>1027</ele>
        <time>2020-06-24T08:42:19.146Z</time>
      </trkpt>
      <trkpt lat="48.40584" lon="7.25822">
        <ele>1027</ele>
        <time>2020-06-24T08:42:20.146Z</time>
      </trkpt>
      <trkpt lat="48.40583" lon="7.25821">
        <ele>1027</ele>
        <time>2020-06-24T08:42:21.145Z</time>
      </trkpt>
      <trkpt lat="48.40582" lon="7.25822">
        <ele>1027</ele>
        <time>2020-06-24T08:42:22.145Z</time>
      </trkpt>
      <trkpt lat="48.40581" lon="7.25822">
        <ele>1027</ele>
        <time>2020-06-24T08:42:23.146Z</time>
      </trkpt>
      <trkpt lat="48.40579" lon="7.25823">
        <ele>1027</ele>
        <time>2020-06-24T08:42:24.145Z</time>
      </trkpt>
      <trkpt lat="48.40578" lon="7.25823">
        <ele>1027</ele>
        <time>2020-06-24T08:42:25.146Z</time>
      </trkpt>
      <trkpt lat="48.40576" lon="7.25824">
        <ele>1027</ele>
        <time>2020-06-24T08:42:26.145Z</time>
      </trkpt>
      <trkpt lat="48.40575" lon="7.25824">
        <ele>1027</ele>
        <time>2020-06-24T08:42:27.146Z</time>
      </trkpt>
      <trkpt lat="48.40573" lon="7.25824">
        <ele>1027</ele>
        <time>2020-06-24T08:42:28.145Z</time>
      </trkpt>
      <trkpt lat="48.40572" lon="7.25825">
        <ele>1027</ele>
        <time>2020-06-24T08:42:29.146Z</time>
      </trkpt>
      <trkpt lat="48.4057" lon="7.25825">
        <ele>1028</ele>
        <time>2020-06-24T08:42:30.146Z</time>
      </trkpt>
      <trkpt lat="48.40569" lon="7.25825">
        <ele>1028</ele>
        <time>2020-06-24T08:42:31.146Z</time>
      </trkpt>
      <trkpt lat="48.40568" lon="7.25826">
        <ele>1028</ele>
        <time>2020-06-24T08:42:32.146Z</time>
      </trkpt>
      <trkpt lat="48.40566" lon="7.25826">
        <ele>1028</ele>
        <time>2020-06-24T08:42:33.145Z</time>
      </trkpt>
      <trkpt lat="48.40565" lon="7.25827">
        <ele>1028</ele>
        <time>2020-06-24T08:42:34.146Z</time>
      </trkpt>
      <trkpt lat="48.40563" lon="7.25827">
        <ele>1028</ele>
        <time>2020-06-24T08:42:35.146Z</time>
      </trkpt>
      <trkpt lat="48.40562" lon="7.25827">
        <ele>1028</ele>
        <time>2020-06-24T08:42:36.146Z</time>
      </trkpt>
      <trkpt lat="48.40561" lon="7.25827">
        <ele>1028</ele>
        <time>2020-06-24T08:42:37.146Z</time>
      </trkpt>
      <trkpt lat="48.4056" lon="7.25828">
        <ele>1028</ele>
        <time>2020-06-24T08:42:38.145Z</time>
      </trkpt>
      <trkpt lat="48.40558" lon="7.25828">
        <ele>1028</ele>
        <time>2020-06-24T08:42:39.146Z</time>
      </trkpt>
      <trkpt lat="48.40558" lon="7.25828">
        <ele>1028</ele>
        <time>2020-06-24T08:42:40.146Z</time>
      </trkpt>
      <trkpt lat="48.40556" lon="7.25829">
        <ele>1028</ele>
        <time>2020-06-24T08:42:41.145Z</time>
      </trkpt>
      <trkpt lat="48.40555" lon="7.25829">
        <ele>1028</ele>
        <time>2020-06-24T08:42:42.146Z</time>
      </trkpt>
      <trkpt lat="48.40553" lon="7.2583">
        <ele>1029</ele>
        <time>2020-06-24T08:42:43.146Z</time>
      </trkpt>
      <trkpt lat="48.40552" lon="7.25831">
        <ele>1029</ele>
        <time>2020-06-24T08:42:44.146Z</time>
      </trkpt>
      <trkpt lat="48.40551" lon="7.25831">
        <ele>1030</ele>
        <time>2020-06-24T08:42:45.145Z</time>
      </trkpt>
      <trkpt lat="48.40549" lon="7.25832">
        <ele>1030</ele>
        <time>2020-06-24T08:42:46.145Z</time>
      </trkpt>
      <trkpt lat="48.40548" lon="7.25833">
        <ele>1030</ele>
        <time>2020-06-24T08:42:47.146Z</time>
      </trkpt>
      <trkpt lat="48.40547" lon="7.25833">
        <ele>1029</ele>
        <time>2020-06-24T08:42:48.146Z</time>
      </trkpt>
      <trkpt lat="48.40546" lon="7.25834">
        <ele>1029</ele>
        <time>2020-06-24T08:42:49.146Z</time>
      </trkpt>
      <trkpt lat="48.40544" lon="7.25835">
        <ele>1029</ele>
        <time>2020-06-24T08:42:50.146Z</time>
      </trkpt>
      <trkpt lat="48.40543" lon="7.25836">
        <ele>1029</ele>
        <time>2020-06-24T08:42:51.146Z</time>
      </trkpt>
      <trkpt lat="48.40542" lon="7.25838">
        <ele>1028</ele>
        <time>2020-06-24T08:42:52.146Z</time>
      </trkpt>
      <trkpt lat="48.40541" lon="7.2584">
        <ele>1028</ele>
        <time>2020-06-24T08:42:53.146Z</time>
      </trkpt>
      <trkpt lat="48.4054" lon="7.25841">
        <ele>1028</ele>
        <time>2020-06-24T08:42:54.146Z</time>
      </trkpt>
      <trkpt lat="48.40539" lon="7.25842">
        <ele>1028</ele>
        <time>2020-06-24T08:42:55.146Z</time>
      </trkpt>
      <trkpt lat="48.40538" lon="7.25843">
        <ele>1028</ele>
        <time>2020-06-24T08:42:56.146Z</time>
      </trkpt>
      <trkpt lat="48.40537" lon="7.25844">
        <ele>1028</ele>
        <time>2020-06-24T08:42:57.146Z</time>
      </trkpt>
      <trkpt lat="48.40536" lon="7.25845">
        <ele>1028</ele>
        <time>2020-06-24T08:42:58.146Z</time>
      </trkpt>
      <trkpt lat="48.40535" lon="7.25846">
        <ele>1028</ele>
        <time>2020-06-24T08:42:59.146Z</time>
      </trkpt>
      <trkpt lat="48.40534" lon="7.25847">
        <ele>1028</ele>
        <time>2020-06-24T08:43:00.146Z</time>
      </trkpt>
      <trkpt lat="48.40533" lon="7.25848">
        <ele>1028</ele>
        <time>2020-06-24T08:43:01.145Z</time>
      </trkpt>
      <trkpt lat="48.40532" lon="7.25849">
        <ele>1028</ele>
        <time>2020-06-24T08:43:02.146Z</time>
      </trkpt>
      <trkpt lat="48.40531" lon="7.25849">
        <ele>1028</ele>
        <time>2020-06-24T08:43:03.146Z</time>
      </trkpt>
      <trkpt lat="48.4053" lon="7.2585">
        <ele>1029</ele>
        <time>2020-06-24T08:43:04.145Z</time>
      </trkpt>
      <trkpt lat="48.4053" lon="7.25851">
        <ele>1029</ele>
        <time>2020-06-24T08:43:05.146Z</time>
      </trkpt>
      <trkpt lat="48.40529" lon="7.25851">
        <ele>1029</ele>
        <time>2020-06-24T08:43:06.146Z</time>
      </trkpt>
      <trkpt lat="48.40529" lon="7.25853">
        <ele>1029</ele>
        <time>2020-06-24T08:43:07.146Z</time>
      </trkpt>
      <trkpt lat="48.40528" lon="7.25857">
        <ele>1032</ele>
        <time>2020-06-24T08:43:08.145Z</time>
      </trkpt>
      <trkpt lat="48.40526" lon="7.25859">
        <ele>1032</ele>
        <time>2020-06-24T08:43:09.146Z</time>
      </trkpt>
      <trkpt lat="48.40526" lon="7.25861">
        <ele>1033</ele>
        <time>2020-06-24T08:43:10.145Z</time>
      </trkpt>
      <trkpt lat="48.40524" lon="7.25863">
        <ele>1033</ele>
        <time>2020-06-24T08:43:11.146Z</time>
      </trkpt>
      <trkpt lat="48.40523" lon="7.25864">
        <ele>1034</ele>
        <time>2020-06-24T08:43:12.146Z</time>
      </trkpt>
      <trkpt lat="48.40522" lon="7.25866">
        <ele>1034</ele>
        <time>2020-06-24T08:43:13.146Z</time>
      </trkpt>
      <trkpt lat="48.40521" lon="7.25867">
        <ele>1034</ele>
        <time>2020-06-24T08:43:14.146Z</time>
      </trkpt>
      <trkpt lat="48.40519" lon="7.25868">
        <ele>1034</ele>
        <time>2020-06-24T08:43:15.146Z</time>
      </trkpt>
      <trkpt lat="48.40518" lon="7.25867">
        <ele>1034</ele>
        <time>2020-06-24T08:43:16.145Z</time>
      </trkpt>
      <trkpt lat="48.40517" lon="7.25867">
        <ele>1034</ele>
        <time>2020-06-24T08:43:17.146Z</time>
      </trkpt>
      <trkpt lat="48.40516" lon="7.25865">
        <ele>1034</ele>
        <time>2020-06-24T08:43:18.146Z</time>
      </trkpt>
      <trkpt lat="48.40518" lon="7.2586">
        <ele>1032</ele>
        <time>2020-06-24T08:43:19.146Z</time>
      </trkpt>
      <trkpt lat="48.40518" lon="7.2586">
        <ele>1032</ele>
        <time>2020-06-24T08:43:20.146Z</time>
      </trkpt>
      <trkpt lat="48.40519" lon="7.25859">
        <ele>1032</ele>
        <time>2020-06-24T08:43:21.146Z</time>
      </trkpt>
      <trkpt lat="48.4052" lon="7.25859">
        <ele>1033</ele>
        <time>2020-06-24T08:43:22.146Z</time>
      </trkpt>
      <trkpt lat="48.4052" lon="7.2586">
        <ele>1033</ele>
        <time>2020-06-24T08:43:23.147Z</time>
      </trkpt>
      <trkpt lat="48.40518" lon="7.25858">
        <ele>1035</ele>
        <time>2020-06-24T08:43:24.146Z</time>
      </trkpt>
      <trkpt lat="48.40516" lon="7.2586">
        <ele>1035</ele>
        <time>2020-06-24T08:43:25.147Z</time>
      </trkpt>
      <trkpt lat="48.40514" lon="7.25862">
        <ele>1035</ele>
        <time>2020-06-24T08:43:26.146Z</time>
      </trkpt>
      <trkpt lat="48.40512" lon="7.25864">
        <ele>1035</ele>
        <time>2020-06-24T08:43:27.147Z</time>
      </trkpt>
      <trkpt lat="48.40511" lon="7.25865">
        <ele>1035</ele>
        <time>2020-06-24T08:43:28.147Z</time>
      </trkpt>
      <trkpt lat="48.40508" lon="7.25866">
        <ele>1036</ele>
        <time>2020-06-24T08:43:29.146Z</time>
      </trkpt>
      <trkpt lat="48.40506" lon="7.25868">
        <ele>1036</ele>
        <time>2020-06-24T08:43:30.146Z</time>
      </trkpt>
      <trkpt lat="48.40504" lon="7.2587">
        <ele>1037</ele>
        <time>2020-06-24T08:43:31.146Z</time>
      </trkpt>
      <trkpt lat="48.40503" lon="7.25871">
        <ele>1037</ele>
        <time>2020-06-24T08:43:32.146Z</time>
      </trkpt>
      <trkpt lat="48.40502" lon="7.25872">
        <ele>1038</ele>
        <time>2020-06-24T08:43:33.146Z</time>
      </trkpt>
      <trkpt lat="48.40501" lon="7.25873">
        <ele>1038</ele>
        <time>2020-06-24T08:43:34.147Z</time>
      </trkpt>
      <trkpt lat="48.40501" lon="7.25873">
        <ele>1039</ele>
        <time>2020-06-24T08:43:35.147Z</time>
      </trkpt>
      <trkpt lat="48.405" lon="7.25874">
        <ele>1039</ele>
        <time>2020-06-24T08:43:36.146Z</time>
      </trkpt>
      <trkpt lat="48.40499" lon="7.25875">
        <ele>1040</ele>
        <time>2020-06-24T08:43:37.147Z</time>
      </trkpt>
      <trkpt lat="48.40498" lon="7.25875">
        <ele>1040</ele>
        <time>2020-06-24T08:43:38.147Z</time>
      </trkpt>
      <trkpt lat="48.40496" lon="7.25879">
        <ele>1040</ele>
        <time>2020-06-24T08:43:39.146Z</time>
      </trkpt>
      <trkpt lat="48.40494" lon="7.25881">
        <ele>1040</ele>
        <time>2020-06-24T08:43:40.147Z</time>
      </trkpt>
      <trkpt lat="48.40493" lon="7.25882">
        <ele>1040</ele>
        <time>2020-06-24T08:43:41.147Z</time>
      </trkpt>
      <trkpt lat="48.40492" lon="7.25883">
        <ele>1040</ele>
        <time>2020-06-24T08:43:42.147Z</time>
      </trkpt>
      <trkpt lat="48.40491" lon="7.25883">
        <ele>1040</ele>
        <time>2020-06-24T08:43:43.147Z</time>
      </trkpt>
      <trkpt lat="48.4049" lon="7.25883">
        <ele>1040</ele>
        <time>2020-06-24T08:43:44.147Z</time>
      </trkpt>
      <trkpt lat="48.40488" lon="7.25883">
        <ele>1040</ele>
        <time>2020-06-24T08:43:45.146Z</time>
      </trkpt>
      <trkpt lat="48.40487" lon="7.25883">
        <ele>1040</ele>
        <time>2020-06-24T08:43:46.147Z</time>
      </trkpt>
      <trkpt lat="48.40485" lon="7.25883">
        <ele>1041</ele>
        <time>2020-06-24T08:43:47.147Z</time>
      </trkpt>
      <trkpt lat="48.40483" lon="7.25883">
        <ele>1041</ele>
        <time>2020-06-24T08:43:48.147Z</time>
      </trkpt>
      <trkpt lat="48.40481" lon="7.25883">
        <ele>1041</ele>
        <time>2020-06-24T08:43:49.146Z</time>
      </trkpt>
      <trkpt lat="48.4048" lon="7.25884">
        <ele>1041</ele>
        <time>2020-06-24T08:43:50.146Z</time>
      </trkpt>
      <trkpt lat="48.40479" lon="7.25885">
        <ele>1041</ele>
        <time>2020-06-24T08:43:51.146Z</time>
      </trkpt>
      <trkpt lat="48.40477" lon="7.25885">
        <ele>1041</ele>
        <time>2020-06-24T08:43:52.147Z</time>
      </trkpt>
      <trkpt lat="48.40476" lon="7.25885">
        <ele>1042</ele>
        <time>2020-06-24T08:43:53.146Z</time>
      </trkpt>
      <trkpt lat="48.40474" lon="7.25886">
        <ele>1042</ele>
        <time>2020-06-24T08:43:54.147Z</time>
      </trkpt>
      <trkpt lat="48.40473" lon="7.25887">
        <ele>1042</ele>
        <time>2020-06-24T08:43:55.147Z</time>
      </trkpt>
      <trkpt lat="48.40471" lon="7.25887">
        <ele>1043</ele>
        <time>2020-06-24T08:43:56.146Z</time>
      </trkpt>
      <trkpt lat="48.4047" lon="7.25888">
        <ele>1043</ele>
        <time>2020-06-24T08:43:57.146Z</time>
      </trkpt>
      <trkpt lat="48.40469" lon="7.25888">
        <ele>1043</ele>
        <time>2020-06-24T08:43:58.146Z</time>
      </trkpt>
      <trkpt lat="48.40467" lon="7.25888">
        <ele>1044</ele>
        <time>2020-06-24T08:43:59.147Z</time>
      </trkpt>
      <trkpt lat="48.40466" lon="7.25889">
        <ele>1044</ele>
        <time>2020-06-24T08:44:00.147Z</time>
      </trkpt>
      <trkpt lat="48.40464" lon="7.2589">
        <ele>1044</ele>
        <time>2020-06-24T08:44:01.146Z</time>
      </trkpt>
      <trkpt lat="48.40462" lon="7.25891">
        <ele>1043</ele>
        <time>2020-06-24T08:44:02.146Z</time>
      </trkpt>
      <trkpt lat="48.40461" lon="7.25893">
        <ele>1043</ele>
        <time>2020-06-24T08:44:03.147Z</time>
      </trkpt>
      <trkpt lat="48.4046" lon="7.25893">
        <ele>1043</ele>
        <time>2020-06-24T08:44:04.147Z</time>
      </trkpt>
      <trkpt lat="48.40458" lon="7.25893">
        <ele>1043</ele>
        <time>2020-06-24T08:44:05.146Z</time>
      </trkpt>
      <trkpt lat="48.40457" lon="7.25893">
        <ele>1043</ele>
        <time>2020-06-24T08:44:06.147Z</time>
      </trkpt>
      <trkpt lat="48.40455" lon="7.25894">
        <ele>1043</ele>
        <time>2020-06-24T08:44:07.147Z</time>
      </trkpt>
      <trkpt lat="48.40454" lon="7.25895">
        <ele>1043</ele>
        <time>2020-06-24T08:44:08.147Z</time>
      </trkpt>
      <trkpt lat="48.40452" lon="7.25895">
        <ele>1043</ele>
        <time>2020-06-24T08:44:09.147Z</time>
      </trkpt>
      <trkpt lat="48.40451" lon="7.25895">
        <ele>1043</ele>
        <time>2020-06-24T08:44:10.146Z</time>
      </trkpt>
      <trkpt lat="48.4045" lon="7.25896">
        <ele>1042</ele>
        <time>2020-06-24T08:44:11.147Z</time>
      </trkpt>
      <trkpt lat="48.40447" lon="7.25897">
        <ele>1042</ele>
        <time>2020-06-24T08:44:12.146Z</time>
      </trkpt>
      <trkpt lat="48.40446" lon="7.25898">
        <ele>1042</ele>
        <time>2020-06-24T08:44:13.147Z</time>
      </trkpt>
      <trkpt lat="48.40444" lon="7.25898">
        <ele>1041</ele>
        <time>2020-06-24T08:44:14.147Z</time>
      </trkpt>
      <trkpt lat="48.40444" lon="7.25898">
        <ele>1041</ele>
        <time>2020-06-24T08:44:15.147Z</time>
      </trkpt>
      <trkpt lat="48.40444" lon="7.25898">
        <ele>1040</ele>
        <time>2020-06-24T08:44:16.147Z</time>
      </trkpt>
      <trkpt lat="48.40443" lon="7.25899">
        <ele>1039</ele>
        <time>2020-06-24T08:44:17.147Z</time>
      </trkpt>
      <trkpt lat="48.40442" lon="7.259">
        <ele>1038</ele>
        <time>2020-06-24T08:44:18.147Z</time>
      </trkpt>
      <trkpt lat="48.40441" lon="7.259">
        <ele>1038</ele>
        <time>2020-06-24T08:44:19.147Z</time>
      </trkpt>
      <trkpt lat="48.40441" lon="7.25901">
        <ele>1038</ele>
        <time>2020-06-24T08:44:20.147Z</time>
      </trkpt>
      <trkpt lat="48.4044" lon="7.25903">
        <ele>1037</ele>
        <time>2020-06-24T08:44:21.147Z</time>
      </trkpt>
      <trkpt lat="48.40438" lon="7.25904">
        <ele>1037</ele>
        <time>2020-06-24T08:44:22.147Z</time>
      </trkpt>
      <trkpt lat="48.40437" lon="7.25904">
        <ele>1036</ele>
        <time>2020-06-24T08:44:23.147Z</time>
      </trkpt>
      <trkpt lat="48.40436" lon="7.25905">
        <ele>1036</ele>
        <time>2020-06-24T08:44:24.147Z</time>
      </trkpt>
      <trkpt lat="48.40435" lon="7.25906">
        <ele>1035</ele>
        <time>2020-06-24T08:44:25.146Z</time>
      </trkpt>
      <trkpt lat="48.40434" lon="7.25907">
        <ele>1034</ele>
        <time>2020-06-24T08:44:26.147Z</time>
      </trkpt>
      <trkpt lat="48.40432" lon="7.25907">
        <ele>1034</ele>
        <time>2020-06-24T08:44:27.146Z</time>
      </trkpt>
      <trkpt lat="48.40431" lon="7.25908">
        <ele>1034</ele>
        <time>2020-06-24T08:44:28.146Z</time>
      </trkpt>
      <trkpt lat="48.4043" lon="7.25908">
        <ele>1033</ele>
        <time>2020-06-24T08:44:29.147Z</time>
      </trkpt>
      <trkpt lat="48.40429" lon="7.25909">
        <ele>1032</ele>
        <time>2020-06-24T08:44:30.146Z</time>
      </trkpt>
      <trkpt lat="48.40428" lon="7.2591">
        <ele>1032</ele>
        <time>2020-06-24T08:44:31.147Z</time>
      </trkpt>
      <trkpt lat="48.40427" lon="7.25911">
        <ele>1031</ele>
        <time>2020-06-24T08:44:32.147Z</time>
      </trkpt>
      <trkpt lat="48.40426" lon="7.25912">
        <ele>1031</ele>
        <time>2020-06-24T08:44:33.147Z</time>
      </trkpt>
      <trkpt lat="48.40425" lon="7.25913">
        <ele>1031</ele>
        <time>2020-06-24T08:44:34.147Z</time>
      </trkpt>
      <trkpt lat="48.40424" lon="7.25914">
        <ele>1031</ele>
        <time>2020-06-24T08:44:35.147Z</time>
      </trkpt>
      <trkpt lat="48.40423" lon="7.25917">
        <ele>1031</ele>
        <time>2020-06-24T08:44:36.147Z</time>
      </trkpt>
      <trkpt lat="48.40422" lon="7.25918">
        <ele>1031</ele>
        <time>2020-06-24T08:44:37.147Z</time>
      </trkpt>
      <trkpt lat="48.40421" lon="7.2592">
        <ele>1031</ele>
        <time>2020-06-24T08:44:38.146Z</time>
      </trkpt>
      <trkpt lat="48.4042" lon="7.2592">
        <ele>1031</ele>
        <time>2020-06-24T08:44:39.147Z</time>
      </trkpt>
      <trkpt lat="48.40419" lon="7.25922">
        <ele>1031</ele>
        <time>2020-06-24T08:44:40.146Z</time>
      </trkpt>
      <trkpt lat="48.40418" lon="7.25924">
        <ele>1031</ele>
        <time>2020-06-24T08:44:41.147Z</time>
      </trkpt>
      <trkpt lat="48.40417" lon="7.25925">
        <ele>1031</ele>
        <time>2020-06-24T08:44:42.147Z</time>
      </trkpt>
      <trkpt lat="48.40416" lon="7.25927">
        <ele>1031</ele>
        <time>2020-06-24T08:44:43.147Z</time>
      </trkpt>
      <trkpt lat="48.40414" lon="7.25928">
        <ele>1031</ele>
        <time>2020-06-24T08:44:44.147Z</time>
      </trkpt>
      <trkpt lat="48.40413" lon="7.25928">
        <ele>1031</ele>
        <time>2020-06-24T08:44:45.146Z</time>
      </trkpt>
      <trkpt lat="48.40411" lon="7.25929">
        <ele>1031</ele>
        <time>2020-06-24T08:44:46.147Z</time>
      </trkpt>
      <trkpt lat="48.4041" lon="7.2593">
        <ele>1031</ele>
        <time>2020-06-24T08:44:47.146Z</time>
      </trkpt>
      <trkpt lat="48.40408" lon="7.25931">
        <ele>1031</ele>
        <time>2020-06-24T08:44:48.147Z</time>
      </trkpt>
      <trkpt lat="48.40407" lon="7.25933">
        <ele>1031</ele>
        <time>2020-06-24T08:44:49.147Z</time>
      </trkpt>
      <trkpt lat="48.40405" lon="7.25933">
        <ele>1031</ele>
        <time>2020-06-24T08:44:50.147Z</time>
      </trkpt>
      <trkpt lat="48.40403" lon="7.25934">
        <ele>1031</ele>
        <time>2020-06-24T08:44:51.147Z</time>
      </trkpt>
      <trkpt lat="48.40403" lon="7.25935">
        <ele>1030</ele>
        <time>2020-06-24T08:44:52.147Z</time>
      </trkpt>
      <trkpt lat="48.40402" lon="7.25936">
        <ele>1030</ele>
        <time>2020-06-24T08:44:53.146Z</time>
      </trkpt>
      <trkpt lat="48.40401" lon="7.25937">
        <ele>1029</ele>
        <time>2020-06-24T08:44:54.147Z</time>
      </trkpt>
      <trkpt lat="48.404" lon="7.25937">
        <ele>1028</ele>
        <time>2020-06-24T08:44:55.147Z</time>
      </trkpt>
      <trkpt lat="48.40399" lon="7.25938">
        <ele>1027</ele>
        <time>2020-06-24T08:44:56.147Z</time>
      </trkpt>
      <trkpt lat="48.40398" lon="7.25939">
        <ele>1026</ele>
        <time>2020-06-24T08:44:57.147Z</time>
      </trkpt>
      <trkpt lat="48.40398" lon="7.2594">
        <ele>1026</ele>
        <time>2020-06-24T08:44:58.147Z</time>
      </trkpt>
      <trkpt lat="48.40397" lon="7.25941">
        <ele>1025</ele>
        <time>2020-06-24T08:44:59.146Z</time>
      </trkpt>
      <trkpt lat="48.40396" lon="7.25943">
        <ele>1024</ele>
        <time>2020-06-24T08:45:00.146Z</time>
      </trkpt>
      <trkpt lat="48.40396" lon="7.25945">
        <ele>1024</ele>
        <time>2020-06-24T08:45:01.147Z</time>
      </trkpt>
      <trkpt lat="48.40395" lon="7.25946">
        <ele>1024</ele>
        <time>2020-06-24T08:45:02.146Z</time>
      </trkpt>
      <trkpt lat="48.40394" lon="7.25948">
        <ele>1023</ele>
        <time>2020-06-24T08:45:03.146Z</time>
      </trkpt>
      <trkpt lat="48.40393" lon="7.25949">
        <ele>1023</ele>
        <time>2020-06-24T08:45:04.146Z</time>
      </trkpt>
      <trkpt lat="48.40392" lon="7.2595">
        <ele>1024</ele>
        <time>2020-06-24T08:45:05.147Z</time>
      </trkpt>
      <trkpt lat="48.40392" lon="7.25952">
        <ele>1024</ele>
        <time>2020-06-24T08:45:06.146Z</time>
      </trkpt>
      <trkpt lat="48.40391" lon="7.25954">
        <ele>1024</ele>
        <time>2020-06-24T08:45:07.147Z</time>
      </trkpt>
      <trkpt lat="48.4039" lon="7.25955">
        <ele>1024</ele>
        <time>2020-06-24T08:45:08.147Z</time>
      </trkpt>
      <trkpt lat="48.40389" lon="7.25957">
        <ele>1024</ele>
        <time>2020-06-24T08:45:09.147Z</time>
      </trkpt>
      <trkpt lat="48.40388" lon="7.25958">
        <ele>1023</ele>
        <time>2020-06-24T08:45:10.147Z</time>
      </trkpt>
      <trkpt lat="48.40388" lon="7.2596">
        <ele>1022</ele>
        <time>2020-06-24T08:45:11.146Z</time>
      </trkpt>
      <trkpt lat="48.40387" lon="7.25962">
        <ele>1022</ele>
        <time>2020-06-24T08:45:12.147Z</time>
      </trkpt>
      <trkpt lat="48.40386" lon="7.25963">
        <ele>1021</ele>
        <time>2020-06-24T08:45:13.147Z</time>
      </trkpt>
      <trkpt lat="48.40385" lon="7.25964">
        <ele>1021</ele>
        <time>2020-06-24T08:45:14.146Z</time>
      </trkpt>
      <trkpt lat="48.40384" lon="7.25965">
        <ele>1020</ele>
        <time>2020-06-24T08:45:15.147Z</time>
      </trkpt>
      <trkpt lat="48.40384" lon="7.25967">
        <ele>1020</ele>
        <time>2020-06-24T08:45:16.147Z</time>
      </trkpt>
      <trkpt lat="48.40383" lon="7.25968">
        <ele>1020</ele>
        <time>2020-06-24T08:45:17.147Z</time>
      </trkpt>
      <trkpt lat="48.40383" lon="7.2597">
        <ele>1021</ele>
        <time>2020-06-24T08:45:18.147Z</time>
      </trkpt>
      <trkpt lat="48.40382" lon="7.25972">
        <ele>1021</ele>
        <time>2020-06-24T08:45:19.147Z</time>
      </trkpt>
      <trkpt lat="48.40382" lon="7.25973">
        <ele>1021</ele>
        <time>2020-06-24T08:45:20.147Z</time>
      </trkpt>
      <trkpt lat="48.40381" lon="7.25975">
        <ele>1021</ele>
        <time>2020-06-24T08:45:21.147Z</time>
      </trkpt>
      <trkpt lat="48.4038" lon="7.25977">
        <ele>1022</ele>
        <time>2020-06-24T08:45:22.147Z</time>
      </trkpt>
      <trkpt lat="48.4038" lon="7.25979">
        <ele>1022</ele>
        <time>2020-06-24T08:45:23.147Z</time>
      </trkpt>
      <trkpt lat="48.40379" lon="7.2598">
        <ele>1023</ele>
        <time>2020-06-24T08:45:24.147Z</time>
      </trkpt>
      <trkpt lat="48.40379" lon="7.25982">
        <ele>1023</ele>
        <time>2020-06-24T08:45:25.147Z</time>
      </trkpt>
      <trkpt lat="48.40378" lon="7.25984">
        <ele>1023</ele>
        <time>2020-06-24T08:45:26.147Z</time>
      </trkpt>
      <trkpt lat="48.40377" lon="7.25985">
        <ele>1023</ele>
        <time>2020-06-24T08:45:27.146Z</time>
      </trkpt>
      <trkpt lat="48.40377" lon="7.25986">
        <ele>1023</ele>
        <time>2020-06-24T08:45:28.146Z</time>
      </trkpt>
      <trkpt lat="48.40376" lon="7.25988">
        <ele>1024</ele>
        <time>2020-06-24T08:45:29.146Z</time>
      </trkpt>
      <trkpt lat="48.40375" lon="7.2599">
        <ele>1024</ele>
        <time>2020-06-24T08:45:30.146Z</time>
      </trkpt>
      <trkpt lat="48.40375" lon="7.25991">
        <ele>1025</ele>
        <time>2020-06-24T08:45:31.147Z</time>
      </trkpt>
      <trkpt lat="48.40374" lon="7.25993">
        <ele>1025</ele>
        <time>2020-06-24T08:45:32.147Z</time>
      </trkpt>
      <trkpt lat="48.40373" lon="7.25995">
        <ele>1026</ele>
        <time>2020-06-24T08:45:33.147Z</time>
      </trkpt>
      <trkpt lat="48.40373" lon="7.25997">
        <ele>1026</ele>
        <time>2020-06-24T08:45:34.147Z</time>
      </trkpt>
      <trkpt lat="48.40372" lon="7.25999">
        <ele>1026</ele>
        <time>2020-06-24T08:45:35.147Z</time>
      </trkpt>
      <trkpt lat="48.40371" lon="7.26">
        <ele>1026</ele>
        <time>2020-06-24T08:45:36.147Z</time>
      </trkpt>
      <trkpt lat="48.40371" lon="7.26001">
        <ele>1026</ele>
        <time>2020-06-24T08:45:37.147Z</time>
      </trkpt>
      <trkpt lat="48.40371" lon="7.26001">
        <ele>1026</ele>
        <time>2020-06-24T08:45:38.146Z</time>
      </trkpt>
      <trkpt lat="48.40371" lon="7.26001">
        <ele>1026</ele>
        <time>2020-06-24T08:45:39.147Z</time>
      </trkpt>
      <trkpt lat="48.40371" lon="7.26002">
        <ele>1026</ele>
        <time>2020-06-24T08:45:40.146Z</time>
      </trkpt>
      <trkpt lat="48.4037" lon="7.26003">
        <ele>1029</ele>
        <time>2020-06-24T08:45:41.147Z</time>
      </trkpt>
      <trkpt lat="48.40369" lon="7.26003">
        <ele>1032</ele>
        <time>2020-06-24T08:45:42.147Z</time>
      </trkpt>
      <trkpt lat="48.40369" lon="7.26003">
        <ele>1032</ele>
        <time>2020-06-24T08:45:43.147Z</time>
      </trkpt>
      <trkpt lat="48.40368" lon="7.26007">
        <ele>1031</ele>
        <time>2020-06-24T08:45:44.148Z</time>
      </trkpt>
      <trkpt lat="48.40368" lon="7.26008">
        <ele>1031</ele>
        <time>2020-06-24T08:45:45.148Z</time>
      </trkpt>
      <trkpt lat="48.40367" lon="7.2601">
        <ele>1031</ele>
        <time>2020-06-24T08:45:46.147Z</time>
      </trkpt>
      <trkpt lat="48.40367" lon="7.26011">
        <ele>1031</ele>
        <time>2020-06-24T08:45:47.148Z</time>
      </trkpt>
      <trkpt lat="48.40366" lon="7.26013">
        <ele>1031</ele>
        <time>2020-06-24T08:45:48.148Z</time>
      </trkpt>
      <trkpt lat="48.40365" lon="7.26014">
        <ele>1031</ele>
        <time>2020-06-24T08:45:49.147Z</time>
      </trkpt>
      <trkpt lat="48.40364" lon="7.26016">
        <ele>1031</ele>
        <time>2020-06-24T08:45:50.147Z</time>
      </trkpt>
      <trkpt lat="48.40364" lon="7.26018">
        <ele>1031</ele>
        <time>2020-06-24T08:45:51.148Z</time>
      </trkpt>
      <trkpt lat="48.40363" lon="7.26019">
        <ele>1031</ele>
        <time>2020-06-24T08:45:52.147Z</time>
      </trkpt>
      <trkpt lat="48.40362" lon="7.26021">
        <ele>1031</ele>
        <time>2020-06-24T08:45:53.148Z</time>
      </trkpt>
      <trkpt lat="48.40361" lon="7.26023">
        <ele>1031</ele>
        <time>2020-06-24T08:45:54.148Z</time>
      </trkpt>
      <trkpt lat="48.4036" lon="7.26023">
        <ele>1031</ele>
        <time>2020-06-24T08:45:55.147Z</time>
      </trkpt>
      <trkpt lat="48.40359" lon="7.26025">
        <ele>1032</ele>
        <time>2020-06-24T08:45:56.147Z</time>
      </trkpt>
      <trkpt lat="48.40358" lon="7.26026">
        <ele>1032</ele>
        <time>2020-06-24T08:45:57.147Z</time>
      </trkpt>
      <trkpt lat="48.40358" lon="7.26027">
        <ele>1032</ele>
        <time>2020-06-24T08:45:58.148Z</time>
      </trkpt>
      <trkpt lat="48.40357" lon="7.26028">
        <ele>1032</ele>
        <time>2020-06-24T08:45:59.148Z</time>
      </trkpt>
      <trkpt lat="48.40356" lon="7.26029">
        <ele>1032</ele>
        <time>2020-06-24T08:46:00.147Z</time>
      </trkpt>
      <trkpt lat="48.40355" lon="7.2603">
        <ele>1031</ele>
        <time>2020-06-24T08:46:01.147Z</time>
      </trkpt>
      <trkpt lat="48.40354" lon="7.26031">
        <ele>1031</ele>
        <time>2020-06-24T08:46:02.147Z</time>
      </trkpt>
      <trkpt lat="48.40353" lon="7.26032">
        <ele>1031</ele>
        <time>2020-06-24T08:46:03.148Z</time>
      </trkpt>
      <trkpt lat="48.40352" lon="7.26034">
        <ele>1031</ele>
        <time>2020-06-24T08:46:04.148Z</time>
      </trkpt>
      <trkpt lat="48.40351" lon="7.26035">
        <ele>1031</ele>
        <time>2020-06-24T08:46:05.148Z</time>
      </trkpt>
      <trkpt lat="48.40351" lon="7.26037">
        <ele>1031</ele>
        <time>2020-06-24T08:46:06.147Z</time>
      </trkpt>
      <trkpt lat="48.4035" lon="7.26038">
        <ele>1031</ele>
        <time>2020-06-24T08:46:07.148Z</time>
      </trkpt>
      <trkpt lat="48.40349" lon="7.2604">
        <ele>1032</ele>
        <time>2020-06-24T08:46:08.148Z</time>
      </trkpt>
      <trkpt lat="48.40348" lon="7.26041">
        <ele>1032</ele>
        <time>2020-06-24T08:46:09.147Z</time>
      </trkpt>
      <trkpt lat="48.40348" lon="7.26042">
        <ele>1032</ele>
        <time>2020-06-24T08:46:10.148Z</time>
      </trkpt>
      <trkpt lat="48.40347" lon="7.26044">
        <ele>1032</ele>
        <time>2020-06-24T08:46:11.147Z</time>
      </trkpt>
      <trkpt lat="48.40347" lon="7.26046">
        <ele>1032</ele>
        <time>2020-06-24T08:46:12.148Z</time>
      </trkpt>
      <trkpt lat="48.40346" lon="7.26047">
        <ele>1032</ele>
        <time>2020-06-24T08:46:13.148Z</time>
      </trkpt>
      <trkpt lat="48.40345" lon="7.26049">
        <ele>1032</ele>
        <time>2020-06-24T08:46:14.147Z</time>
      </trkpt>
      <trkpt lat="48.40344" lon="7.26051">
        <ele>1032</ele>
        <time>2020-06-24T08:46:15.147Z</time>
      </trkpt>
      <trkpt lat="48.40344" lon="7.26052">
        <ele>1032</ele>
        <time>2020-06-24T08:46:16.147Z</time>
      </trkpt>
      <trkpt lat="48.40343" lon="7.26054">
        <ele>1032</ele>
        <time>2020-06-24T08:46:17.148Z</time>
      </trkpt>
      <trkpt lat="48.40342" lon="7.26056">
        <ele>1033</ele>
        <time>2020-06-24T08:46:18.148Z</time>
      </trkpt>
      <trkpt lat="48.40341" lon="7.26057">
        <ele>1033</ele>
        <time>2020-06-24T08:46:19.148Z</time>
      </trkpt>
      <trkpt lat="48.4034" lon="7.26059">
        <ele>1033</ele>
        <time>2020-06-24T08:46:20.147Z</time>
      </trkpt>
      <trkpt lat="48.4034" lon="7.26061">
        <ele>1032</ele>
        <time>2020-06-24T08:46:21.148Z</time>
      </trkpt>
      <trkpt lat="48.40339" lon="7.26063">
        <ele>1032</ele>
        <time>2020-06-24T08:46:22.147Z</time>
      </trkpt>
      <trkpt lat="48.40338" lon="7.26065">
        <ele>1032</ele>
        <time>2020-06-24T08:46:23.147Z</time>
      </trkpt>
      <trkpt lat="48.40337" lon="7.26067">
        <ele>1032</ele>
        <time>2020-06-24T08:46:24.147Z</time>
      </trkpt>
      <trkpt lat="48.40337" lon="7.26068">
        <ele>1032</ele>
        <time>2020-06-24T08:46:25.148Z</time>
      </trkpt>
      <trkpt lat="48.40336" lon="7.2607">
        <ele>1032</ele>
        <time>2020-06-24T08:46:26.147Z</time>
      </trkpt>
      <trkpt lat="48.40335" lon="7.26072">
        <ele>1032</ele>
        <time>2020-06-24T08:46:27.148Z</time>
      </trkpt>
      <trkpt lat="48.40334" lon="7.26073">
        <ele>1032</ele>
        <time>2020-06-24T08:46:28.147Z</time>
      </trkpt>
      <trkpt lat="48.40334" lon="7.26075">
        <ele>1033</ele>
        <time>2020-06-24T08:46:29.148Z</time>
      </trkpt>
      <trkpt lat="48.40333" lon="7.26077">
        <ele>1033</ele>
        <time>2020-06-24T08:46:30.147Z</time>
      </trkpt>
      <trkpt lat="48.40332" lon="7.26079">
        <ele>1033</ele>
        <time>2020-06-24T08:46:31.147Z</time>
      </trkpt>
      <trkpt lat="48.40332" lon="7.2608">
        <ele>1034</ele>
        <time>2020-06-24T08:46:32.148Z</time>
      </trkpt>
      <trkpt lat="48.40331" lon="7.26082">
        <ele>1034</ele>
        <time>2020-06-24T08:46:33.147Z</time>
      </trkpt>
      <trkpt lat="48.4033" lon="7.26084">
        <ele>1034</ele>
        <time>2020-06-24T08:46:34.147Z</time>
      </trkpt>
      <trkpt lat="48.4033" lon="7.26086">
        <ele>1034</ele>
        <time>2020-06-24T08:46:35.148Z</time>
      </trkpt>
      <trkpt lat="48.40329" lon="7.26087">
        <ele>1034</ele>
        <time>2020-06-24T08:46:36.148Z</time>
      </trkpt>
      <trkpt lat="48.40328" lon="7.26089">
        <ele>1034</ele>
        <time>2020-06-24T08:46:37.148Z</time>
      </trkpt>
      <trkpt lat="48.40327" lon="7.26091">
        <ele>1034</ele>
        <time>2020-06-24T08:46:38.147Z</time>
      </trkpt>
      <trkpt lat="48.40326" lon="7.26093">
        <ele>1035</ele>
        <time>2020-06-24T08:46:39.147Z</time>
      </trkpt>
      <trkpt lat="48.40326" lon="7.26095">
        <ele>1035</ele>
        <time>2020-06-24T08:46:40.148Z</time>
      </trkpt>
      <trkpt lat="48.40325" lon="7.26097">
        <ele>1035</ele>
        <time>2020-06-24T08:46:41.148Z</time>
      </trkpt>
      <trkpt lat="48.40324" lon="7.26099">
        <ele>1035</ele>
        <time>2020-06-24T08:46:42.148Z</time>
      </trkpt>
      <trkpt lat="48.40324" lon="7.261">
        <ele>1035</ele>
        <time>2020-06-24T08:46:43.147Z</time>
      </trkpt>
      <trkpt lat="48.40323" lon="7.26101">
        <ele>1035</ele>
        <time>2020-06-24T08:46:44.148Z</time>
      </trkpt>
      <trkpt lat="48.40322" lon="7.26102">
        <ele>1036</ele>
        <time>2020-06-24T08:46:45.148Z</time>
      </trkpt>
      <trkpt lat="48.40321" lon="7.26104">
        <ele>1036</ele>
        <time>2020-06-24T08:46:46.148Z</time>
      </trkpt>
      <trkpt lat="48.40321" lon="7.26106">
        <ele>1035</ele>
        <time>2020-06-24T08:46:47.148Z</time>
      </trkpt>
      <trkpt lat="48.40321" lon="7.26107">
        <ele>1035</ele>
        <time>2020-06-24T08:46:48.148Z</time>
      </trkpt>
      <trkpt lat="48.4032" lon="7.26109">
        <ele>1035</ele>
        <time>2020-06-24T08:46:49.148Z</time>
      </trkpt>
      <trkpt lat="48.40319" lon="7.2611">
        <ele>1035</ele>
        <time>2020-06-24T08:46:50.147Z</time>
      </trkpt>
      <trkpt lat="48.40318" lon="7.2611">
        <ele>1034</ele>
        <time>2020-06-24T08:46:51.148Z</time>
      </trkpt>
      <trkpt lat="48.40318" lon="7.2611">
        <ele>1034</ele>
        <time>2020-06-24T08:46:52.147Z</time>
      </trkpt>
      <trkpt lat="48.40318" lon="7.26111">
        <ele>1035</ele>
        <time>2020-06-24T08:46:53.147Z</time>
      </trkpt>
      <trkpt lat="48.40318" lon="7.26112">
        <ele>1035</ele>
        <time>2020-06-24T08:46:54.148Z</time>
      </trkpt>
      <trkpt lat="48.40317" lon="7.26114">
        <ele>1035</ele>
        <time>2020-06-24T08:46:55.148Z</time>
      </trkpt>
      <trkpt lat="48.40317" lon="7.26115">
        <ele>1036</ele>
        <time>2020-06-24T08:46:56.148Z</time>
      </trkpt>
      <trkpt lat="48.40316" lon="7.26117">
        <ele>1036</ele>
        <time>2020-06-24T08:46:57.147Z</time>
      </trkpt>
      <trkpt lat="48.40316" lon="7.26119">
        <ele>1036</ele>
        <time>2020-06-24T08:46:58.148Z</time>
      </trkpt>
      <trkpt lat="48.40315" lon="7.26121">
        <ele>1037</ele>
        <time>2020-06-24T08:46:59.148Z</time>
      </trkpt>
      <trkpt lat="48.40314" lon="7.26123">
        <ele>1037</ele>
        <time>2020-06-24T08:47:00.148Z</time>
      </trkpt>
      <trkpt lat="48.40314" lon="7.26124">
        <ele>1038</ele>
        <time>2020-06-24T08:47:01.148Z</time>
      </trkpt>
      <trkpt lat="48.40313" lon="7.26125">
        <ele>1038</ele>
        <time>2020-06-24T08:47:02.148Z</time>
      </trkpt>
      <trkpt lat="48.40312" lon="7.26127">
        <ele>1038</ele>
        <time>2020-06-24T08:47:03.148Z</time>
      </trkpt>
      <trkpt lat="48.40312" lon="7.26129">
        <ele>1038</ele>
        <time>2020-06-24T08:47:04.148Z</time>
      </trkpt>
      <trkpt lat="48.40311" lon="7.26131">
        <ele>1039</ele>
        <time>2020-06-24T08:47:05.148Z</time>
      </trkpt>
      <trkpt lat="48.4031" lon="7.26133">
        <ele>1038</ele>
        <time>2020-06-24T08:47:06.147Z</time>
      </trkpt>
      <trkpt lat="48.40309" lon="7.26134">
        <ele>1039</ele>
        <time>2020-06-24T08:47:07.148Z</time>
      </trkpt>
      <trkpt lat="48.40308" lon="7.26136">
        <ele>1039</ele>
        <time>2020-06-24T08:47:08.147Z</time>
      </trkpt>
      <trkpt lat="48.40308" lon="7.26138">
        <ele>1039</ele>
        <time>2020-06-24T08:47:09.148Z</time>
      </trkpt>
      <trkpt lat="48.40307" lon="7.2614">
        <ele>1039</ele>
        <time>2020-06-24T08:47:10.148Z</time>
      </trkpt>
      <trkpt lat="48.40306" lon="7.26141">
        <ele>1040</ele>
        <time>2020-06-24T08:47:11.147Z</time>
      </trkpt>
      <trkpt lat="48.40306" lon="7.26143">
        <ele>1040</ele>
        <time>2020-06-24T08:47:12.148Z</time>
      </trkpt>
      <trkpt lat="48.40305" lon="7.26144">
        <ele>1040</ele>
        <time>2020-06-24T08:47:13.147Z</time>
      </trkpt>
      <trkpt lat="48.40304" lon="7.26146">
        <ele>1040</ele>
        <time>2020-06-24T08:47:14.148Z</time>
      </trkpt>
      <trkpt lat="48.40304" lon="7.26148">
        <ele>1040</ele>
        <time>2020-06-24T08:47:15.148Z</time>
      </trkpt>
      <trkpt lat="48.40303" lon="7.26149">
        <ele>1040</ele>
        <time>2020-06-24T08:47:16.148Z</time>
      </trkpt>
      <trkpt lat="48.40302" lon="7.26151">
        <ele>1040</ele>
        <time>2020-06-24T08:47:17.148Z</time>
      </trkpt>
      <trkpt lat="48.40302" lon="7.26153">
        <ele>1039</ele>
        <time>2020-06-24T08:47:18.148Z</time>
      </trkpt>
      <trkpt lat="48.40301" lon="7.26154">
        <ele>1039</ele>
        <time>2020-06-24T08:47:19.148Z</time>
      </trkpt>
      <trkpt lat="48.403" lon="7.26156">
        <ele>1039</ele>
        <time>2020-06-24T08:47:20.147Z</time>
      </trkpt>
      <trkpt lat="48.403" lon="7.26158">
        <ele>1040</ele>
        <time>2020-06-24T08:47:21.147Z</time>
      </trkpt>
      <trkpt lat="48.40299" lon="7.2616">
        <ele>1040</ele>
        <time>2020-06-24T08:47:22.148Z</time>
      </trkpt>
      <trkpt lat="48.40298" lon="7.26161">
        <ele>1040</ele>
        <time>2020-06-24T08:47:23.148Z</time>
      </trkpt>
      <trkpt lat="48.40297" lon="7.26163">
        <ele>1041</ele>
        <time>2020-06-24T08:47:24.148Z</time>
      </trkpt>
      <trkpt lat="48.40297" lon="7.26165">
        <ele>1041</ele>
        <time>2020-06-24T08:47:25.148Z</time>
      </trkpt>
      <trkpt lat="48.40296" lon="7.26166">
        <ele>1041</ele>
        <time>2020-06-24T08:47:26.148Z</time>
      </trkpt>
      <trkpt lat="48.40295" lon="7.26167">
        <ele>1041</ele>
        <time>2020-06-24T08:47:27.148Z</time>
      </trkpt>
      <trkpt lat="48.40294" lon="7.26169">
        <ele>1041</ele>
        <time>2020-06-24T08:47:28.147Z</time>
      </trkpt>
      <trkpt lat="48.40293" lon="7.26171">
        <ele>1042</ele>
        <time>2020-06-24T08:47:29.148Z</time>
      </trkpt>
      <trkpt lat="48.40293" lon="7.26173">
        <ele>1043</ele>
        <time>2020-06-24T08:47:30.148Z</time>
      </trkpt>
      <trkpt lat="48.40292" lon="7.26175">
        <ele>1043</ele>
        <time>2020-06-24T08:47:31.148Z</time>
      </trkpt>
      <trkpt lat="48.40292" lon="7.26177">
        <ele>1043</ele>
        <time>2020-06-24T08:47:32.148Z</time>
      </trkpt>
      <trkpt lat="48.40291" lon="7.26179">
        <ele>1044</ele>
        <time>2020-06-24T08:47:33.147Z</time>
      </trkpt>
      <trkpt lat="48.4029" lon="7.2618">
        <ele>1044</ele>
        <time>2020-06-24T08:47:34.148Z</time>
      </trkpt>
      <trkpt lat="48.40289" lon="7.26182">
        <ele>1044</ele>
        <time>2020-06-24T08:47:35.148Z</time>
      </trkpt>
      <trkpt lat="48.40289" lon="7.26183">
        <ele>1045</ele>
        <time>2020-06-24T08:47:36.148Z</time>
      </trkpt>
      <trkpt lat="48.40288" lon="7.26184">
        <ele>1045</ele>
        <time>2020-06-24T08:47:37.148Z</time>
      </trkpt>
      <trkpt lat="48.40287" lon="7.26186">
        <ele>1045</ele>
        <time>2020-06-24T08:47:38.147Z</time>
      </trkpt>
      <trkpt lat="48.40286" lon="7.26187">
        <ele>1045</ele>
        <time>2020-06-24T08:47:39.147Z</time>
      </trkpt>
      <trkpt lat="48.40285" lon="7.26189">
        <ele>1044</ele>
        <time>2020-06-24T08:47:40.147Z</time>
      </trkpt>
      <trkpt lat="48.40284" lon="7.26191">
        <ele>1044</ele>
        <time>2020-06-24T08:47:41.148Z</time>
      </trkpt>
      <trkpt lat="48.40283" lon="7.26192">
        <ele>1045</ele>
        <time>2020-06-24T08:47:42.148Z</time>
      </trkpt>
      <trkpt lat="48.40283" lon="7.26194">
        <ele>1044</ele>
        <time>2020-06-24T08:47:43.148Z</time>
      </trkpt>
      <trkpt lat="48.40282" lon="7.26195">
        <ele>1045</ele>
        <time>2020-06-24T08:47:44.147Z</time>
      </trkpt>
      <trkpt lat="48.40281" lon="7.26196">
        <ele>1045</ele>
        <time>2020-06-24T08:47:45.147Z</time>
      </trkpt>
      <trkpt lat="48.4028" lon="7.26197">
        <ele>1046</ele>
        <time>2020-06-24T08:47:46.148Z</time>
      </trkpt>
      <trkpt lat="48.4028" lon="7.26197">
        <ele>1046</ele>
        <time>2020-06-24T08:47:47.148Z</time>
      </trkpt>
      <trkpt lat="48.4028" lon="7.26197">
        <ele>1046</ele>
        <time>2020-06-24T08:47:48.148Z</time>
      </trkpt>
      <trkpt lat="48.4028" lon="7.26197">
        <ele>1046</ele>
        <time>2020-06-24T08:47:49.148Z</time>
      </trkpt>
      <trkpt lat="48.40279" lon="7.26197">
        <ele>1047</ele>
        <time>2020-06-24T08:47:50.147Z</time>
      </trkpt>
      <trkpt lat="48.40278" lon="7.26201">
        <ele>1044</ele>
        <time>2020-06-24T08:47:51.147Z</time>
      </trkpt>
      <trkpt lat="48.40277" lon="7.26202">
        <ele>1044</ele>
        <time>2020-06-24T08:47:52.147Z</time>
      </trkpt>
      <trkpt lat="48.40276" lon="7.26203">
        <ele>1045</ele>
        <time>2020-06-24T08:47:53.148Z</time>
      </trkpt>
      <trkpt lat="48.40275" lon="7.26205">
        <ele>1045</ele>
        <time>2020-06-24T08:47:54.148Z</time>
      </trkpt>
      <trkpt lat="48.40273" lon="7.26206">
        <ele>1045</ele>
        <time>2020-06-24T08:47:55.147Z</time>
      </trkpt>
      <trkpt lat="48.40272" lon="7.26207">
        <ele>1045</ele>
        <time>2020-06-24T08:47:56.148Z</time>
      </trkpt>
      <trkpt lat="48.40271" lon="7.26209">
        <ele>1045</ele>
        <time>2020-06-24T08:47:57.148Z</time>
      </trkpt>
      <trkpt lat="48.4027" lon="7.2621">
        <ele>1046</ele>
        <time>2020-06-24T08:47:58.148Z</time>
      </trkpt>
      <trkpt lat="48.40269" lon="7.26211">
        <ele>1046</ele>
        <time>2020-06-24T08:47:59.148Z</time>
      </trkpt>
      <trkpt lat="48.40268" lon="7.26213">
        <ele>1047</ele>
        <time>2020-06-24T08:48:00.148Z</time>
      </trkpt>
      <trkpt lat="48.40267" lon="7.26214">
        <ele>1047</ele>
        <time>2020-06-24T08:48:01.147Z</time>
      </trkpt>
      <trkpt lat="48.40266" lon="7.26216">
        <ele>1047</ele>
        <time>2020-06-24T08:48:02.147Z</time>
      </trkpt>
      <trkpt lat="48.40265" lon="7.26216">
        <ele>1047</ele>
        <time>2020-06-24T08:48:03.148Z</time>
      </trkpt>
      <trkpt lat="48.40264" lon="7.26217">
        <ele>1047</ele>
        <time>2020-06-24T08:48:04.147Z</time>
      </trkpt>
      <trkpt lat="48.40263" lon="7.26217">
        <ele>1047</ele>
        <time>2020-06-24T08:48:05.147Z</time>
      </trkpt>
      <trkpt lat="48.40262" lon="7.26218">
        <ele>1047</ele>
        <time>2020-06-24T08:48:06.148Z</time>
      </trkpt>
      <trkpt lat="48.40261" lon="7.26219">
        <ele>1047</ele>
        <time>2020-06-24T08:48:07.148Z</time>
      </trkpt>
      <trkpt lat="48.4026" lon="7.2622">
        <ele>1047</ele>
        <time>2020-06-24T08:48:08.147Z</time>
      </trkpt>
      <trkpt lat="48.40258" lon="7.26221">
        <ele>1048</ele>
        <time>2020-06-24T08:48:09.147Z</time>
      </trkpt>
      <trkpt lat="48.40257" lon="7.26222">
        <ele>1048</ele>
        <time>2020-06-24T08:48:10.147Z</time>
      </trkpt>
      <trkpt lat="48.40256" lon="7.26222">
        <ele>1048</ele>
        <time>2020-06-24T08:48:11.148Z</time>
      </trkpt>
      <trkpt lat="48.40255" lon="7.26223">
        <ele>1048</ele>
        <time>2020-06-24T08:48:12.148Z</time>
      </trkpt>
      <trkpt lat="48.40253" lon="7.26224">
        <ele>1049</ele>
        <time>2020-06-24T08:48:13.148Z</time>
      </trkpt>
      <trkpt lat="48.40252" lon="7.26225">
        <ele>1049</ele>
        <time>2020-06-24T08:48:14.147Z</time>
      </trkpt>
      <trkpt lat="48.40251" lon="7.26227">
        <ele>1048</ele>
        <time>2020-06-24T08:48:15.148Z</time>
      </trkpt>
      <trkpt lat="48.4025" lon="7.26227">
        <ele>1048</ele>
        <time>2020-06-24T08:48:16.147Z</time>
      </trkpt>
      <trkpt lat="48.40249" lon="7.26228">
        <ele>1048</ele>
        <time>2020-06-24T08:48:17.148Z</time>
      </trkpt>
      <trkpt lat="48.40248" lon="7.26229">
        <ele>1047</ele>
        <time>2020-06-24T08:48:18.148Z</time>
      </trkpt>
      <trkpt lat="48.40247" lon="7.2623">
        <ele>1047</ele>
        <time>2020-06-24T08:48:19.147Z</time>
      </trkpt>
      <trkpt lat="48.40246" lon="7.26231">
        <ele>1047</ele>
        <time>2020-06-24T08:48:20.147Z</time>
      </trkpt>
      <trkpt lat="48.40245" lon="7.26232">
        <ele>1047</ele>
        <time>2020-06-24T08:48:21.148Z</time>
      </trkpt>
      <trkpt lat="48.40244" lon="7.26233">
        <ele>1047</ele>
        <time>2020-06-24T08:48:22.147Z</time>
      </trkpt>
      <trkpt lat="48.40243" lon="7.26234">
        <ele>1048</ele>
        <time>2020-06-24T08:48:23.148Z</time>
      </trkpt>
      <trkpt lat="48.40242" lon="7.26234">
        <ele>1048</ele>
        <time>2020-06-24T08:48:24.147Z</time>
      </trkpt>
      <trkpt lat="48.40241" lon="7.26235">
        <ele>1048</ele>
        <time>2020-06-24T08:48:25.147Z</time>
      </trkpt>
      <trkpt lat="48.40239" lon="7.26235">
        <ele>1048</ele>
        <time>2020-06-24T08:48:26.148Z</time>
      </trkpt>
      <trkpt lat="48.40238" lon="7.26236">
        <ele>1049</ele>
        <time>2020-06-24T08:48:27.148Z</time>
      </trkpt>
      <trkpt lat="48.40237" lon="7.26236">
        <ele>1049</ele>
        <time>2020-06-24T08:48:28.148Z</time>
      </trkpt>
      <trkpt lat="48.40235" lon="7.26237">
        <ele>1049</ele>
        <time>2020-06-24T08:48:29.147Z</time>
      </trkpt>
      <trkpt lat="48.40234" lon="7.26238">
        <ele>1049</ele>
        <time>2020-06-24T08:48:30.147Z</time>
      </trkpt>
      <trkpt lat="48.40233" lon="7.26239">
        <ele>1049</ele>
        <time>2020-06-24T08:48:31.148Z</time>
      </trkpt>
      <trkpt lat="48.40232" lon="7.2624">
        <ele>1049</ele>
        <time>2020-06-24T08:48:32.148Z</time>
      </trkpt>
      <trkpt lat="48.40231" lon="7.26242">
        <ele>1049</ele>
        <time>2020-06-24T08:48:33.148Z</time>
      </trkpt>
      <trkpt lat="48.4023" lon="7.26243">
        <ele>1049</ele>
        <time>2020-06-24T08:48:34.148Z</time>
      </trkpt>
      <trkpt lat="48.40228" lon="7.26244">
        <ele>1050</ele>
        <time>2020-06-24T08:48:35.147Z</time>
      </trkpt>
      <trkpt lat="48.40227" lon="7.26245">
        <ele>1050</ele>
        <time>2020-06-24T08:48:36.148Z</time>
      </trkpt>
      <trkpt lat="48.40225" lon="7.26246">
        <ele>1050</ele>
        <time>2020-06-24T08:48:37.148Z</time>
      </trkpt>
      <trkpt lat="48.40224" lon="7.26247">
        <ele>1050</ele>
        <time>2020-06-24T08:48:38.147Z</time>
      </trkpt>
      <trkpt lat="48.40224" lon="7.26248">
        <ele>1050</ele>
        <time>2020-06-24T08:48:39.147Z</time>
      </trkpt>
      <trkpt lat="48.40222" lon="7.26248">
        <ele>1050</ele>
        <time>2020-06-24T08:48:40.148Z</time>
      </trkpt>
      <trkpt lat="48.40221" lon="7.26249">
        <ele>1050</ele>
        <time>2020-06-24T08:48:41.148Z</time>
      </trkpt>
      <trkpt lat="48.4022" lon="7.2625">
        <ele>1050</ele>
        <time>2020-06-24T08:48:42.148Z</time>
      </trkpt>
      <trkpt lat="48.40219" lon="7.26251">
        <ele>1050</ele>
        <time>2020-06-24T08:48:43.147Z</time>
      </trkpt>
      <trkpt lat="48.40218" lon="7.26252">
        <ele>1050</ele>
        <time>2020-06-24T08:48:44.148Z</time>
      </trkpt>
      <trkpt lat="48.40217" lon="7.26252">
        <ele>1050</ele>
        <time>2020-06-24T08:48:45.148Z</time>
      </trkpt>
      <trkpt lat="48.40217" lon="7.26253">
        <ele>1050</ele>
        <time>2020-06-24T08:48:46.148Z</time>
      </trkpt>
      <trkpt lat="48.40216" lon="7.26254">
        <ele>1050</ele>
        <time>2020-06-24T08:48:47.147Z</time>
      </trkpt>
      <trkpt lat="48.40215" lon="7.26254">
        <ele>1051</ele>
        <time>2020-06-24T08:48:48.148Z</time>
      </trkpt>
      <trkpt lat="48.40215" lon="7.26255">
        <ele>1051</ele>
        <time>2020-06-24T08:48:49.148Z</time>
      </trkpt>
      <trkpt lat="48.40214" lon="7.26256">
        <ele>1052</ele>
        <time>2020-06-24T08:48:50.148Z</time>
      </trkpt>
      <trkpt lat="48.40213" lon="7.26257">
        <ele>1052</ele>
        <time>2020-06-24T08:48:51.148Z</time>
      </trkpt>
      <trkpt lat="48.40212" lon="7.26258">
        <ele>1052</ele>
        <time>2020-06-24T08:48:52.148Z</time>
      </trkpt>
      <trkpt lat="48.40211" lon="7.26258">
        <ele>1053</ele>
        <time>2020-06-24T08:48:53.148Z</time>
      </trkpt>
      <trkpt lat="48.40209" lon="7.26259">
        <ele>1053</ele>
        <time>2020-06-24T08:48:54.148Z</time>
      </trkpt>
      <trkpt lat="48.40208" lon="7.2626">
        <ele>1054</ele>
        <time>2020-06-24T08:48:55.147Z</time>
      </trkpt>
      <trkpt lat="48.40206" lon="7.26261">
        <ele>1054</ele>
        <time>2020-06-24T08:48:56.147Z</time>
      </trkpt>
      <trkpt lat="48.40205" lon="7.26262">
        <ele>1054</ele>
        <time>2020-06-24T08:48:57.148Z</time>
      </trkpt>
      <trkpt lat="48.40204" lon="7.26263">
        <ele>1054</ele>
        <time>2020-06-24T08:48:58.148Z</time>
      </trkpt>
      <trkpt lat="48.40203" lon="7.26264">
        <ele>1054</ele>
        <time>2020-06-24T08:48:59.147Z</time>
      </trkpt>
      <trkpt lat="48.40202" lon="7.26265">
        <ele>1054</ele>
        <time>2020-06-24T08:49:00.148Z</time>
      </trkpt>
      <trkpt lat="48.40201" lon="7.26266">
        <ele>1054</ele>
        <time>2020-06-24T08:49:01.147Z</time>
      </trkpt>
      <trkpt lat="48.402" lon="7.26267">
        <ele>1054</ele>
        <time>2020-06-24T08:49:02.147Z</time>
      </trkpt>
      <trkpt lat="48.40199" lon="7.26268">
        <ele>1054</ele>
        <time>2020-06-24T08:49:03.148Z</time>
      </trkpt>
      <trkpt lat="48.40198" lon="7.2627">
        <ele>1054</ele>
        <time>2020-06-24T08:49:04.147Z</time>
      </trkpt>
      <trkpt lat="48.40197" lon="7.26271">
        <ele>1054</ele>
        <time>2020-06-24T08:49:05.147Z</time>
      </trkpt>
      <trkpt lat="48.40195" lon="7.26272">
        <ele>1055</ele>
        <time>2020-06-24T08:49:06.148Z</time>
      </trkpt>
      <trkpt lat="48.40194" lon="7.26273">
        <ele>1055</ele>
        <time>2020-06-24T08:49:07.148Z</time>
      </trkpt>
      <trkpt lat="48.40193" lon="7.26273">
        <ele>1055</ele>
        <time>2020-06-24T08:49:08.148Z</time>
      </trkpt>
      <trkpt lat="48.40192" lon="7.26275">
        <ele>1055</ele>
        <time>2020-06-24T08:49:09.147Z</time>
      </trkpt>
      <trkpt lat="48.40191" lon="7.26276">
        <ele>1056</ele>
        <time>2020-06-24T08:49:10.148Z</time>
      </trkpt>
      <trkpt lat="48.4019" lon="7.26278">
        <ele>1056</ele>
        <time>2020-06-24T08:49:11.147Z</time>
      </trkpt>
      <trkpt lat="48.40189" lon="7.26278">
        <ele>1056</ele>
        <time>2020-06-24T08:49:12.147Z</time>
      </trkpt>
      <trkpt lat="48.40187" lon="7.2628">
        <ele>1057</ele>
        <time>2020-06-24T08:49:13.148Z</time>
      </trkpt>
      <trkpt lat="48.40186" lon="7.2628">
        <ele>1057</ele>
        <time>2020-06-24T08:49:14.148Z</time>
      </trkpt>
      <trkpt lat="48.40185" lon="7.2628">
        <ele>1057</ele>
        <time>2020-06-24T08:49:15.147Z</time>
      </trkpt>
      <trkpt lat="48.40184" lon="7.26281">
        <ele>1057</ele>
        <time>2020-06-24T08:49:16.148Z</time>
      </trkpt>
      <trkpt lat="48.40182" lon="7.26282">
        <ele>1057</ele>
        <time>2020-06-24T08:49:17.147Z</time>
      </trkpt>
      <trkpt lat="48.40181" lon="7.26283">
        <ele>1057</ele>
        <time>2020-06-24T08:49:18.148Z</time>
      </trkpt>
      <trkpt lat="48.4018" lon="7.26284">
        <ele>1057</ele>
        <time>2020-06-24T08:49:19.147Z</time>
      </trkpt>
      <trkpt lat="48.40179" lon="7.26286">
        <ele>1057</ele>
        <time>2020-06-24T08:49:20.148Z</time>
      </trkpt>
      <trkpt lat="48.40177" lon="7.26287">
        <ele>1057</ele>
        <time>2020-06-24T08:49:21.148Z</time>
      </trkpt>
      <trkpt lat="48.40176" lon="7.26288">
        <ele>1057</ele>
        <time>2020-06-24T08:49:22.147Z</time>
      </trkpt>
      <trkpt lat="48.40175" lon="7.26289">
        <ele>1057</ele>
        <time>2020-06-24T08:49:23.147Z</time>
      </trkpt>
      <trkpt lat="48.40174" lon="7.26291">
        <ele>1057</ele>
        <time>2020-06-24T08:49:24.147Z</time>
      </trkpt>
      <trkpt lat="48.40173" lon="7.26292">
        <ele>1057</ele>
        <time>2020-06-24T08:49:25.148Z</time>
      </trkpt>
      <trkpt lat="48.40172" lon="7.26292">
        <ele>1057</ele>
        <time>2020-06-24T08:49:26.148Z</time>
      </trkpt>
      <trkpt lat="48.40171" lon="7.26293">
        <ele>1058</ele>
        <time>2020-06-24T08:49:27.148Z</time>
      </trkpt>
      <trkpt lat="48.4017" lon="7.26293">
        <ele>1058</ele>
        <time>2020-06-24T08:49:28.148Z</time>
      </trkpt>
      <trkpt lat="48.4017" lon="7.26294">
        <ele>1058</ele>
        <time>2020-06-24T08:49:29.148Z</time>
      </trkpt>
      <trkpt lat="48.40169" lon="7.26295">
        <ele>1059</ele>
        <time>2020-06-24T08:49:30.148Z</time>
      </trkpt>
      <trkpt lat="48.40169" lon="7.26295">
        <ele>1059</ele>
        <time>2020-06-24T08:49:31.147Z</time>
      </trkpt>
      <trkpt lat="48.40168" lon="7.26296">
        <ele>1060</ele>
        <time>2020-06-24T08:49:32.147Z</time>
      </trkpt>
      <trkpt lat="48.40168" lon="7.26296">
        <ele>1061</ele>
        <time>2020-06-24T08:49:33.148Z</time>
      </trkpt>
      <trkpt lat="48.40167" lon="7.26297">
        <ele>1062</ele>
        <time>2020-06-24T08:49:34.148Z</time>
      </trkpt>
      <trkpt lat="48.40166" lon="7.26298">
        <ele>1062</ele>
        <time>2020-06-24T08:49:35.148Z</time>
      </trkpt>
      <trkpt lat="48.40165" lon="7.26299">
        <ele>1063</ele>
        <time>2020-06-24T08:49:36.147Z</time>
      </trkpt>
      <trkpt lat="48.40163" lon="7.263">
        <ele>1063</ele>
        <time>2020-06-24T08:49:37.148Z</time>
      </trkpt>
      <trkpt lat="48.40162" lon="7.26301">
        <ele>1063</ele>
        <time>2020-06-24T08:49:38.148Z</time>
      </trkpt>
      <trkpt lat="48.40161" lon="7.26302">
        <ele>1063</ele>
        <time>2020-06-24T08:49:39.148Z</time>
      </trkpt>
      <trkpt lat="48.4016" lon="7.26303">
        <ele>1063</ele>
        <time>2020-06-24T08:49:40.147Z</time>
      </trkpt>
      <trkpt lat="48.40159" lon="7.26304">
        <ele>1064</ele>
        <time>2020-06-24T08:49:41.147Z</time>
      </trkpt>
      <trkpt lat="48.40158" lon="7.26304">
        <ele>1064</ele>
        <time>2020-06-24T08:49:42.148Z</time>
      </trkpt>
      <trkpt lat="48.40157" lon="7.26305">
        <ele>1064</ele>
        <time>2020-06-24T08:49:43.148Z</time>
      </trkpt>
      <trkpt lat="48.40156" lon="7.26305">
        <ele>1064</ele>
        <time>2020-06-24T08:49:44.148Z</time>
      </trkpt>
      <trkpt lat="48.40154" lon="7.26307">
        <ele>1064</ele>
        <time>2020-06-24T08:49:45.148Z</time>
      </trkpt>
      <trkpt lat="48.40153" lon="7.26308">
        <ele>1065</ele>
        <time>2020-06-24T08:49:46.148Z</time>
      </trkpt>
      <trkpt lat="48.40151" lon="7.26308">
        <ele>1065</ele>
        <time>2020-06-24T08:49:47.148Z</time>
      </trkpt>
      <trkpt lat="48.4015" lon="7.26309">
        <ele>1065</ele>
        <time>2020-06-24T08:49:48.147Z</time>
      </trkpt>
      <trkpt lat="48.40149" lon="7.2631">
        <ele>1065</ele>
        <time>2020-06-24T08:49:49.147Z</time>
      </trkpt>
      <trkpt lat="48.40148" lon="7.26311">
        <ele>1064</ele>
        <time>2020-06-24T08:49:50.148Z</time>
      </trkpt>
      <trkpt lat="48.40147" lon="7.26312">
        <ele>1064</ele>
        <time>2020-06-24T08:49:51.148Z</time>
      </trkpt>
      <trkpt lat="48.40145" lon="7.26313">
        <ele>1064</ele>
        <time>2020-06-24T08:49:52.148Z</time>
      </trkpt>
      <trkpt lat="48.40144" lon="7.26314">
        <ele>1064</ele>
        <time>2020-06-24T08:49:53.148Z</time>
      </trkpt>
      <trkpt lat="48.40143" lon="7.26316">
        <ele>1064</ele>
        <time>2020-06-24T08:49:54.148Z</time>
      </trkpt>
      <trkpt lat="48.40142" lon="7.26317">
        <ele>1065</ele>
        <time>2020-06-24T08:49:55.148Z</time>
      </trkpt>
      <trkpt lat="48.4014" lon="7.26318">
        <ele>1065</ele>
        <time>2020-06-24T08:49:56.148Z</time>
      </trkpt>
      <trkpt lat="48.40139" lon="7.26319">
        <ele>1065</ele>
        <time>2020-06-24T08:49:57.148Z</time>
      </trkpt>
      <trkpt lat="48.40138" lon="7.2632">
        <ele>1065</ele>
        <time>2020-06-24T08:49:58.147Z</time>
      </trkpt>
      <trkpt lat="48.40136" lon="7.26321">
        <ele>1065</ele>
        <time>2020-06-24T08:49:59.148Z</time>
      </trkpt>
      <trkpt lat="48.40135" lon="7.26322">
        <ele>1065</ele>
        <time>2020-06-24T08:50:00.148Z</time>
      </trkpt>
      <trkpt lat="48.40134" lon="7.26323">
        <ele>1065</ele>
        <time>2020-06-24T08:50:01.148Z</time>
      </trkpt>
      <trkpt lat="48.40133" lon="7.26324">
        <ele>1065</ele>
        <time>2020-06-24T08:50:02.148Z</time>
      </trkpt>
      <trkpt lat="48.40132" lon="7.26326">
        <ele>1066</ele>
        <time>2020-06-24T08:50:03.148Z</time>
      </trkpt>
      <trkpt lat="48.40131" lon="7.26326">
        <ele>1066</ele>
        <time>2020-06-24T08:50:04.148Z</time>
      </trkpt>
      <trkpt lat="48.4013" lon="7.26327">
        <ele>1066</ele>
        <time>2020-06-24T08:50:05.147Z</time>
      </trkpt>
      <trkpt lat="48.40129" lon="7.26328">
        <ele>1066</ele>
        <time>2020-06-24T08:50:06.148Z</time>
      </trkpt>
      <trkpt lat="48.40128" lon="7.26329">
        <ele>1065</ele>
        <time>2020-06-24T08:50:07.148Z</time>
      </trkpt>
      <trkpt lat="48.40127" lon="7.2633">
        <ele>1065</ele>
        <time>2020-06-24T08:50:08.148Z</time>
      </trkpt>
      <trkpt lat="48.40127" lon="7.26331">
        <ele>1065</ele>
        <time>2020-06-24T08:50:09.148Z</time>
      </trkpt>
      <trkpt lat="48.40126" lon="7.26331">
        <ele>1064</ele>
        <time>2020-06-24T08:50:10.148Z</time>
      </trkpt>
      <trkpt lat="48.40126" lon="7.26332">
        <ele>1064</ele>
        <time>2020-06-24T08:50:11.147Z</time>
      </trkpt>
      <trkpt lat="48.40126" lon="7.26332">
        <ele>1064</ele>
        <time>2020-06-24T08:50:12.148Z</time>
      </trkpt>
      <trkpt lat="48.40126" lon="7.26331">
        <ele>1064</ele>
        <time>2020-06-24T08:50:13.148Z</time>
      </trkpt>
      <trkpt lat="48.40125" lon="7.26331">
        <ele>1064</ele>
        <time>2020-06-24T08:50:14.147Z</time>
      </trkpt>
      <trkpt lat="48.40125" lon="7.2633">
        <ele>1064</ele>
        <time>2020-06-24T08:50:15.148Z</time>
      </trkpt>
      <trkpt lat="48.40125" lon="7.2633">
        <ele>1064</ele>
        <time>2020-06-24T08:50:16.148Z</time>
      </trkpt>
      <trkpt lat="48.40123" lon="7.26331">
        <ele>1070</ele>
        <time>2020-06-24T08:50:17.149Z</time>
      </trkpt>
      <trkpt lat="48.40121" lon="7.26333">
        <ele>1070</ele>
        <time>2020-06-24T08:50:18.149Z</time>
      </trkpt>
      <trkpt lat="48.4012" lon="7.26334">
        <ele>1070</ele>
        <time>2020-06-24T08:50:19.148Z</time>
      </trkpt>
      <trkpt lat="48.40119" lon="7.26336">
        <ele>1070</ele>
        <time>2020-06-24T08:50:20.149Z</time>
      </trkpt>
      <trkpt lat="48.40117" lon="7.26338">
        <ele>1070</ele>
        <time>2020-06-24T08:50:21.149Z</time>
      </trkpt>
      <trkpt lat="48.40116" lon="7.26339">
        <ele>1070</ele>
        <time>2020-06-24T08:50:22.149Z</time>
      </trkpt>
      <trkpt lat="48.40114" lon="7.2634">
        <ele>1071</ele>
        <time>2020-06-24T08:50:23.149Z</time>
      </trkpt>
      <trkpt lat="48.40113" lon="7.26341">
        <ele>1071</ele>
        <time>2020-06-24T08:50:24.149Z</time>
      </trkpt>
      <trkpt lat="48.40112" lon="7.26342">
        <ele>1070</ele>
        <time>2020-06-24T08:50:25.149Z</time>
      </trkpt>
      <trkpt lat="48.4011" lon="7.26343">
        <ele>1070</ele>
        <time>2020-06-24T08:50:26.149Z</time>
      </trkpt>
      <trkpt lat="48.40109" lon="7.26344">
        <ele>1070</ele>
        <time>2020-06-24T08:50:27.149Z</time>
      </trkpt>
      <trkpt lat="48.40108" lon="7.26345">
        <ele>1070</ele>
        <time>2020-06-24T08:50:28.149Z</time>
      </trkpt>
      <trkpt lat="48.40107" lon="7.26346">
        <ele>1070</ele>
        <time>2020-06-24T08:50:29.149Z</time>
      </trkpt>
      <trkpt lat="48.40106" lon="7.26348">
        <ele>1070</ele>
        <time>2020-06-24T08:50:30.149Z</time>
      </trkpt>
      <trkpt lat="48.40104" lon="7.26349">
        <ele>1070</ele>
        <time>2020-06-24T08:50:31.149Z</time>
      </trkpt>
      <trkpt lat="48.40103" lon="7.2635">
        <ele>1070</ele>
        <time>2020-06-24T08:50:32.148Z</time>
      </trkpt>
      <trkpt lat="48.40103" lon="7.26351">
        <ele>1070</ele>
        <time>2020-06-24T08:50:33.149Z</time>
      </trkpt>
      <trkpt lat="48.40101" lon="7.26351">
        <ele>1070</ele>
        <time>2020-06-24T08:50:34.149Z</time>
      </trkpt>
      <trkpt lat="48.401" lon="7.26352">
        <ele>1070</ele>
        <time>2020-06-24T08:50:35.149Z</time>
      </trkpt>
      <trkpt lat="48.40099" lon="7.26354">
        <ele>1070</ele>
        <time>2020-06-24T08:50:36.149Z</time>
      </trkpt>
      <trkpt lat="48.40098" lon="7.26355">
        <ele>1070</ele>
        <time>2020-06-24T08:50:37.149Z</time>
      </trkpt>
      <trkpt lat="48.40096" lon="7.26356">
        <ele>1070</ele>
        <time>2020-06-24T08:50:38.149Z</time>
      </trkpt>
      <trkpt lat="48.40095" lon="7.26357">
        <ele>1070</ele>
        <time>2020-06-24T08:50:39.149Z</time>
      </trkpt>
      <trkpt lat="48.40094" lon="7.26358">
        <ele>1069</ele>
        <time>2020-06-24T08:50:40.148Z</time>
      </trkpt>
      <trkpt lat="48.40093" lon="7.26359">
        <ele>1069</ele>
        <time>2020-06-24T08:50:41.149Z</time>
      </trkpt>
      <trkpt lat="48.40091" lon="7.2636">
        <ele>1069</ele>
        <time>2020-06-24T08:50:42.149Z</time>
      </trkpt>
      <trkpt lat="48.4009" lon="7.26362">
        <ele>1069</ele>
        <time>2020-06-24T08:50:43.149Z</time>
      </trkpt>
      <trkpt lat="48.40089" lon="7.26363">
        <ele>1069</ele>
        <time>2020-06-24T08:50:44.149Z</time>
      </trkpt>
      <trkpt lat="48.40087" lon="7.26364">
        <ele>1069</ele>
        <time>2020-06-24T08:50:45.149Z</time>
      </trkpt>
      <trkpt lat="48.40086" lon="7.26366">
        <ele>1068</ele>
        <time>2020-06-24T08:50:46.149Z</time>
      </trkpt>
      <trkpt lat="48.40085" lon="7.26367">
        <ele>1068</ele>
        <time>2020-06-24T08:50:47.149Z</time>
      </trkpt>
      <trkpt lat="48.40084" lon="7.26368">
        <ele>1068</ele>
        <time>2020-06-24T08:50:48.149Z</time>
      </trkpt>
      <trkpt lat="48.40082" lon="7.26369">
        <ele>1068</ele>
        <time>2020-06-24T08:50:49.149Z</time>
      </trkpt>
      <trkpt lat="48.40081" lon="7.2637">
        <ele>1068</ele>
        <time>2020-06-24T08:50:50.149Z</time>
      </trkpt>
      <trkpt lat="48.4008" lon="7.26371">
        <ele>1068</ele>
        <time>2020-06-24T08:50:51.148Z</time>
      </trkpt>
      <trkpt lat="48.40078" lon="7.26372">
        <ele>1068</ele>
        <time>2020-06-24T08:50:52.148Z</time>
      </trkpt>
      <trkpt lat="48.40077" lon="7.26373">
        <ele>1068</ele>
        <time>2020-06-24T08:50:53.149Z</time>
      </trkpt>
      <trkpt lat="48.40075" lon="7.26374">
        <ele>1068</ele>
        <time>2020-06-24T08:50:54.149Z</time>
      </trkpt>
      <trkpt lat="48.40074" lon="7.26375">
        <ele>1067</ele>
        <time>2020-06-24T08:50:55.148Z</time>
      </trkpt>
      <trkpt lat="48.40073" lon="7.26376">
        <ele>1068</ele>
        <time>2020-06-24T08:50:56.149Z</time>
      </trkpt>
      <trkpt lat="48.40071" lon="7.26378">
        <ele>1068</ele>
        <time>2020-06-24T08:50:57.149Z</time>
      </trkpt>
      <trkpt lat="48.4007" lon="7.26379">
        <ele>1068</ele>
        <time>2020-06-24T08:50:58.149Z</time>
      </trkpt>
      <trkpt lat="48.40068" lon="7.2638">
        <ele>1068</ele>
        <time>2020-06-24T08:50:59.149Z</time>
      </trkpt>
      <trkpt lat="48.40067" lon="7.2638">
        <ele>1068</ele>
        <time>2020-06-24T08:51:00.149Z</time>
      </trkpt>
      <trkpt lat="48.40066" lon="7.26381">
        <ele>1068</ele>
        <time>2020-06-24T08:51:01.149Z</time>
      </trkpt>
      <trkpt lat="48.40064" lon="7.26382">
        <ele>1067</ele>
        <time>2020-06-24T08:51:02.148Z</time>
      </trkpt>
      <trkpt lat="48.40063" lon="7.26383">
        <ele>1067</ele>
        <time>2020-06-24T08:51:03.148Z</time>
      </trkpt>
      <trkpt lat="48.40062" lon="7.26384">
        <ele>1067</ele>
        <time>2020-06-24T08:51:04.149Z</time>
      </trkpt>
      <trkpt lat="48.4006" lon="7.26385">
        <ele>1066</ele>
        <time>2020-06-24T08:51:05.149Z</time>
      </trkpt>
      <trkpt lat="48.40059" lon="7.26386">
        <ele>1066</ele>
        <time>2020-06-24T08:51:06.149Z</time>
      </trkpt>
      <trkpt lat="48.40058" lon="7.26386">
        <ele>1066</ele>
        <time>2020-06-24T08:51:07.149Z</time>
      </trkpt>
      <trkpt lat="48.40056" lon="7.26387">
        <ele>1066</ele>
        <time>2020-06-24T08:51:08.149Z</time>
      </trkpt>
      <trkpt lat="48.40055" lon="7.26388">
        <ele>1066</ele>
        <time>2020-06-24T08:51:09.149Z</time>
      </trkpt>
      <trkpt lat="48.40054" lon="7.26389">
        <ele>1066</ele>
        <time>2020-06-24T08:51:10.149Z</time>
      </trkpt>
      <trkpt lat="48.40052" lon="7.2639">
        <ele>1067</ele>
        <time>2020-06-24T08:51:11.149Z</time>
      </trkpt>
      <trkpt lat="48.40051" lon="7.26391">
        <ele>1068</ele>
        <time>2020-06-24T08:51:12.149Z</time>
      </trkpt>
      <trkpt lat="48.4005" lon="7.26392">
        <ele>1068</ele>
        <time>2020-06-24T08:51:13.149Z</time>
      </trkpt>
      <trkpt lat="48.40048" lon="7.26393">
        <ele>1068</ele>
        <time>2020-06-24T08:51:14.149Z</time>
      </trkpt>
      <trkpt lat="48.40047" lon="7.26395">
        <ele>1068</ele>
        <time>2020-06-24T08:51:15.149Z</time>
      </trkpt>
      <trkpt lat="48.40046" lon="7.26396">
        <ele>1069</ele>
        <time>2020-06-24T08:51:16.149Z</time>
      </trkpt>
      <trkpt lat="48.40044" lon="7.26397">
        <ele>1069</ele>
        <time>2020-06-24T08:51:17.149Z</time>
      </trkpt>
      <trkpt lat="48.40043" lon="7.26398">
        <ele>1069</ele>
        <time>2020-06-24T08:51:18.149Z</time>
      </trkpt>
      <trkpt lat="48.40042" lon="7.26399">
        <ele>1069</ele>
        <time>2020-06-24T08:51:19.149Z</time>
      </trkpt>
      <trkpt lat="48.4004" lon="7.26401">
        <ele>1069</ele>
        <time>2020-06-24T08:51:20.148Z</time>
      </trkpt>
      <trkpt lat="48.40039" lon="7.26402">
        <ele>1070</ele>
        <time>2020-06-24T08:51:21.148Z</time>
      </trkpt>
      <trkpt lat="48.40038" lon="7.26403">
        <ele>1070</ele>
        <time>2020-06-24T08:51:22.149Z</time>
      </trkpt>
      <trkpt lat="48.40037" lon="7.26404">
        <ele>1071</ele>
        <time>2020-06-24T08:51:23.149Z</time>
      </trkpt>
      <trkpt lat="48.40035" lon="7.26406">
        <ele>1071</ele>
        <time>2020-06-24T08:51:24.149Z</time>
      </trkpt>
      <trkpt lat="48.40034" lon="7.26407">
        <ele>1072</ele>
        <time>2020-06-24T08:51:25.149Z</time>
      </trkpt>
      <trkpt lat="48.40032" lon="7.26408">
        <ele>1072</ele>
        <time>2020-06-24T08:51:26.149Z</time>
      </trkpt>
      <trkpt lat="48.40031" lon="7.26408">
        <ele>1072</ele>
        <time>2020-06-24T08:51:27.148Z</time>
      </trkpt>
      <trkpt lat="48.4003" lon="7.26409">
        <ele>1072</ele>
        <time>2020-06-24T08:51:28.149Z</time>
      </trkpt>
      <trkpt lat="48.40029" lon="7.2641">
        <ele>1073</ele>
        <time>2020-06-24T08:51:29.148Z</time>
      </trkpt>
      <trkpt lat="48.40028" lon="7.26411">
        <ele>1073</ele>
        <time>2020-06-24T08:51:30.148Z</time>
      </trkpt>
      <trkpt lat="48.40026" lon="7.26412">
        <ele>1073</ele>
        <time>2020-06-24T08:51:31.148Z</time>
      </trkpt>
      <trkpt lat="48.40025" lon="7.26413">
        <ele>1073</ele>
        <time>2020-06-24T08:51:32.149Z</time>
      </trkpt>
      <trkpt lat="48.40024" lon="7.26414">
        <ele>1074</ele>
        <time>2020-06-24T08:51:33.149Z</time>
      </trkpt>
      <trkpt lat="48.40023" lon="7.26416">
        <ele>1074</ele>
        <time>2020-06-24T08:51:34.148Z</time>
      </trkpt>
      <trkpt lat="48.40021" lon="7.26417">
        <ele>1075</ele>
        <time>2020-06-24T08:51:35.148Z</time>
      </trkpt>
      <trkpt lat="48.4002" lon="7.26418">
        <ele>1075</ele>
        <time>2020-06-24T08:51:36.149Z</time>
      </trkpt>
      <trkpt lat="48.40019" lon="7.26419">
        <ele>1075</ele>
        <time>2020-06-24T08:51:37.149Z</time>
      </trkpt>
      <trkpt lat="48.40018" lon="7.26421">
        <ele>1075</ele>
        <time>2020-06-24T08:51:38.149Z</time>
      </trkpt>
      <trkpt lat="48.40016" lon="7.26422">
        <ele>1075</ele>
        <time>2020-06-24T08:51:39.149Z</time>
      </trkpt>
      <trkpt lat="48.40015" lon="7.26423">
        <ele>1076</ele>
        <time>2020-06-24T08:51:40.149Z</time>
      </trkpt>
      <trkpt lat="48.40014" lon="7.26424">
        <ele>1076</ele>
        <time>2020-06-24T08:51:41.149Z</time>
      </trkpt>
      <trkpt lat="48.40013" lon="7.26425">
        <ele>1076</ele>
        <time>2020-06-24T08:51:42.149Z</time>
      </trkpt>
      <trkpt lat="48.40011" lon="7.26426">
        <ele>1077</ele>
        <time>2020-06-24T08:51:43.148Z</time>
      </trkpt>
      <trkpt lat="48.4001" lon="7.26427">
        <ele>1077</ele>
        <time>2020-06-24T08:51:44.149Z</time>
      </trkpt>
      <trkpt lat="48.40009" lon="7.26428">
        <ele>1077</ele>
        <time>2020-06-24T08:51:45.149Z</time>
      </trkpt>
      <trkpt lat="48.40008" lon="7.26429">
        <ele>1077</ele>
        <time>2020-06-24T08:51:46.148Z</time>
      </trkpt>
      <trkpt lat="48.40006" lon="7.26431">
        <ele>1077</ele>
        <time>2020-06-24T08:51:47.149Z</time>
      </trkpt>
      <trkpt lat="48.40005" lon="7.26432">
        <ele>1077</ele>
        <time>2020-06-24T08:51:48.148Z</time>
      </trkpt>
      <trkpt lat="48.40004" lon="7.26433">
        <ele>1077</ele>
        <time>2020-06-24T08:51:49.149Z</time>
      </trkpt>
      <trkpt lat="48.40003" lon="7.26434">
        <ele>1077</ele>
        <time>2020-06-24T08:51:50.149Z</time>
      </trkpt>
      <trkpt lat="48.40002" lon="7.26435">
        <ele>1077</ele>
        <time>2020-06-24T08:51:51.149Z</time>
      </trkpt>
      <trkpt lat="48.40001" lon="7.26437">
        <ele>1077</ele>
        <time>2020-06-24T08:51:52.149Z</time>
      </trkpt>
      <trkpt lat="48.4" lon="7.26438">
        <ele>1077</ele>
        <time>2020-06-24T08:51:53.148Z</time>
      </trkpt>
      <trkpt lat="48.39998" lon="7.26439">
        <ele>1076</ele>
        <time>2020-06-24T08:51:54.149Z</time>
      </trkpt>
      <trkpt lat="48.39997" lon="7.2644">
        <ele>1076</ele>
        <time>2020-06-24T08:51:55.148Z</time>
      </trkpt>
      <trkpt lat="48.39996" lon="7.26442">
        <ele>1076</ele>
        <time>2020-06-24T08:51:56.148Z</time>
      </trkpt>
      <trkpt lat="48.39995" lon="7.26443">
        <ele>1076</ele>
        <time>2020-06-24T08:51:57.149Z</time>
      </trkpt>
      <trkpt lat="48.39994" lon="7.26444">
        <ele>1076</ele>
        <time>2020-06-24T08:51:58.149Z</time>
      </trkpt>
      <trkpt lat="48.39993" lon="7.26445">
        <ele>1077</ele>
        <time>2020-06-24T08:51:59.149Z</time>
      </trkpt>
      <trkpt lat="48.39992" lon="7.26446">
        <ele>1077</ele>
        <time>2020-06-24T08:52:00.149Z</time>
      </trkpt>
      <trkpt lat="48.39991" lon="7.26448">
        <ele>1077</ele>
        <time>2020-06-24T08:52:01.149Z</time>
      </trkpt>
      <trkpt lat="48.3999" lon="7.26449">
        <ele>1076</ele>
        <time>2020-06-24T08:52:02.148Z</time>
      </trkpt>
      <trkpt lat="48.39988" lon="7.26451">
        <ele>1076</ele>
        <time>2020-06-24T08:52:03.149Z</time>
      </trkpt>
      <trkpt lat="48.39987" lon="7.26452">
        <ele>1076</ele>
        <time>2020-06-24T08:52:04.149Z</time>
      </trkpt>
      <trkpt lat="48.39986" lon="7.26453">
        <ele>1076</ele>
        <time>2020-06-24T08:52:05.149Z</time>
      </trkpt>
      <trkpt lat="48.39985" lon="7.26454">
        <ele>1076</ele>
        <time>2020-06-24T08:52:06.149Z</time>
      </trkpt>
      <trkpt lat="48.39984" lon="7.26456">
        <ele>1076</ele>
        <time>2020-06-24T08:52:07.149Z</time>
      </trkpt>
      <trkpt lat="48.39982" lon="7.26457">
        <ele>1076</ele>
        <time>2020-06-24T08:52:08.149Z</time>
      </trkpt>
      <trkpt lat="48.39981" lon="7.26458">
        <ele>1076</ele>
        <time>2020-06-24T08:52:09.149Z</time>
      </trkpt>
      <trkpt lat="48.3998" lon="7.2646">
        <ele>1076</ele>
        <time>2020-06-24T08:52:10.149Z</time>
      </trkpt>
      <trkpt lat="48.39979" lon="7.26461">
        <ele>1076</ele>
        <time>2020-06-24T08:52:11.148Z</time>
      </trkpt>
      <trkpt lat="48.39978" lon="7.26462">
        <ele>1076</ele>
        <time>2020-06-24T08:52:12.149Z</time>
      </trkpt>
      <trkpt lat="48.39976" lon="7.26463">
        <ele>1076</ele>
        <time>2020-06-24T08:52:13.149Z</time>
      </trkpt>
      <trkpt lat="48.39976" lon="7.26463">
        <ele>1076</ele>
        <time>2020-06-24T08:52:14.148Z</time>
      </trkpt>
      <trkpt lat="48.39974" lon="7.26464">
        <ele>1075</ele>
        <time>2020-06-24T08:52:15.149Z</time>
      </trkpt>
      <trkpt lat="48.39973" lon="7.26464">
        <ele>1075</ele>
        <time>2020-06-24T08:52:16.149Z</time>
      </trkpt>
      <trkpt lat="48.39972" lon="7.26464">
        <ele>1075</ele>
        <time>2020-06-24T08:52:17.149Z</time>
      </trkpt>
      <trkpt lat="48.39971" lon="7.26465">
        <ele>1075</ele>
        <time>2020-06-24T08:52:18.149Z</time>
      </trkpt>
      <trkpt lat="48.3997" lon="7.26465">
        <ele>1075</ele>
        <time>2020-06-24T08:52:19.149Z</time>
      </trkpt>
      <trkpt lat="48.39969" lon="7.26466">
        <ele>1075</ele>
        <time>2020-06-24T08:52:20.149Z</time>
      </trkpt>
      <trkpt lat="48.39968" lon="7.26466">
        <ele>1075</ele>
        <time>2020-06-24T08:52:21.149Z</time>
      </trkpt>
      <trkpt lat="48.39966" lon="7.26467">
        <ele>1075</ele>
        <time>2020-06-24T08:52:22.149Z</time>
      </trkpt>
      <trkpt lat="48.39966" lon="7.26467">
        <ele>1075</ele>
        <time>2020-06-24T08:52:23.149Z</time>
      </trkpt>
      <trkpt lat="48.39965" lon="7.26467">
        <ele>1075</ele>
        <time>2020-06-24T08:52:24.149Z</time>
      </trkpt>
      <trkpt lat="48.39965" lon="7.26468">
        <ele>1076</ele>
        <time>2020-06-24T08:52:25.149Z</time>
      </trkpt>
      <trkpt lat="48.39964" lon="7.26467">
        <ele>1076</ele>
        <time>2020-06-24T08:52:26.148Z</time>
      </trkpt>
      <trkpt lat="48.39965" lon="7.26469">
        <ele>1077</ele>
        <time>2020-06-24T08:52:27.149Z</time>
      </trkpt>
      <trkpt lat="48.39961" lon="7.26471">
        <ele>1081</ele>
        <time>2020-06-24T08:52:28.149Z</time>
      </trkpt>
      <trkpt lat="48.3996" lon="7.26472">
        <ele>1081</ele>
        <time>2020-06-24T08:52:29.149Z</time>
      </trkpt>
      <trkpt lat="48.39958" lon="7.26473">
        <ele>1081</ele>
        <time>2020-06-24T08:52:30.148Z</time>
      </trkpt>
      <trkpt lat="48.39956" lon="7.26475">
        <ele>1081</ele>
        <time>2020-06-24T08:52:31.149Z</time>
      </trkpt>
      <trkpt lat="48.39955" lon="7.26476">
        <ele>1082</ele>
        <time>2020-06-24T08:52:32.148Z</time>
      </trkpt>
      <trkpt lat="48.39953" lon="7.26477">
        <ele>1082</ele>
        <time>2020-06-24T08:52:33.148Z</time>
      </trkpt>
      <trkpt lat="48.39951" lon="7.26478">
        <ele>1082</ele>
        <time>2020-06-24T08:52:34.149Z</time>
      </trkpt>
      <trkpt lat="48.39949" lon="7.26479">
        <ele>1083</ele>
        <time>2020-06-24T08:52:35.149Z</time>
      </trkpt>
      <trkpt lat="48.39948" lon="7.2648">
        <ele>1083</ele>
        <time>2020-06-24T08:52:36.148Z</time>
      </trkpt>
      <trkpt lat="48.39947" lon="7.26481">
        <ele>1083</ele>
        <time>2020-06-24T08:52:37.148Z</time>
      </trkpt>
      <trkpt lat="48.39946" lon="7.26482">
        <ele>1082</ele>
        <time>2020-06-24T08:52:38.149Z</time>
      </trkpt>
      <trkpt lat="48.39945" lon="7.26483">
        <ele>1082</ele>
        <time>2020-06-24T08:52:39.148Z</time>
      </trkpt>
      <trkpt lat="48.39944" lon="7.26484">
        <ele>1082</ele>
        <time>2020-06-24T08:52:40.149Z</time>
      </trkpt>
      <trkpt lat="48.39942" lon="7.26485">
        <ele>1082</ele>
        <time>2020-06-24T08:52:41.149Z</time>
      </trkpt>
      <trkpt lat="48.39941" lon="7.26486">
        <ele>1082</ele>
        <time>2020-06-24T08:52:42.148Z</time>
      </trkpt>
      <trkpt lat="48.39939" lon="7.26487">
        <ele>1082</ele>
        <time>2020-06-24T08:52:43.148Z</time>
      </trkpt>
      <trkpt lat="48.39938" lon="7.26488">
        <ele>1083</ele>
        <time>2020-06-24T08:52:44.148Z</time>
      </trkpt>
      <trkpt lat="48.39936" lon="7.26489">
        <ele>1083</ele>
        <time>2020-06-24T08:52:45.149Z</time>
      </trkpt>
      <trkpt lat="48.39935" lon="7.26489">
        <ele>1083</ele>
        <time>2020-06-24T08:52:46.148Z</time>
      </trkpt>
      <trkpt lat="48.39933" lon="7.2649">
        <ele>1083</ele>
        <time>2020-06-24T08:52:47.149Z</time>
      </trkpt>
      <trkpt lat="48.39932" lon="7.2649">
        <ele>1083</ele>
        <time>2020-06-24T08:52:48.149Z</time>
      </trkpt>
      <trkpt lat="48.3993" lon="7.26491">
        <ele>1083</ele>
        <time>2020-06-24T08:52:49.149Z</time>
      </trkpt>
      <trkpt lat="48.39929" lon="7.26492">
        <ele>1083</ele>
        <time>2020-06-24T08:52:50.149Z</time>
      </trkpt>
      <trkpt lat="48.39928" lon="7.26493">
        <ele>1083</ele>
        <time>2020-06-24T08:52:51.149Z</time>
      </trkpt>
      <trkpt lat="48.39926" lon="7.26493">
        <ele>1083</ele>
        <time>2020-06-24T08:52:52.149Z</time>
      </trkpt>
      <trkpt lat="48.39925" lon="7.26494">
        <ele>1082</ele>
        <time>2020-06-24T08:52:53.149Z</time>
      </trkpt>
      <trkpt lat="48.39924" lon="7.26494">
        <ele>1082</ele>
        <time>2020-06-24T08:52:54.148Z</time>
      </trkpt>
      <trkpt lat="48.39922" lon="7.26495">
        <ele>1082</ele>
        <time>2020-06-24T08:52:55.149Z</time>
      </trkpt>
      <trkpt lat="48.39921" lon="7.26496">
        <ele>1081</ele>
        <time>2020-06-24T08:52:56.149Z</time>
      </trkpt>
      <trkpt lat="48.39919" lon="7.26497">
        <ele>1081</ele>
        <time>2020-06-24T08:52:57.148Z</time>
      </trkpt>
      <trkpt lat="48.39918" lon="7.26498">
        <ele>1081</ele>
        <time>2020-06-24T08:52:58.149Z</time>
      </trkpt>
      <trkpt lat="48.39917" lon="7.26499">
        <ele>1081</ele>
        <time>2020-06-24T08:52:59.149Z</time>
      </trkpt>
      <trkpt lat="48.39915" lon="7.265">
        <ele>1080</ele>
        <time>2020-06-24T08:53:00.148Z</time>
      </trkpt>
      <trkpt lat="48.39914" lon="7.26501">
        <ele>1080</ele>
        <time>2020-06-24T08:53:01.148Z</time>
      </trkpt>
      <trkpt lat="48.39913" lon="7.26503">
        <ele>1080</ele>
        <time>2020-06-24T08:53:02.149Z</time>
      </trkpt>
      <trkpt lat="48.39911" lon="7.26504">
        <ele>1080</ele>
        <time>2020-06-24T08:53:03.149Z</time>
      </trkpt>
      <trkpt lat="48.3991" lon="7.26505">
        <ele>1080</ele>
        <time>2020-06-24T08:53:04.149Z</time>
      </trkpt>
      <trkpt lat="48.39908" lon="7.26506">
        <ele>1081</ele>
        <time>2020-06-24T08:53:05.148Z</time>
      </trkpt>
      <trkpt lat="48.39907" lon="7.26507">
        <ele>1081</ele>
        <time>2020-06-24T08:53:06.149Z</time>
      </trkpt>
      <trkpt lat="48.39906" lon="7.26509">
        <ele>1081</ele>
        <time>2020-06-24T08:53:07.148Z</time>
      </trkpt>
      <trkpt lat="48.39905" lon="7.2651">
        <ele>1081</ele>
        <time>2020-06-24T08:53:08.149Z</time>
      </trkpt>
      <trkpt lat="48.39903" lon="7.26512">
        <ele>1081</ele>
        <time>2020-06-24T08:53:09.149Z</time>
      </trkpt>
      <trkpt lat="48.39902" lon="7.26513">
        <ele>1081</ele>
        <time>2020-06-24T08:53:10.149Z</time>
      </trkpt>
      <trkpt lat="48.39901" lon="7.26515">
        <ele>1082</ele>
        <time>2020-06-24T08:53:11.148Z</time>
      </trkpt>
      <trkpt lat="48.399" lon="7.26516">
        <ele>1082</ele>
        <time>2020-06-24T08:53:12.148Z</time>
      </trkpt>
      <trkpt lat="48.39898" lon="7.26517">
        <ele>1082</ele>
        <time>2020-06-24T08:53:13.149Z</time>
      </trkpt>
      <trkpt lat="48.39897" lon="7.26518">
        <ele>1082</ele>
        <time>2020-06-24T08:53:14.149Z</time>
      </trkpt>
      <trkpt lat="48.39896" lon="7.26519">
        <ele>1082</ele>
        <time>2020-06-24T08:53:15.149Z</time>
      </trkpt>
      <trkpt lat="48.39894" lon="7.2652">
        <ele>1082</ele>
        <time>2020-06-24T08:53:16.149Z</time>
      </trkpt>
      <trkpt lat="48.39893" lon="7.26521">
        <ele>1082</ele>
        <time>2020-06-24T08:53:17.148Z</time>
      </trkpt>
      <trkpt lat="48.39891" lon="7.26522">
        <ele>1082</ele>
        <time>2020-06-24T08:53:18.148Z</time>
      </trkpt>
      <trkpt lat="48.3989" lon="7.26523">
        <ele>1082</ele>
        <time>2020-06-24T08:53:19.149Z</time>
      </trkpt>
      <trkpt lat="48.39889" lon="7.26525">
        <ele>1082</ele>
        <time>2020-06-24T08:53:20.149Z</time>
      </trkpt>
      <trkpt lat="48.39887" lon="7.26526">
        <ele>1082</ele>
        <time>2020-06-24T08:53:21.149Z</time>
      </trkpt>
      <trkpt lat="48.39886" lon="7.26527">
        <ele>1082</ele>
        <time>2020-06-24T08:53:22.148Z</time>
      </trkpt>
      <trkpt lat="48.39884" lon="7.26529">
        <ele>1082</ele>
        <time>2020-06-24T08:53:23.148Z</time>
      </trkpt>
      <trkpt lat="48.39883" lon="7.2653">
        <ele>1082</ele>
        <time>2020-06-24T08:53:24.149Z</time>
      </trkpt>
      <trkpt lat="48.39882" lon="7.26532">
        <ele>1082</ele>
        <time>2020-06-24T08:53:25.149Z</time>
      </trkpt>
      <trkpt lat="48.39881" lon="7.26533">
        <ele>1082</ele>
        <time>2020-06-24T08:53:26.149Z</time>
      </trkpt>
      <trkpt lat="48.39879" lon="7.26535">
        <ele>1082</ele>
        <time>2020-06-24T08:53:27.148Z</time>
      </trkpt>
      <trkpt lat="48.39878" lon="7.26536">
        <ele>1082</ele>
        <time>2020-06-24T08:53:28.148Z</time>
      </trkpt>
      <trkpt lat="48.39877" lon="7.26537">
        <ele>1082</ele>
        <time>2020-06-24T08:53:29.149Z</time>
      </trkpt>
      <trkpt lat="48.39875" lon="7.26538">
        <ele>1082</ele>
        <time>2020-06-24T08:53:30.149Z</time>
      </trkpt>
      <trkpt lat="48.39874" lon="7.2654">
        <ele>1082</ele>
        <time>2020-06-24T08:53:31.148Z</time>
      </trkpt>
      <trkpt lat="48.39873" lon="7.26541">
        <ele>1083</ele>
        <time>2020-06-24T08:53:32.149Z</time>
      </trkpt>
      <trkpt lat="48.39872" lon="7.26542">
        <ele>1083</ele>
        <time>2020-06-24T08:53:33.149Z</time>
      </trkpt>
      <trkpt lat="48.3987" lon="7.26544">
        <ele>1083</ele>
        <time>2020-06-24T08:53:34.148Z</time>
      </trkpt>
      <trkpt lat="48.39869" lon="7.26545">
        <ele>1084</ele>
        <time>2020-06-24T08:53:35.148Z</time>
      </trkpt>
      <trkpt lat="48.39868" lon="7.26546">
        <ele>1084</ele>
        <time>2020-06-24T08:53:36.149Z</time>
      </trkpt>
      <trkpt lat="48.39867" lon="7.26547">
        <ele>1084</ele>
        <time>2020-06-24T08:53:37.149Z</time>
      </trkpt>
      <trkpt lat="48.39866" lon="7.26548">
        <ele>1084</ele>
        <time>2020-06-24T08:53:38.148Z</time>
      </trkpt>
      <trkpt lat="48.39865" lon="7.26549">
        <ele>1084</ele>
        <time>2020-06-24T08:53:39.149Z</time>
      </trkpt>
      <trkpt lat="48.39864" lon="7.26549">
        <ele>1084</ele>
        <time>2020-06-24T08:53:40.148Z</time>
      </trkpt>
      <trkpt lat="48.39863" lon="7.2655">
        <ele>1084</ele>
        <time>2020-06-24T08:53:41.149Z</time>
      </trkpt>
      <trkpt lat="48.39861" lon="7.26551">
        <ele>1084</ele>
        <time>2020-06-24T08:53:42.149Z</time>
      </trkpt>
      <trkpt lat="48.3986" lon="7.26552">
        <ele>1084</ele>
        <time>2020-06-24T08:53:43.149Z</time>
      </trkpt>
      <trkpt lat="48.39859" lon="7.26552">
        <ele>1084</ele>
        <time>2020-06-24T08:53:44.149Z</time>
      </trkpt>
      <trkpt lat="48.39858" lon="7.26552">
        <ele>1084</ele>
        <time>2020-06-24T08:53:45.148Z</time>
      </trkpt>
      <trkpt lat="48.39857" lon="7.26552">
        <ele>1084</ele>
        <time>2020-06-24T08:53:46.149Z</time>
      </trkpt>
      <trkpt lat="48.39856" lon="7.26552">
        <ele>1084</ele>
        <time>2020-06-24T08:53:47.149Z</time>
      </trkpt>
      <trkpt lat="48.39855" lon="7.26552">
        <ele>1084</ele>
        <time>2020-06-24T08:53:48.149Z</time>
      </trkpt>
      <trkpt lat="48.39854" lon="7.26552">
        <ele>1085</ele>
        <time>2020-06-24T08:53:49.148Z</time>
      </trkpt>
      <trkpt lat="48.39854" lon="7.26551">
        <ele>1085</ele>
        <time>2020-06-24T08:53:50.148Z</time>
      </trkpt>
      <trkpt lat="48.39854" lon="7.2655">
        <ele>1085</ele>
        <time>2020-06-24T08:53:51.149Z</time>
      </trkpt>
      <trkpt lat="48.39854" lon="7.2655">
        <ele>1085</ele>
        <time>2020-06-24T08:53:52.149Z</time>
      </trkpt>
      <trkpt lat="48.39853" lon="7.26552">
        <ele>1086</ele>
        <time>2020-06-24T08:53:53.149Z</time>
      </trkpt>
      <trkpt lat="48.39853" lon="7.26553">
        <ele>1086</ele>
        <time>2020-06-24T08:53:54.150Z</time>
      </trkpt>
      <trkpt lat="48.39853" lon="7.26554">
        <ele>1086</ele>
        <time>2020-06-24T08:53:55.149Z</time>
      </trkpt>
      <trkpt lat="48.39853" lon="7.26554">
        <ele>1086</ele>
        <time>2020-06-24T08:53:56.150Z</time>
      </trkpt>
      <trkpt lat="48.39852" lon="7.26555">
        <ele>1086</ele>
        <time>2020-06-24T08:53:57.150Z</time>
      </trkpt>
      <trkpt lat="48.39853" lon="7.26555">
        <ele>1088</ele>
        <time>2020-06-24T08:53:58.150Z</time>
      </trkpt>
      <trkpt lat="48.39853" lon="7.26553">
        <ele>1088</ele>
        <time>2020-06-24T08:53:59.150Z</time>
      </trkpt>
      <trkpt lat="48.39853" lon="7.26551">
        <ele>1088</ele>
        <time>2020-06-24T08:54:00.149Z</time>
      </trkpt>
      <trkpt lat="48.39852" lon="7.26548">
        <ele>1088</ele>
        <time>2020-06-24T08:54:01.150Z</time>
      </trkpt>
      <trkpt lat="48.39852" lon="7.26546">
        <ele>1089</ele>
        <time>2020-06-24T08:54:02.149Z</time>
      </trkpt>
      <trkpt lat="48.39851" lon="7.26543">
        <ele>1089</ele>
        <time>2020-06-24T08:54:03.150Z</time>
      </trkpt>
      <trkpt lat="48.39851" lon="7.26541">
        <ele>1089</ele>
        <time>2020-06-24T08:54:04.150Z</time>
      </trkpt>
      <trkpt lat="48.3985" lon="7.26538">
        <ele>1089</ele>
        <time>2020-06-24T08:54:05.149Z</time>
      </trkpt>
      <trkpt lat="48.39849" lon="7.26537">
        <ele>1089</ele>
        <time>2020-06-24T08:54:06.150Z</time>
      </trkpt>
      <trkpt lat="48.39849" lon="7.26535">
        <ele>1088</ele>
        <time>2020-06-24T08:54:07.150Z</time>
      </trkpt>
      <trkpt lat="48.39848" lon="7.26533">
        <ele>1088</ele>
        <time>2020-06-24T08:54:08.149Z</time>
      </trkpt>
      <trkpt lat="48.39848" lon="7.26531">
        <ele>1087</ele>
        <time>2020-06-24T08:54:09.150Z</time>
      </trkpt>
      <trkpt lat="48.39848" lon="7.26529">
        <ele>1088</ele>
        <time>2020-06-24T08:54:10.150Z</time>
      </trkpt>
      <trkpt lat="48.39848" lon="7.26528">
        <ele>1088</ele>
        <time>2020-06-24T08:54:11.150Z</time>
      </trkpt>
      <trkpt lat="48.39847" lon="7.26526">
        <ele>1088</ele>
        <time>2020-06-24T08:54:12.149Z</time>
      </trkpt>
      <trkpt lat="48.39846" lon="7.26524">
        <ele>1087</ele>
        <time>2020-06-24T08:54:13.150Z</time>
      </trkpt>
      <trkpt lat="48.39846" lon="7.26523">
        <ele>1087</ele>
        <time>2020-06-24T08:54:14.149Z</time>
      </trkpt>
      <trkpt lat="48.39845" lon="7.26522">
        <ele>1087</ele>
        <time>2020-06-24T08:54:15.150Z</time>
      </trkpt>
      <trkpt lat="48.39844" lon="7.26522">
        <ele>1088</ele>
        <time>2020-06-24T08:54:16.150Z</time>
      </trkpt>
      <trkpt lat="48.39843" lon="7.26522">
        <ele>1088</ele>
        <time>2020-06-24T08:54:17.149Z</time>
      </trkpt>
      <trkpt lat="48.39843" lon="7.26522">
        <ele>1088</ele>
        <time>2020-06-24T08:54:18.150Z</time>
      </trkpt>
      <trkpt lat="48.39842" lon="7.26522">
        <ele>1089</ele>
        <time>2020-06-24T08:54:19.150Z</time>
      </trkpt>
      <trkpt lat="48.39841" lon="7.26523">
        <ele>1089</ele>
        <time>2020-06-24T08:54:20.149Z</time>
      </trkpt>
      <trkpt lat="48.39841" lon="7.26524">
        <ele>1089</ele>
        <time>2020-06-24T08:54:21.150Z</time>
      </trkpt>
      <trkpt lat="48.3984" lon="7.26526">
        <ele>1089</ele>
        <time>2020-06-24T08:54:22.149Z</time>
      </trkpt>
      <trkpt lat="48.3984" lon="7.26528">
        <ele>1089</ele>
        <time>2020-06-24T08:54:23.149Z</time>
      </trkpt>
      <trkpt lat="48.39839" lon="7.26529">
        <ele>1089</ele>
        <time>2020-06-24T08:54:24.150Z</time>
      </trkpt>
      <trkpt lat="48.39838" lon="7.26531">
        <ele>1089</ele>
        <time>2020-06-24T08:54:25.150Z</time>
      </trkpt>
      <trkpt lat="48.39838" lon="7.26532">
        <ele>1090</ele>
        <time>2020-06-24T08:54:26.150Z</time>
      </trkpt>
      <trkpt lat="48.39837" lon="7.26534">
        <ele>1090</ele>
        <time>2020-06-24T08:54:27.149Z</time>
      </trkpt>
      <trkpt lat="48.39836" lon="7.26535">
        <ele>1090</ele>
        <time>2020-06-24T08:54:28.149Z</time>
      </trkpt>
      <trkpt lat="48.39836" lon="7.26535">
        <ele>1090</ele>
        <time>2020-06-24T08:54:29.150Z</time>
      </trkpt>
      <trkpt lat="48.39835" lon="7.26536">
        <ele>1090</ele>
        <time>2020-06-24T08:54:30.150Z</time>
      </trkpt>
      <trkpt lat="48.39835" lon="7.26536">
        <ele>1090</ele>
        <time>2020-06-24T08:54:31.149Z</time>
      </trkpt>
      <trkpt lat="48.39835" lon="7.26536">
        <ele>1091</ele>
        <time>2020-06-24T08:54:32.150Z</time>
      </trkpt>
      <trkpt lat="48.39835" lon="7.26537">
        <ele>1091</ele>
        <time>2020-06-24T08:54:33.150Z</time>
      </trkpt>
      <trkpt lat="48.39834" lon="7.26538">
        <ele>1091</ele>
        <time>2020-06-24T08:54:34.150Z</time>
      </trkpt>
      <trkpt lat="48.39834" lon="7.26539">
        <ele>1090</ele>
        <time>2020-06-24T08:54:35.150Z</time>
      </trkpt>
      <trkpt lat="48.39833" lon="7.26541">
        <ele>1090</ele>
        <time>2020-06-24T08:54:36.149Z</time>
      </trkpt>
      <trkpt lat="48.39832" lon="7.26542">
        <ele>1090</ele>
        <time>2020-06-24T08:54:37.149Z</time>
      </trkpt>
      <trkpt lat="48.39831" lon="7.26543">
        <ele>1091</ele>
        <time>2020-06-24T08:54:38.150Z</time>
      </trkpt>
      <trkpt lat="48.3983" lon="7.26545">
        <ele>1090</ele>
        <time>2020-06-24T08:54:39.150Z</time>
      </trkpt>
      <trkpt lat="48.39829" lon="7.26546">
        <ele>1090</ele>
        <time>2020-06-24T08:54:40.150Z</time>
      </trkpt>
      <trkpt lat="48.39828" lon="7.26547">
        <ele>1090</ele>
        <time>2020-06-24T08:54:41.150Z</time>
      </trkpt>
      <trkpt lat="48.39827" lon="7.26548">
        <ele>1090</ele>
        <time>2020-06-24T08:54:42.150Z</time>
      </trkpt>
      <trkpt lat="48.39826" lon="7.26548">
        <ele>1090</ele>
        <time>2020-06-24T08:54:43.150Z</time>
      </trkpt>
      <trkpt lat="48.39825" lon="7.26548">
        <ele>1089</ele>
        <time>2020-06-24T08:54:44.149Z</time>
      </trkpt>
      <trkpt lat="48.39824" lon="7.26549">
        <ele>1089</ele>
        <time>2020-06-24T08:54:45.150Z</time>
      </trkpt>
      <trkpt lat="48.39823" lon="7.26549">
        <ele>1089</ele>
        <time>2020-06-24T08:54:46.150Z</time>
      </trkpt>
      <trkpt lat="48.39822" lon="7.26549">
        <ele>1089</ele>
        <time>2020-06-24T08:54:47.150Z</time>
      </trkpt>
      <trkpt lat="48.3982" lon="7.26549">
        <ele>1089</ele>
        <time>2020-06-24T08:54:48.150Z</time>
      </trkpt>
      <trkpt lat="48.39819" lon="7.26549">
        <ele>1089</ele>
        <time>2020-06-24T08:54:49.150Z</time>
      </trkpt>
      <trkpt lat="48.39817" lon="7.26549">
        <ele>1089</ele>
        <time>2020-06-24T08:54:50.149Z</time>
      </trkpt>
      <trkpt lat="48.39816" lon="7.26549">
        <ele>1089</ele>
        <time>2020-06-24T08:54:51.150Z</time>
      </trkpt>
      <trkpt lat="48.39815" lon="7.26549">
        <ele>1089</ele>
        <time>2020-06-24T08:54:52.149Z</time>
      </trkpt>
      <trkpt lat="48.39813" lon="7.26549">
        <ele>1089</ele>
        <time>2020-06-24T08:54:53.149Z</time>
      </trkpt>
      <trkpt lat="48.39812" lon="7.26549">
        <ele>1089</ele>
        <time>2020-06-24T08:54:54.149Z</time>
      </trkpt>
      <trkpt lat="48.39811" lon="7.26549">
        <ele>1089</ele>
        <time>2020-06-24T08:54:55.150Z</time>
      </trkpt>
      <trkpt lat="48.3981" lon="7.26548">
        <ele>1089</ele>
        <time>2020-06-24T08:54:56.149Z</time>
      </trkpt>
      <trkpt lat="48.39809" lon="7.26547">
        <ele>1088</ele>
        <time>2020-06-24T08:54:57.150Z</time>
      </trkpt>
      <trkpt lat="48.39809" lon="7.26546">
        <ele>1089</ele>
        <time>2020-06-24T08:54:58.150Z</time>
      </trkpt>
      <trkpt lat="48.39809" lon="7.26546">
        <ele>1089</ele>
        <time>2020-06-24T08:54:59.149Z</time>
      </trkpt>
      <trkpt lat="48.39809" lon="7.26546">
        <ele>1089</ele>
        <time>2020-06-24T08:55:00.150Z</time>
      </trkpt>
      <trkpt lat="48.3981" lon="7.26547">
        <ele>1093</ele>
        <time>2020-06-24T08:55:01.151Z</time>
      </trkpt>
      <trkpt lat="48.3981" lon="7.26546">
        <ele>1093</ele>
        <time>2020-06-24T08:55:02.151Z</time>
      </trkpt>
      <trkpt lat="48.3981" lon="7.26545">
        <ele>1093</ele>
        <time>2020-06-24T08:55:03.150Z</time>
      </trkpt>
      <trkpt lat="48.39806" lon="7.26547">
        <ele>1094</ele>
        <time>2020-06-24T08:55:04.150Z</time>
      </trkpt>
      <trkpt lat="48.39805" lon="7.26547">
        <ele>1094</ele>
        <time>2020-06-24T08:55:05.151Z</time>
      </trkpt>
      <trkpt lat="48.39803" lon="7.26549">
        <ele>1094</ele>
        <time>2020-06-24T08:55:06.150Z</time>
      </trkpt>
      <trkpt lat="48.39802" lon="7.2655">
        <ele>1094</ele>
        <time>2020-06-24T08:55:07.151Z</time>
      </trkpt>
      <trkpt lat="48.398" lon="7.26551">
        <ele>1094</ele>
        <time>2020-06-24T08:55:08.151Z</time>
      </trkpt>
      <trkpt lat="48.39798" lon="7.26552">
        <ele>1093</ele>
        <time>2020-06-24T08:55:09.151Z</time>
      </trkpt>
      <trkpt lat="48.39797" lon="7.26554">
        <ele>1093</ele>
        <time>2020-06-24T08:55:10.151Z</time>
      </trkpt>
      <trkpt lat="48.39795" lon="7.26555">
        <ele>1093</ele>
        <time>2020-06-24T08:55:11.151Z</time>
      </trkpt>
      <trkpt lat="48.39794" lon="7.26556">
        <ele>1093</ele>
        <time>2020-06-24T08:55:12.151Z</time>
      </trkpt>
      <trkpt lat="48.39792" lon="7.26557">
        <ele>1093</ele>
        <time>2020-06-24T08:55:13.150Z</time>
      </trkpt>
      <trkpt lat="48.39791" lon="7.26558">
        <ele>1093</ele>
        <time>2020-06-24T08:55:14.151Z</time>
      </trkpt>
      <trkpt lat="48.3979" lon="7.2656">
        <ele>1093</ele>
        <time>2020-06-24T08:55:15.151Z</time>
      </trkpt>
      <trkpt lat="48.39789" lon="7.26561">
        <ele>1093</ele>
        <time>2020-06-24T08:55:16.150Z</time>
      </trkpt>
      <trkpt lat="48.39788" lon="7.26562">
        <ele>1093</ele>
        <time>2020-06-24T08:55:17.151Z</time>
      </trkpt>
      <trkpt lat="48.39786" lon="7.26562">
        <ele>1093</ele>
        <time>2020-06-24T08:55:18.150Z</time>
      </trkpt>
      <trkpt lat="48.39785" lon="7.26564">
        <ele>1093</ele>
        <time>2020-06-24T08:55:19.151Z</time>
      </trkpt>
      <trkpt lat="48.39784" lon="7.26565">
        <ele>1093</ele>
        <time>2020-06-24T08:55:20.151Z</time>
      </trkpt>
      <trkpt lat="48.39783" lon="7.26566">
        <ele>1093</ele>
        <time>2020-06-24T08:55:21.151Z</time>
      </trkpt>
      <trkpt lat="48.39782" lon="7.26567">
        <ele>1093</ele>
        <time>2020-06-24T08:55:22.151Z</time>
      </trkpt>
      <trkpt lat="48.39781" lon="7.26568">
        <ele>1093</ele>
        <time>2020-06-24T08:55:23.151Z</time>
      </trkpt>
      <trkpt lat="48.3978" lon="7.26569">
        <ele>1092</ele>
        <time>2020-06-24T08:55:24.151Z</time>
      </trkpt>
      <trkpt lat="48.39778" lon="7.2657">
        <ele>1092</ele>
        <time>2020-06-24T08:55:25.151Z</time>
      </trkpt>
      <trkpt lat="48.39777" lon="7.26571">
        <ele>1092</ele>
        <time>2020-06-24T08:55:26.151Z</time>
      </trkpt>
      <trkpt lat="48.39776" lon="7.26572">
        <ele>1091</ele>
        <time>2020-06-24T08:55:27.151Z</time>
      </trkpt>
      <trkpt lat="48.39775" lon="7.26574">
        <ele>1091</ele>
        <time>2020-06-24T08:55:28.150Z</time>
      </trkpt>
      <trkpt lat="48.39774" lon="7.26576">
        <ele>1090</ele>
        <time>2020-06-24T08:55:29.151Z</time>
      </trkpt>
      <trkpt lat="48.39773" lon="7.26577">
        <ele>1089</ele>
        <time>2020-06-24T08:55:30.151Z</time>
      </trkpt>
      <trkpt lat="48.39772" lon="7.26578">
        <ele>1088</ele>
        <time>2020-06-24T08:55:31.151Z</time>
      </trkpt>
      <trkpt lat="48.39771" lon="7.26579">
        <ele>1087</ele>
        <time>2020-06-24T08:55:32.151Z</time>
      </trkpt>
      <trkpt lat="48.3977" lon="7.26581">
        <ele>1086</ele>
        <time>2020-06-24T08:55:33.150Z</time>
      </trkpt>
      <trkpt lat="48.39769" lon="7.26582">
        <ele>1086</ele>
        <time>2020-06-24T08:55:34.150Z</time>
      </trkpt>
      <trkpt lat="48.39767" lon="7.26583">
        <ele>1086</ele>
        <time>2020-06-24T08:55:35.151Z</time>
      </trkpt>
      <trkpt lat="48.39766" lon="7.26584">
        <ele>1086</ele>
        <time>2020-06-24T08:55:36.151Z</time>
      </trkpt>
      <trkpt lat="48.39765" lon="7.26585">
        <ele>1085</ele>
        <time>2020-06-24T08:55:37.151Z</time>
      </trkpt>
      <trkpt lat="48.39764" lon="7.26586">
        <ele>1085</ele>
        <time>2020-06-24T08:55:38.151Z</time>
      </trkpt>
      <trkpt lat="48.39762" lon="7.26587">
        <ele>1085</ele>
        <time>2020-06-24T08:55:39.151Z</time>
      </trkpt>
      <trkpt lat="48.39761" lon="7.26588">
        <ele>1085</ele>
        <time>2020-06-24T08:55:40.151Z</time>
      </trkpt>
      <trkpt lat="48.3976" lon="7.26589">
        <ele>1084</ele>
        <time>2020-06-24T08:55:41.151Z</time>
      </trkpt>
      <trkpt lat="48.39759" lon="7.2659">
        <ele>1084</ele>
        <time>2020-06-24T08:55:42.151Z</time>
      </trkpt>
      <trkpt lat="48.39757" lon="7.26591">
        <ele>1084</ele>
        <time>2020-06-24T08:55:43.151Z</time>
      </trkpt>
      <trkpt lat="48.39756" lon="7.26592">
        <ele>1084</ele>
        <time>2020-06-24T08:55:44.151Z</time>
      </trkpt>
      <trkpt lat="48.39755" lon="7.26593">
        <ele>1084</ele>
        <time>2020-06-24T08:55:45.151Z</time>
      </trkpt>
      <trkpt lat="48.39754" lon="7.26594">
        <ele>1084</ele>
        <time>2020-06-24T08:55:46.151Z</time>
      </trkpt>
      <trkpt lat="48.39753" lon="7.26595">
        <ele>1084</ele>
        <time>2020-06-24T08:55:47.150Z</time>
      </trkpt>
      <trkpt lat="48.39751" lon="7.26596">
        <ele>1085</ele>
        <time>2020-06-24T08:55:48.150Z</time>
      </trkpt>
      <trkpt lat="48.3975" lon="7.26597">
        <ele>1085</ele>
        <time>2020-06-24T08:55:49.151Z</time>
      </trkpt>
      <trkpt lat="48.39748" lon="7.26599">
        <ele>1085</ele>
        <time>2020-06-24T08:55:50.151Z</time>
      </trkpt>
      <trkpt lat="48.39747" lon="7.266">
        <ele>1086</ele>
        <time>2020-06-24T08:55:51.151Z</time>
      </trkpt>
      <trkpt lat="48.39746" lon="7.26601">
        <ele>1086</ele>
        <time>2020-06-24T08:55:52.151Z</time>
      </trkpt>
      <trkpt lat="48.39745" lon="7.26603">
        <ele>1086</ele>
        <time>2020-06-24T08:55:53.151Z</time>
      </trkpt>
      <trkpt lat="48.39743" lon="7.26604">
        <ele>1087</ele>
        <time>2020-06-24T08:55:54.151Z</time>
      </trkpt>
      <trkpt lat="48.39742" lon="7.26605">
        <ele>1088</ele>
        <time>2020-06-24T08:55:55.151Z</time>
      </trkpt>
      <trkpt lat="48.39741" lon="7.26608">
        <ele>1089</ele>
        <time>2020-06-24T08:55:56.151Z</time>
      </trkpt>
      <trkpt lat="48.3974" lon="7.2661">
        <ele>1089</ele>
        <time>2020-06-24T08:55:57.151Z</time>
      </trkpt>
      <trkpt lat="48.39739" lon="7.26612">
        <ele>1090</ele>
        <time>2020-06-24T08:55:58.151Z</time>
      </trkpt>
      <trkpt lat="48.39738" lon="7.26614">
        <ele>1090</ele>
        <time>2020-06-24T08:55:59.151Z</time>
      </trkpt>
      <trkpt lat="48.39737" lon="7.26615">
        <ele>1091</ele>
        <time>2020-06-24T08:56:00.151Z</time>
      </trkpt>
      <trkpt lat="48.39736" lon="7.26616">
        <ele>1091</ele>
        <time>2020-06-24T08:56:01.151Z</time>
      </trkpt>
      <trkpt lat="48.39734" lon="7.26617">
        <ele>1091</ele>
        <time>2020-06-24T08:56:02.151Z</time>
      </trkpt>
      <trkpt lat="48.39733" lon="7.26619">
        <ele>1092</ele>
        <time>2020-06-24T08:56:03.151Z</time>
      </trkpt>
      <trkpt lat="48.39732" lon="7.2662">
        <ele>1092</ele>
        <time>2020-06-24T08:56:04.150Z</time>
      </trkpt>
      <trkpt lat="48.39731" lon="7.26621">
        <ele>1092</ele>
        <time>2020-06-24T08:56:05.151Z</time>
      </trkpt>
      <trkpt lat="48.3973" lon="7.26623">
        <ele>1092</ele>
        <time>2020-06-24T08:56:06.150Z</time>
      </trkpt>
      <trkpt lat="48.39729" lon="7.26624">
        <ele>1092</ele>
        <time>2020-06-24T08:56:07.151Z</time>
      </trkpt>
      <trkpt lat="48.39728" lon="7.26625">
        <ele>1092</ele>
        <time>2020-06-24T08:56:08.151Z</time>
      </trkpt>
      <trkpt lat="48.39727" lon="7.26626">
        <ele>1092</ele>
        <time>2020-06-24T08:56:09.151Z</time>
      </trkpt>
      <trkpt lat="48.39725" lon="7.26627">
        <ele>1092</ele>
        <time>2020-06-24T08:56:10.151Z</time>
      </trkpt>
      <trkpt lat="48.39724" lon="7.26628">
        <ele>1092</ele>
        <time>2020-06-24T08:56:11.151Z</time>
      </trkpt>
      <trkpt lat="48.39723" lon="7.26629">
        <ele>1092</ele>
        <time>2020-06-24T08:56:12.151Z</time>
      </trkpt>
      <trkpt lat="48.39722" lon="7.2663">
        <ele>1092</ele>
        <time>2020-06-24T08:56:13.151Z</time>
      </trkpt>
      <trkpt lat="48.39721" lon="7.26631">
        <ele>1093</ele>
        <time>2020-06-24T08:56:14.151Z</time>
      </trkpt>
      <trkpt lat="48.3972" lon="7.26631">
        <ele>1093</ele>
        <time>2020-06-24T08:56:15.151Z</time>
      </trkpt>
      <trkpt lat="48.39719" lon="7.26632">
        <ele>1093</ele>
        <time>2020-06-24T08:56:16.150Z</time>
      </trkpt>
      <trkpt lat="48.39718" lon="7.26633">
        <ele>1093</ele>
        <time>2020-06-24T08:56:17.151Z</time>
      </trkpt>
      <trkpt lat="48.39717" lon="7.26634">
        <ele>1093</ele>
        <time>2020-06-24T08:56:18.151Z</time>
      </trkpt>
      <trkpt lat="48.39716" lon="7.26635">
        <ele>1093</ele>
        <time>2020-06-24T08:56:19.151Z</time>
      </trkpt>
      <trkpt lat="48.39715" lon="7.26636">
        <ele>1093</ele>
        <time>2020-06-24T08:56:20.150Z</time>
      </trkpt>
      <trkpt lat="48.39713" lon="7.26636">
        <ele>1093</ele>
        <time>2020-06-24T08:56:21.151Z</time>
      </trkpt>
      <trkpt lat="48.39712" lon="7.26637">
        <ele>1093</ele>
        <time>2020-06-24T08:56:22.150Z</time>
      </trkpt>
      <trkpt lat="48.39711" lon="7.26638">
        <ele>1094</ele>
        <time>2020-06-24T08:56:23.151Z</time>
      </trkpt>
      <trkpt lat="48.39709" lon="7.26639">
        <ele>1094</ele>
        <time>2020-06-24T08:56:24.151Z</time>
      </trkpt>
      <trkpt lat="48.39708" lon="7.2664">
        <ele>1095</ele>
        <time>2020-06-24T08:56:25.151Z</time>
      </trkpt>
      <trkpt lat="48.39707" lon="7.26642">
        <ele>1095</ele>
        <time>2020-06-24T08:56:26.151Z</time>
      </trkpt>
      <trkpt lat="48.39705" lon="7.26643">
        <ele>1095</ele>
        <time>2020-06-24T08:56:27.151Z</time>
      </trkpt>
      <trkpt lat="48.39704" lon="7.26644">
        <ele>1095</ele>
        <time>2020-06-24T08:56:28.151Z</time>
      </trkpt>
      <trkpt lat="48.39703" lon="7.26645">
        <ele>1095</ele>
        <time>2020-06-24T08:56:29.151Z</time>
      </trkpt>
      <trkpt lat="48.39702" lon="7.26646">
        <ele>1095</ele>
        <time>2020-06-24T08:56:30.151Z</time>
      </trkpt>
      <trkpt lat="48.397" lon="7.26647">
        <ele>1094</ele>
        <time>2020-06-24T08:56:31.151Z</time>
      </trkpt>
      <trkpt lat="48.39699" lon="7.26648">
        <ele>1094</ele>
        <time>2020-06-24T08:56:32.151Z</time>
      </trkpt>
      <trkpt lat="48.39698" lon="7.26649">
        <ele>1093</ele>
        <time>2020-06-24T08:56:33.150Z</time>
      </trkpt>
      <trkpt lat="48.39697" lon="7.2665">
        <ele>1092</ele>
        <time>2020-06-24T08:56:34.151Z</time>
      </trkpt>
      <trkpt lat="48.39695" lon="7.26651">
        <ele>1092</ele>
        <time>2020-06-24T08:56:35.151Z</time>
      </trkpt>
      <trkpt lat="48.39694" lon="7.26652">
        <ele>1091</ele>
        <time>2020-06-24T08:56:36.151Z</time>
      </trkpt>
      <trkpt lat="48.39693" lon="7.26653">
        <ele>1091</ele>
        <time>2020-06-24T08:56:37.150Z</time>
      </trkpt>
      <trkpt lat="48.39692" lon="7.26654">
        <ele>1090</ele>
        <time>2020-06-24T08:56:38.151Z</time>
      </trkpt>
      <trkpt lat="48.39691" lon="7.26655">
        <ele>1090</ele>
        <time>2020-06-24T08:56:39.150Z</time>
      </trkpt>
      <trkpt lat="48.39689" lon="7.26655">
        <ele>1090</ele>
        <time>2020-06-24T08:56:40.151Z</time>
      </trkpt>
      <trkpt lat="48.39688" lon="7.26656">
        <ele>1090</ele>
        <time>2020-06-24T08:56:41.151Z</time>
      </trkpt>
      <trkpt lat="48.39687" lon="7.26657">
        <ele>1091</ele>
        <time>2020-06-24T08:56:42.151Z</time>
      </trkpt>
      <trkpt lat="48.39685" lon="7.26658">
        <ele>1091</ele>
        <time>2020-06-24T08:56:43.150Z</time>
      </trkpt>
      <trkpt lat="48.39684" lon="7.2666">
        <ele>1092</ele>
        <time>2020-06-24T08:56:44.151Z</time>
      </trkpt>
      <trkpt lat="48.39683" lon="7.2666">
        <ele>1092</ele>
        <time>2020-06-24T08:56:45.150Z</time>
      </trkpt>
      <trkpt lat="48.39681" lon="7.26661">
        <ele>1092</ele>
        <time>2020-06-24T08:56:46.151Z</time>
      </trkpt>
      <trkpt lat="48.3968" lon="7.26662">
        <ele>1093</ele>
        <time>2020-06-24T08:56:47.150Z</time>
      </trkpt>
      <trkpt lat="48.39679" lon="7.26663">
        <ele>1093</ele>
        <time>2020-06-24T08:56:48.150Z</time>
      </trkpt>
      <trkpt lat="48.39678" lon="7.26664">
        <ele>1093</ele>
        <time>2020-06-24T08:56:49.151Z</time>
      </trkpt>
      <trkpt lat="48.39676" lon="7.26666">
        <ele>1093</ele>
        <time>2020-06-24T08:56:50.151Z</time>
      </trkpt>
      <trkpt lat="48.39675" lon="7.26668">
        <ele>1093</ele>
        <time>2020-06-24T08:56:51.151Z</time>
      </trkpt>
      <trkpt lat="48.39674" lon="7.2667">
        <ele>1093</ele>
        <time>2020-06-24T08:56:52.151Z</time>
      </trkpt>
      <trkpt lat="48.39673" lon="7.26671">
        <ele>1093</ele>
        <time>2020-06-24T08:56:53.151Z</time>
      </trkpt>
      <trkpt lat="48.39671" lon="7.26671">
        <ele>1092</ele>
        <time>2020-06-24T08:56:54.151Z</time>
      </trkpt>
      <trkpt lat="48.3967" lon="7.26672">
        <ele>1092</ele>
        <time>2020-06-24T08:56:55.151Z</time>
      </trkpt>
      <trkpt lat="48.39669" lon="7.26673">
        <ele>1092</ele>
        <time>2020-06-24T08:56:56.151Z</time>
      </trkpt>
      <trkpt lat="48.39667" lon="7.26674">
        <ele>1092</ele>
        <time>2020-06-24T08:56:57.151Z</time>
      </trkpt>
      <trkpt lat="48.39667" lon="7.26674">
        <ele>1091</ele>
        <time>2020-06-24T08:56:58.151Z</time>
      </trkpt>
      <trkpt lat="48.39665" lon="7.26676">
        <ele>1091</ele>
        <time>2020-06-24T08:56:59.151Z</time>
      </trkpt>
      <trkpt lat="48.39664" lon="7.26677">
        <ele>1091</ele>
        <time>2020-06-24T08:57:00.151Z</time>
      </trkpt>
      <trkpt lat="48.39663" lon="7.26679">
        <ele>1092</ele>
        <time>2020-06-24T08:57:01.151Z</time>
      </trkpt>
      <trkpt lat="48.39661" lon="7.26681">
        <ele>1092</ele>
        <time>2020-06-24T08:57:02.151Z</time>
      </trkpt>
      <trkpt lat="48.3966" lon="7.26682">
        <ele>1092</ele>
        <time>2020-06-24T08:57:03.151Z</time>
      </trkpt>
      <trkpt lat="48.39658" lon="7.26683">
        <ele>1092</ele>
        <time>2020-06-24T08:57:04.151Z</time>
      </trkpt>
      <trkpt lat="48.39657" lon="7.26684">
        <ele>1092</ele>
        <time>2020-06-24T08:57:05.151Z</time>
      </trkpt>
      <trkpt lat="48.39656" lon="7.26685">
        <ele>1092</ele>
        <time>2020-06-24T08:57:06.151Z</time>
      </trkpt>
      <trkpt lat="48.39655" lon="7.26686">
        <ele>1091</ele>
        <time>2020-06-24T08:57:07.150Z</time>
      </trkpt>
      <trkpt lat="48.39653" lon="7.26687">
        <ele>1091</ele>
        <time>2020-06-24T08:57:08.151Z</time>
      </trkpt>
      <trkpt lat="48.39652" lon="7.26689">
        <ele>1091</ele>
        <time>2020-06-24T08:57:09.151Z</time>
      </trkpt>
      <trkpt lat="48.39651" lon="7.2669">
        <ele>1091</ele>
        <time>2020-06-24T08:57:10.150Z</time>
      </trkpt>
      <trkpt lat="48.3965" lon="7.26691">
        <ele>1091</ele>
        <time>2020-06-24T08:57:11.151Z</time>
      </trkpt>
      <trkpt lat="48.39648" lon="7.26693">
        <ele>1090</ele>
        <time>2020-06-24T08:57:12.150Z</time>
      </trkpt>
      <trkpt lat="48.39647" lon="7.26694">
        <ele>1090</ele>
        <time>2020-06-24T08:57:13.151Z</time>
      </trkpt>
      <trkpt lat="48.39646" lon="7.26695">
        <ele>1090</ele>
        <time>2020-06-24T08:57:14.151Z</time>
      </trkpt>
      <trkpt lat="48.39645" lon="7.26697">
        <ele>1090</ele>
        <time>2020-06-24T08:57:15.151Z</time>
      </trkpt>
      <trkpt lat="48.39643" lon="7.26698">
        <ele>1090</ele>
        <time>2020-06-24T08:57:16.151Z</time>
      </trkpt>
      <trkpt lat="48.39642" lon="7.26699">
        <ele>1091</ele>
        <time>2020-06-24T08:57:17.151Z</time>
      </trkpt>
      <trkpt lat="48.39641" lon="7.26701">
        <ele>1091</ele>
        <time>2020-06-24T08:57:18.151Z</time>
      </trkpt>
      <trkpt lat="48.3964" lon="7.26703">
        <ele>1091</ele>
        <time>2020-06-24T08:57:19.151Z</time>
      </trkpt>
      <trkpt lat="48.39639" lon="7.26704">
        <ele>1091</ele>
        <time>2020-06-24T08:57:20.151Z</time>
      </trkpt>
      <trkpt lat="48.39638" lon="7.26705">
        <ele>1092</ele>
        <time>2020-06-24T08:57:21.151Z</time>
      </trkpt>
      <trkpt lat="48.39636" lon="7.26706">
        <ele>1092</ele>
        <time>2020-06-24T08:57:22.151Z</time>
      </trkpt>
      <trkpt lat="48.39635" lon="7.26708">
        <ele>1092</ele>
        <time>2020-06-24T08:57:23.150Z</time>
      </trkpt>
      <trkpt lat="48.39634" lon="7.26709">
        <ele>1092</ele>
        <time>2020-06-24T08:57:24.150Z</time>
      </trkpt>
      <trkpt lat="48.39632" lon="7.2671">
        <ele>1092</ele>
        <time>2020-06-24T08:57:25.151Z</time>
      </trkpt>
      <trkpt lat="48.39631" lon="7.2671">
        <ele>1093</ele>
        <time>2020-06-24T08:57:26.151Z</time>
      </trkpt>
      <trkpt lat="48.3963" lon="7.26711">
        <ele>1093</ele>
        <time>2020-06-24T08:57:27.150Z</time>
      </trkpt>
      <trkpt lat="48.39628" lon="7.26711">
        <ele>1093</ele>
        <time>2020-06-24T08:57:28.150Z</time>
      </trkpt>
      <trkpt lat="48.39627" lon="7.26712">
        <ele>1093</ele>
        <time>2020-06-24T08:57:29.151Z</time>
      </trkpt>
      <trkpt lat="48.39626" lon="7.26713">
        <ele>1093</ele>
        <time>2020-06-24T08:57:30.150Z</time>
      </trkpt>
      <trkpt lat="48.39625" lon="7.26714">
        <ele>1094</ele>
        <time>2020-06-24T08:57:31.151Z</time>
      </trkpt>
      <trkpt lat="48.39624" lon="7.26715">
        <ele>1094</ele>
        <time>2020-06-24T08:57:32.151Z</time>
      </trkpt>
      <trkpt lat="48.39622" lon="7.26716">
        <ele>1094</ele>
        <time>2020-06-24T08:57:33.151Z</time>
      </trkpt>
      <trkpt lat="48.39621" lon="7.26717">
        <ele>1094</ele>
        <time>2020-06-24T08:57:34.150Z</time>
      </trkpt>
      <trkpt lat="48.3962" lon="7.26717">
        <ele>1094</ele>
        <time>2020-06-24T08:57:35.151Z</time>
      </trkpt>
      <trkpt lat="48.39619" lon="7.26717">
        <ele>1094</ele>
        <time>2020-06-24T08:57:36.150Z</time>
      </trkpt>
      <trkpt lat="48.39617" lon="7.26718">
        <ele>1094</ele>
        <time>2020-06-24T08:57:37.151Z</time>
      </trkpt>
      <trkpt lat="48.39616" lon="7.26719">
        <ele>1095</ele>
        <time>2020-06-24T08:57:38.150Z</time>
      </trkpt>
      <trkpt lat="48.39614" lon="7.26721">
        <ele>1095</ele>
        <time>2020-06-24T08:57:39.151Z</time>
      </trkpt>
      <trkpt lat="48.39613" lon="7.26723">
        <ele>1095</ele>
        <time>2020-06-24T08:57:40.150Z</time>
      </trkpt>
      <trkpt lat="48.39612" lon="7.26724">
        <ele>1095</ele>
        <time>2020-06-24T08:57:41.151Z</time>
      </trkpt>
      <trkpt lat="48.39611" lon="7.26725">
        <ele>1095</ele>
        <time>2020-06-24T08:57:42.151Z</time>
      </trkpt>
      <trkpt lat="48.39611" lon="7.26726">
        <ele>1095</ele>
        <time>2020-06-24T08:57:43.150Z</time>
      </trkpt>
      <trkpt lat="48.39609" lon="7.26727">
        <ele>1095</ele>
        <time>2020-06-24T08:57:44.151Z</time>
      </trkpt>
      <trkpt lat="48.39608" lon="7.26729">
        <ele>1096</ele>
        <time>2020-06-24T08:57:45.150Z</time>
      </trkpt>
      <trkpt lat="48.39606" lon="7.2673">
        <ele>1096</ele>
        <time>2020-06-24T08:57:46.151Z</time>
      </trkpt>
      <trkpt lat="48.39605" lon="7.26732">
        <ele>1097</ele>
        <time>2020-06-24T08:57:47.151Z</time>
      </trkpt>
      <trkpt lat="48.39603" lon="7.26733">
        <ele>1097</ele>
        <time>2020-06-24T08:57:48.151Z</time>
      </trkpt>
      <trkpt lat="48.39602" lon="7.26735">
        <ele>1097</ele>
        <time>2020-06-24T08:57:49.151Z</time>
      </trkpt>
      <trkpt lat="48.39601" lon="7.26736">
        <ele>1097</ele>
        <time>2020-06-24T08:57:50.151Z</time>
      </trkpt>
      <trkpt lat="48.39599" lon="7.26737">
        <ele>1097</ele>
        <time>2020-06-24T08:57:51.150Z</time>
      </trkpt>
      <trkpt lat="48.39598" lon="7.26739">
        <ele>1096</ele>
        <time>2020-06-24T08:57:52.151Z</time>
      </trkpt>
      <trkpt lat="48.39597" lon="7.26741">
        <ele>1096</ele>
        <time>2020-06-24T08:57:53.150Z</time>
      </trkpt>
      <trkpt lat="48.39595" lon="7.26742">
        <ele>1095</ele>
        <time>2020-06-24T08:57:54.151Z</time>
      </trkpt>
      <trkpt lat="48.39594" lon="7.26744">
        <ele>1095</ele>
        <time>2020-06-24T08:57:55.151Z</time>
      </trkpt>
      <trkpt lat="48.39592" lon="7.26745">
        <ele>1095</ele>
        <time>2020-06-24T08:57:56.150Z</time>
      </trkpt>
      <trkpt lat="48.39591" lon="7.26747">
        <ele>1095</ele>
        <time>2020-06-24T08:57:57.150Z</time>
      </trkpt>
      <trkpt lat="48.3959" lon="7.26748">
        <ele>1095</ele>
        <time>2020-06-24T08:57:58.151Z</time>
      </trkpt>
      <trkpt lat="48.39588" lon="7.26749">
        <ele>1095</ele>
        <time>2020-06-24T08:57:59.151Z</time>
      </trkpt>
      <trkpt lat="48.39587" lon="7.26751">
        <ele>1096</ele>
        <time>2020-06-24T08:58:00.151Z</time>
      </trkpt>
      <trkpt lat="48.39586" lon="7.26752">
        <ele>1096</ele>
        <time>2020-06-24T08:58:01.150Z</time>
      </trkpt>
      <trkpt lat="48.39585" lon="7.26753">
        <ele>1097</ele>
        <time>2020-06-24T08:58:02.151Z</time>
      </trkpt>
      <trkpt lat="48.39583" lon="7.26754">
        <ele>1097</ele>
        <time>2020-06-24T08:58:03.151Z</time>
      </trkpt>
      <trkpt lat="48.39582" lon="7.26756">
        <ele>1097</ele>
        <time>2020-06-24T08:58:04.151Z</time>
      </trkpt>
      <trkpt lat="48.39581" lon="7.26757">
        <ele>1097</ele>
        <time>2020-06-24T08:58:05.151Z</time>
      </trkpt>
      <trkpt lat="48.39579" lon="7.26758">
        <ele>1097</ele>
        <time>2020-06-24T08:58:06.150Z</time>
      </trkpt>
      <trkpt lat="48.39578" lon="7.26759">
        <ele>1097</ele>
        <time>2020-06-24T08:58:07.151Z</time>
      </trkpt>
      <trkpt lat="48.39577" lon="7.26759">
        <ele>1097</ele>
        <time>2020-06-24T08:58:08.150Z</time>
      </trkpt>
      <trkpt lat="48.39576" lon="7.2676">
        <ele>1097</ele>
        <time>2020-06-24T08:58:09.151Z</time>
      </trkpt>
      <trkpt lat="48.39574" lon="7.26761">
        <ele>1097</ele>
        <time>2020-06-24T08:58:10.150Z</time>
      </trkpt>
      <trkpt lat="48.39573" lon="7.26762">
        <ele>1097</ele>
        <time>2020-06-24T08:58:11.151Z</time>
      </trkpt>
      <trkpt lat="48.39572" lon="7.26763">
        <ele>1098</ele>
        <time>2020-06-24T08:58:12.151Z</time>
      </trkpt>
      <trkpt lat="48.3957" lon="7.26764">
        <ele>1098</ele>
        <time>2020-06-24T08:58:13.151Z</time>
      </trkpt>
      <trkpt lat="48.39569" lon="7.26764">
        <ele>1098</ele>
        <time>2020-06-24T08:58:14.151Z</time>
      </trkpt>
      <trkpt lat="48.39568" lon="7.26765">
        <ele>1098</ele>
        <time>2020-06-24T08:58:15.150Z</time>
      </trkpt>
      <trkpt lat="48.39567" lon="7.26766">
        <ele>1098</ele>
        <time>2020-06-24T08:58:16.151Z</time>
      </trkpt>
      <trkpt lat="48.39566" lon="7.26766">
        <ele>1098</ele>
        <time>2020-06-24T08:58:17.151Z</time>
      </trkpt>
      <trkpt lat="48.39565" lon="7.26766">
        <ele>1098</ele>
        <time>2020-06-24T08:58:18.151Z</time>
      </trkpt>
      <trkpt lat="48.39564" lon="7.26767">
        <ele>1097</ele>
        <time>2020-06-24T08:58:19.151Z</time>
      </trkpt>
      <trkpt lat="48.39563" lon="7.26768">
        <ele>1097</ele>
        <time>2020-06-24T08:58:20.151Z</time>
      </trkpt>
      <trkpt lat="48.39561" lon="7.26768">
        <ele>1097</ele>
        <time>2020-06-24T08:58:21.151Z</time>
      </trkpt>
      <trkpt lat="48.3956" lon="7.2677">
        <ele>1097</ele>
        <time>2020-06-24T08:58:22.150Z</time>
      </trkpt>
      <trkpt lat="48.39559" lon="7.26771">
        <ele>1096</ele>
        <time>2020-06-24T08:58:23.151Z</time>
      </trkpt>
      <trkpt lat="48.39558" lon="7.26772">
        <ele>1096</ele>
        <time>2020-06-24T08:58:24.150Z</time>
      </trkpt>
      <trkpt lat="48.39557" lon="7.26773">
        <ele>1097</ele>
        <time>2020-06-24T08:58:25.151Z</time>
      </trkpt>
      <trkpt lat="48.39556" lon="7.26774">
        <ele>1097</ele>
        <time>2020-06-24T08:58:26.151Z</time>
      </trkpt>
      <trkpt lat="48.39555" lon="7.26775">
        <ele>1098</ele>
        <time>2020-06-24T08:58:27.151Z</time>
      </trkpt>
      <trkpt lat="48.39553" lon="7.26777">
        <ele>1098</ele>
        <time>2020-06-24T08:58:28.151Z</time>
      </trkpt>
      <trkpt lat="48.39552" lon="7.26778">
        <ele>1099</ele>
        <time>2020-06-24T08:58:29.151Z</time>
      </trkpt>
      <trkpt lat="48.39551" lon="7.26779">
        <ele>1099</ele>
        <time>2020-06-24T08:58:30.150Z</time>
      </trkpt>
      <trkpt lat="48.39549" lon="7.2678">
        <ele>1099</ele>
        <time>2020-06-24T08:58:31.151Z</time>
      </trkpt>
      <trkpt lat="48.39548" lon="7.26781">
        <ele>1100</ele>
        <time>2020-06-24T08:58:32.151Z</time>
      </trkpt>
      <trkpt lat="48.39547" lon="7.26781">
        <ele>1100</ele>
        <time>2020-06-24T08:58:33.151Z</time>
      </trkpt>
      <trkpt lat="48.39546" lon="7.26782">
        <ele>1099</ele>
        <time>2020-06-24T08:58:34.151Z</time>
      </trkpt>
      <trkpt lat="48.39544" lon="7.26784">
        <ele>1099</ele>
        <time>2020-06-24T08:58:35.150Z</time>
      </trkpt>
      <trkpt lat="48.39543" lon="7.26785">
        <ele>1099</ele>
        <time>2020-06-24T08:58:36.150Z</time>
      </trkpt>
      <trkpt lat="48.39542" lon="7.26786">
        <ele>1099</ele>
        <time>2020-06-24T08:58:37.150Z</time>
      </trkpt>
      <trkpt lat="48.39541" lon="7.26787">
        <ele>1099</ele>
        <time>2020-06-24T08:58:38.151Z</time>
      </trkpt>
      <trkpt lat="48.39539" lon="7.26788">
        <ele>1099</ele>
        <time>2020-06-24T08:58:39.151Z</time>
      </trkpt>
      <trkpt lat="48.39538" lon="7.26789">
        <ele>1099</ele>
        <time>2020-06-24T08:58:40.151Z</time>
      </trkpt>
      <trkpt lat="48.39536" lon="7.2679">
        <ele>1100</ele>
        <time>2020-06-24T08:58:41.150Z</time>
      </trkpt>
      <trkpt lat="48.39535" lon="7.26791">
        <ele>1100</ele>
        <time>2020-06-24T08:58:42.151Z</time>
      </trkpt>
      <trkpt lat="48.39533" lon="7.26793">
        <ele>1101</ele>
        <time>2020-06-24T08:58:43.150Z</time>
      </trkpt>
      <trkpt lat="48.39532" lon="7.26794">
        <ele>1102</ele>
        <time>2020-06-24T08:58:44.150Z</time>
      </trkpt>
      <trkpt lat="48.3953" lon="7.26795">
        <ele>1102</ele>
        <time>2020-06-24T08:58:45.151Z</time>
      </trkpt>
      <trkpt lat="48.39529" lon="7.26795">
        <ele>1102</ele>
        <time>2020-06-24T08:58:46.151Z</time>
      </trkpt>
      <trkpt lat="48.39528" lon="7.26796">
        <ele>1103</ele>
        <time>2020-06-24T08:58:47.151Z</time>
      </trkpt>
      <trkpt lat="48.39526" lon="7.26798">
        <ele>1103</ele>
        <time>2020-06-24T08:58:48.150Z</time>
      </trkpt>
      <trkpt lat="48.39525" lon="7.26799">
        <ele>1104</ele>
        <time>2020-06-24T08:58:49.151Z</time>
      </trkpt>
      <trkpt lat="48.39524" lon="7.26801">
        <ele>1104</ele>
        <time>2020-06-24T08:58:50.150Z</time>
      </trkpt>
      <trkpt lat="48.39522" lon="7.26802">
        <ele>1104</ele>
        <time>2020-06-24T08:58:51.151Z</time>
      </trkpt>
      <trkpt lat="48.39521" lon="7.26803">
        <ele>1104</ele>
        <time>2020-06-24T08:58:52.150Z</time>
      </trkpt>
      <trkpt lat="48.3952" lon="7.26804">
        <ele>1104</ele>
        <time>2020-06-24T08:58:53.151Z</time>
      </trkpt>
      <trkpt lat="48.39518" lon="7.26805">
        <ele>1104</ele>
        <time>2020-06-24T08:58:54.151Z</time>
      </trkpt>
      <trkpt lat="48.39517" lon="7.26805">
        <ele>1105</ele>
        <time>2020-06-24T08:58:55.150Z</time>
      </trkpt>
      <trkpt lat="48.39516" lon="7.26807">
        <ele>1105</ele>
        <time>2020-06-24T08:58:56.151Z</time>
      </trkpt>
      <trkpt lat="48.39515" lon="7.26808">
        <ele>1105</ele>
        <time>2020-06-24T08:58:57.151Z</time>
      </trkpt>
      <trkpt lat="48.39514" lon="7.26809">
        <ele>1105</ele>
        <time>2020-06-24T08:58:58.150Z</time>
      </trkpt>
      <trkpt lat="48.39512" lon="7.2681">
        <ele>1104</ele>
        <time>2020-06-24T08:58:59.150Z</time>
      </trkpt>
      <trkpt lat="48.39511" lon="7.26811">
        <ele>1104</ele>
        <time>2020-06-24T08:59:00.150Z</time>
      </trkpt>
      <trkpt lat="48.3951" lon="7.26813">
        <ele>1104</ele>
        <time>2020-06-24T08:59:01.151Z</time>
      </trkpt>
      <trkpt lat="48.39508" lon="7.26813">
        <ele>1104</ele>
        <time>2020-06-24T08:59:02.151Z</time>
      </trkpt>
      <trkpt lat="48.39507" lon="7.26814">
        <ele>1104</ele>
        <time>2020-06-24T08:59:03.150Z</time>
      </trkpt>
      <trkpt lat="48.39506" lon="7.26815">
        <ele>1105</ele>
        <time>2020-06-24T08:59:04.151Z</time>
      </trkpt>
      <trkpt lat="48.39505" lon="7.26816">
        <ele>1104</ele>
        <time>2020-06-24T08:59:05.151Z</time>
      </trkpt>
      <trkpt lat="48.39504" lon="7.26817">
        <ele>1104</ele>
        <time>2020-06-24T08:59:06.151Z</time>
      </trkpt>
      <trkpt lat="48.39503" lon="7.26818">
        <ele>1104</ele>
        <time>2020-06-24T08:59:07.151Z</time>
      </trkpt>
      <trkpt lat="48.39503" lon="7.26819">
        <ele>1104</ele>
        <time>2020-06-24T08:59:08.151Z</time>
      </trkpt>
      <trkpt lat="48.39502" lon="7.2682">
        <ele>1103</ele>
        <time>2020-06-24T08:59:09.150Z</time>
      </trkpt>
      <trkpt lat="48.39501" lon="7.26821">
        <ele>1103</ele>
        <time>2020-06-24T08:59:10.151Z</time>
      </trkpt>
      <trkpt lat="48.395" lon="7.26822">
        <ele>1102</ele>
        <time>2020-06-24T08:59:11.151Z</time>
      </trkpt>
      <trkpt lat="48.395" lon="7.26824">
        <ele>1102</ele>
        <time>2020-06-24T08:59:12.150Z</time>
      </trkpt>
      <trkpt lat="48.395" lon="7.26826">
        <ele>1101</ele>
        <time>2020-06-24T08:59:13.150Z</time>
      </trkpt>
      <trkpt lat="48.39499" lon="7.26828">
        <ele>1100</ele>
        <time>2020-06-24T08:59:14.150Z</time>
      </trkpt>
      <trkpt lat="48.39499" lon="7.2683">
        <ele>1099</ele>
        <time>2020-06-24T08:59:15.151Z</time>
      </trkpt>
      <trkpt lat="48.39499" lon="7.26832">
        <ele>1099</ele>
        <time>2020-06-24T08:59:16.151Z</time>
      </trkpt>
      <trkpt lat="48.39499" lon="7.26834">
        <ele>1098</ele>
        <time>2020-06-24T08:59:17.151Z</time>
      </trkpt>
      <trkpt lat="48.39499" lon="7.26835">
        <ele>1098</ele>
        <time>2020-06-24T08:59:18.151Z</time>
      </trkpt>
      <trkpt lat="48.39499" lon="7.26838">
        <ele>1098</ele>
        <time>2020-06-24T08:59:19.151Z</time>
      </trkpt>
      <trkpt lat="48.395" lon="7.2684">
        <ele>1098</ele>
        <time>2020-06-24T08:59:20.151Z</time>
      </trkpt>
      <trkpt lat="48.395" lon="7.26841">
        <ele>1098</ele>
        <time>2020-06-24T08:59:21.151Z</time>
      </trkpt>
      <trkpt lat="48.39501" lon="7.26843">
        <ele>1098</ele>
        <time>2020-06-24T08:59:22.151Z</time>
      </trkpt>
      <trkpt lat="48.39501" lon="7.26844">
        <ele>1098</ele>
        <time>2020-06-24T08:59:23.151Z</time>
      </trkpt>
      <trkpt lat="48.39502" lon="7.26846">
        <ele>1098</ele>
        <time>2020-06-24T08:59:24.151Z</time>
      </trkpt>
      <trkpt lat="48.39502" lon="7.26847">
        <ele>1098</ele>
        <time>2020-06-24T08:59:25.151Z</time>
      </trkpt>
      <trkpt lat="48.39503" lon="7.26848">
        <ele>1098</ele>
        <time>2020-06-24T08:59:26.151Z</time>
      </trkpt>
      <trkpt lat="48.39503" lon="7.26849">
        <ele>1098</ele>
        <time>2020-06-24T08:59:27.150Z</time>
      </trkpt>
      <trkpt lat="48.39503" lon="7.2685">
        <ele>1098</ele>
        <time>2020-06-24T08:59:28.150Z</time>
      </trkpt>
      <trkpt lat="48.39504" lon="7.26851">
        <ele>1098</ele>
        <time>2020-06-24T08:59:29.151Z</time>
      </trkpt>
      <trkpt lat="48.39504" lon="7.26852">
        <ele>1098</ele>
        <time>2020-06-24T08:59:30.151Z</time>
      </trkpt>
      <trkpt lat="48.39503" lon="7.26853">
        <ele>1098</ele>
        <time>2020-06-24T08:59:31.150Z</time>
      </trkpt>
      <trkpt lat="48.39503" lon="7.26853">
        <ele>1098</ele>
        <time>2020-06-24T08:59:32.151Z</time>
      </trkpt>
      <trkpt lat="48.39502" lon="7.26853">
        <ele>1098</ele>
        <time>2020-06-24T08:59:33.151Z</time>
      </trkpt>
      <trkpt lat="48.39502" lon="7.26854">
        <ele>1098</ele>
        <time>2020-06-24T08:59:34.151Z</time>
      </trkpt>
      <trkpt lat="48.39502" lon="7.26854">
        <ele>1099</ele>
        <time>2020-06-24T08:59:35.151Z</time>
      </trkpt>
      <trkpt lat="48.39501" lon="7.26855">
        <ele>1099</ele>
        <time>2020-06-24T08:59:36.151Z</time>
      </trkpt>
      <trkpt lat="48.39501" lon="7.26855">
        <ele>1099</ele>
        <time>2020-06-24T08:59:37.151Z</time>
      </trkpt>
      <trkpt lat="48.39501" lon="7.26856">
        <ele>1099</ele>
        <time>2020-06-24T08:59:38.151Z</time>
      </trkpt>
      <trkpt lat="48.39501" lon="7.26856">
        <ele>1099</ele>
        <time>2020-06-24T08:59:39.150Z</time>
      </trkpt>
      <trkpt lat="48.39501" lon="7.2685">
        <ele>1100</ele>
        <time>2020-06-24T08:59:40.151Z</time>
      </trkpt>
      <trkpt lat="48.39501" lon="7.26849">
        <ele>1100</ele>
        <time>2020-06-24T08:59:41.150Z</time>
      </trkpt>
      <trkpt lat="48.395" lon="7.26847">
        <ele>1100</ele>
        <time>2020-06-24T08:59:42.150Z</time>
      </trkpt>
      <trkpt lat="48.395" lon="7.26845">
        <ele>1100</ele>
        <time>2020-06-24T08:59:43.150Z</time>
      </trkpt>
      <trkpt lat="48.395" lon="7.26843">
        <ele>1101</ele>
        <time>2020-06-24T08:59:44.150Z</time>
      </trkpt>
      <trkpt lat="48.395" lon="7.26841">
        <ele>1101</ele>
        <time>2020-06-24T08:59:45.150Z</time>
      </trkpt>
      <trkpt lat="48.395" lon="7.26839">
        <ele>1101</ele>
        <time>2020-06-24T08:59:46.150Z</time>
      </trkpt>
      <trkpt lat="48.395" lon="7.26837">
        <ele>1101</ele>
        <time>2020-06-24T08:59:47.150Z</time>
      </trkpt>
      <trkpt lat="48.39499" lon="7.26835">
        <ele>1101</ele>
        <time>2020-06-24T08:59:48.150Z</time>
      </trkpt>
      <trkpt lat="48.39499" lon="7.26834">
        <ele>1101</ele>
        <time>2020-06-24T08:59:49.151Z</time>
      </trkpt>
      <trkpt lat="48.39499" lon="7.26833">
        <ele>1101</ele>
        <time>2020-06-24T08:59:50.151Z</time>
      </trkpt>
      <trkpt lat="48.39498" lon="7.26833">
        <ele>1101</ele>
        <time>2020-06-24T08:59:51.151Z</time>
      </trkpt>
      <trkpt lat="48.39501" lon="7.26835">
        <ele>1097</ele>
        <time>2020-06-24T08:59:52.153Z</time>
      </trkpt>
      <trkpt lat="48.395" lon="7.26834">
        <ele>1096</ele>
        <time>2020-06-24T08:59:53.153Z</time>
      </trkpt>
      <trkpt lat="48.395" lon="7.26832">
        <ele>1096</ele>
        <time>2020-06-24T08:59:54.152Z</time>
      </trkpt>
      <trkpt lat="48.39499" lon="7.2683">
        <ele>1096</ele>
        <time>2020-06-24T08:59:55.153Z</time>
      </trkpt>
      <trkpt lat="48.39499" lon="7.26828">
        <ele>1097</ele>
        <time>2020-06-24T08:59:56.153Z</time>
      </trkpt>
      <trkpt lat="48.39499" lon="7.26826">
        <ele>1098</ele>
        <time>2020-06-24T08:59:57.153Z</time>
      </trkpt>
      <trkpt lat="48.39499" lon="7.26824">
        <ele>1099</ele>
        <time>2020-06-24T08:59:58.153Z</time>
      </trkpt>
      <trkpt lat="48.39499" lon="7.26822">
        <ele>1099</ele>
        <time>2020-06-24T08:59:59.153Z</time>
      </trkpt>
      <trkpt lat="48.395" lon="7.2682">
        <ele>1099</ele>
        <time>2020-06-24T09:00:00.152Z</time>
      </trkpt>
      <trkpt lat="48.395" lon="7.26818">
        <ele>1099</ele>
        <time>2020-06-24T09:00:01.153Z</time>
      </trkpt>
      <trkpt lat="48.395" lon="7.26816">
        <ele>1100</ele>
        <time>2020-06-24T09:00:02.153Z</time>
      </trkpt>
      <trkpt lat="48.395" lon="7.26813">
        <ele>1099</ele>
        <time>2020-06-24T09:00:03.153Z</time>
      </trkpt>
      <trkpt lat="48.395" lon="7.26812">
        <ele>1099</ele>
        <time>2020-06-24T09:00:04.153Z</time>
      </trkpt>
      <trkpt lat="48.395" lon="7.26809">
        <ele>1099</ele>
        <time>2020-06-24T09:00:05.153Z</time>
      </trkpt>
      <trkpt lat="48.395" lon="7.26807">
        <ele>1099</ele>
        <time>2020-06-24T09:00:06.153Z</time>
      </trkpt>
      <trkpt lat="48.395" lon="7.26806">
        <ele>1099</ele>
        <time>2020-06-24T09:00:07.152Z</time>
      </trkpt>
      <trkpt lat="48.395" lon="7.26804">
        <ele>1098</ele>
        <time>2020-06-24T09:00:08.153Z</time>
      </trkpt>
      <trkpt lat="48.395" lon="7.26802">
        <ele>1098</ele>
        <time>2020-06-24T09:00:09.152Z</time>
      </trkpt>
      <trkpt lat="48.395" lon="7.268">
        <ele>1097</ele>
        <time>2020-06-24T09:00:10.153Z</time>
      </trkpt>
      <trkpt lat="48.395" lon="7.26799">
        <ele>1097</ele>
        <time>2020-06-24T09:00:11.152Z</time>
      </trkpt>
      <trkpt lat="48.395" lon="7.26797">
        <ele>1096</ele>
        <time>2020-06-24T09:00:12.153Z</time>
      </trkpt>
      <trkpt lat="48.395" lon="7.26795">
        <ele>1096</ele>
        <time>2020-06-24T09:00:13.153Z</time>
      </trkpt>
      <trkpt lat="48.39499" lon="7.26794">
        <ele>1096</ele>
        <time>2020-06-24T09:00:14.153Z</time>
      </trkpt>
      <trkpt lat="48.39499" lon="7.26792">
        <ele>1096</ele>
        <time>2020-06-24T09:00:15.152Z</time>
      </trkpt>
      <trkpt lat="48.39498" lon="7.2679">
        <ele>1096</ele>
        <time>2020-06-24T09:00:16.153Z</time>
      </trkpt>
      <trkpt lat="48.39497" lon="7.26789">
        <ele>1096</ele>
        <time>2020-06-24T09:00:17.152Z</time>
      </trkpt>
      <trkpt lat="48.39496" lon="7.26787">
        <ele>1095</ele>
        <time>2020-06-24T09:00:18.153Z</time>
      </trkpt>
      <trkpt lat="48.39495" lon="7.26786">
        <ele>1095</ele>
        <time>2020-06-24T09:00:19.152Z</time>
      </trkpt>
      <trkpt lat="48.39494" lon="7.26785">
        <ele>1094</ele>
        <time>2020-06-24T09:00:20.153Z</time>
      </trkpt>
      <trkpt lat="48.39493" lon="7.26784">
        <ele>1094</ele>
        <time>2020-06-24T09:00:21.153Z</time>
      </trkpt>
      <trkpt lat="48.39491" lon="7.26783">
        <ele>1094</ele>
        <time>2020-06-24T09:00:22.153Z</time>
      </trkpt>
      <trkpt lat="48.3949" lon="7.26783">
        <ele>1094</ele>
        <time>2020-06-24T09:00:23.153Z</time>
      </trkpt>
      <trkpt lat="48.39488" lon="7.26782">
        <ele>1094</ele>
        <time>2020-06-24T09:00:24.153Z</time>
      </trkpt>
      <trkpt lat="48.39487" lon="7.26781">
        <ele>1094</ele>
        <time>2020-06-24T09:00:25.153Z</time>
      </trkpt>
      <trkpt lat="48.39485" lon="7.2678">
        <ele>1094</ele>
        <time>2020-06-24T09:00:26.153Z</time>
      </trkpt>
      <trkpt lat="48.39484" lon="7.26779">
        <ele>1095</ele>
        <time>2020-06-24T09:00:27.153Z</time>
      </trkpt>
      <trkpt lat="48.39482" lon="7.26779">
        <ele>1095</ele>
        <time>2020-06-24T09:00:28.153Z</time>
      </trkpt>
      <trkpt lat="48.39481" lon="7.26779">
        <ele>1095</ele>
        <time>2020-06-24T09:00:29.152Z</time>
      </trkpt>
      <trkpt lat="48.3948" lon="7.26778">
        <ele>1096</ele>
        <time>2020-06-24T09:00:30.153Z</time>
      </trkpt>
      <trkpt lat="48.39479" lon="7.26778">
        <ele>1095</ele>
        <time>2020-06-24T09:00:31.153Z</time>
      </trkpt>
      <trkpt lat="48.39477" lon="7.26777">
        <ele>1095</ele>
        <time>2020-06-24T09:00:32.153Z</time>
      </trkpt>
      <trkpt lat="48.39477" lon="7.26776">
        <ele>1095</ele>
        <time>2020-06-24T09:00:33.153Z</time>
      </trkpt>
      <trkpt lat="48.39475" lon="7.26776">
        <ele>1095</ele>
        <time>2020-06-24T09:00:34.153Z</time>
      </trkpt>
      <trkpt lat="48.39474" lon="7.26775">
        <ele>1096</ele>
        <time>2020-06-24T09:00:35.153Z</time>
      </trkpt>
      <trkpt lat="48.39473" lon="7.26775">
        <ele>1097</ele>
        <time>2020-06-24T09:00:36.153Z</time>
      </trkpt>
      <trkpt lat="48.39472" lon="7.26774">
        <ele>1097</ele>
        <time>2020-06-24T09:00:37.153Z</time>
      </trkpt>
      <trkpt lat="48.39471" lon="7.26774">
        <ele>1097</ele>
        <time>2020-06-24T09:00:38.153Z</time>
      </trkpt>
      <trkpt lat="48.3947" lon="7.26773">
        <ele>1097</ele>
        <time>2020-06-24T09:00:39.153Z</time>
      </trkpt>
      <trkpt lat="48.3947" lon="7.26773">
        <ele>1097</ele>
        <time>2020-06-24T09:00:40.153Z</time>
      </trkpt>
      <trkpt lat="48.39469" lon="7.26772">
        <ele>1097</ele>
        <time>2020-06-24T09:00:41.153Z</time>
      </trkpt>
      <trkpt lat="48.39469" lon="7.26772">
        <ele>1097</ele>
        <time>2020-06-24T09:00:42.153Z</time>
      </trkpt>
      <trkpt lat="48.39468" lon="7.26772">
        <ele>1098</ele>
        <time>2020-06-24T09:00:43.152Z</time>
      </trkpt>
      <trkpt lat="48.39467" lon="7.26772">
        <ele>1098</ele>
        <time>2020-06-24T09:00:44.153Z</time>
      </trkpt>
      <trkpt lat="48.39465" lon="7.26772">
        <ele>1099</ele>
        <time>2020-06-24T09:00:45.153Z</time>
      </trkpt>
      <trkpt lat="48.39465" lon="7.26773">
        <ele>1100</ele>
        <time>2020-06-24T09:00:46.152Z</time>
      </trkpt>
      <trkpt lat="48.39464" lon="7.26773">
        <ele>1100</ele>
        <time>2020-06-24T09:00:47.153Z</time>
      </trkpt>
      <trkpt lat="48.39465" lon="7.26773">
        <ele>1100</ele>
        <time>2020-06-24T09:00:48.153Z</time>
      </trkpt>
      <trkpt lat="48.39464" lon="7.26773">
        <ele>1100</ele>
        <time>2020-06-24T09:00:49.152Z</time>
      </trkpt>
      <trkpt lat="48.39464" lon="7.26773">
        <ele>1099</ele>
        <time>2020-06-24T09:00:50.153Z</time>
      </trkpt>
      <trkpt lat="48.39461" lon="7.26781">
        <ele>1102</ele>
        <time>2020-06-24T09:00:51.153Z</time>
      </trkpt>
      <trkpt lat="48.39461" lon="7.26783">
        <ele>1102</ele>
        <time>2020-06-24T09:00:52.153Z</time>
      </trkpt>
      <trkpt lat="48.39461" lon="7.26786">
        <ele>1102</ele>
        <time>2020-06-24T09:00:53.153Z</time>
      </trkpt>
      <trkpt lat="48.39462" lon="7.26788">
        <ele>1101</ele>
        <time>2020-06-24T09:00:54.153Z</time>
      </trkpt>
      <trkpt lat="48.39461" lon="7.26791">
        <ele>1101</ele>
        <time>2020-06-24T09:00:55.153Z</time>
      </trkpt>
      <trkpt lat="48.3946" lon="7.26794">
        <ele>1101</ele>
        <time>2020-06-24T09:00:56.152Z</time>
      </trkpt>
      <trkpt lat="48.3946" lon="7.26797">
        <ele>1100</ele>
        <time>2020-06-24T09:00:57.153Z</time>
      </trkpt>
      <trkpt lat="48.39459" lon="7.26799">
        <ele>1099</ele>
        <time>2020-06-24T09:00:58.153Z</time>
      </trkpt>
      <trkpt lat="48.3946" lon="7.26801">
        <ele>1099</ele>
        <time>2020-06-24T09:00:59.153Z</time>
      </trkpt>
      <trkpt lat="48.3946" lon="7.26803">
        <ele>1098</ele>
        <time>2020-06-24T09:01:00.153Z</time>
      </trkpt>
      <trkpt lat="48.3946" lon="7.26805">
        <ele>1098</ele>
        <time>2020-06-24T09:01:01.153Z</time>
      </trkpt>
      <trkpt lat="48.3946" lon="7.26807">
        <ele>1097</ele>
        <time>2020-06-24T09:01:02.153Z</time>
      </trkpt>
      <trkpt lat="48.3946" lon="7.26809">
        <ele>1096</ele>
        <time>2020-06-24T09:01:03.153Z</time>
      </trkpt>
      <trkpt lat="48.3946" lon="7.26811">
        <ele>1096</ele>
        <time>2020-06-24T09:01:04.153Z</time>
      </trkpt>
      <trkpt lat="48.3946" lon="7.26813">
        <ele>1095</ele>
        <time>2020-06-24T09:01:05.153Z</time>
      </trkpt>
      <trkpt lat="48.3946" lon="7.26815">
        <ele>1095</ele>
        <time>2020-06-24T09:01:06.153Z</time>
      </trkpt>
      <trkpt lat="48.39459" lon="7.26816">
        <ele>1095</ele>
        <time>2020-06-24T09:01:07.152Z</time>
      </trkpt>
      <trkpt lat="48.39459" lon="7.26818">
        <ele>1095</ele>
        <time>2020-06-24T09:01:08.152Z</time>
      </trkpt>
      <trkpt lat="48.39459" lon="7.2682">
        <ele>1094</ele>
        <time>2020-06-24T09:01:09.153Z</time>
      </trkpt>
      <trkpt lat="48.39459" lon="7.26822">
        <ele>1094</ele>
        <time>2020-06-24T09:01:10.153Z</time>
      </trkpt>
      <trkpt lat="48.39458" lon="7.26824">
        <ele>1094</ele>
        <time>2020-06-24T09:01:11.153Z</time>
      </trkpt>
      <trkpt lat="48.39458" lon="7.26826">
        <ele>1093</ele>
        <time>2020-06-24T09:01:12.153Z</time>
      </trkpt>
      <trkpt lat="48.39458" lon="7.26827">
        <ele>1093</ele>
        <time>2020-06-24T09:01:13.152Z</time>
      </trkpt>
      <trkpt lat="48.39457" lon="7.26829">
        <ele>1093</ele>
        <time>2020-06-24T09:01:14.153Z</time>
      </trkpt>
      <trkpt lat="48.39457" lon="7.26831">
        <ele>1093</ele>
        <time>2020-06-24T09:01:15.153Z</time>
      </trkpt>
      <trkpt lat="48.39456" lon="7.26833">
        <ele>1093</ele>
        <time>2020-06-24T09:01:16.153Z</time>
      </trkpt>
      <trkpt lat="48.39455" lon="7.26835">
        <ele>1094</ele>
        <time>2020-06-24T09:01:17.153Z</time>
      </trkpt>
      <trkpt lat="48.39455" lon="7.26837">
        <ele>1094</ele>
        <time>2020-06-24T09:01:18.153Z</time>
      </trkpt>
      <trkpt lat="48.39455" lon="7.26839">
        <ele>1095</ele>
        <time>2020-06-24T09:01:19.152Z</time>
      </trkpt>
      <trkpt lat="48.39454" lon="7.26841">
        <ele>1096</ele>
        <time>2020-06-24T09:01:20.153Z</time>
      </trkpt>
      <trkpt lat="48.39454" lon="7.26843">
        <ele>1097</ele>
        <time>2020-06-24T09:01:21.153Z</time>
      </trkpt>
      <trkpt lat="48.39453" lon="7.26845">
        <ele>1097</ele>
        <time>2020-06-24T09:01:22.153Z</time>
      </trkpt>
      <trkpt lat="48.39452" lon="7.26847">
        <ele>1098</ele>
        <time>2020-06-24T09:01:23.153Z</time>
      </trkpt>
      <trkpt lat="48.39451" lon="7.26849">
        <ele>1099</ele>
        <time>2020-06-24T09:01:24.153Z</time>
      </trkpt>
      <trkpt lat="48.39451" lon="7.26851">
        <ele>1100</ele>
        <time>2020-06-24T09:01:25.153Z</time>
      </trkpt>
      <trkpt lat="48.39449" lon="7.26853">
        <ele>1100</ele>
        <time>2020-06-24T09:01:26.153Z</time>
      </trkpt>
      <trkpt lat="48.39448" lon="7.26854">
        <ele>1101</ele>
        <time>2020-06-24T09:01:27.153Z</time>
      </trkpt>
      <trkpt lat="48.39447" lon="7.26855">
        <ele>1101</ele>
        <time>2020-06-24T09:01:28.153Z</time>
      </trkpt>
      <trkpt lat="48.39446" lon="7.26855">
        <ele>1101</ele>
        <time>2020-06-24T09:01:29.153Z</time>
      </trkpt>
      <trkpt lat="48.39444" lon="7.26856">
        <ele>1102</ele>
        <time>2020-06-24T09:01:30.152Z</time>
      </trkpt>
      <trkpt lat="48.39443" lon="7.26857">
        <ele>1102</ele>
        <time>2020-06-24T09:01:31.152Z</time>
      </trkpt>
      <trkpt lat="48.39441" lon="7.26857">
        <ele>1102</ele>
        <time>2020-06-24T09:01:32.153Z</time>
      </trkpt>
      <trkpt lat="48.3944" lon="7.26857">
        <ele>1103</ele>
        <time>2020-06-24T09:01:33.153Z</time>
      </trkpt>
      <trkpt lat="48.39438" lon="7.26857">
        <ele>1103</ele>
        <time>2020-06-24T09:01:34.153Z</time>
      </trkpt>
      <trkpt lat="48.39437" lon="7.26857">
        <ele>1102</ele>
        <time>2020-06-24T09:01:35.152Z</time>
      </trkpt>
      <trkpt lat="48.39435" lon="7.26857">
        <ele>1102</ele>
        <time>2020-06-24T09:01:36.153Z</time>
      </trkpt>
      <trkpt lat="48.39434" lon="7.26858">
        <ele>1102</ele>
        <time>2020-06-24T09:01:37.153Z</time>
      </trkpt>
      <trkpt lat="48.39432" lon="7.26858">
        <ele>1102</ele>
        <time>2020-06-24T09:01:38.153Z</time>
      </trkpt>
      <trkpt lat="48.3943" lon="7.26859">
        <ele>1102</ele>
        <time>2020-06-24T09:01:39.152Z</time>
      </trkpt>
      <trkpt lat="48.39429" lon="7.26859">
        <ele>1102</ele>
        <time>2020-06-24T09:01:40.153Z</time>
      </trkpt>
      <trkpt lat="48.39427" lon="7.2686">
        <ele>1102</ele>
        <time>2020-06-24T09:01:41.153Z</time>
      </trkpt>
      <trkpt lat="48.39426" lon="7.26861">
        <ele>1102</ele>
        <time>2020-06-24T09:01:42.153Z</time>
      </trkpt>
      <trkpt lat="48.39425" lon="7.26861">
        <ele>1101</ele>
        <time>2020-06-24T09:01:43.153Z</time>
      </trkpt>
      <trkpt lat="48.39423" lon="7.26863">
        <ele>1101</ele>
        <time>2020-06-24T09:01:44.153Z</time>
      </trkpt>
      <trkpt lat="48.39422" lon="7.26864">
        <ele>1101</ele>
        <time>2020-06-24T09:01:45.153Z</time>
      </trkpt>
      <trkpt lat="48.39421" lon="7.26864">
        <ele>1101</ele>
        <time>2020-06-24T09:01:46.153Z</time>
      </trkpt>
      <trkpt lat="48.3942" lon="7.26865">
        <ele>1101</ele>
        <time>2020-06-24T09:01:47.153Z</time>
      </trkpt>
      <trkpt lat="48.39419" lon="7.26866">
        <ele>1101</ele>
        <time>2020-06-24T09:01:48.153Z</time>
      </trkpt>
      <trkpt lat="48.39418" lon="7.26867">
        <ele>1102</ele>
        <time>2020-06-24T09:01:49.153Z</time>
      </trkpt>
      <trkpt lat="48.39417" lon="7.26869">
        <ele>1102</ele>
        <time>2020-06-24T09:01:50.153Z</time>
      </trkpt>
      <trkpt lat="48.39415" lon="7.2687">
        <ele>1102</ele>
        <time>2020-06-24T09:01:51.153Z</time>
      </trkpt>
      <trkpt lat="48.39414" lon="7.26872">
        <ele>1102</ele>
        <time>2020-06-24T09:01:52.153Z</time>
      </trkpt>
      <trkpt lat="48.39413" lon="7.26874">
        <ele>1103</ele>
        <time>2020-06-24T09:01:53.153Z</time>
      </trkpt>
      <trkpt lat="48.39412" lon="7.26875">
        <ele>1103</ele>
        <time>2020-06-24T09:01:54.153Z</time>
      </trkpt>
      <trkpt lat="48.39411" lon="7.26877">
        <ele>1103</ele>
        <time>2020-06-24T09:01:55.153Z</time>
      </trkpt>
      <trkpt lat="48.3941" lon="7.26879">
        <ele>1104</ele>
        <time>2020-06-24T09:01:56.153Z</time>
      </trkpt>
      <trkpt lat="48.39409" lon="7.26881">
        <ele>1104</ele>
        <time>2020-06-24T09:01:57.153Z</time>
      </trkpt>
      <trkpt lat="48.39408" lon="7.26882">
        <ele>1104</ele>
        <time>2020-06-24T09:01:58.152Z</time>
      </trkpt>
      <trkpt lat="48.39407" lon="7.26884">
        <ele>1104</ele>
        <time>2020-06-24T09:01:59.153Z</time>
      </trkpt>
      <trkpt lat="48.39406" lon="7.26886">
        <ele>1104</ele>
        <time>2020-06-24T09:02:00.152Z</time>
      </trkpt>
      <trkpt lat="48.39405" lon="7.26887">
        <ele>1105</ele>
        <time>2020-06-24T09:02:01.152Z</time>
      </trkpt>
      <trkpt lat="48.39404" lon="7.26888">
        <ele>1105</ele>
        <time>2020-06-24T09:02:02.153Z</time>
      </trkpt>
      <trkpt lat="48.39402" lon="7.26888">
        <ele>1105</ele>
        <time>2020-06-24T09:02:03.153Z</time>
      </trkpt>
      <trkpt lat="48.39401" lon="7.26888">
        <ele>1105</ele>
        <time>2020-06-24T09:02:04.153Z</time>
      </trkpt>
      <trkpt lat="48.394" lon="7.26887">
        <ele>1105</ele>
        <time>2020-06-24T09:02:05.153Z</time>
      </trkpt>
      <trkpt lat="48.39399" lon="7.26886">
        <ele>1105</ele>
        <time>2020-06-24T09:02:06.152Z</time>
      </trkpt>
      <trkpt lat="48.39398" lon="7.26886">
        <ele>1105</ele>
        <time>2020-06-24T09:02:07.153Z</time>
      </trkpt>
      <trkpt lat="48.39396" lon="7.26885">
        <ele>1105</ele>
        <time>2020-06-24T09:02:08.153Z</time>
      </trkpt>
      <trkpt lat="48.39395" lon="7.26884">
        <ele>1105</ele>
        <time>2020-06-24T09:02:09.153Z</time>
      </trkpt>
      <trkpt lat="48.39394" lon="7.26883">
        <ele>1105</ele>
        <time>2020-06-24T09:02:10.152Z</time>
      </trkpt>
      <trkpt lat="48.39393" lon="7.26883">
        <ele>1105</ele>
        <time>2020-06-24T09:02:11.153Z</time>
      </trkpt>
      <trkpt lat="48.39391" lon="7.26882">
        <ele>1105</ele>
        <time>2020-06-24T09:02:12.152Z</time>
      </trkpt>
      <trkpt lat="48.3939" lon="7.26881">
        <ele>1105</ele>
        <time>2020-06-24T09:02:13.152Z</time>
      </trkpt>
      <trkpt lat="48.39389" lon="7.2688">
        <ele>1105</ele>
        <time>2020-06-24T09:02:14.152Z</time>
      </trkpt>
      <trkpt lat="48.39388" lon="7.26879">
        <ele>1104</ele>
        <time>2020-06-24T09:02:15.152Z</time>
      </trkpt>
      <trkpt lat="48.39386" lon="7.26878">
        <ele>1104</ele>
        <time>2020-06-24T09:02:16.153Z</time>
      </trkpt>
      <trkpt lat="48.39385" lon="7.26877">
        <ele>1103</ele>
        <time>2020-06-24T09:02:17.152Z</time>
      </trkpt>
      <trkpt lat="48.39384" lon="7.26877">
        <ele>1103</ele>
        <time>2020-06-24T09:02:18.153Z</time>
      </trkpt>
      <trkpt lat="48.39383" lon="7.26876">
        <ele>1102</ele>
        <time>2020-06-24T09:02:19.153Z</time>
      </trkpt>
      <trkpt lat="48.39381" lon="7.26876">
        <ele>1102</ele>
        <time>2020-06-24T09:02:20.152Z</time>
      </trkpt>
      <trkpt lat="48.3938" lon="7.26875">
        <ele>1102</ele>
        <time>2020-06-24T09:02:21.152Z</time>
      </trkpt>
      <trkpt lat="48.39379" lon="7.26875">
        <ele>1102</ele>
        <time>2020-06-24T09:02:22.153Z</time>
      </trkpt>
      <trkpt lat="48.39377" lon="7.26874">
        <ele>1102</ele>
        <time>2020-06-24T09:02:23.153Z</time>
      </trkpt>
      <trkpt lat="48.39376" lon="7.26874">
        <ele>1101</ele>
        <time>2020-06-24T09:02:24.153Z</time>
      </trkpt>
      <trkpt lat="48.39375" lon="7.26873">
        <ele>1101</ele>
        <time>2020-06-24T09:02:25.152Z</time>
      </trkpt>
      <trkpt lat="48.39374" lon="7.26872">
        <ele>1101</ele>
        <time>2020-06-24T09:02:26.153Z</time>
      </trkpt>
      <trkpt lat="48.39372" lon="7.26872">
        <ele>1101</ele>
        <time>2020-06-24T09:02:27.152Z</time>
      </trkpt>
      <trkpt lat="48.39371" lon="7.26871">
        <ele>1101</ele>
        <time>2020-06-24T09:02:28.153Z</time>
      </trkpt>
      <trkpt lat="48.39369" lon="7.26871">
        <ele>1101</ele>
        <time>2020-06-24T09:02:29.152Z</time>
      </trkpt>
      <trkpt lat="48.39368" lon="7.2687">
        <ele>1101</ele>
        <time>2020-06-24T09:02:30.153Z</time>
      </trkpt>
      <trkpt lat="48.39367" lon="7.2687">
        <ele>1101</ele>
        <time>2020-06-24T09:02:31.153Z</time>
      </trkpt>
      <trkpt lat="48.39365" lon="7.26869">
        <ele>1101</ele>
        <time>2020-06-24T09:02:32.152Z</time>
      </trkpt>
      <trkpt lat="48.39364" lon="7.26869">
        <ele>1101</ele>
        <time>2020-06-24T09:02:33.153Z</time>
      </trkpt>
      <trkpt lat="48.39363" lon="7.26868">
        <ele>1101</ele>
        <time>2020-06-24T09:02:34.153Z</time>
      </trkpt>
      <trkpt lat="48.39362" lon="7.26867">
        <ele>1100</ele>
        <time>2020-06-24T09:02:35.153Z</time>
      </trkpt>
      <trkpt lat="48.39361" lon="7.26867">
        <ele>1100</ele>
        <time>2020-06-24T09:02:36.153Z</time>
      </trkpt>
      <trkpt lat="48.3936" lon="7.26866">
        <ele>1099</ele>
        <time>2020-06-24T09:02:37.153Z</time>
      </trkpt>
      <trkpt lat="48.39359" lon="7.26865">
        <ele>1099</ele>
        <time>2020-06-24T09:02:38.153Z</time>
      </trkpt>
      <trkpt lat="48.39358" lon="7.26864">
        <ele>1099</ele>
        <time>2020-06-24T09:02:39.153Z</time>
      </trkpt>
      <trkpt lat="48.39356" lon="7.26863">
        <ele>1098</ele>
        <time>2020-06-24T09:02:40.153Z</time>
      </trkpt>
      <trkpt lat="48.39355" lon="7.26863">
        <ele>1098</ele>
        <time>2020-06-24T09:02:41.153Z</time>
      </trkpt>
      <trkpt lat="48.39354" lon="7.26862">
        <ele>1098</ele>
        <time>2020-06-24T09:02:42.153Z</time>
      </trkpt>
      <trkpt lat="48.39352" lon="7.26861">
        <ele>1098</ele>
        <time>2020-06-24T09:02:43.153Z</time>
      </trkpt>
      <trkpt lat="48.39351" lon="7.26861">
        <ele>1098</ele>
        <time>2020-06-24T09:02:44.153Z</time>
      </trkpt>
      <trkpt lat="48.3935" lon="7.26859">
        <ele>1097</ele>
        <time>2020-06-24T09:02:45.153Z</time>
      </trkpt>
      <trkpt lat="48.39349" lon="7.26859">
        <ele>1097</ele>
        <time>2020-06-24T09:02:46.153Z</time>
      </trkpt>
      <trkpt lat="48.39347" lon="7.26859">
        <ele>1097</ele>
        <time>2020-06-24T09:02:47.153Z</time>
      </trkpt>
      <trkpt lat="48.39346" lon="7.26859">
        <ele>1097</ele>
        <time>2020-06-24T09:02:48.152Z</time>
      </trkpt>
      <trkpt lat="48.39344" lon="7.26859">
        <ele>1096</ele>
        <time>2020-06-24T09:02:49.153Z</time>
      </trkpt>
      <trkpt lat="48.39342" lon="7.26859">
        <ele>1096</ele>
        <time>2020-06-24T09:02:50.153Z</time>
      </trkpt>
      <trkpt lat="48.39341" lon="7.26859">
        <ele>1096</ele>
        <time>2020-06-24T09:02:51.152Z</time>
      </trkpt>
      <trkpt lat="48.3934" lon="7.26859">
        <ele>1096</ele>
        <time>2020-06-24T09:02:52.152Z</time>
      </trkpt>
      <trkpt lat="48.39338" lon="7.26859">
        <ele>1096</ele>
        <time>2020-06-24T09:02:53.153Z</time>
      </trkpt>
      <trkpt lat="48.39337" lon="7.26859">
        <ele>1096</ele>
        <time>2020-06-24T09:02:54.153Z</time>
      </trkpt>
      <trkpt lat="48.39335" lon="7.26858">
        <ele>1097</ele>
        <time>2020-06-24T09:02:55.153Z</time>
      </trkpt>
      <trkpt lat="48.39334" lon="7.26858">
        <ele>1097</ele>
        <time>2020-06-24T09:02:56.153Z</time>
      </trkpt>
      <trkpt lat="48.39333" lon="7.26858">
        <ele>1097</ele>
        <time>2020-06-24T09:02:57.153Z</time>
      </trkpt>
      <trkpt lat="48.39331" lon="7.26857">
        <ele>1097</ele>
        <time>2020-06-24T09:02:58.153Z</time>
      </trkpt>
      <trkpt lat="48.3933" lon="7.26857">
        <ele>1097</ele>
        <time>2020-06-24T09:02:59.153Z</time>
      </trkpt>
      <trkpt lat="48.39328" lon="7.26856">
        <ele>1097</ele>
        <time>2020-06-24T09:03:00.153Z</time>
      </trkpt>
      <trkpt lat="48.39327" lon="7.26856">
        <ele>1097</ele>
        <time>2020-06-24T09:03:01.152Z</time>
      </trkpt>
      <trkpt lat="48.39326" lon="7.26855">
        <ele>1096</ele>
        <time>2020-06-24T09:03:02.153Z</time>
      </trkpt>
      <trkpt lat="48.39325" lon="7.26854">
        <ele>1096</ele>
        <time>2020-06-24T09:03:03.152Z</time>
      </trkpt>
      <trkpt lat="48.39323" lon="7.26854">
        <ele>1096</ele>
        <time>2020-06-24T09:03:04.153Z</time>
      </trkpt>
      <trkpt lat="48.3932" lon="7.26852">
        <ele>1096</ele>
        <time>2020-06-24T09:03:05.153Z</time>
      </trkpt>
      <trkpt lat="48.39319" lon="7.26851">
        <ele>1095</ele>
        <time>2020-06-24T09:03:06.153Z</time>
      </trkpt>
      <trkpt lat="48.39317" lon="7.2685">
        <ele>1095</ele>
        <time>2020-06-24T09:03:07.152Z</time>
      </trkpt>
      <trkpt lat="48.39316" lon="7.26849">
        <ele>1095</ele>
        <time>2020-06-24T09:03:08.153Z</time>
      </trkpt>
      <trkpt lat="48.39314" lon="7.26848">
        <ele>1095</ele>
        <time>2020-06-24T09:03:09.153Z</time>
      </trkpt>
      <trkpt lat="48.39313" lon="7.26846">
        <ele>1095</ele>
        <time>2020-06-24T09:03:10.152Z</time>
      </trkpt>
      <trkpt lat="48.39311" lon="7.26844">
        <ele>1096</ele>
        <time>2020-06-24T09:03:11.153Z</time>
      </trkpt>
      <trkpt lat="48.39309" lon="7.26844">
        <ele>1096</ele>
        <time>2020-06-24T09:03:12.153Z</time>
      </trkpt>
      <trkpt lat="48.39308" lon="7.26843">
        <ele>1095</ele>
        <time>2020-06-24T09:03:13.153Z</time>
      </trkpt>
      <trkpt lat="48.39306" lon="7.26842">
        <ele>1095</ele>
        <time>2020-06-24T09:03:14.153Z</time>
      </trkpt>
      <trkpt lat="48.39305" lon="7.26842">
        <ele>1095</ele>
        <time>2020-06-24T09:03:15.153Z</time>
      </trkpt>
      <trkpt lat="48.39303" lon="7.26842">
        <ele>1094</ele>
        <time>2020-06-24T09:03:16.153Z</time>
      </trkpt>
      <trkpt lat="48.39302" lon="7.26841">
        <ele>1094</ele>
        <time>2020-06-24T09:03:17.153Z</time>
      </trkpt>
      <trkpt lat="48.39301" lon="7.26841">
        <ele>1093</ele>
        <time>2020-06-24T09:03:18.153Z</time>
      </trkpt>
      <trkpt lat="48.393" lon="7.26841">
        <ele>1092</ele>
        <time>2020-06-24T09:03:19.152Z</time>
      </trkpt>
      <trkpt lat="48.39298" lon="7.26841">
        <ele>1091</ele>
        <time>2020-06-24T09:03:20.153Z</time>
      </trkpt>
      <trkpt lat="48.39297" lon="7.26841">
        <ele>1091</ele>
        <time>2020-06-24T09:03:21.153Z</time>
      </trkpt>
      <trkpt lat="48.39295" lon="7.26842">
        <ele>1091</ele>
        <time>2020-06-24T09:03:22.153Z</time>
      </trkpt>
      <trkpt lat="48.39294" lon="7.26842">
        <ele>1091</ele>
        <time>2020-06-24T09:03:23.153Z</time>
      </trkpt>
      <trkpt lat="48.39292" lon="7.26842">
        <ele>1091</ele>
        <time>2020-06-24T09:03:24.153Z</time>
      </trkpt>
      <trkpt lat="48.3929" lon="7.26842">
        <ele>1090</ele>
        <time>2020-06-24T09:03:25.153Z</time>
      </trkpt>
      <trkpt lat="48.39289" lon="7.26842">
        <ele>1090</ele>
        <time>2020-06-24T09:03:26.153Z</time>
      </trkpt>
      <trkpt lat="48.39287" lon="7.26842">
        <ele>1090</ele>
        <time>2020-06-24T09:03:27.153Z</time>
      </trkpt>
      <trkpt lat="48.39286" lon="7.26841">
        <ele>1089</ele>
        <time>2020-06-24T09:03:28.153Z</time>
      </trkpt>
      <trkpt lat="48.39285" lon="7.26841">
        <ele>1089</ele>
        <time>2020-06-24T09:03:29.153Z</time>
      </trkpt>
      <trkpt lat="48.39283" lon="7.2684">
        <ele>1088</ele>
        <time>2020-06-24T09:03:30.153Z</time>
      </trkpt>
      <trkpt lat="48.39282" lon="7.2684">
        <ele>1088</ele>
        <time>2020-06-24T09:03:31.152Z</time>
      </trkpt>
      <trkpt lat="48.39281" lon="7.26839">
        <ele>1087</ele>
        <time>2020-06-24T09:03:32.152Z</time>
      </trkpt>
      <trkpt lat="48.39279" lon="7.26838">
        <ele>1087</ele>
        <time>2020-06-24T09:03:33.153Z</time>
      </trkpt>
      <trkpt lat="48.39278" lon="7.26837">
        <ele>1087</ele>
        <time>2020-06-24T09:03:34.153Z</time>
      </trkpt>
      <trkpt lat="48.39277" lon="7.26835">
        <ele>1087</ele>
        <time>2020-06-24T09:03:35.153Z</time>
      </trkpt>
      <trkpt lat="48.39275" lon="7.26835">
        <ele>1087</ele>
        <time>2020-06-24T09:03:36.153Z</time>
      </trkpt>
      <trkpt lat="48.39274" lon="7.26835">
        <ele>1087</ele>
        <time>2020-06-24T09:03:37.153Z</time>
      </trkpt>
      <trkpt lat="48.39273" lon="7.26834">
        <ele>1087</ele>
        <time>2020-06-24T09:03:38.152Z</time>
      </trkpt>
      <trkpt lat="48.39272" lon="7.26834">
        <ele>1087</ele>
        <time>2020-06-24T09:03:39.153Z</time>
      </trkpt>
      <trkpt lat="48.39271" lon="7.26834">
        <ele>1087</ele>
        <time>2020-06-24T09:03:40.153Z</time>
      </trkpt>
      <trkpt lat="48.39269" lon="7.26834">
        <ele>1087</ele>
        <time>2020-06-24T09:03:41.153Z</time>
      </trkpt>
      <trkpt lat="48.39268" lon="7.26833">
        <ele>1088</ele>
        <time>2020-06-24T09:03:42.152Z</time>
      </trkpt>
      <trkpt lat="48.39267" lon="7.26833">
        <ele>1088</ele>
        <time>2020-06-24T09:03:43.153Z</time>
      </trkpt>
      <trkpt lat="48.39266" lon="7.26833">
        <ele>1088</ele>
        <time>2020-06-24T09:03:44.152Z</time>
      </trkpt>
      <trkpt lat="48.39265" lon="7.26833">
        <ele>1088</ele>
        <time>2020-06-24T09:03:45.153Z</time>
      </trkpt>
      <trkpt lat="48.39263" lon="7.26832">
        <ele>1089</ele>
        <time>2020-06-24T09:03:46.152Z</time>
      </trkpt>
      <trkpt lat="48.39262" lon="7.26831">
        <ele>1089</ele>
        <time>2020-06-24T09:03:47.153Z</time>
      </trkpt>
      <trkpt lat="48.39261" lon="7.26831">
        <ele>1088</ele>
        <time>2020-06-24T09:03:48.153Z</time>
      </trkpt>
      <trkpt lat="48.3926" lon="7.2683">
        <ele>1088</ele>
        <time>2020-06-24T09:03:49.153Z</time>
      </trkpt>
      <trkpt lat="48.39259" lon="7.2683">
        <ele>1087</ele>
        <time>2020-06-24T09:03:50.152Z</time>
      </trkpt>
      <trkpt lat="48.39257" lon="7.2683">
        <ele>1086</ele>
        <time>2020-06-24T09:03:51.153Z</time>
      </trkpt>
      <trkpt lat="48.39256" lon="7.2683">
        <ele>1086</ele>
        <time>2020-06-24T09:03:52.153Z</time>
      </trkpt>
      <trkpt lat="48.39255" lon="7.26829">
        <ele>1086</ele>
        <time>2020-06-24T09:03:53.153Z</time>
      </trkpt>
      <trkpt lat="48.39253" lon="7.26829">
        <ele>1086</ele>
        <time>2020-06-24T09:03:54.153Z</time>
      </trkpt>
      <trkpt lat="48.39252" lon="7.26829">
        <ele>1086</ele>
        <time>2020-06-24T09:03:55.153Z</time>
      </trkpt>
      <trkpt lat="48.39252" lon="7.26829">
        <ele>1086</ele>
        <time>2020-06-24T09:03:56.153Z</time>
      </trkpt>
      <trkpt lat="48.3925" lon="7.26828">
        <ele>1087</ele>
        <time>2020-06-24T09:03:57.153Z</time>
      </trkpt>
      <trkpt lat="48.39249" lon="7.26827">
        <ele>1088</ele>
        <time>2020-06-24T09:03:58.152Z</time>
      </trkpt>
      <trkpt lat="48.39248" lon="7.26827">
        <ele>1088</ele>
        <time>2020-06-24T09:03:59.152Z</time>
      </trkpt>
      <trkpt lat="48.39247" lon="7.26826">
        <ele>1088</ele>
        <time>2020-06-24T09:04:00.153Z</time>
      </trkpt>
      <trkpt lat="48.39246" lon="7.26826">
        <ele>1089</ele>
        <time>2020-06-24T09:04:01.152Z</time>
      </trkpt>
      <trkpt lat="48.39245" lon="7.26826">
        <ele>1089</ele>
        <time>2020-06-24T09:04:02.153Z</time>
      </trkpt>
      <trkpt lat="48.39243" lon="7.26826">
        <ele>1088</ele>
        <time>2020-06-24T09:04:03.153Z</time>
      </trkpt>
      <trkpt lat="48.39242" lon="7.26826">
        <ele>1088</ele>
        <time>2020-06-24T09:04:04.152Z</time>
      </trkpt>
      <trkpt lat="48.39241" lon="7.26825">
        <ele>1088</ele>
        <time>2020-06-24T09:04:05.152Z</time>
      </trkpt>
      <trkpt lat="48.3924" lon="7.26824">
        <ele>1088</ele>
        <time>2020-06-24T09:04:06.153Z</time>
      </trkpt>
      <trkpt lat="48.39239" lon="7.26823">
        <ele>1088</ele>
        <time>2020-06-24T09:04:07.153Z</time>
      </trkpt>
      <trkpt lat="48.39239" lon="7.26824">
        <ele>1088</ele>
        <time>2020-06-24T09:04:08.153Z</time>
      </trkpt>
      <trkpt lat="48.39238" lon="7.26824">
        <ele>1088</ele>
        <time>2020-06-24T09:04:09.153Z</time>
      </trkpt>
      <trkpt lat="48.39238" lon="7.26825">
        <ele>1088</ele>
        <time>2020-06-24T09:04:10.153Z</time>
      </trkpt>
      <trkpt lat="48.39237" lon="7.26824">
        <ele>1088</ele>
        <time>2020-06-24T09:04:11.153Z</time>
      </trkpt>
      <trkpt lat="48.39236" lon="7.26824">
        <ele>1088</ele>
        <time>2020-06-24T09:04:12.153Z</time>
      </trkpt>
      <trkpt lat="48.39235" lon="7.26823">
        <ele>1089</ele>
        <time>2020-06-24T09:04:13.152Z</time>
      </trkpt>
      <trkpt lat="48.39233" lon="7.26822">
        <ele>1089</ele>
        <time>2020-06-24T09:04:14.152Z</time>
      </trkpt>
      <trkpt lat="48.39232" lon="7.26822">
        <ele>1089</ele>
        <time>2020-06-24T09:04:15.153Z</time>
      </trkpt>
      <trkpt lat="48.3923" lon="7.26822">
        <ele>1089</ele>
        <time>2020-06-24T09:04:16.153Z</time>
      </trkpt>
      <trkpt lat="48.39228" lon="7.26822">
        <ele>1090</ele>
        <time>2020-06-24T09:04:17.153Z</time>
      </trkpt>
      <trkpt lat="48.39226" lon="7.26822">
        <ele>1090</ele>
        <time>2020-06-24T09:04:18.152Z</time>
      </trkpt>
      <trkpt lat="48.39224" lon="7.26821">
        <ele>1090</ele>
        <time>2020-06-24T09:04:19.153Z</time>
      </trkpt>
      <trkpt lat="48.39223" lon="7.2682">
        <ele>1090</ele>
        <time>2020-06-24T09:04:20.153Z</time>
      </trkpt>
      <trkpt lat="48.39221" lon="7.2682">
        <ele>1090</ele>
        <time>2020-06-24T09:04:21.153Z</time>
      </trkpt>
      <trkpt lat="48.3922" lon="7.2682">
        <ele>1089</ele>
        <time>2020-06-24T09:04:22.152Z</time>
      </trkpt>
      <trkpt lat="48.39219" lon="7.2682">
        <ele>1089</ele>
        <time>2020-06-24T09:04:23.153Z</time>
      </trkpt>
      <trkpt lat="48.39218" lon="7.26819">
        <ele>1089</ele>
        <time>2020-06-24T09:04:24.153Z</time>
      </trkpt>
      <trkpt lat="48.39217" lon="7.2682">
        <ele>1089</ele>
        <time>2020-06-24T09:04:25.153Z</time>
      </trkpt>
      <trkpt lat="48.39215" lon="7.26819">
        <ele>1089</ele>
        <time>2020-06-24T09:04:26.153Z</time>
      </trkpt>
      <trkpt lat="48.39214" lon="7.26818">
        <ele>1089</ele>
        <time>2020-06-24T09:04:27.152Z</time>
      </trkpt>
      <trkpt lat="48.39213" lon="7.26817">
        <ele>1089</ele>
        <time>2020-06-24T09:04:28.153Z</time>
      </trkpt>
      <trkpt lat="48.39211" lon="7.26816">
        <ele>1089</ele>
        <time>2020-06-24T09:04:29.152Z</time>
      </trkpt>
      <trkpt lat="48.3921" lon="7.26816">
        <ele>1089</ele>
        <time>2020-06-24T09:04:30.153Z</time>
      </trkpt>
      <trkpt lat="48.39208" lon="7.26815">
        <ele>1089</ele>
        <time>2020-06-24T09:04:31.153Z</time>
      </trkpt>
      <trkpt lat="48.39207" lon="7.26814">
        <ele>1090</ele>
        <time>2020-06-24T09:04:32.153Z</time>
      </trkpt>
      <trkpt lat="48.39206" lon="7.26814">
        <ele>1090</ele>
        <time>2020-06-24T09:04:33.153Z</time>
      </trkpt>
      <trkpt lat="48.39205" lon="7.26813">
        <ele>1091</ele>
        <time>2020-06-24T09:04:34.153Z</time>
      </trkpt>
      <trkpt lat="48.39205" lon="7.26813">
        <ele>1091</ele>
        <time>2020-06-24T09:04:35.153Z</time>
      </trkpt>
      <trkpt lat="48.39204" lon="7.26813">
        <ele>1091</ele>
        <time>2020-06-24T09:04:36.153Z</time>
      </trkpt>
      <trkpt lat="48.39203" lon="7.26812">
        <ele>1090</ele>
        <time>2020-06-24T09:04:37.153Z</time>
      </trkpt>
      <trkpt lat="48.392" lon="7.26811">
        <ele>1089</ele>
        <time>2020-06-24T09:04:38.153Z</time>
      </trkpt>
      <trkpt lat="48.39198" lon="7.2681">
        <ele>1089</ele>
        <time>2020-06-24T09:04:39.153Z</time>
      </trkpt>
      <trkpt lat="48.39197" lon="7.26809">
        <ele>1088</ele>
        <time>2020-06-24T09:04:40.153Z</time>
      </trkpt>
      <trkpt lat="48.39195" lon="7.26807">
        <ele>1088</ele>
        <time>2020-06-24T09:04:41.152Z</time>
      </trkpt>
      <trkpt lat="48.39194" lon="7.26806">
        <ele>1087</ele>
        <time>2020-06-24T09:04:42.153Z</time>
      </trkpt>
      <trkpt lat="48.39192" lon="7.26804">
        <ele>1087</ele>
        <time>2020-06-24T09:04:43.153Z</time>
      </trkpt>
      <trkpt lat="48.3919" lon="7.26804">
        <ele>1087</ele>
        <time>2020-06-24T09:04:44.152Z</time>
      </trkpt>
      <trkpt lat="48.39189" lon="7.26804">
        <ele>1087</ele>
        <time>2020-06-24T09:04:45.153Z</time>
      </trkpt>
      <trkpt lat="48.39188" lon="7.26804">
        <ele>1086</ele>
        <time>2020-06-24T09:04:46.152Z</time>
      </trkpt>
      <trkpt lat="48.39187" lon="7.26803">
        <ele>1086</ele>
        <time>2020-06-24T09:04:47.152Z</time>
      </trkpt>
      <trkpt lat="48.39186" lon="7.26803">
        <ele>1086</ele>
        <time>2020-06-24T09:04:48.152Z</time>
      </trkpt>
      <trkpt lat="48.39185" lon="7.26802">
        <ele>1085</ele>
        <time>2020-06-24T09:04:49.152Z</time>
      </trkpt>
      <trkpt lat="48.39183" lon="7.26802">
        <ele>1085</ele>
        <time>2020-06-24T09:04:50.153Z</time>
      </trkpt>
      <trkpt lat="48.39182" lon="7.26802">
        <ele>1084</ele>
        <time>2020-06-24T09:04:51.153Z</time>
      </trkpt>
      <trkpt lat="48.3918" lon="7.26801">
        <ele>1085</ele>
        <time>2020-06-24T09:04:52.153Z</time>
      </trkpt>
      <trkpt lat="48.39178" lon="7.268">
        <ele>1085</ele>
        <time>2020-06-24T09:04:53.152Z</time>
      </trkpt>
      <trkpt lat="48.39177" lon="7.26799">
        <ele>1085</ele>
        <time>2020-06-24T09:04:54.153Z</time>
      </trkpt>
      <trkpt lat="48.39176" lon="7.26798">
        <ele>1084</ele>
        <time>2020-06-24T09:04:55.153Z</time>
      </trkpt>
      <trkpt lat="48.39175" lon="7.26798">
        <ele>1084</ele>
        <time>2020-06-24T09:04:56.153Z</time>
      </trkpt>
      <trkpt lat="48.39173" lon="7.26797">
        <ele>1084</ele>
        <time>2020-06-24T09:04:57.152Z</time>
      </trkpt>
      <trkpt lat="48.39172" lon="7.26796">
        <ele>1084</ele>
        <time>2020-06-24T09:04:58.152Z</time>
      </trkpt>
      <trkpt lat="48.39171" lon="7.26794">
        <ele>1084</ele>
        <time>2020-06-24T09:04:59.152Z</time>
      </trkpt>
      <trkpt lat="48.3917" lon="7.26793">
        <ele>1083</ele>
        <time>2020-06-24T09:05:00.153Z</time>
      </trkpt>
      <trkpt lat="48.39168" lon="7.26791">
        <ele>1082</ele>
        <time>2020-06-24T09:05:01.153Z</time>
      </trkpt>
      <trkpt lat="48.39167" lon="7.26789">
        <ele>1081</ele>
        <time>2020-06-24T09:05:02.153Z</time>
      </trkpt>
      <trkpt lat="48.39165" lon="7.26787">
        <ele>1081</ele>
        <time>2020-06-24T09:05:03.152Z</time>
      </trkpt>
      <trkpt lat="48.39164" lon="7.26785">
        <ele>1081</ele>
        <time>2020-06-24T09:05:04.153Z</time>
      </trkpt>
      <trkpt lat="48.39163" lon="7.26784">
        <ele>1080</ele>
        <time>2020-06-24T09:05:05.153Z</time>
      </trkpt>
      <trkpt lat="48.39161" lon="7.26783">
        <ele>1080</ele>
        <time>2020-06-24T09:05:06.153Z</time>
      </trkpt>
      <trkpt lat="48.3916" lon="7.26782">
        <ele>1079</ele>
        <time>2020-06-24T09:05:07.153Z</time>
      </trkpt>
      <trkpt lat="48.39159" lon="7.26781">
        <ele>1079</ele>
        <time>2020-06-24T09:05:08.153Z</time>
      </trkpt>
      <trkpt lat="48.39158" lon="7.2678">
        <ele>1078</ele>
        <time>2020-06-24T09:05:09.153Z</time>
      </trkpt>
      <trkpt lat="48.39157" lon="7.26779">
        <ele>1077</ele>
        <time>2020-06-24T09:05:10.153Z</time>
      </trkpt>
      <trkpt lat="48.39156" lon="7.26778">
        <ele>1077</ele>
        <time>2020-06-24T09:05:11.153Z</time>
      </trkpt>
      <trkpt lat="48.39154" lon="7.26777">
        <ele>1076</ele>
        <time>2020-06-24T09:05:12.153Z</time>
      </trkpt>
      <trkpt lat="48.39153" lon="7.26777">
        <ele>1076</ele>
        <time>2020-06-24T09:05:13.152Z</time>
      </trkpt>
      <trkpt lat="48.39152" lon="7.26776">
        <ele>1077</ele>
        <time>2020-06-24T09:05:14.152Z</time>
      </trkpt>
      <trkpt lat="48.3915" lon="7.26776">
        <ele>1077</ele>
        <time>2020-06-24T09:05:15.153Z</time>
      </trkpt>
      <trkpt lat="48.39149" lon="7.26775">
        <ele>1077</ele>
        <time>2020-06-24T09:05:16.153Z</time>
      </trkpt>
      <trkpt lat="48.39147" lon="7.26775">
        <ele>1077</ele>
        <time>2020-06-24T09:05:17.153Z</time>
      </trkpt>
      <trkpt lat="48.39146" lon="7.26774">
        <ele>1077</ele>
        <time>2020-06-24T09:05:18.153Z</time>
      </trkpt>
      <trkpt lat="48.39144" lon="7.26773">
        <ele>1077</ele>
        <time>2020-06-24T09:05:19.153Z</time>
      </trkpt>
      <trkpt lat="48.39143" lon="7.26772">
        <ele>1077</ele>
        <time>2020-06-24T09:05:20.153Z</time>
      </trkpt>
      <trkpt lat="48.39142" lon="7.26771">
        <ele>1077</ele>
        <time>2020-06-24T09:05:21.152Z</time>
      </trkpt>
      <trkpt lat="48.39141" lon="7.26769">
        <ele>1077</ele>
        <time>2020-06-24T09:05:22.152Z</time>
      </trkpt>
      <trkpt lat="48.3914" lon="7.26768">
        <ele>1077</ele>
        <time>2020-06-24T09:05:23.152Z</time>
      </trkpt>
      <trkpt lat="48.39138" lon="7.26766">
        <ele>1076</ele>
        <time>2020-06-24T09:05:24.152Z</time>
      </trkpt>
      <trkpt lat="48.39137" lon="7.26766">
        <ele>1076</ele>
        <time>2020-06-24T09:05:25.153Z</time>
      </trkpt>
      <trkpt lat="48.39135" lon="7.26765">
        <ele>1076</ele>
        <time>2020-06-24T09:05:26.153Z</time>
      </trkpt>
      <trkpt lat="48.39133" lon="7.26764">
        <ele>1076</ele>
        <time>2020-06-24T09:05:27.153Z</time>
      </trkpt>
      <trkpt lat="48.39132" lon="7.26763">
        <ele>1076</ele>
        <time>2020-06-24T09:05:28.153Z</time>
      </trkpt>
      <trkpt lat="48.39131" lon="7.26763">
        <ele>1076</ele>
        <time>2020-06-24T09:05:29.153Z</time>
      </trkpt>
      <trkpt lat="48.39129" lon="7.26761">
        <ele>1076</ele>
        <time>2020-06-24T09:05:30.153Z</time>
      </trkpt>
      <trkpt lat="48.39128" lon="7.2676">
        <ele>1076</ele>
        <time>2020-06-24T09:05:31.153Z</time>
      </trkpt>
      <trkpt lat="48.39127" lon="7.26759">
        <ele>1076</ele>
        <time>2020-06-24T09:05:32.152Z</time>
      </trkpt>
      <trkpt lat="48.39125" lon="7.26759">
        <ele>1076</ele>
        <time>2020-06-24T09:05:33.153Z</time>
      </trkpt>
      <trkpt lat="48.39124" lon="7.26758">
        <ele>1077</ele>
        <time>2020-06-24T09:05:34.153Z</time>
      </trkpt>
      <trkpt lat="48.39123" lon="7.26757">
        <ele>1077</ele>
        <time>2020-06-24T09:05:35.153Z</time>
      </trkpt>
      <trkpt lat="48.39121" lon="7.26757">
        <ele>1077</ele>
        <time>2020-06-24T09:05:36.152Z</time>
      </trkpt>
      <trkpt lat="48.3912" lon="7.26756">
        <ele>1077</ele>
        <time>2020-06-24T09:05:37.152Z</time>
      </trkpt>
      <trkpt lat="48.39118" lon="7.26756">
        <ele>1077</ele>
        <time>2020-06-24T09:05:38.153Z</time>
      </trkpt>
      <trkpt lat="48.39117" lon="7.26756">
        <ele>1077</ele>
        <time>2020-06-24T09:05:39.153Z</time>
      </trkpt>
      <trkpt lat="48.39116" lon="7.26755">
        <ele>1077</ele>
        <time>2020-06-24T09:05:40.153Z</time>
      </trkpt>
      <trkpt lat="48.39114" lon="7.26754">
        <ele>1076</ele>
        <time>2020-06-24T09:05:41.152Z</time>
      </trkpt>
      <trkpt lat="48.39113" lon="7.26753">
        <ele>1075</ele>
        <time>2020-06-24T09:05:42.153Z</time>
      </trkpt>
      <trkpt lat="48.39112" lon="7.26752">
        <ele>1075</ele>
        <time>2020-06-24T09:05:43.153Z</time>
      </trkpt>
      <trkpt lat="48.39111" lon="7.26751">
        <ele>1074</ele>
        <time>2020-06-24T09:05:44.153Z</time>
      </trkpt>
      <trkpt lat="48.3911" lon="7.2675">
        <ele>1073</ele>
        <time>2020-06-24T09:05:45.153Z</time>
      </trkpt>
      <trkpt lat="48.39108" lon="7.26749">
        <ele>1072</ele>
        <time>2020-06-24T09:05:46.152Z</time>
      </trkpt>
      <trkpt lat="48.39107" lon="7.26748">
        <ele>1071</ele>
        <time>2020-06-24T09:05:47.153Z</time>
      </trkpt>
      <trkpt lat="48.39106" lon="7.26747">
        <ele>1071</ele>
        <time>2020-06-24T09:05:48.152Z</time>
      </trkpt>
      <trkpt lat="48.39104" lon="7.26746">
        <ele>1070</ele>
        <time>2020-06-24T09:05:49.152Z</time>
      </trkpt>
      <trkpt lat="48.39103" lon="7.26745">
        <ele>1070</ele>
        <time>2020-06-24T09:05:50.153Z</time>
      </trkpt>
      <trkpt lat="48.39102" lon="7.26744">
        <ele>1070</ele>
        <time>2020-06-24T09:05:51.153Z</time>
      </trkpt>
      <trkpt lat="48.391" lon="7.26744">
        <ele>1070</ele>
        <time>2020-06-24T09:05:52.153Z</time>
      </trkpt>
      <trkpt lat="48.39099" lon="7.26743">
        <ele>1070</ele>
        <time>2020-06-24T09:05:53.153Z</time>
      </trkpt>
      <trkpt lat="48.39098" lon="7.26743">
        <ele>1070</ele>
        <time>2020-06-24T09:05:54.152Z</time>
      </trkpt>
      <trkpt lat="48.39097" lon="7.26742">
        <ele>1070</ele>
        <time>2020-06-24T09:05:55.153Z</time>
      </trkpt>
      <trkpt lat="48.39095" lon="7.26742">
        <ele>1069</ele>
        <time>2020-06-24T09:05:56.153Z</time>
      </trkpt>
      <trkpt lat="48.39094" lon="7.26741">
        <ele>1068</ele>
        <time>2020-06-24T09:05:57.153Z</time>
      </trkpt>
      <trkpt lat="48.39093" lon="7.2674">
        <ele>1067</ele>
        <time>2020-06-24T09:05:58.152Z</time>
      </trkpt>
      <trkpt lat="48.39092" lon="7.26739">
        <ele>1067</ele>
        <time>2020-06-24T09:05:59.153Z</time>
      </trkpt>
      <trkpt lat="48.3909" lon="7.26738">
        <ele>1067</ele>
        <time>2020-06-24T09:06:00.153Z</time>
      </trkpt>
      <trkpt lat="48.39089" lon="7.26738">
        <ele>1067</ele>
        <time>2020-06-24T09:06:01.153Z</time>
      </trkpt>
      <trkpt lat="48.39088" lon="7.26737">
        <ele>1067</ele>
        <time>2020-06-24T09:06:02.153Z</time>
      </trkpt>
      <trkpt lat="48.39086" lon="7.26736">
        <ele>1068</ele>
        <time>2020-06-24T09:06:03.152Z</time>
      </trkpt>
      <trkpt lat="48.39085" lon="7.26735">
        <ele>1068</ele>
        <time>2020-06-24T09:06:04.152Z</time>
      </trkpt>
      <trkpt lat="48.39084" lon="7.26735">
        <ele>1068</ele>
        <time>2020-06-24T09:06:05.153Z</time>
      </trkpt>
      <trkpt lat="48.39082" lon="7.26734">
        <ele>1069</ele>
        <time>2020-06-24T09:06:06.153Z</time>
      </trkpt>
      <trkpt lat="48.39081" lon="7.26733">
        <ele>1069</ele>
        <time>2020-06-24T09:06:07.153Z</time>
      </trkpt>
      <trkpt lat="48.3908" lon="7.26733">
        <ele>1069</ele>
        <time>2020-06-24T09:06:08.153Z</time>
      </trkpt>
      <trkpt lat="48.39079" lon="7.26732">
        <ele>1069</ele>
        <time>2020-06-24T09:06:09.153Z</time>
      </trkpt>
      <trkpt lat="48.39077" lon="7.26731">
        <ele>1069</ele>
        <time>2020-06-24T09:06:10.152Z</time>
      </trkpt>
      <trkpt lat="48.39076" lon="7.26731">
        <ele>1068</ele>
        <time>2020-06-24T09:06:11.152Z</time>
      </trkpt>
      <trkpt lat="48.39075" lon="7.2673">
        <ele>1068</ele>
        <time>2020-06-24T09:06:12.153Z</time>
      </trkpt>
      <trkpt lat="48.39073" lon="7.26729">
        <ele>1069</ele>
        <time>2020-06-24T09:06:13.152Z</time>
      </trkpt>
      <trkpt lat="48.39072" lon="7.26728">
        <ele>1069</ele>
        <time>2020-06-24T09:06:14.153Z</time>
      </trkpt>
      <trkpt lat="48.39071" lon="7.26727">
        <ele>1069</ele>
        <time>2020-06-24T09:06:15.152Z</time>
      </trkpt>
      <trkpt lat="48.3907" lon="7.26726">
        <ele>1069</ele>
        <time>2020-06-24T09:06:16.153Z</time>
      </trkpt>
      <trkpt lat="48.39069" lon="7.26725">
        <ele>1069</ele>
        <time>2020-06-24T09:06:17.153Z</time>
      </trkpt>
      <trkpt lat="48.39068" lon="7.26724">
        <ele>1069</ele>
        <time>2020-06-24T09:06:18.153Z</time>
      </trkpt>
      <trkpt lat="48.39066" lon="7.26723">
        <ele>1069</ele>
        <time>2020-06-24T09:06:19.152Z</time>
      </trkpt>
      <trkpt lat="48.39065" lon="7.26722">
        <ele>1070</ele>
        <time>2020-06-24T09:06:20.153Z</time>
      </trkpt>
      <trkpt lat="48.39064" lon="7.26721">
        <ele>1071</ele>
        <time>2020-06-24T09:06:21.152Z</time>
      </trkpt>
      <trkpt lat="48.39063" lon="7.2672">
        <ele>1070</ele>
        <time>2020-06-24T09:06:22.153Z</time>
      </trkpt>
      <trkpt lat="48.39061" lon="7.26718">
        <ele>1070</ele>
        <time>2020-06-24T09:06:23.153Z</time>
      </trkpt>
      <trkpt lat="48.3906" lon="7.26717">
        <ele>1069</ele>
        <time>2020-06-24T09:06:24.153Z</time>
      </trkpt>
      <trkpt lat="48.39059" lon="7.26715">
        <ele>1069</ele>
        <time>2020-06-24T09:06:25.153Z</time>
      </trkpt>
      <trkpt lat="48.39058" lon="7.26714">
        <ele>1068</ele>
        <time>2020-06-24T09:06:26.153Z</time>
      </trkpt>
      <trkpt lat="48.39057" lon="7.26713">
        <ele>1068</ele>
        <time>2020-06-24T09:06:27.153Z</time>
      </trkpt>
      <trkpt lat="48.39056" lon="7.26712">
        <ele>1067</ele>
        <time>2020-06-24T09:06:28.153Z</time>
      </trkpt>
      <trkpt lat="48.39054" lon="7.26711">
        <ele>1067</ele>
        <time>2020-06-24T09:06:29.153Z</time>
      </trkpt>
      <trkpt lat="48.39053" lon="7.26709">
        <ele>1067</ele>
        <time>2020-06-24T09:06:30.153Z</time>
      </trkpt>
      <trkpt lat="48.39052" lon="7.26708">
        <ele>1066</ele>
        <time>2020-06-24T09:06:31.153Z</time>
      </trkpt>
      <trkpt lat="48.39052" lon="7.26708">
        <ele>1066</ele>
        <time>2020-06-24T09:06:32.153Z</time>
      </trkpt>
      <trkpt lat="48.39051" lon="7.26707">
        <ele>1065</ele>
        <time>2020-06-24T09:06:33.153Z</time>
      </trkpt>
      <trkpt lat="48.3905" lon="7.26707">
        <ele>1064</ele>
        <time>2020-06-24T09:06:34.153Z</time>
      </trkpt>
      <trkpt lat="48.3905" lon="7.26707">
        <ele>1064</ele>
        <time>2020-06-24T09:06:35.153Z</time>
      </trkpt>
      <trkpt lat="48.3905" lon="7.26706">
        <ele>1063</ele>
        <time>2020-06-24T09:06:36.152Z</time>
      </trkpt>
      <trkpt lat="48.3905" lon="7.26706">
        <ele>1062</ele>
        <time>2020-06-24T09:06:37.153Z</time>
      </trkpt>
      <trkpt lat="48.39054" lon="7.26701">
        <ele>1061</ele>
        <time>2020-06-24T09:06:38.152Z</time>
      </trkpt>
      <trkpt lat="48.39054" lon="7.26702">
        <ele>1061</ele>
        <time>2020-06-24T09:06:39.152Z</time>
      </trkpt>
      <trkpt lat="48.39054" lon="7.26702">
        <ele>1061</ele>
        <time>2020-06-24T09:06:40.152Z</time>
      </trkpt>
      <trkpt lat="48.39054" lon="7.26701">
        <ele>1062</ele>
        <time>2020-06-24T09:06:41.152Z</time>
      </trkpt>
      <trkpt lat="48.39052" lon="7.26695">
        <ele>1056</ele>
        <time>2020-06-24T09:06:42.153Z</time>
      </trkpt>
      <trkpt lat="48.3905" lon="7.26693">
        <ele>1056</ele>
        <time>2020-06-24T09:06:43.153Z</time>
      </trkpt>
      <trkpt lat="48.39049" lon="7.26691">
        <ele>1056</ele>
        <time>2020-06-24T09:06:44.152Z</time>
      </trkpt>
      <trkpt lat="48.39047" lon="7.2669">
        <ele>1056</ele>
        <time>2020-06-24T09:06:45.153Z</time>
      </trkpt>
      <trkpt lat="48.39045" lon="7.26688">
        <ele>1056</ele>
        <time>2020-06-24T09:06:46.153Z</time>
      </trkpt>
      <trkpt lat="48.39044" lon="7.26686">
        <ele>1056</ele>
        <time>2020-06-24T09:06:47.153Z</time>
      </trkpt>
      <trkpt lat="48.39043" lon="7.26684">
        <ele>1056</ele>
        <time>2020-06-24T09:06:48.153Z</time>
      </trkpt>
      <trkpt lat="48.39042" lon="7.26683">
        <ele>1056</ele>
        <time>2020-06-24T09:06:49.153Z</time>
      </trkpt>
      <trkpt lat="48.39041" lon="7.26681">
        <ele>1056</ele>
        <time>2020-06-24T09:06:50.152Z</time>
      </trkpt>
      <trkpt lat="48.39039" lon="7.2668">
        <ele>1056</ele>
        <time>2020-06-24T09:06:51.153Z</time>
      </trkpt>
      <trkpt lat="48.39038" lon="7.26679">
        <ele>1056</ele>
        <time>2020-06-24T09:06:52.153Z</time>
      </trkpt>
      <trkpt lat="48.39037" lon="7.26676">
        <ele>1056</ele>
        <time>2020-06-24T09:06:53.152Z</time>
      </trkpt>
      <trkpt lat="48.39036" lon="7.26674">
        <ele>1056</ele>
        <time>2020-06-24T09:06:54.152Z</time>
      </trkpt>
      <trkpt lat="48.39034" lon="7.26672">
        <ele>1056</ele>
        <time>2020-06-24T09:06:55.153Z</time>
      </trkpt>
      <trkpt lat="48.39033" lon="7.2667">
        <ele>1056</ele>
        <time>2020-06-24T09:06:56.153Z</time>
      </trkpt>
      <trkpt lat="48.39032" lon="7.26668">
        <ele>1055</ele>
        <time>2020-06-24T09:06:57.152Z</time>
      </trkpt>
      <trkpt lat="48.39031" lon="7.26666">
        <ele>1055</ele>
        <time>2020-06-24T09:06:58.153Z</time>
      </trkpt>
      <trkpt lat="48.3903" lon="7.26665">
        <ele>1055</ele>
        <time>2020-06-24T09:06:59.153Z</time>
      </trkpt>
      <trkpt lat="48.39029" lon="7.26663">
        <ele>1054</ele>
        <time>2020-06-24T09:07:00.152Z</time>
      </trkpt>
      <trkpt lat="48.39028" lon="7.26661">
        <ele>1054</ele>
        <time>2020-06-24T09:07:01.152Z</time>
      </trkpt>
      <trkpt lat="48.39027" lon="7.2666">
        <ele>1054</ele>
        <time>2020-06-24T09:07:02.152Z</time>
      </trkpt>
      <trkpt lat="48.39026" lon="7.26659">
        <ele>1054</ele>
        <time>2020-06-24T09:07:03.152Z</time>
      </trkpt>
      <trkpt lat="48.39025" lon="7.26657">
        <ele>1054</ele>
        <time>2020-06-24T09:07:04.152Z</time>
      </trkpt>
      <trkpt lat="48.39024" lon="7.26656">
        <ele>1054</ele>
        <time>2020-06-24T09:07:05.152Z</time>
      </trkpt>
      <trkpt lat="48.39023" lon="7.26655">
        <ele>1054</ele>
        <time>2020-06-24T09:07:06.152Z</time>
      </trkpt>
      <trkpt lat="48.39022" lon="7.26653">
        <ele>1054</ele>
        <time>2020-06-24T09:07:07.152Z</time>
      </trkpt>
      <trkpt lat="48.39021" lon="7.26652">
        <ele>1053</ele>
        <time>2020-06-24T09:07:08.153Z</time>
      </trkpt>
      <trkpt lat="48.3902" lon="7.2665">
        <ele>1052</ele>
        <time>2020-06-24T09:07:09.152Z</time>
      </trkpt>
      <trkpt lat="48.39019" lon="7.26648">
        <ele>1052</ele>
        <time>2020-06-24T09:07:10.153Z</time>
      </trkpt>
      <trkpt lat="48.39019" lon="7.26646">
        <ele>1051</ele>
        <time>2020-06-24T09:07:11.153Z</time>
      </trkpt>
      <trkpt lat="48.39017" lon="7.26645">
        <ele>1051</ele>
        <time>2020-06-24T09:07:12.153Z</time>
      </trkpt>
      <trkpt lat="48.39017" lon="7.26643">
        <ele>1051</ele>
        <time>2020-06-24T09:07:13.153Z</time>
      </trkpt>
      <trkpt lat="48.39016" lon="7.26642">
        <ele>1051</ele>
        <time>2020-06-24T09:07:14.153Z</time>
      </trkpt>
      <trkpt lat="48.39014" lon="7.26641">
        <ele>1051</ele>
        <time>2020-06-24T09:07:15.152Z</time>
      </trkpt>
      <trkpt lat="48.39013" lon="7.26639">
        <ele>1051</ele>
        <time>2020-06-24T09:07:16.153Z</time>
      </trkpt>
      <trkpt lat="48.39012" lon="7.26638">
        <ele>1051</ele>
        <time>2020-06-24T09:07:17.153Z</time>
      </trkpt>
      <trkpt lat="48.39011" lon="7.26636">
        <ele>1051</ele>
        <time>2020-06-24T09:07:18.153Z</time>
      </trkpt>
      <trkpt lat="48.3901" lon="7.26635">
        <ele>1051</ele>
        <time>2020-06-24T09:07:19.153Z</time>
      </trkpt>
      <trkpt lat="48.39009" lon="7.26633">
        <ele>1051</ele>
        <time>2020-06-24T09:07:20.153Z</time>
      </trkpt>
      <trkpt lat="48.39008" lon="7.26632">
        <ele>1051</ele>
        <time>2020-06-24T09:07:21.153Z</time>
      </trkpt>
      <trkpt lat="48.39007" lon="7.2663">
        <ele>1052</ele>
        <time>2020-06-24T09:07:22.153Z</time>
      </trkpt>
      <trkpt lat="48.39006" lon="7.26629">
        <ele>1052</ele>
        <time>2020-06-24T09:07:23.153Z</time>
      </trkpt>
      <trkpt lat="48.39006" lon="7.26627">
        <ele>1051</ele>
        <time>2020-06-24T09:07:24.153Z</time>
      </trkpt>
      <trkpt lat="48.39005" lon="7.26626">
        <ele>1051</ele>
        <time>2020-06-24T09:07:25.152Z</time>
      </trkpt>
      <trkpt lat="48.39004" lon="7.26624">
        <ele>1051</ele>
        <time>2020-06-24T09:07:26.153Z</time>
      </trkpt>
      <trkpt lat="48.39003" lon="7.26623">
        <ele>1050</ele>
        <time>2020-06-24T09:07:27.153Z</time>
      </trkpt>
      <trkpt lat="48.39002" lon="7.26622">
        <ele>1050</ele>
        <time>2020-06-24T09:07:28.153Z</time>
      </trkpt>
      <trkpt lat="48.39001" lon="7.2662">
        <ele>1051</ele>
        <time>2020-06-24T09:07:29.152Z</time>
      </trkpt>
      <trkpt lat="48.39" lon="7.26619">
        <ele>1051</ele>
        <time>2020-06-24T09:07:30.152Z</time>
      </trkpt>
      <trkpt lat="48.38999" lon="7.26617">
        <ele>1051</ele>
        <time>2020-06-24T09:07:31.153Z</time>
      </trkpt>
      <trkpt lat="48.38997" lon="7.26615">
        <ele>1052</ele>
        <time>2020-06-24T09:07:32.153Z</time>
      </trkpt>
      <trkpt lat="48.38996" lon="7.26614">
        <ele>1052</ele>
        <time>2020-06-24T09:07:33.152Z</time>
      </trkpt>
      <trkpt lat="48.38995" lon="7.26612">
        <ele>1052</ele>
        <time>2020-06-24T09:07:34.152Z</time>
      </trkpt>
      <trkpt lat="48.38994" lon="7.2661">
        <ele>1052</ele>
        <time>2020-06-24T09:07:35.153Z</time>
      </trkpt>
      <trkpt lat="48.38993" lon="7.26608">
        <ele>1051</ele>
        <time>2020-06-24T09:07:36.153Z</time>
      </trkpt>
      <trkpt lat="48.38992" lon="7.26606">
        <ele>1050</ele>
        <time>2020-06-24T09:07:37.153Z</time>
      </trkpt>
      <trkpt lat="48.38991" lon="7.26604">
        <ele>1049</ele>
        <time>2020-06-24T09:07:38.153Z</time>
      </trkpt>
      <trkpt lat="48.3899" lon="7.26602">
        <ele>1048</ele>
        <time>2020-06-24T09:07:39.153Z</time>
      </trkpt>
      <trkpt lat="48.38989" lon="7.266">
        <ele>1047</ele>
        <time>2020-06-24T09:07:40.152Z</time>
      </trkpt>
      <trkpt lat="48.38989" lon="7.26598">
        <ele>1047</ele>
        <time>2020-06-24T09:07:41.153Z</time>
      </trkpt>
      <trkpt lat="48.38988" lon="7.26595">
        <ele>1046</ele>
        <time>2020-06-24T09:07:42.152Z</time>
      </trkpt>
      <trkpt lat="48.38987" lon="7.26594">
        <ele>1046</ele>
        <time>2020-06-24T09:07:43.152Z</time>
      </trkpt>
      <trkpt lat="48.38986" lon="7.26591">
        <ele>1045</ele>
        <time>2020-06-24T09:07:44.153Z</time>
      </trkpt>
      <trkpt lat="48.38985" lon="7.26589">
        <ele>1045</ele>
        <time>2020-06-24T09:07:45.152Z</time>
      </trkpt>
      <trkpt lat="48.38984" lon="7.26588">
        <ele>1044</ele>
        <time>2020-06-24T09:07:46.153Z</time>
      </trkpt>
      <trkpt lat="48.38983" lon="7.26585">
        <ele>1044</ele>
        <time>2020-06-24T09:07:47.153Z</time>
      </trkpt>
      <trkpt lat="48.38982" lon="7.26583">
        <ele>1044</ele>
        <time>2020-06-24T09:07:48.153Z</time>
      </trkpt>
      <trkpt lat="48.38982" lon="7.2658">
        <ele>1043</ele>
        <time>2020-06-24T09:07:49.152Z</time>
      </trkpt>
      <trkpt lat="48.38981" lon="7.26578">
        <ele>1043</ele>
        <time>2020-06-24T09:07:50.152Z</time>
      </trkpt>
      <trkpt lat="48.3898" lon="7.26576">
        <ele>1043</ele>
        <time>2020-06-24T09:07:51.153Z</time>
      </trkpt>
      <trkpt lat="48.38979" lon="7.26575">
        <ele>1043</ele>
        <time>2020-06-24T09:07:52.153Z</time>
      </trkpt>
      <trkpt lat="48.38978" lon="7.26574">
        <ele>1043</ele>
        <time>2020-06-24T09:07:53.153Z</time>
      </trkpt>
      <trkpt lat="48.38977" lon="7.26572">
        <ele>1043</ele>
        <time>2020-06-24T09:07:54.153Z</time>
      </trkpt>
      <trkpt lat="48.38976" lon="7.26571">
        <ele>1042</ele>
        <time>2020-06-24T09:07:55.153Z</time>
      </trkpt>
      <trkpt lat="48.38975" lon="7.26569">
        <ele>1042</ele>
        <time>2020-06-24T09:07:56.153Z</time>
      </trkpt>
      <trkpt lat="48.38973" lon="7.26568">
        <ele>1042</ele>
        <time>2020-06-24T09:07:57.153Z</time>
      </trkpt>
      <trkpt lat="48.38972" lon="7.26566">
        <ele>1042</ele>
        <time>2020-06-24T09:07:58.153Z</time>
      </trkpt>
      <trkpt lat="48.38971" lon="7.26564">
        <ele>1042</ele>
        <time>2020-06-24T09:07:59.152Z</time>
      </trkpt>
      <trkpt lat="48.3897" lon="7.26562">
        <ele>1042</ele>
        <time>2020-06-24T09:08:00.153Z</time>
      </trkpt>
      <trkpt lat="48.38969" lon="7.2656">
        <ele>1042</ele>
        <time>2020-06-24T09:08:01.153Z</time>
      </trkpt>
      <trkpt lat="48.38968" lon="7.26558">
        <ele>1042</ele>
        <time>2020-06-24T09:08:02.152Z</time>
      </trkpt>
      <trkpt lat="48.38967" lon="7.26556">
        <ele>1042</ele>
        <time>2020-06-24T09:08:03.152Z</time>
      </trkpt>
      <trkpt lat="48.38966" lon="7.26554">
        <ele>1042</ele>
        <time>2020-06-24T09:08:04.153Z</time>
      </trkpt>
      <trkpt lat="48.38965" lon="7.26552">
        <ele>1042</ele>
        <time>2020-06-24T09:08:05.152Z</time>
      </trkpt>
      <trkpt lat="48.38964" lon="7.26551">
        <ele>1042</ele>
        <time>2020-06-24T09:08:06.152Z</time>
      </trkpt>
      <trkpt lat="48.38963" lon="7.26549">
        <ele>1041</ele>
        <time>2020-06-24T09:08:07.152Z</time>
      </trkpt>
      <trkpt lat="48.38962" lon="7.26548">
        <ele>1041</ele>
        <time>2020-06-24T09:08:08.152Z</time>
      </trkpt>
      <trkpt lat="48.38962" lon="7.26547">
        <ele>1041</ele>
        <time>2020-06-24T09:08:09.153Z</time>
      </trkpt>
      <trkpt lat="48.38961" lon="7.26545">
        <ele>1041</ele>
        <time>2020-06-24T09:08:10.152Z</time>
      </trkpt>
      <trkpt lat="48.3896" lon="7.26543">
        <ele>1041</ele>
        <time>2020-06-24T09:08:11.153Z</time>
      </trkpt>
      <trkpt lat="48.38959" lon="7.26542">
        <ele>1041</ele>
        <time>2020-06-24T09:08:12.152Z</time>
      </trkpt>
      <trkpt lat="48.38958" lon="7.2654">
        <ele>1041</ele>
        <time>2020-06-24T09:08:13.153Z</time>
      </trkpt>
      <trkpt lat="48.38957" lon="7.26538">
        <ele>1041</ele>
        <time>2020-06-24T09:08:14.153Z</time>
      </trkpt>
      <trkpt lat="48.38956" lon="7.26536">
        <ele>1041</ele>
        <time>2020-06-24T09:08:15.152Z</time>
      </trkpt>
      <trkpt lat="48.38955" lon="7.26535">
        <ele>1040</ele>
        <time>2020-06-24T09:08:16.153Z</time>
      </trkpt>
      <trkpt lat="48.38954" lon="7.26533">
        <ele>1039</ele>
        <time>2020-06-24T09:08:17.153Z</time>
      </trkpt>
      <trkpt lat="48.38953" lon="7.2653">
        <ele>1039</ele>
        <time>2020-06-24T09:08:18.153Z</time>
      </trkpt>
      <trkpt lat="48.38953" lon="7.26529">
        <ele>1038</ele>
        <time>2020-06-24T09:08:19.152Z</time>
      </trkpt>
      <trkpt lat="48.38952" lon="7.26527">
        <ele>1037</ele>
        <time>2020-06-24T09:08:20.153Z</time>
      </trkpt>
      <trkpt lat="48.38951" lon="7.26526">
        <ele>1037</ele>
        <time>2020-06-24T09:08:21.153Z</time>
      </trkpt>
      <trkpt lat="48.3895" lon="7.26524">
        <ele>1036</ele>
        <time>2020-06-24T09:08:22.152Z</time>
      </trkpt>
      <trkpt lat="48.3895" lon="7.26522">
        <ele>1036</ele>
        <time>2020-06-24T09:08:23.153Z</time>
      </trkpt>
      <trkpt lat="48.38949" lon="7.26521">
        <ele>1036</ele>
        <time>2020-06-24T09:08:24.153Z</time>
      </trkpt>
      <trkpt lat="48.38948" lon="7.26519">
        <ele>1037</ele>
        <time>2020-06-24T09:08:25.153Z</time>
      </trkpt>
      <trkpt lat="48.38947" lon="7.26517">
        <ele>1037</ele>
        <time>2020-06-24T09:08:26.152Z</time>
      </trkpt>
      <trkpt lat="48.38947" lon="7.26515">
        <ele>1037</ele>
        <time>2020-06-24T09:08:27.152Z</time>
      </trkpt>
      <trkpt lat="48.38946" lon="7.26513">
        <ele>1038</ele>
        <time>2020-06-24T09:08:28.153Z</time>
      </trkpt>
      <trkpt lat="48.38945" lon="7.26512">
        <ele>1038</ele>
        <time>2020-06-24T09:08:29.153Z</time>
      </trkpt>
      <trkpt lat="48.38944" lon="7.2651">
        <ele>1039</ele>
        <time>2020-06-24T09:08:30.153Z</time>
      </trkpt>
      <trkpt lat="48.38943" lon="7.26508">
        <ele>1039</ele>
        <time>2020-06-24T09:08:31.153Z</time>
      </trkpt>
      <trkpt lat="48.38942" lon="7.26506">
        <ele>1040</ele>
        <time>2020-06-24T09:08:32.152Z</time>
      </trkpt>
      <trkpt lat="48.38941" lon="7.26505">
        <ele>1040</ele>
        <time>2020-06-24T09:08:33.153Z</time>
      </trkpt>
      <trkpt lat="48.3894" lon="7.26503">
        <ele>1040</ele>
        <time>2020-06-24T09:08:34.152Z</time>
      </trkpt>
      <trkpt lat="48.38939" lon="7.26501">
        <ele>1041</ele>
        <time>2020-06-24T09:08:35.153Z</time>
      </trkpt>
      <trkpt lat="48.38938" lon="7.26498">
        <ele>1041</ele>
        <time>2020-06-24T09:08:36.153Z</time>
      </trkpt>
      <trkpt lat="48.38938" lon="7.26496">
        <ele>1041</ele>
        <time>2020-06-24T09:08:37.153Z</time>
      </trkpt>
      <trkpt lat="48.38937" lon="7.26494">
        <ele>1041</ele>
        <time>2020-06-24T09:08:38.152Z</time>
      </trkpt>
      <trkpt lat="48.38936" lon="7.26492">
        <ele>1040</ele>
        <time>2020-06-24T09:08:39.152Z</time>
      </trkpt>
      <trkpt lat="48.38935" lon="7.26491">
        <ele>1040</ele>
        <time>2020-06-24T09:08:40.153Z</time>
      </trkpt>
      <trkpt lat="48.38935" lon="7.26488">
        <ele>1040</ele>
        <time>2020-06-24T09:08:41.153Z</time>
      </trkpt>
      <trkpt lat="48.38933" lon="7.26486">
        <ele>1039</ele>
        <time>2020-06-24T09:08:42.152Z</time>
      </trkpt>
      <trkpt lat="48.38931" lon="7.26485">
        <ele>1039</ele>
        <time>2020-06-24T09:08:43.153Z</time>
      </trkpt>
      <trkpt lat="48.38931" lon="7.26484">
        <ele>1040</ele>
        <time>2020-06-24T09:08:44.153Z</time>
      </trkpt>
      <trkpt lat="48.3893" lon="7.26483">
        <ele>1040</ele>
        <time>2020-06-24T09:08:45.153Z</time>
      </trkpt>
      <trkpt lat="48.38928" lon="7.26481">
        <ele>1040</ele>
        <time>2020-06-24T09:08:46.153Z</time>
      </trkpt>
      <trkpt lat="48.38928" lon="7.26479">
        <ele>1040</ele>
        <time>2020-06-24T09:08:47.153Z</time>
      </trkpt>
      <trkpt lat="48.38927" lon="7.26477">
        <ele>1040</ele>
        <time>2020-06-24T09:08:48.153Z</time>
      </trkpt>
      <trkpt lat="48.38926" lon="7.26476">
        <ele>1040</ele>
        <time>2020-06-24T09:08:49.152Z</time>
      </trkpt>
      <trkpt lat="48.38925" lon="7.26475">
        <ele>1041</ele>
        <time>2020-06-24T09:08:50.152Z</time>
      </trkpt>
      <trkpt lat="48.38924" lon="7.26474">
        <ele>1041</ele>
        <time>2020-06-24T09:08:51.152Z</time>
      </trkpt>
      <trkpt lat="48.38923" lon="7.26472">
        <ele>1041</ele>
        <time>2020-06-24T09:08:52.153Z</time>
      </trkpt>
      <trkpt lat="48.38922" lon="7.2647">
        <ele>1041</ele>
        <time>2020-06-24T09:08:53.153Z</time>
      </trkpt>
      <trkpt lat="48.38921" lon="7.26468">
        <ele>1040</ele>
        <time>2020-06-24T09:08:54.153Z</time>
      </trkpt>
      <trkpt lat="48.38921" lon="7.26467">
        <ele>1040</ele>
        <time>2020-06-24T09:08:55.152Z</time>
      </trkpt>
      <trkpt lat="48.3892" lon="7.26465">
        <ele>1040</ele>
        <time>2020-06-24T09:08:56.153Z</time>
      </trkpt>
      <trkpt lat="48.38919" lon="7.26463">
        <ele>1039</ele>
        <time>2020-06-24T09:08:57.152Z</time>
      </trkpt>
      <trkpt lat="48.38918" lon="7.2646">
        <ele>1038</ele>
        <time>2020-06-24T09:08:58.152Z</time>
      </trkpt>
      <trkpt lat="48.38918" lon="7.26458">
        <ele>1037</ele>
        <time>2020-06-24T09:08:59.153Z</time>
      </trkpt>
      <trkpt lat="48.38917" lon="7.26456">
        <ele>1036</ele>
        <time>2020-06-24T09:09:00.152Z</time>
      </trkpt>
      <trkpt lat="48.38917" lon="7.26454">
        <ele>1035</ele>
        <time>2020-06-24T09:09:01.152Z</time>
      </trkpt>
      <trkpt lat="48.38917" lon="7.26451">
        <ele>1034</ele>
        <time>2020-06-24T09:09:02.153Z</time>
      </trkpt>
      <trkpt lat="48.38916" lon="7.26448">
        <ele>1034</ele>
        <time>2020-06-24T09:09:03.153Z</time>
      </trkpt>
      <trkpt lat="48.38916" lon="7.26446">
        <ele>1034</ele>
        <time>2020-06-24T09:09:04.153Z</time>
      </trkpt>
      <trkpt lat="48.38915" lon="7.26444">
        <ele>1033</ele>
        <time>2020-06-24T09:09:05.153Z</time>
      </trkpt>
      <trkpt lat="48.38914" lon="7.26442">
        <ele>1033</ele>
        <time>2020-06-24T09:09:06.153Z</time>
      </trkpt>
      <trkpt lat="48.38913" lon="7.2644">
        <ele>1032</ele>
        <time>2020-06-24T09:09:07.153Z</time>
      </trkpt>
      <trkpt lat="48.38913" lon="7.26438">
        <ele>1031</ele>
        <time>2020-06-24T09:09:08.153Z</time>
      </trkpt>
      <trkpt lat="48.38912" lon="7.26437">
        <ele>1031</ele>
        <time>2020-06-24T09:09:09.153Z</time>
      </trkpt>
      <trkpt lat="48.38911" lon="7.26435">
        <ele>1031</ele>
        <time>2020-06-24T09:09:10.152Z</time>
      </trkpt>
      <trkpt lat="48.3891" lon="7.26433">
        <ele>1030</ele>
        <time>2020-06-24T09:09:11.153Z</time>
      </trkpt>
      <trkpt lat="48.3891" lon="7.2643">
        <ele>1029</ele>
        <time>2020-06-24T09:09:12.153Z</time>
      </trkpt>
      <trkpt lat="48.38909" lon="7.26428">
        <ele>1028</ele>
        <time>2020-06-24T09:09:13.152Z</time>
      </trkpt>
      <trkpt lat="48.38909" lon="7.26426">
        <ele>1028</ele>
        <time>2020-06-24T09:09:14.153Z</time>
      </trkpt>
      <trkpt lat="48.38907" lon="7.26424">
        <ele>1027</ele>
        <time>2020-06-24T09:09:15.153Z</time>
      </trkpt>
      <trkpt lat="48.38907" lon="7.26422">
        <ele>1026</ele>
        <time>2020-06-24T09:09:16.153Z</time>
      </trkpt>
      <trkpt lat="48.38906" lon="7.26421">
        <ele>1026</ele>
        <time>2020-06-24T09:09:17.153Z</time>
      </trkpt>
      <trkpt lat="48.38905" lon="7.26419">
        <ele>1026</ele>
        <time>2020-06-24T09:09:18.153Z</time>
      </trkpt>
      <trkpt lat="48.38904" lon="7.26417">
        <ele>1026</ele>
        <time>2020-06-24T09:09:19.153Z</time>
      </trkpt>
      <trkpt lat="48.38903" lon="7.26415">
        <ele>1027</ele>
        <time>2020-06-24T09:09:20.152Z</time>
      </trkpt>
      <trkpt lat="48.38902" lon="7.26414">
        <ele>1028</ele>
        <time>2020-06-24T09:09:21.153Z</time>
      </trkpt>
      <trkpt lat="48.38902" lon="7.26411">
        <ele>1028</ele>
        <time>2020-06-24T09:09:22.153Z</time>
      </trkpt>
      <trkpt lat="48.38901" lon="7.26409">
        <ele>1028</ele>
        <time>2020-06-24T09:09:23.153Z</time>
      </trkpt>
      <trkpt lat="48.389" lon="7.26407">
        <ele>1028</ele>
        <time>2020-06-24T09:09:24.153Z</time>
      </trkpt>
      <trkpt lat="48.38899" lon="7.26405">
        <ele>1028</ele>
        <time>2020-06-24T09:09:25.153Z</time>
      </trkpt>
      <trkpt lat="48.38898" lon="7.26403">
        <ele>1028</ele>
        <time>2020-06-24T09:09:26.153Z</time>
      </trkpt>
      <trkpt lat="48.38898" lon="7.26401">
        <ele>1028</ele>
        <time>2020-06-24T09:09:27.153Z</time>
      </trkpt>
      <trkpt lat="48.38897" lon="7.26398">
        <ele>1027</ele>
        <time>2020-06-24T09:09:28.152Z</time>
      </trkpt>
      <trkpt lat="48.38897" lon="7.26396">
        <ele>1027</ele>
        <time>2020-06-24T09:09:29.153Z</time>
      </trkpt>
      <trkpt lat="48.38896" lon="7.26394">
        <ele>1027</ele>
        <time>2020-06-24T09:09:30.153Z</time>
      </trkpt>
      <trkpt lat="48.38896" lon="7.26392">
        <ele>1026</ele>
        <time>2020-06-24T09:09:31.153Z</time>
      </trkpt>
      <trkpt lat="48.38895" lon="7.26389">
        <ele>1026</ele>
        <time>2020-06-24T09:09:32.153Z</time>
      </trkpt>
      <trkpt lat="48.38895" lon="7.26387">
        <ele>1026</ele>
        <time>2020-06-24T09:09:33.153Z</time>
      </trkpt>
      <trkpt lat="48.38894" lon="7.26385">
        <ele>1025</ele>
        <time>2020-06-24T09:09:34.152Z</time>
      </trkpt>
      <trkpt lat="48.38894" lon="7.26383">
        <ele>1024</ele>
        <time>2020-06-24T09:09:35.153Z</time>
      </trkpt>
      <trkpt lat="48.38893" lon="7.26381">
        <ele>1024</ele>
        <time>2020-06-24T09:09:36.153Z</time>
      </trkpt>
      <trkpt lat="48.38892" lon="7.26379">
        <ele>1023</ele>
        <time>2020-06-24T09:09:37.153Z</time>
      </trkpt>
      <trkpt lat="48.38892" lon="7.26377">
        <ele>1023</ele>
        <time>2020-06-24T09:09:38.153Z</time>
      </trkpt>
      <trkpt lat="48.38891" lon="7.26374">
        <ele>1022</ele>
        <time>2020-06-24T09:09:39.153Z</time>
      </trkpt>
      <trkpt lat="48.3889" lon="7.26372">
        <ele>1022</ele>
        <time>2020-06-24T09:09:40.153Z</time>
      </trkpt>
      <trkpt lat="48.3889" lon="7.2637">
        <ele>1021</ele>
        <time>2020-06-24T09:09:41.153Z</time>
      </trkpt>
      <trkpt lat="48.38889" lon="7.26368">
        <ele>1021</ele>
        <time>2020-06-24T09:09:42.153Z</time>
      </trkpt>
      <trkpt lat="48.38889" lon="7.26366">
        <ele>1021</ele>
        <time>2020-06-24T09:09:43.152Z</time>
      </trkpt>
      <trkpt lat="48.38888" lon="7.26364">
        <ele>1021</ele>
        <time>2020-06-24T09:09:44.153Z</time>
      </trkpt>
      <trkpt lat="48.38888" lon="7.26361">
        <ele>1021</ele>
        <time>2020-06-24T09:09:45.153Z</time>
      </trkpt>
      <trkpt lat="48.38887" lon="7.26359">
        <ele>1022</ele>
        <time>2020-06-24T09:09:46.153Z</time>
      </trkpt>
      <trkpt lat="48.38886" lon="7.26356">
        <ele>1022</ele>
        <time>2020-06-24T09:09:47.153Z</time>
      </trkpt>
      <trkpt lat="48.38886" lon="7.26354">
        <ele>1022</ele>
        <time>2020-06-24T09:09:48.153Z</time>
      </trkpt>
      <trkpt lat="48.38886" lon="7.26352">
        <ele>1023</ele>
        <time>2020-06-24T09:09:49.153Z</time>
      </trkpt>
      <trkpt lat="48.38885" lon="7.2635">
        <ele>1023</ele>
        <time>2020-06-24T09:09:50.153Z</time>
      </trkpt>
      <trkpt lat="48.38885" lon="7.26348">
        <ele>1024</ele>
        <time>2020-06-24T09:09:51.153Z</time>
      </trkpt>
      <trkpt lat="48.38885" lon="7.26346">
        <ele>1023</ele>
        <time>2020-06-24T09:09:52.152Z</time>
      </trkpt>
      <trkpt lat="48.38884" lon="7.26344">
        <ele>1023</ele>
        <time>2020-06-24T09:09:53.153Z</time>
      </trkpt>
      <trkpt lat="48.38883" lon="7.26342">
        <ele>1023</ele>
        <time>2020-06-24T09:09:54.152Z</time>
      </trkpt>
      <trkpt lat="48.38882" lon="7.26339">
        <ele>1023</ele>
        <time>2020-06-24T09:09:55.153Z</time>
      </trkpt>
      <trkpt lat="48.38882" lon="7.26337">
        <ele>1023</ele>
        <time>2020-06-24T09:09:56.152Z</time>
      </trkpt>
      <trkpt lat="48.38881" lon="7.26336">
        <ele>1022</ele>
        <time>2020-06-24T09:09:57.153Z</time>
      </trkpt>
      <trkpt lat="48.38881" lon="7.26334">
        <ele>1022</ele>
        <time>2020-06-24T09:09:58.153Z</time>
      </trkpt>
      <trkpt lat="48.3888" lon="7.26332">
        <ele>1021</ele>
        <time>2020-06-24T09:09:59.153Z</time>
      </trkpt>
      <trkpt lat="48.3888" lon="7.2633">
        <ele>1021</ele>
        <time>2020-06-24T09:10:00.153Z</time>
      </trkpt>
      <trkpt lat="48.3888" lon="7.26328">
        <ele>1020</ele>
        <time>2020-06-24T09:10:01.152Z</time>
      </trkpt>
      <trkpt lat="48.3888" lon="7.26326">
        <ele>1020</ele>
        <time>2020-06-24T09:10:02.153Z</time>
      </trkpt>
      <trkpt lat="48.38879" lon="7.26324">
        <ele>1020</ele>
        <time>2020-06-24T09:10:03.153Z</time>
      </trkpt>
      <trkpt lat="48.38879" lon="7.26322">
        <ele>1020</ele>
        <time>2020-06-24T09:10:04.153Z</time>
      </trkpt>
      <trkpt lat="48.38879" lon="7.2632">
        <ele>1020</ele>
        <time>2020-06-24T09:10:05.153Z</time>
      </trkpt>
      <trkpt lat="48.38879" lon="7.26316">
        <ele>1020</ele>
        <time>2020-06-24T09:10:06.153Z</time>
      </trkpt>
      <trkpt lat="48.38879" lon="7.26314">
        <ele>1020</ele>
        <time>2020-06-24T09:10:07.152Z</time>
      </trkpt>
      <trkpt lat="48.38878" lon="7.26312">
        <ele>1020</ele>
        <time>2020-06-24T09:10:08.152Z</time>
      </trkpt>
      <trkpt lat="48.38877" lon="7.2631">
        <ele>1020</ele>
        <time>2020-06-24T09:10:09.153Z</time>
      </trkpt>
      <trkpt lat="48.38877" lon="7.26308">
        <ele>1020</ele>
        <time>2020-06-24T09:10:10.153Z</time>
      </trkpt>
      <trkpt lat="48.38876" lon="7.26306">
        <ele>1021</ele>
        <time>2020-06-24T09:10:11.152Z</time>
      </trkpt>
      <trkpt lat="48.38875" lon="7.26303">
        <ele>1021</ele>
        <time>2020-06-24T09:10:12.153Z</time>
      </trkpt>
      <trkpt lat="48.38875" lon="7.26301">
        <ele>1020</ele>
        <time>2020-06-24T09:10:13.153Z</time>
      </trkpt>
      <trkpt lat="48.38875" lon="7.26299">
        <ele>1020</ele>
        <time>2020-06-24T09:10:14.153Z</time>
      </trkpt>
      <trkpt lat="48.38875" lon="7.26297">
        <ele>1020</ele>
        <time>2020-06-24T09:10:15.153Z</time>
      </trkpt>
      <trkpt lat="48.38875" lon="7.26294">
        <ele>1019</ele>
        <time>2020-06-24T09:10:16.152Z</time>
      </trkpt>
      <trkpt lat="48.38875" lon="7.26292">
        <ele>1018</ele>
        <time>2020-06-24T09:10:17.153Z</time>
      </trkpt>
      <trkpt lat="48.38875" lon="7.2629">
        <ele>1017</ele>
        <time>2020-06-24T09:10:18.153Z</time>
      </trkpt>
      <trkpt lat="48.38875" lon="7.26288">
        <ele>1016</ele>
        <time>2020-06-24T09:10:19.153Z</time>
      </trkpt>
      <trkpt lat="48.38875" lon="7.26285">
        <ele>1016</ele>
        <time>2020-06-24T09:10:20.153Z</time>
      </trkpt>
      <trkpt lat="48.38875" lon="7.26283">
        <ele>1016</ele>
        <time>2020-06-24T09:10:21.152Z</time>
      </trkpt>
      <trkpt lat="48.38875" lon="7.26281">
        <ele>1016</ele>
        <time>2020-06-24T09:10:22.153Z</time>
      </trkpt>
      <trkpt lat="48.38875" lon="7.2628">
        <ele>1016</ele>
        <time>2020-06-24T09:10:23.153Z</time>
      </trkpt>
      <trkpt lat="48.38875" lon="7.26278">
        <ele>1016</ele>
        <time>2020-06-24T09:10:24.153Z</time>
      </trkpt>
      <trkpt lat="48.38875" lon="7.26276">
        <ele>1016</ele>
        <time>2020-06-24T09:10:25.152Z</time>
      </trkpt>
      <trkpt lat="48.38878" lon="7.26262">
        <ele>1014</ele>
        <time>2020-06-24T09:10:26.153Z</time>
      </trkpt>
      <trkpt lat="48.38878" lon="7.26261">
        <ele>1014</ele>
        <time>2020-06-24T09:10:27.154Z</time>
      </trkpt>
      <trkpt lat="48.38878" lon="7.26261">
        <ele>1014</ele>
        <time>2020-06-24T09:10:28.153Z</time>
      </trkpt>
      <trkpt lat="48.38878" lon="7.26261">
        <ele>1014</ele>
        <time>2020-06-24T09:10:29.154Z</time>
      </trkpt>
      <trkpt lat="48.38878" lon="7.2626">
        <ele>1013</ele>
        <time>2020-06-24T09:10:30.154Z</time>
      </trkpt>
      <trkpt lat="48.38877" lon="7.26258">
        <ele>1013</ele>
        <time>2020-06-24T09:10:31.153Z</time>
      </trkpt>
      <trkpt lat="48.38876" lon="7.26256">
        <ele>1013</ele>
        <time>2020-06-24T09:10:32.153Z</time>
      </trkpt>
      <trkpt lat="48.38876" lon="7.26253">
        <ele>1013</ele>
        <time>2020-06-24T09:10:33.154Z</time>
      </trkpt>
      <trkpt lat="48.38875" lon="7.26251">
        <ele>1013</ele>
        <time>2020-06-24T09:10:34.153Z</time>
      </trkpt>
      <trkpt lat="48.38875" lon="7.26249">
        <ele>1013</ele>
        <time>2020-06-24T09:10:35.154Z</time>
      </trkpt>
      <trkpt lat="48.38874" lon="7.26247">
        <ele>1013</ele>
        <time>2020-06-24T09:10:36.153Z</time>
      </trkpt>
      <trkpt lat="48.38873" lon="7.26244">
        <ele>1013</ele>
        <time>2020-06-24T09:10:37.153Z</time>
      </trkpt>
      <trkpt lat="48.38873" lon="7.26242">
        <ele>1014</ele>
        <time>2020-06-24T09:10:38.153Z</time>
      </trkpt>
      <trkpt lat="48.38873" lon="7.26239">
        <ele>1014</ele>
        <time>2020-06-24T09:10:39.154Z</time>
      </trkpt>
      <trkpt lat="48.38873" lon="7.26238">
        <ele>1014</ele>
        <time>2020-06-24T09:10:40.153Z</time>
      </trkpt>
      <trkpt lat="48.38873" lon="7.26237">
        <ele>1014</ele>
        <time>2020-06-24T09:10:41.154Z</time>
      </trkpt>
      <trkpt lat="48.38872" lon="7.26235">
        <ele>1015</ele>
        <time>2020-06-24T09:10:42.154Z</time>
      </trkpt>
      <trkpt lat="48.38872" lon="7.26233">
        <ele>1015</ele>
        <time>2020-06-24T09:10:43.153Z</time>
      </trkpt>
      <trkpt lat="48.38871" lon="7.26232">
        <ele>1016</ele>
        <time>2020-06-24T09:10:44.154Z</time>
      </trkpt>
      <trkpt lat="48.38871" lon="7.2623">
        <ele>1016</ele>
        <time>2020-06-24T09:10:45.153Z</time>
      </trkpt>
      <trkpt lat="48.3887" lon="7.26228">
        <ele>1016</ele>
        <time>2020-06-24T09:10:46.153Z</time>
      </trkpt>
      <trkpt lat="48.3887" lon="7.26226">
        <ele>1016</ele>
        <time>2020-06-24T09:10:47.153Z</time>
      </trkpt>
      <trkpt lat="48.38868" lon="7.26224">
        <ele>1016</ele>
        <time>2020-06-24T09:10:48.154Z</time>
      </trkpt>
      <trkpt lat="48.38867" lon="7.26221">
        <ele>1016</ele>
        <time>2020-06-24T09:10:49.154Z</time>
      </trkpt>
      <trkpt lat="48.38866" lon="7.26219">
        <ele>1016</ele>
        <time>2020-06-24T09:10:50.154Z</time>
      </trkpt>
      <trkpt lat="48.38866" lon="7.26217">
        <ele>1017</ele>
        <time>2020-06-24T09:10:51.153Z</time>
      </trkpt>
      <trkpt lat="48.38865" lon="7.26215">
        <ele>1017</ele>
        <time>2020-06-24T09:10:52.153Z</time>
      </trkpt>
      <trkpt lat="48.38864" lon="7.26214">
        <ele>1017</ele>
        <time>2020-06-24T09:10:53.153Z</time>
      </trkpt>
      <trkpt lat="48.38864" lon="7.26212">
        <ele>1017</ele>
        <time>2020-06-24T09:10:54.154Z</time>
      </trkpt>
      <trkpt lat="48.38863" lon="7.2621">
        <ele>1017</ele>
        <time>2020-06-24T09:10:55.154Z</time>
      </trkpt>
      <trkpt lat="48.38863" lon="7.26209">
        <ele>1017</ele>
        <time>2020-06-24T09:10:56.153Z</time>
      </trkpt>
      <trkpt lat="48.38862" lon="7.26207">
        <ele>1016</ele>
        <time>2020-06-24T09:10:57.153Z</time>
      </trkpt>
      <trkpt lat="48.38861" lon="7.26205">
        <ele>1016</ele>
        <time>2020-06-24T09:10:58.153Z</time>
      </trkpt>
      <trkpt lat="48.38861" lon="7.26202">
        <ele>1016</ele>
        <time>2020-06-24T09:10:59.153Z</time>
      </trkpt>
      <trkpt lat="48.3886" lon="7.262">
        <ele>1016</ele>
        <time>2020-06-24T09:11:00.154Z</time>
      </trkpt>
      <trkpt lat="48.38859" lon="7.26198">
        <ele>1015</ele>
        <time>2020-06-24T09:11:01.153Z</time>
      </trkpt>
      <trkpt lat="48.38859" lon="7.26195">
        <ele>1015</ele>
        <time>2020-06-24T09:11:02.154Z</time>
      </trkpt>
      <trkpt lat="48.38858" lon="7.26194">
        <ele>1015</ele>
        <time>2020-06-24T09:11:03.153Z</time>
      </trkpt>
      <trkpt lat="48.38858" lon="7.26191">
        <ele>1014</ele>
        <time>2020-06-24T09:11:04.154Z</time>
      </trkpt>
      <trkpt lat="48.38857" lon="7.26189">
        <ele>1014</ele>
        <time>2020-06-24T09:11:05.154Z</time>
      </trkpt>
      <trkpt lat="48.38857" lon="7.26187">
        <ele>1013</ele>
        <time>2020-06-24T09:11:06.154Z</time>
      </trkpt>
      <trkpt lat="48.38856" lon="7.26186">
        <ele>1013</ele>
        <time>2020-06-24T09:11:07.153Z</time>
      </trkpt>
      <trkpt lat="48.38856" lon="7.26184">
        <ele>1013</ele>
        <time>2020-06-24T09:11:08.153Z</time>
      </trkpt>
      <trkpt lat="48.38855" lon="7.26183">
        <ele>1013</ele>
        <time>2020-06-24T09:11:09.154Z</time>
      </trkpt>
      <trkpt lat="48.38855" lon="7.26181">
        <ele>1013</ele>
        <time>2020-06-24T09:11:10.154Z</time>
      </trkpt>
      <trkpt lat="48.38853" lon="7.26179">
        <ele>1012</ele>
        <time>2020-06-24T09:11:11.153Z</time>
      </trkpt>
      <trkpt lat="48.38852" lon="7.26178">
        <ele>1011</ele>
        <time>2020-06-24T09:11:12.153Z</time>
      </trkpt>
      <trkpt lat="48.38851" lon="7.26176">
        <ele>1011</ele>
        <time>2020-06-24T09:11:13.153Z</time>
      </trkpt>
      <trkpt lat="48.38849" lon="7.26174">
        <ele>1011</ele>
        <time>2020-06-24T09:11:14.154Z</time>
      </trkpt>
      <trkpt lat="48.38848" lon="7.26171">
        <ele>1010</ele>
        <time>2020-06-24T09:11:15.154Z</time>
      </trkpt>
      <trkpt lat="48.38847" lon="7.26169">
        <ele>1010</ele>
        <time>2020-06-24T09:11:16.153Z</time>
      </trkpt>
      <trkpt lat="48.38847" lon="7.26167">
        <ele>1010</ele>
        <time>2020-06-24T09:11:17.154Z</time>
      </trkpt>
      <trkpt lat="48.38846" lon="7.26165">
        <ele>1010</ele>
        <time>2020-06-24T09:11:18.153Z</time>
      </trkpt>
      <trkpt lat="48.38845" lon="7.26163">
        <ele>1010</ele>
        <time>2020-06-24T09:11:19.154Z</time>
      </trkpt>
      <trkpt lat="48.38844" lon="7.26161">
        <ele>1009</ele>
        <time>2020-06-24T09:11:20.153Z</time>
      </trkpt>
      <trkpt lat="48.38843" lon="7.26159">
        <ele>1009</ele>
        <time>2020-06-24T09:11:21.153Z</time>
      </trkpt>
      <trkpt lat="48.38843" lon="7.26157">
        <ele>1009</ele>
        <time>2020-06-24T09:11:22.153Z</time>
      </trkpt>
      <trkpt lat="48.38841" lon="7.26155">
        <ele>1009</ele>
        <time>2020-06-24T09:11:23.153Z</time>
      </trkpt>
      <trkpt lat="48.3884" lon="7.26153">
        <ele>1010</ele>
        <time>2020-06-24T09:11:24.153Z</time>
      </trkpt>
      <trkpt lat="48.38839" lon="7.2615">
        <ele>1010</ele>
        <time>2020-06-24T09:11:25.154Z</time>
      </trkpt>
      <trkpt lat="48.38838" lon="7.26148">
        <ele>1011</ele>
        <time>2020-06-24T09:11:26.153Z</time>
      </trkpt>
      <trkpt lat="48.38837" lon="7.26145">
        <ele>1011</ele>
        <time>2020-06-24T09:11:27.153Z</time>
      </trkpt>
      <trkpt lat="48.38836" lon="7.26143">
        <ele>1011</ele>
        <time>2020-06-24T09:11:28.153Z</time>
      </trkpt>
      <trkpt lat="48.38835" lon="7.26141">
        <ele>1011</ele>
        <time>2020-06-24T09:11:29.153Z</time>
      </trkpt>
      <trkpt lat="48.38834" lon="7.2614">
        <ele>1010</ele>
        <time>2020-06-24T09:11:30.153Z</time>
      </trkpt>
      <trkpt lat="48.38833" lon="7.26139">
        <ele>1010</ele>
        <time>2020-06-24T09:11:31.154Z</time>
      </trkpt>
      <trkpt lat="48.38833" lon="7.26137">
        <ele>1009</ele>
        <time>2020-06-24T09:11:32.154Z</time>
      </trkpt>
      <trkpt lat="48.38832" lon="7.26136">
        <ele>1009</ele>
        <time>2020-06-24T09:11:33.153Z</time>
      </trkpt>
      <trkpt lat="48.38831" lon="7.26134">
        <ele>1009</ele>
        <time>2020-06-24T09:11:34.153Z</time>
      </trkpt>
      <trkpt lat="48.38829" lon="7.26132">
        <ele>1009</ele>
        <time>2020-06-24T09:11:35.153Z</time>
      </trkpt>
      <trkpt lat="48.38828" lon="7.26131">
        <ele>1008</ele>
        <time>2020-06-24T09:11:36.154Z</time>
      </trkpt>
      <trkpt lat="48.38827" lon="7.26129">
        <ele>1008</ele>
        <time>2020-06-24T09:11:37.154Z</time>
      </trkpt>
      <trkpt lat="48.38826" lon="7.26127">
        <ele>1008</ele>
        <time>2020-06-24T09:11:38.154Z</time>
      </trkpt>
      <trkpt lat="48.38825" lon="7.26125">
        <ele>1008</ele>
        <time>2020-06-24T09:11:39.153Z</time>
      </trkpt>
      <trkpt lat="48.38824" lon="7.26123">
        <ele>1008</ele>
        <time>2020-06-24T09:11:40.154Z</time>
      </trkpt>
      <trkpt lat="48.38823" lon="7.26121">
        <ele>1008</ele>
        <time>2020-06-24T09:11:41.153Z</time>
      </trkpt>
      <trkpt lat="48.38822" lon="7.26119">
        <ele>1008</ele>
        <time>2020-06-24T09:11:42.153Z</time>
      </trkpt>
      <trkpt lat="48.38821" lon="7.26117">
        <ele>1008</ele>
        <time>2020-06-24T09:11:43.154Z</time>
      </trkpt>
      <trkpt lat="48.3882" lon="7.26115">
        <ele>1008</ele>
        <time>2020-06-24T09:11:44.154Z</time>
      </trkpt>
      <trkpt lat="48.38819" lon="7.26114">
        <ele>1008</ele>
        <time>2020-06-24T09:11:45.154Z</time>
      </trkpt>
      <trkpt lat="48.38818" lon="7.26112">
        <ele>1009</ele>
        <time>2020-06-24T09:11:46.153Z</time>
      </trkpt>
      <trkpt lat="48.38817" lon="7.26111">
        <ele>1009</ele>
        <time>2020-06-24T09:11:47.153Z</time>
      </trkpt>
      <trkpt lat="48.38816" lon="7.26109">
        <ele>1009</ele>
        <time>2020-06-24T09:11:48.154Z</time>
      </trkpt>
      <trkpt lat="48.38815" lon="7.26108">
        <ele>1010</ele>
        <time>2020-06-24T09:11:49.154Z</time>
      </trkpt>
      <trkpt lat="48.38814" lon="7.26105">
        <ele>1010</ele>
        <time>2020-06-24T09:11:50.154Z</time>
      </trkpt>
      <trkpt lat="48.38814" lon="7.26103">
        <ele>1010</ele>
        <time>2020-06-24T09:11:51.154Z</time>
      </trkpt>
      <trkpt lat="48.38813" lon="7.261">
        <ele>1010</ele>
        <time>2020-06-24T09:11:52.154Z</time>
      </trkpt>
      <trkpt lat="48.38812" lon="7.26099">
        <ele>1010</ele>
        <time>2020-06-24T09:11:53.153Z</time>
      </trkpt>
      <trkpt lat="48.38812" lon="7.26096">
        <ele>1010</ele>
        <time>2020-06-24T09:11:54.154Z</time>
      </trkpt>
      <trkpt lat="48.38811" lon="7.26094">
        <ele>1010</ele>
        <time>2020-06-24T09:11:55.154Z</time>
      </trkpt>
      <trkpt lat="48.3881" lon="7.26093">
        <ele>1011</ele>
        <time>2020-06-24T09:11:56.154Z</time>
      </trkpt>
      <trkpt lat="48.38809" lon="7.26091">
        <ele>1011</ele>
        <time>2020-06-24T09:11:57.153Z</time>
      </trkpt>
      <trkpt lat="48.38808" lon="7.26089">
        <ele>1011</ele>
        <time>2020-06-24T09:11:58.154Z</time>
      </trkpt>
      <trkpt lat="48.38808" lon="7.26087">
        <ele>1011</ele>
        <time>2020-06-24T09:11:59.153Z</time>
      </trkpt>
      <trkpt lat="48.38807" lon="7.26086">
        <ele>1011</ele>
        <time>2020-06-24T09:12:00.154Z</time>
      </trkpt>
      <trkpt lat="48.38806" lon="7.26084">
        <ele>1011</ele>
        <time>2020-06-24T09:12:01.153Z</time>
      </trkpt>
      <trkpt lat="48.38805" lon="7.26082">
        <ele>1011</ele>
        <time>2020-06-24T09:12:02.154Z</time>
      </trkpt>
      <trkpt lat="48.38804" lon="7.2608">
        <ele>1011</ele>
        <time>2020-06-24T09:12:03.153Z</time>
      </trkpt>
      <trkpt lat="48.38802" lon="7.26078">
        <ele>1011</ele>
        <time>2020-06-24T09:12:04.154Z</time>
      </trkpt>
      <trkpt lat="48.38801" lon="7.26076">
        <ele>1010</ele>
        <time>2020-06-24T09:12:05.154Z</time>
      </trkpt>
      <trkpt lat="48.388" lon="7.26075">
        <ele>1010</ele>
        <time>2020-06-24T09:12:06.153Z</time>
      </trkpt>
      <trkpt lat="48.38799" lon="7.26073">
        <ele>1009</ele>
        <time>2020-06-24T09:12:07.153Z</time>
      </trkpt>
      <trkpt lat="48.38798" lon="7.26071">
        <ele>1009</ele>
        <time>2020-06-24T09:12:08.154Z</time>
      </trkpt>
      <trkpt lat="48.38797" lon="7.2607">
        <ele>1008</ele>
        <time>2020-06-24T09:12:09.154Z</time>
      </trkpt>
      <trkpt lat="48.38797" lon="7.26068">
        <ele>1008</ele>
        <time>2020-06-24T09:12:10.154Z</time>
      </trkpt>
      <trkpt lat="48.38796" lon="7.26066">
        <ele>1007</ele>
        <time>2020-06-24T09:12:11.153Z</time>
      </trkpt>
      <trkpt lat="48.38796" lon="7.26064">
        <ele>1006</ele>
        <time>2020-06-24T09:12:12.154Z</time>
      </trkpt>
      <trkpt lat="48.38795" lon="7.26061">
        <ele>1005</ele>
        <time>2020-06-24T09:12:13.154Z</time>
      </trkpt>
      <trkpt lat="48.38795" lon="7.26059">
        <ele>1005</ele>
        <time>2020-06-24T09:12:14.154Z</time>
      </trkpt>
      <trkpt lat="48.38795" lon="7.26057">
        <ele>1005</ele>
        <time>2020-06-24T09:12:15.153Z</time>
      </trkpt>
      <trkpt lat="48.38794" lon="7.26055">
        <ele>1005</ele>
        <time>2020-06-24T09:12:16.154Z</time>
      </trkpt>
      <trkpt lat="48.38793" lon="7.26053">
        <ele>1005</ele>
        <time>2020-06-24T09:12:17.153Z</time>
      </trkpt>
      <trkpt lat="48.38793" lon="7.26052">
        <ele>1004</ele>
        <time>2020-06-24T09:12:18.153Z</time>
      </trkpt>
      <trkpt lat="48.38792" lon="7.2605">
        <ele>1004</ele>
        <time>2020-06-24T09:12:19.153Z</time>
      </trkpt>
      <trkpt lat="48.38791" lon="7.26048">
        <ele>1004</ele>
        <time>2020-06-24T09:12:20.154Z</time>
      </trkpt>
      <trkpt lat="48.38791" lon="7.26046">
        <ele>1004</ele>
        <time>2020-06-24T09:12:21.153Z</time>
      </trkpt>
      <trkpt lat="48.3879" lon="7.26045">
        <ele>1004</ele>
        <time>2020-06-24T09:12:22.154Z</time>
      </trkpt>
      <trkpt lat="48.38789" lon="7.26043">
        <ele>1004</ele>
        <time>2020-06-24T09:12:23.154Z</time>
      </trkpt>
      <trkpt lat="48.38787" lon="7.26042">
        <ele>1004</ele>
        <time>2020-06-24T09:12:24.154Z</time>
      </trkpt>
      <trkpt lat="48.38787" lon="7.26041">
        <ele>1004</ele>
        <time>2020-06-24T09:12:25.153Z</time>
      </trkpt>
      <trkpt lat="48.38786" lon="7.26039">
        <ele>1003</ele>
        <time>2020-06-24T09:12:26.154Z</time>
      </trkpt>
      <trkpt lat="48.38785" lon="7.26037">
        <ele>1002</ele>
        <time>2020-06-24T09:12:27.154Z</time>
      </trkpt>
      <trkpt lat="48.38784" lon="7.26035">
        <ele>1002</ele>
        <time>2020-06-24T09:12:28.154Z</time>
      </trkpt>
      <trkpt lat="48.38783" lon="7.26032">
        <ele>1001</ele>
        <time>2020-06-24T09:12:29.154Z</time>
      </trkpt>
      <trkpt lat="48.38782" lon="7.2603">
        <ele>1001</ele>
        <time>2020-06-24T09:12:30.154Z</time>
      </trkpt>
      <trkpt lat="48.38781" lon="7.26028">
        <ele>1001</ele>
        <time>2020-06-24T09:12:31.154Z</time>
      </trkpt>
      <trkpt lat="48.3878" lon="7.26026">
        <ele>1001</ele>
        <time>2020-06-24T09:12:32.154Z</time>
      </trkpt>
      <trkpt lat="48.38779" lon="7.26025">
        <ele>1001</ele>
        <time>2020-06-24T09:12:33.153Z</time>
      </trkpt>
      <trkpt lat="48.38777" lon="7.26024">
        <ele>1001</ele>
        <time>2020-06-24T09:12:34.154Z</time>
      </trkpt>
      <trkpt lat="48.38776" lon="7.26022">
        <ele>1001</ele>
        <time>2020-06-24T09:12:35.154Z</time>
      </trkpt>
      <trkpt lat="48.38775" lon="7.26021">
        <ele>1001</ele>
        <time>2020-06-24T09:12:36.154Z</time>
      </trkpt>
      <trkpt lat="48.38774" lon="7.26018">
        <ele>1001</ele>
        <time>2020-06-24T09:12:37.154Z</time>
      </trkpt>
      <trkpt lat="48.38772" lon="7.26015">
        <ele>1001</ele>
        <time>2020-06-24T09:12:38.154Z</time>
      </trkpt>
      <trkpt lat="48.38771" lon="7.26013">
        <ele>1002</ele>
        <time>2020-06-24T09:12:39.154Z</time>
      </trkpt>
      <trkpt lat="48.3877" lon="7.26011">
        <ele>1002</ele>
        <time>2020-06-24T09:12:40.154Z</time>
      </trkpt>
      <trkpt lat="48.38768" lon="7.26009">
        <ele>1002</ele>
        <time>2020-06-24T09:12:41.154Z</time>
      </trkpt>
      <trkpt lat="48.38767" lon="7.26006">
        <ele>1002</ele>
        <time>2020-06-24T09:12:42.153Z</time>
      </trkpt>
      <trkpt lat="48.38767" lon="7.26005">
        <ele>1002</ele>
        <time>2020-06-24T09:12:43.154Z</time>
      </trkpt>
      <trkpt lat="48.38766" lon="7.26002">
        <ele>1002</ele>
        <time>2020-06-24T09:12:44.154Z</time>
      </trkpt>
      <trkpt lat="48.38764" lon="7.26001">
        <ele>1002</ele>
        <time>2020-06-24T09:12:45.154Z</time>
      </trkpt>
      <trkpt lat="48.38763" lon="7.25999">
        <ele>1003</ele>
        <time>2020-06-24T09:12:46.154Z</time>
      </trkpt>
      <trkpt lat="48.38762" lon="7.25997">
        <ele>1003</ele>
        <time>2020-06-24T09:12:47.154Z</time>
      </trkpt>
      <trkpt lat="48.38761" lon="7.25995">
        <ele>1003</ele>
        <time>2020-06-24T09:12:48.154Z</time>
      </trkpt>
      <trkpt lat="48.3876" lon="7.25994">
        <ele>1003</ele>
        <time>2020-06-24T09:12:49.154Z</time>
      </trkpt>
      <trkpt lat="48.38759" lon="7.25993">
        <ele>1003</ele>
        <time>2020-06-24T09:12:50.154Z</time>
      </trkpt>
      <trkpt lat="48.38758" lon="7.25991">
        <ele>1003</ele>
        <time>2020-06-24T09:12:51.153Z</time>
      </trkpt>
      <trkpt lat="48.38756" lon="7.25991">
        <ele>1002</ele>
        <time>2020-06-24T09:12:52.154Z</time>
      </trkpt>
      <trkpt lat="48.38754" lon="7.25989">
        <ele>1002</ele>
        <time>2020-06-24T09:12:53.153Z</time>
      </trkpt>
      <trkpt lat="48.38753" lon="7.25988">
        <ele>1002</ele>
        <time>2020-06-24T09:12:54.153Z</time>
      </trkpt>
      <trkpt lat="48.38752" lon="7.25986">
        <ele>1002</ele>
        <time>2020-06-24T09:12:55.154Z</time>
      </trkpt>
      <trkpt lat="48.3875" lon="7.25984">
        <ele>1002</ele>
        <time>2020-06-24T09:12:56.154Z</time>
      </trkpt>
      <trkpt lat="48.38749" lon="7.25983">
        <ele>1002</ele>
        <time>2020-06-24T09:12:57.154Z</time>
      </trkpt>
      <trkpt lat="48.38748" lon="7.25981">
        <ele>1002</ele>
        <time>2020-06-24T09:12:58.154Z</time>
      </trkpt>
      <trkpt lat="48.38747" lon="7.25981">
        <ele>1002</ele>
        <time>2020-06-24T09:12:59.154Z</time>
      </trkpt>
      <trkpt lat="48.38746" lon="7.25979">
        <ele>1003</ele>
        <time>2020-06-24T09:13:00.153Z</time>
      </trkpt>
      <trkpt lat="48.38746" lon="7.25978">
        <ele>1003</ele>
        <time>2020-06-24T09:13:01.153Z</time>
      </trkpt>
      <trkpt lat="48.38745" lon="7.25976">
        <ele>1003</ele>
        <time>2020-06-24T09:13:02.154Z</time>
      </trkpt>
      <trkpt lat="48.38744" lon="7.25975">
        <ele>1003</ele>
        <time>2020-06-24T09:13:03.153Z</time>
      </trkpt>
      <trkpt lat="48.38743" lon="7.25973">
        <ele>1002</ele>
        <time>2020-06-24T09:13:04.154Z</time>
      </trkpt>
      <trkpt lat="48.38742" lon="7.25971">
        <ele>1002</ele>
        <time>2020-06-24T09:13:05.153Z</time>
      </trkpt>
      <trkpt lat="48.38741" lon="7.25969">
        <ele>1001</ele>
        <time>2020-06-24T09:13:06.154Z</time>
      </trkpt>
      <trkpt lat="48.3874" lon="7.25967">
        <ele>1000</ele>
        <time>2020-06-24T09:13:07.153Z</time>
      </trkpt>
      <trkpt lat="48.38739" lon="7.25965">
        <ele>1000</ele>
        <time>2020-06-24T09:13:08.153Z</time>
      </trkpt>
      <trkpt lat="48.38738" lon="7.25963">
        <ele>1000</ele>
        <time>2020-06-24T09:13:09.154Z</time>
      </trkpt>
      <trkpt lat="48.38737" lon="7.25962">
        <ele>999</ele>
        <time>2020-06-24T09:13:10.154Z</time>
      </trkpt>
      <trkpt lat="48.38736" lon="7.2596">
        <ele>999</ele>
        <time>2020-06-24T09:13:11.153Z</time>
      </trkpt>
      <trkpt lat="48.38735" lon="7.25959">
        <ele>999</ele>
        <time>2020-06-24T09:13:12.154Z</time>
      </trkpt>
      <trkpt lat="48.38733" lon="7.25957">
        <ele>998</ele>
        <time>2020-06-24T09:13:13.153Z</time>
      </trkpt>
      <trkpt lat="48.38732" lon="7.25956">
        <ele>998</ele>
        <time>2020-06-24T09:13:14.154Z</time>
      </trkpt>
      <trkpt lat="48.38731" lon="7.25955">
        <ele>998</ele>
        <time>2020-06-24T09:13:15.153Z</time>
      </trkpt>
      <trkpt lat="48.3873" lon="7.25953">
        <ele>999</ele>
        <time>2020-06-24T09:13:16.154Z</time>
      </trkpt>
      <trkpt lat="48.38729" lon="7.25951">
        <ele>999</ele>
        <time>2020-06-24T09:13:17.153Z</time>
      </trkpt>
      <trkpt lat="48.38728" lon="7.2595">
        <ele>1000</ele>
        <time>2020-06-24T09:13:18.154Z</time>
      </trkpt>
      <trkpt lat="48.38727" lon="7.25948">
        <ele>1000</ele>
        <time>2020-06-24T09:13:19.154Z</time>
      </trkpt>
      <trkpt lat="48.38726" lon="7.25947">
        <ele>1000</ele>
        <time>2020-06-24T09:13:20.153Z</time>
      </trkpt>
      <trkpt lat="48.38725" lon="7.25945">
        <ele>1000</ele>
        <time>2020-06-24T09:13:21.153Z</time>
      </trkpt>
      <trkpt lat="48.38723" lon="7.25943">
        <ele>1000</ele>
        <time>2020-06-24T09:13:22.154Z</time>
      </trkpt>
      <trkpt lat="48.38722" lon="7.25942">
        <ele>1000</ele>
        <time>2020-06-24T09:13:23.154Z</time>
      </trkpt>
      <trkpt lat="48.38721" lon="7.25941">
        <ele>1000</ele>
        <time>2020-06-24T09:13:24.154Z</time>
      </trkpt>
      <trkpt lat="48.3872" lon="7.25939">
        <ele>1000</ele>
        <time>2020-06-24T09:13:25.154Z</time>
      </trkpt>
      <trkpt lat="48.38719" lon="7.25938">
        <ele>999</ele>
        <time>2020-06-24T09:13:26.153Z</time>
      </trkpt>
      <trkpt lat="48.38718" lon="7.25936">
        <ele>999</ele>
        <time>2020-06-24T09:13:27.153Z</time>
      </trkpt>
      <trkpt lat="48.38718" lon="7.25934">
        <ele>999</ele>
        <time>2020-06-24T09:13:28.154Z</time>
      </trkpt>
      <trkpt lat="48.38717" lon="7.25932">
        <ele>999</ele>
        <time>2020-06-24T09:13:29.154Z</time>
      </trkpt>
      <trkpt lat="48.38717" lon="7.25931">
        <ele>999</ele>
        <time>2020-06-24T09:13:30.153Z</time>
      </trkpt>
      <trkpt lat="48.38717" lon="7.25929">
        <ele>999</ele>
        <time>2020-06-24T09:13:31.153Z</time>
      </trkpt>
      <trkpt lat="48.38717" lon="7.25927">
        <ele>998</ele>
        <time>2020-06-24T09:13:32.154Z</time>
      </trkpt>
      <trkpt lat="48.38717" lon="7.25927">
        <ele>997</ele>
        <time>2020-06-24T09:13:33.153Z</time>
      </trkpt>
      <trkpt lat="48.38717" lon="7.25926">
        <ele>996</ele>
        <time>2020-06-24T09:13:34.154Z</time>
      </trkpt>
      <trkpt lat="48.38717" lon="7.25926">
        <ele>996</ele>
        <time>2020-06-24T09:13:35.154Z</time>
      </trkpt>
      <trkpt lat="48.38718" lon="7.25925">
        <ele>995</ele>
        <time>2020-06-24T09:13:36.153Z</time>
      </trkpt>
      <trkpt lat="48.38718" lon="7.25926">
        <ele>995</ele>
        <time>2020-06-24T09:13:37.154Z</time>
      </trkpt>
      <trkpt lat="48.38719" lon="7.25926">
        <ele>994</ele>
        <time>2020-06-24T09:13:38.154Z</time>
      </trkpt>
      <trkpt lat="48.38719" lon="7.25926">
        <ele>994</ele>
        <time>2020-06-24T09:13:39.153Z</time>
      </trkpt>
      <trkpt lat="48.38724" lon="7.25921">
        <ele>992</ele>
        <time>2020-06-24T09:13:40.154Z</time>
      </trkpt>
      <trkpt lat="48.38725" lon="7.25918">
        <ele>992</ele>
        <time>2020-06-24T09:13:41.154Z</time>
      </trkpt>
      <trkpt lat="48.38726" lon="7.25916">
        <ele>992</ele>
        <time>2020-06-24T09:13:42.154Z</time>
      </trkpt>
      <trkpt lat="48.38727" lon="7.25914">
        <ele>992</ele>
        <time>2020-06-24T09:13:43.154Z</time>
      </trkpt>
      <trkpt lat="48.38729" lon="7.25911">
        <ele>991</ele>
        <time>2020-06-24T09:13:44.154Z</time>
      </trkpt>
      <trkpt lat="48.3873" lon="7.25909">
        <ele>990</ele>
        <time>2020-06-24T09:13:45.153Z</time>
      </trkpt>
      <trkpt lat="48.38731" lon="7.25907">
        <ele>990</ele>
        <time>2020-06-24T09:13:46.153Z</time>
      </trkpt>
      <trkpt lat="48.38732" lon="7.25904">
        <ele>990</ele>
        <time>2020-06-24T09:13:47.154Z</time>
      </trkpt>
      <trkpt lat="48.38731" lon="7.25902">
        <ele>990</ele>
        <time>2020-06-24T09:13:48.154Z</time>
      </trkpt>
      <trkpt lat="48.38731" lon="7.25899">
        <ele>990</ele>
        <time>2020-06-24T09:13:49.154Z</time>
      </trkpt>
      <trkpt lat="48.38732" lon="7.25897">
        <ele>990</ele>
        <time>2020-06-24T09:13:50.153Z</time>
      </trkpt>
      <trkpt lat="48.38732" lon="7.25895">
        <ele>990</ele>
        <time>2020-06-24T09:13:51.154Z</time>
      </trkpt>
      <trkpt lat="48.38733" lon="7.25893">
        <ele>989</ele>
        <time>2020-06-24T09:13:52.154Z</time>
      </trkpt>
      <trkpt lat="48.38733" lon="7.25892">
        <ele>989</ele>
        <time>2020-06-24T09:13:53.154Z</time>
      </trkpt>
      <trkpt lat="48.38734" lon="7.25889">
        <ele>988</ele>
        <time>2020-06-24T09:13:54.153Z</time>
      </trkpt>
      <trkpt lat="48.38734" lon="7.25887">
        <ele>988</ele>
        <time>2020-06-24T09:13:55.154Z</time>
      </trkpt>
      <trkpt lat="48.38735" lon="7.25884">
        <ele>987</ele>
        <time>2020-06-24T09:13:56.154Z</time>
      </trkpt>
      <trkpt lat="48.38735" lon="7.25882">
        <ele>987</ele>
        <time>2020-06-24T09:13:57.154Z</time>
      </trkpt>
      <trkpt lat="48.38735" lon="7.25879">
        <ele>986</ele>
        <time>2020-06-24T09:13:58.153Z</time>
      </trkpt>
      <trkpt lat="48.38736" lon="7.25877">
        <ele>985</ele>
        <time>2020-06-24T09:13:59.154Z</time>
      </trkpt>
      <trkpt lat="48.38737" lon="7.25875">
        <ele>985</ele>
        <time>2020-06-24T09:14:00.154Z</time>
      </trkpt>
      <trkpt lat="48.38737" lon="7.25872">
        <ele>984</ele>
        <time>2020-06-24T09:14:01.153Z</time>
      </trkpt>
      <trkpt lat="48.38738" lon="7.2587">
        <ele>984</ele>
        <time>2020-06-24T09:14:02.153Z</time>
      </trkpt>
      <trkpt lat="48.38738" lon="7.25868">
        <ele>983</ele>
        <time>2020-06-24T09:14:03.154Z</time>
      </trkpt>
      <trkpt lat="48.38739" lon="7.25865">
        <ele>983</ele>
        <time>2020-06-24T09:14:04.154Z</time>
      </trkpt>
      <trkpt lat="48.3874" lon="7.25863">
        <ele>983</ele>
        <time>2020-06-24T09:14:05.154Z</time>
      </trkpt>
      <trkpt lat="48.38741" lon="7.25861">
        <ele>982</ele>
        <time>2020-06-24T09:14:06.153Z</time>
      </trkpt>
      <trkpt lat="48.38741" lon="7.2586">
        <ele>982</ele>
        <time>2020-06-24T09:14:07.153Z</time>
      </trkpt>
      <trkpt lat="48.38742" lon="7.25858">
        <ele>982</ele>
        <time>2020-06-24T09:14:08.154Z</time>
      </trkpt>
      <trkpt lat="48.38743" lon="7.25856">
        <ele>981</ele>
        <time>2020-06-24T09:14:09.154Z</time>
      </trkpt>
      <trkpt lat="48.38744" lon="7.25854">
        <ele>981</ele>
        <time>2020-06-24T09:14:10.154Z</time>
      </trkpt>
      <trkpt lat="48.38745" lon="7.25854">
        <ele>981</ele>
        <time>2020-06-24T09:14:11.154Z</time>
      </trkpt>
      <trkpt lat="48.38746" lon="7.25853">
        <ele>981</ele>
        <time>2020-06-24T09:14:12.154Z</time>
      </trkpt>
      <trkpt lat="48.38748" lon="7.25854">
        <ele>981</ele>
        <time>2020-06-24T09:14:13.154Z</time>
      </trkpt>
      <trkpt lat="48.38749" lon="7.25855">
        <ele>981</ele>
        <time>2020-06-24T09:14:14.153Z</time>
      </trkpt>
      <trkpt lat="48.38751" lon="7.25855">
        <ele>981</ele>
        <time>2020-06-24T09:14:15.153Z</time>
      </trkpt>
      <trkpt lat="48.38752" lon="7.25855">
        <ele>981</ele>
        <time>2020-06-24T09:14:16.154Z</time>
      </trkpt>
      <trkpt lat="48.38754" lon="7.25854">
        <ele>981</ele>
        <time>2020-06-24T09:14:17.154Z</time>
      </trkpt>
      <trkpt lat="48.38755" lon="7.25853">
        <ele>981</ele>
        <time>2020-06-24T09:14:18.154Z</time>
      </trkpt>
      <trkpt lat="48.38756" lon="7.25853">
        <ele>981</ele>
        <time>2020-06-24T09:14:19.154Z</time>
      </trkpt>
      <trkpt lat="48.38758" lon="7.25853">
        <ele>981</ele>
        <time>2020-06-24T09:14:20.154Z</time>
      </trkpt>
      <trkpt lat="48.38759" lon="7.25854">
        <ele>981</ele>
        <time>2020-06-24T09:14:21.154Z</time>
      </trkpt>
      <trkpt lat="48.38761" lon="7.25854">
        <ele>982</ele>
        <time>2020-06-24T09:14:22.153Z</time>
      </trkpt>
      <trkpt lat="48.38762" lon="7.25855">
        <ele>983</ele>
        <time>2020-06-24T09:14:23.154Z</time>
      </trkpt>
      <trkpt lat="48.38764" lon="7.25855">
        <ele>983</ele>
        <time>2020-06-24T09:14:24.154Z</time>
      </trkpt>
      <trkpt lat="48.38765" lon="7.25854">
        <ele>984</ele>
        <time>2020-06-24T09:14:25.154Z</time>
      </trkpt>
      <trkpt lat="48.38766" lon="7.25854">
        <ele>984</ele>
        <time>2020-06-24T09:14:26.153Z</time>
      </trkpt>
      <trkpt lat="48.38768" lon="7.25855">
        <ele>984</ele>
        <time>2020-06-24T09:14:27.154Z</time>
      </trkpt>
      <trkpt lat="48.38769" lon="7.25855">
        <ele>985</ele>
        <time>2020-06-24T09:14:28.154Z</time>
      </trkpt>
      <trkpt lat="48.38771" lon="7.25855">
        <ele>985</ele>
        <time>2020-06-24T09:14:29.154Z</time>
      </trkpt>
      <trkpt lat="48.38772" lon="7.25856">
        <ele>985</ele>
        <time>2020-06-24T09:14:30.154Z</time>
      </trkpt>
      <trkpt lat="48.38774" lon="7.25857">
        <ele>985</ele>
        <time>2020-06-24T09:14:31.154Z</time>
      </trkpt>
      <trkpt lat="48.38775" lon="7.25857">
        <ele>985</ele>
        <time>2020-06-24T09:14:32.154Z</time>
      </trkpt>
      <trkpt lat="48.38777" lon="7.25856">
        <ele>986</ele>
        <time>2020-06-24T09:14:33.154Z</time>
      </trkpt>
      <trkpt lat="48.38777" lon="7.25854">
        <ele>986</ele>
        <time>2020-06-24T09:14:34.154Z</time>
      </trkpt>
      <trkpt lat="48.38777" lon="7.25854">
        <ele>987</ele>
        <time>2020-06-24T09:14:35.154Z</time>
      </trkpt>
      <trkpt lat="48.38777" lon="7.25855">
        <ele>987</ele>
        <time>2020-06-24T09:14:36.154Z</time>
      </trkpt>
      <trkpt lat="48.38777" lon="7.25853">
        <ele>986</ele>
        <time>2020-06-24T09:14:37.153Z</time>
      </trkpt>
      <trkpt lat="48.38777" lon="7.25853">
        <ele>986</ele>
        <time>2020-06-24T09:14:38.154Z</time>
      </trkpt>
      <trkpt lat="48.38777" lon="7.25852">
        <ele>987</ele>
        <time>2020-06-24T09:14:39.153Z</time>
      </trkpt>
      <trkpt lat="48.38777" lon="7.25851">
        <ele>988</ele>
        <time>2020-06-24T09:14:40.153Z</time>
      </trkpt>
      <trkpt lat="48.38777" lon="7.2585">
        <ele>988</ele>
        <time>2020-06-24T09:14:41.154Z</time>
      </trkpt>
      <trkpt lat="48.38777" lon="7.25849">
        <ele>988</ele>
        <time>2020-06-24T09:14:42.154Z</time>
      </trkpt>
      <trkpt lat="48.38777" lon="7.25847">
        <ele>989</ele>
        <time>2020-06-24T09:14:43.153Z</time>
      </trkpt>
      <trkpt lat="48.38777" lon="7.25846">
        <ele>989</ele>
        <time>2020-06-24T09:14:44.153Z</time>
      </trkpt>
      <trkpt lat="48.38778" lon="7.25844">
        <ele>990</ele>
        <time>2020-06-24T09:14:45.153Z</time>
      </trkpt>
      <trkpt lat="48.38778" lon="7.25842">
        <ele>991</ele>
        <time>2020-06-24T09:14:46.153Z</time>
      </trkpt>
      <trkpt lat="48.38778" lon="7.25839">
        <ele>991</ele>
        <time>2020-06-24T09:14:47.154Z</time>
      </trkpt>
      <trkpt lat="48.38779" lon="7.25837">
        <ele>991</ele>
        <time>2020-06-24T09:14:48.154Z</time>
      </trkpt>
      <trkpt lat="48.3878" lon="7.25835">
        <ele>992</ele>
        <time>2020-06-24T09:14:49.153Z</time>
      </trkpt>
      <trkpt lat="48.3878" lon="7.25834">
        <ele>992</ele>
        <time>2020-06-24T09:14:50.153Z</time>
      </trkpt>
      <trkpt lat="48.3878" lon="7.25833">
        <ele>992</ele>
        <time>2020-06-24T09:14:51.154Z</time>
      </trkpt>
      <trkpt lat="48.3878" lon="7.25832">
        <ele>992</ele>
        <time>2020-06-24T09:14:52.154Z</time>
      </trkpt>
      <trkpt lat="48.38781" lon="7.25831">
        <ele>992</ele>
        <time>2020-06-24T09:14:53.154Z</time>
      </trkpt>
      <trkpt lat="48.38781" lon="7.25829">
        <ele>992</ele>
        <time>2020-06-24T09:14:54.154Z</time>
      </trkpt>
      <trkpt lat="48.38781" lon="7.25828">
        <ele>992</ele>
        <time>2020-06-24T09:14:55.153Z</time>
      </trkpt>
      <trkpt lat="48.38781" lon="7.25827">
        <ele>992</ele>
        <time>2020-06-24T09:14:56.154Z</time>
      </trkpt>
      <trkpt lat="48.38782" lon="7.25826">
        <ele>992</ele>
        <time>2020-06-24T09:14:57.154Z</time>
      </trkpt>
      <trkpt lat="48.38782" lon="7.25825">
        <ele>992</ele>
        <time>2020-06-24T09:14:58.154Z</time>
      </trkpt>
      <trkpt lat="48.38782" lon="7.25823">
        <ele>992</ele>
        <time>2020-06-24T09:14:59.153Z</time>
      </trkpt>
      <trkpt lat="48.38782" lon="7.2582">
        <ele>991</ele>
        <time>2020-06-24T09:15:00.153Z</time>
      </trkpt>
      <trkpt lat="48.38782" lon="7.25819">
        <ele>991</ele>
        <time>2020-06-24T09:15:01.153Z</time>
      </trkpt>
      <trkpt lat="48.38782" lon="7.25816">
        <ele>991</ele>
        <time>2020-06-24T09:15:02.154Z</time>
      </trkpt>
      <trkpt lat="48.38782" lon="7.25814">
        <ele>990</ele>
        <time>2020-06-24T09:15:03.153Z</time>
      </trkpt>
      <trkpt lat="48.38782" lon="7.25812">
        <ele>990</ele>
        <time>2020-06-24T09:15:04.153Z</time>
      </trkpt>
      <trkpt lat="48.38783" lon="7.2581">
        <ele>990</ele>
        <time>2020-06-24T09:15:05.153Z</time>
      </trkpt>
      <trkpt lat="48.38783" lon="7.25808">
        <ele>990</ele>
        <time>2020-06-24T09:15:06.154Z</time>
      </trkpt>
      <trkpt lat="48.38784" lon="7.25806">
        <ele>990</ele>
        <time>2020-06-24T09:15:07.153Z</time>
      </trkpt>
      <trkpt lat="48.38785" lon="7.25803">
        <ele>990</ele>
        <time>2020-06-24T09:15:08.154Z</time>
      </trkpt>
      <trkpt lat="48.38785" lon="7.25801">
        <ele>989</ele>
        <time>2020-06-24T09:15:09.154Z</time>
      </trkpt>
      <trkpt lat="48.38785" lon="7.25799">
        <ele>988</ele>
        <time>2020-06-24T09:15:10.154Z</time>
      </trkpt>
      <trkpt lat="48.38784" lon="7.25798">
        <ele>987</ele>
        <time>2020-06-24T09:15:11.153Z</time>
      </trkpt>
      <trkpt lat="48.38783" lon="7.25797">
        <ele>987</ele>
        <time>2020-06-24T09:15:12.153Z</time>
      </trkpt>
      <trkpt lat="48.38782" lon="7.25796">
        <ele>986</ele>
        <time>2020-06-24T09:15:13.153Z</time>
      </trkpt>
      <trkpt lat="48.38781" lon="7.25795">
        <ele>985</ele>
        <time>2020-06-24T09:15:14.153Z</time>
      </trkpt>
      <trkpt lat="48.3878" lon="7.25794">
        <ele>985</ele>
        <time>2020-06-24T09:15:15.153Z</time>
      </trkpt>
      <trkpt lat="48.38778" lon="7.25794">
        <ele>984</ele>
        <time>2020-06-24T09:15:16.154Z</time>
      </trkpt>
      <trkpt lat="48.38777" lon="7.25793">
        <ele>984</ele>
        <time>2020-06-24T09:15:17.154Z</time>
      </trkpt>
      <trkpt lat="48.38775" lon="7.25792">
        <ele>983</ele>
        <time>2020-06-24T09:15:18.154Z</time>
      </trkpt>
      <trkpt lat="48.38774" lon="7.25792">
        <ele>983</ele>
        <time>2020-06-24T09:15:19.154Z</time>
      </trkpt>
      <trkpt lat="48.38773" lon="7.25791">
        <ele>983</ele>
        <time>2020-06-24T09:15:20.154Z</time>
      </trkpt>
      <trkpt lat="48.38772" lon="7.2579">
        <ele>984</ele>
        <time>2020-06-24T09:15:21.153Z</time>
      </trkpt>
      <trkpt lat="48.38771" lon="7.25789">
        <ele>984</ele>
        <time>2020-06-24T09:15:22.154Z</time>
      </trkpt>
      <trkpt lat="48.3877" lon="7.25788">
        <ele>984</ele>
        <time>2020-06-24T09:15:23.154Z</time>
      </trkpt>
      <trkpt lat="48.38769" lon="7.25786">
        <ele>984</ele>
        <time>2020-06-24T09:15:24.154Z</time>
      </trkpt>
      <trkpt lat="48.38768" lon="7.25785">
        <ele>984</ele>
        <time>2020-06-24T09:15:25.154Z</time>
      </trkpt>
      <trkpt lat="48.38767" lon="7.25784">
        <ele>984</ele>
        <time>2020-06-24T09:15:26.154Z</time>
      </trkpt>
      <trkpt lat="48.38766" lon="7.25783">
        <ele>984</ele>
        <time>2020-06-24T09:15:27.153Z</time>
      </trkpt>
      <trkpt lat="48.38764" lon="7.25783">
        <ele>984</ele>
        <time>2020-06-24T09:15:28.154Z</time>
      </trkpt>
      <trkpt lat="48.38763" lon="7.25782">
        <ele>983</ele>
        <time>2020-06-24T09:15:29.154Z</time>
      </trkpt>
      <trkpt lat="48.38761" lon="7.25782">
        <ele>983</ele>
        <time>2020-06-24T09:15:30.154Z</time>
      </trkpt>
      <trkpt lat="48.3876" lon="7.25782">
        <ele>982</ele>
        <time>2020-06-24T09:15:31.154Z</time>
      </trkpt>
      <trkpt lat="48.38758" lon="7.25781">
        <ele>982</ele>
        <time>2020-06-24T09:15:32.154Z</time>
      </trkpt>
      <trkpt lat="48.38756" lon="7.25781">
        <ele>982</ele>
        <time>2020-06-24T09:15:33.154Z</time>
      </trkpt>
      <trkpt lat="48.38755" lon="7.2578">
        <ele>981</ele>
        <time>2020-06-24T09:15:34.154Z</time>
      </trkpt>
      <trkpt lat="48.38753" lon="7.25781">
        <ele>980</ele>
        <time>2020-06-24T09:15:35.154Z</time>
      </trkpt>
      <trkpt lat="48.38751" lon="7.25781">
        <ele>979</ele>
        <time>2020-06-24T09:15:36.153Z</time>
      </trkpt>
      <trkpt lat="48.38749" lon="7.25781">
        <ele>979</ele>
        <time>2020-06-24T09:15:37.154Z</time>
      </trkpt>
      <trkpt lat="48.38748" lon="7.25781">
        <ele>978</ele>
        <time>2020-06-24T09:15:38.154Z</time>
      </trkpt>
      <trkpt lat="48.38746" lon="7.25781">
        <ele>977</ele>
        <time>2020-06-24T09:15:39.154Z</time>
      </trkpt>
      <trkpt lat="48.38744" lon="7.25781">
        <ele>977</ele>
        <time>2020-06-24T09:15:40.154Z</time>
      </trkpt>
      <trkpt lat="48.38743" lon="7.25781">
        <ele>976</ele>
        <time>2020-06-24T09:15:41.154Z</time>
      </trkpt>
      <trkpt lat="48.38742" lon="7.2578">
        <ele>976</ele>
        <time>2020-06-24T09:15:42.154Z</time>
      </trkpt>
      <trkpt lat="48.38741" lon="7.25779">
        <ele>975</ele>
        <time>2020-06-24T09:15:43.154Z</time>
      </trkpt>
      <trkpt lat="48.3874" lon="7.25778">
        <ele>975</ele>
        <time>2020-06-24T09:15:44.154Z</time>
      </trkpt>
      <trkpt lat="48.38739" lon="7.25776">
        <ele>975</ele>
        <time>2020-06-24T09:15:45.154Z</time>
      </trkpt>
      <trkpt lat="48.38737" lon="7.25775">
        <ele>974</ele>
        <time>2020-06-24T09:15:46.154Z</time>
      </trkpt>
      <trkpt lat="48.38736" lon="7.25774">
        <ele>973</ele>
        <time>2020-06-24T09:15:47.154Z</time>
      </trkpt>
      <trkpt lat="48.38734" lon="7.25773">
        <ele>973</ele>
        <time>2020-06-24T09:15:48.154Z</time>
      </trkpt>
      <trkpt lat="48.38733" lon="7.25772">
        <ele>973</ele>
        <time>2020-06-24T09:15:49.154Z</time>
      </trkpt>
      <trkpt lat="48.38731" lon="7.25771">
        <ele>973</ele>
        <time>2020-06-24T09:15:50.154Z</time>
      </trkpt>
      <trkpt lat="48.3873" lon="7.2577">
        <ele>973</ele>
        <time>2020-06-24T09:15:51.154Z</time>
      </trkpt>
      <trkpt lat="48.38729" lon="7.25768">
        <ele>973</ele>
        <time>2020-06-24T09:15:52.154Z</time>
      </trkpt>
      <trkpt lat="48.38728" lon="7.25767">
        <ele>973</ele>
        <time>2020-06-24T09:15:53.154Z</time>
      </trkpt>
      <trkpt lat="48.38726" lon="7.25766">
        <ele>973</ele>
        <time>2020-06-24T09:15:54.154Z</time>
      </trkpt>
      <trkpt lat="48.38725" lon="7.25765">
        <ele>972</ele>
        <time>2020-06-24T09:15:55.154Z</time>
      </trkpt>
      <trkpt lat="48.38724" lon="7.25764">
        <ele>972</ele>
        <time>2020-06-24T09:15:56.154Z</time>
      </trkpt>
      <trkpt lat="48.38722" lon="7.25763">
        <ele>972</ele>
        <time>2020-06-24T09:15:57.154Z</time>
      </trkpt>
      <trkpt lat="48.3872" lon="7.25762">
        <ele>972</ele>
        <time>2020-06-24T09:15:58.154Z</time>
      </trkpt>
      <trkpt lat="48.38719" lon="7.25762">
        <ele>972</ele>
        <time>2020-06-24T09:15:59.153Z</time>
      </trkpt>
      <trkpt lat="48.38718" lon="7.25761">
        <ele>972</ele>
        <time>2020-06-24T09:16:00.154Z</time>
      </trkpt>
      <trkpt lat="48.38717" lon="7.2576">
        <ele>972</ele>
        <time>2020-06-24T09:16:01.153Z</time>
      </trkpt>
      <trkpt lat="48.38715" lon="7.25759">
        <ele>972</ele>
        <time>2020-06-24T09:16:02.154Z</time>
      </trkpt>
      <trkpt lat="48.38714" lon="7.25758">
        <ele>972</ele>
        <time>2020-06-24T09:16:03.154Z</time>
      </trkpt>
      <trkpt lat="48.38713" lon="7.25757">
        <ele>972</ele>
        <time>2020-06-24T09:16:04.154Z</time>
      </trkpt>
      <trkpt lat="48.38711" lon="7.25756">
        <ele>972</ele>
        <time>2020-06-24T09:16:05.153Z</time>
      </trkpt>
      <trkpt lat="48.3871" lon="7.25755">
        <ele>973</ele>
        <time>2020-06-24T09:16:06.153Z</time>
      </trkpt>
      <trkpt lat="48.38709" lon="7.25754">
        <ele>973</ele>
        <time>2020-06-24T09:16:07.154Z</time>
      </trkpt>
      <trkpt lat="48.38708" lon="7.25753">
        <ele>973</ele>
        <time>2020-06-24T09:16:08.154Z</time>
      </trkpt>
      <trkpt lat="48.38707" lon="7.25752">
        <ele>973</ele>
        <time>2020-06-24T09:16:09.153Z</time>
      </trkpt>
      <trkpt lat="48.38705" lon="7.2575">
        <ele>974</ele>
        <time>2020-06-24T09:16:10.154Z</time>
      </trkpt>
      <trkpt lat="48.38704" lon="7.25749">
        <ele>974</ele>
        <time>2020-06-24T09:16:11.154Z</time>
      </trkpt>
      <trkpt lat="48.38703" lon="7.25748">
        <ele>974</ele>
        <time>2020-06-24T09:16:12.154Z</time>
      </trkpt>
      <trkpt lat="48.38702" lon="7.25747">
        <ele>974</ele>
        <time>2020-06-24T09:16:13.154Z</time>
      </trkpt>
      <trkpt lat="48.38701" lon="7.25747">
        <ele>975</ele>
        <time>2020-06-24T09:16:14.154Z</time>
      </trkpt>
      <trkpt lat="48.387" lon="7.25746">
        <ele>974</ele>
        <time>2020-06-24T09:16:15.154Z</time>
      </trkpt>
      <trkpt lat="48.38699" lon="7.25744">
        <ele>974</ele>
        <time>2020-06-24T09:16:16.154Z</time>
      </trkpt>
      <trkpt lat="48.38697" lon="7.25742">
        <ele>974</ele>
        <time>2020-06-24T09:16:17.153Z</time>
      </trkpt>
      <trkpt lat="48.38696" lon="7.25741">
        <ele>974</ele>
        <time>2020-06-24T09:16:18.153Z</time>
      </trkpt>
      <trkpt lat="48.38695" lon="7.25739">
        <ele>974</ele>
        <time>2020-06-24T09:16:19.153Z</time>
      </trkpt>
      <trkpt lat="48.38694" lon="7.25738">
        <ele>973</ele>
        <time>2020-06-24T09:16:20.154Z</time>
      </trkpt>
      <trkpt lat="48.38693" lon="7.25736">
        <ele>973</ele>
        <time>2020-06-24T09:16:21.153Z</time>
      </trkpt>
      <trkpt lat="48.38692" lon="7.25735">
        <ele>973</ele>
        <time>2020-06-24T09:16:22.154Z</time>
      </trkpt>
      <trkpt lat="48.3869" lon="7.25734">
        <ele>972</ele>
        <time>2020-06-24T09:16:23.154Z</time>
      </trkpt>
      <trkpt lat="48.38689" lon="7.25732">
        <ele>972</ele>
        <time>2020-06-24T09:16:24.154Z</time>
      </trkpt>
      <trkpt lat="48.38688" lon="7.25731">
        <ele>972</ele>
        <time>2020-06-24T09:16:25.154Z</time>
      </trkpt>
      <trkpt lat="48.38686" lon="7.2573">
        <ele>971</ele>
        <time>2020-06-24T09:16:26.154Z</time>
      </trkpt>
      <trkpt lat="48.38685" lon="7.25729">
        <ele>971</ele>
        <time>2020-06-24T09:16:27.154Z</time>
      </trkpt>
      <trkpt lat="48.38683" lon="7.25728">
        <ele>970</ele>
        <time>2020-06-24T09:16:28.153Z</time>
      </trkpt>
      <trkpt lat="48.38682" lon="7.25728">
        <ele>970</ele>
        <time>2020-06-24T09:16:29.154Z</time>
      </trkpt>
      <trkpt lat="48.3868" lon="7.25727">
        <ele>970</ele>
        <time>2020-06-24T09:16:30.154Z</time>
      </trkpt>
      <trkpt lat="48.38679" lon="7.25727">
        <ele>970</ele>
        <time>2020-06-24T09:16:31.153Z</time>
      </trkpt>
      <trkpt lat="48.38678" lon="7.25726">
        <ele>970</ele>
        <time>2020-06-24T09:16:32.154Z</time>
      </trkpt>
      <trkpt lat="48.38676" lon="7.25725">
        <ele>971</ele>
        <time>2020-06-24T09:16:33.154Z</time>
      </trkpt>
      <trkpt lat="48.38675" lon="7.25724">
        <ele>971</ele>
        <time>2020-06-24T09:16:34.154Z</time>
      </trkpt>
      <trkpt lat="48.38674" lon="7.25724">
        <ele>972</ele>
        <time>2020-06-24T09:16:35.153Z</time>
      </trkpt>
      <trkpt lat="48.38672" lon="7.25723">
        <ele>972</ele>
        <time>2020-06-24T09:16:36.154Z</time>
      </trkpt>
      <trkpt lat="48.38671" lon="7.25722">
        <ele>972</ele>
        <time>2020-06-24T09:16:37.153Z</time>
      </trkpt>
      <trkpt lat="48.3867" lon="7.25722">
        <ele>972</ele>
        <time>2020-06-24T09:16:38.154Z</time>
      </trkpt>
      <trkpt lat="48.38668" lon="7.25721">
        <ele>973</ele>
        <time>2020-06-24T09:16:39.154Z</time>
      </trkpt>
      <trkpt lat="48.38666" lon="7.25721">
        <ele>973</ele>
        <time>2020-06-24T09:16:40.153Z</time>
      </trkpt>
      <trkpt lat="48.38665" lon="7.2572">
        <ele>973</ele>
        <time>2020-06-24T09:16:41.153Z</time>
      </trkpt>
      <trkpt lat="48.38663" lon="7.2572">
        <ele>973</ele>
        <time>2020-06-24T09:16:42.154Z</time>
      </trkpt>
      <trkpt lat="48.38661" lon="7.25719">
        <ele>973</ele>
        <time>2020-06-24T09:16:43.154Z</time>
      </trkpt>
      <trkpt lat="48.3866" lon="7.25719">
        <ele>974</ele>
        <time>2020-06-24T09:16:44.154Z</time>
      </trkpt>
      <trkpt lat="48.38658" lon="7.25718">
        <ele>974</ele>
        <time>2020-06-24T09:16:45.154Z</time>
      </trkpt>
      <trkpt lat="48.38657" lon="7.25717">
        <ele>974</ele>
        <time>2020-06-24T09:16:46.154Z</time>
      </trkpt>
      <trkpt lat="48.38655" lon="7.25716">
        <ele>975</ele>
        <time>2020-06-24T09:16:47.154Z</time>
      </trkpt>
      <trkpt lat="48.38654" lon="7.25715">
        <ele>975</ele>
        <time>2020-06-24T09:16:48.153Z</time>
      </trkpt>
      <trkpt lat="48.38652" lon="7.25714">
        <ele>975</ele>
        <time>2020-06-24T09:16:49.154Z</time>
      </trkpt>
      <trkpt lat="48.38651" lon="7.25713">
        <ele>975</ele>
        <time>2020-06-24T09:16:50.154Z</time>
      </trkpt>
      <trkpt lat="48.38649" lon="7.25712">
        <ele>975</ele>
        <time>2020-06-24T09:16:51.153Z</time>
      </trkpt>
      <trkpt lat="48.38648" lon="7.25711">
        <ele>974</ele>
        <time>2020-06-24T09:16:52.153Z</time>
      </trkpt>
      <trkpt lat="48.38646" lon="7.2571">
        <ele>974</ele>
        <time>2020-06-24T09:16:53.154Z</time>
      </trkpt>
      <trkpt lat="48.38645" lon="7.25709">
        <ele>974</ele>
        <time>2020-06-24T09:16:54.154Z</time>
      </trkpt>
      <trkpt lat="48.38644" lon="7.25708">
        <ele>973</ele>
        <time>2020-06-24T09:16:55.154Z</time>
      </trkpt>
      <trkpt lat="48.38642" lon="7.25708">
        <ele>973</ele>
        <time>2020-06-24T09:16:56.154Z</time>
      </trkpt>
      <trkpt lat="48.38641" lon="7.25707">
        <ele>973</ele>
        <time>2020-06-24T09:16:57.154Z</time>
      </trkpt>
      <trkpt lat="48.3864" lon="7.25707">
        <ele>973</ele>
        <time>2020-06-24T09:16:58.154Z</time>
      </trkpt>
      <trkpt lat="48.38638" lon="7.25706">
        <ele>973</ele>
        <time>2020-06-24T09:16:59.153Z</time>
      </trkpt>
      <trkpt lat="48.38637" lon="7.25705">
        <ele>974</ele>
        <time>2020-06-24T09:17:00.154Z</time>
      </trkpt>
      <trkpt lat="48.38635" lon="7.25705">
        <ele>974</ele>
        <time>2020-06-24T09:17:01.154Z</time>
      </trkpt>
      <trkpt lat="48.38634" lon="7.25704">
        <ele>974</ele>
        <time>2020-06-24T09:17:02.154Z</time>
      </trkpt>
      <trkpt lat="48.38632" lon="7.25702">
        <ele>974</ele>
        <time>2020-06-24T09:17:03.154Z</time>
      </trkpt>
      <trkpt lat="48.38631" lon="7.25702">
        <ele>974</ele>
        <time>2020-06-24T09:17:04.154Z</time>
      </trkpt>
      <trkpt lat="48.38629" lon="7.25701">
        <ele>974</ele>
        <time>2020-06-24T09:17:05.153Z</time>
      </trkpt>
      <trkpt lat="48.38627" lon="7.257">
        <ele>975</ele>
        <time>2020-06-24T09:17:06.154Z</time>
      </trkpt>
      <trkpt lat="48.38626" lon="7.25699">
        <ele>975</ele>
        <time>2020-06-24T09:17:07.153Z</time>
      </trkpt>
      <trkpt lat="48.38623" lon="7.25698">
        <ele>975</ele>
        <time>2020-06-24T09:17:08.154Z</time>
      </trkpt>
      <trkpt lat="48.38622" lon="7.25697">
        <ele>975</ele>
        <time>2020-06-24T09:17:09.153Z</time>
      </trkpt>
      <trkpt lat="48.3862" lon="7.25696">
        <ele>976</ele>
        <time>2020-06-24T09:17:10.154Z</time>
      </trkpt>
      <trkpt lat="48.38619" lon="7.25695">
        <ele>976</ele>
        <time>2020-06-24T09:17:11.153Z</time>
      </trkpt>
      <trkpt lat="48.38617" lon="7.25694">
        <ele>976</ele>
        <time>2020-06-24T09:17:12.154Z</time>
      </trkpt>
      <trkpt lat="48.38616" lon="7.25694">
        <ele>977</ele>
        <time>2020-06-24T09:17:13.153Z</time>
      </trkpt>
      <trkpt lat="48.38615" lon="7.25694">
        <ele>977</ele>
        <time>2020-06-24T09:17:14.154Z</time>
      </trkpt>
      <trkpt lat="48.38613" lon="7.25693">
        <ele>977</ele>
        <time>2020-06-24T09:17:15.154Z</time>
      </trkpt>
      <trkpt lat="48.38612" lon="7.25692">
        <ele>978</ele>
        <time>2020-06-24T09:17:16.154Z</time>
      </trkpt>
      <trkpt lat="48.38611" lon="7.25692">
        <ele>978</ele>
        <time>2020-06-24T09:17:17.154Z</time>
      </trkpt>
      <trkpt lat="48.38609" lon="7.25692">
        <ele>978</ele>
        <time>2020-06-24T09:17:18.154Z</time>
      </trkpt>
      <trkpt lat="48.38608" lon="7.25691">
        <ele>979</ele>
        <time>2020-06-24T09:17:19.154Z</time>
      </trkpt>
      <trkpt lat="48.38607" lon="7.25691">
        <ele>979</ele>
        <time>2020-06-24T09:17:20.154Z</time>
      </trkpt>
      <trkpt lat="48.38605" lon="7.25691">
        <ele>980</ele>
        <time>2020-06-24T09:17:21.154Z</time>
      </trkpt>
      <trkpt lat="48.38603" lon="7.2569">
        <ele>980</ele>
        <time>2020-06-24T09:17:22.154Z</time>
      </trkpt>
      <trkpt lat="48.38602" lon="7.2569">
        <ele>981</ele>
        <time>2020-06-24T09:17:23.154Z</time>
      </trkpt>
      <trkpt lat="48.386" lon="7.2569">
        <ele>981</ele>
        <time>2020-06-24T09:17:24.154Z</time>
      </trkpt>
      <trkpt lat="48.38599" lon="7.2569">
        <ele>982</ele>
        <time>2020-06-24T09:17:25.154Z</time>
      </trkpt>
      <trkpt lat="48.38597" lon="7.25691">
        <ele>982</ele>
        <time>2020-06-24T09:17:26.153Z</time>
      </trkpt>
      <trkpt lat="48.38596" lon="7.25691">
        <ele>983</ele>
        <time>2020-06-24T09:17:27.153Z</time>
      </trkpt>
      <trkpt lat="48.38594" lon="7.25691">
        <ele>983</ele>
        <time>2020-06-24T09:17:28.154Z</time>
      </trkpt>
      <trkpt lat="48.38593" lon="7.25691">
        <ele>983</ele>
        <time>2020-06-24T09:17:29.154Z</time>
      </trkpt>
      <trkpt lat="48.38591" lon="7.25691">
        <ele>984</ele>
        <time>2020-06-24T09:17:30.154Z</time>
      </trkpt>
      <trkpt lat="48.3859" lon="7.25691">
        <ele>984</ele>
        <time>2020-06-24T09:17:31.154Z</time>
      </trkpt>
      <trkpt lat="48.38588" lon="7.2569">
        <ele>985</ele>
        <time>2020-06-24T09:17:32.153Z</time>
      </trkpt>
      <trkpt lat="48.38587" lon="7.2569">
        <ele>985</ele>
        <time>2020-06-24T09:17:33.154Z</time>
      </trkpt>
      <trkpt lat="48.38585" lon="7.2569">
        <ele>985</ele>
        <time>2020-06-24T09:17:34.154Z</time>
      </trkpt>
      <trkpt lat="48.38584" lon="7.2569">
        <ele>985</ele>
        <time>2020-06-24T09:17:35.154Z</time>
      </trkpt>
      <trkpt lat="48.38582" lon="7.25691">
        <ele>985</ele>
        <time>2020-06-24T09:17:36.154Z</time>
      </trkpt>
      <trkpt lat="48.38581" lon="7.25692">
        <ele>985</ele>
        <time>2020-06-24T09:17:37.154Z</time>
      </trkpt>
      <trkpt lat="48.38579" lon="7.25692">
        <ele>985</ele>
        <time>2020-06-24T09:17:38.153Z</time>
      </trkpt>
      <trkpt lat="48.38577" lon="7.25693">
        <ele>985</ele>
        <time>2020-06-24T09:17:39.154Z</time>
      </trkpt>
      <trkpt lat="48.38575" lon="7.25694">
        <ele>986</ele>
        <time>2020-06-24T09:17:40.154Z</time>
      </trkpt>
      <trkpt lat="48.38573" lon="7.25695">
        <ele>986</ele>
        <time>2020-06-24T09:17:41.153Z</time>
      </trkpt>
      <trkpt lat="48.38571" lon="7.25695">
        <ele>986</ele>
        <time>2020-06-24T09:17:42.154Z</time>
      </trkpt>
      <trkpt lat="48.38569" lon="7.25695">
        <ele>985</ele>
        <time>2020-06-24T09:17:43.154Z</time>
      </trkpt>
      <trkpt lat="48.38567" lon="7.25695">
        <ele>985</ele>
        <time>2020-06-24T09:17:44.154Z</time>
      </trkpt>
      <trkpt lat="48.38566" lon="7.25696">
        <ele>985</ele>
        <time>2020-06-24T09:17:45.153Z</time>
      </trkpt>
      <trkpt lat="48.38564" lon="7.25697">
        <ele>985</ele>
        <time>2020-06-24T09:17:46.154Z</time>
      </trkpt>
      <trkpt lat="48.38563" lon="7.257">
        <ele>985</ele>
        <time>2020-06-24T09:17:47.153Z</time>
      </trkpt>
      <trkpt lat="48.38561" lon="7.25701">
        <ele>986</ele>
        <time>2020-06-24T09:17:48.153Z</time>
      </trkpt>
      <trkpt lat="48.38559" lon="7.25701">
        <ele>986</ele>
        <time>2020-06-24T09:17:49.153Z</time>
      </trkpt>
      <trkpt lat="48.38557" lon="7.25701">
        <ele>987</ele>
        <time>2020-06-24T09:17:50.153Z</time>
      </trkpt>
      <trkpt lat="48.38556" lon="7.25701">
        <ele>987</ele>
        <time>2020-06-24T09:17:51.153Z</time>
      </trkpt>
      <trkpt lat="48.38555" lon="7.25701">
        <ele>987</ele>
        <time>2020-06-24T09:17:52.153Z</time>
      </trkpt>
      <trkpt lat="48.38553" lon="7.25702">
        <ele>987</ele>
        <time>2020-06-24T09:17:53.153Z</time>
      </trkpt>
      <trkpt lat="48.38552" lon="7.25703">
        <ele>987</ele>
        <time>2020-06-24T09:17:54.154Z</time>
      </trkpt>
      <trkpt lat="48.3855" lon="7.25703">
        <ele>987</ele>
        <time>2020-06-24T09:17:55.153Z</time>
      </trkpt>
      <trkpt lat="48.38549" lon="7.25704">
        <ele>987</ele>
        <time>2020-06-24T09:17:56.154Z</time>
      </trkpt>
      <trkpt lat="48.38547" lon="7.25705">
        <ele>987</ele>
        <time>2020-06-24T09:17:57.153Z</time>
      </trkpt>
      <trkpt lat="48.38546" lon="7.25705">
        <ele>988</ele>
        <time>2020-06-24T09:17:58.153Z</time>
      </trkpt>
      <trkpt lat="48.38544" lon="7.25706">
        <ele>988</ele>
        <time>2020-06-24T09:17:59.154Z</time>
      </trkpt>
      <trkpt lat="48.38543" lon="7.25707">
        <ele>989</ele>
        <time>2020-06-24T09:18:00.154Z</time>
      </trkpt>
      <trkpt lat="48.38541" lon="7.25709">
        <ele>990</ele>
        <time>2020-06-24T09:18:01.154Z</time>
      </trkpt>
      <trkpt lat="48.38539" lon="7.25711">
        <ele>991</ele>
        <time>2020-06-24T09:18:02.153Z</time>
      </trkpt>
      <trkpt lat="48.38538" lon="7.25711">
        <ele>992</ele>
        <time>2020-06-24T09:18:03.154Z</time>
      </trkpt>
      <trkpt lat="48.38537" lon="7.25712">
        <ele>993</ele>
        <time>2020-06-24T09:18:04.153Z</time>
      </trkpt>
      <trkpt lat="48.38535" lon="7.25712">
        <ele>993</ele>
        <time>2020-06-24T09:18:05.154Z</time>
      </trkpt>
      <trkpt lat="48.38534" lon="7.25713">
        <ele>994</ele>
        <time>2020-06-24T09:18:06.153Z</time>
      </trkpt>
      <trkpt lat="48.38532" lon="7.25714">
        <ele>994</ele>
        <time>2020-06-24T09:18:07.154Z</time>
      </trkpt>
      <trkpt lat="48.38531" lon="7.25714">
        <ele>995</ele>
        <time>2020-06-24T09:18:08.154Z</time>
      </trkpt>
      <trkpt lat="48.38529" lon="7.25714">
        <ele>995</ele>
        <time>2020-06-24T09:18:09.154Z</time>
      </trkpt>
      <trkpt lat="48.38528" lon="7.25715">
        <ele>996</ele>
        <time>2020-06-24T09:18:10.154Z</time>
      </trkpt>
      <trkpt lat="48.38527" lon="7.25716">
        <ele>997</ele>
        <time>2020-06-24T09:18:11.154Z</time>
      </trkpt>
      <trkpt lat="48.38526" lon="7.25716">
        <ele>998</ele>
        <time>2020-06-24T09:18:12.153Z</time>
      </trkpt>
      <trkpt lat="48.38524" lon="7.25717">
        <ele>999</ele>
        <time>2020-06-24T09:18:13.154Z</time>
      </trkpt>
      <trkpt lat="48.38522" lon="7.25719">
        <ele>1000</ele>
        <time>2020-06-24T09:18:14.154Z</time>
      </trkpt>
      <trkpt lat="48.38521" lon="7.2572">
        <ele>1001</ele>
        <time>2020-06-24T09:18:15.153Z</time>
      </trkpt>
      <trkpt lat="48.38519" lon="7.25721">
        <ele>1001</ele>
        <time>2020-06-24T09:18:16.153Z</time>
      </trkpt>
      <trkpt lat="48.38518" lon="7.25721">
        <ele>1002</ele>
        <time>2020-06-24T09:18:17.154Z</time>
      </trkpt>
      <trkpt lat="48.38517" lon="7.25722">
        <ele>1002</ele>
        <time>2020-06-24T09:18:18.154Z</time>
      </trkpt>
      <trkpt lat="48.38515" lon="7.25722">
        <ele>1002</ele>
        <time>2020-06-24T09:18:19.154Z</time>
      </trkpt>
      <trkpt lat="48.38514" lon="7.25722">
        <ele>1002</ele>
        <time>2020-06-24T09:18:20.154Z</time>
      </trkpt>
      <trkpt lat="48.38513" lon="7.25723">
        <ele>1002</ele>
        <time>2020-06-24T09:18:21.154Z</time>
      </trkpt>
      <trkpt lat="48.38511" lon="7.25723">
        <ele>1001</ele>
        <time>2020-06-24T09:18:22.154Z</time>
      </trkpt>
      <trkpt lat="48.3851" lon="7.25724">
        <ele>1001</ele>
        <time>2020-06-24T09:18:23.154Z</time>
      </trkpt>
      <trkpt lat="48.38509" lon="7.25725">
        <ele>1000</ele>
        <time>2020-06-24T09:18:24.153Z</time>
      </trkpt>
      <trkpt lat="48.38508" lon="7.25726">
        <ele>999</ele>
        <time>2020-06-24T09:18:25.154Z</time>
      </trkpt>
      <trkpt lat="48.38506" lon="7.25726">
        <ele>998</ele>
        <time>2020-06-24T09:18:26.154Z</time>
      </trkpt>
      <trkpt lat="48.38505" lon="7.25726">
        <ele>997</ele>
        <time>2020-06-24T09:18:27.153Z</time>
      </trkpt>
      <trkpt lat="48.38503" lon="7.25726">
        <ele>997</ele>
        <time>2020-06-24T09:18:28.154Z</time>
      </trkpt>
      <trkpt lat="48.38502" lon="7.25726">
        <ele>996</ele>
        <time>2020-06-24T09:18:29.153Z</time>
      </trkpt>
      <trkpt lat="48.385" lon="7.25726">
        <ele>996</ele>
        <time>2020-06-24T09:18:30.154Z</time>
      </trkpt>
      <trkpt lat="48.38499" lon="7.25727">
        <ele>996</ele>
        <time>2020-06-24T09:18:31.153Z</time>
      </trkpt>
      <trkpt lat="48.38497" lon="7.25727">
        <ele>996</ele>
        <time>2020-06-24T09:18:32.154Z</time>
      </trkpt>
      <trkpt lat="48.38496" lon="7.25728">
        <ele>996</ele>
        <time>2020-06-24T09:18:33.154Z</time>
      </trkpt>
      <trkpt lat="48.38495" lon="7.25729">
        <ele>996</ele>
        <time>2020-06-24T09:18:34.154Z</time>
      </trkpt>
      <trkpt lat="48.38493" lon="7.25729">
        <ele>995</ele>
        <time>2020-06-24T09:18:35.154Z</time>
      </trkpt>
      <trkpt lat="48.38491" lon="7.2573">
        <ele>995</ele>
        <time>2020-06-24T09:18:36.154Z</time>
      </trkpt>
      <trkpt lat="48.3849" lon="7.25731">
        <ele>994</ele>
        <time>2020-06-24T09:18:37.154Z</time>
      </trkpt>
      <trkpt lat="48.38489" lon="7.25732">
        <ele>994</ele>
        <time>2020-06-24T09:18:38.154Z</time>
      </trkpt>
      <trkpt lat="48.38488" lon="7.25733">
        <ele>993</ele>
        <time>2020-06-24T09:18:39.153Z</time>
      </trkpt>
      <trkpt lat="48.38486" lon="7.25734">
        <ele>993</ele>
        <time>2020-06-24T09:18:40.154Z</time>
      </trkpt>
      <trkpt lat="48.38484" lon="7.25734">
        <ele>993</ele>
        <time>2020-06-24T09:18:41.153Z</time>
      </trkpt>
      <trkpt lat="48.38483" lon="7.25735">
        <ele>992</ele>
        <time>2020-06-24T09:18:42.154Z</time>
      </trkpt>
      <trkpt lat="48.38481" lon="7.25736">
        <ele>992</ele>
        <time>2020-06-24T09:18:43.154Z</time>
      </trkpt>
      <trkpt lat="48.3848" lon="7.25736">
        <ele>992</ele>
        <time>2020-06-24T09:18:44.154Z</time>
      </trkpt>
      <trkpt lat="48.38478" lon="7.25736">
        <ele>992</ele>
        <time>2020-06-24T09:18:45.154Z</time>
      </trkpt>
      <trkpt lat="48.38476" lon="7.25737">
        <ele>992</ele>
        <time>2020-06-24T09:18:46.153Z</time>
      </trkpt>
      <trkpt lat="48.38475" lon="7.25735">
        <ele>992</ele>
        <time>2020-06-24T09:18:47.153Z</time>
      </trkpt>
      <trkpt lat="48.38473" lon="7.25735">
        <ele>992</ele>
        <time>2020-06-24T09:18:48.153Z</time>
      </trkpt>
      <trkpt lat="48.38471" lon="7.25735">
        <ele>991</ele>
        <time>2020-06-24T09:18:49.154Z</time>
      </trkpt>
      <trkpt lat="48.3847" lon="7.25735">
        <ele>990</ele>
        <time>2020-06-24T09:18:50.154Z</time>
      </trkpt>
      <trkpt lat="48.38468" lon="7.25735">
        <ele>990</ele>
        <time>2020-06-24T09:18:51.154Z</time>
      </trkpt>
      <trkpt lat="48.38467" lon="7.25734">
        <ele>988</ele>
        <time>2020-06-24T09:18:52.154Z</time>
      </trkpt>
      <trkpt lat="48.38466" lon="7.25735">
        <ele>987</ele>
        <time>2020-06-24T09:18:53.154Z</time>
      </trkpt>
      <trkpt lat="48.38465" lon="7.25735">
        <ele>985</ele>
        <time>2020-06-24T09:18:54.154Z</time>
      </trkpt>
      <trkpt lat="48.38463" lon="7.25735">
        <ele>984</ele>
        <time>2020-06-24T09:18:55.154Z</time>
      </trkpt>
      <trkpt lat="48.38461" lon="7.25735">
        <ele>982</ele>
        <time>2020-06-24T09:18:56.154Z</time>
      </trkpt>
      <trkpt lat="48.3846" lon="7.25735">
        <ele>980</ele>
        <time>2020-06-24T09:18:57.154Z</time>
      </trkpt>
      <trkpt lat="48.38459" lon="7.25735">
        <ele>979</ele>
        <time>2020-06-24T09:18:58.154Z</time>
      </trkpt>
      <trkpt lat="48.38458" lon="7.25735">
        <ele>977</ele>
        <time>2020-06-24T09:18:59.154Z</time>
      </trkpt>
      <trkpt lat="48.38457" lon="7.25736">
        <ele>976</ele>
        <time>2020-06-24T09:19:00.154Z</time>
      </trkpt>
      <trkpt lat="48.38456" lon="7.25736">
        <ele>975</ele>
        <time>2020-06-24T09:19:01.154Z</time>
      </trkpt>
      <trkpt lat="48.38456" lon="7.25736">
        <ele>974</ele>
        <time>2020-06-24T09:19:02.154Z</time>
      </trkpt>
      <trkpt lat="48.38455" lon="7.25736">
        <ele>972</ele>
        <time>2020-06-24T09:19:03.153Z</time>
      </trkpt>
      <trkpt lat="48.38455" lon="7.25736">
        <ele>971</ele>
        <time>2020-06-24T09:19:04.154Z</time>
      </trkpt>
      <trkpt lat="48.38454" lon="7.25736">
        <ele>970</ele>
        <time>2020-06-24T09:19:05.154Z</time>
      </trkpt>
      <trkpt lat="48.38453" lon="7.25737">
        <ele>969</ele>
        <time>2020-06-24T09:19:06.154Z</time>
      </trkpt>
      <trkpt lat="48.38452" lon="7.25737">
        <ele>968</ele>
        <time>2020-06-24T09:19:07.154Z</time>
      </trkpt>
      <trkpt lat="48.38452" lon="7.25737">
        <ele>967</ele>
        <time>2020-06-24T09:19:08.154Z</time>
      </trkpt>
      <trkpt lat="48.38451" lon="7.25738">
        <ele>966</ele>
        <time>2020-06-24T09:19:09.154Z</time>
      </trkpt>
      <trkpt lat="48.38451" lon="7.25738">
        <ele>965</ele>
        <time>2020-06-24T09:19:10.154Z</time>
      </trkpt>
      <trkpt lat="48.38452" lon="7.25737">
        <ele>963</ele>
        <time>2020-06-24T09:19:11.155Z</time>
      </trkpt>
      <trkpt lat="48.3845" lon="7.25736">
        <ele>963</ele>
        <time>2020-06-24T09:19:12.154Z</time>
      </trkpt>
      <trkpt lat="48.38449" lon="7.25736">
        <ele>963</ele>
        <time>2020-06-24T09:19:13.155Z</time>
      </trkpt>
      <trkpt lat="48.38448" lon="7.25736">
        <ele>964</ele>
        <time>2020-06-24T09:19:14.155Z</time>
      </trkpt>
      <trkpt lat="48.38447" lon="7.25736">
        <ele>963</ele>
        <time>2020-06-24T09:19:15.154Z</time>
      </trkpt>
      <trkpt lat="48.38446" lon="7.25736">
        <ele>963</ele>
        <time>2020-06-24T09:19:16.155Z</time>
      </trkpt>
      <trkpt lat="48.38445" lon="7.25736">
        <ele>963</ele>
        <time>2020-06-24T09:19:17.154Z</time>
      </trkpt>
      <trkpt lat="48.38444" lon="7.25736">
        <ele>963</ele>
        <time>2020-06-24T09:19:18.155Z</time>
      </trkpt>
      <trkpt lat="48.38443" lon="7.25736">
        <ele>964</ele>
        <time>2020-06-24T09:19:19.155Z</time>
      </trkpt>
      <trkpt lat="48.38442" lon="7.25736">
        <ele>964</ele>
        <time>2020-06-24T09:19:20.154Z</time>
      </trkpt>
      <trkpt lat="48.38442" lon="7.25737">
        <ele>964</ele>
        <time>2020-06-24T09:19:21.155Z</time>
      </trkpt>
      <trkpt lat="48.38441" lon="7.25737">
        <ele>965</ele>
        <time>2020-06-24T09:19:22.154Z</time>
      </trkpt>
      <trkpt lat="48.3844" lon="7.25738">
        <ele>965</ele>
        <time>2020-06-24T09:19:23.155Z</time>
      </trkpt>
      <trkpt lat="48.38438" lon="7.25738">
        <ele>965</ele>
        <time>2020-06-24T09:19:24.155Z</time>
      </trkpt>
      <trkpt lat="48.38437" lon="7.25738">
        <ele>966</ele>
        <time>2020-06-24T09:19:25.155Z</time>
      </trkpt>
      <trkpt lat="48.38436" lon="7.25739">
        <ele>966</ele>
        <time>2020-06-24T09:19:26.155Z</time>
      </trkpt>
      <trkpt lat="48.38435" lon="7.25739">
        <ele>966</ele>
        <time>2020-06-24T09:19:27.154Z</time>
      </trkpt>
      <trkpt lat="48.38434" lon="7.2574">
        <ele>967</ele>
        <time>2020-06-24T09:19:28.154Z</time>
      </trkpt>
      <trkpt lat="48.38432" lon="7.25741">
        <ele>968</ele>
        <time>2020-06-24T09:19:29.155Z</time>
      </trkpt>
      <trkpt lat="48.38429" lon="7.25742">
        <ele>968</ele>
        <time>2020-06-24T09:19:30.155Z</time>
      </trkpt>
      <trkpt lat="48.38427" lon="7.25743">
        <ele>968</ele>
        <time>2020-06-24T09:19:31.155Z</time>
      </trkpt>
      <trkpt lat="48.38426" lon="7.25745">
        <ele>968</ele>
        <time>2020-06-24T09:19:32.155Z</time>
      </trkpt>
      <trkpt lat="48.38424" lon="7.25747">
        <ele>968</ele>
        <time>2020-06-24T09:19:33.155Z</time>
      </trkpt>
      <trkpt lat="48.38422" lon="7.25748">
        <ele>969</ele>
        <time>2020-06-24T09:19:34.154Z</time>
      </trkpt>
      <trkpt lat="48.3842" lon="7.2575">
        <ele>969</ele>
        <time>2020-06-24T09:19:35.155Z</time>
      </trkpt>
      <trkpt lat="48.38419" lon="7.25751">
        <ele>969</ele>
        <time>2020-06-24T09:19:36.154Z</time>
      </trkpt>
      <trkpt lat="48.38418" lon="7.25752">
        <ele>970</ele>
        <time>2020-06-24T09:19:37.155Z</time>
      </trkpt>
      <trkpt lat="48.38417" lon="7.25754">
        <ele>970</ele>
        <time>2020-06-24T09:19:38.155Z</time>
      </trkpt>
      <trkpt lat="48.38416" lon="7.25755">
        <ele>971</ele>
        <time>2020-06-24T09:19:39.155Z</time>
      </trkpt>
      <trkpt lat="48.38414" lon="7.25756">
        <ele>971</ele>
        <time>2020-06-24T09:19:40.154Z</time>
      </trkpt>
      <trkpt lat="48.38413" lon="7.25757">
        <ele>972</ele>
        <time>2020-06-24T09:19:41.155Z</time>
      </trkpt>
      <trkpt lat="48.38412" lon="7.25758">
        <ele>972</ele>
        <time>2020-06-24T09:19:42.155Z</time>
      </trkpt>
      <trkpt lat="48.38411" lon="7.2576">
        <ele>972</ele>
        <time>2020-06-24T09:19:43.155Z</time>
      </trkpt>
      <trkpt lat="48.3841" lon="7.25761">
        <ele>972</ele>
        <time>2020-06-24T09:19:44.154Z</time>
      </trkpt>
      <trkpt lat="48.38408" lon="7.25762">
        <ele>972</ele>
        <time>2020-06-24T09:19:45.155Z</time>
      </trkpt>
      <trkpt lat="48.38407" lon="7.25763">
        <ele>972</ele>
        <time>2020-06-24T09:19:46.155Z</time>
      </trkpt>
      <trkpt lat="48.38405" lon="7.25764">
        <ele>973</ele>
        <time>2020-06-24T09:19:47.155Z</time>
      </trkpt>
      <trkpt lat="48.38404" lon="7.25766">
        <ele>973</ele>
        <time>2020-06-24T09:19:48.155Z</time>
      </trkpt>
      <trkpt lat="48.38402" lon="7.25767">
        <ele>974</ele>
        <time>2020-06-24T09:19:49.155Z</time>
      </trkpt>
      <trkpt lat="48.384" lon="7.25769">
        <ele>975</ele>
        <time>2020-06-24T09:19:50.155Z</time>
      </trkpt>
      <trkpt lat="48.38399" lon="7.2577">
        <ele>976</ele>
        <time>2020-06-24T09:19:51.155Z</time>
      </trkpt>
      <trkpt lat="48.38398" lon="7.25772">
        <ele>977</ele>
        <time>2020-06-24T09:19:52.154Z</time>
      </trkpt>
      <trkpt lat="48.38398" lon="7.25773">
        <ele>977</ele>
        <time>2020-06-24T09:19:53.155Z</time>
      </trkpt>
      <trkpt lat="48.38397" lon="7.25774">
        <ele>978</ele>
        <time>2020-06-24T09:19:54.155Z</time>
      </trkpt>
      <trkpt lat="48.38397" lon="7.25775">
        <ele>979</ele>
        <time>2020-06-24T09:19:55.155Z</time>
      </trkpt>
      <trkpt lat="48.38397" lon="7.25776">
        <ele>980</ele>
        <time>2020-06-24T09:19:56.155Z</time>
      </trkpt>
      <trkpt lat="48.38397" lon="7.25776">
        <ele>980</ele>
        <time>2020-06-24T09:19:57.155Z</time>
      </trkpt>
      <trkpt lat="48.38396" lon="7.25776">
        <ele>979</ele>
        <time>2020-06-24T09:19:58.155Z</time>
      </trkpt>
      <trkpt lat="48.38396" lon="7.25776">
        <ele>979</ele>
        <time>2020-06-24T09:19:59.155Z</time>
      </trkpt>
      <trkpt lat="48.38395" lon="7.25776">
        <ele>978</ele>
        <time>2020-06-24T09:20:00.155Z</time>
      </trkpt>
      <trkpt lat="48.38395" lon="7.25777">
        <ele>978</ele>
        <time>2020-06-24T09:20:01.155Z</time>
      </trkpt>
      <trkpt lat="48.38393" lon="7.25777">
        <ele>977</ele>
        <time>2020-06-24T09:20:02.154Z</time>
      </trkpt>
      <trkpt lat="48.38392" lon="7.25777">
        <ele>977</ele>
        <time>2020-06-24T09:20:03.154Z</time>
      </trkpt>
      <trkpt lat="48.38391" lon="7.25777">
        <ele>976</ele>
        <time>2020-06-24T09:20:04.154Z</time>
      </trkpt>
      <trkpt lat="48.38391" lon="7.25776">
        <ele>975</ele>
        <time>2020-06-24T09:20:05.155Z</time>
      </trkpt>
      <trkpt lat="48.3839" lon="7.25775">
        <ele>974</ele>
        <time>2020-06-24T09:20:06.155Z</time>
      </trkpt>
      <trkpt lat="48.38389" lon="7.25774">
        <ele>973</ele>
        <time>2020-06-24T09:20:07.154Z</time>
      </trkpt>
      <trkpt lat="48.38389" lon="7.25772">
        <ele>972</ele>
        <time>2020-06-24T09:20:08.155Z</time>
      </trkpt>
      <trkpt lat="48.38388" lon="7.25771">
        <ele>971</ele>
        <time>2020-06-24T09:20:09.155Z</time>
      </trkpt>
      <trkpt lat="48.38387" lon="7.2577">
        <ele>970</ele>
        <time>2020-06-24T09:20:10.155Z</time>
      </trkpt>
      <trkpt lat="48.38386" lon="7.25768">
        <ele>969</ele>
        <time>2020-06-24T09:20:11.155Z</time>
      </trkpt>
      <trkpt lat="48.38385" lon="7.25767">
        <ele>969</ele>
        <time>2020-06-24T09:20:12.155Z</time>
      </trkpt>
      <trkpt lat="48.38383" lon="7.25766">
        <ele>969</ele>
        <time>2020-06-24T09:20:13.154Z</time>
      </trkpt>
      <trkpt lat="48.38382" lon="7.25765">
        <ele>968</ele>
        <time>2020-06-24T09:20:14.155Z</time>
      </trkpt>
      <trkpt lat="48.38381" lon="7.25764">
        <ele>968</ele>
        <time>2020-06-24T09:20:15.155Z</time>
      </trkpt>
      <trkpt lat="48.3838" lon="7.25762">
        <ele>968</ele>
        <time>2020-06-24T09:20:16.155Z</time>
      </trkpt>
      <trkpt lat="48.3838" lon="7.2576">
        <ele>967</ele>
        <time>2020-06-24T09:20:17.155Z</time>
      </trkpt>
      <trkpt lat="48.38379" lon="7.25759">
        <ele>966</ele>
        <time>2020-06-24T09:20:18.155Z</time>
      </trkpt>
      <trkpt lat="48.38378" lon="7.25758">
        <ele>966</ele>
        <time>2020-06-24T09:20:19.155Z</time>
      </trkpt>
      <trkpt lat="48.38377" lon="7.25756">
        <ele>965</ele>
        <time>2020-06-24T09:20:20.155Z</time>
      </trkpt>
      <trkpt lat="48.38376" lon="7.25755">
        <ele>965</ele>
        <time>2020-06-24T09:20:21.155Z</time>
      </trkpt>
      <trkpt lat="48.38376" lon="7.25754">
        <ele>964</ele>
        <time>2020-06-24T09:20:22.155Z</time>
      </trkpt>
      <trkpt lat="48.38375" lon="7.25752">
        <ele>964</ele>
        <time>2020-06-24T09:20:23.155Z</time>
      </trkpt>
      <trkpt lat="48.38375" lon="7.2575">
        <ele>963</ele>
        <time>2020-06-24T09:20:24.154Z</time>
      </trkpt>
      <trkpt lat="48.38376" lon="7.25748">
        <ele>963</ele>
        <time>2020-06-24T09:20:25.155Z</time>
      </trkpt>
      <trkpt lat="48.38376" lon="7.25746">
        <ele>963</ele>
        <time>2020-06-24T09:20:26.154Z</time>
      </trkpt>
      <trkpt lat="48.38376" lon="7.25745">
        <ele>963</ele>
        <time>2020-06-24T09:20:27.154Z</time>
      </trkpt>
      <trkpt lat="48.38376" lon="7.25744">
        <ele>962</ele>
        <time>2020-06-24T09:20:28.155Z</time>
      </trkpt>
      <trkpt lat="48.38377" lon="7.25744">
        <ele>963</ele>
        <time>2020-06-24T09:20:29.155Z</time>
      </trkpt>
      <trkpt lat="48.38377" lon="7.25743">
        <ele>963</ele>
        <time>2020-06-24T09:20:30.154Z</time>
      </trkpt>
      <trkpt lat="48.38377" lon="7.25743">
        <ele>963</ele>
        <time>2020-06-24T09:20:31.155Z</time>
      </trkpt>
      <trkpt lat="48.38373" lon="7.25742">
        <ele>965</ele>
        <time>2020-06-24T09:20:32.156Z</time>
      </trkpt>
      <trkpt lat="48.38371" lon="7.25742">
        <ele>965</ele>
        <time>2020-06-24T09:20:33.155Z</time>
      </trkpt>
      <trkpt lat="48.3837" lon="7.25741">
        <ele>965</ele>
        <time>2020-06-24T09:20:34.155Z</time>
      </trkpt>
      <trkpt lat="48.38368" lon="7.25741">
        <ele>965</ele>
        <time>2020-06-24T09:20:35.155Z</time>
      </trkpt>
      <trkpt lat="48.38366" lon="7.2574">
        <ele>965</ele>
        <time>2020-06-24T09:20:36.156Z</time>
      </trkpt>
      <trkpt lat="48.38365" lon="7.2574">
        <ele>965</ele>
        <time>2020-06-24T09:20:37.156Z</time>
      </trkpt>
      <trkpt lat="48.38363" lon="7.25739">
        <ele>965</ele>
        <time>2020-06-24T09:20:38.155Z</time>
      </trkpt>
      <trkpt lat="48.38361" lon="7.25738">
        <ele>965</ele>
        <time>2020-06-24T09:20:39.156Z</time>
      </trkpt>
      <trkpt lat="48.3836" lon="7.25737">
        <ele>965</ele>
        <time>2020-06-24T09:20:40.155Z</time>
      </trkpt>
      <trkpt lat="48.38359" lon="7.25735">
        <ele>964</ele>
        <time>2020-06-24T09:20:41.155Z</time>
      </trkpt>
      <trkpt lat="48.38358" lon="7.25734">
        <ele>964</ele>
        <time>2020-06-24T09:20:42.156Z</time>
      </trkpt>
      <trkpt lat="48.38357" lon="7.25732">
        <ele>964</ele>
        <time>2020-06-24T09:20:43.156Z</time>
      </trkpt>
      <trkpt lat="48.38356" lon="7.25731">
        <ele>963</ele>
        <time>2020-06-24T09:20:44.155Z</time>
      </trkpt>
      <trkpt lat="48.38355" lon="7.25729">
        <ele>963</ele>
        <time>2020-06-24T09:20:45.156Z</time>
      </trkpt>
      <trkpt lat="48.38355" lon="7.25728">
        <ele>963</ele>
        <time>2020-06-24T09:20:46.155Z</time>
      </trkpt>
      <trkpt lat="48.38354" lon="7.25728">
        <ele>963</ele>
        <time>2020-06-24T09:20:47.156Z</time>
      </trkpt>
      <trkpt lat="48.38354" lon="7.25727">
        <ele>963</ele>
        <time>2020-06-24T09:20:48.155Z</time>
      </trkpt>
      <trkpt lat="48.38354" lon="7.25727">
        <ele>964</ele>
        <time>2020-06-24T09:20:49.155Z</time>
      </trkpt>
      <trkpt lat="48.38352" lon="7.25727">
        <ele>964</ele>
        <time>2020-06-24T09:20:50.156Z</time>
      </trkpt>
      <trkpt lat="48.38351" lon="7.25727">
        <ele>964</ele>
        <time>2020-06-24T09:20:51.156Z</time>
      </trkpt>
      <trkpt lat="48.3835" lon="7.25727">
        <ele>964</ele>
        <time>2020-06-24T09:20:52.156Z</time>
      </trkpt>
      <trkpt lat="48.38349" lon="7.25726">
        <ele>965</ele>
        <time>2020-06-24T09:20:53.156Z</time>
      </trkpt>
      <trkpt lat="48.38348" lon="7.25726">
        <ele>965</ele>
        <time>2020-06-24T09:20:54.157Z</time>
      </trkpt>
      <trkpt lat="48.38346" lon="7.25725">
        <ele>965</ele>
        <time>2020-06-24T09:20:55.156Z</time>
      </trkpt>
      <trkpt lat="48.38345" lon="7.25723">
        <ele>965</ele>
        <time>2020-06-24T09:20:56.156Z</time>
      </trkpt>
      <trkpt lat="48.38344" lon="7.25722">
        <ele>965</ele>
        <time>2020-06-24T09:20:57.156Z</time>
      </trkpt>
      <trkpt lat="48.38343" lon="7.25721">
        <ele>965</ele>
        <time>2020-06-24T09:20:58.156Z</time>
      </trkpt>
      <trkpt lat="48.38342" lon="7.2572">
        <ele>965</ele>
        <time>2020-06-24T09:20:59.156Z</time>
      </trkpt>
      <trkpt lat="48.38341" lon="7.2572">
        <ele>965</ele>
        <time>2020-06-24T09:21:00.156Z</time>
      </trkpt>
      <trkpt lat="48.3834" lon="7.25719">
        <ele>965</ele>
        <time>2020-06-24T09:21:01.157Z</time>
      </trkpt>
      <trkpt lat="48.38338" lon="7.25718">
        <ele>965</ele>
        <time>2020-06-24T09:21:02.156Z</time>
      </trkpt>
      <trkpt lat="48.38337" lon="7.25716">
        <ele>964</ele>
        <time>2020-06-24T09:21:03.157Z</time>
      </trkpt>
      <trkpt lat="48.38336" lon="7.25715">
        <ele>964</ele>
        <time>2020-06-24T09:21:04.156Z</time>
      </trkpt>
      <trkpt lat="48.38336" lon="7.25713">
        <ele>964</ele>
        <time>2020-06-24T09:21:05.156Z</time>
      </trkpt>
      <trkpt lat="48.38335" lon="7.25712">
        <ele>964</ele>
        <time>2020-06-24T09:21:06.157Z</time>
      </trkpt>
      <trkpt lat="48.38335" lon="7.25711">
        <ele>964</ele>
        <time>2020-06-24T09:21:07.156Z</time>
      </trkpt>
      <trkpt lat="48.38335" lon="7.25709">
        <ele>963</ele>
        <time>2020-06-24T09:21:08.156Z</time>
      </trkpt>
      <trkpt lat="48.38335" lon="7.25709">
        <ele>963</ele>
        <time>2020-06-24T09:21:09.157Z</time>
      </trkpt>
      <trkpt lat="48.38339" lon="7.25714">
        <ele>959</ele>
        <time>2020-06-24T09:21:10.158Z</time>
      </trkpt>
      <trkpt lat="48.3834" lon="7.25716">
        <ele>959</ele>
        <time>2020-06-24T09:21:11.157Z</time>
      </trkpt>
      <trkpt lat="48.3834" lon="7.25718">
        <ele>959</ele>
        <time>2020-06-24T09:21:12.158Z</time>
      </trkpt>
      <trkpt lat="48.3834" lon="7.25721">
        <ele>959</ele>
        <time>2020-06-24T09:21:13.158Z</time>
      </trkpt>
      <trkpt lat="48.38341" lon="7.25722">
        <ele>959</ele>
        <time>2020-06-24T09:21:14.158Z</time>
      </trkpt>
      <trkpt lat="48.38341" lon="7.25724">
        <ele>959</ele>
        <time>2020-06-24T09:21:15.157Z</time>
      </trkpt>
      <trkpt lat="48.38342" lon="7.25727">
        <ele>959</ele>
        <time>2020-06-24T09:21:16.158Z</time>
      </trkpt>
      <trkpt lat="48.38342" lon="7.25728">
        <ele>959</ele>
        <time>2020-06-24T09:21:17.158Z</time>
      </trkpt>
      <trkpt lat="48.38343" lon="7.25729">
        <ele>960</ele>
        <time>2020-06-24T09:21:18.157Z</time>
      </trkpt>
      <trkpt lat="48.38343" lon="7.2573">
        <ele>960</ele>
        <time>2020-06-24T09:21:19.157Z</time>
      </trkpt>
      <trkpt lat="48.38344" lon="7.25731">
        <ele>960</ele>
        <time>2020-06-24T09:21:20.157Z</time>
      </trkpt>
      <trkpt lat="48.38344" lon="7.25732">
        <ele>961</ele>
        <time>2020-06-24T09:21:21.157Z</time>
      </trkpt>
      <trkpt lat="48.38344" lon="7.25733">
        <ele>961</ele>
        <time>2020-06-24T09:21:22.158Z</time>
      </trkpt>
      <trkpt lat="48.38343" lon="7.25734">
        <ele>961</ele>
        <time>2020-06-24T09:21:23.157Z</time>
      </trkpt>
      <trkpt lat="48.38343" lon="7.25734">
        <ele>961</ele>
        <time>2020-06-24T09:21:24.158Z</time>
      </trkpt>
      <trkpt lat="48.38344" lon="7.25736">
        <ele>962</ele>
        <time>2020-06-24T09:21:25.158Z</time>
      </trkpt>
      <trkpt lat="48.38344" lon="7.25737">
        <ele>962</ele>
        <time>2020-06-24T09:21:26.158Z</time>
      </trkpt>
      <trkpt lat="48.38344" lon="7.25738">
        <ele>961</ele>
        <time>2020-06-24T09:21:27.157Z</time>
      </trkpt>
      <trkpt lat="48.38344" lon="7.25739">
        <ele>961</ele>
        <time>2020-06-24T09:21:28.157Z</time>
      </trkpt>
      <trkpt lat="48.38344" lon="7.2574">
        <ele>961</ele>
        <time>2020-06-24T09:21:29.158Z</time>
      </trkpt>
      <trkpt lat="48.38343" lon="7.25741">
        <ele>961</ele>
        <time>2020-06-24T09:21:30.158Z</time>
      </trkpt>
      <trkpt lat="48.38343" lon="7.2574">
        <ele>961</ele>
        <time>2020-06-24T09:21:31.158Z</time>
      </trkpt>
      <trkpt lat="48.38343" lon="7.2574">
        <ele>961</ele>
        <time>2020-06-24T09:21:32.157Z</time>
      </trkpt>
      <trkpt lat="48.38343" lon="7.25739">
        <ele>961</ele>
        <time>2020-06-24T09:21:33.158Z</time>
      </trkpt>
      <trkpt lat="48.38343" lon="7.2574">
        <ele>961</ele>
        <time>2020-06-24T09:21:34.158Z</time>
      </trkpt>
      <trkpt lat="48.38342" lon="7.2574">
        <ele>965</ele>
        <time>2020-06-24T09:21:35.158Z</time>
      </trkpt>
      <trkpt lat="48.3834" lon="7.2574">
        <ele>965</ele>
        <time>2020-06-24T09:21:36.158Z</time>
      </trkpt>
      <trkpt lat="48.38338" lon="7.2574">
        <ele>965</ele>
        <time>2020-06-24T09:21:37.158Z</time>
      </trkpt>
      <trkpt lat="48.38337" lon="7.25738">
        <ele>965</ele>
        <time>2020-06-24T09:21:38.159Z</time>
      </trkpt>
      <trkpt lat="48.38336" lon="7.25737">
        <ele>965</ele>
        <time>2020-06-24T09:21:39.159Z</time>
      </trkpt>
      <trkpt lat="48.38335" lon="7.25736">
        <ele>965</ele>
        <time>2020-06-24T09:21:40.158Z</time>
      </trkpt>
      <trkpt lat="48.38334" lon="7.25734">
        <ele>964</ele>
        <time>2020-06-24T09:21:41.159Z</time>
      </trkpt>
      <trkpt lat="48.38333" lon="7.25733">
        <ele>964</ele>
        <time>2020-06-24T09:21:42.159Z</time>
      </trkpt>
      <trkpt lat="48.38332" lon="7.25732">
        <ele>964</ele>
        <time>2020-06-24T09:21:43.158Z</time>
      </trkpt>
      <trkpt lat="48.38331" lon="7.25731">
        <ele>964</ele>
        <time>2020-06-24T09:21:44.158Z</time>
      </trkpt>
      <trkpt lat="48.3833" lon="7.2573">
        <ele>965</ele>
        <time>2020-06-24T09:21:45.159Z</time>
      </trkpt>
      <trkpt lat="48.38329" lon="7.25728">
        <ele>965</ele>
        <time>2020-06-24T09:21:46.159Z</time>
      </trkpt>
      <trkpt lat="48.38329" lon="7.25728">
        <ele>965</ele>
        <time>2020-06-24T09:21:47.158Z</time>
      </trkpt>
      <trkpt lat="48.38327" lon="7.25727">
        <ele>965</ele>
        <time>2020-06-24T09:21:48.159Z</time>
      </trkpt>
      <trkpt lat="48.38325" lon="7.25727">
        <ele>965</ele>
        <time>2020-06-24T09:21:49.159Z</time>
      </trkpt>
      <trkpt lat="48.38324" lon="7.25727">
        <ele>965</ele>
        <time>2020-06-24T09:21:50.158Z</time>
      </trkpt>
      <trkpt lat="48.38323" lon="7.25726">
        <ele>965</ele>
        <time>2020-06-24T09:21:51.159Z</time>
      </trkpt>
      <trkpt lat="48.38322" lon="7.25725">
        <ele>965</ele>
        <time>2020-06-24T09:21:52.159Z</time>
      </trkpt>
      <trkpt lat="48.38321" lon="7.25724">
        <ele>965</ele>
        <time>2020-06-24T09:21:53.158Z</time>
      </trkpt>
      <trkpt lat="48.38319" lon="7.25723">
        <ele>965</ele>
        <time>2020-06-24T09:21:54.159Z</time>
      </trkpt>
      <trkpt lat="48.38318" lon="7.25722">
        <ele>965</ele>
        <time>2020-06-24T09:21:55.159Z</time>
      </trkpt>
      <trkpt lat="48.38318" lon="7.25722">
        <ele>966</ele>
        <time>2020-06-24T09:21:56.159Z</time>
      </trkpt>
      <trkpt lat="48.38317" lon="7.25722">
        <ele>966</ele>
        <time>2020-06-24T09:21:57.159Z</time>
      </trkpt>
      <trkpt lat="48.38316" lon="7.25722">
        <ele>967</ele>
        <time>2020-06-24T09:21:58.159Z</time>
      </trkpt>
      <trkpt lat="48.38315" lon="7.25723">
        <ele>967</ele>
        <time>2020-06-24T09:21:59.159Z</time>
      </trkpt>
      <trkpt lat="48.38314" lon="7.25723">
        <ele>968</ele>
        <time>2020-06-24T09:22:00.158Z</time>
      </trkpt>
      <trkpt lat="48.38314" lon="7.25723">
        <ele>969</ele>
        <time>2020-06-24T09:22:01.158Z</time>
      </trkpt>
      <trkpt lat="48.38314" lon="7.25723">
        <ele>969</ele>
        <time>2020-06-24T09:22:02.159Z</time>
      </trkpt>
      <trkpt lat="48.38314" lon="7.25723">
        <ele>970</ele>
        <time>2020-06-24T09:22:03.159Z</time>
      </trkpt>
      <trkpt lat="48.38314" lon="7.25722">
        <ele>970</ele>
        <time>2020-06-24T09:22:04.159Z</time>
      </trkpt>
      <trkpt lat="48.38315" lon="7.2572">
        <ele>969</ele>
        <time>2020-06-24T09:22:05.159Z</time>
      </trkpt>
      <trkpt lat="48.38315" lon="7.25719">
        <ele>969</ele>
        <time>2020-06-24T09:22:06.158Z</time>
      </trkpt>
      <trkpt lat="48.3832" lon="7.2572">
        <ele>965</ele>
        <time>2020-06-24T09:22:07.159Z</time>
      </trkpt>
      <trkpt lat="48.38321" lon="7.25721">
        <ele>965</ele>
        <time>2020-06-24T09:22:08.159Z</time>
      </trkpt>
      <trkpt lat="48.38322" lon="7.25722">
        <ele>965</ele>
        <time>2020-06-24T09:22:09.159Z</time>
      </trkpt>
      <trkpt lat="48.38324" lon="7.25723">
        <ele>965</ele>
        <time>2020-06-24T09:22:10.159Z</time>
      </trkpt>
      <trkpt lat="48.38325" lon="7.25724">
        <ele>965</ele>
        <time>2020-06-24T09:22:11.159Z</time>
      </trkpt>
      <trkpt lat="48.38326" lon="7.25725">
        <ele>966</ele>
        <time>2020-06-24T09:22:12.159Z</time>
      </trkpt>
      <trkpt lat="48.38327" lon="7.25726">
        <ele>966</ele>
        <time>2020-06-24T09:22:13.159Z</time>
      </trkpt>
      <trkpt lat="48.38328" lon="7.25726">
        <ele>966</ele>
        <time>2020-06-24T09:22:14.159Z</time>
      </trkpt>
      <trkpt lat="48.38329" lon="7.25727">
        <ele>967</ele>
        <time>2020-06-24T09:22:15.159Z</time>
      </trkpt>
      <trkpt lat="48.3833" lon="7.25727">
        <ele>967</ele>
        <time>2020-06-24T09:22:16.159Z</time>
      </trkpt>
      <trkpt lat="48.38331" lon="7.25729">
        <ele>967</ele>
        <time>2020-06-24T09:22:17.159Z</time>
      </trkpt>
      <trkpt lat="48.38332" lon="7.25731">
        <ele>968</ele>
        <time>2020-06-24T09:22:18.159Z</time>
      </trkpt>
      <trkpt lat="48.38334" lon="7.25733">
        <ele>968</ele>
        <time>2020-06-24T09:22:19.159Z</time>
      </trkpt>
      <trkpt lat="48.38335" lon="7.25735">
        <ele>969</ele>
        <time>2020-06-24T09:22:20.159Z</time>
      </trkpt>
      <trkpt lat="48.38335" lon="7.25737">
        <ele>969</ele>
        <time>2020-06-24T09:22:21.159Z</time>
      </trkpt>
      <trkpt lat="48.38335" lon="7.25739">
        <ele>969</ele>
        <time>2020-06-24T09:22:22.159Z</time>
      </trkpt>
      <trkpt lat="48.38335" lon="7.25741">
        <ele>968</ele>
        <time>2020-06-24T09:22:23.159Z</time>
      </trkpt>
      <trkpt lat="48.38335" lon="7.25743">
        <ele>968</ele>
        <time>2020-06-24T09:22:24.159Z</time>
      </trkpt>
      <trkpt lat="48.38335" lon="7.25745">
        <ele>967</ele>
        <time>2020-06-24T09:22:25.159Z</time>
      </trkpt>
      <trkpt lat="48.38335" lon="7.25747">
        <ele>966</ele>
        <time>2020-06-24T09:22:26.159Z</time>
      </trkpt>
      <trkpt lat="48.38334" lon="7.25748">
        <ele>965</ele>
        <time>2020-06-24T09:22:27.159Z</time>
      </trkpt>
      <trkpt lat="48.38334" lon="7.2575">
        <ele>964</ele>
        <time>2020-06-24T09:22:28.159Z</time>
      </trkpt>
      <trkpt lat="48.38333" lon="7.25752">
        <ele>963</ele>
        <time>2020-06-24T09:22:29.159Z</time>
      </trkpt>
      <trkpt lat="48.38332" lon="7.25754">
        <ele>963</ele>
        <time>2020-06-24T09:22:30.159Z</time>
      </trkpt>
      <trkpt lat="48.38332" lon="7.25755">
        <ele>962</ele>
        <time>2020-06-24T09:22:31.159Z</time>
      </trkpt>
      <trkpt lat="48.38332" lon="7.25756">
        <ele>962</ele>
        <time>2020-06-24T09:22:32.159Z</time>
      </trkpt>
      <trkpt lat="48.38332" lon="7.25757">
        <ele>961</ele>
        <time>2020-06-24T09:22:33.159Z</time>
      </trkpt>
      <trkpt lat="48.38332" lon="7.25757">
        <ele>961</ele>
        <time>2020-06-24T09:22:34.159Z</time>
      </trkpt>
      <trkpt lat="48.38332" lon="7.25758">
        <ele>960</ele>
        <time>2020-06-24T09:22:35.159Z</time>
      </trkpt>
      <trkpt lat="48.38333" lon="7.25759">
        <ele>960</ele>
        <time>2020-06-24T09:22:36.159Z</time>
      </trkpt>
      <trkpt lat="48.38333" lon="7.25761">
        <ele>959</ele>
        <time>2020-06-24T09:22:37.159Z</time>
      </trkpt>
      <trkpt lat="48.38334" lon="7.25762">
        <ele>958</ele>
        <time>2020-06-24T09:22:38.159Z</time>
      </trkpt>
      <trkpt lat="48.38334" lon="7.25762">
        <ele>958</ele>
        <time>2020-06-24T09:22:39.159Z</time>
      </trkpt>
      <trkpt lat="48.38334" lon="7.25763">
        <ele>957</ele>
        <time>2020-06-24T09:22:40.159Z</time>
      </trkpt>
      <trkpt lat="48.38333" lon="7.25763">
        <ele>956</ele>
        <time>2020-06-24T09:22:41.159Z</time>
      </trkpt>
      <trkpt lat="48.38333" lon="7.25762">
        <ele>953</ele>
        <time>2020-06-24T09:22:42.160Z</time>
      </trkpt>
      <trkpt lat="48.38333" lon="7.25763">
        <ele>953</ele>
        <time>2020-06-24T09:22:43.159Z</time>
      </trkpt>
      <trkpt lat="48.38333" lon="7.25765">
        <ele>952</ele>
        <time>2020-06-24T09:22:44.159Z</time>
      </trkpt>
      <trkpt lat="48.38333" lon="7.25767">
        <ele>952</ele>
        <time>2020-06-24T09:22:45.160Z</time>
      </trkpt>
      <trkpt lat="48.38334" lon="7.25768">
        <ele>953</ele>
        <time>2020-06-24T09:22:46.160Z</time>
      </trkpt>
      <trkpt lat="48.38334" lon="7.25768">
        <ele>953</ele>
        <time>2020-06-24T09:22:47.160Z</time>
      </trkpt>
      <trkpt lat="48.38335" lon="7.25768">
        <ele>954</ele>
        <time>2020-06-24T09:22:48.160Z</time>
      </trkpt>
      <trkpt lat="48.38336" lon="7.25768">
        <ele>954</ele>
        <time>2020-06-24T09:22:49.160Z</time>
      </trkpt>
      <trkpt lat="48.38337" lon="7.2577">
        <ele>954</ele>
        <time>2020-06-24T09:22:50.160Z</time>
      </trkpt>
      <trkpt lat="48.38338" lon="7.25771">
        <ele>955</ele>
        <time>2020-06-24T09:22:51.160Z</time>
      </trkpt>
      <trkpt lat="48.38339" lon="7.25773">
        <ele>955</ele>
        <time>2020-06-24T09:22:52.160Z</time>
      </trkpt>
      <trkpt lat="48.3834" lon="7.25774">
        <ele>955</ele>
        <time>2020-06-24T09:22:53.160Z</time>
      </trkpt>
      <trkpt lat="48.38341" lon="7.25775">
        <ele>956</ele>
        <time>2020-06-24T09:22:54.160Z</time>
      </trkpt>
      <trkpt lat="48.38343" lon="7.25777">
        <ele>956</ele>
        <time>2020-06-24T09:22:55.160Z</time>
      </trkpt>
      <trkpt lat="48.38344" lon="7.25778">
        <ele>956</ele>
        <time>2020-06-24T09:22:56.160Z</time>
      </trkpt>
      <trkpt lat="48.38345" lon="7.25778">
        <ele>957</ele>
        <time>2020-06-24T09:22:57.160Z</time>
      </trkpt>
      <trkpt lat="48.38346" lon="7.25779">
        <ele>957</ele>
        <time>2020-06-24T09:22:58.160Z</time>
      </trkpt>
      <trkpt lat="48.38347" lon="7.2578">
        <ele>958</ele>
        <time>2020-06-24T09:22:59.160Z</time>
      </trkpt>
      <trkpt lat="48.38348" lon="7.2578">
        <ele>958</ele>
        <time>2020-06-24T09:23:00.160Z</time>
      </trkpt>
      <trkpt lat="48.38349" lon="7.25781">
        <ele>958</ele>
        <time>2020-06-24T09:23:01.160Z</time>
      </trkpt>
      <trkpt lat="48.38351" lon="7.25781">
        <ele>958</ele>
        <time>2020-06-24T09:23:02.160Z</time>
      </trkpt>
      <trkpt lat="48.38352" lon="7.25781">
        <ele>959</ele>
        <time>2020-06-24T09:23:03.160Z</time>
      </trkpt>
      <trkpt lat="48.38353" lon="7.25782">
        <ele>959</ele>
        <time>2020-06-24T09:23:04.159Z</time>
      </trkpt>
      <trkpt lat="48.38355" lon="7.25782">
        <ele>959</ele>
        <time>2020-06-24T09:23:05.160Z</time>
      </trkpt>
      <trkpt lat="48.38356" lon="7.25783">
        <ele>960</ele>
        <time>2020-06-24T09:23:06.160Z</time>
      </trkpt>
      <trkpt lat="48.38357" lon="7.25784">
        <ele>960</ele>
        <time>2020-06-24T09:23:07.159Z</time>
      </trkpt>
      <trkpt lat="48.38358" lon="7.25784">
        <ele>960</ele>
        <time>2020-06-24T09:23:08.160Z</time>
      </trkpt>
      <trkpt lat="48.38359" lon="7.25785">
        <ele>961</ele>
        <time>2020-06-24T09:23:09.160Z</time>
      </trkpt>
      <trkpt lat="48.38361" lon="7.25785">
        <ele>962</ele>
        <time>2020-06-24T09:23:10.160Z</time>
      </trkpt>
      <trkpt lat="48.38362" lon="7.25786">
        <ele>962</ele>
        <time>2020-06-24T09:23:11.160Z</time>
      </trkpt>
      <trkpt lat="48.38363" lon="7.25787">
        <ele>963</ele>
        <time>2020-06-24T09:23:12.160Z</time>
      </trkpt>
      <trkpt lat="48.38364" lon="7.25789">
        <ele>963</ele>
        <time>2020-06-24T09:23:13.160Z</time>
      </trkpt>
      <trkpt lat="48.38364" lon="7.25791">
        <ele>963</ele>
        <time>2020-06-24T09:23:14.160Z</time>
      </trkpt>
      <trkpt lat="48.38365" lon="7.25793">
        <ele>963</ele>
        <time>2020-06-24T09:23:15.160Z</time>
      </trkpt>
      <trkpt lat="48.38366" lon="7.25795">
        <ele>964</ele>
        <time>2020-06-24T09:23:16.160Z</time>
      </trkpt>
      <trkpt lat="48.38366" lon="7.25797">
        <ele>964</ele>
        <time>2020-06-24T09:23:17.160Z</time>
      </trkpt>
      <trkpt lat="48.38367" lon="7.25798">
        <ele>964</ele>
        <time>2020-06-24T09:23:18.160Z</time>
      </trkpt>
      <trkpt lat="48.38367" lon="7.25799">
        <ele>965</ele>
        <time>2020-06-24T09:23:19.160Z</time>
      </trkpt>
      <trkpt lat="48.38367" lon="7.258">
        <ele>965</ele>
        <time>2020-06-24T09:23:20.159Z</time>
      </trkpt>
      <trkpt lat="48.38367" lon="7.258">
        <ele>966</ele>
        <time>2020-06-24T09:23:21.160Z</time>
      </trkpt>
      <trkpt lat="48.38367" lon="7.25801">
        <ele>966</ele>
        <time>2020-06-24T09:23:22.160Z</time>
      </trkpt>
      <trkpt lat="48.38369" lon="7.25799">
        <ele>969</ele>
        <time>2020-06-24T09:23:23.161Z</time>
      </trkpt>
      <trkpt lat="48.38369" lon="7.25799">
        <ele>970</ele>
        <time>2020-06-24T09:23:24.161Z</time>
      </trkpt>
      <trkpt lat="48.38369" lon="7.25798">
        <ele>971</ele>
        <time>2020-06-24T09:23:25.160Z</time>
      </trkpt>
      <trkpt lat="48.38372" lon="7.25796">
        <ele>975</ele>
        <time>2020-06-24T09:23:26.160Z</time>
      </trkpt>
      <trkpt lat="48.38373" lon="7.25796">
        <ele>975</ele>
        <time>2020-06-24T09:23:27.160Z</time>
      </trkpt>
      <trkpt lat="48.38374" lon="7.25795">
        <ele>975</ele>
        <time>2020-06-24T09:23:28.160Z</time>
      </trkpt>
      <trkpt lat="48.38374" lon="7.25795">
        <ele>975</ele>
        <time>2020-06-24T09:23:29.160Z</time>
      </trkpt>
      <trkpt lat="48.38374" lon="7.25797">
        <ele>975</ele>
        <time>2020-06-24T09:23:30.162Z</time>
      </trkpt>
      <trkpt lat="48.38374" lon="7.25798">
        <ele>974</ele>
        <time>2020-06-24T09:23:31.161Z</time>
      </trkpt>
      <trkpt lat="48.38374" lon="7.25798">
        <ele>974</ele>
        <time>2020-06-24T09:23:32.161Z</time>
      </trkpt>
      <trkpt lat="48.38375" lon="7.25799">
        <ele>974</ele>
        <time>2020-06-24T09:23:33.162Z</time>
      </trkpt>
      <trkpt lat="48.38375" lon="7.25801">
        <ele>974</ele>
        <time>2020-06-24T09:23:34.162Z</time>
      </trkpt>
      <trkpt lat="48.38376" lon="7.25803">
        <ele>974</ele>
        <time>2020-06-24T09:23:35.161Z</time>
      </trkpt>
      <trkpt lat="48.38376" lon="7.25805">
        <ele>974</ele>
        <time>2020-06-24T09:23:36.162Z</time>
      </trkpt>
      <trkpt lat="48.38377" lon="7.25808">
        <ele>975</ele>
        <time>2020-06-24T09:23:37.161Z</time>
      </trkpt>
      <trkpt lat="48.38377" lon="7.2581">
        <ele>975</ele>
        <time>2020-06-24T09:23:38.161Z</time>
      </trkpt>
      <trkpt lat="48.38377" lon="7.25812">
        <ele>975</ele>
        <time>2020-06-24T09:23:39.161Z</time>
      </trkpt>
      <trkpt lat="48.38378" lon="7.25814">
        <ele>975</ele>
        <time>2020-06-24T09:23:40.162Z</time>
      </trkpt>
      <trkpt lat="48.38378" lon="7.25816">
        <ele>975</ele>
        <time>2020-06-24T09:23:41.162Z</time>
      </trkpt>
      <trkpt lat="48.38379" lon="7.25819">
        <ele>975</ele>
        <time>2020-06-24T09:23:42.162Z</time>
      </trkpt>
      <trkpt lat="48.38379" lon="7.25821">
        <ele>975</ele>
        <time>2020-06-24T09:23:43.161Z</time>
      </trkpt>
      <trkpt lat="48.38379" lon="7.25823">
        <ele>975</ele>
        <time>2020-06-24T09:23:44.162Z</time>
      </trkpt>
      <trkpt lat="48.38379" lon="7.25825">
        <ele>975</ele>
        <time>2020-06-24T09:23:45.162Z</time>
      </trkpt>
      <trkpt lat="48.38379" lon="7.25826">
        <ele>976</ele>
        <time>2020-06-24T09:23:46.161Z</time>
      </trkpt>
      <trkpt lat="48.38379" lon="7.25828">
        <ele>976</ele>
        <time>2020-06-24T09:23:47.162Z</time>
      </trkpt>
      <trkpt lat="48.38379" lon="7.25831">
        <ele>977</ele>
        <time>2020-06-24T09:23:48.162Z</time>
      </trkpt>
      <trkpt lat="48.38379" lon="7.25833">
        <ele>977</ele>
        <time>2020-06-24T09:23:49.161Z</time>
      </trkpt>
      <trkpt lat="48.38379" lon="7.25835">
        <ele>977</ele>
        <time>2020-06-24T09:23:50.162Z</time>
      </trkpt>
      <trkpt lat="48.38378" lon="7.25836">
        <ele>978</ele>
        <time>2020-06-24T09:23:51.161Z</time>
      </trkpt>
      <trkpt lat="48.38378" lon="7.25837">
        <ele>978</ele>
        <time>2020-06-24T09:23:52.162Z</time>
      </trkpt>
      <trkpt lat="48.38377" lon="7.25839">
        <ele>979</ele>
        <time>2020-06-24T09:23:53.162Z</time>
      </trkpt>
      <trkpt lat="48.38377" lon="7.25842">
        <ele>979</ele>
        <time>2020-06-24T09:23:54.162Z</time>
      </trkpt>
      <trkpt lat="48.38377" lon="7.25843">
        <ele>980</ele>
        <time>2020-06-24T09:23:55.162Z</time>
      </trkpt>
      <trkpt lat="48.38377" lon="7.25846">
        <ele>980</ele>
        <time>2020-06-24T09:23:56.162Z</time>
      </trkpt>
      <trkpt lat="48.38377" lon="7.25848">
        <ele>981</ele>
        <time>2020-06-24T09:23:57.162Z</time>
      </trkpt>
      <trkpt lat="48.38377" lon="7.25851">
        <ele>982</ele>
        <time>2020-06-24T09:23:58.162Z</time>
      </trkpt>
      <trkpt lat="48.38376" lon="7.25853">
        <ele>983</ele>
        <time>2020-06-24T09:23:59.162Z</time>
      </trkpt>
      <trkpt lat="48.38376" lon="7.25855">
        <ele>983</ele>
        <time>2020-06-24T09:24:00.161Z</time>
      </trkpt>
      <trkpt lat="48.38376" lon="7.25858">
        <ele>983</ele>
        <time>2020-06-24T09:24:01.162Z</time>
      </trkpt>
      <trkpt lat="48.38376" lon="7.2586">
        <ele>984</ele>
        <time>2020-06-24T09:24:02.162Z</time>
      </trkpt>
      <trkpt lat="48.38375" lon="7.25862">
        <ele>985</ele>
        <time>2020-06-24T09:24:03.162Z</time>
      </trkpt>
      <trkpt lat="48.38375" lon="7.25864">
        <ele>985</ele>
        <time>2020-06-24T09:24:04.162Z</time>
      </trkpt>
      <trkpt lat="48.38375" lon="7.25865">
        <ele>986</ele>
        <time>2020-06-24T09:24:05.162Z</time>
      </trkpt>
      <trkpt lat="48.38376" lon="7.25868">
        <ele>986</ele>
        <time>2020-06-24T09:24:06.161Z</time>
      </trkpt>
      <trkpt lat="48.38376" lon="7.2587">
        <ele>987</ele>
        <time>2020-06-24T09:24:07.162Z</time>
      </trkpt>
      <trkpt lat="48.38376" lon="7.25873">
        <ele>987</ele>
        <time>2020-06-24T09:24:08.162Z</time>
      </trkpt>
      <trkpt lat="48.38376" lon="7.25875">
        <ele>987</ele>
        <time>2020-06-24T09:24:09.161Z</time>
      </trkpt>
      <trkpt lat="48.38376" lon="7.25877">
        <ele>987</ele>
        <time>2020-06-24T09:24:10.162Z</time>
      </trkpt>
      <trkpt lat="48.38376" lon="7.25879">
        <ele>988</ele>
        <time>2020-06-24T09:24:11.161Z</time>
      </trkpt>
      <trkpt lat="48.38376" lon="7.25881">
        <ele>988</ele>
        <time>2020-06-24T09:24:12.162Z</time>
      </trkpt>
      <trkpt lat="48.38376" lon="7.25883">
        <ele>989</ele>
        <time>2020-06-24T09:24:13.162Z</time>
      </trkpt>
      <trkpt lat="48.38376" lon="7.25885">
        <ele>989</ele>
        <time>2020-06-24T09:24:14.162Z</time>
      </trkpt>
      <trkpt lat="48.38377" lon="7.25887">
        <ele>990</ele>
        <time>2020-06-24T09:24:15.161Z</time>
      </trkpt>
      <trkpt lat="48.38378" lon="7.25888">
        <ele>990</ele>
        <time>2020-06-24T09:24:16.162Z</time>
      </trkpt>
      <trkpt lat="48.38379" lon="7.25889">
        <ele>990</ele>
        <time>2020-06-24T09:24:17.162Z</time>
      </trkpt>
      <trkpt lat="48.3838" lon="7.25892">
        <ele>990</ele>
        <time>2020-06-24T09:24:18.162Z</time>
      </trkpt>
      <trkpt lat="48.38381" lon="7.25894">
        <ele>991</ele>
        <time>2020-06-24T09:24:19.161Z</time>
      </trkpt>
      <trkpt lat="48.38382" lon="7.25896">
        <ele>991</ele>
        <time>2020-06-24T09:24:20.161Z</time>
      </trkpt>
      <trkpt lat="48.38383" lon="7.25898">
        <ele>991</ele>
        <time>2020-06-24T09:24:21.162Z</time>
      </trkpt>
      <trkpt lat="48.38384" lon="7.25901">
        <ele>991</ele>
        <time>2020-06-24T09:24:22.161Z</time>
      </trkpt>
      <trkpt lat="48.38384" lon="7.25903">
        <ele>992</ele>
        <time>2020-06-24T09:24:23.162Z</time>
      </trkpt>
      <trkpt lat="48.38384" lon="7.25904">
        <ele>992</ele>
        <time>2020-06-24T09:24:24.162Z</time>
      </trkpt>
      <trkpt lat="48.38385" lon="7.25906">
        <ele>992</ele>
        <time>2020-06-24T09:24:25.162Z</time>
      </trkpt>
      <trkpt lat="48.38386" lon="7.25908">
        <ele>992</ele>
        <time>2020-06-24T09:24:26.161Z</time>
      </trkpt>
      <trkpt lat="48.38386" lon="7.25909">
        <ele>992</ele>
        <time>2020-06-24T09:24:27.162Z</time>
      </trkpt>
      <trkpt lat="48.38387" lon="7.2591">
        <ele>991</ele>
        <time>2020-06-24T09:24:28.161Z</time>
      </trkpt>
      <trkpt lat="48.38388" lon="7.25911">
        <ele>991</ele>
        <time>2020-06-24T09:24:29.161Z</time>
      </trkpt>
      <trkpt lat="48.38389" lon="7.25912">
        <ele>991</ele>
        <time>2020-06-24T09:24:30.161Z</time>
      </trkpt>
      <trkpt lat="48.38389" lon="7.25914">
        <ele>990</ele>
        <time>2020-06-24T09:24:31.162Z</time>
      </trkpt>
      <trkpt lat="48.3839" lon="7.25916">
        <ele>990</ele>
        <time>2020-06-24T09:24:32.162Z</time>
      </trkpt>
      <trkpt lat="48.38391" lon="7.25917">
        <ele>989</ele>
        <time>2020-06-24T09:24:33.162Z</time>
      </trkpt>
      <trkpt lat="48.38392" lon="7.25919">
        <ele>989</ele>
        <time>2020-06-24T09:24:34.162Z</time>
      </trkpt>
      <trkpt lat="48.38394" lon="7.2592">
        <ele>988</ele>
        <time>2020-06-24T09:24:35.162Z</time>
      </trkpt>
      <trkpt lat="48.38394" lon="7.25921">
        <ele>988</ele>
        <time>2020-06-24T09:24:36.162Z</time>
      </trkpt>
      <trkpt lat="48.38396" lon="7.25923">
        <ele>987</ele>
        <time>2020-06-24T09:24:37.161Z</time>
      </trkpt>
      <trkpt lat="48.38397" lon="7.25924">
        <ele>987</ele>
        <time>2020-06-24T09:24:38.162Z</time>
      </trkpt>
      <trkpt lat="48.38398" lon="7.25925">
        <ele>987</ele>
        <time>2020-06-24T09:24:39.161Z</time>
      </trkpt>
      <trkpt lat="48.38399" lon="7.25927">
        <ele>987</ele>
        <time>2020-06-24T09:24:40.162Z</time>
      </trkpt>
      <trkpt lat="48.38399" lon="7.25929">
        <ele>986</ele>
        <time>2020-06-24T09:24:41.162Z</time>
      </trkpt>
      <trkpt lat="48.384" lon="7.2593">
        <ele>986</ele>
        <time>2020-06-24T09:24:42.161Z</time>
      </trkpt>
      <trkpt lat="48.38402" lon="7.25932">
        <ele>985</ele>
        <time>2020-06-24T09:24:43.162Z</time>
      </trkpt>
      <trkpt lat="48.38403" lon="7.25933">
        <ele>985</ele>
        <time>2020-06-24T09:24:44.162Z</time>
      </trkpt>
      <trkpt lat="48.38404" lon="7.25935">
        <ele>985</ele>
        <time>2020-06-24T09:24:45.161Z</time>
      </trkpt>
      <trkpt lat="48.38405" lon="7.25936">
        <ele>985</ele>
        <time>2020-06-24T09:24:46.162Z</time>
      </trkpt>
      <trkpt lat="48.38406" lon="7.25938">
        <ele>984</ele>
        <time>2020-06-24T09:24:47.162Z</time>
      </trkpt>
      <trkpt lat="48.38407" lon="7.2594">
        <ele>984</ele>
        <time>2020-06-24T09:24:48.162Z</time>
      </trkpt>
      <trkpt lat="48.38407" lon="7.25941">
        <ele>984</ele>
        <time>2020-06-24T09:24:49.161Z</time>
      </trkpt>
      <trkpt lat="48.38408" lon="7.25943">
        <ele>983</ele>
        <time>2020-06-24T09:24:50.161Z</time>
      </trkpt>
      <trkpt lat="48.38409" lon="7.25945">
        <ele>983</ele>
        <time>2020-06-24T09:24:51.161Z</time>
      </trkpt>
      <trkpt lat="48.3841" lon="7.25946">
        <ele>984</ele>
        <time>2020-06-24T09:24:52.161Z</time>
      </trkpt>
      <trkpt lat="48.38411" lon="7.25948">
        <ele>984</ele>
        <time>2020-06-24T09:24:53.161Z</time>
      </trkpt>
      <trkpt lat="48.38412" lon="7.25949">
        <ele>984</ele>
        <time>2020-06-24T09:24:54.161Z</time>
      </trkpt>
      <trkpt lat="48.38413" lon="7.25951">
        <ele>984</ele>
        <time>2020-06-24T09:24:55.162Z</time>
      </trkpt>
      <trkpt lat="48.38414" lon="7.25952">
        <ele>984</ele>
        <time>2020-06-24T09:24:56.161Z</time>
      </trkpt>
      <trkpt lat="48.38415" lon="7.25953">
        <ele>984</ele>
        <time>2020-06-24T09:24:57.162Z</time>
      </trkpt>
      <trkpt lat="48.38416" lon="7.25955">
        <ele>983</ele>
        <time>2020-06-24T09:24:58.162Z</time>
      </trkpt>
      <trkpt lat="48.38418" lon="7.25956">
        <ele>983</ele>
        <time>2020-06-24T09:24:59.161Z</time>
      </trkpt>
      <trkpt lat="48.38419" lon="7.25957">
        <ele>983</ele>
        <time>2020-06-24T09:25:00.162Z</time>
      </trkpt>
      <trkpt lat="48.3842" lon="7.25959">
        <ele>982</ele>
        <time>2020-06-24T09:25:01.162Z</time>
      </trkpt>
      <trkpt lat="48.38421" lon="7.25961">
        <ele>982</ele>
        <time>2020-06-24T09:25:02.161Z</time>
      </trkpt>
      <trkpt lat="48.38422" lon="7.25963">
        <ele>981</ele>
        <time>2020-06-24T09:25:03.161Z</time>
      </trkpt>
      <trkpt lat="48.38423" lon="7.25964">
        <ele>981</ele>
        <time>2020-06-24T09:25:04.161Z</time>
      </trkpt>
      <trkpt lat="48.38424" lon="7.25967">
        <ele>981</ele>
        <time>2020-06-24T09:25:05.162Z</time>
      </trkpt>
      <trkpt lat="48.38425" lon="7.25968">
        <ele>980</ele>
        <time>2020-06-24T09:25:06.162Z</time>
      </trkpt>
      <trkpt lat="48.38425" lon="7.25968">
        <ele>980</ele>
        <time>2020-06-24T09:25:07.162Z</time>
      </trkpt>
      <trkpt lat="48.38425" lon="7.25969">
        <ele>980</ele>
        <time>2020-06-24T09:25:08.162Z</time>
      </trkpt>
      <trkpt lat="48.38424" lon="7.25968">
        <ele>980</ele>
        <time>2020-06-24T09:25:09.162Z</time>
      </trkpt>
      <trkpt lat="48.38425" lon="7.25968">
        <ele>980</ele>
        <time>2020-06-24T09:25:10.162Z</time>
      </trkpt>
      <trkpt lat="48.38427" lon="7.25969">
        <ele>981</ele>
        <time>2020-06-24T09:25:11.162Z</time>
      </trkpt>
      <trkpt lat="48.38428" lon="7.25971">
        <ele>981</ele>
        <time>2020-06-24T09:25:12.161Z</time>
      </trkpt>
      <trkpt lat="48.38428" lon="7.25972">
        <ele>981</ele>
        <time>2020-06-24T09:25:13.161Z</time>
      </trkpt>
      <trkpt lat="48.38429" lon="7.25973">
        <ele>981</ele>
        <time>2020-06-24T09:25:14.161Z</time>
      </trkpt>
      <trkpt lat="48.3843" lon="7.25974">
        <ele>981</ele>
        <time>2020-06-24T09:25:15.161Z</time>
      </trkpt>
      <trkpt lat="48.38431" lon="7.25975">
        <ele>981</ele>
        <time>2020-06-24T09:25:16.162Z</time>
      </trkpt>
      <trkpt lat="48.38432" lon="7.25976">
        <ele>980</ele>
        <time>2020-06-24T09:25:17.162Z</time>
      </trkpt>
      <trkpt lat="48.38433" lon="7.25978">
        <ele>980</ele>
        <time>2020-06-24T09:25:18.162Z</time>
      </trkpt>
      <trkpt lat="48.38434" lon="7.25979">
        <ele>980</ele>
        <time>2020-06-24T09:25:19.162Z</time>
      </trkpt>
      <trkpt lat="48.38436" lon="7.2598">
        <ele>981</ele>
        <time>2020-06-24T09:25:20.162Z</time>
      </trkpt>
      <trkpt lat="48.38437" lon="7.25981">
        <ele>981</ele>
        <time>2020-06-24T09:25:21.162Z</time>
      </trkpt>
      <trkpt lat="48.38438" lon="7.25982">
        <ele>981</ele>
        <time>2020-06-24T09:25:22.162Z</time>
      </trkpt>
      <trkpt lat="48.38439" lon="7.25982">
        <ele>981</ele>
        <time>2020-06-24T09:25:23.162Z</time>
      </trkpt>
      <trkpt lat="48.38441" lon="7.25983">
        <ele>981</ele>
        <time>2020-06-24T09:25:24.162Z</time>
      </trkpt>
      <trkpt lat="48.38442" lon="7.25984">
        <ele>981</ele>
        <time>2020-06-24T09:25:25.162Z</time>
      </trkpt>
      <trkpt lat="48.38443" lon="7.25985">
        <ele>981</ele>
        <time>2020-06-24T09:25:26.162Z</time>
      </trkpt>
      <trkpt lat="48.38444" lon="7.25987">
        <ele>981</ele>
        <time>2020-06-24T09:25:27.162Z</time>
      </trkpt>
      <trkpt lat="48.38445" lon="7.25988">
        <ele>982</ele>
        <time>2020-06-24T09:25:28.161Z</time>
      </trkpt>
      <trkpt lat="48.38447" lon="7.2599">
        <ele>982</ele>
        <time>2020-06-24T09:25:29.162Z</time>
      </trkpt>
      <trkpt lat="48.38448" lon="7.25991">
        <ele>982</ele>
        <time>2020-06-24T09:25:30.162Z</time>
      </trkpt>
      <trkpt lat="48.38449" lon="7.25992">
        <ele>982</ele>
        <time>2020-06-24T09:25:31.161Z</time>
      </trkpt>
      <trkpt lat="48.3845" lon="7.25993">
        <ele>982</ele>
        <time>2020-06-24T09:25:32.161Z</time>
      </trkpt>
      <trkpt lat="48.38451" lon="7.25994">
        <ele>982</ele>
        <time>2020-06-24T09:25:33.162Z</time>
      </trkpt>
      <trkpt lat="48.38452" lon="7.25996">
        <ele>982</ele>
        <time>2020-06-24T09:25:34.162Z</time>
      </trkpt>
      <trkpt lat="48.38452" lon="7.25997">
        <ele>982</ele>
        <time>2020-06-24T09:25:35.162Z</time>
      </trkpt>
      <trkpt lat="48.38454" lon="7.25999">
        <ele>982</ele>
        <time>2020-06-24T09:25:36.162Z</time>
      </trkpt>
      <trkpt lat="48.38455" lon="7.26">
        <ele>982</ele>
        <time>2020-06-24T09:25:37.161Z</time>
      </trkpt>
      <trkpt lat="48.38457" lon="7.26">
        <ele>982</ele>
        <time>2020-06-24T09:25:38.162Z</time>
      </trkpt>
      <trkpt lat="48.38458" lon="7.26">
        <ele>982</ele>
        <time>2020-06-24T09:25:39.162Z</time>
      </trkpt>
      <trkpt lat="48.38459" lon="7.26">
        <ele>982</ele>
        <time>2020-06-24T09:25:40.162Z</time>
      </trkpt>
      <trkpt lat="48.38459" lon="7.26001">
        <ele>982</ele>
        <time>2020-06-24T09:25:41.162Z</time>
      </trkpt>
      <trkpt lat="48.3846" lon="7.26002">
        <ele>982</ele>
        <time>2020-06-24T09:25:42.161Z</time>
      </trkpt>
      <trkpt lat="48.38461" lon="7.26003">
        <ele>982</ele>
        <time>2020-06-24T09:25:43.161Z</time>
      </trkpt>
      <trkpt lat="48.38462" lon="7.26005">
        <ele>982</ele>
        <time>2020-06-24T09:25:44.161Z</time>
      </trkpt>
      <trkpt lat="48.38463" lon="7.26006">
        <ele>982</ele>
        <time>2020-06-24T09:25:45.162Z</time>
      </trkpt>
      <trkpt lat="48.38464" lon="7.26007">
        <ele>982</ele>
        <time>2020-06-24T09:25:46.161Z</time>
      </trkpt>
      <trkpt lat="48.38465" lon="7.26007">
        <ele>982</ele>
        <time>2020-06-24T09:25:47.162Z</time>
      </trkpt>
      <trkpt lat="48.38466" lon="7.26008">
        <ele>982</ele>
        <time>2020-06-24T09:25:48.161Z</time>
      </trkpt>
      <trkpt lat="48.38468" lon="7.26009">
        <ele>983</ele>
        <time>2020-06-24T09:25:49.162Z</time>
      </trkpt>
      <trkpt lat="48.38469" lon="7.26009">
        <ele>983</ele>
        <time>2020-06-24T09:25:50.162Z</time>
      </trkpt>
      <trkpt lat="48.3847" lon="7.26011">
        <ele>983</ele>
        <time>2020-06-24T09:25:51.161Z</time>
      </trkpt>
      <trkpt lat="48.38471" lon="7.26012">
        <ele>984</ele>
        <time>2020-06-24T09:25:52.162Z</time>
      </trkpt>
      <trkpt lat="48.38473" lon="7.26012">
        <ele>984</ele>
        <time>2020-06-24T09:25:53.162Z</time>
      </trkpt>
      <trkpt lat="48.38474" lon="7.26013">
        <ele>985</ele>
        <time>2020-06-24T09:25:54.161Z</time>
      </trkpt>
      <trkpt lat="48.38475" lon="7.26014">
        <ele>985</ele>
        <time>2020-06-24T09:25:55.162Z</time>
      </trkpt>
      <trkpt lat="48.38477" lon="7.26014">
        <ele>985</ele>
        <time>2020-06-24T09:25:56.161Z</time>
      </trkpt>
      <trkpt lat="48.38478" lon="7.26015">
        <ele>986</ele>
        <time>2020-06-24T09:25:57.162Z</time>
      </trkpt>
      <trkpt lat="48.38479" lon="7.26016">
        <ele>987</ele>
        <time>2020-06-24T09:25:58.162Z</time>
      </trkpt>
      <trkpt lat="48.3848" lon="7.26017">
        <ele>987</ele>
        <time>2020-06-24T09:25:59.162Z</time>
      </trkpt>
      <trkpt lat="48.38481" lon="7.26018">
        <ele>987</ele>
        <time>2020-06-24T09:26:00.162Z</time>
      </trkpt>
      <trkpt lat="48.38482" lon="7.26019">
        <ele>988</ele>
        <time>2020-06-24T09:26:01.161Z</time>
      </trkpt>
      <trkpt lat="48.38483" lon="7.2602">
        <ele>988</ele>
        <time>2020-06-24T09:26:02.161Z</time>
      </trkpt>
      <trkpt lat="48.38485" lon="7.26021">
        <ele>988</ele>
        <time>2020-06-24T09:26:03.161Z</time>
      </trkpt>
      <trkpt lat="48.38486" lon="7.26022">
        <ele>988</ele>
        <time>2020-06-24T09:26:04.161Z</time>
      </trkpt>
      <trkpt lat="48.38487" lon="7.26023">
        <ele>989</ele>
        <time>2020-06-24T09:26:05.162Z</time>
      </trkpt>
      <trkpt lat="48.38489" lon="7.26023">
        <ele>990</ele>
        <time>2020-06-24T09:26:06.162Z</time>
      </trkpt>
      <trkpt lat="48.3849" lon="7.26024">
        <ele>990</ele>
        <time>2020-06-24T09:26:07.162Z</time>
      </trkpt>
      <trkpt lat="48.38492" lon="7.26025">
        <ele>991</ele>
        <time>2020-06-24T09:26:08.162Z</time>
      </trkpt>
      <trkpt lat="48.38493" lon="7.26026">
        <ele>991</ele>
        <time>2020-06-24T09:26:09.162Z</time>
      </trkpt>
      <trkpt lat="48.38495" lon="7.26027">
        <ele>992</ele>
        <time>2020-06-24T09:26:10.162Z</time>
      </trkpt>
      <trkpt lat="48.38497" lon="7.26029">
        <ele>992</ele>
        <time>2020-06-24T09:26:11.161Z</time>
      </trkpt>
      <trkpt lat="48.38498" lon="7.26032">
        <ele>992</ele>
        <time>2020-06-24T09:26:12.161Z</time>
      </trkpt>
      <trkpt lat="48.385" lon="7.26034">
        <ele>993</ele>
        <time>2020-06-24T09:26:13.161Z</time>
      </trkpt>
      <trkpt lat="48.38501" lon="7.26035">
        <ele>993</ele>
        <time>2020-06-24T09:26:14.162Z</time>
      </trkpt>
      <trkpt lat="48.38503" lon="7.26036">
        <ele>993</ele>
        <time>2020-06-24T09:26:15.162Z</time>
      </trkpt>
      <trkpt lat="48.38504" lon="7.26035">
        <ele>993</ele>
        <time>2020-06-24T09:26:16.162Z</time>
      </trkpt>
      <trkpt lat="48.38506" lon="7.26036">
        <ele>993</ele>
        <time>2020-06-24T09:26:17.162Z</time>
      </trkpt>
      <trkpt lat="48.38508" lon="7.26037">
        <ele>993</ele>
        <time>2020-06-24T09:26:18.161Z</time>
      </trkpt>
      <trkpt lat="48.3851" lon="7.26038">
        <ele>992</ele>
        <time>2020-06-24T09:26:19.162Z</time>
      </trkpt>
      <trkpt lat="48.38512" lon="7.26039">
        <ele>992</ele>
        <time>2020-06-24T09:26:20.162Z</time>
      </trkpt>
      <trkpt lat="48.38513" lon="7.2604">
        <ele>992</ele>
        <time>2020-06-24T09:26:21.162Z</time>
      </trkpt>
      <trkpt lat="48.38514" lon="7.26041">
        <ele>991</ele>
        <time>2020-06-24T09:26:22.162Z</time>
      </trkpt>
      <trkpt lat="48.38516" lon="7.26042">
        <ele>991</ele>
        <time>2020-06-24T09:26:23.162Z</time>
      </trkpt>
      <trkpt lat="48.38517" lon="7.26043">
        <ele>990</ele>
        <time>2020-06-24T09:26:24.162Z</time>
      </trkpt>
      <trkpt lat="48.38518" lon="7.26043">
        <ele>990</ele>
        <time>2020-06-24T09:26:25.162Z</time>
      </trkpt>
      <trkpt lat="48.3852" lon="7.26044">
        <ele>990</ele>
        <time>2020-06-24T09:26:26.162Z</time>
      </trkpt>
      <trkpt lat="48.38521" lon="7.26046">
        <ele>991</ele>
        <time>2020-06-24T09:26:27.161Z</time>
      </trkpt>
      <trkpt lat="48.38522" lon="7.26047">
        <ele>991</ele>
        <time>2020-06-24T09:26:28.161Z</time>
      </trkpt>
      <trkpt lat="48.38523" lon="7.26047">
        <ele>992</ele>
        <time>2020-06-24T09:26:29.162Z</time>
      </trkpt>
      <trkpt lat="48.38524" lon="7.26048">
        <ele>992</ele>
        <time>2020-06-24T09:26:30.162Z</time>
      </trkpt>
      <trkpt lat="48.38526" lon="7.26048">
        <ele>992</ele>
        <time>2020-06-24T09:26:31.161Z</time>
      </trkpt>
      <trkpt lat="48.38527" lon="7.26048">
        <ele>992</ele>
        <time>2020-06-24T09:26:32.161Z</time>
      </trkpt>
      <trkpt lat="48.38528" lon="7.26048">
        <ele>992</ele>
        <time>2020-06-24T09:26:33.161Z</time>
      </trkpt>
      <trkpt lat="48.3853" lon="7.26048">
        <ele>992</ele>
        <time>2020-06-24T09:26:34.162Z</time>
      </trkpt>
      <trkpt lat="48.38531" lon="7.26048">
        <ele>992</ele>
        <time>2020-06-24T09:26:35.162Z</time>
      </trkpt>
      <trkpt lat="48.38533" lon="7.26047">
        <ele>992</ele>
        <time>2020-06-24T09:26:36.161Z</time>
      </trkpt>
      <trkpt lat="48.38534" lon="7.26047">
        <ele>992</ele>
        <time>2020-06-24T09:26:37.162Z</time>
      </trkpt>
      <trkpt lat="48.38536" lon="7.26048">
        <ele>991</ele>
        <time>2020-06-24T09:26:38.161Z</time>
      </trkpt>
      <trkpt lat="48.38537" lon="7.26049">
        <ele>991</ele>
        <time>2020-06-24T09:26:39.162Z</time>
      </trkpt>
      <trkpt lat="48.38539" lon="7.2605">
        <ele>991</ele>
        <time>2020-06-24T09:26:40.161Z</time>
      </trkpt>
      <trkpt lat="48.3854" lon="7.26051">
        <ele>991</ele>
        <time>2020-06-24T09:26:41.161Z</time>
      </trkpt>
      <trkpt lat="48.38542" lon="7.26052">
        <ele>990</ele>
        <time>2020-06-24T09:26:42.162Z</time>
      </trkpt>
      <trkpt lat="48.38543" lon="7.26052">
        <ele>990</ele>
        <time>2020-06-24T09:26:43.161Z</time>
      </trkpt>
      <trkpt lat="48.38545" lon="7.26052">
        <ele>990</ele>
        <time>2020-06-24T09:26:44.161Z</time>
      </trkpt>
      <trkpt lat="48.38546" lon="7.26053">
        <ele>990</ele>
        <time>2020-06-24T09:26:45.162Z</time>
      </trkpt>
      <trkpt lat="48.38548" lon="7.26054">
        <ele>990</ele>
        <time>2020-06-24T09:26:46.162Z</time>
      </trkpt>
      <trkpt lat="48.38549" lon="7.26055">
        <ele>990</ele>
        <time>2020-06-24T09:26:47.162Z</time>
      </trkpt>
      <trkpt lat="48.3855" lon="7.26056">
        <ele>990</ele>
        <time>2020-06-24T09:26:48.161Z</time>
      </trkpt>
      <trkpt lat="48.38551" lon="7.26056">
        <ele>990</ele>
        <time>2020-06-24T09:26:49.162Z</time>
      </trkpt>
      <trkpt lat="48.38553" lon="7.26057">
        <ele>990</ele>
        <time>2020-06-24T09:26:50.162Z</time>
      </trkpt>
      <trkpt lat="48.38554" lon="7.26058">
        <ele>990</ele>
        <time>2020-06-24T09:26:51.162Z</time>
      </trkpt>
      <trkpt lat="48.38556" lon="7.26058">
        <ele>990</ele>
        <time>2020-06-24T09:26:52.161Z</time>
      </trkpt>
      <trkpt lat="48.38557" lon="7.26059">
        <ele>990</ele>
        <time>2020-06-24T09:26:53.162Z</time>
      </trkpt>
      <trkpt lat="48.38559" lon="7.2606">
        <ele>990</ele>
        <time>2020-06-24T09:26:54.162Z</time>
      </trkpt>
      <trkpt lat="48.3856" lon="7.26061">
        <ele>990</ele>
        <time>2020-06-24T09:26:55.162Z</time>
      </trkpt>
      <trkpt lat="48.38561" lon="7.26061">
        <ele>991</ele>
        <time>2020-06-24T09:26:56.162Z</time>
      </trkpt>
      <trkpt lat="48.38563" lon="7.26062">
        <ele>991</ele>
        <time>2020-06-24T09:26:57.162Z</time>
      </trkpt>
      <trkpt lat="48.38564" lon="7.26062">
        <ele>991</ele>
        <time>2020-06-24T09:26:58.161Z</time>
      </trkpt>
      <trkpt lat="48.38565" lon="7.26062">
        <ele>991</ele>
        <time>2020-06-24T09:26:59.162Z</time>
      </trkpt>
      <trkpt lat="48.38567" lon="7.26063">
        <ele>992</ele>
        <time>2020-06-24T09:27:00.162Z</time>
      </trkpt>
      <trkpt lat="48.38568" lon="7.26063">
        <ele>993</ele>
        <time>2020-06-24T09:27:01.162Z</time>
      </trkpt>
      <trkpt lat="48.38569" lon="7.26064">
        <ele>994</ele>
        <time>2020-06-24T09:27:02.162Z</time>
      </trkpt>
      <trkpt lat="48.3857" lon="7.26065">
        <ele>994</ele>
        <time>2020-06-24T09:27:03.162Z</time>
      </trkpt>
      <trkpt lat="48.38572" lon="7.26066">
        <ele>995</ele>
        <time>2020-06-24T09:27:04.161Z</time>
      </trkpt>
      <trkpt lat="48.38574" lon="7.26068">
        <ele>995</ele>
        <time>2020-06-24T09:27:05.161Z</time>
      </trkpt>
      <trkpt lat="48.38576" lon="7.26069">
        <ele>995</ele>
        <time>2020-06-24T09:27:06.162Z</time>
      </trkpt>
      <trkpt lat="48.38578" lon="7.26069">
        <ele>995</ele>
        <time>2020-06-24T09:27:07.162Z</time>
      </trkpt>
      <trkpt lat="48.38579" lon="7.2607">
        <ele>995</ele>
        <time>2020-06-24T09:27:08.162Z</time>
      </trkpt>
      <trkpt lat="48.38581" lon="7.26073">
        <ele>996</ele>
        <time>2020-06-24T09:27:09.161Z</time>
      </trkpt>
      <trkpt lat="48.38582" lon="7.26075">
        <ele>995</ele>
        <time>2020-06-24T09:27:10.162Z</time>
      </trkpt>
      <trkpt lat="48.38584" lon="7.26077">
        <ele>995</ele>
        <time>2020-06-24T09:27:11.162Z</time>
      </trkpt>
      <trkpt lat="48.38586" lon="7.26079">
        <ele>995</ele>
        <time>2020-06-24T09:27:12.162Z</time>
      </trkpt>
      <trkpt lat="48.38587" lon="7.2608">
        <ele>995</ele>
        <time>2020-06-24T09:27:13.162Z</time>
      </trkpt>
      <trkpt lat="48.38589" lon="7.26081">
        <ele>995</ele>
        <time>2020-06-24T09:27:14.162Z</time>
      </trkpt>
      <trkpt lat="48.3859" lon="7.26082">
        <ele>995</ele>
        <time>2020-06-24T09:27:15.162Z</time>
      </trkpt>
      <trkpt lat="48.38591" lon="7.26084">
        <ele>995</ele>
        <time>2020-06-24T09:27:16.162Z</time>
      </trkpt>
      <trkpt lat="48.38593" lon="7.26085">
        <ele>995</ele>
        <time>2020-06-24T09:27:17.162Z</time>
      </trkpt>
      <trkpt lat="48.38594" lon="7.26086">
        <ele>995</ele>
        <time>2020-06-24T09:27:18.161Z</time>
      </trkpt>
      <trkpt lat="48.38596" lon="7.26088">
        <ele>995</ele>
        <time>2020-06-24T09:27:19.162Z</time>
      </trkpt>
      <trkpt lat="48.38597" lon="7.2609">
        <ele>994</ele>
        <time>2020-06-24T09:27:20.162Z</time>
      </trkpt>
      <trkpt lat="48.38599" lon="7.26092">
        <ele>994</ele>
        <time>2020-06-24T09:27:21.162Z</time>
      </trkpt>
      <trkpt lat="48.386" lon="7.26093">
        <ele>994</ele>
        <time>2020-06-24T09:27:22.162Z</time>
      </trkpt>
      <trkpt lat="48.38602" lon="7.26094">
        <ele>994</ele>
        <time>2020-06-24T09:27:23.161Z</time>
      </trkpt>
      <trkpt lat="48.38604" lon="7.26095">
        <ele>993</ele>
        <time>2020-06-24T09:27:24.162Z</time>
      </trkpt>
      <trkpt lat="48.38605" lon="7.26096">
        <ele>993</ele>
        <time>2020-06-24T09:27:25.161Z</time>
      </trkpt>
      <trkpt lat="48.38607" lon="7.26098">
        <ele>993</ele>
        <time>2020-06-24T09:27:26.162Z</time>
      </trkpt>
      <trkpt lat="48.38608" lon="7.26099">
        <ele>993</ele>
        <time>2020-06-24T09:27:27.161Z</time>
      </trkpt>
      <trkpt lat="48.38609" lon="7.26101">
        <ele>992</ele>
        <time>2020-06-24T09:27:28.161Z</time>
      </trkpt>
      <trkpt lat="48.38611" lon="7.26103">
        <ele>992</ele>
        <time>2020-06-24T09:27:29.162Z</time>
      </trkpt>
      <trkpt lat="48.38612" lon="7.26106">
        <ele>992</ele>
        <time>2020-06-24T09:27:30.162Z</time>
      </trkpt>
      <trkpt lat="48.38612" lon="7.26108">
        <ele>992</ele>
        <time>2020-06-24T09:27:31.162Z</time>
      </trkpt>
      <trkpt lat="48.38614" lon="7.2611">
        <ele>993</ele>
        <time>2020-06-24T09:27:32.162Z</time>
      </trkpt>
      <trkpt lat="48.38614" lon="7.26112">
        <ele>993</ele>
        <time>2020-06-24T09:27:33.162Z</time>
      </trkpt>
      <trkpt lat="48.38615" lon="7.26114">
        <ele>993</ele>
        <time>2020-06-24T09:27:34.161Z</time>
      </trkpt>
      <trkpt lat="48.38616" lon="7.26115">
        <ele>992</ele>
        <time>2020-06-24T09:27:35.162Z</time>
      </trkpt>
      <trkpt lat="48.38617" lon="7.26117">
        <ele>992</ele>
        <time>2020-06-24T09:27:36.162Z</time>
      </trkpt>
      <trkpt lat="48.38618" lon="7.26118">
        <ele>993</ele>
        <time>2020-06-24T09:27:37.162Z</time>
      </trkpt>
      <trkpt lat="48.38619" lon="7.2612">
        <ele>993</ele>
        <time>2020-06-24T09:27:38.161Z</time>
      </trkpt>
      <trkpt lat="48.3862" lon="7.26122">
        <ele>993</ele>
        <time>2020-06-24T09:27:39.162Z</time>
      </trkpt>
      <trkpt lat="48.38621" lon="7.26124">
        <ele>993</ele>
        <time>2020-06-24T09:27:40.162Z</time>
      </trkpt>
      <trkpt lat="48.38622" lon="7.26125">
        <ele>993</ele>
        <time>2020-06-24T09:27:41.162Z</time>
      </trkpt>
      <trkpt lat="48.38623" lon="7.26127">
        <ele>993</ele>
        <time>2020-06-24T09:27:42.162Z</time>
      </trkpt>
      <trkpt lat="48.38624" lon="7.26129">
        <ele>994</ele>
        <time>2020-06-24T09:27:43.162Z</time>
      </trkpt>
      <trkpt lat="48.38625" lon="7.26131">
        <ele>994</ele>
        <time>2020-06-24T09:27:44.162Z</time>
      </trkpt>
      <trkpt lat="48.38626" lon="7.26133">
        <ele>994</ele>
        <time>2020-06-24T09:27:45.162Z</time>
      </trkpt>
      <trkpt lat="48.38627" lon="7.26135">
        <ele>995</ele>
        <time>2020-06-24T09:27:46.162Z</time>
      </trkpt>
      <trkpt lat="48.38627" lon="7.26137">
        <ele>995</ele>
        <time>2020-06-24T09:27:47.161Z</time>
      </trkpt>
      <trkpt lat="48.38628" lon="7.26138">
        <ele>995</ele>
        <time>2020-06-24T09:27:48.161Z</time>
      </trkpt>
      <trkpt lat="48.38629" lon="7.26139">
        <ele>995</ele>
        <time>2020-06-24T09:27:49.162Z</time>
      </trkpt>
      <trkpt lat="48.3863" lon="7.26141">
        <ele>995</ele>
        <time>2020-06-24T09:27:50.162Z</time>
      </trkpt>
      <trkpt lat="48.38631" lon="7.26143">
        <ele>994</ele>
        <time>2020-06-24T09:27:51.161Z</time>
      </trkpt>
      <trkpt lat="48.38633" lon="7.26145">
        <ele>994</ele>
        <time>2020-06-24T09:27:52.162Z</time>
      </trkpt>
      <trkpt lat="48.38634" lon="7.26147">
        <ele>994</ele>
        <time>2020-06-24T09:27:53.162Z</time>
      </trkpt>
      <trkpt lat="48.38636" lon="7.26149">
        <ele>993</ele>
        <time>2020-06-24T09:27:54.162Z</time>
      </trkpt>
      <trkpt lat="48.38637" lon="7.26151">
        <ele>992</ele>
        <time>2020-06-24T09:27:55.162Z</time>
      </trkpt>
      <trkpt lat="48.38638" lon="7.26153">
        <ele>992</ele>
        <time>2020-06-24T09:27:56.162Z</time>
      </trkpt>
      <trkpt lat="48.3864" lon="7.26155">
        <ele>992</ele>
        <time>2020-06-24T09:27:57.161Z</time>
      </trkpt>
      <trkpt lat="48.38641" lon="7.26156">
        <ele>992</ele>
        <time>2020-06-24T09:27:58.161Z</time>
      </trkpt>
      <trkpt lat="48.38642" lon="7.26158">
        <ele>991</ele>
        <time>2020-06-24T09:27:59.162Z</time>
      </trkpt>
      <trkpt lat="48.38643" lon="7.26159">
        <ele>991</ele>
        <time>2020-06-24T09:28:00.161Z</time>
      </trkpt>
      <trkpt lat="48.38644" lon="7.26162">
        <ele>990</ele>
        <time>2020-06-24T09:28:01.162Z</time>
      </trkpt>
      <trkpt lat="48.38646" lon="7.26164">
        <ele>990</ele>
        <time>2020-06-24T09:28:02.162Z</time>
      </trkpt>
      <trkpt lat="48.38647" lon="7.26166">
        <ele>990</ele>
        <time>2020-06-24T09:28:03.162Z</time>
      </trkpt>
      <trkpt lat="48.38647" lon="7.26168">
        <ele>990</ele>
        <time>2020-06-24T09:28:04.161Z</time>
      </trkpt>
      <trkpt lat="48.38648" lon="7.2617">
        <ele>990</ele>
        <time>2020-06-24T09:28:05.162Z</time>
      </trkpt>
      <trkpt lat="48.38648" lon="7.26172">
        <ele>990</ele>
        <time>2020-06-24T09:28:06.162Z</time>
      </trkpt>
      <trkpt lat="48.38649" lon="7.26174">
        <ele>990</ele>
        <time>2020-06-24T09:28:07.162Z</time>
      </trkpt>
      <trkpt lat="48.38649" lon="7.26175">
        <ele>990</ele>
        <time>2020-06-24T09:28:08.162Z</time>
      </trkpt>
      <trkpt lat="48.3865" lon="7.26177">
        <ele>990</ele>
        <time>2020-06-24T09:28:09.161Z</time>
      </trkpt>
      <trkpt lat="48.38651" lon="7.26179">
        <ele>990</ele>
        <time>2020-06-24T09:28:10.162Z</time>
      </trkpt>
      <trkpt lat="48.38653" lon="7.2618">
        <ele>990</ele>
        <time>2020-06-24T09:28:11.161Z</time>
      </trkpt>
      <trkpt lat="48.38653" lon="7.26182">
        <ele>990</ele>
        <time>2020-06-24T09:28:12.161Z</time>
      </trkpt>
      <trkpt lat="48.38654" lon="7.26184">
        <ele>991</ele>
        <time>2020-06-24T09:28:13.161Z</time>
      </trkpt>
      <trkpt lat="48.38655" lon="7.26186">
        <ele>991</ele>
        <time>2020-06-24T09:28:14.162Z</time>
      </trkpt>
      <trkpt lat="48.38655" lon="7.26188">
        <ele>992</ele>
        <time>2020-06-24T09:28:15.162Z</time>
      </trkpt>
      <trkpt lat="48.38656" lon="7.26189">
        <ele>992</ele>
        <time>2020-06-24T09:28:16.162Z</time>
      </trkpt>
      <trkpt lat="48.38657" lon="7.26191">
        <ele>992</ele>
        <time>2020-06-24T09:28:17.161Z</time>
      </trkpt>
      <trkpt lat="48.38658" lon="7.26193">
        <ele>992</ele>
        <time>2020-06-24T09:28:18.161Z</time>
      </trkpt>
      <trkpt lat="48.38659" lon="7.26195">
        <ele>993</ele>
        <time>2020-06-24T09:28:19.161Z</time>
      </trkpt>
      <trkpt lat="48.3866" lon="7.26197">
        <ele>993</ele>
        <time>2020-06-24T09:28:20.161Z</time>
      </trkpt>
      <trkpt lat="48.3866" lon="7.26199">
        <ele>994</ele>
        <time>2020-06-24T09:28:21.161Z</time>
      </trkpt>
      <trkpt lat="48.38661" lon="7.26201">
        <ele>994</ele>
        <time>2020-06-24T09:28:22.162Z</time>
      </trkpt>
      <trkpt lat="48.38662" lon="7.26203">
        <ele>994</ele>
        <time>2020-06-24T09:28:23.161Z</time>
      </trkpt>
      <trkpt lat="48.38663" lon="7.26205">
        <ele>995</ele>
        <time>2020-06-24T09:28:24.161Z</time>
      </trkpt>
      <trkpt lat="48.38663" lon="7.26207">
        <ele>995</ele>
        <time>2020-06-24T09:28:25.162Z</time>
      </trkpt>
      <trkpt lat="48.38664" lon="7.26209">
        <ele>996</ele>
        <time>2020-06-24T09:28:26.162Z</time>
      </trkpt>
      <trkpt lat="48.38664" lon="7.26212">
        <ele>996</ele>
        <time>2020-06-24T09:28:27.161Z</time>
      </trkpt>
      <trkpt lat="48.38665" lon="7.26213">
        <ele>997</ele>
        <time>2020-06-24T09:28:28.161Z</time>
      </trkpt>
      <trkpt lat="48.38665" lon="7.26215">
        <ele>997</ele>
        <time>2020-06-24T09:28:29.161Z</time>
      </trkpt>
      <trkpt lat="48.38666" lon="7.26218">
        <ele>997</ele>
        <time>2020-06-24T09:28:30.162Z</time>
      </trkpt>
      <trkpt lat="48.38668" lon="7.26221">
        <ele>997</ele>
        <time>2020-06-24T09:28:31.162Z</time>
      </trkpt>
      <trkpt lat="48.38669" lon="7.26224">
        <ele>997</ele>
        <time>2020-06-24T09:28:32.161Z</time>
      </trkpt>
      <trkpt lat="48.38669" lon="7.26226">
        <ele>998</ele>
        <time>2020-06-24T09:28:33.162Z</time>
      </trkpt>
      <trkpt lat="48.3867" lon="7.26228">
        <ele>998</ele>
        <time>2020-06-24T09:28:34.161Z</time>
      </trkpt>
      <trkpt lat="48.3867" lon="7.2623">
        <ele>998</ele>
        <time>2020-06-24T09:28:35.161Z</time>
      </trkpt>
      <trkpt lat="48.38671" lon="7.26232">
        <ele>998</ele>
        <time>2020-06-24T09:28:36.161Z</time>
      </trkpt>
      <trkpt lat="48.38671" lon="7.26235">
        <ele>998</ele>
        <time>2020-06-24T09:28:37.161Z</time>
      </trkpt>
      <trkpt lat="48.38671" lon="7.26237">
        <ele>997</ele>
        <time>2020-06-24T09:28:38.161Z</time>
      </trkpt>
      <trkpt lat="48.38672" lon="7.26239">
        <ele>997</ele>
        <time>2020-06-24T09:28:39.162Z</time>
      </trkpt>
      <trkpt lat="48.38673" lon="7.26242">
        <ele>997</ele>
        <time>2020-06-24T09:28:40.162Z</time>
      </trkpt>
      <trkpt lat="48.38673" lon="7.26244">
        <ele>997</ele>
        <time>2020-06-24T09:28:41.162Z</time>
      </trkpt>
      <trkpt lat="48.38674" lon="7.26246">
        <ele>997</ele>
        <time>2020-06-24T09:28:42.162Z</time>
      </trkpt>
      <trkpt lat="48.38674" lon="7.26248">
        <ele>997</ele>
        <time>2020-06-24T09:28:43.161Z</time>
      </trkpt>
      <trkpt lat="48.38675" lon="7.2625">
        <ele>998</ele>
        <time>2020-06-24T09:28:44.162Z</time>
      </trkpt>
      <trkpt lat="48.38676" lon="7.26253">
        <ele>998</ele>
        <time>2020-06-24T09:28:45.161Z</time>
      </trkpt>
      <trkpt lat="48.38676" lon="7.26255">
        <ele>998</ele>
        <time>2020-06-24T09:28:46.162Z</time>
      </trkpt>
      <trkpt lat="48.38677" lon="7.26256">
        <ele>999</ele>
        <time>2020-06-24T09:28:47.162Z</time>
      </trkpt>
      <trkpt lat="48.38678" lon="7.26259">
        <ele>999</ele>
        <time>2020-06-24T09:28:48.162Z</time>
      </trkpt>
      <trkpt lat="48.38678" lon="7.26261">
        <ele>1000</ele>
        <time>2020-06-24T09:28:49.161Z</time>
      </trkpt>
      <trkpt lat="48.38679" lon="7.26264">
        <ele>1000</ele>
        <time>2020-06-24T09:28:50.161Z</time>
      </trkpt>
      <trkpt lat="48.3868" lon="7.26266">
        <ele>1000</ele>
        <time>2020-06-24T09:28:51.162Z</time>
      </trkpt>
      <trkpt lat="48.38681" lon="7.26268">
        <ele>1001</ele>
        <time>2020-06-24T09:28:52.161Z</time>
      </trkpt>
      <trkpt lat="48.38683" lon="7.2627">
        <ele>1001</ele>
        <time>2020-06-24T09:28:53.162Z</time>
      </trkpt>
      <trkpt lat="48.38683" lon="7.26272">
        <ele>1001</ele>
        <time>2020-06-24T09:28:54.162Z</time>
      </trkpt>
      <trkpt lat="48.38684" lon="7.26275">
        <ele>1001</ele>
        <time>2020-06-24T09:28:55.162Z</time>
      </trkpt>
      <trkpt lat="48.38685" lon="7.26278">
        <ele>1001</ele>
        <time>2020-06-24T09:28:56.161Z</time>
      </trkpt>
      <trkpt lat="48.38685" lon="7.2628">
        <ele>1001</ele>
        <time>2020-06-24T09:28:57.162Z</time>
      </trkpt>
      <trkpt lat="48.38686" lon="7.26282">
        <ele>1001</ele>
        <time>2020-06-24T09:28:58.161Z</time>
      </trkpt>
      <trkpt lat="48.38687" lon="7.26284">
        <ele>1001</ele>
        <time>2020-06-24T09:28:59.161Z</time>
      </trkpt>
      <trkpt lat="48.38687" lon="7.26286">
        <ele>1002</ele>
        <time>2020-06-24T09:29:00.162Z</time>
      </trkpt>
      <trkpt lat="48.38688" lon="7.26287">
        <ele>1002</ele>
        <time>2020-06-24T09:29:01.161Z</time>
      </trkpt>
      <trkpt lat="48.38688" lon="7.2629">
        <ele>1002</ele>
        <time>2020-06-24T09:29:02.162Z</time>
      </trkpt>
      <trkpt lat="48.38689" lon="7.26291">
        <ele>1002</ele>
        <time>2020-06-24T09:29:03.162Z</time>
      </trkpt>
      <trkpt lat="48.3869" lon="7.26293">
        <ele>1002</ele>
        <time>2020-06-24T09:29:04.162Z</time>
      </trkpt>
      <trkpt lat="48.3869" lon="7.26295">
        <ele>1002</ele>
        <time>2020-06-24T09:29:05.161Z</time>
      </trkpt>
      <trkpt lat="48.38691" lon="7.26296">
        <ele>1002</ele>
        <time>2020-06-24T09:29:06.161Z</time>
      </trkpt>
      <trkpt lat="48.38691" lon="7.26299">
        <ele>1002</ele>
        <time>2020-06-24T09:29:07.162Z</time>
      </trkpt>
      <trkpt lat="48.38692" lon="7.26301">
        <ele>1002</ele>
        <time>2020-06-24T09:29:08.161Z</time>
      </trkpt>
      <trkpt lat="48.38693" lon="7.26304">
        <ele>1003</ele>
        <time>2020-06-24T09:29:09.162Z</time>
      </trkpt>
      <trkpt lat="48.38693" lon="7.26308">
        <ele>1003</ele>
        <time>2020-06-24T09:29:10.161Z</time>
      </trkpt>
      <trkpt lat="48.38694" lon="7.2631">
        <ele>1003</ele>
        <time>2020-06-24T09:29:11.162Z</time>
      </trkpt>
      <trkpt lat="48.38695" lon="7.26312">
        <ele>1003</ele>
        <time>2020-06-24T09:29:12.162Z</time>
      </trkpt>
      <trkpt lat="48.38697" lon="7.26315">
        <ele>1004</ele>
        <time>2020-06-24T09:29:13.162Z</time>
      </trkpt>
      <trkpt lat="48.38697" lon="7.26317">
        <ele>1004</ele>
        <time>2020-06-24T09:29:14.162Z</time>
      </trkpt>
      <trkpt lat="48.38698" lon="7.26319">
        <ele>1004</ele>
        <time>2020-06-24T09:29:15.161Z</time>
      </trkpt>
      <trkpt lat="48.38698" lon="7.26321">
        <ele>1005</ele>
        <time>2020-06-24T09:29:16.161Z</time>
      </trkpt>
      <trkpt lat="48.38699" lon="7.26323">
        <ele>1005</ele>
        <time>2020-06-24T09:29:17.162Z</time>
      </trkpt>
      <trkpt lat="48.38699" lon="7.26326">
        <ele>1005</ele>
        <time>2020-06-24T09:29:18.162Z</time>
      </trkpt>
      <trkpt lat="48.387" lon="7.26327">
        <ele>1005</ele>
        <time>2020-06-24T09:29:19.162Z</time>
      </trkpt>
      <trkpt lat="48.38701" lon="7.26329">
        <ele>1005</ele>
        <time>2020-06-24T09:29:20.162Z</time>
      </trkpt>
      <trkpt lat="48.38702" lon="7.2633">
        <ele>1005</ele>
        <time>2020-06-24T09:29:21.162Z</time>
      </trkpt>
      <trkpt lat="48.38703" lon="7.26332">
        <ele>1005</ele>
        <time>2020-06-24T09:29:22.162Z</time>
      </trkpt>
      <trkpt lat="48.38703" lon="7.26334">
        <ele>1005</ele>
        <time>2020-06-24T09:29:23.162Z</time>
      </trkpt>
      <trkpt lat="48.38704" lon="7.26335">
        <ele>1005</ele>
        <time>2020-06-24T09:29:24.162Z</time>
      </trkpt>
      <trkpt lat="48.38704" lon="7.26338">
        <ele>1005</ele>
        <time>2020-06-24T09:29:25.162Z</time>
      </trkpt>
      <trkpt lat="48.38704" lon="7.2634">
        <ele>1005</ele>
        <time>2020-06-24T09:29:26.162Z</time>
      </trkpt>
      <trkpt lat="48.38705" lon="7.26342">
        <ele>1006</ele>
        <time>2020-06-24T09:29:27.162Z</time>
      </trkpt>
      <trkpt lat="48.38706" lon="7.26345">
        <ele>1006</ele>
        <time>2020-06-24T09:29:28.162Z</time>
      </trkpt>
      <trkpt lat="48.38706" lon="7.26347">
        <ele>1006</ele>
        <time>2020-06-24T09:29:29.162Z</time>
      </trkpt>
      <trkpt lat="48.38707" lon="7.26349">
        <ele>1006</ele>
        <time>2020-06-24T09:29:30.162Z</time>
      </trkpt>
      <trkpt lat="48.38708" lon="7.26351">
        <ele>1006</ele>
        <time>2020-06-24T09:29:31.162Z</time>
      </trkpt>
      <trkpt lat="48.38708" lon="7.26353">
        <ele>1006</ele>
        <time>2020-06-24T09:29:32.162Z</time>
      </trkpt>
      <trkpt lat="48.38708" lon="7.26354">
        <ele>1006</ele>
        <time>2020-06-24T09:29:33.162Z</time>
      </trkpt>
      <trkpt lat="48.38708" lon="7.26356">
        <ele>1006</ele>
        <time>2020-06-24T09:29:34.161Z</time>
      </trkpt>
      <trkpt lat="48.38708" lon="7.26358">
        <ele>1006</ele>
        <time>2020-06-24T09:29:35.162Z</time>
      </trkpt>
      <trkpt lat="48.38708" lon="7.2636">
        <ele>1006</ele>
        <time>2020-06-24T09:29:36.162Z</time>
      </trkpt>
      <trkpt lat="48.38708" lon="7.26362">
        <ele>1007</ele>
        <time>2020-06-24T09:29:37.162Z</time>
      </trkpt>
      <trkpt lat="48.38708" lon="7.26365">
        <ele>1007</ele>
        <time>2020-06-24T09:29:38.162Z</time>
      </trkpt>
      <trkpt lat="48.38709" lon="7.26367">
        <ele>1007</ele>
        <time>2020-06-24T09:29:39.161Z</time>
      </trkpt>
      <trkpt lat="48.38709" lon="7.26371">
        <ele>1008</ele>
        <time>2020-06-24T09:29:40.162Z</time>
      </trkpt>
      <trkpt lat="48.38709" lon="7.26374">
        <ele>1008</ele>
        <time>2020-06-24T09:29:41.161Z</time>
      </trkpt>
      <trkpt lat="48.3871" lon="7.26377">
        <ele>1008</ele>
        <time>2020-06-24T09:29:42.161Z</time>
      </trkpt>
      <trkpt lat="48.38709" lon="7.26379">
        <ele>1008</ele>
        <time>2020-06-24T09:29:43.162Z</time>
      </trkpt>
      <trkpt lat="48.3871" lon="7.26382">
        <ele>1009</ele>
        <time>2020-06-24T09:29:44.162Z</time>
      </trkpt>
      <trkpt lat="48.3871" lon="7.26384">
        <ele>1009</ele>
        <time>2020-06-24T09:29:45.162Z</time>
      </trkpt>
      <trkpt lat="48.3871" lon="7.26386">
        <ele>1009</ele>
        <time>2020-06-24T09:29:46.162Z</time>
      </trkpt>
      <trkpt lat="48.3871" lon="7.26389">
        <ele>1009</ele>
        <time>2020-06-24T09:29:47.162Z</time>
      </trkpt>
      <trkpt lat="48.3871" lon="7.26392">
        <ele>1009</ele>
        <time>2020-06-24T09:29:48.162Z</time>
      </trkpt>
      <trkpt lat="48.3871" lon="7.26394">
        <ele>1009</ele>
        <time>2020-06-24T09:29:49.162Z</time>
      </trkpt>
      <trkpt lat="48.3871" lon="7.26397">
        <ele>1009</ele>
        <time>2020-06-24T09:29:50.162Z</time>
      </trkpt>
      <trkpt lat="48.3871" lon="7.26399">
        <ele>1009</ele>
        <time>2020-06-24T09:29:51.162Z</time>
      </trkpt>
      <trkpt lat="48.3871" lon="7.26401">
        <ele>1009</ele>
        <time>2020-06-24T09:29:52.162Z</time>
      </trkpt>
      <trkpt lat="48.3871" lon="7.26403">
        <ele>1009</ele>
        <time>2020-06-24T09:29:53.162Z</time>
      </trkpt>
      <trkpt lat="48.3871" lon="7.26404">
        <ele>1009</ele>
        <time>2020-06-24T09:29:54.162Z</time>
      </trkpt>
      <trkpt lat="48.3871" lon="7.26406">
        <ele>1009</ele>
        <time>2020-06-24T09:29:55.161Z</time>
      </trkpt>
      <trkpt lat="48.3871" lon="7.26408">
        <ele>1009</ele>
        <time>2020-06-24T09:29:56.161Z</time>
      </trkpt>
      <trkpt lat="48.38711" lon="7.26409">
        <ele>1009</ele>
        <time>2020-06-24T09:29:57.162Z</time>
      </trkpt>
      <trkpt lat="48.38712" lon="7.2641">
        <ele>1010</ele>
        <time>2020-06-24T09:29:58.162Z</time>
      </trkpt>
      <trkpt lat="48.38712" lon="7.26413">
        <ele>1010</ele>
        <time>2020-06-24T09:29:59.162Z</time>
      </trkpt>
      <trkpt lat="48.38711" lon="7.26416">
        <ele>1010</ele>
        <time>2020-06-24T09:30:00.162Z</time>
      </trkpt>
      <trkpt lat="48.38711" lon="7.26418">
        <ele>1010</ele>
        <time>2020-06-24T09:30:01.162Z</time>
      </trkpt>
      <trkpt lat="48.38711" lon="7.26421">
        <ele>1011</ele>
        <time>2020-06-24T09:30:02.161Z</time>
      </trkpt>
      <trkpt lat="48.38711" lon="7.26424">
        <ele>1011</ele>
        <time>2020-06-24T09:30:03.161Z</time>
      </trkpt>
      <trkpt lat="48.3871" lon="7.26426">
        <ele>1011</ele>
        <time>2020-06-24T09:30:04.161Z</time>
      </trkpt>
      <trkpt lat="48.3871" lon="7.2643">
        <ele>1012</ele>
        <time>2020-06-24T09:30:05.161Z</time>
      </trkpt>
      <trkpt lat="48.3871" lon="7.26433">
        <ele>1012</ele>
        <time>2020-06-24T09:30:06.161Z</time>
      </trkpt>
      <trkpt lat="48.38711" lon="7.26435">
        <ele>1012</ele>
        <time>2020-06-24T09:30:07.162Z</time>
      </trkpt>
      <trkpt lat="48.38711" lon="7.26437">
        <ele>1012</ele>
        <time>2020-06-24T09:30:08.162Z</time>
      </trkpt>
      <trkpt lat="48.38711" lon="7.26439">
        <ele>1012</ele>
        <time>2020-06-24T09:30:09.162Z</time>
      </trkpt>
      <trkpt lat="48.3871" lon="7.26441">
        <ele>1012</ele>
        <time>2020-06-24T09:30:10.161Z</time>
      </trkpt>
      <trkpt lat="48.3871" lon="7.26443">
        <ele>1012</ele>
        <time>2020-06-24T09:30:11.161Z</time>
      </trkpt>
      <trkpt lat="48.38709" lon="7.26445">
        <ele>1012</ele>
        <time>2020-06-24T09:30:12.161Z</time>
      </trkpt>
      <trkpt lat="48.38709" lon="7.26449">
        <ele>1012</ele>
        <time>2020-06-24T09:30:13.162Z</time>
      </trkpt>
      <trkpt lat="48.38708" lon="7.26451">
        <ele>1013</ele>
        <time>2020-06-24T09:30:14.161Z</time>
      </trkpt>
      <trkpt lat="48.38708" lon="7.26454">
        <ele>1013</ele>
        <time>2020-06-24T09:30:15.161Z</time>
      </trkpt>
      <trkpt lat="48.38708" lon="7.26456">
        <ele>1013</ele>
        <time>2020-06-24T09:30:16.162Z</time>
      </trkpt>
      <trkpt lat="48.38708" lon="7.26458">
        <ele>1013</ele>
        <time>2020-06-24T09:30:17.162Z</time>
      </trkpt>
      <trkpt lat="48.38708" lon="7.26461">
        <ele>1012</ele>
        <time>2020-06-24T09:30:18.162Z</time>
      </trkpt>
      <trkpt lat="48.38708" lon="7.26463">
        <ele>1012</ele>
        <time>2020-06-24T09:30:19.161Z</time>
      </trkpt>
      <trkpt lat="48.38708" lon="7.26465">
        <ele>1012</ele>
        <time>2020-06-24T09:30:20.162Z</time>
      </trkpt>
      <trkpt lat="48.38708" lon="7.26467">
        <ele>1012</ele>
        <time>2020-06-24T09:30:21.161Z</time>
      </trkpt>
      <trkpt lat="48.38707" lon="7.26469">
        <ele>1012</ele>
        <time>2020-06-24T09:30:22.161Z</time>
      </trkpt>
      <trkpt lat="48.38708" lon="7.2647">
        <ele>1012</ele>
        <time>2020-06-24T09:30:23.162Z</time>
      </trkpt>
      <trkpt lat="48.38708" lon="7.26471">
        <ele>1012</ele>
        <time>2020-06-24T09:30:24.162Z</time>
      </trkpt>
      <trkpt lat="48.38708" lon="7.26473">
        <ele>1013</ele>
        <time>2020-06-24T09:30:25.162Z</time>
      </trkpt>
      <trkpt lat="48.38707" lon="7.26476">
        <ele>1013</ele>
        <time>2020-06-24T09:30:26.161Z</time>
      </trkpt>
      <trkpt lat="48.38707" lon="7.26479">
        <ele>1014</ele>
        <time>2020-06-24T09:30:27.161Z</time>
      </trkpt>
      <trkpt lat="48.38708" lon="7.26483">
        <ele>1014</ele>
        <time>2020-06-24T09:30:28.162Z</time>
      </trkpt>
      <trkpt lat="48.38707" lon="7.26486">
        <ele>1015</ele>
        <time>2020-06-24T09:30:29.162Z</time>
      </trkpt>
      <trkpt lat="48.38707" lon="7.2649">
        <ele>1016</ele>
        <time>2020-06-24T09:30:30.161Z</time>
      </trkpt>
      <trkpt lat="48.38707" lon="7.26494">
        <ele>1016</ele>
        <time>2020-06-24T09:30:31.162Z</time>
      </trkpt>
      <trkpt lat="48.38707" lon="7.26497">
        <ele>1017</ele>
        <time>2020-06-24T09:30:32.161Z</time>
      </trkpt>
      <trkpt lat="48.38707" lon="7.265">
        <ele>1018</ele>
        <time>2020-06-24T09:30:33.162Z</time>
      </trkpt>
      <trkpt lat="48.38707" lon="7.26503">
        <ele>1019</ele>
        <time>2020-06-24T09:30:34.162Z</time>
      </trkpt>
      <trkpt lat="48.38706" lon="7.26507">
        <ele>1019</ele>
        <time>2020-06-24T09:30:35.162Z</time>
      </trkpt>
      <trkpt lat="48.38706" lon="7.26509">
        <ele>1020</ele>
        <time>2020-06-24T09:30:36.162Z</time>
      </trkpt>
      <trkpt lat="48.38706" lon="7.26512">
        <ele>1021</ele>
        <time>2020-06-24T09:30:37.161Z</time>
      </trkpt>
      <trkpt lat="48.38706" lon="7.26515">
        <ele>1022</ele>
        <time>2020-06-24T09:30:38.162Z</time>
      </trkpt>
      <trkpt lat="48.38705" lon="7.26518">
        <ele>1023</ele>
        <time>2020-06-24T09:30:39.161Z</time>
      </trkpt>
      <trkpt lat="48.38705" lon="7.26519">
        <ele>1024</ele>
        <time>2020-06-24T09:30:40.162Z</time>
      </trkpt>
      <trkpt lat="48.38706" lon="7.26522">
        <ele>1025</ele>
        <time>2020-06-24T09:30:41.162Z</time>
      </trkpt>
      <trkpt lat="48.38707" lon="7.26523">
        <ele>1026</ele>
        <time>2020-06-24T09:30:42.161Z</time>
      </trkpt>
      <trkpt lat="48.38707" lon="7.26525">
        <ele>1026</ele>
        <time>2020-06-24T09:30:43.162Z</time>
      </trkpt>
      <trkpt lat="48.38708" lon="7.26529">
        <ele>1027</ele>
        <time>2020-06-24T09:30:44.161Z</time>
      </trkpt>
      <trkpt lat="48.38708" lon="7.26531">
        <ele>1027</ele>
        <time>2020-06-24T09:30:45.162Z</time>
      </trkpt>
      <trkpt lat="48.38708" lon="7.26534">
        <ele>1028</ele>
        <time>2020-06-24T09:30:46.162Z</time>
      </trkpt>
      <trkpt lat="48.38708" lon="7.26536">
        <ele>1029</ele>
        <time>2020-06-24T09:30:47.162Z</time>
      </trkpt>
      <trkpt lat="48.38708" lon="7.26538">
        <ele>1029</ele>
        <time>2020-06-24T09:30:48.162Z</time>
      </trkpt>
      <trkpt lat="48.38708" lon="7.2654">
        <ele>1030</ele>
        <time>2020-06-24T09:30:49.161Z</time>
      </trkpt>
      <trkpt lat="48.38708" lon="7.26542">
        <ele>1031</ele>
        <time>2020-06-24T09:30:50.162Z</time>
      </trkpt>
      <trkpt lat="48.38708" lon="7.26544">
        <ele>1032</ele>
        <time>2020-06-24T09:30:51.162Z</time>
      </trkpt>
      <trkpt lat="48.38707" lon="7.26546">
        <ele>1032</ele>
        <time>2020-06-24T09:30:52.162Z</time>
      </trkpt>
      <trkpt lat="48.38707" lon="7.26547">
        <ele>1033</ele>
        <time>2020-06-24T09:30:53.162Z</time>
      </trkpt>
      <trkpt lat="48.38706" lon="7.26549">
        <ele>1033</ele>
        <time>2020-06-24T09:30:54.162Z</time>
      </trkpt>
      <trkpt lat="48.38706" lon="7.26552">
        <ele>1032</ele>
        <time>2020-06-24T09:30:55.162Z</time>
      </trkpt>
      <trkpt lat="48.38705" lon="7.26555">
        <ele>1032</ele>
        <time>2020-06-24T09:30:56.161Z</time>
      </trkpt>
      <trkpt lat="48.38704" lon="7.26557">
        <ele>1033</ele>
        <time>2020-06-24T09:30:57.162Z</time>
      </trkpt>
      <trkpt lat="48.38704" lon="7.26558">
        <ele>1033</ele>
        <time>2020-06-24T09:30:58.162Z</time>
      </trkpt>
      <trkpt lat="48.38703" lon="7.2656">
        <ele>1033</ele>
        <time>2020-06-24T09:30:59.162Z</time>
      </trkpt>
      <trkpt lat="48.38703" lon="7.26563">
        <ele>1033</ele>
        <time>2020-06-24T09:31:00.161Z</time>
      </trkpt>
      <trkpt lat="48.38702" lon="7.26566">
        <ele>1034</ele>
        <time>2020-06-24T09:31:01.162Z</time>
      </trkpt>
      <trkpt lat="48.38701" lon="7.26568">
        <ele>1034</ele>
        <time>2020-06-24T09:31:02.162Z</time>
      </trkpt>
      <trkpt lat="48.38701" lon="7.26571">
        <ele>1034</ele>
        <time>2020-06-24T09:31:03.162Z</time>
      </trkpt>
      <trkpt lat="48.387" lon="7.26572">
        <ele>1034</ele>
        <time>2020-06-24T09:31:04.161Z</time>
      </trkpt>
      <trkpt lat="48.38698" lon="7.26574">
        <ele>1033</ele>
        <time>2020-06-24T09:31:05.162Z</time>
      </trkpt>
      <trkpt lat="48.38697" lon="7.26577">
        <ele>1033</ele>
        <time>2020-06-24T09:31:06.161Z</time>
      </trkpt>
      <trkpt lat="48.38696" lon="7.26579">
        <ele>1033</ele>
        <time>2020-06-24T09:31:07.162Z</time>
      </trkpt>
      <trkpt lat="48.38695" lon="7.26582">
        <ele>1033</ele>
        <time>2020-06-24T09:31:08.161Z</time>
      </trkpt>
      <trkpt lat="48.38695" lon="7.26585">
        <ele>1033</ele>
        <time>2020-06-24T09:31:09.161Z</time>
      </trkpt>
      <trkpt lat="48.38695" lon="7.26588">
        <ele>1033</ele>
        <time>2020-06-24T09:31:10.161Z</time>
      </trkpt>
      <trkpt lat="48.38694" lon="7.26591">
        <ele>1033</ele>
        <time>2020-06-24T09:31:11.161Z</time>
      </trkpt>
      <trkpt lat="48.38694" lon="7.26593">
        <ele>1033</ele>
        <time>2020-06-24T09:31:12.162Z</time>
      </trkpt>
      <trkpt lat="48.38693" lon="7.26595">
        <ele>1033</ele>
        <time>2020-06-24T09:31:13.162Z</time>
      </trkpt>
      <trkpt lat="48.38691" lon="7.26598">
        <ele>1033</ele>
        <time>2020-06-24T09:31:14.162Z</time>
      </trkpt>
      <trkpt lat="48.38691" lon="7.266">
        <ele>1034</ele>
        <time>2020-06-24T09:31:15.162Z</time>
      </trkpt>
      <trkpt lat="48.3869" lon="7.26602">
        <ele>1034</ele>
        <time>2020-06-24T09:31:16.162Z</time>
      </trkpt>
      <trkpt lat="48.3869" lon="7.26603">
        <ele>1034</ele>
        <time>2020-06-24T09:31:17.162Z</time>
      </trkpt>
      <trkpt lat="48.38689" lon="7.26606">
        <ele>1033</ele>
        <time>2020-06-24T09:31:18.162Z</time>
      </trkpt>
      <trkpt lat="48.38688" lon="7.26608">
        <ele>1033</ele>
        <time>2020-06-24T09:31:19.162Z</time>
      </trkpt>
      <trkpt lat="48.38688" lon="7.2661">
        <ele>1032</ele>
        <time>2020-06-24T09:31:20.162Z</time>
      </trkpt>
      <trkpt lat="48.38687" lon="7.26612">
        <ele>1032</ele>
        <time>2020-06-24T09:31:21.161Z</time>
      </trkpt>
      <trkpt lat="48.38687" lon="7.26615">
        <ele>1031</ele>
        <time>2020-06-24T09:31:22.161Z</time>
      </trkpt>
      <trkpt lat="48.38686" lon="7.26617">
        <ele>1029</ele>
        <time>2020-06-24T09:31:23.162Z</time>
      </trkpt>
      <trkpt lat="48.38686" lon="7.26618">
        <ele>1028</ele>
        <time>2020-06-24T09:31:24.162Z</time>
      </trkpt>
      <trkpt lat="48.38686" lon="7.2662">
        <ele>1027</ele>
        <time>2020-06-24T09:31:25.162Z</time>
      </trkpt>
      <trkpt lat="48.38685" lon="7.26622">
        <ele>1026</ele>
        <time>2020-06-24T09:31:26.161Z</time>
      </trkpt>
      <trkpt lat="48.38685" lon="7.26623">
        <ele>1026</ele>
        <time>2020-06-24T09:31:27.162Z</time>
      </trkpt>
      <trkpt lat="48.38685" lon="7.26625">
        <ele>1025</ele>
        <time>2020-06-24T09:31:28.161Z</time>
      </trkpt>
      <trkpt lat="48.38684" lon="7.26627">
        <ele>1024</ele>
        <time>2020-06-24T09:31:29.162Z</time>
      </trkpt>
      <trkpt lat="48.38684" lon="7.26628">
        <ele>1024</ele>
        <time>2020-06-24T09:31:30.161Z</time>
      </trkpt>
      <trkpt lat="48.38683" lon="7.26631">
        <ele>1023</ele>
        <time>2020-06-24T09:31:31.161Z</time>
      </trkpt>
      <trkpt lat="48.38682" lon="7.26633">
        <ele>1022</ele>
        <time>2020-06-24T09:31:32.161Z</time>
      </trkpt>
      <trkpt lat="48.38681" lon="7.26635">
        <ele>1021</ele>
        <time>2020-06-24T09:31:33.162Z</time>
      </trkpt>
      <trkpt lat="48.38681" lon="7.26636">
        <ele>1019</ele>
        <time>2020-06-24T09:31:34.162Z</time>
      </trkpt>
      <trkpt lat="48.3868" lon="7.26638">
        <ele>1018</ele>
        <time>2020-06-24T09:31:35.162Z</time>
      </trkpt>
      <trkpt lat="48.3868" lon="7.2664">
        <ele>1017</ele>
        <time>2020-06-24T09:31:36.161Z</time>
      </trkpt>
      <trkpt lat="48.3868" lon="7.26642">
        <ele>1017</ele>
        <time>2020-06-24T09:31:37.162Z</time>
      </trkpt>
      <trkpt lat="48.3868" lon="7.26644">
        <ele>1016</ele>
        <time>2020-06-24T09:31:38.161Z</time>
      </trkpt>
      <trkpt lat="48.3868" lon="7.26645">
        <ele>1016</ele>
        <time>2020-06-24T09:31:39.162Z</time>
      </trkpt>
      <trkpt lat="48.38679" lon="7.26646">
        <ele>1015</ele>
        <time>2020-06-24T09:31:40.162Z</time>
      </trkpt>
      <trkpt lat="48.3868" lon="7.26646">
        <ele>1015</ele>
        <time>2020-06-24T09:31:41.162Z</time>
      </trkpt>
      <trkpt lat="48.38679" lon="7.26646">
        <ele>1015</ele>
        <time>2020-06-24T09:31:42.162Z</time>
      </trkpt>
      <trkpt lat="48.38678" lon="7.26649">
        <ele>1014</ele>
        <time>2020-06-24T09:31:43.162Z</time>
      </trkpt>
      <trkpt lat="48.38678" lon="7.2665">
        <ele>1015</ele>
        <time>2020-06-24T09:31:44.162Z</time>
      </trkpt>
      <trkpt lat="48.38678" lon="7.26651">
        <ele>1015</ele>
        <time>2020-06-24T09:31:45.162Z</time>
      </trkpt>
      <trkpt lat="48.38678" lon="7.26651">
        <ele>1016</ele>
        <time>2020-06-24T09:31:46.161Z</time>
      </trkpt>
      <trkpt lat="48.38678" lon="7.26651">
        <ele>1020</ele>
        <time>2020-06-24T09:31:47.164Z</time>
      </trkpt>
      <trkpt lat="48.38678" lon="7.26651">
        <ele>1021</ele>
        <time>2020-06-24T09:31:48.164Z</time>
      </trkpt>
      <trkpt lat="48.38675" lon="7.26641">
        <ele>1019</ele>
        <time>2020-06-24T09:31:49.164Z</time>
      </trkpt>
      <trkpt lat="48.38675" lon="7.26638">
        <ele>1019</ele>
        <time>2020-06-24T09:31:50.164Z</time>
      </trkpt>
      <trkpt lat="48.38676" lon="7.26636">
        <ele>1019</ele>
        <time>2020-06-24T09:31:51.163Z</time>
      </trkpt>
      <trkpt lat="48.38676" lon="7.26632">
        <ele>1018</ele>
        <time>2020-06-24T09:31:52.164Z</time>
      </trkpt>
      <trkpt lat="48.38677" lon="7.2663">
        <ele>1018</ele>
        <time>2020-06-24T09:31:53.164Z</time>
      </trkpt>
      <trkpt lat="48.38678" lon="7.26627">
        <ele>1018</ele>
        <time>2020-06-24T09:31:54.163Z</time>
      </trkpt>
      <trkpt lat="48.38678" lon="7.26624">
        <ele>1018</ele>
        <time>2020-06-24T09:31:55.164Z</time>
      </trkpt>
      <trkpt lat="48.38677" lon="7.2662">
        <ele>1018</ele>
        <time>2020-06-24T09:31:56.164Z</time>
      </trkpt>
      <trkpt lat="48.38676" lon="7.26618">
        <ele>1017</ele>
        <time>2020-06-24T09:31:57.163Z</time>
      </trkpt>
      <trkpt lat="48.38676" lon="7.26617">
        <ele>1017</ele>
        <time>2020-06-24T09:31:58.164Z</time>
      </trkpt>
      <trkpt lat="48.38675" lon="7.26617">
        <ele>1016</ele>
        <time>2020-06-24T09:31:59.163Z</time>
      </trkpt>
      <trkpt lat="48.38674" lon="7.26619">
        <ele>1016</ele>
        <time>2020-06-24T09:32:00.164Z</time>
      </trkpt>
      <trkpt lat="48.38674" lon="7.2662">
        <ele>1016</ele>
        <time>2020-06-24T09:32:01.164Z</time>
      </trkpt>
      <trkpt lat="48.38673" lon="7.26622">
        <ele>1016</ele>
        <time>2020-06-24T09:32:02.164Z</time>
      </trkpt>
      <trkpt lat="48.38672" lon="7.26623">
        <ele>1016</ele>
        <time>2020-06-24T09:32:03.164Z</time>
      </trkpt>
      <trkpt lat="48.38672" lon="7.26624">
        <ele>1016</ele>
        <time>2020-06-24T09:32:04.164Z</time>
      </trkpt>
      <trkpt lat="48.38671" lon="7.26626">
        <ele>1016</ele>
        <time>2020-06-24T09:32:05.163Z</time>
      </trkpt>
      <trkpt lat="48.38671" lon="7.26627">
        <ele>1016</ele>
        <time>2020-06-24T09:32:06.164Z</time>
      </trkpt>
      <trkpt lat="48.3867" lon="7.26628">
        <ele>1015</ele>
        <time>2020-06-24T09:32:07.164Z</time>
      </trkpt>
      <trkpt lat="48.38669" lon="7.2663">
        <ele>1015</ele>
        <time>2020-06-24T09:32:08.163Z</time>
      </trkpt>
      <trkpt lat="48.38669" lon="7.2663">
        <ele>1014</ele>
        <time>2020-06-24T09:32:09.164Z</time>
      </trkpt>
      <trkpt lat="48.38668" lon="7.26631">
        <ele>1014</ele>
        <time>2020-06-24T09:32:10.164Z</time>
      </trkpt>
      <trkpt lat="48.38667" lon="7.26632">
        <ele>1013</ele>
        <time>2020-06-24T09:32:11.164Z</time>
      </trkpt>
      <trkpt lat="48.38667" lon="7.26634">
        <ele>1013</ele>
        <time>2020-06-24T09:32:12.163Z</time>
      </trkpt>
      <trkpt lat="48.38666" lon="7.26635">
        <ele>1012</ele>
        <time>2020-06-24T09:32:13.164Z</time>
      </trkpt>
      <trkpt lat="48.38666" lon="7.26636">
        <ele>1012</ele>
        <time>2020-06-24T09:32:14.164Z</time>
      </trkpt>
      <trkpt lat="48.38665" lon="7.26638">
        <ele>1011</ele>
        <time>2020-06-24T09:32:15.164Z</time>
      </trkpt>
      <trkpt lat="48.38664" lon="7.2664">
        <ele>1010</ele>
        <time>2020-06-24T09:32:16.163Z</time>
      </trkpt>
      <trkpt lat="48.38664" lon="7.26642">
        <ele>1010</ele>
        <time>2020-06-24T09:32:17.164Z</time>
      </trkpt>
      <trkpt lat="48.38663" lon="7.26643">
        <ele>1009</ele>
        <time>2020-06-24T09:32:18.164Z</time>
      </trkpt>
      <trkpt lat="48.38663" lon="7.26645">
        <ele>1009</ele>
        <time>2020-06-24T09:32:19.163Z</time>
      </trkpt>
      <trkpt lat="48.38662" lon="7.26646">
        <ele>1008</ele>
        <time>2020-06-24T09:32:20.163Z</time>
      </trkpt>
      <trkpt lat="48.38661" lon="7.26648">
        <ele>1008</ele>
        <time>2020-06-24T09:32:21.164Z</time>
      </trkpt>
      <trkpt lat="48.3866" lon="7.2665">
        <ele>1008</ele>
        <time>2020-06-24T09:32:22.164Z</time>
      </trkpt>
      <trkpt lat="48.38659" lon="7.26652">
        <ele>1008</ele>
        <time>2020-06-24T09:32:23.164Z</time>
      </trkpt>
      <trkpt lat="48.38658" lon="7.26653">
        <ele>1008</ele>
        <time>2020-06-24T09:32:24.164Z</time>
      </trkpt>
      <trkpt lat="48.38657" lon="7.26655">
        <ele>1009</ele>
        <time>2020-06-24T09:32:25.163Z</time>
      </trkpt>
      <trkpt lat="48.38657" lon="7.26657">
        <ele>1009</ele>
        <time>2020-06-24T09:32:26.163Z</time>
      </trkpt>
      <trkpt lat="48.38656" lon="7.26658">
        <ele>1008</ele>
        <time>2020-06-24T09:32:27.164Z</time>
      </trkpt>
      <trkpt lat="48.38655" lon="7.2666">
        <ele>1008</ele>
        <time>2020-06-24T09:32:28.164Z</time>
      </trkpt>
      <trkpt lat="48.38655" lon="7.26661">
        <ele>1008</ele>
        <time>2020-06-24T09:32:29.164Z</time>
      </trkpt>
      <trkpt lat="48.38654" lon="7.26663">
        <ele>1008</ele>
        <time>2020-06-24T09:32:30.164Z</time>
      </trkpt>
      <trkpt lat="48.38653" lon="7.26665">
        <ele>1007</ele>
        <time>2020-06-24T09:32:31.164Z</time>
      </trkpt>
      <trkpt lat="48.38653" lon="7.26667">
        <ele>1007</ele>
        <time>2020-06-24T09:32:32.164Z</time>
      </trkpt>
      <trkpt lat="48.38652" lon="7.26669">
        <ele>1007</ele>
        <time>2020-06-24T09:32:33.163Z</time>
      </trkpt>
      <trkpt lat="48.38652" lon="7.26671">
        <ele>1007</ele>
        <time>2020-06-24T09:32:34.163Z</time>
      </trkpt>
      <trkpt lat="48.38651" lon="7.26674">
        <ele>1008</ele>
        <time>2020-06-24T09:32:35.164Z</time>
      </trkpt>
      <trkpt lat="48.3865" lon="7.26675">
        <ele>1008</ele>
        <time>2020-06-24T09:32:36.163Z</time>
      </trkpt>
      <trkpt lat="48.3865" lon="7.26676">
        <ele>1009</ele>
        <time>2020-06-24T09:32:37.164Z</time>
      </trkpt>
      <trkpt lat="48.38649" lon="7.26678">
        <ele>1010</ele>
        <time>2020-06-24T09:32:38.163Z</time>
      </trkpt>
      <trkpt lat="48.38648" lon="7.2668">
        <ele>1011</ele>
        <time>2020-06-24T09:32:39.164Z</time>
      </trkpt>
      <trkpt lat="48.38647" lon="7.26682">
        <ele>1011</ele>
        <time>2020-06-24T09:32:40.164Z</time>
      </trkpt>
      <trkpt lat="48.38647" lon="7.26683">
        <ele>1012</ele>
        <time>2020-06-24T09:32:41.164Z</time>
      </trkpt>
      <trkpt lat="48.38646" lon="7.26685">
        <ele>1012</ele>
        <time>2020-06-24T09:32:42.164Z</time>
      </trkpt>
      <trkpt lat="48.38645" lon="7.26687">
        <ele>1013</ele>
        <time>2020-06-24T09:32:43.164Z</time>
      </trkpt>
      <trkpt lat="48.38645" lon="7.26688">
        <ele>1013</ele>
        <time>2020-06-24T09:32:44.164Z</time>
      </trkpt>
      <trkpt lat="48.38644" lon="7.26691">
        <ele>1014</ele>
        <time>2020-06-24T09:32:45.164Z</time>
      </trkpt>
      <trkpt lat="48.38643" lon="7.26692">
        <ele>1014</ele>
        <time>2020-06-24T09:32:46.164Z</time>
      </trkpt>
      <trkpt lat="48.38642" lon="7.26694">
        <ele>1014</ele>
        <time>2020-06-24T09:32:47.164Z</time>
      </trkpt>
      <trkpt lat="48.38641" lon="7.26697">
        <ele>1015</ele>
        <time>2020-06-24T09:32:48.164Z</time>
      </trkpt>
      <trkpt lat="48.3864" lon="7.26698">
        <ele>1015</ele>
        <time>2020-06-24T09:32:49.164Z</time>
      </trkpt>
      <trkpt lat="48.38639" lon="7.267">
        <ele>1015</ele>
        <time>2020-06-24T09:32:50.163Z</time>
      </trkpt>
      <trkpt lat="48.38639" lon="7.26703">
        <ele>1015</ele>
        <time>2020-06-24T09:32:51.164Z</time>
      </trkpt>
      <trkpt lat="48.38639" lon="7.26705">
        <ele>1015</ele>
        <time>2020-06-24T09:32:52.164Z</time>
      </trkpt>
      <trkpt lat="48.38637" lon="7.26706">
        <ele>1015</ele>
        <time>2020-06-24T09:32:53.164Z</time>
      </trkpt>
      <trkpt lat="48.38636" lon="7.26708">
        <ele>1015</ele>
        <time>2020-06-24T09:32:54.164Z</time>
      </trkpt>
      <trkpt lat="48.38636" lon="7.2671">
        <ele>1014</ele>
        <time>2020-06-24T09:32:55.164Z</time>
      </trkpt>
      <trkpt lat="48.38635" lon="7.26711">
        <ele>1014</ele>
        <time>2020-06-24T09:32:56.164Z</time>
      </trkpt>
      <trkpt lat="48.38635" lon="7.26712">
        <ele>1014</ele>
        <time>2020-06-24T09:32:57.164Z</time>
      </trkpt>
      <trkpt lat="48.38634" lon="7.26715">
        <ele>1015</ele>
        <time>2020-06-24T09:32:58.164Z</time>
      </trkpt>
      <trkpt lat="48.38633" lon="7.26716">
        <ele>1015</ele>
        <time>2020-06-24T09:32:59.164Z</time>
      </trkpt>
      <trkpt lat="48.38632" lon="7.26717">
        <ele>1016</ele>
        <time>2020-06-24T09:33:00.163Z</time>
      </trkpt>
      <trkpt lat="48.38632" lon="7.26718">
        <ele>1016</ele>
        <time>2020-06-24T09:33:01.164Z</time>
      </trkpt>
      <trkpt lat="48.38631" lon="7.26719">
        <ele>1016</ele>
        <time>2020-06-24T09:33:02.164Z</time>
      </trkpt>
      <trkpt lat="48.3863" lon="7.2672">
        <ele>1015</ele>
        <time>2020-06-24T09:33:03.164Z</time>
      </trkpt>
      <trkpt lat="48.38629" lon="7.26722">
        <ele>1015</ele>
        <time>2020-06-24T09:33:04.163Z</time>
      </trkpt>
      <trkpt lat="48.38628" lon="7.26723">
        <ele>1015</ele>
        <time>2020-06-24T09:33:05.164Z</time>
      </trkpt>
      <trkpt lat="48.38627" lon="7.26725">
        <ele>1015</ele>
        <time>2020-06-24T09:33:06.164Z</time>
      </trkpt>
      <trkpt lat="48.38627" lon="7.26726">
        <ele>1014</ele>
        <time>2020-06-24T09:33:07.164Z</time>
      </trkpt>
      <trkpt lat="48.38626" lon="7.26727">
        <ele>1014</ele>
        <time>2020-06-24T09:33:08.164Z</time>
      </trkpt>
      <trkpt lat="48.38625" lon="7.26729">
        <ele>1014</ele>
        <time>2020-06-24T09:33:09.164Z</time>
      </trkpt>
      <trkpt lat="48.38624" lon="7.26731">
        <ele>1014</ele>
        <time>2020-06-24T09:33:10.163Z</time>
      </trkpt>
      <trkpt lat="48.38623" lon="7.26733">
        <ele>1014</ele>
        <time>2020-06-24T09:33:11.163Z</time>
      </trkpt>
      <trkpt lat="48.38622" lon="7.26735">
        <ele>1014</ele>
        <time>2020-06-24T09:33:12.163Z</time>
      </trkpt>
      <trkpt lat="48.38621" lon="7.26736">
        <ele>1015</ele>
        <time>2020-06-24T09:33:13.164Z</time>
      </trkpt>
      <trkpt lat="48.3862" lon="7.26738">
        <ele>1015</ele>
        <time>2020-06-24T09:33:14.164Z</time>
      </trkpt>
      <trkpt lat="48.38619" lon="7.2674">
        <ele>1015</ele>
        <time>2020-06-24T09:33:15.163Z</time>
      </trkpt>
      <trkpt lat="48.38618" lon="7.26741">
        <ele>1016</ele>
        <time>2020-06-24T09:33:16.163Z</time>
      </trkpt>
      <trkpt lat="48.38617" lon="7.26743">
        <ele>1016</ele>
        <time>2020-06-24T09:33:17.163Z</time>
      </trkpt>
      <trkpt lat="48.38616" lon="7.26744">
        <ele>1016</ele>
        <time>2020-06-24T09:33:18.163Z</time>
      </trkpt>
      <trkpt lat="48.38614" lon="7.26746">
        <ele>1017</ele>
        <time>2020-06-24T09:33:19.164Z</time>
      </trkpt>
      <trkpt lat="48.38613" lon="7.26747">
        <ele>1017</ele>
        <time>2020-06-24T09:33:20.163Z</time>
      </trkpt>
      <trkpt lat="48.38611" lon="7.26749">
        <ele>1017</ele>
        <time>2020-06-24T09:33:21.164Z</time>
      </trkpt>
      <trkpt lat="48.3861" lon="7.2675">
        <ele>1017</ele>
        <time>2020-06-24T09:33:22.164Z</time>
      </trkpt>
      <trkpt lat="48.38609" lon="7.26752">
        <ele>1016</ele>
        <time>2020-06-24T09:33:23.164Z</time>
      </trkpt>
      <trkpt lat="48.38608" lon="7.26755">
        <ele>1016</ele>
        <time>2020-06-24T09:33:24.163Z</time>
      </trkpt>
      <trkpt lat="48.38607" lon="7.26757">
        <ele>1015</ele>
        <time>2020-06-24T09:33:25.164Z</time>
      </trkpt>
      <trkpt lat="48.38606" lon="7.26759">
        <ele>1014</ele>
        <time>2020-06-24T09:33:26.164Z</time>
      </trkpt>
      <trkpt lat="48.38606" lon="7.26761">
        <ele>1013</ele>
        <time>2020-06-24T09:33:27.164Z</time>
      </trkpt>
      <trkpt lat="48.38605" lon="7.26763">
        <ele>1013</ele>
        <time>2020-06-24T09:33:28.164Z</time>
      </trkpt>
      <trkpt lat="48.38604" lon="7.26765">
        <ele>1012</ele>
        <time>2020-06-24T09:33:29.163Z</time>
      </trkpt>
      <trkpt lat="48.38604" lon="7.26766">
        <ele>1011</ele>
        <time>2020-06-24T09:33:30.164Z</time>
      </trkpt>
      <trkpt lat="48.38603" lon="7.26768">
        <ele>1011</ele>
        <time>2020-06-24T09:33:31.164Z</time>
      </trkpt>
      <trkpt lat="48.38602" lon="7.26771">
        <ele>1010</ele>
        <time>2020-06-24T09:33:32.164Z</time>
      </trkpt>
      <trkpt lat="48.38601" lon="7.26773">
        <ele>1009</ele>
        <time>2020-06-24T09:33:33.164Z</time>
      </trkpt>
      <trkpt lat="48.386" lon="7.26775">
        <ele>1008</ele>
        <time>2020-06-24T09:33:34.163Z</time>
      </trkpt>
      <trkpt lat="48.386" lon="7.26776">
        <ele>1007</ele>
        <time>2020-06-24T09:33:35.164Z</time>
      </trkpt>
      <trkpt lat="48.38599" lon="7.26777">
        <ele>1007</ele>
        <time>2020-06-24T09:33:36.164Z</time>
      </trkpt>
      <trkpt lat="48.38598" lon="7.26778">
        <ele>1006</ele>
        <time>2020-06-24T09:33:37.164Z</time>
      </trkpt>
      <trkpt lat="48.38597" lon="7.26779">
        <ele>1006</ele>
        <time>2020-06-24T09:33:38.164Z</time>
      </trkpt>
      <trkpt lat="48.38596" lon="7.26781">
        <ele>1006</ele>
        <time>2020-06-24T09:33:39.164Z</time>
      </trkpt>
      <trkpt lat="48.38595" lon="7.26783">
        <ele>1005</ele>
        <time>2020-06-24T09:33:40.163Z</time>
      </trkpt>
      <trkpt lat="48.38594" lon="7.26784">
        <ele>1005</ele>
        <time>2020-06-24T09:33:41.164Z</time>
      </trkpt>
      <trkpt lat="48.38593" lon="7.26786">
        <ele>1005</ele>
        <time>2020-06-24T09:33:42.163Z</time>
      </trkpt>
      <trkpt lat="48.38593" lon="7.26788">
        <ele>1005</ele>
        <time>2020-06-24T09:33:43.164Z</time>
      </trkpt>
      <trkpt lat="48.38592" lon="7.2679">
        <ele>1005</ele>
        <time>2020-06-24T09:33:44.163Z</time>
      </trkpt>
      <trkpt lat="48.38591" lon="7.26791">
        <ele>1005</ele>
        <time>2020-06-24T09:33:45.163Z</time>
      </trkpt>
      <trkpt lat="48.38591" lon="7.26793">
        <ele>1004</ele>
        <time>2020-06-24T09:33:46.163Z</time>
      </trkpt>
      <trkpt lat="48.3859" lon="7.26794">
        <ele>1004</ele>
        <time>2020-06-24T09:33:47.163Z</time>
      </trkpt>
      <trkpt lat="48.3859" lon="7.26795">
        <ele>1004</ele>
        <time>2020-06-24T09:33:48.164Z</time>
      </trkpt>
      <trkpt lat="48.38589" lon="7.26797">
        <ele>1004</ele>
        <time>2020-06-24T09:33:49.164Z</time>
      </trkpt>
      <trkpt lat="48.38588" lon="7.26799">
        <ele>1005</ele>
        <time>2020-06-24T09:33:50.164Z</time>
      </trkpt>
      <trkpt lat="48.38586" lon="7.26802">
        <ele>1005</ele>
        <time>2020-06-24T09:33:51.164Z</time>
      </trkpt>
      <trkpt lat="48.38585" lon="7.26804">
        <ele>1006</ele>
        <time>2020-06-24T09:33:52.164Z</time>
      </trkpt>
      <trkpt lat="48.38584" lon="7.26806">
        <ele>1006</ele>
        <time>2020-06-24T09:33:53.163Z</time>
      </trkpt>
      <trkpt lat="48.38582" lon="7.26809">
        <ele>1007</ele>
        <time>2020-06-24T09:33:54.164Z</time>
      </trkpt>
      <trkpt lat="48.38581" lon="7.26811">
        <ele>1007</ele>
        <time>2020-06-24T09:33:55.164Z</time>
      </trkpt>
      <trkpt lat="48.3858" lon="7.26811">
        <ele>1007</ele>
        <time>2020-06-24T09:33:56.163Z</time>
      </trkpt>
      <trkpt lat="48.3858" lon="7.26813">
        <ele>1007</ele>
        <time>2020-06-24T09:33:57.164Z</time>
      </trkpt>
      <trkpt lat="48.38579" lon="7.26814">
        <ele>1007</ele>
        <time>2020-06-24T09:33:58.163Z</time>
      </trkpt>
      <trkpt lat="48.38579" lon="7.26815">
        <ele>1007</ele>
        <time>2020-06-24T09:33:59.163Z</time>
      </trkpt>
      <trkpt lat="48.38578" lon="7.26817">
        <ele>1007</ele>
        <time>2020-06-24T09:34:00.163Z</time>
      </trkpt>
      <trkpt lat="48.38577" lon="7.26819">
        <ele>1006</ele>
        <time>2020-06-24T09:34:01.164Z</time>
      </trkpt>
      <trkpt lat="48.38576" lon="7.26821">
        <ele>1006</ele>
        <time>2020-06-24T09:34:02.164Z</time>
      </trkpt>
      <trkpt lat="48.38575" lon="7.26823">
        <ele>1006</ele>
        <time>2020-06-24T09:34:03.164Z</time>
      </trkpt>
      <trkpt lat="48.38575" lon="7.26824">
        <ele>1005</ele>
        <time>2020-06-24T09:34:04.164Z</time>
      </trkpt>
      <trkpt lat="48.38574" lon="7.26826">
        <ele>1005</ele>
        <time>2020-06-24T09:34:05.164Z</time>
      </trkpt>
      <trkpt lat="48.38574" lon="7.26828">
        <ele>1005</ele>
        <time>2020-06-24T09:34:06.163Z</time>
      </trkpt>
      <trkpt lat="48.38573" lon="7.26832">
        <ele>1004</ele>
        <time>2020-06-24T09:34:07.164Z</time>
      </trkpt>
      <trkpt lat="48.38573" lon="7.26834">
        <ele>1004</ele>
        <time>2020-06-24T09:34:08.164Z</time>
      </trkpt>
      <trkpt lat="48.38572" lon="7.26836">
        <ele>1003</ele>
        <time>2020-06-24T09:34:09.164Z</time>
      </trkpt>
      <trkpt lat="48.38572" lon="7.2684">
        <ele>1003</ele>
        <time>2020-06-24T09:34:10.164Z</time>
      </trkpt>
      <trkpt lat="48.38571" lon="7.26843">
        <ele>1004</ele>
        <time>2020-06-24T09:34:11.164Z</time>
      </trkpt>
      <trkpt lat="48.3857" lon="7.26846">
        <ele>1004</ele>
        <time>2020-06-24T09:34:12.164Z</time>
      </trkpt>
      <trkpt lat="48.38569" lon="7.26848">
        <ele>1004</ele>
        <time>2020-06-24T09:34:13.164Z</time>
      </trkpt>
      <trkpt lat="48.38567" lon="7.2685">
        <ele>1004</ele>
        <time>2020-06-24T09:34:14.163Z</time>
      </trkpt>
      <trkpt lat="48.38566" lon="7.26853">
        <ele>1004</ele>
        <time>2020-06-24T09:34:15.164Z</time>
      </trkpt>
      <trkpt lat="48.38564" lon="7.26854">
        <ele>1004</ele>
        <time>2020-06-24T09:34:16.163Z</time>
      </trkpt>
      <trkpt lat="48.38564" lon="7.26856">
        <ele>1005</ele>
        <time>2020-06-24T09:34:17.163Z</time>
      </trkpt>
      <trkpt lat="48.38564" lon="7.26858">
        <ele>1005</ele>
        <time>2020-06-24T09:34:18.163Z</time>
      </trkpt>
      <trkpt lat="48.38564" lon="7.26861">
        <ele>1005</ele>
        <time>2020-06-24T09:34:19.164Z</time>
      </trkpt>
      <trkpt lat="48.38563" lon="7.26863">
        <ele>1004</ele>
        <time>2020-06-24T09:34:20.164Z</time>
      </trkpt>
      <trkpt lat="48.38562" lon="7.26865">
        <ele>1004</ele>
        <time>2020-06-24T09:34:21.164Z</time>
      </trkpt>
      <trkpt lat="48.38561" lon="7.26867">
        <ele>1004</ele>
        <time>2020-06-24T09:34:22.163Z</time>
      </trkpt>
      <trkpt lat="48.38561" lon="7.26869">
        <ele>1005</ele>
        <time>2020-06-24T09:34:23.164Z</time>
      </trkpt>
      <trkpt lat="48.3856" lon="7.26871">
        <ele>1005</ele>
        <time>2020-06-24T09:34:24.163Z</time>
      </trkpt>
      <trkpt lat="48.38559" lon="7.26873">
        <ele>1005</ele>
        <time>2020-06-24T09:34:25.163Z</time>
      </trkpt>
      <trkpt lat="48.38559" lon="7.26875">
        <ele>1005</ele>
        <time>2020-06-24T09:34:26.163Z</time>
      </trkpt>
      <trkpt lat="48.38558" lon="7.26877">
        <ele>1005</ele>
        <time>2020-06-24T09:34:27.164Z</time>
      </trkpt>
      <trkpt lat="48.38558" lon="7.26879">
        <ele>1005</ele>
        <time>2020-06-24T09:34:28.164Z</time>
      </trkpt>
      <trkpt lat="48.38557" lon="7.26882">
        <ele>1006</ele>
        <time>2020-06-24T09:34:29.163Z</time>
      </trkpt>
      <trkpt lat="48.38557" lon="7.26883">
        <ele>1006</ele>
        <time>2020-06-24T09:34:30.164Z</time>
      </trkpt>
      <trkpt lat="48.38556" lon="7.26885">
        <ele>1005</ele>
        <time>2020-06-24T09:34:31.163Z</time>
      </trkpt>
      <trkpt lat="48.38556" lon="7.26887">
        <ele>1005</ele>
        <time>2020-06-24T09:34:32.164Z</time>
      </trkpt>
      <trkpt lat="48.38555" lon="7.26889">
        <ele>1005</ele>
        <time>2020-06-24T09:34:33.164Z</time>
      </trkpt>
      <trkpt lat="48.38554" lon="7.2689">
        <ele>1005</ele>
        <time>2020-06-24T09:34:34.163Z</time>
      </trkpt>
      <trkpt lat="48.38554" lon="7.26892">
        <ele>1005</ele>
        <time>2020-06-24T09:34:35.164Z</time>
      </trkpt>
      <trkpt lat="48.38554" lon="7.26894">
        <ele>1004</ele>
        <time>2020-06-24T09:34:36.164Z</time>
      </trkpt>
      <trkpt lat="48.38553" lon="7.26895">
        <ele>1003</ele>
        <time>2020-06-24T09:34:37.164Z</time>
      </trkpt>
      <trkpt lat="48.38553" lon="7.26897">
        <ele>1002</ele>
        <time>2020-06-24T09:34:38.164Z</time>
      </trkpt>
      <trkpt lat="48.38553" lon="7.26898">
        <ele>1000</ele>
        <time>2020-06-24T09:34:39.164Z</time>
      </trkpt>
      <trkpt lat="48.38552" lon="7.269">
        <ele>999</ele>
        <time>2020-06-24T09:34:40.164Z</time>
      </trkpt>
      <trkpt lat="48.38552" lon="7.26902">
        <ele>998</ele>
        <time>2020-06-24T09:34:41.164Z</time>
      </trkpt>
      <trkpt lat="48.38551" lon="7.26904">
        <ele>998</ele>
        <time>2020-06-24T09:34:42.163Z</time>
      </trkpt>
      <trkpt lat="48.3855" lon="7.26906">
        <ele>997</ele>
        <time>2020-06-24T09:34:43.164Z</time>
      </trkpt>
      <trkpt lat="48.38549" lon="7.26908">
        <ele>997</ele>
        <time>2020-06-24T09:34:44.164Z</time>
      </trkpt>
      <trkpt lat="48.38548" lon="7.26911">
        <ele>996</ele>
        <time>2020-06-24T09:34:45.164Z</time>
      </trkpt>
      <trkpt lat="48.38548" lon="7.26914">
        <ele>996</ele>
        <time>2020-06-24T09:34:46.164Z</time>
      </trkpt>
      <trkpt lat="48.38549" lon="7.26915">
        <ele>995</ele>
        <time>2020-06-24T09:34:47.164Z</time>
      </trkpt>
      <trkpt lat="48.38549" lon="7.26917">
        <ele>995</ele>
        <time>2020-06-24T09:34:48.164Z</time>
      </trkpt>
      <trkpt lat="48.38549" lon="7.26918">
        <ele>995</ele>
        <time>2020-06-24T09:34:49.164Z</time>
      </trkpt>
      <trkpt lat="48.38549" lon="7.2692">
        <ele>995</ele>
        <time>2020-06-24T09:34:50.163Z</time>
      </trkpt>
      <trkpt lat="48.38549" lon="7.26922">
        <ele>994</ele>
        <time>2020-06-24T09:34:51.164Z</time>
      </trkpt>
      <trkpt lat="48.38549" lon="7.26924">
        <ele>994</ele>
        <time>2020-06-24T09:34:52.164Z</time>
      </trkpt>
      <trkpt lat="48.38549" lon="7.26926">
        <ele>994</ele>
        <time>2020-06-24T09:34:53.164Z</time>
      </trkpt>
      <trkpt lat="48.38548" lon="7.26928">
        <ele>993</ele>
        <time>2020-06-24T09:34:54.164Z</time>
      </trkpt>
      <trkpt lat="48.38548" lon="7.2693">
        <ele>993</ele>
        <time>2020-06-24T09:34:55.164Z</time>
      </trkpt>
      <trkpt lat="48.38548" lon="7.26933">
        <ele>993</ele>
        <time>2020-06-24T09:34:56.164Z</time>
      </trkpt>
      <trkpt lat="48.38548" lon="7.26935">
        <ele>993</ele>
        <time>2020-06-24T09:34:57.164Z</time>
      </trkpt>
      <trkpt lat="48.38547" lon="7.26937">
        <ele>993</ele>
        <time>2020-06-24T09:34:58.163Z</time>
      </trkpt>
      <trkpt lat="48.38547" lon="7.2694">
        <ele>993</ele>
        <time>2020-06-24T09:34:59.164Z</time>
      </trkpt>
      <trkpt lat="48.38547" lon="7.26942">
        <ele>993</ele>
        <time>2020-06-24T09:35:00.164Z</time>
      </trkpt>
      <trkpt lat="48.38547" lon="7.26944">
        <ele>993</ele>
        <time>2020-06-24T09:35:01.164Z</time>
      </trkpt>
      <trkpt lat="48.38546" lon="7.26945">
        <ele>993</ele>
        <time>2020-06-24T09:35:02.164Z</time>
      </trkpt>
      <trkpt lat="48.38547" lon="7.26947">
        <ele>993</ele>
        <time>2020-06-24T09:35:03.164Z</time>
      </trkpt>
      <trkpt lat="48.38547" lon="7.26949">
        <ele>992</ele>
        <time>2020-06-24T09:35:04.164Z</time>
      </trkpt>
      <trkpt lat="48.38547" lon="7.26952">
        <ele>992</ele>
        <time>2020-06-24T09:35:05.164Z</time>
      </trkpt>
      <trkpt lat="48.38547" lon="7.26954">
        <ele>992</ele>
        <time>2020-06-24T09:35:06.164Z</time>
      </trkpt>
      <trkpt lat="48.38547" lon="7.26955">
        <ele>992</ele>
        <time>2020-06-24T09:35:07.164Z</time>
      </trkpt>
      <trkpt lat="48.38547" lon="7.26956">
        <ele>993</ele>
        <time>2020-06-24T09:35:08.164Z</time>
      </trkpt>
      <trkpt lat="48.38547" lon="7.26957">
        <ele>993</ele>
        <time>2020-06-24T09:35:09.164Z</time>
      </trkpt>
      <trkpt lat="48.38547" lon="7.26958">
        <ele>993</ele>
        <time>2020-06-24T09:35:10.164Z</time>
      </trkpt>
      <trkpt lat="48.38547" lon="7.2696">
        <ele>994</ele>
        <time>2020-06-24T09:35:11.164Z</time>
      </trkpt>
      <trkpt lat="48.38547" lon="7.26961">
        <ele>994</ele>
        <time>2020-06-24T09:35:12.164Z</time>
      </trkpt>
      <trkpt lat="48.38547" lon="7.26963">
        <ele>995</ele>
        <time>2020-06-24T09:35:13.164Z</time>
      </trkpt>
      <trkpt lat="48.38547" lon="7.26964">
        <ele>995</ele>
        <time>2020-06-24T09:35:14.163Z</time>
      </trkpt>
      <trkpt lat="48.38547" lon="7.26966">
        <ele>996</ele>
        <time>2020-06-24T09:35:15.164Z</time>
      </trkpt>
      <trkpt lat="48.38547" lon="7.26968">
        <ele>996</ele>
        <time>2020-06-24T09:35:16.164Z</time>
      </trkpt>
      <trkpt lat="48.38547" lon="7.2697">
        <ele>997</ele>
        <time>2020-06-24T09:35:17.163Z</time>
      </trkpt>
      <trkpt lat="48.38547" lon="7.26972">
        <ele>998</ele>
        <time>2020-06-24T09:35:18.164Z</time>
      </trkpt>
      <trkpt lat="48.38547" lon="7.26975">
        <ele>998</ele>
        <time>2020-06-24T09:35:19.164Z</time>
      </trkpt>
      <trkpt lat="48.38547" lon="7.26978">
        <ele>998</ele>
        <time>2020-06-24T09:35:20.164Z</time>
      </trkpt>
      <trkpt lat="48.38548" lon="7.26981">
        <ele>998</ele>
        <time>2020-06-24T09:35:21.164Z</time>
      </trkpt>
      <trkpt lat="48.38549" lon="7.26984">
        <ele>997</ele>
        <time>2020-06-24T09:35:22.163Z</time>
      </trkpt>
      <trkpt lat="48.38549" lon="7.26986">
        <ele>996</ele>
        <time>2020-06-24T09:35:23.164Z</time>
      </trkpt>
      <trkpt lat="48.38549" lon="7.26988">
        <ele>995</ele>
        <time>2020-06-24T09:35:24.164Z</time>
      </trkpt>
      <trkpt lat="48.38549" lon="7.26989">
        <ele>994</ele>
        <time>2020-06-24T09:35:25.164Z</time>
      </trkpt>
      <trkpt lat="48.38549" lon="7.26991">
        <ele>993</ele>
        <time>2020-06-24T09:35:26.164Z</time>
      </trkpt>
      <trkpt lat="48.3855" lon="7.26993">
        <ele>992</ele>
        <time>2020-06-24T09:35:27.164Z</time>
      </trkpt>
      <trkpt lat="48.3855" lon="7.26995">
        <ele>992</ele>
        <time>2020-06-24T09:35:28.164Z</time>
      </trkpt>
      <trkpt lat="48.3855" lon="7.26998">
        <ele>991</ele>
        <time>2020-06-24T09:35:29.164Z</time>
      </trkpt>
      <trkpt lat="48.3855" lon="7.27">
        <ele>991</ele>
        <time>2020-06-24T09:35:30.163Z</time>
      </trkpt>
      <trkpt lat="48.38552" lon="7.27004">
        <ele>991</ele>
        <time>2020-06-24T09:35:31.164Z</time>
      </trkpt>
      <trkpt lat="48.38553" lon="7.27008">
        <ele>990</ele>
        <time>2020-06-24T09:35:32.164Z</time>
      </trkpt>
      <trkpt lat="48.38553" lon="7.27011">
        <ele>990</ele>
        <time>2020-06-24T09:35:33.163Z</time>
      </trkpt>
      <trkpt lat="48.38554" lon="7.27013">
        <ele>990</ele>
        <time>2020-06-24T09:35:34.163Z</time>
      </trkpt>
      <trkpt lat="48.38554" lon="7.27016">
        <ele>990</ele>
        <time>2020-06-24T09:35:35.164Z</time>
      </trkpt>
      <trkpt lat="48.38554" lon="7.27018">
        <ele>990</ele>
        <time>2020-06-24T09:35:36.163Z</time>
      </trkpt>
      <trkpt lat="48.38555" lon="7.2702">
        <ele>990</ele>
        <time>2020-06-24T09:35:37.164Z</time>
      </trkpt>
      <trkpt lat="48.38556" lon="7.27022">
        <ele>990</ele>
        <time>2020-06-24T09:35:38.163Z</time>
      </trkpt>
      <trkpt lat="48.38556" lon="7.27024">
        <ele>990</ele>
        <time>2020-06-24T09:35:39.164Z</time>
      </trkpt>
      <trkpt lat="48.38556" lon="7.27026">
        <ele>990</ele>
        <time>2020-06-24T09:35:40.164Z</time>
      </trkpt>
      <trkpt lat="48.38557" lon="7.27029">
        <ele>990</ele>
        <time>2020-06-24T09:35:41.163Z</time>
      </trkpt>
      <trkpt lat="48.38556" lon="7.27032">
        <ele>991</ele>
        <time>2020-06-24T09:35:42.163Z</time>
      </trkpt>
      <trkpt lat="48.38556" lon="7.27033">
        <ele>991</ele>
        <time>2020-06-24T09:35:43.163Z</time>
      </trkpt>
      <trkpt lat="48.38556" lon="7.27035">
        <ele>991</ele>
        <time>2020-06-24T09:35:44.163Z</time>
      </trkpt>
      <trkpt lat="48.38556" lon="7.27037">
        <ele>991</ele>
        <time>2020-06-24T09:35:45.163Z</time>
      </trkpt>
      <trkpt lat="48.38556" lon="7.27039">
        <ele>991</ele>
        <time>2020-06-24T09:35:46.163Z</time>
      </trkpt>
      <trkpt lat="48.38557" lon="7.27041">
        <ele>991</ele>
        <time>2020-06-24T09:35:47.163Z</time>
      </trkpt>
      <trkpt lat="48.38557" lon="7.27043">
        <ele>990</ele>
        <time>2020-06-24T09:35:48.163Z</time>
      </trkpt>
      <trkpt lat="48.38557" lon="7.27045">
        <ele>990</ele>
        <time>2020-06-24T09:35:49.163Z</time>
      </trkpt>
      <trkpt lat="48.38558" lon="7.27047">
        <ele>990</ele>
        <time>2020-06-24T09:35:50.164Z</time>
      </trkpt>
      <trkpt lat="48.38558" lon="7.27049">
        <ele>989</ele>
        <time>2020-06-24T09:35:51.164Z</time>
      </trkpt>
      <trkpt lat="48.38558" lon="7.27052">
        <ele>989</ele>
        <time>2020-06-24T09:35:52.164Z</time>
      </trkpt>
      <trkpt lat="48.38558" lon="7.27053">
        <ele>989</ele>
        <time>2020-06-24T09:35:53.164Z</time>
      </trkpt>
      <trkpt lat="48.38558" lon="7.27055">
        <ele>989</ele>
        <time>2020-06-24T09:35:54.163Z</time>
      </trkpt>
      <trkpt lat="48.38558" lon="7.27057">
        <ele>989</ele>
        <time>2020-06-24T09:35:55.164Z</time>
      </trkpt>
      <trkpt lat="48.38558" lon="7.2706">
        <ele>989</ele>
        <time>2020-06-24T09:35:56.164Z</time>
      </trkpt>
      <trkpt lat="48.38558" lon="7.27063">
        <ele>989</ele>
        <time>2020-06-24T09:35:57.164Z</time>
      </trkpt>
      <trkpt lat="48.38558" lon="7.27066">
        <ele>989</ele>
        <time>2020-06-24T09:35:58.163Z</time>
      </trkpt>
      <trkpt lat="48.38558" lon="7.27068">
        <ele>989</ele>
        <time>2020-06-24T09:35:59.163Z</time>
      </trkpt>
      <trkpt lat="48.38557" lon="7.27069">
        <ele>989</ele>
        <time>2020-06-24T09:36:00.164Z</time>
      </trkpt>
      <trkpt lat="48.38557" lon="7.2707">
        <ele>989</ele>
        <time>2020-06-24T09:36:01.163Z</time>
      </trkpt>
      <trkpt lat="48.38556" lon="7.27071">
        <ele>989</ele>
        <time>2020-06-24T09:36:02.164Z</time>
      </trkpt>
      <trkpt lat="48.38556" lon="7.27073">
        <ele>989</ele>
        <time>2020-06-24T09:36:03.163Z</time>
      </trkpt>
      <trkpt lat="48.38556" lon="7.27075">
        <ele>989</ele>
        <time>2020-06-24T09:36:04.164Z</time>
      </trkpt>
      <trkpt lat="48.38556" lon="7.27076">
        <ele>989</ele>
        <time>2020-06-24T09:36:05.164Z</time>
      </trkpt>
      <trkpt lat="48.38555" lon="7.27078">
        <ele>989</ele>
        <time>2020-06-24T09:36:06.163Z</time>
      </trkpt>
      <trkpt lat="48.38556" lon="7.2708">
        <ele>989</ele>
        <time>2020-06-24T09:36:07.163Z</time>
      </trkpt>
      <trkpt lat="48.38556" lon="7.27083">
        <ele>988</ele>
        <time>2020-06-24T09:36:08.164Z</time>
      </trkpt>
      <trkpt lat="48.38557" lon="7.27086">
        <ele>988</ele>
        <time>2020-06-24T09:36:09.163Z</time>
      </trkpt>
      <trkpt lat="48.38557" lon="7.27089">
        <ele>987</ele>
        <time>2020-06-24T09:36:10.163Z</time>
      </trkpt>
      <trkpt lat="48.38558" lon="7.27092">
        <ele>987</ele>
        <time>2020-06-24T09:36:11.164Z</time>
      </trkpt>
      <trkpt lat="48.38557" lon="7.27094">
        <ele>986</ele>
        <time>2020-06-24T09:36:12.164Z</time>
      </trkpt>
      <trkpt lat="48.38557" lon="7.27097">
        <ele>986</ele>
        <time>2020-06-24T09:36:13.164Z</time>
      </trkpt>
      <trkpt lat="48.38557" lon="7.27098">
        <ele>985</ele>
        <time>2020-06-24T09:36:14.164Z</time>
      </trkpt>
      <trkpt lat="48.38557" lon="7.271">
        <ele>985</ele>
        <time>2020-06-24T09:36:15.163Z</time>
      </trkpt>
      <trkpt lat="48.38556" lon="7.27103">
        <ele>985</ele>
        <time>2020-06-24T09:36:16.164Z</time>
      </trkpt>
      <trkpt lat="48.38555" lon="7.27106">
        <ele>985</ele>
        <time>2020-06-24T09:36:17.163Z</time>
      </trkpt>
      <trkpt lat="48.38556" lon="7.27108">
        <ele>985</ele>
        <time>2020-06-24T09:36:18.164Z</time>
      </trkpt>
      <trkpt lat="48.38556" lon="7.27111">
        <ele>985</ele>
        <time>2020-06-24T09:36:19.164Z</time>
      </trkpt>
      <trkpt lat="48.38556" lon="7.27113">
        <ele>985</ele>
        <time>2020-06-24T09:36:20.164Z</time>
      </trkpt>
      <trkpt lat="48.38556" lon="7.27116">
        <ele>985</ele>
        <time>2020-06-24T09:36:21.164Z</time>
      </trkpt>
      <trkpt lat="48.38556" lon="7.27118">
        <ele>985</ele>
        <time>2020-06-24T09:36:22.163Z</time>
      </trkpt>
      <trkpt lat="48.38556" lon="7.27122">
        <ele>984</ele>
        <time>2020-06-24T09:36:23.164Z</time>
      </trkpt>
      <trkpt lat="48.38555" lon="7.27125">
        <ele>984</ele>
        <time>2020-06-24T09:36:24.163Z</time>
      </trkpt>
      <trkpt lat="48.38555" lon="7.27127">
        <ele>984</ele>
        <time>2020-06-24T09:36:25.164Z</time>
      </trkpt>
      <trkpt lat="48.38555" lon="7.2713">
        <ele>984</ele>
        <time>2020-06-24T09:36:26.164Z</time>
      </trkpt>
      <trkpt lat="48.38555" lon="7.27133">
        <ele>984</ele>
        <time>2020-06-24T09:36:27.163Z</time>
      </trkpt>
      <trkpt lat="48.38554" lon="7.27136">
        <ele>984</ele>
        <time>2020-06-24T09:36:28.164Z</time>
      </trkpt>
      <trkpt lat="48.38553" lon="7.27138">
        <ele>985</ele>
        <time>2020-06-24T09:36:29.163Z</time>
      </trkpt>
      <trkpt lat="48.38553" lon="7.27141">
        <ele>985</ele>
        <time>2020-06-24T09:36:30.164Z</time>
      </trkpt>
      <trkpt lat="48.38552" lon="7.27144">
        <ele>986</ele>
        <time>2020-06-24T09:36:31.164Z</time>
      </trkpt>
      <trkpt lat="48.38552" lon="7.27145">
        <ele>986</ele>
        <time>2020-06-24T09:36:32.164Z</time>
      </trkpt>
      <trkpt lat="48.38551" lon="7.27146">
        <ele>986</ele>
        <time>2020-06-24T09:36:33.164Z</time>
      </trkpt>
      <trkpt lat="48.38551" lon="7.27148">
        <ele>986</ele>
        <time>2020-06-24T09:36:34.164Z</time>
      </trkpt>
      <trkpt lat="48.3855" lon="7.2715">
        <ele>986</ele>
        <time>2020-06-24T09:36:35.163Z</time>
      </trkpt>
      <trkpt lat="48.3855" lon="7.27152">
        <ele>986</ele>
        <time>2020-06-24T09:36:36.163Z</time>
      </trkpt>
      <trkpt lat="48.38549" lon="7.27154">
        <ele>986</ele>
        <time>2020-06-24T09:36:37.163Z</time>
      </trkpt>
      <trkpt lat="48.38548" lon="7.27156">
        <ele>987</ele>
        <time>2020-06-24T09:36:38.164Z</time>
      </trkpt>
      <trkpt lat="48.38548" lon="7.27158">
        <ele>987</ele>
        <time>2020-06-24T09:36:39.164Z</time>
      </trkpt>
      <trkpt lat="48.38547" lon="7.2716">
        <ele>987</ele>
        <time>2020-06-24T09:36:40.163Z</time>
      </trkpt>
      <trkpt lat="48.38547" lon="7.27162">
        <ele>987</ele>
        <time>2020-06-24T09:36:41.164Z</time>
      </trkpt>
      <trkpt lat="48.38546" lon="7.27165">
        <ele>988</ele>
        <time>2020-06-24T09:36:42.163Z</time>
      </trkpt>
      <trkpt lat="48.38546" lon="7.27167">
        <ele>988</ele>
        <time>2020-06-24T09:36:43.163Z</time>
      </trkpt>
      <trkpt lat="48.38545" lon="7.27169">
        <ele>988</ele>
        <time>2020-06-24T09:36:44.163Z</time>
      </trkpt>
      <trkpt lat="48.38544" lon="7.27172">
        <ele>989</ele>
        <time>2020-06-24T09:36:45.164Z</time>
      </trkpt>
      <trkpt lat="48.38543" lon="7.27174">
        <ele>989</ele>
        <time>2020-06-24T09:36:46.164Z</time>
      </trkpt>
      <trkpt lat="48.38543" lon="7.27176">
        <ele>989</ele>
        <time>2020-06-24T09:36:47.163Z</time>
      </trkpt>
      <trkpt lat="48.38543" lon="7.27178">
        <ele>989</ele>
        <time>2020-06-24T09:36:48.163Z</time>
      </trkpt>
      <trkpt lat="48.38543" lon="7.2718">
        <ele>989</ele>
        <time>2020-06-24T09:36:49.163Z</time>
      </trkpt>
      <trkpt lat="48.38542" lon="7.27182">
        <ele>988</ele>
        <time>2020-06-24T09:36:50.163Z</time>
      </trkpt>
      <trkpt lat="48.38542" lon="7.27185">
        <ele>988</ele>
        <time>2020-06-24T09:36:51.164Z</time>
      </trkpt>
      <trkpt lat="48.38541" lon="7.27187">
        <ele>987</ele>
        <time>2020-06-24T09:36:52.164Z</time>
      </trkpt>
      <trkpt lat="48.38541" lon="7.2719">
        <ele>986</ele>
        <time>2020-06-24T09:36:53.163Z</time>
      </trkpt>
      <trkpt lat="48.3854" lon="7.27192">
        <ele>986</ele>
        <time>2020-06-24T09:36:54.164Z</time>
      </trkpt>
      <trkpt lat="48.38539" lon="7.27195">
        <ele>985</ele>
        <time>2020-06-24T09:36:55.164Z</time>
      </trkpt>
      <trkpt lat="48.38538" lon="7.27197">
        <ele>984</ele>
        <time>2020-06-24T09:36:56.164Z</time>
      </trkpt>
      <trkpt lat="48.38538" lon="7.27199">
        <ele>984</ele>
        <time>2020-06-24T09:36:57.163Z</time>
      </trkpt>
      <trkpt lat="48.38537" lon="7.272">
        <ele>983</ele>
        <time>2020-06-24T09:36:58.164Z</time>
      </trkpt>
      <trkpt lat="48.38537" lon="7.27202">
        <ele>983</ele>
        <time>2020-06-24T09:36:59.163Z</time>
      </trkpt>
      <trkpt lat="48.38537" lon="7.27205">
        <ele>982</ele>
        <time>2020-06-24T09:37:00.163Z</time>
      </trkpt>
      <trkpt lat="48.38536" lon="7.27208">
        <ele>982</ele>
        <time>2020-06-24T09:37:01.164Z</time>
      </trkpt>
      <trkpt lat="48.38537" lon="7.2721">
        <ele>981</ele>
        <time>2020-06-24T09:37:02.163Z</time>
      </trkpt>
      <trkpt lat="48.38536" lon="7.27213">
        <ele>981</ele>
        <time>2020-06-24T09:37:03.164Z</time>
      </trkpt>
      <trkpt lat="48.38536" lon="7.27216">
        <ele>981</ele>
        <time>2020-06-24T09:37:04.163Z</time>
      </trkpt>
      <trkpt lat="48.38536" lon="7.27219">
        <ele>981</ele>
        <time>2020-06-24T09:37:05.164Z</time>
      </trkpt>
      <trkpt lat="48.38535" lon="7.27221">
        <ele>981</ele>
        <time>2020-06-24T09:37:06.164Z</time>
      </trkpt>
      <trkpt lat="48.38535" lon="7.27223">
        <ele>981</ele>
        <time>2020-06-24T09:37:07.164Z</time>
      </trkpt>
      <trkpt lat="48.38535" lon="7.27225">
        <ele>981</ele>
        <time>2020-06-24T09:37:08.164Z</time>
      </trkpt>
      <trkpt lat="48.38534" lon="7.27228">
        <ele>981</ele>
        <time>2020-06-24T09:37:09.164Z</time>
      </trkpt>
      <trkpt lat="48.38534" lon="7.27231">
        <ele>981</ele>
        <time>2020-06-24T09:37:10.164Z</time>
      </trkpt>
      <trkpt lat="48.38534" lon="7.27234">
        <ele>981</ele>
        <time>2020-06-24T09:37:11.164Z</time>
      </trkpt>
      <trkpt lat="48.38534" lon="7.27237">
        <ele>981</ele>
        <time>2020-06-24T09:37:12.164Z</time>
      </trkpt>
      <trkpt lat="48.38534" lon="7.27239">
        <ele>980</ele>
        <time>2020-06-24T09:37:13.164Z</time>
      </trkpt>
      <trkpt lat="48.38533" lon="7.27241">
        <ele>980</ele>
        <time>2020-06-24T09:37:14.164Z</time>
      </trkpt>
      <trkpt lat="48.38533" lon="7.27243">
        <ele>980</ele>
        <time>2020-06-24T09:37:15.164Z</time>
      </trkpt>
      <trkpt lat="48.38533" lon="7.27245">
        <ele>979</ele>
        <time>2020-06-24T09:37:16.164Z</time>
      </trkpt>
      <trkpt lat="48.38532" lon="7.27247">
        <ele>979</ele>
        <time>2020-06-24T09:37:17.164Z</time>
      </trkpt>
      <trkpt lat="48.38532" lon="7.27249">
        <ele>978</ele>
        <time>2020-06-24T09:37:18.163Z</time>
      </trkpt>
      <trkpt lat="48.38531" lon="7.27252">
        <ele>978</ele>
        <time>2020-06-24T09:37:19.163Z</time>
      </trkpt>
      <trkpt lat="48.38531" lon="7.27253">
        <ele>977</ele>
        <time>2020-06-24T09:37:20.164Z</time>
      </trkpt>
      <trkpt lat="48.38532" lon="7.27255">
        <ele>977</ele>
        <time>2020-06-24T09:37:21.164Z</time>
      </trkpt>
      <trkpt lat="48.38533" lon="7.27257">
        <ele>976</ele>
        <time>2020-06-24T09:37:22.164Z</time>
      </trkpt>
      <trkpt lat="48.38532" lon="7.27259">
        <ele>976</ele>
        <time>2020-06-24T09:37:23.164Z</time>
      </trkpt>
      <trkpt lat="48.38531" lon="7.27261">
        <ele>976</ele>
        <time>2020-06-24T09:37:24.164Z</time>
      </trkpt>
      <trkpt lat="48.3853" lon="7.27263">
        <ele>976</ele>
        <time>2020-06-24T09:37:25.164Z</time>
      </trkpt>
      <trkpt lat="48.38529" lon="7.27265">
        <ele>975</ele>
        <time>2020-06-24T09:37:26.164Z</time>
      </trkpt>
      <trkpt lat="48.38529" lon="7.27267">
        <ele>975</ele>
        <time>2020-06-24T09:37:27.164Z</time>
      </trkpt>
      <trkpt lat="48.38529" lon="7.27269">
        <ele>976</ele>
        <time>2020-06-24T09:37:28.163Z</time>
      </trkpt>
      <trkpt lat="48.38528" lon="7.27271">
        <ele>976</ele>
        <time>2020-06-24T09:37:29.163Z</time>
      </trkpt>
      <trkpt lat="48.38528" lon="7.27273">
        <ele>976</ele>
        <time>2020-06-24T09:37:30.164Z</time>
      </trkpt>
      <trkpt lat="48.38527" lon="7.27276">
        <ele>975</ele>
        <time>2020-06-24T09:37:31.164Z</time>
      </trkpt>
      <trkpt lat="48.38527" lon="7.27278">
        <ele>975</ele>
        <time>2020-06-24T09:37:32.164Z</time>
      </trkpt>
      <trkpt lat="48.38527" lon="7.2728">
        <ele>974</ele>
        <time>2020-06-24T09:37:33.163Z</time>
      </trkpt>
      <trkpt lat="48.38526" lon="7.27282">
        <ele>974</ele>
        <time>2020-06-24T09:37:34.163Z</time>
      </trkpt>
      <trkpt lat="48.38526" lon="7.27285">
        <ele>973</ele>
        <time>2020-06-24T09:37:35.164Z</time>
      </trkpt>
      <trkpt lat="48.38526" lon="7.27287">
        <ele>973</ele>
        <time>2020-06-24T09:37:36.164Z</time>
      </trkpt>
      <trkpt lat="48.38525" lon="7.2729">
        <ele>973</ele>
        <time>2020-06-24T09:37:37.164Z</time>
      </trkpt>
      <trkpt lat="48.38525" lon="7.27293">
        <ele>973</ele>
        <time>2020-06-24T09:37:38.163Z</time>
      </trkpt>
      <trkpt lat="48.38525" lon="7.27296">
        <ele>972</ele>
        <time>2020-06-24T09:37:39.164Z</time>
      </trkpt>
      <trkpt lat="48.38526" lon="7.27299">
        <ele>972</ele>
        <time>2020-06-24T09:37:40.163Z</time>
      </trkpt>
      <trkpt lat="48.38526" lon="7.27302">
        <ele>972</ele>
        <time>2020-06-24T09:37:41.164Z</time>
      </trkpt>
      <trkpt lat="48.38527" lon="7.27304">
        <ele>971</ele>
        <time>2020-06-24T09:37:42.163Z</time>
      </trkpt>
      <trkpt lat="48.38527" lon="7.27305">
        <ele>971</ele>
        <time>2020-06-24T09:37:43.164Z</time>
      </trkpt>
      <trkpt lat="48.38527" lon="7.27307">
        <ele>971</ele>
        <time>2020-06-24T09:37:44.163Z</time>
      </trkpt>
      <trkpt lat="48.38526" lon="7.27309">
        <ele>971</ele>
        <time>2020-06-24T09:37:45.163Z</time>
      </trkpt>
      <trkpt lat="48.38526" lon="7.2731">
        <ele>972</ele>
        <time>2020-06-24T09:37:46.164Z</time>
      </trkpt>
      <trkpt lat="48.38526" lon="7.27312">
        <ele>973</ele>
        <time>2020-06-24T09:37:47.164Z</time>
      </trkpt>
      <trkpt lat="48.38526" lon="7.27315">
        <ele>974</ele>
        <time>2020-06-24T09:37:48.164Z</time>
      </trkpt>
      <trkpt lat="48.38526" lon="7.27317">
        <ele>974</ele>
        <time>2020-06-24T09:37:49.163Z</time>
      </trkpt>
      <trkpt lat="48.38525" lon="7.2732">
        <ele>975</ele>
        <time>2020-06-24T09:37:50.163Z</time>
      </trkpt>
      <trkpt lat="48.38525" lon="7.27322">
        <ele>976</ele>
        <time>2020-06-24T09:37:51.163Z</time>
      </trkpt>
      <trkpt lat="48.38525" lon="7.27324">
        <ele>976</ele>
        <time>2020-06-24T09:37:52.164Z</time>
      </trkpt>
      <trkpt lat="48.38524" lon="7.27326">
        <ele>976</ele>
        <time>2020-06-24T09:37:53.163Z</time>
      </trkpt>
      <trkpt lat="48.38524" lon="7.27328">
        <ele>977</ele>
        <time>2020-06-24T09:37:54.163Z</time>
      </trkpt>
      <trkpt lat="48.38524" lon="7.27329">
        <ele>977</ele>
        <time>2020-06-24T09:37:55.163Z</time>
      </trkpt>
      <trkpt lat="48.38523" lon="7.27331">
        <ele>977</ele>
        <time>2020-06-24T09:37:56.163Z</time>
      </trkpt>
      <trkpt lat="48.38523" lon="7.27332">
        <ele>977</ele>
        <time>2020-06-24T09:37:57.164Z</time>
      </trkpt>
      <trkpt lat="48.38522" lon="7.27334">
        <ele>978</ele>
        <time>2020-06-24T09:37:58.163Z</time>
      </trkpt>
      <trkpt lat="48.38521" lon="7.27336">
        <ele>978</ele>
        <time>2020-06-24T09:37:59.163Z</time>
      </trkpt>
      <trkpt lat="48.3852" lon="7.27339">
        <ele>978</ele>
        <time>2020-06-24T09:38:00.163Z</time>
      </trkpt>
      <trkpt lat="48.38519" lon="7.27341">
        <ele>978</ele>
        <time>2020-06-24T09:38:01.163Z</time>
      </trkpt>
      <trkpt lat="48.38518" lon="7.27343">
        <ele>979</ele>
        <time>2020-06-24T09:38:02.164Z</time>
      </trkpt>
      <trkpt lat="48.38518" lon="7.27345">
        <ele>979</ele>
        <time>2020-06-24T09:38:03.164Z</time>
      </trkpt>
      <trkpt lat="48.38516" lon="7.27347">
        <ele>979</ele>
        <time>2020-06-24T09:38:04.164Z</time>
      </trkpt>
      <trkpt lat="48.38515" lon="7.2735">
        <ele>979</ele>
        <time>2020-06-24T09:38:05.163Z</time>
      </trkpt>
      <trkpt lat="48.38514" lon="7.27352">
        <ele>979</ele>
        <time>2020-06-24T09:38:06.163Z</time>
      </trkpt>
      <trkpt lat="48.38513" lon="7.27353">
        <ele>979</ele>
        <time>2020-06-24T09:38:07.164Z</time>
      </trkpt>
      <trkpt lat="48.38512" lon="7.27355">
        <ele>978</ele>
        <time>2020-06-24T09:38:08.164Z</time>
      </trkpt>
      <trkpt lat="48.38511" lon="7.27357">
        <ele>978</ele>
        <time>2020-06-24T09:38:09.164Z</time>
      </trkpt>
      <trkpt lat="48.38509" lon="7.27359">
        <ele>978</ele>
        <time>2020-06-24T09:38:10.163Z</time>
      </trkpt>
      <trkpt lat="48.38508" lon="7.2736">
        <ele>978</ele>
        <time>2020-06-24T09:38:11.163Z</time>
      </trkpt>
      <trkpt lat="48.38507" lon="7.27362">
        <ele>978</ele>
        <time>2020-06-24T09:38:12.164Z</time>
      </trkpt>
      <trkpt lat="48.38506" lon="7.27364">
        <ele>979</ele>
        <time>2020-06-24T09:38:13.163Z</time>
      </trkpt>
      <trkpt lat="48.38504" lon="7.27366">
        <ele>979</ele>
        <time>2020-06-24T09:38:14.164Z</time>
      </trkpt>
      <trkpt lat="48.38503" lon="7.27369">
        <ele>979</ele>
        <time>2020-06-24T09:38:15.163Z</time>
      </trkpt>
      <trkpt lat="48.38502" lon="7.27373">
        <ele>980</ele>
        <time>2020-06-24T09:38:16.164Z</time>
      </trkpt>
      <trkpt lat="48.38501" lon="7.27375">
        <ele>980</ele>
        <time>2020-06-24T09:38:17.163Z</time>
      </trkpt>
      <trkpt lat="48.38499" lon="7.27377">
        <ele>981</ele>
        <time>2020-06-24T09:38:18.163Z</time>
      </trkpt>
      <trkpt lat="48.38498" lon="7.27379">
        <ele>980</ele>
        <time>2020-06-24T09:38:19.163Z</time>
      </trkpt>
      <trkpt lat="48.38497" lon="7.2738">
        <ele>980</ele>
        <time>2020-06-24T09:38:20.163Z</time>
      </trkpt>
      <trkpt lat="48.38496" lon="7.27383">
        <ele>979</ele>
        <time>2020-06-24T09:38:21.163Z</time>
      </trkpt>
      <trkpt lat="48.38495" lon="7.27385">
        <ele>978</ele>
        <time>2020-06-24T09:38:22.164Z</time>
      </trkpt>
      <trkpt lat="48.38494" lon="7.27387">
        <ele>977</ele>
        <time>2020-06-24T09:38:23.163Z</time>
      </trkpt>
      <trkpt lat="48.38494" lon="7.2739">
        <ele>977</ele>
        <time>2020-06-24T09:38:24.163Z</time>
      </trkpt>
      <trkpt lat="48.38493" lon="7.27391">
        <ele>976</ele>
        <time>2020-06-24T09:38:25.163Z</time>
      </trkpt>
      <trkpt lat="48.38492" lon="7.27393">
        <ele>975</ele>
        <time>2020-06-24T09:38:26.164Z</time>
      </trkpt>
      <trkpt lat="48.38491" lon="7.27395">
        <ele>974</ele>
        <time>2020-06-24T09:38:27.164Z</time>
      </trkpt>
      <trkpt lat="48.38489" lon="7.27398">
        <ele>974</ele>
        <time>2020-06-24T09:38:28.163Z</time>
      </trkpt>
      <trkpt lat="48.38488" lon="7.27399">
        <ele>973</ele>
        <time>2020-06-24T09:38:29.164Z</time>
      </trkpt>
      <trkpt lat="48.38487" lon="7.274">
        <ele>973</ele>
        <time>2020-06-24T09:38:30.163Z</time>
      </trkpt>
      <trkpt lat="48.38485" lon="7.27402">
        <ele>972</ele>
        <time>2020-06-24T09:38:31.164Z</time>
      </trkpt>
      <trkpt lat="48.38483" lon="7.27403">
        <ele>972</ele>
        <time>2020-06-24T09:38:32.164Z</time>
      </trkpt>
      <trkpt lat="48.38483" lon="7.27404">
        <ele>972</ele>
        <time>2020-06-24T09:38:33.163Z</time>
      </trkpt>
      <trkpt lat="48.38483" lon="7.27406">
        <ele>972</ele>
        <time>2020-06-24T09:38:34.163Z</time>
      </trkpt>
      <trkpt lat="48.38482" lon="7.27407">
        <ele>972</ele>
        <time>2020-06-24T09:38:35.163Z</time>
      </trkpt>
      <trkpt lat="48.38481" lon="7.27409">
        <ele>972</ele>
        <time>2020-06-24T09:38:36.164Z</time>
      </trkpt>
      <trkpt lat="48.3848" lon="7.2741">
        <ele>972</ele>
        <time>2020-06-24T09:38:37.163Z</time>
      </trkpt>
      <trkpt lat="48.38479" lon="7.27412">
        <ele>972</ele>
        <time>2020-06-24T09:38:38.164Z</time>
      </trkpt>
      <trkpt lat="48.38477" lon="7.27413">
        <ele>972</ele>
        <time>2020-06-24T09:38:39.163Z</time>
      </trkpt>
      <trkpt lat="48.38476" lon="7.27414">
        <ele>972</ele>
        <time>2020-06-24T09:38:40.163Z</time>
      </trkpt>
      <trkpt lat="48.38474" lon="7.27416">
        <ele>972</ele>
        <time>2020-06-24T09:38:41.164Z</time>
      </trkpt>
      <trkpt lat="48.38473" lon="7.27417">
        <ele>971</ele>
        <time>2020-06-24T09:38:42.164Z</time>
      </trkpt>
      <trkpt lat="48.38472" lon="7.27419">
        <ele>971</ele>
        <time>2020-06-24T09:38:43.163Z</time>
      </trkpt>
      <trkpt lat="48.38471" lon="7.2742">
        <ele>971</ele>
        <time>2020-06-24T09:38:44.164Z</time>
      </trkpt>
      <trkpt lat="48.38469" lon="7.27421">
        <ele>970</ele>
        <time>2020-06-24T09:38:45.163Z</time>
      </trkpt>
      <trkpt lat="48.38468" lon="7.27422">
        <ele>970</ele>
        <time>2020-06-24T09:38:46.163Z</time>
      </trkpt>
      <trkpt lat="48.38467" lon="7.27424">
        <ele>970</ele>
        <time>2020-06-24T09:38:47.164Z</time>
      </trkpt>
      <trkpt lat="48.38465" lon="7.27426">
        <ele>970</ele>
        <time>2020-06-24T09:38:48.163Z</time>
      </trkpt>
      <trkpt lat="48.38463" lon="7.27427">
        <ele>970</ele>
        <time>2020-06-24T09:38:49.163Z</time>
      </trkpt>
      <trkpt lat="48.38461" lon="7.27428">
        <ele>969</ele>
        <time>2020-06-24T09:38:50.163Z</time>
      </trkpt>
      <trkpt lat="48.38459" lon="7.27429">
        <ele>969</ele>
        <time>2020-06-24T09:38:51.163Z</time>
      </trkpt>
      <trkpt lat="48.38457" lon="7.27431">
        <ele>968</ele>
        <time>2020-06-24T09:38:52.164Z</time>
      </trkpt>
      <trkpt lat="48.38456" lon="7.27432">
        <ele>968</ele>
        <time>2020-06-24T09:38:53.163Z</time>
      </trkpt>
      <trkpt lat="48.38455" lon="7.27433">
        <ele>968</ele>
        <time>2020-06-24T09:38:54.164Z</time>
      </trkpt>
      <trkpt lat="48.38454" lon="7.27435">
        <ele>968</ele>
        <time>2020-06-24T09:38:55.163Z</time>
      </trkpt>
      <trkpt lat="48.38453" lon="7.27435">
        <ele>968</ele>
        <time>2020-06-24T09:38:56.163Z</time>
      </trkpt>
      <trkpt lat="48.38451" lon="7.27436">
        <ele>968</ele>
        <time>2020-06-24T09:38:57.163Z</time>
      </trkpt>
      <trkpt lat="48.3845" lon="7.27437">
        <ele>968</ele>
        <time>2020-06-24T09:38:58.163Z</time>
      </trkpt>
      <trkpt lat="48.3845" lon="7.27438">
        <ele>968</ele>
        <time>2020-06-24T09:38:59.164Z</time>
      </trkpt>
      <trkpt lat="48.38449" lon="7.27439">
        <ele>967</ele>
        <time>2020-06-24T09:39:00.163Z</time>
      </trkpt>
      <trkpt lat="48.38448" lon="7.27441">
        <ele>967</ele>
        <time>2020-06-24T09:39:01.163Z</time>
      </trkpt>
      <trkpt lat="48.38447" lon="7.27442">
        <ele>967</ele>
        <time>2020-06-24T09:39:02.163Z</time>
      </trkpt>
      <trkpt lat="48.38445" lon="7.27444">
        <ele>966</ele>
        <time>2020-06-24T09:39:03.163Z</time>
      </trkpt>
      <trkpt lat="48.38444" lon="7.27445">
        <ele>966</ele>
        <time>2020-06-24T09:39:04.164Z</time>
      </trkpt>
      <trkpt lat="48.38443" lon="7.27447">
        <ele>967</ele>
        <time>2020-06-24T09:39:05.164Z</time>
      </trkpt>
      <trkpt lat="48.38443" lon="7.27448">
        <ele>967</ele>
        <time>2020-06-24T09:39:06.164Z</time>
      </trkpt>
      <trkpt lat="48.38442" lon="7.2745">
        <ele>968</ele>
        <time>2020-06-24T09:39:07.164Z</time>
      </trkpt>
      <trkpt lat="48.38441" lon="7.27451">
        <ele>969</ele>
        <time>2020-06-24T09:39:08.164Z</time>
      </trkpt>
      <trkpt lat="48.3844" lon="7.27452">
        <ele>969</ele>
        <time>2020-06-24T09:39:09.164Z</time>
      </trkpt>
      <trkpt lat="48.38439" lon="7.27454">
        <ele>969</ele>
        <time>2020-06-24T09:39:10.164Z</time>
      </trkpt>
      <trkpt lat="48.38437" lon="7.27455">
        <ele>969</ele>
        <time>2020-06-24T09:39:11.164Z</time>
      </trkpt>
      <trkpt lat="48.38436" lon="7.27457">
        <ele>968</ele>
        <time>2020-06-24T09:39:12.164Z</time>
      </trkpt>
      <trkpt lat="48.38435" lon="7.27458">
        <ele>968</ele>
        <time>2020-06-24T09:39:13.164Z</time>
      </trkpt>
      <trkpt lat="48.38434" lon="7.2746">
        <ele>967</ele>
        <time>2020-06-24T09:39:14.164Z</time>
      </trkpt>
      <trkpt lat="48.38432" lon="7.27462">
        <ele>967</ele>
        <time>2020-06-24T09:39:15.163Z</time>
      </trkpt>
      <trkpt lat="48.38431" lon="7.27463">
        <ele>966</ele>
        <time>2020-06-24T09:39:16.164Z</time>
      </trkpt>
      <trkpt lat="48.3843" lon="7.27465">
        <ele>966</ele>
        <time>2020-06-24T09:39:17.164Z</time>
      </trkpt>
      <trkpt lat="48.38429" lon="7.27466">
        <ele>966</ele>
        <time>2020-06-24T09:39:18.164Z</time>
      </trkpt>
      <trkpt lat="48.38427" lon="7.27467">
        <ele>966</ele>
        <time>2020-06-24T09:39:19.164Z</time>
      </trkpt>
      <trkpt lat="48.38426" lon="7.27468">
        <ele>966</ele>
        <time>2020-06-24T09:39:20.164Z</time>
      </trkpt>
      <trkpt lat="48.38425" lon="7.27469">
        <ele>965</ele>
        <time>2020-06-24T09:39:21.163Z</time>
      </trkpt>
      <trkpt lat="48.38424" lon="7.2747">
        <ele>965</ele>
        <time>2020-06-24T09:39:22.164Z</time>
      </trkpt>
      <trkpt lat="48.38422" lon="7.2747">
        <ele>964</ele>
        <time>2020-06-24T09:39:23.163Z</time>
      </trkpt>
      <trkpt lat="48.3842" lon="7.2747">
        <ele>964</ele>
        <time>2020-06-24T09:39:24.164Z</time>
      </trkpt>
      <trkpt lat="48.38419" lon="7.27472">
        <ele>963</ele>
        <time>2020-06-24T09:39:25.164Z</time>
      </trkpt>
      <trkpt lat="48.38418" lon="7.27473">
        <ele>963</ele>
        <time>2020-06-24T09:39:26.163Z</time>
      </trkpt>
      <trkpt lat="48.38416" lon="7.27474">
        <ele>962</ele>
        <time>2020-06-24T09:39:27.163Z</time>
      </trkpt>
      <trkpt lat="48.38415" lon="7.27475">
        <ele>962</ele>
        <time>2020-06-24T09:39:28.164Z</time>
      </trkpt>
      <trkpt lat="48.38414" lon="7.27476">
        <ele>961</ele>
        <time>2020-06-24T09:39:29.164Z</time>
      </trkpt>
      <trkpt lat="48.38413" lon="7.27477">
        <ele>960</ele>
        <time>2020-06-24T09:39:30.164Z</time>
      </trkpt>
      <trkpt lat="48.38412" lon="7.27478">
        <ele>960</ele>
        <time>2020-06-24T09:39:31.164Z</time>
      </trkpt>
      <trkpt lat="48.38411" lon="7.2748">
        <ele>959</ele>
        <time>2020-06-24T09:39:32.164Z</time>
      </trkpt>
      <trkpt lat="48.3841" lon="7.27481">
        <ele>958</ele>
        <time>2020-06-24T09:39:33.164Z</time>
      </trkpt>
      <trkpt lat="48.38409" lon="7.27483">
        <ele>958</ele>
        <time>2020-06-24T09:39:34.163Z</time>
      </trkpt>
      <trkpt lat="48.38408" lon="7.27484">
        <ele>958</ele>
        <time>2020-06-24T09:39:35.163Z</time>
      </trkpt>
      <trkpt lat="48.38407" lon="7.27486">
        <ele>958</ele>
        <time>2020-06-24T09:39:36.163Z</time>
      </trkpt>
      <trkpt lat="48.38406" lon="7.27487">
        <ele>958</ele>
        <time>2020-06-24T09:39:37.164Z</time>
      </trkpt>
      <trkpt lat="48.38405" lon="7.27489">
        <ele>958</ele>
        <time>2020-06-24T09:39:38.164Z</time>
      </trkpt>
      <trkpt lat="48.38404" lon="7.27491">
        <ele>958</ele>
        <time>2020-06-24T09:39:39.164Z</time>
      </trkpt>
      <trkpt lat="48.38403" lon="7.27492">
        <ele>958</ele>
        <time>2020-06-24T09:39:40.164Z</time>
      </trkpt>
      <trkpt lat="48.38402" lon="7.27494">
        <ele>958</ele>
        <time>2020-06-24T09:39:41.164Z</time>
      </trkpt>
      <trkpt lat="48.38401" lon="7.27495">
        <ele>958</ele>
        <time>2020-06-24T09:39:42.164Z</time>
      </trkpt>
      <trkpt lat="48.384" lon="7.27496">
        <ele>958</ele>
        <time>2020-06-24T09:39:43.164Z</time>
      </trkpt>
      <trkpt lat="48.38398" lon="7.27498">
        <ele>958</ele>
        <time>2020-06-24T09:39:44.163Z</time>
      </trkpt>
      <trkpt lat="48.38397" lon="7.275">
        <ele>958</ele>
        <time>2020-06-24T09:39:45.164Z</time>
      </trkpt>
      <trkpt lat="48.38395" lon="7.27502">
        <ele>959</ele>
        <time>2020-06-24T09:39:46.164Z</time>
      </trkpt>
      <trkpt lat="48.38394" lon="7.27504">
        <ele>959</ele>
        <time>2020-06-24T09:39:47.164Z</time>
      </trkpt>
      <trkpt lat="48.38392" lon="7.27506">
        <ele>958</ele>
        <time>2020-06-24T09:39:48.163Z</time>
      </trkpt>
      <trkpt lat="48.38391" lon="7.27508">
        <ele>958</ele>
        <time>2020-06-24T09:39:49.164Z</time>
      </trkpt>
      <trkpt lat="48.38389" lon="7.27509">
        <ele>958</ele>
        <time>2020-06-24T09:39:50.164Z</time>
      </trkpt>
      <trkpt lat="48.38389" lon="7.2751">
        <ele>958</ele>
        <time>2020-06-24T09:39:51.164Z</time>
      </trkpt>
      <trkpt lat="48.38388" lon="7.27511">
        <ele>958</ele>
        <time>2020-06-24T09:39:52.164Z</time>
      </trkpt>
      <trkpt lat="48.38388" lon="7.27513">
        <ele>957</ele>
        <time>2020-06-24T09:39:53.163Z</time>
      </trkpt>
      <trkpt lat="48.38388" lon="7.27514">
        <ele>957</ele>
        <time>2020-06-24T09:39:54.163Z</time>
      </trkpt>
      <trkpt lat="48.38388" lon="7.27516">
        <ele>956</ele>
        <time>2020-06-24T09:39:55.164Z</time>
      </trkpt>
      <trkpt lat="48.38388" lon="7.27518">
        <ele>955</ele>
        <time>2020-06-24T09:39:56.164Z</time>
      </trkpt>
      <trkpt lat="48.38388" lon="7.2752">
        <ele>954</ele>
        <time>2020-06-24T09:39:57.164Z</time>
      </trkpt>
      <trkpt lat="48.38388" lon="7.27522">
        <ele>953</ele>
        <time>2020-06-24T09:39:58.164Z</time>
      </trkpt>
      <trkpt lat="48.38387" lon="7.27524">
        <ele>952</ele>
        <time>2020-06-24T09:39:59.164Z</time>
      </trkpt>
      <trkpt lat="48.38387" lon="7.27526">
        <ele>951</ele>
        <time>2020-06-24T09:40:00.164Z</time>
      </trkpt>
      <trkpt lat="48.38386" lon="7.27528">
        <ele>950</ele>
        <time>2020-06-24T09:40:01.164Z</time>
      </trkpt>
      <trkpt lat="48.38386" lon="7.2753">
        <ele>950</ele>
        <time>2020-06-24T09:40:02.163Z</time>
      </trkpt>
      <trkpt lat="48.38386" lon="7.27531">
        <ele>949</ele>
        <time>2020-06-24T09:40:03.164Z</time>
      </trkpt>
      <trkpt lat="48.38385" lon="7.27533">
        <ele>949</ele>
        <time>2020-06-24T09:40:04.164Z</time>
      </trkpt>
      <trkpt lat="48.38385" lon="7.27536">
        <ele>949</ele>
        <time>2020-06-24T09:40:05.164Z</time>
      </trkpt>
      <trkpt lat="48.38385" lon="7.27538">
        <ele>949</ele>
        <time>2020-06-24T09:40:06.163Z</time>
      </trkpt>
      <trkpt lat="48.38385" lon="7.2754">
        <ele>949</ele>
        <time>2020-06-24T09:40:07.163Z</time>
      </trkpt>
      <trkpt lat="48.38384" lon="7.27542">
        <ele>949</ele>
        <time>2020-06-24T09:40:08.164Z</time>
      </trkpt>
      <trkpt lat="48.38384" lon="7.27545">
        <ele>949</ele>
        <time>2020-06-24T09:40:09.164Z</time>
      </trkpt>
      <trkpt lat="48.38384" lon="7.27547">
        <ele>949</ele>
        <time>2020-06-24T09:40:10.163Z</time>
      </trkpt>
      <trkpt lat="48.38384" lon="7.27549">
        <ele>949</ele>
        <time>2020-06-24T09:40:11.164Z</time>
      </trkpt>
      <trkpt lat="48.38384" lon="7.27551">
        <ele>950</ele>
        <time>2020-06-24T09:40:12.164Z</time>
      </trkpt>
      <trkpt lat="48.38384" lon="7.27552">
        <ele>950</ele>
        <time>2020-06-24T09:40:13.164Z</time>
      </trkpt>
      <trkpt lat="48.38384" lon="7.27554">
        <ele>950</ele>
        <time>2020-06-24T09:40:14.164Z</time>
      </trkpt>
      <trkpt lat="48.38383" lon="7.27555">
        <ele>950</ele>
        <time>2020-06-24T09:40:15.164Z</time>
      </trkpt>
      <trkpt lat="48.38383" lon="7.27557">
        <ele>950</ele>
        <time>2020-06-24T09:40:16.164Z</time>
      </trkpt>
      <trkpt lat="48.38383" lon="7.27559">
        <ele>950</ele>
        <time>2020-06-24T09:40:17.163Z</time>
      </trkpt>
      <trkpt lat="48.38383" lon="7.27562">
        <ele>950</ele>
        <time>2020-06-24T09:40:18.164Z</time>
      </trkpt>
      <trkpt lat="48.38384" lon="7.27564">
        <ele>951</ele>
        <time>2020-06-24T09:40:19.164Z</time>
      </trkpt>
      <trkpt lat="48.38384" lon="7.27566">
        <ele>951</ele>
        <time>2020-06-24T09:40:20.164Z</time>
      </trkpt>
      <trkpt lat="48.38383" lon="7.27567">
        <ele>951</ele>
        <time>2020-06-24T09:40:21.164Z</time>
      </trkpt>
      <trkpt lat="48.38383" lon="7.2757">
        <ele>951</ele>
        <time>2020-06-24T09:40:22.164Z</time>
      </trkpt>
      <trkpt lat="48.38383" lon="7.27572">
        <ele>952</ele>
        <time>2020-06-24T09:40:23.164Z</time>
      </trkpt>
      <trkpt lat="48.38383" lon="7.27574">
        <ele>952</ele>
        <time>2020-06-24T09:40:24.163Z</time>
      </trkpt>
      <trkpt lat="48.38383" lon="7.27576">
        <ele>951</ele>
        <time>2020-06-24T09:40:25.164Z</time>
      </trkpt>
      <trkpt lat="48.38383" lon="7.27578">
        <ele>952</ele>
        <time>2020-06-24T09:40:26.164Z</time>
      </trkpt>
      <trkpt lat="48.38383" lon="7.2758">
        <ele>951</ele>
        <time>2020-06-24T09:40:27.164Z</time>
      </trkpt>
      <trkpt lat="48.38383" lon="7.27582">
        <ele>951</ele>
        <time>2020-06-24T09:40:28.164Z</time>
      </trkpt>
      <trkpt lat="48.38383" lon="7.27585">
        <ele>951</ele>
        <time>2020-06-24T09:40:29.164Z</time>
      </trkpt>
      <trkpt lat="48.38383" lon="7.27587">
        <ele>950</ele>
        <time>2020-06-24T09:40:30.163Z</time>
      </trkpt>
      <trkpt lat="48.38384" lon="7.27588">
        <ele>950</ele>
        <time>2020-06-24T09:40:31.164Z</time>
      </trkpt>
      <trkpt lat="48.38384" lon="7.27589">
        <ele>950</ele>
        <time>2020-06-24T09:40:32.163Z</time>
      </trkpt>
      <trkpt lat="48.38385" lon="7.27591">
        <ele>949</ele>
        <time>2020-06-24T09:40:33.163Z</time>
      </trkpt>
      <trkpt lat="48.38386" lon="7.27594">
        <ele>949</ele>
        <time>2020-06-24T09:40:34.163Z</time>
      </trkpt>
      <trkpt lat="48.38386" lon="7.27596">
        <ele>949</ele>
        <time>2020-06-24T09:40:35.164Z</time>
      </trkpt>
      <trkpt lat="48.38386" lon="7.27597">
        <ele>949</ele>
        <time>2020-06-24T09:40:36.164Z</time>
      </trkpt>
      <trkpt lat="48.38386" lon="7.27599">
        <ele>948</ele>
        <time>2020-06-24T09:40:37.164Z</time>
      </trkpt>
      <trkpt lat="48.38386" lon="7.27601">
        <ele>948</ele>
        <time>2020-06-24T09:40:38.163Z</time>
      </trkpt>
      <trkpt lat="48.38386" lon="7.27603">
        <ele>947</ele>
        <time>2020-06-24T09:40:39.163Z</time>
      </trkpt>
      <trkpt lat="48.38386" lon="7.27604">
        <ele>947</ele>
        <time>2020-06-24T09:40:40.164Z</time>
      </trkpt>
      <trkpt lat="48.38386" lon="7.27605">
        <ele>947</ele>
        <time>2020-06-24T09:40:41.164Z</time>
      </trkpt>
      <trkpt lat="48.38386" lon="7.27607">
        <ele>946</ele>
        <time>2020-06-24T09:40:42.164Z</time>
      </trkpt>
      <trkpt lat="48.38386" lon="7.27608">
        <ele>946</ele>
        <time>2020-06-24T09:40:43.164Z</time>
      </trkpt>
      <trkpt lat="48.38387" lon="7.2761">
        <ele>946</ele>
        <time>2020-06-24T09:40:44.164Z</time>
      </trkpt>
      <trkpt lat="48.38387" lon="7.27612">
        <ele>945</ele>
        <time>2020-06-24T09:40:45.164Z</time>
      </trkpt>
      <trkpt lat="48.38388" lon="7.27614">
        <ele>945</ele>
        <time>2020-06-24T09:40:46.164Z</time>
      </trkpt>
      <trkpt lat="48.38388" lon="7.27617">
        <ele>945</ele>
        <time>2020-06-24T09:40:47.164Z</time>
      </trkpt>
      <trkpt lat="48.38388" lon="7.27619">
        <ele>945</ele>
        <time>2020-06-24T09:40:48.163Z</time>
      </trkpt>
      <trkpt lat="48.38389" lon="7.27623">
        <ele>945</ele>
        <time>2020-06-24T09:40:49.163Z</time>
      </trkpt>
      <trkpt lat="48.3839" lon="7.27625">
        <ele>945</ele>
        <time>2020-06-24T09:40:50.164Z</time>
      </trkpt>
      <trkpt lat="48.3839" lon="7.27629">
        <ele>944</ele>
        <time>2020-06-24T09:40:51.163Z</time>
      </trkpt>
      <trkpt lat="48.3839" lon="7.27632">
        <ele>944</ele>
        <time>2020-06-24T09:40:52.164Z</time>
      </trkpt>
      <trkpt lat="48.38389" lon="7.27635">
        <ele>943</ele>
        <time>2020-06-24T09:40:53.164Z</time>
      </trkpt>
      <trkpt lat="48.38389" lon="7.27638">
        <ele>942</ele>
        <time>2020-06-24T09:40:54.164Z</time>
      </trkpt>
      <trkpt lat="48.38389" lon="7.27641">
        <ele>941</ele>
        <time>2020-06-24T09:40:55.164Z</time>
      </trkpt>
      <trkpt lat="48.38389" lon="7.27643">
        <ele>940</ele>
        <time>2020-06-24T09:40:56.164Z</time>
      </trkpt>
      <trkpt lat="48.38389" lon="7.27646">
        <ele>939</ele>
        <time>2020-06-24T09:40:57.164Z</time>
      </trkpt>
      <trkpt lat="48.38389" lon="7.27648">
        <ele>938</ele>
        <time>2020-06-24T09:40:58.163Z</time>
      </trkpt>
      <trkpt lat="48.38389" lon="7.2765">
        <ele>938</ele>
        <time>2020-06-24T09:40:59.164Z</time>
      </trkpt>
      <trkpt lat="48.38389" lon="7.27652">
        <ele>937</ele>
        <time>2020-06-24T09:41:00.164Z</time>
      </trkpt>
      <trkpt lat="48.38389" lon="7.27653">
        <ele>937</ele>
        <time>2020-06-24T09:41:01.164Z</time>
      </trkpt>
      <trkpt lat="48.38389" lon="7.27654">
        <ele>937</ele>
        <time>2020-06-24T09:41:02.163Z</time>
      </trkpt>
      <trkpt lat="48.38389" lon="7.27656">
        <ele>937</ele>
        <time>2020-06-24T09:41:03.164Z</time>
      </trkpt>
      <trkpt lat="48.38389" lon="7.27657">
        <ele>937</ele>
        <time>2020-06-24T09:41:04.164Z</time>
      </trkpt>
      <trkpt lat="48.38389" lon="7.27659">
        <ele>937</ele>
        <time>2020-06-24T09:41:05.164Z</time>
      </trkpt>
      <trkpt lat="48.38389" lon="7.2766">
        <ele>937</ele>
        <time>2020-06-24T09:41:06.163Z</time>
      </trkpt>
      <trkpt lat="48.38389" lon="7.27661">
        <ele>938</ele>
        <time>2020-06-24T09:41:07.163Z</time>
      </trkpt>
      <trkpt lat="48.38389" lon="7.27661">
        <ele>938</ele>
        <time>2020-06-24T09:41:08.164Z</time>
      </trkpt>
      <trkpt lat="48.38388" lon="7.27663">
        <ele>938</ele>
        <time>2020-06-24T09:41:09.164Z</time>
      </trkpt>
      <trkpt lat="48.38386" lon="7.27665">
        <ele>939</ele>
        <time>2020-06-24T09:41:10.164Z</time>
      </trkpt>
      <trkpt lat="48.38385" lon="7.27665">
        <ele>939</ele>
        <time>2020-06-24T09:41:11.164Z</time>
      </trkpt>
      <trkpt lat="48.38385" lon="7.27665">
        <ele>939</ele>
        <time>2020-06-24T09:41:12.163Z</time>
      </trkpt>
      <trkpt lat="48.3839" lon="7.27668">
        <ele>928</ele>
        <time>2020-06-24T09:41:13.164Z</time>
      </trkpt>
      <trkpt lat="48.38391" lon="7.27671">
        <ele>927</ele>
        <time>2020-06-24T09:41:14.164Z</time>
      </trkpt>
      <trkpt lat="48.38391" lon="7.27673">
        <ele>927</ele>
        <time>2020-06-24T09:41:15.164Z</time>
      </trkpt>
      <trkpt lat="48.38391" lon="7.27676">
        <ele>927</ele>
        <time>2020-06-24T09:41:16.164Z</time>
      </trkpt>
      <trkpt lat="48.38391" lon="7.27678">
        <ele>927</ele>
        <time>2020-06-24T09:41:17.164Z</time>
      </trkpt>
      <trkpt lat="48.38391" lon="7.2768">
        <ele>927</ele>
        <time>2020-06-24T09:41:18.163Z</time>
      </trkpt>
      <trkpt lat="48.38391" lon="7.27682">
        <ele>927</ele>
        <time>2020-06-24T09:41:19.163Z</time>
      </trkpt>
      <trkpt lat="48.38391" lon="7.27684">
        <ele>927</ele>
        <time>2020-06-24T09:41:20.164Z</time>
      </trkpt>
      <trkpt lat="48.38392" lon="7.27687">
        <ele>927</ele>
        <time>2020-06-24T09:41:21.164Z</time>
      </trkpt>
      <trkpt lat="48.38392" lon="7.27688">
        <ele>927</ele>
        <time>2020-06-24T09:41:22.164Z</time>
      </trkpt>
      <trkpt lat="48.38392" lon="7.2769">
        <ele>927</ele>
        <time>2020-06-24T09:41:23.164Z</time>
      </trkpt>
      <trkpt lat="48.38391" lon="7.27692">
        <ele>927</ele>
        <time>2020-06-24T09:41:24.163Z</time>
      </trkpt>
      <trkpt lat="48.38391" lon="7.27694">
        <ele>927</ele>
        <time>2020-06-24T09:41:25.164Z</time>
      </trkpt>
      <trkpt lat="48.38391" lon="7.27696">
        <ele>927</ele>
        <time>2020-06-24T09:41:26.164Z</time>
      </trkpt>
      <trkpt lat="48.38391" lon="7.27699">
        <ele>927</ele>
        <time>2020-06-24T09:41:27.164Z</time>
      </trkpt>
      <trkpt lat="48.38391" lon="7.27701">
        <ele>927</ele>
        <time>2020-06-24T09:41:28.163Z</time>
      </trkpt>
      <trkpt lat="48.3839" lon="7.27702">
        <ele>927</ele>
        <time>2020-06-24T09:41:29.163Z</time>
      </trkpt>
      <trkpt lat="48.3839" lon="7.27703">
        <ele>927</ele>
        <time>2020-06-24T09:41:30.164Z</time>
      </trkpt>
      <trkpt lat="48.3839" lon="7.27705">
        <ele>927</ele>
        <time>2020-06-24T09:41:31.163Z</time>
      </trkpt>
      <trkpt lat="48.38389" lon="7.27707">
        <ele>928</ele>
        <time>2020-06-24T09:41:32.164Z</time>
      </trkpt>
      <trkpt lat="48.38389" lon="7.27709">
        <ele>928</ele>
        <time>2020-06-24T09:41:33.164Z</time>
      </trkpt>
      <trkpt lat="48.38389" lon="7.27711">
        <ele>928</ele>
        <time>2020-06-24T09:41:34.164Z</time>
      </trkpt>
      <trkpt lat="48.38389" lon="7.27714">
        <ele>928</ele>
        <time>2020-06-24T09:41:35.163Z</time>
      </trkpt>
      <trkpt lat="48.38388" lon="7.27716">
        <ele>928</ele>
        <time>2020-06-24T09:41:36.164Z</time>
      </trkpt>
      <trkpt lat="48.38388" lon="7.2772">
        <ele>928</ele>
        <time>2020-06-24T09:41:37.163Z</time>
      </trkpt>
      <trkpt lat="48.38388" lon="7.27723">
        <ele>928</ele>
        <time>2020-06-24T09:41:38.163Z</time>
      </trkpt>
      <trkpt lat="48.38388" lon="7.27725">
        <ele>928</ele>
        <time>2020-06-24T09:41:39.164Z</time>
      </trkpt>
      <trkpt lat="48.38388" lon="7.27727">
        <ele>928</ele>
        <time>2020-06-24T09:41:40.163Z</time>
      </trkpt>
      <trkpt lat="48.38388" lon="7.27729">
        <ele>928</ele>
        <time>2020-06-24T09:41:41.164Z</time>
      </trkpt>
      <trkpt lat="48.38387" lon="7.27731">
        <ele>928</ele>
        <time>2020-06-24T09:41:42.164Z</time>
      </trkpt>
      <trkpt lat="48.38387" lon="7.27734">
        <ele>928</ele>
        <time>2020-06-24T09:41:43.164Z</time>
      </trkpt>
      <trkpt lat="48.38387" lon="7.27735">
        <ele>928</ele>
        <time>2020-06-24T09:41:44.164Z</time>
      </trkpt>
      <trkpt lat="48.38387" lon="7.27738">
        <ele>928</ele>
        <time>2020-06-24T09:41:45.164Z</time>
      </trkpt>
      <trkpt lat="48.38387" lon="7.2774">
        <ele>928</ele>
        <time>2020-06-24T09:41:46.164Z</time>
      </trkpt>
      <trkpt lat="48.38386" lon="7.27742">
        <ele>928</ele>
        <time>2020-06-24T09:41:47.164Z</time>
      </trkpt>
      <trkpt lat="48.38387" lon="7.27744">
        <ele>928</ele>
        <time>2020-06-24T09:41:48.164Z</time>
      </trkpt>
      <trkpt lat="48.38387" lon="7.27746">
        <ele>928</ele>
        <time>2020-06-24T09:41:49.163Z</time>
      </trkpt>
      <trkpt lat="48.38387" lon="7.27748">
        <ele>927</ele>
        <time>2020-06-24T09:41:50.164Z</time>
      </trkpt>
      <trkpt lat="48.38387" lon="7.27749">
        <ele>927</ele>
        <time>2020-06-24T09:41:51.164Z</time>
      </trkpt>
      <trkpt lat="48.38386" lon="7.27752">
        <ele>926</ele>
        <time>2020-06-24T09:41:52.163Z</time>
      </trkpt>
      <trkpt lat="48.38386" lon="7.27756">
        <ele>926</ele>
        <time>2020-06-24T09:41:53.164Z</time>
      </trkpt>
      <trkpt lat="48.38385" lon="7.27757">
        <ele>926</ele>
        <time>2020-06-24T09:41:54.163Z</time>
      </trkpt>
      <trkpt lat="48.38385" lon="7.27758">
        <ele>926</ele>
        <time>2020-06-24T09:41:55.164Z</time>
      </trkpt>
      <trkpt lat="48.38385" lon="7.2776">
        <ele>926</ele>
        <time>2020-06-24T09:41:56.164Z</time>
      </trkpt>
      <trkpt lat="48.38385" lon="7.27762">
        <ele>926</ele>
        <time>2020-06-24T09:41:57.164Z</time>
      </trkpt>
      <trkpt lat="48.38384" lon="7.27764">
        <ele>926</ele>
        <time>2020-06-24T09:41:58.163Z</time>
      </trkpt>
      <trkpt lat="48.38384" lon="7.27767">
        <ele>926</ele>
        <time>2020-06-24T09:41:59.164Z</time>
      </trkpt>
      <trkpt lat="48.38384" lon="7.2777">
        <ele>926</ele>
        <time>2020-06-24T09:42:00.164Z</time>
      </trkpt>
      <trkpt lat="48.38385" lon="7.27772">
        <ele>926</ele>
        <time>2020-06-24T09:42:01.164Z</time>
      </trkpt>
      <trkpt lat="48.38385" lon="7.27773">
        <ele>926</ele>
        <time>2020-06-24T09:42:02.163Z</time>
      </trkpt>
      <trkpt lat="48.38386" lon="7.27775">
        <ele>926</ele>
        <time>2020-06-24T09:42:03.164Z</time>
      </trkpt>
      <trkpt lat="48.38386" lon="7.27777">
        <ele>925</ele>
        <time>2020-06-24T09:42:04.163Z</time>
      </trkpt>
      <trkpt lat="48.38386" lon="7.2778">
        <ele>925</ele>
        <time>2020-06-24T09:42:05.164Z</time>
      </trkpt>
      <trkpt lat="48.38386" lon="7.27783">
        <ele>925</ele>
        <time>2020-06-24T09:42:06.163Z</time>
      </trkpt>
      <trkpt lat="48.38386" lon="7.27786">
        <ele>925</ele>
        <time>2020-06-24T09:42:07.163Z</time>
      </trkpt>
      <trkpt lat="48.38387" lon="7.27788">
        <ele>925</ele>
        <time>2020-06-24T09:42:08.163Z</time>
      </trkpt>
      <trkpt lat="48.38388" lon="7.2779">
        <ele>925</ele>
        <time>2020-06-24T09:42:09.163Z</time>
      </trkpt>
      <trkpt lat="48.38388" lon="7.27792">
        <ele>925</ele>
        <time>2020-06-24T09:42:10.164Z</time>
      </trkpt>
      <trkpt lat="48.38388" lon="7.27794">
        <ele>925</ele>
        <time>2020-06-24T09:42:11.164Z</time>
      </trkpt>
      <trkpt lat="48.38389" lon="7.27797">
        <ele>925</ele>
        <time>2020-06-24T09:42:12.163Z</time>
      </trkpt>
      <trkpt lat="48.38389" lon="7.27799">
        <ele>925</ele>
        <time>2020-06-24T09:42:13.163Z</time>
      </trkpt>
      <trkpt lat="48.38389" lon="7.27802">
        <ele>925</ele>
        <time>2020-06-24T09:42:14.163Z</time>
      </trkpt>
      <trkpt lat="48.38389" lon="7.27804">
        <ele>925</ele>
        <time>2020-06-24T09:42:15.164Z</time>
      </trkpt>
      <trkpt lat="48.38389" lon="7.27806">
        <ele>925</ele>
        <time>2020-06-24T09:42:16.164Z</time>
      </trkpt>
      <trkpt lat="48.38389" lon="7.27809">
        <ele>925</ele>
        <time>2020-06-24T09:42:17.164Z</time>
      </trkpt>
      <trkpt lat="48.3839" lon="7.27811">
        <ele>925</ele>
        <time>2020-06-24T09:42:18.163Z</time>
      </trkpt>
      <trkpt lat="48.3839" lon="7.27813">
        <ele>925</ele>
        <time>2020-06-24T09:42:19.164Z</time>
      </trkpt>
      <trkpt lat="48.3839" lon="7.27815">
        <ele>925</ele>
        <time>2020-06-24T09:42:20.163Z</time>
      </trkpt>
      <trkpt lat="48.3839" lon="7.27817">
        <ele>925</ele>
        <time>2020-06-24T09:42:21.164Z</time>
      </trkpt>
      <trkpt lat="48.3839" lon="7.27819">
        <ele>925</ele>
        <time>2020-06-24T09:42:22.164Z</time>
      </trkpt>
      <trkpt lat="48.3839" lon="7.27821">
        <ele>925</ele>
        <time>2020-06-24T09:42:23.164Z</time>
      </trkpt>
      <trkpt lat="48.3839" lon="7.27823">
        <ele>924</ele>
        <time>2020-06-24T09:42:24.164Z</time>
      </trkpt>
      <trkpt lat="48.3839" lon="7.27825">
        <ele>923</ele>
        <time>2020-06-24T09:42:25.164Z</time>
      </trkpt>
      <trkpt lat="48.3839" lon="7.27827">
        <ele>923</ele>
        <time>2020-06-24T09:42:26.164Z</time>
      </trkpt>
      <trkpt lat="48.3839" lon="7.27828">
        <ele>922</ele>
        <time>2020-06-24T09:42:27.163Z</time>
      </trkpt>
      <trkpt lat="48.3839" lon="7.2783">
        <ele>922</ele>
        <time>2020-06-24T09:42:28.163Z</time>
      </trkpt>
      <trkpt lat="48.3839" lon="7.27832">
        <ele>922</ele>
        <time>2020-06-24T09:42:29.164Z</time>
      </trkpt>
      <trkpt lat="48.38391" lon="7.27834">
        <ele>922</ele>
        <time>2020-06-24T09:42:30.164Z</time>
      </trkpt>
      <trkpt lat="48.38391" lon="7.27836">
        <ele>922</ele>
        <time>2020-06-24T09:42:31.164Z</time>
      </trkpt>
      <trkpt lat="48.38391" lon="7.27838">
        <ele>921</ele>
        <time>2020-06-24T09:42:32.163Z</time>
      </trkpt>
      <trkpt lat="48.38391" lon="7.2784">
        <ele>921</ele>
        <time>2020-06-24T09:42:33.164Z</time>
      </trkpt>
      <trkpt lat="48.38391" lon="7.27842">
        <ele>921</ele>
        <time>2020-06-24T09:42:34.163Z</time>
      </trkpt>
      <trkpt lat="48.38391" lon="7.27844">
        <ele>922</ele>
        <time>2020-06-24T09:42:35.163Z</time>
      </trkpt>
      <trkpt lat="48.38391" lon="7.27847">
        <ele>922</ele>
        <time>2020-06-24T09:42:36.163Z</time>
      </trkpt>
      <trkpt lat="48.38391" lon="7.27848">
        <ele>922</ele>
        <time>2020-06-24T09:42:37.163Z</time>
      </trkpt>
      <trkpt lat="48.38391" lon="7.2785">
        <ele>922</ele>
        <time>2020-06-24T09:42:38.163Z</time>
      </trkpt>
      <trkpt lat="48.38391" lon="7.27853">
        <ele>923</ele>
        <time>2020-06-24T09:42:39.164Z</time>
      </trkpt>
      <trkpt lat="48.38392" lon="7.27855">
        <ele>923</ele>
        <time>2020-06-24T09:42:40.164Z</time>
      </trkpt>
      <trkpt lat="48.38392" lon="7.27858">
        <ele>923</ele>
        <time>2020-06-24T09:42:41.164Z</time>
      </trkpt>
      <trkpt lat="48.38392" lon="7.2786">
        <ele>923</ele>
        <time>2020-06-24T09:42:42.164Z</time>
      </trkpt>
      <trkpt lat="48.38392" lon="7.27863">
        <ele>923</ele>
        <time>2020-06-24T09:42:43.164Z</time>
      </trkpt>
      <trkpt lat="48.38392" lon="7.27865">
        <ele>923</ele>
        <time>2020-06-24T09:42:44.164Z</time>
      </trkpt>
      <trkpt lat="48.38392" lon="7.27867">
        <ele>924</ele>
        <time>2020-06-24T09:42:45.163Z</time>
      </trkpt>
      <trkpt lat="48.38392" lon="7.2787">
        <ele>924</ele>
        <time>2020-06-24T09:42:46.164Z</time>
      </trkpt>
      <trkpt lat="48.38392" lon="7.27872">
        <ele>924</ele>
        <time>2020-06-24T09:42:47.164Z</time>
      </trkpt>
      <trkpt lat="48.38393" lon="7.27874">
        <ele>924</ele>
        <time>2020-06-24T09:42:48.164Z</time>
      </trkpt>
      <trkpt lat="48.38393" lon="7.27876">
        <ele>924</ele>
        <time>2020-06-24T09:42:49.164Z</time>
      </trkpt>
      <trkpt lat="48.38393" lon="7.27879">
        <ele>925</ele>
        <time>2020-06-24T09:42:50.164Z</time>
      </trkpt>
      <trkpt lat="48.38394" lon="7.27881">
        <ele>925</ele>
        <time>2020-06-24T09:42:51.164Z</time>
      </trkpt>
      <trkpt lat="48.38394" lon="7.27884">
        <ele>925</ele>
        <time>2020-06-24T09:42:52.164Z</time>
      </trkpt>
      <trkpt lat="48.38395" lon="7.27886">
        <ele>925</ele>
        <time>2020-06-24T09:42:53.164Z</time>
      </trkpt>
      <trkpt lat="48.38395" lon="7.27889">
        <ele>926</ele>
        <time>2020-06-24T09:42:54.164Z</time>
      </trkpt>
      <trkpt lat="48.38396" lon="7.27891">
        <ele>926</ele>
        <time>2020-06-24T09:42:55.164Z</time>
      </trkpt>
      <trkpt lat="48.38396" lon="7.27893">
        <ele>926</ele>
        <time>2020-06-24T09:42:56.164Z</time>
      </trkpt>
      <trkpt lat="48.38396" lon="7.27895">
        <ele>926</ele>
        <time>2020-06-24T09:42:57.164Z</time>
      </trkpt>
      <trkpt lat="48.38396" lon="7.27898">
        <ele>926</ele>
        <time>2020-06-24T09:42:58.164Z</time>
      </trkpt>
      <trkpt lat="48.38397" lon="7.27902">
        <ele>926</ele>
        <time>2020-06-24T09:42:59.164Z</time>
      </trkpt>
      <trkpt lat="48.38397" lon="7.27905">
        <ele>926</ele>
        <time>2020-06-24T09:43:00.164Z</time>
      </trkpt>
      <trkpt lat="48.38397" lon="7.27907">
        <ele>926</ele>
        <time>2020-06-24T09:43:01.164Z</time>
      </trkpt>
      <trkpt lat="48.38397" lon="7.27909">
        <ele>926</ele>
        <time>2020-06-24T09:43:02.163Z</time>
      </trkpt>
      <trkpt lat="48.38397" lon="7.27911">
        <ele>927</ele>
        <time>2020-06-24T09:43:03.164Z</time>
      </trkpt>
      <trkpt lat="48.38397" lon="7.27913">
        <ele>928</ele>
        <time>2020-06-24T09:43:04.163Z</time>
      </trkpt>
      <trkpt lat="48.38397" lon="7.27916">
        <ele>928</ele>
        <time>2020-06-24T09:43:05.163Z</time>
      </trkpt>
      <trkpt lat="48.38397" lon="7.27918">
        <ele>929</ele>
        <time>2020-06-24T09:43:06.164Z</time>
      </trkpt>
      <trkpt lat="48.38397" lon="7.27919">
        <ele>929</ele>
        <time>2020-06-24T09:43:07.164Z</time>
      </trkpt>
      <trkpt lat="48.38397" lon="7.27921">
        <ele>929</ele>
        <time>2020-06-24T09:43:08.164Z</time>
      </trkpt>
      <trkpt lat="48.38397" lon="7.27923">
        <ele>930</ele>
        <time>2020-06-24T09:43:09.164Z</time>
      </trkpt>
      <trkpt lat="48.38397" lon="7.27925">
        <ele>930</ele>
        <time>2020-06-24T09:43:10.164Z</time>
      </trkpt>
      <trkpt lat="48.38397" lon="7.27927">
        <ele>930</ele>
        <time>2020-06-24T09:43:11.164Z</time>
      </trkpt>
      <trkpt lat="48.38397" lon="7.27929">
        <ele>931</ele>
        <time>2020-06-24T09:43:12.163Z</time>
      </trkpt>
      <trkpt lat="48.38397" lon="7.2793">
        <ele>931</ele>
        <time>2020-06-24T09:43:13.163Z</time>
      </trkpt>
      <trkpt lat="48.38396" lon="7.27931">
        <ele>932</ele>
        <time>2020-06-24T09:43:14.164Z</time>
      </trkpt>
      <trkpt lat="48.38395" lon="7.27932">
        <ele>932</ele>
        <time>2020-06-24T09:43:15.164Z</time>
      </trkpt>
      <trkpt lat="48.38395" lon="7.27933">
        <ele>933</ele>
        <time>2020-06-24T09:43:16.164Z</time>
      </trkpt>
      <trkpt lat="48.38396" lon="7.27936">
        <ele>933</ele>
        <time>2020-06-24T09:43:17.164Z</time>
      </trkpt>
      <trkpt lat="48.38396" lon="7.27938">
        <ele>933</ele>
        <time>2020-06-24T09:43:18.163Z</time>
      </trkpt>
      <trkpt lat="48.38396" lon="7.27939">
        <ele>933</ele>
        <time>2020-06-24T09:43:19.164Z</time>
      </trkpt>
      <trkpt lat="48.38396" lon="7.2794">
        <ele>933</ele>
        <time>2020-06-24T09:43:20.164Z</time>
      </trkpt>
      <trkpt lat="48.38395" lon="7.27941">
        <ele>933</ele>
        <time>2020-06-24T09:43:21.164Z</time>
      </trkpt>
      <trkpt lat="48.38396" lon="7.27941">
        <ele>933</ele>
        <time>2020-06-24T09:43:22.163Z</time>
      </trkpt>
      <trkpt lat="48.38396" lon="7.27942">
        <ele>933</ele>
        <time>2020-06-24T09:43:23.164Z</time>
      </trkpt>
      <trkpt lat="48.38395" lon="7.27942">
        <ele>934</ele>
        <time>2020-06-24T09:43:24.164Z</time>
      </trkpt>
      <trkpt lat="48.38396" lon="7.27943">
        <ele>934</ele>
        <time>2020-06-24T09:43:25.164Z</time>
      </trkpt>
      <trkpt lat="48.38395" lon="7.27944">
        <ele>934</ele>
        <time>2020-06-24T09:43:26.164Z</time>
      </trkpt>
      <trkpt lat="48.38396" lon="7.27945">
        <ele>934</ele>
        <time>2020-06-24T09:43:27.164Z</time>
      </trkpt>
      <trkpt lat="48.38396" lon="7.27946">
        <ele>934</ele>
        <time>2020-06-24T09:43:28.164Z</time>
      </trkpt>
      <trkpt lat="48.38396" lon="7.27947">
        <ele>934</ele>
        <time>2020-06-24T09:43:29.164Z</time>
      </trkpt>
      <trkpt lat="48.38396" lon="7.27947">
        <ele>934</ele>
        <time>2020-06-24T09:43:30.164Z</time>
      </trkpt>
      <trkpt lat="48.38395" lon="7.27947">
        <ele>934</ele>
        <time>2020-06-24T09:43:31.164Z</time>
      </trkpt>
      <trkpt lat="48.38396" lon="7.27948">
        <ele>935</ele>
        <time>2020-06-24T09:43:32.164Z</time>
      </trkpt>
      <trkpt lat="48.38396" lon="7.27949">
        <ele>935</ele>
        <time>2020-06-24T09:43:33.165Z</time>
      </trkpt>
      <trkpt lat="48.38396" lon="7.27949">
        <ele>935</ele>
        <time>2020-06-24T09:43:34.164Z</time>
      </trkpt>
      <trkpt lat="48.38395" lon="7.27947">
        <ele>937</ele>
        <time>2020-06-24T09:43:35.165Z</time>
      </trkpt>
      <trkpt lat="48.38392" lon="7.27953">
        <ele>936</ele>
        <time>2020-06-24T09:43:36.165Z</time>
      </trkpt>
      <trkpt lat="48.38392" lon="7.27953">
        <ele>936</ele>
        <time>2020-06-24T09:43:37.165Z</time>
      </trkpt>
      <trkpt lat="48.38388" lon="7.27949">
        <ele>931</ele>
        <time>2020-06-24T09:43:38.166Z</time>
      </trkpt>
      <trkpt lat="48.38388" lon="7.27949">
        <ele>931</ele>
        <time>2020-06-24T09:43:39.165Z</time>
      </trkpt>
      <trkpt lat="48.38388" lon="7.27949">
        <ele>931</ele>
        <time>2020-06-24T09:43:40.165Z</time>
      </trkpt>
      <trkpt lat="48.38388" lon="7.27949">
        <ele>931</ele>
        <time>2020-06-24T09:43:41.165Z</time>
      </trkpt>
      <trkpt lat="48.38388" lon="7.27951">
        <ele>931</ele>
        <time>2020-06-24T09:43:42.166Z</time>
      </trkpt>
      <trkpt lat="48.38387" lon="7.27954">
        <ele>931</ele>
        <time>2020-06-24T09:43:43.165Z</time>
      </trkpt>
      <trkpt lat="48.38386" lon="7.27957">
        <ele>931</ele>
        <time>2020-06-24T09:43:44.166Z</time>
      </trkpt>
      <trkpt lat="48.38385" lon="7.27961">
        <ele>931</ele>
        <time>2020-06-24T09:43:45.166Z</time>
      </trkpt>
      <trkpt lat="48.38385" lon="7.27964">
        <ele>931</ele>
        <time>2020-06-24T09:43:46.166Z</time>
      </trkpt>
      <trkpt lat="48.38384" lon="7.27966">
        <ele>932</ele>
        <time>2020-06-24T09:43:47.166Z</time>
      </trkpt>
      <trkpt lat="48.38383" lon="7.27969">
        <ele>932</ele>
        <time>2020-06-24T09:43:48.166Z</time>
      </trkpt>
      <trkpt lat="48.38382" lon="7.27972">
        <ele>932</ele>
        <time>2020-06-24T09:43:49.166Z</time>
      </trkpt>
      <trkpt lat="48.38381" lon="7.27975">
        <ele>932</ele>
        <time>2020-06-24T09:43:50.166Z</time>
      </trkpt>
      <trkpt lat="48.38381" lon="7.27979">
        <ele>933</ele>
        <time>2020-06-24T09:43:51.166Z</time>
      </trkpt>
      <trkpt lat="48.3838" lon="7.2798">
        <ele>933</ele>
        <time>2020-06-24T09:43:52.166Z</time>
      </trkpt>
      <trkpt lat="48.38379" lon="7.27982">
        <ele>933</ele>
        <time>2020-06-24T09:43:53.166Z</time>
      </trkpt>
      <trkpt lat="48.38378" lon="7.27983">
        <ele>933</ele>
        <time>2020-06-24T09:43:54.165Z</time>
      </trkpt>
      <trkpt lat="48.38377" lon="7.27984">
        <ele>934</ele>
        <time>2020-06-24T09:43:55.166Z</time>
      </trkpt>
      <trkpt lat="48.38377" lon="7.27986">
        <ele>934</ele>
        <time>2020-06-24T09:43:56.166Z</time>
      </trkpt>
      <trkpt lat="48.38376" lon="7.27988">
        <ele>935</ele>
        <time>2020-06-24T09:43:57.166Z</time>
      </trkpt>
      <trkpt lat="48.38375" lon="7.27989">
        <ele>936</ele>
        <time>2020-06-24T09:43:58.166Z</time>
      </trkpt>
      <trkpt lat="48.38374" lon="7.2799">
        <ele>936</ele>
        <time>2020-06-24T09:43:59.166Z</time>
      </trkpt>
      <trkpt lat="48.38373" lon="7.27991">
        <ele>937</ele>
        <time>2020-06-24T09:44:00.166Z</time>
      </trkpt>
      <trkpt lat="48.38372" lon="7.27993">
        <ele>938</ele>
        <time>2020-06-24T09:44:01.166Z</time>
      </trkpt>
      <trkpt lat="48.38371" lon="7.27995">
        <ele>938</ele>
        <time>2020-06-24T09:44:02.166Z</time>
      </trkpt>
      <trkpt lat="48.38371" lon="7.27997">
        <ele>939</ele>
        <time>2020-06-24T09:44:03.166Z</time>
      </trkpt>
      <trkpt lat="48.3837" lon="7.27998">
        <ele>939</ele>
        <time>2020-06-24T09:44:04.166Z</time>
      </trkpt>
      <trkpt lat="48.38369" lon="7.28">
        <ele>940</ele>
        <time>2020-06-24T09:44:05.166Z</time>
      </trkpt>
      <trkpt lat="48.38368" lon="7.28002">
        <ele>941</ele>
        <time>2020-06-24T09:44:06.165Z</time>
      </trkpt>
      <trkpt lat="48.38367" lon="7.28004">
        <ele>941</ele>
        <time>2020-06-24T09:44:07.166Z</time>
      </trkpt>
      <trkpt lat="48.38366" lon="7.28006">
        <ele>941</ele>
        <time>2020-06-24T09:44:08.166Z</time>
      </trkpt>
      <trkpt lat="48.38364" lon="7.28008">
        <ele>942</ele>
        <time>2020-06-24T09:44:09.166Z</time>
      </trkpt>
      <trkpt lat="48.38363" lon="7.2801">
        <ele>942</ele>
        <time>2020-06-24T09:44:10.166Z</time>
      </trkpt>
      <trkpt lat="48.38362" lon="7.28013">
        <ele>942</ele>
        <time>2020-06-24T09:44:11.166Z</time>
      </trkpt>
      <trkpt lat="48.38361" lon="7.28016">
        <ele>942</ele>
        <time>2020-06-24T09:44:12.166Z</time>
      </trkpt>
      <trkpt lat="48.38361" lon="7.28018">
        <ele>943</ele>
        <time>2020-06-24T09:44:13.166Z</time>
      </trkpt>
      <trkpt lat="48.3836" lon="7.28019">
        <ele>943</ele>
        <time>2020-06-24T09:44:14.166Z</time>
      </trkpt>
      <trkpt lat="48.38359" lon="7.28021">
        <ele>944</ele>
        <time>2020-06-24T09:44:15.166Z</time>
      </trkpt>
      <trkpt lat="48.38358" lon="7.28022">
        <ele>944</ele>
        <time>2020-06-24T09:44:16.165Z</time>
      </trkpt>
      <trkpt lat="48.38357" lon="7.28024">
        <ele>945</ele>
        <time>2020-06-24T09:44:17.166Z</time>
      </trkpt>
      <trkpt lat="48.38357" lon="7.28025">
        <ele>945</ele>
        <time>2020-06-24T09:44:18.165Z</time>
      </trkpt>
      <trkpt lat="48.38356" lon="7.28026">
        <ele>946</ele>
        <time>2020-06-24T09:44:19.166Z</time>
      </trkpt>
      <trkpt lat="48.38354" lon="7.28027">
        <ele>946</ele>
        <time>2020-06-24T09:44:20.166Z</time>
      </trkpt>
      <trkpt lat="48.38353" lon="7.2803">
        <ele>947</ele>
        <time>2020-06-24T09:44:21.165Z</time>
      </trkpt>
      <trkpt lat="48.38353" lon="7.28031">
        <ele>947</ele>
        <time>2020-06-24T09:44:22.166Z</time>
      </trkpt>
      <trkpt lat="48.38353" lon="7.28032">
        <ele>947</ele>
        <time>2020-06-24T09:44:23.166Z</time>
      </trkpt>
      <trkpt lat="48.38352" lon="7.28032">
        <ele>947</ele>
        <time>2020-06-24T09:44:24.166Z</time>
      </trkpt>
      <trkpt lat="48.38351" lon="7.28033">
        <ele>947</ele>
        <time>2020-06-24T09:44:25.166Z</time>
      </trkpt>
      <trkpt lat="48.38351" lon="7.28034">
        <ele>948</ele>
        <time>2020-06-24T09:44:26.165Z</time>
      </trkpt>
      <trkpt lat="48.3835" lon="7.28035">
        <ele>947</ele>
        <time>2020-06-24T09:44:27.166Z</time>
      </trkpt>
      <trkpt lat="48.38349" lon="7.28036">
        <ele>947</ele>
        <time>2020-06-24T09:44:28.166Z</time>
      </trkpt>
      <trkpt lat="48.38349" lon="7.28036">
        <ele>947</ele>
        <time>2020-06-24T09:44:29.166Z</time>
      </trkpt>
      <trkpt lat="48.38347" lon="7.28037">
        <ele>947</ele>
        <time>2020-06-24T09:44:30.166Z</time>
      </trkpt>
      <trkpt lat="48.38347" lon="7.28037">
        <ele>947</ele>
        <time>2020-06-24T09:44:31.166Z</time>
      </trkpt>
      <trkpt lat="48.38339" lon="7.28039">
        <ele>948</ele>
        <time>2020-06-24T09:44:32.165Z</time>
      </trkpt>
      <trkpt lat="48.38338" lon="7.28039">
        <ele>947</ele>
        <time>2020-06-24T09:44:33.165Z</time>
      </trkpt>
      <trkpt lat="48.38336" lon="7.28039">
        <ele>943</ele>
        <time>2020-06-24T09:44:34.166Z</time>
      </trkpt>
      <trkpt lat="48.38336" lon="7.28039">
        <ele>943</ele>
        <time>2020-06-24T09:44:35.166Z</time>
      </trkpt>
      <trkpt lat="48.38334" lon="7.2804">
        <ele>941</ele>
        <time>2020-06-24T09:44:36.166Z</time>
      </trkpt>
      <trkpt lat="48.38333" lon="7.2804">
        <ele>942</ele>
        <time>2020-06-24T09:44:37.166Z</time>
      </trkpt>
      <trkpt lat="48.38332" lon="7.2804">
        <ele>942</ele>
        <time>2020-06-24T09:44:38.165Z</time>
      </trkpt>
      <trkpt lat="48.38335" lon="7.2804">
        <ele>936</ele>
        <time>2020-06-24T09:44:39.165Z</time>
      </trkpt>
      <trkpt lat="48.38335" lon="7.28042">
        <ele>936</ele>
        <time>2020-06-24T09:44:40.166Z</time>
      </trkpt>
      <trkpt lat="48.38336" lon="7.28043">
        <ele>936</ele>
        <time>2020-06-24T09:44:41.165Z</time>
      </trkpt>
      <trkpt lat="48.38337" lon="7.28043">
        <ele>937</ele>
        <time>2020-06-24T09:44:42.165Z</time>
      </trkpt>
      <trkpt lat="48.38338" lon="7.28044">
        <ele>938</ele>
        <time>2020-06-24T09:44:43.165Z</time>
      </trkpt>
      <trkpt lat="48.38339" lon="7.28044">
        <ele>938</ele>
        <time>2020-06-24T09:44:44.165Z</time>
      </trkpt>
      <trkpt lat="48.38339" lon="7.28045">
        <ele>939</ele>
        <time>2020-06-24T09:44:45.166Z</time>
      </trkpt>
      <trkpt lat="48.38339" lon="7.28046">
        <ele>939</ele>
        <time>2020-06-24T09:44:46.166Z</time>
      </trkpt>
      <trkpt lat="48.38339" lon="7.28047">
        <ele>940</ele>
        <time>2020-06-24T09:44:47.166Z</time>
      </trkpt>
      <trkpt lat="48.38339" lon="7.28047">
        <ele>940</ele>
        <time>2020-06-24T09:44:48.166Z</time>
      </trkpt>
      <trkpt lat="48.38339" lon="7.28048">
        <ele>940</ele>
        <time>2020-06-24T09:44:49.166Z</time>
      </trkpt>
      <trkpt lat="48.3834" lon="7.28049">
        <ele>940</ele>
        <time>2020-06-24T09:44:50.166Z</time>
      </trkpt>
      <trkpt lat="48.3834" lon="7.2805">
        <ele>941</ele>
        <time>2020-06-24T09:44:51.166Z</time>
      </trkpt>
      <trkpt lat="48.3834" lon="7.28051">
        <ele>941</ele>
        <time>2020-06-24T09:44:52.166Z</time>
      </trkpt>
      <trkpt lat="48.3834" lon="7.28053">
        <ele>941</ele>
        <time>2020-06-24T09:44:53.165Z</time>
      </trkpt>
      <trkpt lat="48.3834" lon="7.28055">
        <ele>941</ele>
        <time>2020-06-24T09:44:54.166Z</time>
      </trkpt>
      <trkpt lat="48.38341" lon="7.28056">
        <ele>941</ele>
        <time>2020-06-24T09:44:55.166Z</time>
      </trkpt>
      <trkpt lat="48.38341" lon="7.28058">
        <ele>942</ele>
        <time>2020-06-24T09:44:56.165Z</time>
      </trkpt>
      <trkpt lat="48.38341" lon="7.28058">
        <ele>943</ele>
        <time>2020-06-24T09:44:57.165Z</time>
      </trkpt>
      <trkpt lat="48.38342" lon="7.28059">
        <ele>944</ele>
        <time>2020-06-24T09:44:58.166Z</time>
      </trkpt>
      <trkpt lat="48.38342" lon="7.2806">
        <ele>944</ele>
        <time>2020-06-24T09:44:59.166Z</time>
      </trkpt>
      <trkpt lat="48.38342" lon="7.28061">
        <ele>945</ele>
        <time>2020-06-24T09:45:00.166Z</time>
      </trkpt>
      <trkpt lat="48.38343" lon="7.28062">
        <ele>945</ele>
        <time>2020-06-24T09:45:01.166Z</time>
      </trkpt>
      <trkpt lat="48.38344" lon="7.28063">
        <ele>945</ele>
        <time>2020-06-24T09:45:02.166Z</time>
      </trkpt>
      <trkpt lat="48.38345" lon="7.28064">
        <ele>945</ele>
        <time>2020-06-24T09:45:03.166Z</time>
      </trkpt>
      <trkpt lat="48.38345" lon="7.28065">
        <ele>946</ele>
        <time>2020-06-24T09:45:04.166Z</time>
      </trkpt>
      <trkpt lat="48.38346" lon="7.28066">
        <ele>946</ele>
        <time>2020-06-24T09:45:05.166Z</time>
      </trkpt>
      <trkpt lat="48.38346" lon="7.28067">
        <ele>946</ele>
        <time>2020-06-24T09:45:06.165Z</time>
      </trkpt>
      <trkpt lat="48.38346" lon="7.28067">
        <ele>946</ele>
        <time>2020-06-24T09:45:07.166Z</time>
      </trkpt>
      <trkpt lat="48.38346" lon="7.28067">
        <ele>946</ele>
        <time>2020-06-24T09:45:08.166Z</time>
      </trkpt>
      <trkpt lat="48.38347" lon="7.28068">
        <ele>946</ele>
        <time>2020-06-24T09:45:09.166Z</time>
      </trkpt>
      <trkpt lat="48.38348" lon="7.28069">
        <ele>946</ele>
        <time>2020-06-24T09:45:10.165Z</time>
      </trkpt>
      <trkpt lat="48.38349" lon="7.2807">
        <ele>946</ele>
        <time>2020-06-24T09:45:11.166Z</time>
      </trkpt>
      <trkpt lat="48.3835" lon="7.28072">
        <ele>946</ele>
        <time>2020-06-24T09:45:12.166Z</time>
      </trkpt>
      <trkpt lat="48.3835" lon="7.28073">
        <ele>946</ele>
        <time>2020-06-24T09:45:13.166Z</time>
      </trkpt>
      <trkpt lat="48.38351" lon="7.28074">
        <ele>947</ele>
        <time>2020-06-24T09:45:14.166Z</time>
      </trkpt>
      <trkpt lat="48.38351" lon="7.28075">
        <ele>947</ele>
        <time>2020-06-24T09:45:15.166Z</time>
      </trkpt>
      <trkpt lat="48.38351" lon="7.28076">
        <ele>947</ele>
        <time>2020-06-24T09:45:16.166Z</time>
      </trkpt>
      <trkpt lat="48.38351" lon="7.28077">
        <ele>947</ele>
        <time>2020-06-24T09:45:17.166Z</time>
      </trkpt>
      <trkpt lat="48.38352" lon="7.28078">
        <ele>948</ele>
        <time>2020-06-24T09:45:18.166Z</time>
      </trkpt>
      <trkpt lat="48.38352" lon="7.28079">
        <ele>948</ele>
        <time>2020-06-24T09:45:19.166Z</time>
      </trkpt>
      <trkpt lat="48.38353" lon="7.2808">
        <ele>949</ele>
        <time>2020-06-24T09:45:20.166Z</time>
      </trkpt>
      <trkpt lat="48.38353" lon="7.28082">
        <ele>949</ele>
        <time>2020-06-24T09:45:21.166Z</time>
      </trkpt>
      <trkpt lat="48.38353" lon="7.28085">
        <ele>950</ele>
        <time>2020-06-24T09:45:22.166Z</time>
      </trkpt>
      <trkpt lat="48.38354" lon="7.28086">
        <ele>951</ele>
        <time>2020-06-24T09:45:23.166Z</time>
      </trkpt>
      <trkpt lat="48.38354" lon="7.28087">
        <ele>951</ele>
        <time>2020-06-24T09:45:24.166Z</time>
      </trkpt>
      <trkpt lat="48.38354" lon="7.28088">
        <ele>952</ele>
        <time>2020-06-24T09:45:25.166Z</time>
      </trkpt>
      <trkpt lat="48.38355" lon="7.28089">
        <ele>952</ele>
        <time>2020-06-24T09:45:26.165Z</time>
      </trkpt>
      <trkpt lat="48.38355" lon="7.2809">
        <ele>952</ele>
        <time>2020-06-24T09:45:27.166Z</time>
      </trkpt>
      <trkpt lat="48.38356" lon="7.28091">
        <ele>952</ele>
        <time>2020-06-24T09:45:28.166Z</time>
      </trkpt>
      <trkpt lat="48.38356" lon="7.28093">
        <ele>952</ele>
        <time>2020-06-24T09:45:29.166Z</time>
      </trkpt>
      <trkpt lat="48.38357" lon="7.28094">
        <ele>951</ele>
        <time>2020-06-24T09:45:30.166Z</time>
      </trkpt>
      <trkpt lat="48.38358" lon="7.28095">
        <ele>951</ele>
        <time>2020-06-24T09:45:31.166Z</time>
      </trkpt>
      <trkpt lat="48.38359" lon="7.28096">
        <ele>951</ele>
        <time>2020-06-24T09:45:32.166Z</time>
      </trkpt>
      <trkpt lat="48.3836" lon="7.28098">
        <ele>951</ele>
        <time>2020-06-24T09:45:33.166Z</time>
      </trkpt>
      <trkpt lat="48.38361" lon="7.28099">
        <ele>951</ele>
        <time>2020-06-24T09:45:34.165Z</time>
      </trkpt>
      <trkpt lat="48.38361" lon="7.28101">
        <ele>951</ele>
        <time>2020-06-24T09:45:35.166Z</time>
      </trkpt>
      <trkpt lat="48.38362" lon="7.28102">
        <ele>952</ele>
        <time>2020-06-24T09:45:36.166Z</time>
      </trkpt>
      <trkpt lat="48.38363" lon="7.28104">
        <ele>952</ele>
        <time>2020-06-24T09:45:37.165Z</time>
      </trkpt>
      <trkpt lat="48.38364" lon="7.28105">
        <ele>952</ele>
        <time>2020-06-24T09:45:38.165Z</time>
      </trkpt>
      <trkpt lat="48.38364" lon="7.28106">
        <ele>953</ele>
        <time>2020-06-24T09:45:39.166Z</time>
      </trkpt>
      <trkpt lat="48.38365" lon="7.28108">
        <ele>953</ele>
        <time>2020-06-24T09:45:40.166Z</time>
      </trkpt>
      <trkpt lat="48.38366" lon="7.2811">
        <ele>953</ele>
        <time>2020-06-24T09:45:41.165Z</time>
      </trkpt>
      <trkpt lat="48.38367" lon="7.28112">
        <ele>953</ele>
        <time>2020-06-24T09:45:42.166Z</time>
      </trkpt>
      <trkpt lat="48.38367" lon="7.28113">
        <ele>954</ele>
        <time>2020-06-24T09:45:43.166Z</time>
      </trkpt>
      <trkpt lat="48.38367" lon="7.28115">
        <ele>954</ele>
        <time>2020-06-24T09:45:44.166Z</time>
      </trkpt>
      <trkpt lat="48.38367" lon="7.28117">
        <ele>955</ele>
        <time>2020-06-24T09:45:45.166Z</time>
      </trkpt>
      <trkpt lat="48.38368" lon="7.28119">
        <ele>955</ele>
        <time>2020-06-24T09:45:46.166Z</time>
      </trkpt>
      <trkpt lat="48.38368" lon="7.28121">
        <ele>956</ele>
        <time>2020-06-24T09:45:47.166Z</time>
      </trkpt>
      <trkpt lat="48.38368" lon="7.28123">
        <ele>956</ele>
        <time>2020-06-24T09:45:48.166Z</time>
      </trkpt>
      <trkpt lat="48.38368" lon="7.28124">
        <ele>955</ele>
        <time>2020-06-24T09:45:49.166Z</time>
      </trkpt>
      <trkpt lat="48.38368" lon="7.28126">
        <ele>955</ele>
        <time>2020-06-24T09:45:50.166Z</time>
      </trkpt>
      <trkpt lat="48.38368" lon="7.28127">
        <ele>955</ele>
        <time>2020-06-24T09:45:51.166Z</time>
      </trkpt>
      <trkpt lat="48.38369" lon="7.28128">
        <ele>955</ele>
        <time>2020-06-24T09:45:52.166Z</time>
      </trkpt>
      <trkpt lat="48.38369" lon="7.28129">
        <ele>956</ele>
        <time>2020-06-24T09:45:53.166Z</time>
      </trkpt>
      <trkpt lat="48.38369" lon="7.2813">
        <ele>956</ele>
        <time>2020-06-24T09:45:54.165Z</time>
      </trkpt>
      <trkpt lat="48.38369" lon="7.28132">
        <ele>956</ele>
        <time>2020-06-24T09:45:55.166Z</time>
      </trkpt>
      <trkpt lat="48.3837" lon="7.28133">
        <ele>956</ele>
        <time>2020-06-24T09:45:56.165Z</time>
      </trkpt>
      <trkpt lat="48.38371" lon="7.28134">
        <ele>956</ele>
        <time>2020-06-24T09:45:57.166Z</time>
      </trkpt>
      <trkpt lat="48.38372" lon="7.28135">
        <ele>956</ele>
        <time>2020-06-24T09:45:58.166Z</time>
      </trkpt>
      <trkpt lat="48.38373" lon="7.28136">
        <ele>957</ele>
        <time>2020-06-24T09:45:59.166Z</time>
      </trkpt>
      <trkpt lat="48.38374" lon="7.28139">
        <ele>957</ele>
        <time>2020-06-24T09:46:00.166Z</time>
      </trkpt>
      <trkpt lat="48.38375" lon="7.28142">
        <ele>958</ele>
        <time>2020-06-24T09:46:01.166Z</time>
      </trkpt>
      <trkpt lat="48.38376" lon="7.28144">
        <ele>958</ele>
        <time>2020-06-24T09:46:02.165Z</time>
      </trkpt>
      <trkpt lat="48.38376" lon="7.28147">
        <ele>958</ele>
        <time>2020-06-24T09:46:03.166Z</time>
      </trkpt>
      <trkpt lat="48.38376" lon="7.2815">
        <ele>958</ele>
        <time>2020-06-24T09:46:04.166Z</time>
      </trkpt>
      <trkpt lat="48.38376" lon="7.28152">
        <ele>959</ele>
        <time>2020-06-24T09:46:05.166Z</time>
      </trkpt>
      <trkpt lat="48.38375" lon="7.28154">
        <ele>959</ele>
        <time>2020-06-24T09:46:06.166Z</time>
      </trkpt>
      <trkpt lat="48.38375" lon="7.28156">
        <ele>959</ele>
        <time>2020-06-24T09:46:07.166Z</time>
      </trkpt>
      <trkpt lat="48.38375" lon="7.28158">
        <ele>959</ele>
        <time>2020-06-24T09:46:08.166Z</time>
      </trkpt>
      <trkpt lat="48.38375" lon="7.2816">
        <ele>958</ele>
        <time>2020-06-24T09:46:09.166Z</time>
      </trkpt>
      <trkpt lat="48.38375" lon="7.28162">
        <ele>958</ele>
        <time>2020-06-24T09:46:10.165Z</time>
      </trkpt>
      <trkpt lat="48.38375" lon="7.28164">
        <ele>958</ele>
        <time>2020-06-24T09:46:11.166Z</time>
      </trkpt>
      <trkpt lat="48.38375" lon="7.28165">
        <ele>958</ele>
        <time>2020-06-24T09:46:12.166Z</time>
      </trkpt>
      <trkpt lat="48.38375" lon="7.28166">
        <ele>958</ele>
        <time>2020-06-24T09:46:13.166Z</time>
      </trkpt>
      <trkpt lat="48.38375" lon="7.28167">
        <ele>958</ele>
        <time>2020-06-24T09:46:14.165Z</time>
      </trkpt>
      <trkpt lat="48.38375" lon="7.28169">
        <ele>958</ele>
        <time>2020-06-24T09:46:15.165Z</time>
      </trkpt>
      <trkpt lat="48.38375" lon="7.28171">
        <ele>959</ele>
        <time>2020-06-24T09:46:16.165Z</time>
      </trkpt>
      <trkpt lat="48.38375" lon="7.28174">
        <ele>959</ele>
        <time>2020-06-24T09:46:17.165Z</time>
      </trkpt>
      <trkpt lat="48.38374" lon="7.28177">
        <ele>960</ele>
        <time>2020-06-24T09:46:18.166Z</time>
      </trkpt>
      <trkpt lat="48.38374" lon="7.28179">
        <ele>961</ele>
        <time>2020-06-24T09:46:19.166Z</time>
      </trkpt>
      <trkpt lat="48.38373" lon="7.28181">
        <ele>961</ele>
        <time>2020-06-24T09:46:20.166Z</time>
      </trkpt>
      <trkpt lat="48.38372" lon="7.28182">
        <ele>962</ele>
        <time>2020-06-24T09:46:21.166Z</time>
      </trkpt>
      <trkpt lat="48.38372" lon="7.28185">
        <ele>962</ele>
        <time>2020-06-24T09:46:22.166Z</time>
      </trkpt>
      <trkpt lat="48.38372" lon="7.28187">
        <ele>962</ele>
        <time>2020-06-24T09:46:23.165Z</time>
      </trkpt>
      <trkpt lat="48.38372" lon="7.28189">
        <ele>963</ele>
        <time>2020-06-24T09:46:24.165Z</time>
      </trkpt>
      <trkpt lat="48.38371" lon="7.28192">
        <ele>963</ele>
        <time>2020-06-24T09:46:25.166Z</time>
      </trkpt>
      <trkpt lat="48.38372" lon="7.28194">
        <ele>963</ele>
        <time>2020-06-24T09:46:26.166Z</time>
      </trkpt>
      <trkpt lat="48.38372" lon="7.28196">
        <ele>964</ele>
        <time>2020-06-24T09:46:27.165Z</time>
      </trkpt>
      <trkpt lat="48.38372" lon="7.28198">
        <ele>964</ele>
        <time>2020-06-24T09:46:28.166Z</time>
      </trkpt>
      <trkpt lat="48.38372" lon="7.282">
        <ele>964</ele>
        <time>2020-06-24T09:46:29.165Z</time>
      </trkpt>
      <trkpt lat="48.38373" lon="7.28203">
        <ele>964</ele>
        <time>2020-06-24T09:46:30.166Z</time>
      </trkpt>
      <trkpt lat="48.38373" lon="7.28207">
        <ele>964</ele>
        <time>2020-06-24T09:46:31.166Z</time>
      </trkpt>
      <trkpt lat="48.38373" lon="7.2821">
        <ele>964</ele>
        <time>2020-06-24T09:46:32.166Z</time>
      </trkpt>
      <trkpt lat="48.38373" lon="7.28212">
        <ele>964</ele>
        <time>2020-06-24T09:46:33.166Z</time>
      </trkpt>
      <trkpt lat="48.38374" lon="7.28213">
        <ele>964</ele>
        <time>2020-06-24T09:46:34.166Z</time>
      </trkpt>
      <trkpt lat="48.38375" lon="7.28215">
        <ele>963</ele>
        <time>2020-06-24T09:46:35.166Z</time>
      </trkpt>
      <trkpt lat="48.38377" lon="7.28217">
        <ele>963</ele>
        <time>2020-06-24T09:46:36.166Z</time>
      </trkpt>
      <trkpt lat="48.38378" lon="7.28218">
        <ele>963</ele>
        <time>2020-06-24T09:46:37.165Z</time>
      </trkpt>
      <trkpt lat="48.38379" lon="7.28221">
        <ele>963</ele>
        <time>2020-06-24T09:46:38.166Z</time>
      </trkpt>
      <trkpt lat="48.38379" lon="7.28223">
        <ele>963</ele>
        <time>2020-06-24T09:46:39.166Z</time>
      </trkpt>
      <trkpt lat="48.38379" lon="7.28225">
        <ele>963</ele>
        <time>2020-06-24T09:46:40.166Z</time>
      </trkpt>
      <trkpt lat="48.38379" lon="7.28228">
        <ele>963</ele>
        <time>2020-06-24T09:46:41.166Z</time>
      </trkpt>
      <trkpt lat="48.38379" lon="7.28229">
        <ele>963</ele>
        <time>2020-06-24T09:46:42.166Z</time>
      </trkpt>
      <trkpt lat="48.38379" lon="7.28231">
        <ele>963</ele>
        <time>2020-06-24T09:46:43.165Z</time>
      </trkpt>
      <trkpt lat="48.3838" lon="7.28233">
        <ele>963</ele>
        <time>2020-06-24T09:46:44.166Z</time>
      </trkpt>
      <trkpt lat="48.3838" lon="7.28235">
        <ele>963</ele>
        <time>2020-06-24T09:46:45.166Z</time>
      </trkpt>
      <trkpt lat="48.3838" lon="7.28237">
        <ele>963</ele>
        <time>2020-06-24T09:46:46.166Z</time>
      </trkpt>
      <trkpt lat="48.3838" lon="7.28239">
        <ele>963</ele>
        <time>2020-06-24T09:46:47.166Z</time>
      </trkpt>
      <trkpt lat="48.38381" lon="7.2824">
        <ele>962</ele>
        <time>2020-06-24T09:46:48.166Z</time>
      </trkpt>
      <trkpt lat="48.38381" lon="7.28242">
        <ele>962</ele>
        <time>2020-06-24T09:46:49.165Z</time>
      </trkpt>
      <trkpt lat="48.38382" lon="7.28244">
        <ele>962</ele>
        <time>2020-06-24T09:46:50.165Z</time>
      </trkpt>
      <trkpt lat="48.38382" lon="7.28246">
        <ele>962</ele>
        <time>2020-06-24T09:46:51.166Z</time>
      </trkpt>
      <trkpt lat="48.38382" lon="7.28247">
        <ele>962</ele>
        <time>2020-06-24T09:46:52.166Z</time>
      </trkpt>
      <trkpt lat="48.38382" lon="7.28248">
        <ele>962</ele>
        <time>2020-06-24T09:46:53.166Z</time>
      </trkpt>
      <trkpt lat="48.38382" lon="7.28249">
        <ele>962</ele>
        <time>2020-06-24T09:46:54.166Z</time>
      </trkpt>
      <trkpt lat="48.38381" lon="7.2825">
        <ele>962</ele>
        <time>2020-06-24T09:46:55.166Z</time>
      </trkpt>
      <trkpt lat="48.3838" lon="7.2825">
        <ele>961</ele>
        <time>2020-06-24T09:46:56.166Z</time>
      </trkpt>
      <trkpt lat="48.38378" lon="7.28252">
        <ele>961</ele>
        <time>2020-06-24T09:46:57.166Z</time>
      </trkpt>
      <trkpt lat="48.38377" lon="7.28252">
        <ele>961</ele>
        <time>2020-06-24T09:46:58.166Z</time>
      </trkpt>
      <trkpt lat="48.38376" lon="7.28253">
        <ele>961</ele>
        <time>2020-06-24T09:46:59.166Z</time>
      </trkpt>
      <trkpt lat="48.38376" lon="7.28253">
        <ele>960</ele>
        <time>2020-06-24T09:47:00.166Z</time>
      </trkpt>
      <trkpt lat="48.38376" lon="7.28253">
        <ele>959</ele>
        <time>2020-06-24T09:47:01.166Z</time>
      </trkpt>
      <trkpt lat="48.38376" lon="7.28253">
        <ele>959</ele>
        <time>2020-06-24T09:47:02.166Z</time>
      </trkpt>
      <trkpt lat="48.38376" lon="7.28252">
        <ele>958</ele>
        <time>2020-06-24T09:47:03.166Z</time>
      </trkpt>
      <trkpt lat="48.38377" lon="7.28252">
        <ele>957</ele>
        <time>2020-06-24T09:47:04.166Z</time>
      </trkpt>
      <trkpt lat="48.38377" lon="7.28252">
        <ele>957</ele>
        <time>2020-06-24T09:47:05.166Z</time>
      </trkpt>
      <trkpt lat="48.38374" lon="7.28247">
        <ele>955</ele>
        <time>2020-06-24T09:47:06.166Z</time>
      </trkpt>
      <trkpt lat="48.3837" lon="7.28256">
        <ele>955</ele>
        <time>2020-06-24T09:47:07.167Z</time>
      </trkpt>
      <trkpt lat="48.3837" lon="7.28256">
        <ele>955</ele>
        <time>2020-06-24T09:47:08.167Z</time>
      </trkpt>
      <trkpt lat="48.3837" lon="7.28257">
        <ele>955</ele>
        <time>2020-06-24T09:47:09.166Z</time>
      </trkpt>
      <trkpt lat="48.38372" lon="7.28241">
        <ele>950</ele>
        <time>2020-06-24T09:47:10.168Z</time>
      </trkpt>
      <trkpt lat="48.38371" lon="7.28239">
        <ele>950</ele>
        <time>2020-06-24T09:47:11.167Z</time>
      </trkpt>
      <trkpt lat="48.38371" lon="7.28237">
        <ele>951</ele>
        <time>2020-06-24T09:47:12.167Z</time>
      </trkpt>
      <trkpt lat="48.3837" lon="7.28235">
        <ele>951</ele>
        <time>2020-06-24T09:47:13.168Z</time>
      </trkpt>
      <trkpt lat="48.3837" lon="7.28233">
        <ele>952</ele>
        <time>2020-06-24T09:47:14.167Z</time>
      </trkpt>
      <trkpt lat="48.38369" lon="7.2823">
        <ele>952</ele>
        <time>2020-06-24T09:47:15.167Z</time>
      </trkpt>
      <trkpt lat="48.38369" lon="7.28228">
        <ele>952</ele>
        <time>2020-06-24T09:47:16.167Z</time>
      </trkpt>
      <trkpt lat="48.38368" lon="7.28226">
        <ele>952</ele>
        <time>2020-06-24T09:47:17.167Z</time>
      </trkpt>
      <trkpt lat="48.38368" lon="7.28225">
        <ele>953</ele>
        <time>2020-06-24T09:47:18.168Z</time>
      </trkpt>
      <trkpt lat="48.38368" lon="7.28223">
        <ele>953</ele>
        <time>2020-06-24T09:47:19.167Z</time>
      </trkpt>
      <trkpt lat="48.38368" lon="7.28222">
        <ele>953</ele>
        <time>2020-06-24T09:47:20.168Z</time>
      </trkpt>
      <trkpt lat="48.38368" lon="7.28221">
        <ele>954</ele>
        <time>2020-06-24T09:47:21.168Z</time>
      </trkpt>
      <trkpt lat="48.38368" lon="7.2822">
        <ele>954</ele>
        <time>2020-06-24T09:47:22.167Z</time>
      </trkpt>
      <trkpt lat="48.38367" lon="7.28218">
        <ele>955</ele>
        <time>2020-06-24T09:47:23.168Z</time>
      </trkpt>
      <trkpt lat="48.38367" lon="7.28217">
        <ele>955</ele>
        <time>2020-06-24T09:47:24.168Z</time>
      </trkpt>
      <trkpt lat="48.38366" lon="7.28215">
        <ele>954</ele>
        <time>2020-06-24T09:47:25.167Z</time>
      </trkpt>
      <trkpt lat="48.38366" lon="7.28213">
        <ele>954</ele>
        <time>2020-06-24T09:47:26.168Z</time>
      </trkpt>
      <trkpt lat="48.38367" lon="7.28211">
        <ele>953</ele>
        <time>2020-06-24T09:47:27.168Z</time>
      </trkpt>
      <trkpt lat="48.38367" lon="7.28209">
        <ele>953</ele>
        <time>2020-06-24T09:47:28.168Z</time>
      </trkpt>
      <trkpt lat="48.38367" lon="7.28207">
        <ele>952</ele>
        <time>2020-06-24T09:47:29.168Z</time>
      </trkpt>
      <trkpt lat="48.38368" lon="7.28205">
        <ele>952</ele>
        <time>2020-06-24T09:47:30.167Z</time>
      </trkpt>
      <trkpt lat="48.38368" lon="7.28203">
        <ele>952</ele>
        <time>2020-06-24T09:47:31.168Z</time>
      </trkpt>
      <trkpt lat="48.38368" lon="7.282">
        <ele>952</ele>
        <time>2020-06-24T09:47:32.167Z</time>
      </trkpt>
      <trkpt lat="48.38368" lon="7.28198">
        <ele>952</ele>
        <time>2020-06-24T09:47:33.167Z</time>
      </trkpt>
      <trkpt lat="48.38368" lon="7.28196">
        <ele>952</ele>
        <time>2020-06-24T09:47:34.167Z</time>
      </trkpt>
      <trkpt lat="48.38368" lon="7.28193">
        <ele>952</ele>
        <time>2020-06-24T09:47:35.168Z</time>
      </trkpt>
      <trkpt lat="48.38368" lon="7.28191">
        <ele>952</ele>
        <time>2020-06-24T09:47:36.167Z</time>
      </trkpt>
      <trkpt lat="48.38368" lon="7.28189">
        <ele>952</ele>
        <time>2020-06-24T09:47:37.168Z</time>
      </trkpt>
      <trkpt lat="48.38368" lon="7.28187">
        <ele>953</ele>
        <time>2020-06-24T09:47:38.168Z</time>
      </trkpt>
      <trkpt lat="48.38368" lon="7.28185">
        <ele>953</ele>
        <time>2020-06-24T09:47:39.168Z</time>
      </trkpt>
      <trkpt lat="48.38368" lon="7.28183">
        <ele>953</ele>
        <time>2020-06-24T09:47:40.167Z</time>
      </trkpt>
      <trkpt lat="48.38368" lon="7.28181">
        <ele>954</ele>
        <time>2020-06-24T09:47:41.168Z</time>
      </trkpt>
      <trkpt lat="48.38368" lon="7.28179">
        <ele>954</ele>
        <time>2020-06-24T09:47:42.167Z</time>
      </trkpt>
      <trkpt lat="48.38368" lon="7.28177">
        <ele>955</ele>
        <time>2020-06-24T09:47:43.167Z</time>
      </trkpt>
      <trkpt lat="48.38368" lon="7.28175">
        <ele>955</ele>
        <time>2020-06-24T09:47:44.167Z</time>
      </trkpt>
      <trkpt lat="48.38368" lon="7.28173">
        <ele>956</ele>
        <time>2020-06-24T09:47:45.168Z</time>
      </trkpt>
      <trkpt lat="48.38368" lon="7.28171">
        <ele>956</ele>
        <time>2020-06-24T09:47:46.167Z</time>
      </trkpt>
      <trkpt lat="48.38368" lon="7.28168">
        <ele>955</ele>
        <time>2020-06-24T09:47:47.168Z</time>
      </trkpt>
      <trkpt lat="48.38368" lon="7.28166">
        <ele>956</ele>
        <time>2020-06-24T09:47:48.168Z</time>
      </trkpt>
      <trkpt lat="48.38368" lon="7.28164">
        <ele>955</ele>
        <time>2020-06-24T09:47:49.168Z</time>
      </trkpt>
      <trkpt lat="48.38368" lon="7.28162">
        <ele>955</ele>
        <time>2020-06-24T09:47:50.167Z</time>
      </trkpt>
      <trkpt lat="48.38368" lon="7.28161">
        <ele>955</ele>
        <time>2020-06-24T09:47:51.168Z</time>
      </trkpt>
      <trkpt lat="48.38367" lon="7.28159">
        <ele>955</ele>
        <time>2020-06-24T09:47:52.167Z</time>
      </trkpt>
      <trkpt lat="48.38367" lon="7.28158">
        <ele>955</ele>
        <time>2020-06-24T09:47:53.168Z</time>
      </trkpt>
      <trkpt lat="48.38367" lon="7.28155">
        <ele>955</ele>
        <time>2020-06-24T09:47:54.168Z</time>
      </trkpt>
      <trkpt lat="48.38367" lon="7.28154">
        <ele>955</ele>
        <time>2020-06-24T09:47:55.167Z</time>
      </trkpt>
      <trkpt lat="48.38366" lon="7.28152">
        <ele>955</ele>
        <time>2020-06-24T09:47:56.167Z</time>
      </trkpt>
      <trkpt lat="48.38366" lon="7.28151">
        <ele>956</ele>
        <time>2020-06-24T09:47:57.167Z</time>
      </trkpt>
      <trkpt lat="48.38366" lon="7.2815">
        <ele>956</ele>
        <time>2020-06-24T09:47:58.168Z</time>
      </trkpt>
      <trkpt lat="48.38365" lon="7.28149">
        <ele>957</ele>
        <time>2020-06-24T09:47:59.168Z</time>
      </trkpt>
      <trkpt lat="48.38364" lon="7.28148">
        <ele>957</ele>
        <time>2020-06-24T09:48:00.168Z</time>
      </trkpt>
      <trkpt lat="48.38363" lon="7.28148">
        <ele>957</ele>
        <time>2020-06-24T09:48:01.167Z</time>
      </trkpt>
      <trkpt lat="48.38362" lon="7.28147">
        <ele>958</ele>
        <time>2020-06-24T09:48:02.168Z</time>
      </trkpt>
      <trkpt lat="48.38362" lon="7.28145">
        <ele>958</ele>
        <time>2020-06-24T09:48:03.167Z</time>
      </trkpt>
      <trkpt lat="48.38361" lon="7.28143">
        <ele>958</ele>
        <time>2020-06-24T09:48:04.168Z</time>
      </trkpt>
      <trkpt lat="48.3836" lon="7.28142">
        <ele>958</ele>
        <time>2020-06-24T09:48:05.167Z</time>
      </trkpt>
      <trkpt lat="48.38359" lon="7.2814">
        <ele>959</ele>
        <time>2020-06-24T09:48:06.168Z</time>
      </trkpt>
      <trkpt lat="48.38358" lon="7.28138">
        <ele>959</ele>
        <time>2020-06-24T09:48:07.168Z</time>
      </trkpt>
      <trkpt lat="48.38357" lon="7.28136">
        <ele>959</ele>
        <time>2020-06-24T09:48:08.168Z</time>
      </trkpt>
      <trkpt lat="48.38357" lon="7.28133">
        <ele>959</ele>
        <time>2020-06-24T09:48:09.168Z</time>
      </trkpt>
      <trkpt lat="48.38357" lon="7.28131">
        <ele>959</ele>
        <time>2020-06-24T09:48:10.168Z</time>
      </trkpt>
      <trkpt lat="48.38357" lon="7.28129">
        <ele>959</ele>
        <time>2020-06-24T09:48:11.167Z</time>
      </trkpt>
      <trkpt lat="48.38357" lon="7.28127">
        <ele>959</ele>
        <time>2020-06-24T09:48:12.168Z</time>
      </trkpt>
      <trkpt lat="48.38357" lon="7.28126">
        <ele>960</ele>
        <time>2020-06-24T09:48:13.168Z</time>
      </trkpt>
      <trkpt lat="48.38357" lon="7.28125">
        <ele>960</ele>
        <time>2020-06-24T09:48:14.168Z</time>
      </trkpt>
      <trkpt lat="48.38357" lon="7.28122">
        <ele>960</ele>
        <time>2020-06-24T09:48:15.167Z</time>
      </trkpt>
      <trkpt lat="48.38357" lon="7.2812">
        <ele>959</ele>
        <time>2020-06-24T09:48:16.167Z</time>
      </trkpt>
      <trkpt lat="48.38357" lon="7.28119">
        <ele>959</ele>
        <time>2020-06-24T09:48:17.168Z</time>
      </trkpt>
      <trkpt lat="48.38356" lon="7.28119">
        <ele>958</ele>
        <time>2020-06-24T09:48:18.168Z</time>
      </trkpt>
      <trkpt lat="48.38355" lon="7.28119">
        <ele>958</ele>
        <time>2020-06-24T09:48:19.168Z</time>
      </trkpt>
      <trkpt lat="48.38354" lon="7.28118">
        <ele>957</ele>
        <time>2020-06-24T09:48:20.168Z</time>
      </trkpt>
      <trkpt lat="48.38353" lon="7.28118">
        <ele>957</ele>
        <time>2020-06-24T09:48:21.167Z</time>
      </trkpt>
      <trkpt lat="48.38352" lon="7.28116">
        <ele>957</ele>
        <time>2020-06-24T09:48:22.167Z</time>
      </trkpt>
      <trkpt lat="48.38351" lon="7.28115">
        <ele>957</ele>
        <time>2020-06-24T09:48:23.168Z</time>
      </trkpt>
      <trkpt lat="48.3835" lon="7.28114">
        <ele>957</ele>
        <time>2020-06-24T09:48:24.168Z</time>
      </trkpt>
      <trkpt lat="48.38348" lon="7.28111">
        <ele>957</ele>
        <time>2020-06-24T09:48:25.167Z</time>
      </trkpt>
      <trkpt lat="48.38347" lon="7.2811">
        <ele>957</ele>
        <time>2020-06-24T09:48:26.167Z</time>
      </trkpt>
      <trkpt lat="48.38346" lon="7.28107">
        <ele>957</ele>
        <time>2020-06-24T09:48:27.168Z</time>
      </trkpt>
      <trkpt lat="48.38346" lon="7.28105">
        <ele>957</ele>
        <time>2020-06-24T09:48:28.168Z</time>
      </trkpt>
      <trkpt lat="48.38346" lon="7.28103">
        <ele>957</ele>
        <time>2020-06-24T09:48:29.168Z</time>
      </trkpt>
      <trkpt lat="48.38346" lon="7.28101">
        <ele>957</ele>
        <time>2020-06-24T09:48:30.167Z</time>
      </trkpt>
      <trkpt lat="48.38346" lon="7.281">
        <ele>957</ele>
        <time>2020-06-24T09:48:31.167Z</time>
      </trkpt>
      <trkpt lat="48.38346" lon="7.28097">
        <ele>956</ele>
        <time>2020-06-24T09:48:32.168Z</time>
      </trkpt>
      <trkpt lat="48.38346" lon="7.28096">
        <ele>956</ele>
        <time>2020-06-24T09:48:33.168Z</time>
      </trkpt>
      <trkpt lat="48.38345" lon="7.28094">
        <ele>956</ele>
        <time>2020-06-24T09:48:34.168Z</time>
      </trkpt>
      <trkpt lat="48.38345" lon="7.28093">
        <ele>956</ele>
        <time>2020-06-24T09:48:35.168Z</time>
      </trkpt>
      <trkpt lat="48.38345" lon="7.28092">
        <ele>956</ele>
        <time>2020-06-24T09:48:36.168Z</time>
      </trkpt>
      <trkpt lat="48.38345" lon="7.28091">
        <ele>956</ele>
        <time>2020-06-24T09:48:37.167Z</time>
      </trkpt>
      <trkpt lat="48.38345" lon="7.28089">
        <ele>955</ele>
        <time>2020-06-24T09:48:38.168Z</time>
      </trkpt>
      <trkpt lat="48.38344" lon="7.28088">
        <ele>955</ele>
        <time>2020-06-24T09:48:39.168Z</time>
      </trkpt>
      <trkpt lat="48.38344" lon="7.28086">
        <ele>954</ele>
        <time>2020-06-24T09:48:40.168Z</time>
      </trkpt>
      <trkpt lat="48.38343" lon="7.28085">
        <ele>954</ele>
        <time>2020-06-24T09:48:41.168Z</time>
      </trkpt>
      <trkpt lat="48.38343" lon="7.28083">
        <ele>953</ele>
        <time>2020-06-24T09:48:42.167Z</time>
      </trkpt>
      <trkpt lat="48.38343" lon="7.28082">
        <ele>951</ele>
        <time>2020-06-24T09:48:43.168Z</time>
      </trkpt>
      <trkpt lat="48.38342" lon="7.28081">
        <ele>950</ele>
        <time>2020-06-24T09:48:44.168Z</time>
      </trkpt>
      <trkpt lat="48.38341" lon="7.2808">
        <ele>950</ele>
        <time>2020-06-24T09:48:45.168Z</time>
      </trkpt>
      <trkpt lat="48.3834" lon="7.28079">
        <ele>949</ele>
        <time>2020-06-24T09:48:46.167Z</time>
      </trkpt>
      <trkpt lat="48.3834" lon="7.28077">
        <ele>949</ele>
        <time>2020-06-24T09:48:47.168Z</time>
      </trkpt>
      <trkpt lat="48.38339" lon="7.28076">
        <ele>949</ele>
        <time>2020-06-24T09:48:48.167Z</time>
      </trkpt>
      <trkpt lat="48.38338" lon="7.28076">
        <ele>950</ele>
        <time>2020-06-24T09:48:49.168Z</time>
      </trkpt>
      <trkpt lat="48.38337" lon="7.28072">
        <ele>950</ele>
        <time>2020-06-24T09:48:50.167Z</time>
      </trkpt>
      <trkpt lat="48.38337" lon="7.28069">
        <ele>950</ele>
        <time>2020-06-24T09:48:51.167Z</time>
      </trkpt>
      <trkpt lat="48.38336" lon="7.28067">
        <ele>950</ele>
        <time>2020-06-24T09:48:52.167Z</time>
      </trkpt>
      <trkpt lat="48.38335" lon="7.28065">
        <ele>949</ele>
        <time>2020-06-24T09:48:53.168Z</time>
      </trkpt>
      <trkpt lat="48.38335" lon="7.28063">
        <ele>949</ele>
        <time>2020-06-24T09:48:54.168Z</time>
      </trkpt>
      <trkpt lat="48.38334" lon="7.28061">
        <ele>949</ele>
        <time>2020-06-24T09:48:55.168Z</time>
      </trkpt>
      <trkpt lat="48.38334" lon="7.28059">
        <ele>948</ele>
        <time>2020-06-24T09:48:56.168Z</time>
      </trkpt>
      <trkpt lat="48.38334" lon="7.28057">
        <ele>948</ele>
        <time>2020-06-24T09:48:57.168Z</time>
      </trkpt>
      <trkpt lat="48.38333" lon="7.28055">
        <ele>948</ele>
        <time>2020-06-24T09:48:58.168Z</time>
      </trkpt>
      <trkpt lat="48.38333" lon="7.28054">
        <ele>947</ele>
        <time>2020-06-24T09:48:59.167Z</time>
      </trkpt>
      <trkpt lat="48.38333" lon="7.28052">
        <ele>946</ele>
        <time>2020-06-24T09:49:00.167Z</time>
      </trkpt>
      <trkpt lat="48.38333" lon="7.28051">
        <ele>946</ele>
        <time>2020-06-24T09:49:01.167Z</time>
      </trkpt>
      <trkpt lat="48.38333" lon="7.2805">
        <ele>945</ele>
        <time>2020-06-24T09:49:02.168Z</time>
      </trkpt>
      <trkpt lat="48.38332" lon="7.2805">
        <ele>945</ele>
        <time>2020-06-24T09:49:03.168Z</time>
      </trkpt>
      <trkpt lat="48.38332" lon="7.28049">
        <ele>944</ele>
        <time>2020-06-24T09:49:04.168Z</time>
      </trkpt>
      <trkpt lat="48.38331" lon="7.28049">
        <ele>943</ele>
        <time>2020-06-24T09:49:05.168Z</time>
      </trkpt>
      <trkpt lat="48.3833" lon="7.28049">
        <ele>943</ele>
        <time>2020-06-24T09:49:06.168Z</time>
      </trkpt>
      <trkpt lat="48.38329" lon="7.28049">
        <ele>943</ele>
        <time>2020-06-24T09:49:07.167Z</time>
      </trkpt>
      <trkpt lat="48.38328" lon="7.2805">
        <ele>943</ele>
        <time>2020-06-24T09:49:08.167Z</time>
      </trkpt>
      <trkpt lat="48.38328" lon="7.2805">
        <ele>944</ele>
        <time>2020-06-24T09:49:09.168Z</time>
      </trkpt>
      <trkpt lat="48.38327" lon="7.2805">
        <ele>943</ele>
        <time>2020-06-24T09:49:10.167Z</time>
      </trkpt>
      <trkpt lat="48.38327" lon="7.2805">
        <ele>943</ele>
        <time>2020-06-24T09:49:11.168Z</time>
      </trkpt>
      <trkpt lat="48.38327" lon="7.28051">
        <ele>943</ele>
        <time>2020-06-24T09:49:12.168Z</time>
      </trkpt>
      <trkpt lat="48.38326" lon="7.28051">
        <ele>943</ele>
        <time>2020-06-24T09:49:13.168Z</time>
      </trkpt>
      <trkpt lat="48.38326" lon="7.28052">
        <ele>942</ele>
        <time>2020-06-24T09:49:14.168Z</time>
      </trkpt>
      <trkpt lat="48.38326" lon="7.28053">
        <ele>942</ele>
        <time>2020-06-24T09:49:15.167Z</time>
      </trkpt>
      <trkpt lat="48.38326" lon="7.28054">
        <ele>942</ele>
        <time>2020-06-24T09:49:16.168Z</time>
      </trkpt>
      <trkpt lat="48.38325" lon="7.28055">
        <ele>943</ele>
        <time>2020-06-24T09:49:17.168Z</time>
      </trkpt>
      <trkpt lat="48.38325" lon="7.28056">
        <ele>943</ele>
        <time>2020-06-24T09:49:18.168Z</time>
      </trkpt>
      <trkpt lat="48.38325" lon="7.28056">
        <ele>943</ele>
        <time>2020-06-24T09:49:19.167Z</time>
      </trkpt>
      <trkpt lat="48.38325" lon="7.28057">
        <ele>942</ele>
        <time>2020-06-24T09:49:20.167Z</time>
      </trkpt>
      <trkpt lat="48.38324" lon="7.28061">
        <ele>936</ele>
        <time>2020-06-24T09:49:21.168Z</time>
      </trkpt>
      <trkpt lat="48.38323" lon="7.28062">
        <ele>937</ele>
        <time>2020-06-24T09:49:22.168Z</time>
      </trkpt>
      <trkpt lat="48.38323" lon="7.28064">
        <ele>937</ele>
        <time>2020-06-24T09:49:23.168Z</time>
      </trkpt>
      <trkpt lat="48.38322" lon="7.28066">
        <ele>937</ele>
        <time>2020-06-24T09:49:24.168Z</time>
      </trkpt>
      <trkpt lat="48.38321" lon="7.28069">
        <ele>937</ele>
        <time>2020-06-24T09:49:25.167Z</time>
      </trkpt>
      <trkpt lat="48.3832" lon="7.28071">
        <ele>938</ele>
        <time>2020-06-24T09:49:26.168Z</time>
      </trkpt>
      <trkpt lat="48.38319" lon="7.28073">
        <ele>938</ele>
        <time>2020-06-24T09:49:27.167Z</time>
      </trkpt>
      <trkpt lat="48.38319" lon="7.28075">
        <ele>939</ele>
        <time>2020-06-24T09:49:28.168Z</time>
      </trkpt>
      <trkpt lat="48.38318" lon="7.28076">
        <ele>940</ele>
        <time>2020-06-24T09:49:29.167Z</time>
      </trkpt>
      <trkpt lat="48.38318" lon="7.28078">
        <ele>941</ele>
        <time>2020-06-24T09:49:30.168Z</time>
      </trkpt>
      <trkpt lat="48.38317" lon="7.2808">
        <ele>941</ele>
        <time>2020-06-24T09:49:31.168Z</time>
      </trkpt>
      <trkpt lat="48.38317" lon="7.28082">
        <ele>942</ele>
        <time>2020-06-24T09:49:32.168Z</time>
      </trkpt>
      <trkpt lat="48.38316" lon="7.28084">
        <ele>943</ele>
        <time>2020-06-24T09:49:33.167Z</time>
      </trkpt>
      <trkpt lat="48.38315" lon="7.28087">
        <ele>943</ele>
        <time>2020-06-24T09:49:34.168Z</time>
      </trkpt>
      <trkpt lat="48.38315" lon="7.28088">
        <ele>944</ele>
        <time>2020-06-24T09:49:35.168Z</time>
      </trkpt>
      <trkpt lat="48.38315" lon="7.2809">
        <ele>944</ele>
        <time>2020-06-24T09:49:36.168Z</time>
      </trkpt>
      <trkpt lat="48.38314" lon="7.28092">
        <ele>945</ele>
        <time>2020-06-24T09:49:37.168Z</time>
      </trkpt>
      <trkpt lat="48.38314" lon="7.28095">
        <ele>945</ele>
        <time>2020-06-24T09:49:38.168Z</time>
      </trkpt>
      <trkpt lat="48.38314" lon="7.28097">
        <ele>944</ele>
        <time>2020-06-24T09:49:39.168Z</time>
      </trkpt>
      <trkpt lat="48.38313" lon="7.281">
        <ele>944</ele>
        <time>2020-06-24T09:49:40.168Z</time>
      </trkpt>
      <trkpt lat="48.38313" lon="7.28102">
        <ele>944</ele>
        <time>2020-06-24T09:49:41.167Z</time>
      </trkpt>
      <trkpt lat="48.38313" lon="7.28104">
        <ele>944</ele>
        <time>2020-06-24T09:49:42.168Z</time>
      </trkpt>
      <trkpt lat="48.38313" lon="7.28107">
        <ele>944</ele>
        <time>2020-06-24T09:49:43.168Z</time>
      </trkpt>
      <trkpt lat="48.38314" lon="7.28109">
        <ele>944</ele>
        <time>2020-06-24T09:49:44.168Z</time>
      </trkpt>
      <trkpt lat="48.38315" lon="7.28112">
        <ele>944</ele>
        <time>2020-06-24T09:49:45.167Z</time>
      </trkpt>
      <trkpt lat="48.38315" lon="7.28114">
        <ele>944</ele>
        <time>2020-06-24T09:49:46.168Z</time>
      </trkpt>
      <trkpt lat="48.38315" lon="7.28116">
        <ele>945</ele>
        <time>2020-06-24T09:49:47.168Z</time>
      </trkpt>
      <trkpt lat="48.38315" lon="7.28118">
        <ele>945</ele>
        <time>2020-06-24T09:49:48.168Z</time>
      </trkpt>
      <trkpt lat="48.38315" lon="7.2812">
        <ele>945</ele>
        <time>2020-06-24T09:49:49.168Z</time>
      </trkpt>
      <trkpt lat="48.38315" lon="7.28122">
        <ele>945</ele>
        <time>2020-06-24T09:49:50.167Z</time>
      </trkpt>
      <trkpt lat="48.38315" lon="7.28124">
        <ele>946</ele>
        <time>2020-06-24T09:49:51.168Z</time>
      </trkpt>
      <trkpt lat="48.38315" lon="7.28126">
        <ele>946</ele>
        <time>2020-06-24T09:49:52.168Z</time>
      </trkpt>
      <trkpt lat="48.38315" lon="7.28129">
        <ele>946</ele>
        <time>2020-06-24T09:49:53.167Z</time>
      </trkpt>
      <trkpt lat="48.38315" lon="7.28131">
        <ele>946</ele>
        <time>2020-06-24T09:49:54.167Z</time>
      </trkpt>
      <trkpt lat="48.38315" lon="7.28133">
        <ele>946</ele>
        <time>2020-06-24T09:49:55.167Z</time>
      </trkpt>
      <trkpt lat="48.38314" lon="7.28134">
        <ele>946</ele>
        <time>2020-06-24T09:49:56.168Z</time>
      </trkpt>
      <trkpt lat="48.38314" lon="7.28137">
        <ele>946</ele>
        <time>2020-06-24T09:49:57.168Z</time>
      </trkpt>
      <trkpt lat="48.38313" lon="7.28139">
        <ele>946</ele>
        <time>2020-06-24T09:49:58.167Z</time>
      </trkpt>
      <trkpt lat="48.38313" lon="7.28141">
        <ele>946</ele>
        <time>2020-06-24T09:49:59.168Z</time>
      </trkpt>
      <trkpt lat="48.38313" lon="7.28143">
        <ele>947</ele>
        <time>2020-06-24T09:50:00.168Z</time>
      </trkpt>
      <trkpt lat="48.38313" lon="7.28145">
        <ele>947</ele>
        <time>2020-06-24T09:50:01.168Z</time>
      </trkpt>
      <trkpt lat="48.38313" lon="7.28147">
        <ele>947</ele>
        <time>2020-06-24T09:50:02.168Z</time>
      </trkpt>
      <trkpt lat="48.38313" lon="7.28149">
        <ele>947</ele>
        <time>2020-06-24T09:50:03.168Z</time>
      </trkpt>
      <trkpt lat="48.38313" lon="7.28152">
        <ele>947</ele>
        <time>2020-06-24T09:50:04.168Z</time>
      </trkpt>
      <trkpt lat="48.38312" lon="7.28153">
        <ele>947</ele>
        <time>2020-06-24T09:50:05.168Z</time>
      </trkpt>
      <trkpt lat="48.38311" lon="7.28156">
        <ele>946</ele>
        <time>2020-06-24T09:50:06.167Z</time>
      </trkpt>
      <trkpt lat="48.3831" lon="7.28159">
        <ele>946</ele>
        <time>2020-06-24T09:50:07.167Z</time>
      </trkpt>
      <trkpt lat="48.3831" lon="7.28162">
        <ele>945</ele>
        <time>2020-06-24T09:50:08.168Z</time>
      </trkpt>
      <trkpt lat="48.3831" lon="7.28163">
        <ele>944</ele>
        <time>2020-06-24T09:50:09.167Z</time>
      </trkpt>
      <trkpt lat="48.3831" lon="7.28165">
        <ele>944</ele>
        <time>2020-06-24T09:50:10.167Z</time>
      </trkpt>
      <trkpt lat="48.3831" lon="7.28167">
        <ele>943</ele>
        <time>2020-06-24T09:50:11.168Z</time>
      </trkpt>
      <trkpt lat="48.3831" lon="7.2817">
        <ele>943</ele>
        <time>2020-06-24T09:50:12.168Z</time>
      </trkpt>
      <trkpt lat="48.38311" lon="7.28172">
        <ele>942</ele>
        <time>2020-06-24T09:50:13.168Z</time>
      </trkpt>
      <trkpt lat="48.38311" lon="7.28174">
        <ele>942</ele>
        <time>2020-06-24T09:50:14.168Z</time>
      </trkpt>
      <trkpt lat="48.38311" lon="7.28176">
        <ele>941</ele>
        <time>2020-06-24T09:50:15.168Z</time>
      </trkpt>
      <trkpt lat="48.38311" lon="7.28178">
        <ele>940</ele>
        <time>2020-06-24T09:50:16.168Z</time>
      </trkpt>
      <trkpt lat="48.38311" lon="7.2818">
        <ele>940</ele>
        <time>2020-06-24T09:50:17.167Z</time>
      </trkpt>
      <trkpt lat="48.38311" lon="7.28182">
        <ele>939</ele>
        <time>2020-06-24T09:50:18.167Z</time>
      </trkpt>
      <trkpt lat="48.38311" lon="7.28184">
        <ele>939</ele>
        <time>2020-06-24T09:50:19.167Z</time>
      </trkpt>
      <trkpt lat="48.38311" lon="7.28186">
        <ele>938</ele>
        <time>2020-06-24T09:50:20.168Z</time>
      </trkpt>
      <trkpt lat="48.38311" lon="7.28189">
        <ele>938</ele>
        <time>2020-06-24T09:50:21.168Z</time>
      </trkpt>
      <trkpt lat="48.38311" lon="7.28191">
        <ele>938</ele>
        <time>2020-06-24T09:50:22.168Z</time>
      </trkpt>
      <trkpt lat="48.38311" lon="7.28193">
        <ele>937</ele>
        <time>2020-06-24T09:50:23.167Z</time>
      </trkpt>
      <trkpt lat="48.38311" lon="7.28195">
        <ele>937</ele>
        <time>2020-06-24T09:50:24.168Z</time>
      </trkpt>
      <trkpt lat="48.38311" lon="7.28198">
        <ele>937</ele>
        <time>2020-06-24T09:50:25.168Z</time>
      </trkpt>
      <trkpt lat="48.38311" lon="7.282">
        <ele>936</ele>
        <time>2020-06-24T09:50:26.168Z</time>
      </trkpt>
      <trkpt lat="48.38311" lon="7.28202">
        <ele>936</ele>
        <time>2020-06-24T09:50:27.168Z</time>
      </trkpt>
      <trkpt lat="48.3831" lon="7.28205">
        <ele>936</ele>
        <time>2020-06-24T09:50:28.168Z</time>
      </trkpt>
      <trkpt lat="48.3831" lon="7.28207">
        <ele>936</ele>
        <time>2020-06-24T09:50:29.168Z</time>
      </trkpt>
      <trkpt lat="48.3831" lon="7.28209">
        <ele>935</ele>
        <time>2020-06-24T09:50:30.168Z</time>
      </trkpt>
      <trkpt lat="48.3831" lon="7.28212">
        <ele>935</ele>
        <time>2020-06-24T09:50:31.168Z</time>
      </trkpt>
      <trkpt lat="48.3831" lon="7.28214">
        <ele>935</ele>
        <time>2020-06-24T09:50:32.168Z</time>
      </trkpt>
      <trkpt lat="48.3831" lon="7.28217">
        <ele>935</ele>
        <time>2020-06-24T09:50:33.167Z</time>
      </trkpt>
      <trkpt lat="48.38309" lon="7.2822">
        <ele>935</ele>
        <time>2020-06-24T09:50:34.168Z</time>
      </trkpt>
      <trkpt lat="48.3831" lon="7.28223">
        <ele>935</ele>
        <time>2020-06-24T09:50:35.167Z</time>
      </trkpt>
      <trkpt lat="48.3831" lon="7.28225">
        <ele>935</ele>
        <time>2020-06-24T09:50:36.168Z</time>
      </trkpt>
      <trkpt lat="48.3831" lon="7.28227">
        <ele>935</ele>
        <time>2020-06-24T09:50:37.167Z</time>
      </trkpt>
      <trkpt lat="48.38311" lon="7.2823">
        <ele>935</ele>
        <time>2020-06-24T09:50:38.167Z</time>
      </trkpt>
      <trkpt lat="48.38312" lon="7.28231">
        <ele>935</ele>
        <time>2020-06-24T09:50:39.167Z</time>
      </trkpt>
      <trkpt lat="48.38312" lon="7.28234">
        <ele>935</ele>
        <time>2020-06-24T09:50:40.167Z</time>
      </trkpt>
      <trkpt lat="48.38312" lon="7.28236">
        <ele>934</ele>
        <time>2020-06-24T09:50:41.168Z</time>
      </trkpt>
      <trkpt lat="48.38312" lon="7.28238">
        <ele>934</ele>
        <time>2020-06-24T09:50:42.167Z</time>
      </trkpt>
      <trkpt lat="48.38312" lon="7.2824">
        <ele>934</ele>
        <time>2020-06-24T09:50:43.167Z</time>
      </trkpt>
      <trkpt lat="48.38312" lon="7.28242">
        <ele>934</ele>
        <time>2020-06-24T09:50:44.167Z</time>
      </trkpt>
      <trkpt lat="48.38313" lon="7.28244">
        <ele>934</ele>
        <time>2020-06-24T09:50:45.167Z</time>
      </trkpt>
      <trkpt lat="48.38313" lon="7.28246">
        <ele>933</ele>
        <time>2020-06-24T09:50:46.168Z</time>
      </trkpt>
      <trkpt lat="48.38313" lon="7.28248">
        <ele>933</ele>
        <time>2020-06-24T09:50:47.168Z</time>
      </trkpt>
      <trkpt lat="48.38313" lon="7.2825">
        <ele>933</ele>
        <time>2020-06-24T09:50:48.168Z</time>
      </trkpt>
      <trkpt lat="48.38313" lon="7.28251">
        <ele>933</ele>
        <time>2020-06-24T09:50:49.168Z</time>
      </trkpt>
      <trkpt lat="48.38313" lon="7.28254">
        <ele>933</ele>
        <time>2020-06-24T09:50:50.168Z</time>
      </trkpt>
      <trkpt lat="48.38313" lon="7.28255">
        <ele>932</ele>
        <time>2020-06-24T09:50:51.167Z</time>
      </trkpt>
      <trkpt lat="48.38313" lon="7.28257">
        <ele>932</ele>
        <time>2020-06-24T09:50:52.167Z</time>
      </trkpt>
      <trkpt lat="48.38313" lon="7.28258">
        <ele>932</ele>
        <time>2020-06-24T09:50:53.167Z</time>
      </trkpt>
      <trkpt lat="48.38313" lon="7.28261">
        <ele>932</ele>
        <time>2020-06-24T09:50:54.167Z</time>
      </trkpt>
      <trkpt lat="48.38313" lon="7.28262">
        <ele>931</ele>
        <time>2020-06-24T09:50:55.168Z</time>
      </trkpt>
      <trkpt lat="48.38313" lon="7.28264">
        <ele>931</ele>
        <time>2020-06-24T09:50:56.168Z</time>
      </trkpt>
      <trkpt lat="48.38313" lon="7.28265">
        <ele>930</ele>
        <time>2020-06-24T09:50:57.168Z</time>
      </trkpt>
      <trkpt lat="48.38313" lon="7.28265">
        <ele>929</ele>
        <time>2020-06-24T09:50:58.168Z</time>
      </trkpt>
      <trkpt lat="48.38313" lon="7.28265">
        <ele>929</ele>
        <time>2020-06-24T09:50:59.168Z</time>
      </trkpt>
      <trkpt lat="48.38313" lon="7.28265">
        <ele>928</ele>
        <time>2020-06-24T09:51:00.167Z</time>
      </trkpt>
      <trkpt lat="48.38312" lon="7.28267">
        <ele>925</ele>
        <time>2020-06-24T09:51:01.169Z</time>
      </trkpt>
      <trkpt lat="48.38313" lon="7.28269">
        <ele>925</ele>
        <time>2020-06-24T09:51:02.169Z</time>
      </trkpt>
      <trkpt lat="48.38313" lon="7.28271">
        <ele>925</ele>
        <time>2020-06-24T09:51:03.168Z</time>
      </trkpt>
      <trkpt lat="48.38312" lon="7.28272">
        <ele>926</ele>
        <time>2020-06-24T09:51:04.168Z</time>
      </trkpt>
      <trkpt lat="48.38312" lon="7.28274">
        <ele>926</ele>
        <time>2020-06-24T09:51:05.169Z</time>
      </trkpt>
      <trkpt lat="48.38312" lon="7.28276">
        <ele>926</ele>
        <time>2020-06-24T09:51:06.169Z</time>
      </trkpt>
      <trkpt lat="48.38312" lon="7.28279">
        <ele>926</ele>
        <time>2020-06-24T09:51:07.169Z</time>
      </trkpt>
      <trkpt lat="48.38313" lon="7.2828">
        <ele>926</ele>
        <time>2020-06-24T09:51:08.169Z</time>
      </trkpt>
      <trkpt lat="48.38313" lon="7.28282">
        <ele>926</ele>
        <time>2020-06-24T09:51:09.169Z</time>
      </trkpt>
      <trkpt lat="48.38312" lon="7.28284">
        <ele>926</ele>
        <time>2020-06-24T09:51:10.168Z</time>
      </trkpt>
      <trkpt lat="48.38312" lon="7.28285">
        <ele>926</ele>
        <time>2020-06-24T09:51:11.169Z</time>
      </trkpt>
      <trkpt lat="48.38313" lon="7.28287">
        <ele>925</ele>
        <time>2020-06-24T09:51:12.169Z</time>
      </trkpt>
      <trkpt lat="48.38313" lon="7.2829">
        <ele>925</ele>
        <time>2020-06-24T09:51:13.169Z</time>
      </trkpt>
      <trkpt lat="48.38313" lon="7.28292">
        <ele>925</ele>
        <time>2020-06-24T09:51:14.169Z</time>
      </trkpt>
      <trkpt lat="48.38312" lon="7.28293">
        <ele>925</ele>
        <time>2020-06-24T09:51:15.169Z</time>
      </trkpt>
      <trkpt lat="48.38312" lon="7.28295">
        <ele>925</ele>
        <time>2020-06-24T09:51:16.168Z</time>
      </trkpt>
      <trkpt lat="48.38312" lon="7.28297">
        <ele>924</ele>
        <time>2020-06-24T09:51:17.168Z</time>
      </trkpt>
      <trkpt lat="48.38312" lon="7.28299">
        <ele>924</ele>
        <time>2020-06-24T09:51:18.169Z</time>
      </trkpt>
      <trkpt lat="48.38312" lon="7.28302">
        <ele>923</ele>
        <time>2020-06-24T09:51:19.169Z</time>
      </trkpt>
      <trkpt lat="48.38312" lon="7.28303">
        <ele>923</ele>
        <time>2020-06-24T09:51:20.169Z</time>
      </trkpt>
      <trkpt lat="48.38312" lon="7.28305">
        <ele>923</ele>
        <time>2020-06-24T09:51:21.169Z</time>
      </trkpt>
      <trkpt lat="48.38312" lon="7.28307">
        <ele>923</ele>
        <time>2020-06-24T09:51:22.169Z</time>
      </trkpt>
      <trkpt lat="48.38312" lon="7.28309">
        <ele>923</ele>
        <time>2020-06-24T09:51:23.169Z</time>
      </trkpt>
      <trkpt lat="48.38312" lon="7.28311">
        <ele>923</ele>
        <time>2020-06-24T09:51:24.169Z</time>
      </trkpt>
      <trkpt lat="48.38312" lon="7.28313">
        <ele>923</ele>
        <time>2020-06-24T09:51:25.168Z</time>
      </trkpt>
      <trkpt lat="48.38312" lon="7.28316">
        <ele>923</ele>
        <time>2020-06-24T09:51:26.169Z</time>
      </trkpt>
      <trkpt lat="48.38312" lon="7.28318">
        <ele>923</ele>
        <time>2020-06-24T09:51:27.169Z</time>
      </trkpt>
      <trkpt lat="48.38312" lon="7.2832">
        <ele>923</ele>
        <time>2020-06-24T09:51:28.169Z</time>
      </trkpt>
      <trkpt lat="48.38312" lon="7.28322">
        <ele>923</ele>
        <time>2020-06-24T09:51:29.169Z</time>
      </trkpt>
      <trkpt lat="48.38311" lon="7.28324">
        <ele>922</ele>
        <time>2020-06-24T09:51:30.169Z</time>
      </trkpt>
      <trkpt lat="48.38311" lon="7.28326">
        <ele>922</ele>
        <time>2020-06-24T09:51:31.169Z</time>
      </trkpt>
      <trkpt lat="48.38311" lon="7.28328">
        <ele>922</ele>
        <time>2020-06-24T09:51:32.169Z</time>
      </trkpt>
      <trkpt lat="48.3831" lon="7.2833">
        <ele>922</ele>
        <time>2020-06-24T09:51:33.169Z</time>
      </trkpt>
      <trkpt lat="48.3831" lon="7.28332">
        <ele>922</ele>
        <time>2020-06-24T09:51:34.168Z</time>
      </trkpt>
      <trkpt lat="48.3831" lon="7.28334">
        <ele>922</ele>
        <time>2020-06-24T09:51:35.168Z</time>
      </trkpt>
      <trkpt lat="48.3831" lon="7.28335">
        <ele>922</ele>
        <time>2020-06-24T09:51:36.169Z</time>
      </trkpt>
      <trkpt lat="48.3831" lon="7.28337">
        <ele>922</ele>
        <time>2020-06-24T09:51:37.169Z</time>
      </trkpt>
      <trkpt lat="48.3831" lon="7.28339">
        <ele>921</ele>
        <time>2020-06-24T09:51:38.169Z</time>
      </trkpt>
      <trkpt lat="48.3831" lon="7.28341">
        <ele>921</ele>
        <time>2020-06-24T09:51:39.168Z</time>
      </trkpt>
      <trkpt lat="48.3831" lon="7.28343">
        <ele>921</ele>
        <time>2020-06-24T09:51:40.169Z</time>
      </trkpt>
      <trkpt lat="48.38309" lon="7.28344">
        <ele>921</ele>
        <time>2020-06-24T09:51:41.169Z</time>
      </trkpt>
      <trkpt lat="48.38309" lon="7.28345">
        <ele>921</ele>
        <time>2020-06-24T09:51:42.169Z</time>
      </trkpt>
      <trkpt lat="48.38309" lon="7.28345">
        <ele>921</ele>
        <time>2020-06-24T09:51:43.169Z</time>
      </trkpt>
      <trkpt lat="48.38309" lon="7.28346">
        <ele>922</ele>
        <time>2020-06-24T09:51:44.169Z</time>
      </trkpt>
      <trkpt lat="48.3831" lon="7.28346">
        <ele>922</ele>
        <time>2020-06-24T09:51:45.169Z</time>
      </trkpt>
      <trkpt lat="48.3831" lon="7.28347">
        <ele>922</ele>
        <time>2020-06-24T09:51:46.169Z</time>
      </trkpt>
      <trkpt lat="48.3831" lon="7.28349">
        <ele>922</ele>
        <time>2020-06-24T09:51:47.169Z</time>
      </trkpt>
      <trkpt lat="48.38311" lon="7.28351">
        <ele>922</ele>
        <time>2020-06-24T09:51:48.169Z</time>
      </trkpt>
      <trkpt lat="48.38311" lon="7.28353">
        <ele>922</ele>
        <time>2020-06-24T09:51:49.169Z</time>
      </trkpt>
      <trkpt lat="48.38311" lon="7.28355">
        <ele>921</ele>
        <time>2020-06-24T09:51:50.169Z</time>
      </trkpt>
      <trkpt lat="48.38312" lon="7.28357">
        <ele>922</ele>
        <time>2020-06-24T09:51:51.169Z</time>
      </trkpt>
      <trkpt lat="48.38312" lon="7.28359">
        <ele>922</ele>
        <time>2020-06-24T09:51:52.169Z</time>
      </trkpt>
      <trkpt lat="48.38312" lon="7.28361">
        <ele>922</ele>
        <time>2020-06-24T09:51:53.168Z</time>
      </trkpt>
      <trkpt lat="48.38312" lon="7.28363">
        <ele>922</ele>
        <time>2020-06-24T09:51:54.169Z</time>
      </trkpt>
      <trkpt lat="48.38313" lon="7.28365">
        <ele>921</ele>
        <time>2020-06-24T09:51:55.169Z</time>
      </trkpt>
      <trkpt lat="48.38312" lon="7.28367">
        <ele>921</ele>
        <time>2020-06-24T09:51:56.169Z</time>
      </trkpt>
      <trkpt lat="48.38312" lon="7.2837">
        <ele>921</ele>
        <time>2020-06-24T09:51:57.168Z</time>
      </trkpt>
      <trkpt lat="48.38312" lon="7.28372">
        <ele>921</ele>
        <time>2020-06-24T09:51:58.168Z</time>
      </trkpt>
      <trkpt lat="48.38312" lon="7.28373">
        <ele>920</ele>
        <time>2020-06-24T09:51:59.169Z</time>
      </trkpt>
      <trkpt lat="48.38312" lon="7.28376">
        <ele>920</ele>
        <time>2020-06-24T09:52:00.168Z</time>
      </trkpt>
      <trkpt lat="48.38312" lon="7.28378">
        <ele>920</ele>
        <time>2020-06-24T09:52:01.169Z</time>
      </trkpt>
      <trkpt lat="48.38312" lon="7.28379">
        <ele>920</ele>
        <time>2020-06-24T09:52:02.169Z</time>
      </trkpt>
      <trkpt lat="48.38313" lon="7.28381">
        <ele>920</ele>
        <time>2020-06-24T09:52:03.169Z</time>
      </trkpt>
      <trkpt lat="48.38313" lon="7.28382">
        <ele>919</ele>
        <time>2020-06-24T09:52:04.169Z</time>
      </trkpt>
      <trkpt lat="48.38314" lon="7.28384">
        <ele>919</ele>
        <time>2020-06-24T09:52:05.169Z</time>
      </trkpt>
      <trkpt lat="48.38314" lon="7.28386">
        <ele>919</ele>
        <time>2020-06-24T09:52:06.169Z</time>
      </trkpt>
      <trkpt lat="48.38314" lon="7.28389">
        <ele>918</ele>
        <time>2020-06-24T09:52:07.168Z</time>
      </trkpt>
      <trkpt lat="48.38315" lon="7.28391">
        <ele>918</ele>
        <time>2020-06-24T09:52:08.168Z</time>
      </trkpt>
      <trkpt lat="48.38315" lon="7.28393">
        <ele>917</ele>
        <time>2020-06-24T09:52:09.169Z</time>
      </trkpt>
      <trkpt lat="48.38316" lon="7.28395">
        <ele>917</ele>
        <time>2020-06-24T09:52:10.168Z</time>
      </trkpt>
      <trkpt lat="48.38316" lon="7.28397">
        <ele>917</ele>
        <time>2020-06-24T09:52:11.168Z</time>
      </trkpt>
      <trkpt lat="48.38317" lon="7.28399">
        <ele>916</ele>
        <time>2020-06-24T09:52:12.169Z</time>
      </trkpt>
      <trkpt lat="48.38317" lon="7.28401">
        <ele>916</ele>
        <time>2020-06-24T09:52:13.169Z</time>
      </trkpt>
      <trkpt lat="48.38318" lon="7.28403">
        <ele>915</ele>
        <time>2020-06-24T09:52:14.169Z</time>
      </trkpt>
      <trkpt lat="48.38318" lon="7.28405">
        <ele>915</ele>
        <time>2020-06-24T09:52:15.169Z</time>
      </trkpt>
      <trkpt lat="48.38319" lon="7.28406">
        <ele>915</ele>
        <time>2020-06-24T09:52:16.169Z</time>
      </trkpt>
      <trkpt lat="48.3832" lon="7.28408">
        <ele>914</ele>
        <time>2020-06-24T09:52:17.169Z</time>
      </trkpt>
      <trkpt lat="48.3832" lon="7.28409">
        <ele>914</ele>
        <time>2020-06-24T09:52:18.169Z</time>
      </trkpt>
      <trkpt lat="48.38321" lon="7.28411">
        <ele>914</ele>
        <time>2020-06-24T09:52:19.169Z</time>
      </trkpt>
      <trkpt lat="48.38321" lon="7.28413">
        <ele>914</ele>
        <time>2020-06-24T09:52:20.168Z</time>
      </trkpt>
      <trkpt lat="48.38321" lon="7.28415">
        <ele>914</ele>
        <time>2020-06-24T09:52:21.169Z</time>
      </trkpt>
      <trkpt lat="48.38322" lon="7.28416">
        <ele>914</ele>
        <time>2020-06-24T09:52:22.168Z</time>
      </trkpt>
      <trkpt lat="48.38322" lon="7.28418">
        <ele>914</ele>
        <time>2020-06-24T09:52:23.169Z</time>
      </trkpt>
      <trkpt lat="48.38322" lon="7.2842">
        <ele>913</ele>
        <time>2020-06-24T09:52:24.168Z</time>
      </trkpt>
      <trkpt lat="48.38323" lon="7.28422">
        <ele>913</ele>
        <time>2020-06-24T09:52:25.169Z</time>
      </trkpt>
      <trkpt lat="48.38323" lon="7.28424">
        <ele>913</ele>
        <time>2020-06-24T09:52:26.169Z</time>
      </trkpt>
      <trkpt lat="48.38323" lon="7.28426">
        <ele>913</ele>
        <time>2020-06-24T09:52:27.168Z</time>
      </trkpt>
      <trkpt lat="48.38323" lon="7.28427">
        <ele>913</ele>
        <time>2020-06-24T09:52:28.169Z</time>
      </trkpt>
      <trkpt lat="48.38324" lon="7.28429">
        <ele>913</ele>
        <time>2020-06-24T09:52:29.169Z</time>
      </trkpt>
      <trkpt lat="48.38324" lon="7.28431">
        <ele>913</ele>
        <time>2020-06-24T09:52:30.168Z</time>
      </trkpt>
      <trkpt lat="48.38324" lon="7.28433">
        <ele>913</ele>
        <time>2020-06-24T09:52:31.169Z</time>
      </trkpt>
      <trkpt lat="48.38325" lon="7.28434">
        <ele>913</ele>
        <time>2020-06-24T09:52:32.168Z</time>
      </trkpt>
      <trkpt lat="48.38325" lon="7.28435">
        <ele>913</ele>
        <time>2020-06-24T09:52:33.169Z</time>
      </trkpt>
      <trkpt lat="48.38325" lon="7.28437">
        <ele>914</ele>
        <time>2020-06-24T09:52:34.168Z</time>
      </trkpt>
      <trkpt lat="48.38326" lon="7.28439">
        <ele>914</ele>
        <time>2020-06-24T09:52:35.169Z</time>
      </trkpt>
      <trkpt lat="48.38327" lon="7.2844">
        <ele>914</ele>
        <time>2020-06-24T09:52:36.168Z</time>
      </trkpt>
      <trkpt lat="48.38327" lon="7.28442">
        <ele>915</ele>
        <time>2020-06-24T09:52:37.169Z</time>
      </trkpt>
      <trkpt lat="48.38328" lon="7.28444">
        <ele>915</ele>
        <time>2020-06-24T09:52:38.169Z</time>
      </trkpt>
      <trkpt lat="48.38329" lon="7.28445">
        <ele>914</ele>
        <time>2020-06-24T09:52:39.169Z</time>
      </trkpt>
      <trkpt lat="48.3833" lon="7.28447">
        <ele>914</ele>
        <time>2020-06-24T09:52:40.168Z</time>
      </trkpt>
      <trkpt lat="48.38331" lon="7.28449">
        <ele>914</ele>
        <time>2020-06-24T09:52:41.169Z</time>
      </trkpt>
      <trkpt lat="48.38331" lon="7.2845">
        <ele>914</ele>
        <time>2020-06-24T09:52:42.169Z</time>
      </trkpt>
      <trkpt lat="48.38332" lon="7.28452">
        <ele>913</ele>
        <time>2020-06-24T09:52:43.169Z</time>
      </trkpt>
      <trkpt lat="48.38333" lon="7.28455">
        <ele>913</ele>
        <time>2020-06-24T09:52:44.169Z</time>
      </trkpt>
      <trkpt lat="48.38334" lon="7.28457">
        <ele>913</ele>
        <time>2020-06-24T09:52:45.169Z</time>
      </trkpt>
      <trkpt lat="48.38335" lon="7.28459">
        <ele>913</ele>
        <time>2020-06-24T09:52:46.169Z</time>
      </trkpt>
      <trkpt lat="48.38335" lon="7.2846">
        <ele>913</ele>
        <time>2020-06-24T09:52:47.169Z</time>
      </trkpt>
      <trkpt lat="48.38336" lon="7.28462">
        <ele>913</ele>
        <time>2020-06-24T09:52:48.169Z</time>
      </trkpt>
      <trkpt lat="48.38337" lon="7.28463">
        <ele>914</ele>
        <time>2020-06-24T09:52:49.169Z</time>
      </trkpt>
      <trkpt lat="48.38339" lon="7.28465">
        <ele>914</ele>
        <time>2020-06-24T09:52:50.168Z</time>
      </trkpt>
      <trkpt lat="48.38339" lon="7.28466">
        <ele>915</ele>
        <time>2020-06-24T09:52:51.169Z</time>
      </trkpt>
      <trkpt lat="48.38339" lon="7.28467">
        <ele>915</ele>
        <time>2020-06-24T09:52:52.169Z</time>
      </trkpt>
      <trkpt lat="48.3834" lon="7.28468">
        <ele>915</ele>
        <time>2020-06-24T09:52:53.169Z</time>
      </trkpt>
      <trkpt lat="48.38341" lon="7.28469">
        <ele>915</ele>
        <time>2020-06-24T09:52:54.168Z</time>
      </trkpt>
      <trkpt lat="48.38342" lon="7.2847">
        <ele>914</ele>
        <time>2020-06-24T09:52:55.169Z</time>
      </trkpt>
      <trkpt lat="48.38343" lon="7.28472">
        <ele>914</ele>
        <time>2020-06-24T09:52:56.168Z</time>
      </trkpt>
      <trkpt lat="48.38345" lon="7.28473">
        <ele>914</ele>
        <time>2020-06-24T09:52:57.169Z</time>
      </trkpt>
      <trkpt lat="48.38346" lon="7.28474">
        <ele>914</ele>
        <time>2020-06-24T09:52:58.169Z</time>
      </trkpt>
      <trkpt lat="48.38347" lon="7.28476">
        <ele>914</ele>
        <time>2020-06-24T09:52:59.169Z</time>
      </trkpt>
      <trkpt lat="48.38347" lon="7.28477">
        <ele>913</ele>
        <time>2020-06-24T09:53:00.169Z</time>
      </trkpt>
      <trkpt lat="48.38348" lon="7.28478">
        <ele>912</ele>
        <time>2020-06-24T09:53:01.169Z</time>
      </trkpt>
      <trkpt lat="48.38348" lon="7.2848">
        <ele>911</ele>
        <time>2020-06-24T09:53:02.169Z</time>
      </trkpt>
      <trkpt lat="48.38348" lon="7.28482">
        <ele>911</ele>
        <time>2020-06-24T09:53:03.169Z</time>
      </trkpt>
      <trkpt lat="48.38348" lon="7.28484">
        <ele>910</ele>
        <time>2020-06-24T09:53:04.168Z</time>
      </trkpt>
      <trkpt lat="48.38349" lon="7.28485">
        <ele>909</ele>
        <time>2020-06-24T09:53:05.169Z</time>
      </trkpt>
      <trkpt lat="48.3835" lon="7.28486">
        <ele>909</ele>
        <time>2020-06-24T09:53:06.168Z</time>
      </trkpt>
      <trkpt lat="48.38351" lon="7.28487">
        <ele>909</ele>
        <time>2020-06-24T09:53:07.168Z</time>
      </trkpt>
      <trkpt lat="48.38351" lon="7.28489">
        <ele>908</ele>
        <time>2020-06-24T09:53:08.169Z</time>
      </trkpt>
      <trkpt lat="48.38352" lon="7.2849">
        <ele>908</ele>
        <time>2020-06-24T09:53:09.169Z</time>
      </trkpt>
      <trkpt lat="48.38353" lon="7.28492">
        <ele>907</ele>
        <time>2020-06-24T09:53:10.168Z</time>
      </trkpt>
      <trkpt lat="48.38354" lon="7.28493">
        <ele>907</ele>
        <time>2020-06-24T09:53:11.169Z</time>
      </trkpt>
      <trkpt lat="48.38354" lon="7.28494">
        <ele>906</ele>
        <time>2020-06-24T09:53:12.168Z</time>
      </trkpt>
      <trkpt lat="48.38354" lon="7.28495">
        <ele>906</ele>
        <time>2020-06-24T09:53:13.168Z</time>
      </trkpt>
      <trkpt lat="48.38354" lon="7.28495">
        <ele>906</ele>
        <time>2020-06-24T09:53:14.168Z</time>
      </trkpt>
      <trkpt lat="48.38355" lon="7.28496">
        <ele>905</ele>
        <time>2020-06-24T09:53:15.168Z</time>
      </trkpt>
      <trkpt lat="48.38355" lon="7.28496">
        <ele>905</ele>
        <time>2020-06-24T09:53:16.169Z</time>
      </trkpt>
      <trkpt lat="48.38356" lon="7.28497">
        <ele>904</ele>
        <time>2020-06-24T09:53:17.169Z</time>
      </trkpt>
      <trkpt lat="48.38357" lon="7.28498">
        <ele>904</ele>
        <time>2020-06-24T09:53:18.168Z</time>
      </trkpt>
      <trkpt lat="48.38357" lon="7.285">
        <ele>903</ele>
        <time>2020-06-24T09:53:19.169Z</time>
      </trkpt>
      <trkpt lat="48.38358" lon="7.28501">
        <ele>903</ele>
        <time>2020-06-24T09:53:20.169Z</time>
      </trkpt>
      <trkpt lat="48.38359" lon="7.28502">
        <ele>902</ele>
        <time>2020-06-24T09:53:21.169Z</time>
      </trkpt>
      <trkpt lat="48.38359" lon="7.28504">
        <ele>902</ele>
        <time>2020-06-24T09:53:22.169Z</time>
      </trkpt>
      <trkpt lat="48.3836" lon="7.28505">
        <ele>902</ele>
        <time>2020-06-24T09:53:23.169Z</time>
      </trkpt>
      <trkpt lat="48.3836" lon="7.28506">
        <ele>901</ele>
        <time>2020-06-24T09:53:24.168Z</time>
      </trkpt>
      <trkpt lat="48.38361" lon="7.28507">
        <ele>901</ele>
        <time>2020-06-24T09:53:25.169Z</time>
      </trkpt>
      <trkpt lat="48.38362" lon="7.28508">
        <ele>901</ele>
        <time>2020-06-24T09:53:26.169Z</time>
      </trkpt>
      <trkpt lat="48.38362" lon="7.28509">
        <ele>900</ele>
        <time>2020-06-24T09:53:27.169Z</time>
      </trkpt>
      <trkpt lat="48.38362" lon="7.2851">
        <ele>900</ele>
        <time>2020-06-24T09:53:28.169Z</time>
      </trkpt>
      <trkpt lat="48.38363" lon="7.2851">
        <ele>900</ele>
        <time>2020-06-24T09:53:29.168Z</time>
      </trkpt>
      <trkpt lat="48.38363" lon="7.28511">
        <ele>901</ele>
        <time>2020-06-24T09:53:30.168Z</time>
      </trkpt>
      <trkpt lat="48.38363" lon="7.28511">
        <ele>901</ele>
        <time>2020-06-24T09:53:31.169Z</time>
      </trkpt>
      <trkpt lat="48.38363" lon="7.28512">
        <ele>901</ele>
        <time>2020-06-24T09:53:32.168Z</time>
      </trkpt>
      <trkpt lat="48.38363" lon="7.28513">
        <ele>901</ele>
        <time>2020-06-24T09:53:33.168Z</time>
      </trkpt>
      <trkpt lat="48.38363" lon="7.28514">
        <ele>901</ele>
        <time>2020-06-24T09:53:34.168Z</time>
      </trkpt>
      <trkpt lat="48.38364" lon="7.28515">
        <ele>902</ele>
        <time>2020-06-24T09:53:35.169Z</time>
      </trkpt>
      <trkpt lat="48.38364" lon="7.28516">
        <ele>902</ele>
        <time>2020-06-24T09:53:36.169Z</time>
      </trkpt>
      <trkpt lat="48.38364" lon="7.28516">
        <ele>902</ele>
        <time>2020-06-24T09:53:37.168Z</time>
      </trkpt>
      <trkpt lat="48.38365" lon="7.28518">
        <ele>902</ele>
        <time>2020-06-24T09:53:38.168Z</time>
      </trkpt>
      <trkpt lat="48.38366" lon="7.28519">
        <ele>903</ele>
        <time>2020-06-24T09:53:39.169Z</time>
      </trkpt>
      <trkpt lat="48.38367" lon="7.28518">
        <ele>903</ele>
        <time>2020-06-24T09:53:40.169Z</time>
      </trkpt>
      <trkpt lat="48.38368" lon="7.28518">
        <ele>903</ele>
        <time>2020-06-24T09:53:41.169Z</time>
      </trkpt>
      <trkpt lat="48.38369" lon="7.28517">
        <ele>903</ele>
        <time>2020-06-24T09:53:42.169Z</time>
      </trkpt>
      <trkpt lat="48.38371" lon="7.28516">
        <ele>903</ele>
        <time>2020-06-24T09:53:43.169Z</time>
      </trkpt>
      <trkpt lat="48.38371" lon="7.28515">
        <ele>903</ele>
        <time>2020-06-24T09:53:44.168Z</time>
      </trkpt>
      <trkpt lat="48.38373" lon="7.28515">
        <ele>903</ele>
        <time>2020-06-24T09:53:45.169Z</time>
      </trkpt>
      <trkpt lat="48.38373" lon="7.28516">
        <ele>902</ele>
        <time>2020-06-24T09:53:46.169Z</time>
      </trkpt>
      <trkpt lat="48.38373" lon="7.28517">
        <ele>902</ele>
        <time>2020-06-24T09:53:47.169Z</time>
      </trkpt>
      <trkpt lat="48.38373" lon="7.28518">
        <ele>902</ele>
        <time>2020-06-24T09:53:48.168Z</time>
      </trkpt>
      <trkpt lat="48.38373" lon="7.28519">
        <ele>902</ele>
        <time>2020-06-24T09:53:49.169Z</time>
      </trkpt>
      <trkpt lat="48.38374" lon="7.28519">
        <ele>902</ele>
        <time>2020-06-24T09:53:50.169Z</time>
      </trkpt>
      <trkpt lat="48.38374" lon="7.28519">
        <ele>902</ele>
        <time>2020-06-24T09:53:51.168Z</time>
      </trkpt>
      <trkpt lat="48.38374" lon="7.28521">
        <ele>901</ele>
        <time>2020-06-24T09:53:52.170Z</time>
      </trkpt>
      <trkpt lat="48.38373" lon="7.28521">
        <ele>901</ele>
        <time>2020-06-24T09:53:53.169Z</time>
      </trkpt>
      <trkpt lat="48.38374" lon="7.28525">
        <ele>901</ele>
        <time>2020-06-24T09:53:54.170Z</time>
      </trkpt>
      <trkpt lat="48.38376" lon="7.28525">
        <ele>901</ele>
        <time>2020-06-24T09:53:55.169Z</time>
      </trkpt>
      <trkpt lat="48.38377" lon="7.28525">
        <ele>901</ele>
        <time>2020-06-24T09:53:56.169Z</time>
      </trkpt>
      <trkpt lat="48.38379" lon="7.28525">
        <ele>901</ele>
        <time>2020-06-24T09:53:57.170Z</time>
      </trkpt>
      <trkpt lat="48.3838" lon="7.28525">
        <ele>900</ele>
        <time>2020-06-24T09:53:58.169Z</time>
      </trkpt>
      <trkpt lat="48.38381" lon="7.28526">
        <ele>900</ele>
        <time>2020-06-24T09:53:59.170Z</time>
      </trkpt>
      <trkpt lat="48.38383" lon="7.28526">
        <ele>900</ele>
        <time>2020-06-24T09:54:00.170Z</time>
      </trkpt>
      <trkpt lat="48.38385" lon="7.28526">
        <ele>900</ele>
        <time>2020-06-24T09:54:01.169Z</time>
      </trkpt>
      <trkpt lat="48.38386" lon="7.28527">
        <ele>901</ele>
        <time>2020-06-24T09:54:02.169Z</time>
      </trkpt>
      <trkpt lat="48.38387" lon="7.28527">
        <ele>901</ele>
        <time>2020-06-24T09:54:03.169Z</time>
      </trkpt>
      <trkpt lat="48.38389" lon="7.28528">
        <ele>902</ele>
        <time>2020-06-24T09:54:04.169Z</time>
      </trkpt>
      <trkpt lat="48.38389" lon="7.28528">
        <ele>902</ele>
        <time>2020-06-24T09:54:05.170Z</time>
      </trkpt>
      <trkpt lat="48.38391" lon="7.28529">
        <ele>903</ele>
        <time>2020-06-24T09:54:06.170Z</time>
      </trkpt>
      <trkpt lat="48.38392" lon="7.2853">
        <ele>903</ele>
        <time>2020-06-24T09:54:07.169Z</time>
      </trkpt>
      <trkpt lat="48.38394" lon="7.28531">
        <ele>903</ele>
        <time>2020-06-24T09:54:08.170Z</time>
      </trkpt>
      <trkpt lat="48.38395" lon="7.28532">
        <ele>904</ele>
        <time>2020-06-24T09:54:09.170Z</time>
      </trkpt>
      <trkpt lat="48.38397" lon="7.28534">
        <ele>904</ele>
        <time>2020-06-24T09:54:10.169Z</time>
      </trkpt>
      <trkpt lat="48.38398" lon="7.28536">
        <ele>904</ele>
        <time>2020-06-24T09:54:11.170Z</time>
      </trkpt>
      <trkpt lat="48.38399" lon="7.28537">
        <ele>904</ele>
        <time>2020-06-24T09:54:12.170Z</time>
      </trkpt>
      <trkpt lat="48.384" lon="7.28538">
        <ele>903</ele>
        <time>2020-06-24T09:54:13.170Z</time>
      </trkpt>
      <trkpt lat="48.38401" lon="7.28539">
        <ele>903</ele>
        <time>2020-06-24T09:54:14.170Z</time>
      </trkpt>
      <trkpt lat="48.38402" lon="7.2854">
        <ele>903</ele>
        <time>2020-06-24T09:54:15.170Z</time>
      </trkpt>
      <trkpt lat="48.38404" lon="7.28541">
        <ele>903</ele>
        <time>2020-06-24T09:54:16.170Z</time>
      </trkpt>
      <trkpt lat="48.38405" lon="7.28543">
        <ele>902</ele>
        <time>2020-06-24T09:54:17.170Z</time>
      </trkpt>
      <trkpt lat="48.38407" lon="7.28544">
        <ele>902</ele>
        <time>2020-06-24T09:54:18.170Z</time>
      </trkpt>
      <trkpt lat="48.38409" lon="7.28546">
        <ele>902</ele>
        <time>2020-06-24T09:54:19.170Z</time>
      </trkpt>
      <trkpt lat="48.3841" lon="7.28547">
        <ele>902</ele>
        <time>2020-06-24T09:54:20.169Z</time>
      </trkpt>
      <trkpt lat="48.3841" lon="7.28548">
        <ele>902</ele>
        <time>2020-06-24T09:54:21.170Z</time>
      </trkpt>
      <trkpt lat="48.38412" lon="7.28548">
        <ele>902</ele>
        <time>2020-06-24T09:54:22.170Z</time>
      </trkpt>
      <trkpt lat="48.38413" lon="7.28548">
        <ele>902</ele>
        <time>2020-06-24T09:54:23.169Z</time>
      </trkpt>
      <trkpt lat="48.38414" lon="7.28548">
        <ele>901</ele>
        <time>2020-06-24T09:54:24.170Z</time>
      </trkpt>
      <trkpt lat="48.38415" lon="7.28549">
        <ele>901</ele>
        <time>2020-06-24T09:54:25.169Z</time>
      </trkpt>
      <trkpt lat="48.38417" lon="7.2855">
        <ele>901</ele>
        <time>2020-06-24T09:54:26.170Z</time>
      </trkpt>
      <trkpt lat="48.38417" lon="7.2855">
        <ele>900</ele>
        <time>2020-06-24T09:54:27.169Z</time>
      </trkpt>
      <trkpt lat="48.38418" lon="7.28551">
        <ele>899</ele>
        <time>2020-06-24T09:54:28.170Z</time>
      </trkpt>
      <trkpt lat="48.38419" lon="7.28551">
        <ele>897</ele>
        <time>2020-06-24T09:54:29.170Z</time>
      </trkpt>
      <trkpt lat="48.3842" lon="7.28553">
        <ele>896</ele>
        <time>2020-06-24T09:54:30.170Z</time>
      </trkpt>
      <trkpt lat="48.3842" lon="7.28553">
        <ele>895</ele>
        <time>2020-06-24T09:54:31.169Z</time>
      </trkpt>
      <trkpt lat="48.38421" lon="7.28554">
        <ele>895</ele>
        <time>2020-06-24T09:54:32.169Z</time>
      </trkpt>
      <trkpt lat="48.38422" lon="7.28555">
        <ele>895</ele>
        <time>2020-06-24T09:54:33.170Z</time>
      </trkpt>
      <trkpt lat="48.38422" lon="7.28556">
        <ele>895</ele>
        <time>2020-06-24T09:54:34.170Z</time>
      </trkpt>
      <trkpt lat="48.38423" lon="7.28557">
        <ele>895</ele>
        <time>2020-06-24T09:54:35.170Z</time>
      </trkpt>
      <trkpt lat="48.38425" lon="7.28558">
        <ele>895</ele>
        <time>2020-06-24T09:54:36.170Z</time>
      </trkpt>
      <trkpt lat="48.38425" lon="7.2856">
        <ele>895</ele>
        <time>2020-06-24T09:54:37.170Z</time>
      </trkpt>
      <trkpt lat="48.38426" lon="7.28562">
        <ele>895</ele>
        <time>2020-06-24T09:54:38.170Z</time>
      </trkpt>
      <trkpt lat="48.38427" lon="7.28563">
        <ele>896</ele>
        <time>2020-06-24T09:54:39.170Z</time>
      </trkpt>
      <trkpt lat="48.38428" lon="7.28564">
        <ele>896</ele>
        <time>2020-06-24T09:54:40.169Z</time>
      </trkpt>
      <trkpt lat="48.38428" lon="7.28565">
        <ele>897</ele>
        <time>2020-06-24T09:54:41.169Z</time>
      </trkpt>
      <trkpt lat="48.38429" lon="7.28566">
        <ele>898</ele>
        <time>2020-06-24T09:54:42.170Z</time>
      </trkpt>
      <trkpt lat="48.3843" lon="7.28568">
        <ele>898</ele>
        <time>2020-06-24T09:54:43.170Z</time>
      </trkpt>
      <trkpt lat="48.38431" lon="7.28569">
        <ele>898</ele>
        <time>2020-06-24T09:54:44.170Z</time>
      </trkpt>
      <trkpt lat="48.38432" lon="7.2857">
        <ele>898</ele>
        <time>2020-06-24T09:54:45.170Z</time>
      </trkpt>
      <trkpt lat="48.38432" lon="7.2857">
        <ele>897</ele>
        <time>2020-06-24T09:54:46.169Z</time>
      </trkpt>
      <trkpt lat="48.38432" lon="7.28571">
        <ele>897</ele>
        <time>2020-06-24T09:54:47.169Z</time>
      </trkpt>
      <trkpt lat="48.38433" lon="7.28571">
        <ele>897</ele>
        <time>2020-06-24T09:54:48.170Z</time>
      </trkpt>
      <trkpt lat="48.38433" lon="7.28571">
        <ele>896</ele>
        <time>2020-06-24T09:54:49.170Z</time>
      </trkpt>
      <trkpt lat="48.38433" lon="7.2857">
        <ele>896</ele>
        <time>2020-06-24T09:54:50.170Z</time>
      </trkpt>
      <trkpt lat="48.38433" lon="7.28568">
        <ele>896</ele>
        <time>2020-06-24T09:54:51.170Z</time>
      </trkpt>
      <trkpt lat="48.38433" lon="7.28568">
        <ele>896</ele>
        <time>2020-06-24T09:54:52.169Z</time>
      </trkpt>
      <trkpt lat="48.38434" lon="7.28568">
        <ele>896</ele>
        <time>2020-06-24T09:54:53.170Z</time>
      </trkpt>
      <trkpt lat="48.38434" lon="7.28568">
        <ele>895</ele>
        <time>2020-06-24T09:54:54.170Z</time>
      </trkpt>
      <trkpt lat="48.38434" lon="7.28568">
        <ele>895</ele>
        <time>2020-06-24T09:54:55.170Z</time>
      </trkpt>
      <trkpt lat="48.38434" lon="7.28568">
        <ele>896</ele>
        <time>2020-06-24T09:54:56.170Z</time>
      </trkpt>
      <trkpt lat="48.38435" lon="7.28569">
        <ele>896</ele>
        <time>2020-06-24T09:54:57.169Z</time>
      </trkpt>
      <trkpt lat="48.38436" lon="7.2857">
        <ele>896</ele>
        <time>2020-06-24T09:54:58.170Z</time>
      </trkpt>
      <trkpt lat="48.38437" lon="7.28571">
        <ele>896</ele>
        <time>2020-06-24T09:54:59.169Z</time>
      </trkpt>
      <trkpt lat="48.38438" lon="7.28573">
        <ele>896</ele>
        <time>2020-06-24T09:55:00.170Z</time>
      </trkpt>
      <trkpt lat="48.38438" lon="7.28574">
        <ele>896</ele>
        <time>2020-06-24T09:55:01.170Z</time>
      </trkpt>
      <trkpt lat="48.38439" lon="7.28576">
        <ele>895</ele>
        <time>2020-06-24T09:55:02.170Z</time>
      </trkpt>
      <trkpt lat="48.3844" lon="7.28577">
        <ele>895</ele>
        <time>2020-06-24T09:55:03.169Z</time>
      </trkpt>
      <trkpt lat="48.38441" lon="7.28579">
        <ele>895</ele>
        <time>2020-06-24T09:55:04.170Z</time>
      </trkpt>
      <trkpt lat="48.38442" lon="7.28581">
        <ele>895</ele>
        <time>2020-06-24T09:55:05.170Z</time>
      </trkpt>
      <trkpt lat="48.38443" lon="7.28583">
        <ele>894</ele>
        <time>2020-06-24T09:55:06.169Z</time>
      </trkpt>
      <trkpt lat="48.38444" lon="7.28585">
        <ele>894</ele>
        <time>2020-06-24T09:55:07.170Z</time>
      </trkpt>
      <trkpt lat="48.38445" lon="7.28586">
        <ele>894</ele>
        <time>2020-06-24T09:55:08.170Z</time>
      </trkpt>
      <trkpt lat="48.38445" lon="7.28587">
        <ele>894</ele>
        <time>2020-06-24T09:55:09.170Z</time>
      </trkpt>
      <trkpt lat="48.38446" lon="7.28589">
        <ele>894</ele>
        <time>2020-06-24T09:55:10.170Z</time>
      </trkpt>
      <trkpt lat="48.38446" lon="7.2859">
        <ele>894</ele>
        <time>2020-06-24T09:55:11.169Z</time>
      </trkpt>
      <trkpt lat="48.38447" lon="7.28591">
        <ele>894</ele>
        <time>2020-06-24T09:55:12.170Z</time>
      </trkpt>
      <trkpt lat="48.38448" lon="7.28593">
        <ele>894</ele>
        <time>2020-06-24T09:55:13.170Z</time>
      </trkpt>
      <trkpt lat="48.38448" lon="7.28594">
        <ele>894</ele>
        <time>2020-06-24T09:55:14.170Z</time>
      </trkpt>
      <trkpt lat="48.38449" lon="7.28595">
        <ele>893</ele>
        <time>2020-06-24T09:55:15.170Z</time>
      </trkpt>
      <trkpt lat="48.38449" lon="7.28596">
        <ele>893</ele>
        <time>2020-06-24T09:55:16.170Z</time>
      </trkpt>
      <trkpt lat="48.3845" lon="7.28597">
        <ele>893</ele>
        <time>2020-06-24T09:55:17.170Z</time>
      </trkpt>
      <trkpt lat="48.38451" lon="7.28598">
        <ele>893</ele>
        <time>2020-06-24T09:55:18.170Z</time>
      </trkpt>
      <trkpt lat="48.38452" lon="7.286">
        <ele>893</ele>
        <time>2020-06-24T09:55:19.170Z</time>
      </trkpt>
      <trkpt lat="48.38452" lon="7.28601">
        <ele>892</ele>
        <time>2020-06-24T09:55:20.170Z</time>
      </trkpt>
      <trkpt lat="48.38453" lon="7.28602">
        <ele>892</ele>
        <time>2020-06-24T09:55:21.170Z</time>
      </trkpt>
      <trkpt lat="48.38453" lon="7.28604">
        <ele>892</ele>
        <time>2020-06-24T09:55:22.170Z</time>
      </trkpt>
      <trkpt lat="48.38454" lon="7.28605">
        <ele>892</ele>
        <time>2020-06-24T09:55:23.170Z</time>
      </trkpt>
      <trkpt lat="48.38455" lon="7.28605">
        <ele>892</ele>
        <time>2020-06-24T09:55:24.170Z</time>
      </trkpt>
      <trkpt lat="48.38456" lon="7.28606">
        <ele>892</ele>
        <time>2020-06-24T09:55:25.170Z</time>
      </trkpt>
      <trkpt lat="48.38457" lon="7.28608">
        <ele>892</ele>
        <time>2020-06-24T09:55:26.169Z</time>
      </trkpt>
      <trkpt lat="48.38458" lon="7.28609">
        <ele>892</ele>
        <time>2020-06-24T09:55:27.170Z</time>
      </trkpt>
      <trkpt lat="48.38459" lon="7.28611">
        <ele>892</ele>
        <time>2020-06-24T09:55:28.170Z</time>
      </trkpt>
      <trkpt lat="48.3846" lon="7.28611">
        <ele>892</ele>
        <time>2020-06-24T09:55:29.169Z</time>
      </trkpt>
      <trkpt lat="48.3846" lon="7.28613">
        <ele>892</ele>
        <time>2020-06-24T09:55:30.170Z</time>
      </trkpt>
      <trkpt lat="48.38461" lon="7.28614">
        <ele>893</ele>
        <time>2020-06-24T09:55:31.169Z</time>
      </trkpt>
      <trkpt lat="48.38462" lon="7.28616">
        <ele>893</ele>
        <time>2020-06-24T09:55:32.170Z</time>
      </trkpt>
      <trkpt lat="48.38463" lon="7.28617">
        <ele>893</ele>
        <time>2020-06-24T09:55:33.170Z</time>
      </trkpt>
      <trkpt lat="48.38465" lon="7.28619">
        <ele>893</ele>
        <time>2020-06-24T09:55:34.169Z</time>
      </trkpt>
      <trkpt lat="48.38466" lon="7.2862">
        <ele>893</ele>
        <time>2020-06-24T09:55:35.170Z</time>
      </trkpt>
      <trkpt lat="48.38467" lon="7.28622">
        <ele>893</ele>
        <time>2020-06-24T09:55:36.170Z</time>
      </trkpt>
      <trkpt lat="48.38469" lon="7.28626">
        <ele>893</ele>
        <time>2020-06-24T09:55:37.170Z</time>
      </trkpt>
      <trkpt lat="48.3847" lon="7.2863">
        <ele>893</ele>
        <time>2020-06-24T09:55:38.169Z</time>
      </trkpt>
      <trkpt lat="48.38471" lon="7.28631">
        <ele>893</ele>
        <time>2020-06-24T09:55:39.170Z</time>
      </trkpt>
      <trkpt lat="48.38473" lon="7.28632">
        <ele>893</ele>
        <time>2020-06-24T09:55:40.169Z</time>
      </trkpt>
      <trkpt lat="48.38474" lon="7.28632">
        <ele>893</ele>
        <time>2020-06-24T09:55:41.170Z</time>
      </trkpt>
      <trkpt lat="48.38476" lon="7.28635">
        <ele>893</ele>
        <time>2020-06-24T09:55:42.169Z</time>
      </trkpt>
      <trkpt lat="48.38477" lon="7.28636">
        <ele>893</ele>
        <time>2020-06-24T09:55:43.169Z</time>
      </trkpt>
      <trkpt lat="48.38478" lon="7.28638">
        <ele>893</ele>
        <time>2020-06-24T09:55:44.169Z</time>
      </trkpt>
      <trkpt lat="48.38479" lon="7.28638">
        <ele>892</ele>
        <time>2020-06-24T09:55:45.170Z</time>
      </trkpt>
      <trkpt lat="48.3848" lon="7.28639">
        <ele>892</ele>
        <time>2020-06-24T09:55:46.170Z</time>
      </trkpt>
      <trkpt lat="48.3848" lon="7.2864">
        <ele>892</ele>
        <time>2020-06-24T09:55:47.169Z</time>
      </trkpt>
      <trkpt lat="48.38481" lon="7.28641">
        <ele>891</ele>
        <time>2020-06-24T09:55:48.170Z</time>
      </trkpt>
      <trkpt lat="48.38482" lon="7.28642">
        <ele>891</ele>
        <time>2020-06-24T09:55:49.170Z</time>
      </trkpt>
      <trkpt lat="48.38483" lon="7.28643">
        <ele>891</ele>
        <time>2020-06-24T09:55:50.170Z</time>
      </trkpt>
      <trkpt lat="48.38484" lon="7.28643">
        <ele>891</ele>
        <time>2020-06-24T09:55:51.170Z</time>
      </trkpt>
      <trkpt lat="48.38486" lon="7.28644">
        <ele>890</ele>
        <time>2020-06-24T09:55:52.169Z</time>
      </trkpt>
      <trkpt lat="48.38487" lon="7.28645">
        <ele>890</ele>
        <time>2020-06-24T09:55:53.170Z</time>
      </trkpt>
      <trkpt lat="48.38488" lon="7.28647">
        <ele>890</ele>
        <time>2020-06-24T09:55:54.170Z</time>
      </trkpt>
      <trkpt lat="48.3849" lon="7.28649">
        <ele>890</ele>
        <time>2020-06-24T09:55:55.169Z</time>
      </trkpt>
      <trkpt lat="48.38491" lon="7.28651">
        <ele>890</ele>
        <time>2020-06-24T09:55:56.170Z</time>
      </trkpt>
      <trkpt lat="48.38491" lon="7.28652">
        <ele>890</ele>
        <time>2020-06-24T09:55:57.170Z</time>
      </trkpt>
      <trkpt lat="48.38492" lon="7.28652">
        <ele>890</ele>
        <time>2020-06-24T09:55:58.169Z</time>
      </trkpt>
      <trkpt lat="48.38494" lon="7.28653">
        <ele>890</ele>
        <time>2020-06-24T09:55:59.170Z</time>
      </trkpt>
      <trkpt lat="48.38495" lon="7.28654">
        <ele>890</ele>
        <time>2020-06-24T09:56:00.169Z</time>
      </trkpt>
      <trkpt lat="48.38496" lon="7.28656">
        <ele>890</ele>
        <time>2020-06-24T09:56:01.170Z</time>
      </trkpt>
      <trkpt lat="48.38497" lon="7.28658">
        <ele>889</ele>
        <time>2020-06-24T09:56:02.170Z</time>
      </trkpt>
      <trkpt lat="48.38499" lon="7.2866">
        <ele>889</ele>
        <time>2020-06-24T09:56:03.169Z</time>
      </trkpt>
      <trkpt lat="48.385" lon="7.28661">
        <ele>889</ele>
        <time>2020-06-24T09:56:04.170Z</time>
      </trkpt>
      <trkpt lat="48.38501" lon="7.28664">
        <ele>889</ele>
        <time>2020-06-24T09:56:05.170Z</time>
      </trkpt>
      <trkpt lat="48.38502" lon="7.28666">
        <ele>889</ele>
        <time>2020-06-24T09:56:06.169Z</time>
      </trkpt>
      <trkpt lat="48.38504" lon="7.28668">
        <ele>889</ele>
        <time>2020-06-24T09:56:07.170Z</time>
      </trkpt>
      <trkpt lat="48.38505" lon="7.28669">
        <ele>889</ele>
        <time>2020-06-24T09:56:08.169Z</time>
      </trkpt>
      <trkpt lat="48.38507" lon="7.2867">
        <ele>890</ele>
        <time>2020-06-24T09:56:09.170Z</time>
      </trkpt>
      <trkpt lat="48.38508" lon="7.28673">
        <ele>890</ele>
        <time>2020-06-24T09:56:10.170Z</time>
      </trkpt>
      <trkpt lat="48.3851" lon="7.28674">
        <ele>890</ele>
        <time>2020-06-24T09:56:11.169Z</time>
      </trkpt>
      <trkpt lat="48.38511" lon="7.28675">
        <ele>890</ele>
        <time>2020-06-24T09:56:12.170Z</time>
      </trkpt>
      <trkpt lat="48.38511" lon="7.28676">
        <ele>891</ele>
        <time>2020-06-24T09:56:13.170Z</time>
      </trkpt>
      <trkpt lat="48.38512" lon="7.28678">
        <ele>891</ele>
        <time>2020-06-24T09:56:14.170Z</time>
      </trkpt>
      <trkpt lat="48.38512" lon="7.28679">
        <ele>891</ele>
        <time>2020-06-24T09:56:15.170Z</time>
      </trkpt>
      <trkpt lat="48.38512" lon="7.2868">
        <ele>891</ele>
        <time>2020-06-24T09:56:16.169Z</time>
      </trkpt>
      <trkpt lat="48.38513" lon="7.28682">
        <ele>891</ele>
        <time>2020-06-24T09:56:17.170Z</time>
      </trkpt>
      <trkpt lat="48.38514" lon="7.28683">
        <ele>891</ele>
        <time>2020-06-24T09:56:18.169Z</time>
      </trkpt>
      <trkpt lat="48.38514" lon="7.28684">
        <ele>891</ele>
        <time>2020-06-24T09:56:19.170Z</time>
      </trkpt>
      <trkpt lat="48.38516" lon="7.28685">
        <ele>891</ele>
        <time>2020-06-24T09:56:20.170Z</time>
      </trkpt>
      <trkpt lat="48.38517" lon="7.28686">
        <ele>891</ele>
        <time>2020-06-24T09:56:21.169Z</time>
      </trkpt>
      <trkpt lat="48.38518" lon="7.28688">
        <ele>890</ele>
        <time>2020-06-24T09:56:22.170Z</time>
      </trkpt>
      <trkpt lat="48.38519" lon="7.2869">
        <ele>890</ele>
        <time>2020-06-24T09:56:23.170Z</time>
      </trkpt>
      <trkpt lat="48.3852" lon="7.28692">
        <ele>889</ele>
        <time>2020-06-24T09:56:24.169Z</time>
      </trkpt>
      <trkpt lat="48.38521" lon="7.28694">
        <ele>889</ele>
        <time>2020-06-24T09:56:25.170Z</time>
      </trkpt>
      <trkpt lat="48.38522" lon="7.28695">
        <ele>888</ele>
        <time>2020-06-24T09:56:26.170Z</time>
      </trkpt>
      <trkpt lat="48.38524" lon="7.28696">
        <ele>888</ele>
        <time>2020-06-24T09:56:27.170Z</time>
      </trkpt>
      <trkpt lat="48.38525" lon="7.28698">
        <ele>888</ele>
        <time>2020-06-24T09:56:28.170Z</time>
      </trkpt>
      <trkpt lat="48.38525" lon="7.287">
        <ele>888</ele>
        <time>2020-06-24T09:56:29.170Z</time>
      </trkpt>
      <trkpt lat="48.38526" lon="7.28701">
        <ele>888</ele>
        <time>2020-06-24T09:56:30.170Z</time>
      </trkpt>
      <trkpt lat="48.38526" lon="7.28702">
        <ele>888</ele>
        <time>2020-06-24T09:56:31.170Z</time>
      </trkpt>
      <trkpt lat="48.38527" lon="7.28703">
        <ele>888</ele>
        <time>2020-06-24T09:56:32.169Z</time>
      </trkpt>
      <trkpt lat="48.38529" lon="7.28705">
        <ele>888</ele>
        <time>2020-06-24T09:56:33.170Z</time>
      </trkpt>
      <trkpt lat="48.3853" lon="7.28707">
        <ele>888</ele>
        <time>2020-06-24T09:56:34.170Z</time>
      </trkpt>
      <trkpt lat="48.38531" lon="7.28708">
        <ele>888</ele>
        <time>2020-06-24T09:56:35.170Z</time>
      </trkpt>
      <trkpt lat="48.38531" lon="7.2871">
        <ele>888</ele>
        <time>2020-06-24T09:56:36.169Z</time>
      </trkpt>
      <trkpt lat="48.38531" lon="7.2871">
        <ele>888</ele>
        <time>2020-06-24T09:56:37.169Z</time>
      </trkpt>
      <trkpt lat="48.38532" lon="7.28711">
        <ele>888</ele>
        <time>2020-06-24T09:56:38.170Z</time>
      </trkpt>
      <trkpt lat="48.38533" lon="7.28713">
        <ele>888</ele>
        <time>2020-06-24T09:56:39.170Z</time>
      </trkpt>
      <trkpt lat="48.38534" lon="7.28714">
        <ele>887</ele>
        <time>2020-06-24T09:56:40.170Z</time>
      </trkpt>
      <trkpt lat="48.38535" lon="7.28714">
        <ele>887</ele>
        <time>2020-06-24T09:56:41.170Z</time>
      </trkpt>
      <trkpt lat="48.38536" lon="7.28715">
        <ele>887</ele>
        <time>2020-06-24T09:56:42.170Z</time>
      </trkpt>
      <trkpt lat="48.38538" lon="7.28715">
        <ele>887</ele>
        <time>2020-06-24T09:56:43.170Z</time>
      </trkpt>
      <trkpt lat="48.38539" lon="7.28716">
        <ele>887</ele>
        <time>2020-06-24T09:56:44.169Z</time>
      </trkpt>
      <trkpt lat="48.3854" lon="7.28717">
        <ele>887</ele>
        <time>2020-06-24T09:56:45.170Z</time>
      </trkpt>
      <trkpt lat="48.38541" lon="7.28718">
        <ele>886</ele>
        <time>2020-06-24T09:56:46.170Z</time>
      </trkpt>
      <trkpt lat="48.38541" lon="7.2872">
        <ele>886</ele>
        <time>2020-06-24T09:56:47.170Z</time>
      </trkpt>
      <trkpt lat="48.38542" lon="7.28723">
        <ele>885</ele>
        <time>2020-06-24T09:56:48.169Z</time>
      </trkpt>
      <trkpt lat="48.38544" lon="7.28725">
        <ele>884</ele>
        <time>2020-06-24T09:56:49.170Z</time>
      </trkpt>
      <trkpt lat="48.38545" lon="7.28726">
        <ele>884</ele>
        <time>2020-06-24T09:56:50.169Z</time>
      </trkpt>
      <trkpt lat="48.38546" lon="7.28728">
        <ele>883</ele>
        <time>2020-06-24T09:56:51.169Z</time>
      </trkpt>
      <trkpt lat="48.38547" lon="7.2873">
        <ele>882</ele>
        <time>2020-06-24T09:56:52.170Z</time>
      </trkpt>
      <trkpt lat="48.38548" lon="7.28732">
        <ele>882</ele>
        <time>2020-06-24T09:56:53.169Z</time>
      </trkpt>
      <trkpt lat="48.38549" lon="7.28734">
        <ele>881</ele>
        <time>2020-06-24T09:56:54.169Z</time>
      </trkpt>
      <trkpt lat="48.3855" lon="7.28736">
        <ele>881</ele>
        <time>2020-06-24T09:56:55.170Z</time>
      </trkpt>
      <trkpt lat="48.38552" lon="7.28738">
        <ele>881</ele>
        <time>2020-06-24T09:56:56.169Z</time>
      </trkpt>
      <trkpt lat="48.38553" lon="7.2874">
        <ele>881</ele>
        <time>2020-06-24T09:56:57.169Z</time>
      </trkpt>
      <trkpt lat="48.38554" lon="7.28743">
        <ele>881</ele>
        <time>2020-06-24T09:56:58.170Z</time>
      </trkpt>
      <trkpt lat="48.38554" lon="7.28744">
        <ele>880</ele>
        <time>2020-06-24T09:56:59.170Z</time>
      </trkpt>
      <trkpt lat="48.38555" lon="7.28747">
        <ele>880</ele>
        <time>2020-06-24T09:57:00.170Z</time>
      </trkpt>
      <trkpt lat="48.38556" lon="7.28748">
        <ele>879</ele>
        <time>2020-06-24T09:57:01.169Z</time>
      </trkpt>
      <trkpt lat="48.38556" lon="7.2875">
        <ele>878</ele>
        <time>2020-06-24T09:57:02.170Z</time>
      </trkpt>
      <trkpt lat="48.38557" lon="7.28751">
        <ele>877</ele>
        <time>2020-06-24T09:57:03.170Z</time>
      </trkpt>
      <trkpt lat="48.38557" lon="7.28752">
        <ele>876</ele>
        <time>2020-06-24T09:57:04.170Z</time>
      </trkpt>
      <trkpt lat="48.38558" lon="7.28754">
        <ele>876</ele>
        <time>2020-06-24T09:57:05.169Z</time>
      </trkpt>
      <trkpt lat="48.38558" lon="7.28756">
        <ele>876</ele>
        <time>2020-06-24T09:57:06.169Z</time>
      </trkpt>
      <trkpt lat="48.38559" lon="7.28758">
        <ele>876</ele>
        <time>2020-06-24T09:57:07.170Z</time>
      </trkpt>
      <trkpt lat="48.38559" lon="7.28758">
        <ele>876</ele>
        <time>2020-06-24T09:57:08.170Z</time>
      </trkpt>
      <trkpt lat="48.38559" lon="7.28759">
        <ele>876</ele>
        <time>2020-06-24T09:57:09.169Z</time>
      </trkpt>
      <trkpt lat="48.38559" lon="7.28762">
        <ele>876</ele>
        <time>2020-06-24T09:57:10.170Z</time>
      </trkpt>
      <trkpt lat="48.38559" lon="7.28762">
        <ele>876</ele>
        <time>2020-06-24T09:57:11.169Z</time>
      </trkpt>
      <trkpt lat="48.38559" lon="7.28762">
        <ele>877</ele>
        <time>2020-06-24T09:57:12.170Z</time>
      </trkpt>
      <trkpt lat="48.38557" lon="7.2877">
        <ele>878</ele>
        <time>2020-06-24T09:57:13.170Z</time>
      </trkpt>
      <trkpt lat="48.38556" lon="7.2877">
        <ele>878</ele>
        <time>2020-06-24T09:57:14.169Z</time>
      </trkpt>
      <trkpt lat="48.38556" lon="7.2877">
        <ele>878</ele>
        <time>2020-06-24T09:57:15.170Z</time>
      </trkpt>
      <trkpt lat="48.38559" lon="7.28776">
        <ele>868</ele>
        <time>2020-06-24T09:57:16.170Z</time>
      </trkpt>
      <trkpt lat="48.3856" lon="7.28778">
        <ele>868</ele>
        <time>2020-06-24T09:57:17.170Z</time>
      </trkpt>
      <trkpt lat="48.38561" lon="7.28781">
        <ele>868</ele>
        <time>2020-06-24T09:57:18.170Z</time>
      </trkpt>
      <trkpt lat="48.38562" lon="7.28783">
        <ele>869</ele>
        <time>2020-06-24T09:57:19.170Z</time>
      </trkpt>
      <trkpt lat="48.38563" lon="7.28785">
        <ele>869</ele>
        <time>2020-06-24T09:57:20.169Z</time>
      </trkpt>
      <trkpt lat="48.38564" lon="7.28787">
        <ele>869</ele>
        <time>2020-06-24T09:57:21.169Z</time>
      </trkpt>
      <trkpt lat="48.38565" lon="7.2879">
        <ele>869</ele>
        <time>2020-06-24T09:57:22.170Z</time>
      </trkpt>
      <trkpt lat="48.38566" lon="7.28793">
        <ele>869</ele>
        <time>2020-06-24T09:57:23.170Z</time>
      </trkpt>
      <trkpt lat="48.38567" lon="7.28794">
        <ele>869</ele>
        <time>2020-06-24T09:57:24.170Z</time>
      </trkpt>
      <trkpt lat="48.38568" lon="7.28797">
        <ele>869</ele>
        <time>2020-06-24T09:57:25.170Z</time>
      </trkpt>
      <trkpt lat="48.38569" lon="7.28799">
        <ele>869</ele>
        <time>2020-06-24T09:57:26.170Z</time>
      </trkpt>
      <trkpt lat="48.3857" lon="7.28801">
        <ele>869</ele>
        <time>2020-06-24T09:57:27.170Z</time>
      </trkpt>
      <trkpt lat="48.3857" lon="7.28802">
        <ele>870</ele>
        <time>2020-06-24T09:57:28.170Z</time>
      </trkpt>
      <trkpt lat="48.38571" lon="7.28804">
        <ele>870</ele>
        <time>2020-06-24T09:57:29.169Z</time>
      </trkpt>
      <trkpt lat="48.38572" lon="7.28806">
        <ele>870</ele>
        <time>2020-06-24T09:57:30.169Z</time>
      </trkpt>
      <trkpt lat="48.38573" lon="7.28808">
        <ele>870</ele>
        <time>2020-06-24T09:57:31.169Z</time>
      </trkpt>
      <trkpt lat="48.38573" lon="7.2881">
        <ele>870</ele>
        <time>2020-06-24T09:57:32.170Z</time>
      </trkpt>
      <trkpt lat="48.38574" lon="7.28812">
        <ele>870</ele>
        <time>2020-06-24T09:57:33.170Z</time>
      </trkpt>
      <trkpt lat="48.38574" lon="7.28814">
        <ele>870</ele>
        <time>2020-06-24T09:57:34.170Z</time>
      </trkpt>
      <trkpt lat="48.38575" lon="7.28815">
        <ele>870</ele>
        <time>2020-06-24T09:57:35.169Z</time>
      </trkpt>
      <trkpt lat="48.38576" lon="7.28818">
        <ele>871</ele>
        <time>2020-06-24T09:57:36.170Z</time>
      </trkpt>
      <trkpt lat="48.38577" lon="7.28819">
        <ele>871</ele>
        <time>2020-06-24T09:57:37.169Z</time>
      </trkpt>
      <trkpt lat="48.38578" lon="7.28822">
        <ele>870</ele>
        <time>2020-06-24T09:57:38.169Z</time>
      </trkpt>
      <trkpt lat="48.38579" lon="7.28823">
        <ele>870</ele>
        <time>2020-06-24T09:57:39.170Z</time>
      </trkpt>
      <trkpt lat="48.3858" lon="7.28826">
        <ele>869</ele>
        <time>2020-06-24T09:57:40.170Z</time>
      </trkpt>
      <trkpt lat="48.38581" lon="7.2883">
        <ele>869</ele>
        <time>2020-06-24T09:57:41.169Z</time>
      </trkpt>
      <trkpt lat="48.38582" lon="7.28832">
        <ele>869</ele>
        <time>2020-06-24T09:57:42.169Z</time>
      </trkpt>
      <trkpt lat="48.38582" lon="7.28834">
        <ele>869</ele>
        <time>2020-06-24T09:57:43.170Z</time>
      </trkpt>
      <trkpt lat="48.38582" lon="7.28836">
        <ele>869</ele>
        <time>2020-06-24T09:57:44.170Z</time>
      </trkpt>
      <trkpt lat="48.38583" lon="7.28838">
        <ele>868</ele>
        <time>2020-06-24T09:57:45.170Z</time>
      </trkpt>
      <trkpt lat="48.38583" lon="7.28841">
        <ele>868</ele>
        <time>2020-06-24T09:57:46.170Z</time>
      </trkpt>
      <trkpt lat="48.38583" lon="7.28843">
        <ele>868</ele>
        <time>2020-06-24T09:57:47.170Z</time>
      </trkpt>
      <trkpt lat="48.38583" lon="7.28845">
        <ele>867</ele>
        <time>2020-06-24T09:57:48.170Z</time>
      </trkpt>
      <trkpt lat="48.38582" lon="7.28847">
        <ele>867</ele>
        <time>2020-06-24T09:57:49.170Z</time>
      </trkpt>
      <trkpt lat="48.38582" lon="7.28849">
        <ele>867</ele>
        <time>2020-06-24T09:57:50.169Z</time>
      </trkpt>
      <trkpt lat="48.38582" lon="7.28851">
        <ele>867</ele>
        <time>2020-06-24T09:57:51.170Z</time>
      </trkpt>
      <trkpt lat="48.38582" lon="7.28853">
        <ele>866</ele>
        <time>2020-06-24T09:57:52.170Z</time>
      </trkpt>
      <trkpt lat="48.38583" lon="7.28856">
        <ele>866</ele>
        <time>2020-06-24T09:57:53.170Z</time>
      </trkpt>
      <trkpt lat="48.38583" lon="7.28859">
        <ele>866</ele>
        <time>2020-06-24T09:57:54.169Z</time>
      </trkpt>
      <trkpt lat="48.38583" lon="7.28862">
        <ele>866</ele>
        <time>2020-06-24T09:57:55.170Z</time>
      </trkpt>
      <trkpt lat="48.38583" lon="7.28865">
        <ele>866</ele>
        <time>2020-06-24T09:57:56.170Z</time>
      </trkpt>
      <trkpt lat="48.38583" lon="7.28867">
        <ele>867</ele>
        <time>2020-06-24T09:57:57.170Z</time>
      </trkpt>
      <trkpt lat="48.38584" lon="7.28869">
        <ele>867</ele>
        <time>2020-06-24T09:57:58.169Z</time>
      </trkpt>
      <trkpt lat="48.38584" lon="7.28871">
        <ele>867</ele>
        <time>2020-06-24T09:57:59.170Z</time>
      </trkpt>
      <trkpt lat="48.38585" lon="7.28873">
        <ele>867</ele>
        <time>2020-06-24T09:58:00.169Z</time>
      </trkpt>
      <trkpt lat="48.38586" lon="7.28875">
        <ele>867</ele>
        <time>2020-06-24T09:58:01.170Z</time>
      </trkpt>
      <trkpt lat="48.38586" lon="7.28877">
        <ele>867</ele>
        <time>2020-06-24T09:58:02.170Z</time>
      </trkpt>
      <trkpt lat="48.38586" lon="7.28878">
        <ele>866</ele>
        <time>2020-06-24T09:58:03.169Z</time>
      </trkpt>
      <trkpt lat="48.38586" lon="7.2888">
        <ele>866</ele>
        <time>2020-06-24T09:58:04.169Z</time>
      </trkpt>
      <trkpt lat="48.38586" lon="7.28881">
        <ele>866</ele>
        <time>2020-06-24T09:58:05.169Z</time>
      </trkpt>
      <trkpt lat="48.38586" lon="7.28882">
        <ele>865</ele>
        <time>2020-06-24T09:58:06.170Z</time>
      </trkpt>
      <trkpt lat="48.38586" lon="7.28884">
        <ele>865</ele>
        <time>2020-06-24T09:58:07.169Z</time>
      </trkpt>
      <trkpt lat="48.38586" lon="7.28886">
        <ele>865</ele>
        <time>2020-06-24T09:58:08.170Z</time>
      </trkpt>
      <trkpt lat="48.38586" lon="7.28887">
        <ele>866</ele>
        <time>2020-06-24T09:58:09.169Z</time>
      </trkpt>
      <trkpt lat="48.38587" lon="7.28889">
        <ele>866</ele>
        <time>2020-06-24T09:58:10.170Z</time>
      </trkpt>
      <trkpt lat="48.38587" lon="7.28891">
        <ele>865</ele>
        <time>2020-06-24T09:58:11.170Z</time>
      </trkpt>
      <trkpt lat="48.38588" lon="7.28894">
        <ele>865</ele>
        <time>2020-06-24T09:58:12.170Z</time>
      </trkpt>
      <trkpt lat="48.38588" lon="7.28896">
        <ele>864</ele>
        <time>2020-06-24T09:58:13.170Z</time>
      </trkpt>
      <trkpt lat="48.38589" lon="7.28897">
        <ele>864</ele>
        <time>2020-06-24T09:58:14.169Z</time>
      </trkpt>
      <trkpt lat="48.38589" lon="7.28899">
        <ele>864</ele>
        <time>2020-06-24T09:58:15.170Z</time>
      </trkpt>
      <trkpt lat="48.3859" lon="7.289">
        <ele>863</ele>
        <time>2020-06-24T09:58:16.170Z</time>
      </trkpt>
      <trkpt lat="48.38591" lon="7.28901">
        <ele>863</ele>
        <time>2020-06-24T09:58:17.170Z</time>
      </trkpt>
      <trkpt lat="48.38591" lon="7.28903">
        <ele>863</ele>
        <time>2020-06-24T09:58:18.170Z</time>
      </trkpt>
      <trkpt lat="48.38592" lon="7.28904">
        <ele>862</ele>
        <time>2020-06-24T09:58:19.169Z</time>
      </trkpt>
      <trkpt lat="48.38593" lon="7.28906">
        <ele>862</ele>
        <time>2020-06-24T09:58:20.170Z</time>
      </trkpt>
      <trkpt lat="48.38594" lon="7.28909">
        <ele>862</ele>
        <time>2020-06-24T09:58:21.169Z</time>
      </trkpt>
      <trkpt lat="48.38595" lon="7.28911">
        <ele>861</ele>
        <time>2020-06-24T09:58:22.170Z</time>
      </trkpt>
      <trkpt lat="48.38596" lon="7.28913">
        <ele>861</ele>
        <time>2020-06-24T09:58:23.170Z</time>
      </trkpt>
      <trkpt lat="48.38597" lon="7.28914">
        <ele>861</ele>
        <time>2020-06-24T09:58:24.170Z</time>
      </trkpt>
      <trkpt lat="48.38598" lon="7.28917">
        <ele>860</ele>
        <time>2020-06-24T09:58:25.170Z</time>
      </trkpt>
      <trkpt lat="48.386" lon="7.28918">
        <ele>859</ele>
        <time>2020-06-24T09:58:26.170Z</time>
      </trkpt>
      <trkpt lat="48.386" lon="7.28919">
        <ele>859</ele>
        <time>2020-06-24T09:58:27.170Z</time>
      </trkpt>
      <trkpt lat="48.38601" lon="7.2892">
        <ele>858</ele>
        <time>2020-06-24T09:58:28.170Z</time>
      </trkpt>
      <trkpt lat="48.38602" lon="7.28922">
        <ele>858</ele>
        <time>2020-06-24T09:58:29.169Z</time>
      </trkpt>
      <trkpt lat="48.38602" lon="7.28923">
        <ele>858</ele>
        <time>2020-06-24T09:58:30.170Z</time>
      </trkpt>
      <trkpt lat="48.38603" lon="7.28925">
        <ele>858</ele>
        <time>2020-06-24T09:58:31.170Z</time>
      </trkpt>
      <trkpt lat="48.38604" lon="7.28927">
        <ele>858</ele>
        <time>2020-06-24T09:58:32.170Z</time>
      </trkpt>
      <trkpt lat="48.38604" lon="7.28929">
        <ele>858</ele>
        <time>2020-06-24T09:58:33.169Z</time>
      </trkpt>
      <trkpt lat="48.38604" lon="7.28931">
        <ele>859</ele>
        <time>2020-06-24T09:58:34.170Z</time>
      </trkpt>
      <trkpt lat="48.38605" lon="7.28933">
        <ele>859</ele>
        <time>2020-06-24T09:58:35.170Z</time>
      </trkpt>
      <trkpt lat="48.38605" lon="7.28935">
        <ele>860</ele>
        <time>2020-06-24T09:58:36.170Z</time>
      </trkpt>
      <trkpt lat="48.38606" lon="7.28937">
        <ele>860</ele>
        <time>2020-06-24T09:58:37.170Z</time>
      </trkpt>
      <trkpt lat="48.38606" lon="7.28939">
        <ele>860</ele>
        <time>2020-06-24T09:58:38.170Z</time>
      </trkpt>
      <trkpt lat="48.38607" lon="7.28942">
        <ele>860</ele>
        <time>2020-06-24T09:58:39.170Z</time>
      </trkpt>
      <trkpt lat="48.38607" lon="7.28945">
        <ele>861</ele>
        <time>2020-06-24T09:58:40.170Z</time>
      </trkpt>
      <trkpt lat="48.38608" lon="7.28947">
        <ele>861</ele>
        <time>2020-06-24T09:58:41.170Z</time>
      </trkpt>
      <trkpt lat="48.38608" lon="7.28948">
        <ele>861</ele>
        <time>2020-06-24T09:58:42.170Z</time>
      </trkpt>
      <trkpt lat="48.38609" lon="7.2895">
        <ele>860</ele>
        <time>2020-06-24T09:58:43.170Z</time>
      </trkpt>
      <trkpt lat="48.3861" lon="7.28951">
        <ele>860</ele>
        <time>2020-06-24T09:58:44.170Z</time>
      </trkpt>
      <trkpt lat="48.38611" lon="7.28953">
        <ele>860</ele>
        <time>2020-06-24T09:58:45.170Z</time>
      </trkpt>
      <trkpt lat="48.38611" lon="7.28955">
        <ele>860</ele>
        <time>2020-06-24T09:58:46.169Z</time>
      </trkpt>
      <trkpt lat="48.38612" lon="7.28957">
        <ele>860</ele>
        <time>2020-06-24T09:58:47.169Z</time>
      </trkpt>
      <trkpt lat="48.38612" lon="7.28958">
        <ele>859</ele>
        <time>2020-06-24T09:58:48.169Z</time>
      </trkpt>
      <trkpt lat="48.38613" lon="7.2896">
        <ele>859</ele>
        <time>2020-06-24T09:58:49.169Z</time>
      </trkpt>
      <trkpt lat="48.38613" lon="7.28963">
        <ele>858</ele>
        <time>2020-06-24T09:58:50.169Z</time>
      </trkpt>
      <trkpt lat="48.38614" lon="7.28965">
        <ele>858</ele>
        <time>2020-06-24T09:58:51.170Z</time>
      </trkpt>
      <trkpt lat="48.38614" lon="7.28966">
        <ele>857</ele>
        <time>2020-06-24T09:58:52.169Z</time>
      </trkpt>
      <trkpt lat="48.38614" lon="7.28967">
        <ele>857</ele>
        <time>2020-06-24T09:58:53.169Z</time>
      </trkpt>
      <trkpt lat="48.38615" lon="7.28968">
        <ele>856</ele>
        <time>2020-06-24T09:58:54.169Z</time>
      </trkpt>
      <trkpt lat="48.38615" lon="7.28969">
        <ele>856</ele>
        <time>2020-06-24T09:58:55.170Z</time>
      </trkpt>
      <trkpt lat="48.38616" lon="7.28971">
        <ele>855</ele>
        <time>2020-06-24T09:58:56.169Z</time>
      </trkpt>
      <trkpt lat="48.38617" lon="7.28973">
        <ele>855</ele>
        <time>2020-06-24T09:58:57.169Z</time>
      </trkpt>
      <trkpt lat="48.38618" lon="7.28975">
        <ele>855</ele>
        <time>2020-06-24T09:58:58.170Z</time>
      </trkpt>
      <trkpt lat="48.38619" lon="7.28976">
        <ele>855</ele>
        <time>2020-06-24T09:58:59.169Z</time>
      </trkpt>
      <trkpt lat="48.3862" lon="7.28978">
        <ele>855</ele>
        <time>2020-06-24T09:59:00.170Z</time>
      </trkpt>
      <trkpt lat="48.38621" lon="7.2898">
        <ele>855</ele>
        <time>2020-06-24T09:59:01.170Z</time>
      </trkpt>
      <trkpt lat="48.38622" lon="7.28983">
        <ele>855</ele>
        <time>2020-06-24T09:59:02.169Z</time>
      </trkpt>
      <trkpt lat="48.38622" lon="7.28986">
        <ele>855</ele>
        <time>2020-06-24T09:59:03.170Z</time>
      </trkpt>
      <trkpt lat="48.38623" lon="7.28988">
        <ele>854</ele>
        <time>2020-06-24T09:59:04.169Z</time>
      </trkpt>
      <trkpt lat="48.38624" lon="7.28991">
        <ele>854</ele>
        <time>2020-06-24T09:59:05.170Z</time>
      </trkpt>
      <trkpt lat="48.38625" lon="7.28993">
        <ele>854</ele>
        <time>2020-06-24T09:59:06.170Z</time>
      </trkpt>
      <trkpt lat="48.38626" lon="7.28995">
        <ele>854</ele>
        <time>2020-06-24T09:59:07.170Z</time>
      </trkpt>
      <trkpt lat="48.38627" lon="7.28997">
        <ele>854</ele>
        <time>2020-06-24T09:59:08.169Z</time>
      </trkpt>
      <trkpt lat="48.38627" lon="7.28998">
        <ele>853</ele>
        <time>2020-06-24T09:59:09.169Z</time>
      </trkpt>
      <trkpt lat="48.38627" lon="7.28999">
        <ele>853</ele>
        <time>2020-06-24T09:59:10.169Z</time>
      </trkpt>
      <trkpt lat="48.38628" lon="7.29">
        <ele>853</ele>
        <time>2020-06-24T09:59:11.170Z</time>
      </trkpt>
      <trkpt lat="48.38628" lon="7.29001">
        <ele>853</ele>
        <time>2020-06-24T09:59:12.170Z</time>
      </trkpt>
      <trkpt lat="48.38629" lon="7.29002">
        <ele>853</ele>
        <time>2020-06-24T09:59:13.170Z</time>
      </trkpt>
      <trkpt lat="48.3863" lon="7.29003">
        <ele>854</ele>
        <time>2020-06-24T09:59:14.170Z</time>
      </trkpt>
      <trkpt lat="48.3863" lon="7.29004">
        <ele>854</ele>
        <time>2020-06-24T09:59:15.170Z</time>
      </trkpt>
      <trkpt lat="48.3863" lon="7.29005">
        <ele>854</ele>
        <time>2020-06-24T09:59:16.170Z</time>
      </trkpt>
      <trkpt lat="48.38631" lon="7.29007">
        <ele>853</ele>
        <time>2020-06-24T09:59:17.169Z</time>
      </trkpt>
      <trkpt lat="48.38631" lon="7.29008">
        <ele>853</ele>
        <time>2020-06-24T09:59:18.170Z</time>
      </trkpt>
      <trkpt lat="48.38632" lon="7.2901">
        <ele>853</ele>
        <time>2020-06-24T09:59:19.170Z</time>
      </trkpt>
      <trkpt lat="48.38632" lon="7.29012">
        <ele>853</ele>
        <time>2020-06-24T09:59:20.169Z</time>
      </trkpt>
      <trkpt lat="48.38633" lon="7.29013">
        <ele>853</ele>
        <time>2020-06-24T09:59:21.170Z</time>
      </trkpt>
      <trkpt lat="48.38634" lon="7.29015">
        <ele>853</ele>
        <time>2020-06-24T09:59:22.170Z</time>
      </trkpt>
      <trkpt lat="48.38634" lon="7.29016">
        <ele>853</ele>
        <time>2020-06-24T09:59:23.170Z</time>
      </trkpt>
      <trkpt lat="48.38635" lon="7.29018">
        <ele>852</ele>
        <time>2020-06-24T09:59:24.169Z</time>
      </trkpt>
      <trkpt lat="48.38636" lon="7.29019">
        <ele>852</ele>
        <time>2020-06-24T09:59:25.169Z</time>
      </trkpt>
      <trkpt lat="48.38636" lon="7.29019">
        <ele>852</ele>
        <time>2020-06-24T09:59:26.169Z</time>
      </trkpt>
      <trkpt lat="48.38637" lon="7.2902">
        <ele>852</ele>
        <time>2020-06-24T09:59:27.170Z</time>
      </trkpt>
      <trkpt lat="48.38638" lon="7.2902">
        <ele>852</ele>
        <time>2020-06-24T09:59:28.169Z</time>
      </trkpt>
      <trkpt lat="48.38638" lon="7.29021">
        <ele>852</ele>
        <time>2020-06-24T09:59:29.169Z</time>
      </trkpt>
      <trkpt lat="48.38639" lon="7.29022">
        <ele>852</ele>
        <time>2020-06-24T09:59:30.169Z</time>
      </trkpt>
      <trkpt lat="48.3864" lon="7.29023">
        <ele>852</ele>
        <time>2020-06-24T09:59:31.170Z</time>
      </trkpt>
      <trkpt lat="48.38642" lon="7.29024">
        <ele>852</ele>
        <time>2020-06-24T09:59:32.170Z</time>
      </trkpt>
      <trkpt lat="48.38643" lon="7.29025">
        <ele>851</ele>
        <time>2020-06-24T09:59:33.169Z</time>
      </trkpt>
      <trkpt lat="48.38645" lon="7.29026">
        <ele>851</ele>
        <time>2020-06-24T09:59:34.169Z</time>
      </trkpt>
      <trkpt lat="48.38647" lon="7.29028">
        <ele>850</ele>
        <time>2020-06-24T09:59:35.170Z</time>
      </trkpt>
      <trkpt lat="48.38649" lon="7.2903">
        <ele>850</ele>
        <time>2020-06-24T09:59:36.170Z</time>
      </trkpt>
      <trkpt lat="48.3865" lon="7.29032">
        <ele>849</ele>
        <time>2020-06-24T09:59:37.170Z</time>
      </trkpt>
      <trkpt lat="48.3865" lon="7.29034">
        <ele>849</ele>
        <time>2020-06-24T09:59:38.169Z</time>
      </trkpt>
      <trkpt lat="48.38651" lon="7.29035">
        <ele>848</ele>
        <time>2020-06-24T09:59:39.170Z</time>
      </trkpt>
      <trkpt lat="48.38653" lon="7.29036">
        <ele>848</ele>
        <time>2020-06-24T09:59:40.170Z</time>
      </trkpt>
      <trkpt lat="48.38655" lon="7.29037">
        <ele>847</ele>
        <time>2020-06-24T09:59:41.170Z</time>
      </trkpt>
      <trkpt lat="48.38656" lon="7.29038">
        <ele>847</ele>
        <time>2020-06-24T09:59:42.169Z</time>
      </trkpt>
      <trkpt lat="48.38657" lon="7.2904">
        <ele>847</ele>
        <time>2020-06-24T09:59:43.169Z</time>
      </trkpt>
      <trkpt lat="48.38658" lon="7.29042">
        <ele>846</ele>
        <time>2020-06-24T09:59:44.170Z</time>
      </trkpt>
      <trkpt lat="48.38659" lon="7.29043">
        <ele>846</ele>
        <time>2020-06-24T09:59:45.170Z</time>
      </trkpt>
      <trkpt lat="48.3866" lon="7.29044">
        <ele>846</ele>
        <time>2020-06-24T09:59:46.169Z</time>
      </trkpt>
      <trkpt lat="48.38662" lon="7.29045">
        <ele>846</ele>
        <time>2020-06-24T09:59:47.169Z</time>
      </trkpt>
      <trkpt lat="48.38663" lon="7.29046">
        <ele>846</ele>
        <time>2020-06-24T09:59:48.170Z</time>
      </trkpt>
      <trkpt lat="48.38664" lon="7.29048">
        <ele>845</ele>
        <time>2020-06-24T09:59:49.170Z</time>
      </trkpt>
      <trkpt lat="48.38665" lon="7.29049">
        <ele>845</ele>
        <time>2020-06-24T09:59:50.170Z</time>
      </trkpt>
      <trkpt lat="48.38666" lon="7.29051">
        <ele>845</ele>
        <time>2020-06-24T09:59:51.170Z</time>
      </trkpt>
      <trkpt lat="48.38666" lon="7.29053">
        <ele>844</ele>
        <time>2020-06-24T09:59:52.169Z</time>
      </trkpt>
      <trkpt lat="48.38667" lon="7.29053">
        <ele>844</ele>
        <time>2020-06-24T09:59:53.170Z</time>
      </trkpt>
      <trkpt lat="48.38667" lon="7.29054">
        <ele>843</ele>
        <time>2020-06-24T09:59:54.170Z</time>
      </trkpt>
      <trkpt lat="48.38668" lon="7.29053">
        <ele>843</ele>
        <time>2020-06-24T09:59:55.169Z</time>
      </trkpt>
      <trkpt lat="48.38668" lon="7.29052">
        <ele>843</ele>
        <time>2020-06-24T09:59:56.170Z</time>
      </trkpt>
      <trkpt lat="48.38669" lon="7.29052">
        <ele>843</ele>
        <time>2020-06-24T09:59:57.169Z</time>
      </trkpt>
      <trkpt lat="48.38669" lon="7.29053">
        <ele>843</ele>
        <time>2020-06-24T09:59:58.170Z</time>
      </trkpt>
      <trkpt lat="48.3867" lon="7.29054">
        <ele>842</ele>
        <time>2020-06-24T09:59:59.169Z</time>
      </trkpt>
      <trkpt lat="48.38671" lon="7.29055">
        <ele>842</ele>
        <time>2020-06-24T10:00:00.169Z</time>
      </trkpt>
      <trkpt lat="48.38673" lon="7.29057">
        <ele>840</ele>
        <time>2020-06-24T10:00:01.170Z</time>
      </trkpt>
      <trkpt lat="48.38673" lon="7.29057">
        <ele>839</ele>
        <time>2020-06-24T10:00:02.170Z</time>
      </trkpt>
      <trkpt lat="48.38673" lon="7.29057">
        <ele>839</ele>
        <time>2020-06-24T10:00:03.169Z</time>
      </trkpt>
      <trkpt lat="48.38675" lon="7.29057">
        <ele>837</ele>
        <time>2020-06-24T10:00:04.170Z</time>
      </trkpt>
      <trkpt lat="48.38676" lon="7.29058">
        <ele>837</ele>
        <time>2020-06-24T10:00:05.170Z</time>
      </trkpt>
      <trkpt lat="48.38676" lon="7.29059">
        <ele>837</ele>
        <time>2020-06-24T10:00:06.169Z</time>
      </trkpt>
      <trkpt lat="48.38677" lon="7.2906">
        <ele>837</ele>
        <time>2020-06-24T10:00:07.170Z</time>
      </trkpt>
      <trkpt lat="48.38678" lon="7.29061">
        <ele>837</ele>
        <time>2020-06-24T10:00:08.170Z</time>
      </trkpt>
      <trkpt lat="48.38679" lon="7.29061">
        <ele>837</ele>
        <time>2020-06-24T10:00:09.170Z</time>
      </trkpt>
      <trkpt lat="48.3868" lon="7.29062">
        <ele>837</ele>
        <time>2020-06-24T10:00:10.169Z</time>
      </trkpt>
      <trkpt lat="48.38681" lon="7.29062">
        <ele>837</ele>
        <time>2020-06-24T10:00:11.170Z</time>
      </trkpt>
      <trkpt lat="48.38683" lon="7.29063">
        <ele>838</ele>
        <time>2020-06-24T10:00:12.170Z</time>
      </trkpt>
      <trkpt lat="48.38683" lon="7.29063">
        <ele>838</ele>
        <time>2020-06-24T10:00:13.170Z</time>
      </trkpt>
      <trkpt lat="48.38685" lon="7.29064">
        <ele>838</ele>
        <time>2020-06-24T10:00:14.170Z</time>
      </trkpt>
      <trkpt lat="48.38686" lon="7.29065">
        <ele>838</ele>
        <time>2020-06-24T10:00:15.169Z</time>
      </trkpt>
      <trkpt lat="48.38688" lon="7.29066">
        <ele>838</ele>
        <time>2020-06-24T10:00:16.170Z</time>
      </trkpt>
      <trkpt lat="48.38689" lon="7.29068">
        <ele>839</ele>
        <time>2020-06-24T10:00:17.170Z</time>
      </trkpt>
      <trkpt lat="48.38689" lon="7.29069">
        <ele>839</ele>
        <time>2020-06-24T10:00:18.170Z</time>
      </trkpt>
      <trkpt lat="48.38691" lon="7.2907">
        <ele>840</ele>
        <time>2020-06-24T10:00:19.169Z</time>
      </trkpt>
      <trkpt lat="48.38691" lon="7.29071">
        <ele>840</ele>
        <time>2020-06-24T10:00:20.170Z</time>
      </trkpt>
      <trkpt lat="48.38692" lon="7.29071">
        <ele>841</ele>
        <time>2020-06-24T10:00:21.170Z</time>
      </trkpt>
      <trkpt lat="48.38693" lon="7.29073">
        <ele>841</ele>
        <time>2020-06-24T10:00:22.169Z</time>
      </trkpt>
      <trkpt lat="48.38693" lon="7.29073">
        <ele>841</ele>
        <time>2020-06-24T10:00:23.170Z</time>
      </trkpt>
      <trkpt lat="48.38694" lon="7.29074">
        <ele>841</ele>
        <time>2020-06-24T10:00:24.170Z</time>
      </trkpt>
      <trkpt lat="48.38694" lon="7.29075">
        <ele>841</ele>
        <time>2020-06-24T10:00:25.170Z</time>
      </trkpt>
      <trkpt lat="48.38695" lon="7.29076">
        <ele>841</ele>
        <time>2020-06-24T10:00:26.170Z</time>
      </trkpt>
      <trkpt lat="48.38696" lon="7.29076">
        <ele>841</ele>
        <time>2020-06-24T10:00:27.170Z</time>
      </trkpt>
      <trkpt lat="48.38697" lon="7.29078">
        <ele>840</ele>
        <time>2020-06-24T10:00:28.170Z</time>
      </trkpt>
      <trkpt lat="48.38698" lon="7.29079">
        <ele>840</ele>
        <time>2020-06-24T10:00:29.170Z</time>
      </trkpt>
      <trkpt lat="48.38699" lon="7.29081">
        <ele>840</ele>
        <time>2020-06-24T10:00:30.170Z</time>
      </trkpt>
      <trkpt lat="48.387" lon="7.29082">
        <ele>839</ele>
        <time>2020-06-24T10:00:31.170Z</time>
      </trkpt>
      <trkpt lat="48.38702" lon="7.29084">
        <ele>839</ele>
        <time>2020-06-24T10:00:32.170Z</time>
      </trkpt>
      <trkpt lat="48.38703" lon="7.29085">
        <ele>838</ele>
        <time>2020-06-24T10:00:33.170Z</time>
      </trkpt>
      <trkpt lat="48.38704" lon="7.29086">
        <ele>838</ele>
        <time>2020-06-24T10:00:34.169Z</time>
      </trkpt>
      <trkpt lat="48.38705" lon="7.29087">
        <ele>838</ele>
        <time>2020-06-24T10:00:35.169Z</time>
      </trkpt>
      <trkpt lat="48.38706" lon="7.29088">
        <ele>838</ele>
        <time>2020-06-24T10:00:36.170Z</time>
      </trkpt>
      <trkpt lat="48.38708" lon="7.2909">
        <ele>838</ele>
        <time>2020-06-24T10:00:37.170Z</time>
      </trkpt>
      <trkpt lat="48.3871" lon="7.29091">
        <ele>837</ele>
        <time>2020-06-24T10:00:38.169Z</time>
      </trkpt>
      <trkpt lat="48.38713" lon="7.29092">
        <ele>837</ele>
        <time>2020-06-24T10:00:39.169Z</time>
      </trkpt>
      <trkpt lat="48.38715" lon="7.29093">
        <ele>837</ele>
        <time>2020-06-24T10:00:40.169Z</time>
      </trkpt>
      <trkpt lat="48.38717" lon="7.29094">
        <ele>837</ele>
        <time>2020-06-24T10:00:41.170Z</time>
      </trkpt>
      <trkpt lat="48.38717" lon="7.29095">
        <ele>837</ele>
        <time>2020-06-24T10:00:42.169Z</time>
      </trkpt>
      <trkpt lat="48.38718" lon="7.29096">
        <ele>837</ele>
        <time>2020-06-24T10:00:43.170Z</time>
      </trkpt>
      <trkpt lat="48.38719" lon="7.29097">
        <ele>837</ele>
        <time>2020-06-24T10:00:44.169Z</time>
      </trkpt>
      <trkpt lat="48.3872" lon="7.29099">
        <ele>837</ele>
        <time>2020-06-24T10:00:45.169Z</time>
      </trkpt>
      <trkpt lat="48.38721" lon="7.291">
        <ele>837</ele>
        <time>2020-06-24T10:00:46.170Z</time>
      </trkpt>
      <trkpt lat="48.38722" lon="7.29101">
        <ele>837</ele>
        <time>2020-06-24T10:00:47.170Z</time>
      </trkpt>
      <trkpt lat="48.38723" lon="7.29102">
        <ele>837</ele>
        <time>2020-06-24T10:00:48.169Z</time>
      </trkpt>
      <trkpt lat="48.38724" lon="7.29103">
        <ele>837</ele>
        <time>2020-06-24T10:00:49.170Z</time>
      </trkpt>
      <trkpt lat="48.38725" lon="7.29104">
        <ele>836</ele>
        <time>2020-06-24T10:00:50.170Z</time>
      </trkpt>
      <trkpt lat="48.38726" lon="7.29105">
        <ele>836</ele>
        <time>2020-06-24T10:00:51.170Z</time>
      </trkpt>
      <trkpt lat="48.38727" lon="7.29106">
        <ele>836</ele>
        <time>2020-06-24T10:00:52.170Z</time>
      </trkpt>
      <trkpt lat="48.38728" lon="7.29106">
        <ele>836</ele>
        <time>2020-06-24T10:00:53.170Z</time>
      </trkpt>
      <trkpt lat="48.38729" lon="7.29108">
        <ele>836</ele>
        <time>2020-06-24T10:00:54.170Z</time>
      </trkpt>
      <trkpt lat="48.3873" lon="7.2911">
        <ele>836</ele>
        <time>2020-06-24T10:00:55.170Z</time>
      </trkpt>
      <trkpt lat="48.38732" lon="7.29112">
        <ele>835</ele>
        <time>2020-06-24T10:00:56.170Z</time>
      </trkpt>
      <trkpt lat="48.38733" lon="7.29113">
        <ele>835</ele>
        <time>2020-06-24T10:00:57.170Z</time>
      </trkpt>
      <trkpt lat="48.38733" lon="7.29115">
        <ele>835</ele>
        <time>2020-06-24T10:00:58.170Z</time>
      </trkpt>
      <trkpt lat="48.38735" lon="7.29116">
        <ele>835</ele>
        <time>2020-06-24T10:00:59.170Z</time>
      </trkpt>
      <trkpt lat="48.38736" lon="7.29117">
        <ele>835</ele>
        <time>2020-06-24T10:01:00.169Z</time>
      </trkpt>
      <trkpt lat="48.38737" lon="7.29118">
        <ele>834</ele>
        <time>2020-06-24T10:01:01.169Z</time>
      </trkpt>
      <trkpt lat="48.38738" lon="7.29119">
        <ele>834</ele>
        <time>2020-06-24T10:01:02.170Z</time>
      </trkpt>
      <trkpt lat="48.3874" lon="7.2912">
        <ele>833</ele>
        <time>2020-06-24T10:01:03.170Z</time>
      </trkpt>
      <trkpt lat="48.38741" lon="7.29121">
        <ele>833</ele>
        <time>2020-06-24T10:01:04.170Z</time>
      </trkpt>
      <trkpt lat="48.38741" lon="7.29121">
        <ele>832</ele>
        <time>2020-06-24T10:01:05.170Z</time>
      </trkpt>
      <trkpt lat="48.38742" lon="7.29121">
        <ele>832</ele>
        <time>2020-06-24T10:01:06.170Z</time>
      </trkpt>
      <trkpt lat="48.38742" lon="7.29122">
        <ele>831</ele>
        <time>2020-06-24T10:01:07.170Z</time>
      </trkpt>
      <trkpt lat="48.38743" lon="7.29123">
        <ele>831</ele>
        <time>2020-06-24T10:01:08.170Z</time>
      </trkpt>
      <trkpt lat="48.38743" lon="7.29124">
        <ele>831</ele>
        <time>2020-06-24T10:01:09.170Z</time>
      </trkpt>
      <trkpt lat="48.38744" lon="7.29125">
        <ele>831</ele>
        <time>2020-06-24T10:01:10.169Z</time>
      </trkpt>
      <trkpt lat="48.38745" lon="7.29126">
        <ele>831</ele>
        <time>2020-06-24T10:01:11.170Z</time>
      </trkpt>
      <trkpt lat="48.38745" lon="7.29127">
        <ele>831</ele>
        <time>2020-06-24T10:01:12.169Z</time>
      </trkpt>
      <trkpt lat="48.38746" lon="7.29127">
        <ele>831</ele>
        <time>2020-06-24T10:01:13.170Z</time>
      </trkpt>
      <trkpt lat="48.38747" lon="7.29128">
        <ele>831</ele>
        <time>2020-06-24T10:01:14.170Z</time>
      </trkpt>
      <trkpt lat="48.38747" lon="7.29128">
        <ele>831</ele>
        <time>2020-06-24T10:01:15.170Z</time>
      </trkpt>
      <trkpt lat="48.38748" lon="7.29131">
        <ele>831</ele>
        <time>2020-06-24T10:01:16.170Z</time>
      </trkpt>
      <trkpt lat="48.38749" lon="7.29133">
        <ele>831</ele>
        <time>2020-06-24T10:01:17.170Z</time>
      </trkpt>
      <trkpt lat="48.3875" lon="7.29135">
        <ele>831</ele>
        <time>2020-06-24T10:01:18.170Z</time>
      </trkpt>
      <trkpt lat="48.38751" lon="7.29136">
        <ele>830</ele>
        <time>2020-06-24T10:01:19.170Z</time>
      </trkpt>
      <trkpt lat="48.38752" lon="7.29136">
        <ele>830</ele>
        <time>2020-06-24T10:01:20.170Z</time>
      </trkpt>
      <trkpt lat="48.38753" lon="7.29138">
        <ele>830</ele>
        <time>2020-06-24T10:01:21.170Z</time>
      </trkpt>
      <trkpt lat="48.38755" lon="7.29139">
        <ele>830</ele>
        <time>2020-06-24T10:01:22.169Z</time>
      </trkpt>
      <trkpt lat="48.38756" lon="7.2914">
        <ele>830</ele>
        <time>2020-06-24T10:01:23.169Z</time>
      </trkpt>
      <trkpt lat="48.38758" lon="7.29141">
        <ele>829</ele>
        <time>2020-06-24T10:01:24.170Z</time>
      </trkpt>
      <trkpt lat="48.38759" lon="7.29142">
        <ele>829</ele>
        <time>2020-06-24T10:01:25.170Z</time>
      </trkpt>
      <trkpt lat="48.3876" lon="7.29143">
        <ele>829</ele>
        <time>2020-06-24T10:01:26.169Z</time>
      </trkpt>
      <trkpt lat="48.38761" lon="7.29145">
        <ele>829</ele>
        <time>2020-06-24T10:01:27.170Z</time>
      </trkpt>
      <trkpt lat="48.38762" lon="7.29146">
        <ele>828</ele>
        <time>2020-06-24T10:01:28.170Z</time>
      </trkpt>
      <trkpt lat="48.38763" lon="7.29147">
        <ele>829</ele>
        <time>2020-06-24T10:01:29.170Z</time>
      </trkpt>
      <trkpt lat="48.38764" lon="7.29149">
        <ele>829</ele>
        <time>2020-06-24T10:01:30.169Z</time>
      </trkpt>
      <trkpt lat="48.38765" lon="7.2915">
        <ele>829</ele>
        <time>2020-06-24T10:01:31.170Z</time>
      </trkpt>
      <trkpt lat="48.38766" lon="7.29152">
        <ele>829</ele>
        <time>2020-06-24T10:01:32.170Z</time>
      </trkpt>
      <trkpt lat="48.38767" lon="7.29153">
        <ele>829</ele>
        <time>2020-06-24T10:01:33.170Z</time>
      </trkpt>
      <trkpt lat="48.38768" lon="7.29153">
        <ele>829</ele>
        <time>2020-06-24T10:01:34.170Z</time>
      </trkpt>
      <trkpt lat="48.38769" lon="7.29154">
        <ele>829</ele>
        <time>2020-06-24T10:01:35.169Z</time>
      </trkpt>
      <trkpt lat="48.3877" lon="7.29155">
        <ele>829</ele>
        <time>2020-06-24T10:01:36.169Z</time>
      </trkpt>
      <trkpt lat="48.38772" lon="7.29155">
        <ele>828</ele>
        <time>2020-06-24T10:01:37.169Z</time>
      </trkpt>
      <trkpt lat="48.38774" lon="7.29157">
        <ele>828</ele>
        <time>2020-06-24T10:01:38.169Z</time>
      </trkpt>
      <trkpt lat="48.38775" lon="7.29158">
        <ele>828</ele>
        <time>2020-06-24T10:01:39.170Z</time>
      </trkpt>
      <trkpt lat="48.38777" lon="7.2916">
        <ele>828</ele>
        <time>2020-06-24T10:01:40.170Z</time>
      </trkpt>
      <trkpt lat="48.38778" lon="7.29161">
        <ele>828</ele>
        <time>2020-06-24T10:01:41.169Z</time>
      </trkpt>
      <trkpt lat="48.3878" lon="7.29162">
        <ele>828</ele>
        <time>2020-06-24T10:01:42.169Z</time>
      </trkpt>
      <trkpt lat="48.38781" lon="7.29163">
        <ele>828</ele>
        <time>2020-06-24T10:01:43.170Z</time>
      </trkpt>
      <trkpt lat="48.38782" lon="7.29163">
        <ele>828</ele>
        <time>2020-06-24T10:01:44.169Z</time>
      </trkpt>
      <trkpt lat="48.38782" lon="7.29164">
        <ele>828</ele>
        <time>2020-06-24T10:01:45.170Z</time>
      </trkpt>
      <trkpt lat="48.38784" lon="7.29165">
        <ele>828</ele>
        <time>2020-06-24T10:01:46.170Z</time>
      </trkpt>
      <trkpt lat="48.38785" lon="7.29165">
        <ele>828</ele>
        <time>2020-06-24T10:01:47.170Z</time>
      </trkpt>
      <trkpt lat="48.38787" lon="7.29166">
        <ele>828</ele>
        <time>2020-06-24T10:01:48.169Z</time>
      </trkpt>
      <trkpt lat="48.38788" lon="7.29166">
        <ele>828</ele>
        <time>2020-06-24T10:01:49.169Z</time>
      </trkpt>
      <trkpt lat="48.38789" lon="7.29167">
        <ele>828</ele>
        <time>2020-06-24T10:01:50.170Z</time>
      </trkpt>
      <trkpt lat="48.3879" lon="7.29167">
        <ele>828</ele>
        <time>2020-06-24T10:01:51.169Z</time>
      </trkpt>
      <trkpt lat="48.38791" lon="7.29167">
        <ele>828</ele>
        <time>2020-06-24T10:01:52.170Z</time>
      </trkpt>
      <trkpt lat="48.38792" lon="7.29167">
        <ele>828</ele>
        <time>2020-06-24T10:01:53.170Z</time>
      </trkpt>
      <trkpt lat="48.38794" lon="7.29167">
        <ele>828</ele>
        <time>2020-06-24T10:01:54.170Z</time>
      </trkpt>
      <trkpt lat="48.38796" lon="7.29169">
        <ele>828</ele>
        <time>2020-06-24T10:01:55.170Z</time>
      </trkpt>
      <trkpt lat="48.38798" lon="7.29171">
        <ele>828</ele>
        <time>2020-06-24T10:01:56.169Z</time>
      </trkpt>
      <trkpt lat="48.38799" lon="7.29172">
        <ele>828</ele>
        <time>2020-06-24T10:01:57.170Z</time>
      </trkpt>
      <trkpt lat="48.38801" lon="7.29171">
        <ele>828</ele>
        <time>2020-06-24T10:01:58.170Z</time>
      </trkpt>
      <trkpt lat="48.38802" lon="7.29171">
        <ele>828</ele>
        <time>2020-06-24T10:01:59.170Z</time>
      </trkpt>
      <trkpt lat="48.38803" lon="7.29172">
        <ele>828</ele>
        <time>2020-06-24T10:02:00.170Z</time>
      </trkpt>
      <trkpt lat="48.38805" lon="7.29172">
        <ele>828</ele>
        <time>2020-06-24T10:02:01.170Z</time>
      </trkpt>
      <trkpt lat="48.38807" lon="7.29173">
        <ele>828</ele>
        <time>2020-06-24T10:02:02.170Z</time>
      </trkpt>
      <trkpt lat="48.38808" lon="7.29175">
        <ele>828</ele>
        <time>2020-06-24T10:02:03.170Z</time>
      </trkpt>
      <trkpt lat="48.3881" lon="7.29176">
        <ele>829</ele>
        <time>2020-06-24T10:02:04.170Z</time>
      </trkpt>
      <trkpt lat="48.38811" lon="7.29177">
        <ele>829</ele>
        <time>2020-06-24T10:02:05.170Z</time>
      </trkpt>
      <trkpt lat="48.38812" lon="7.29177">
        <ele>829</ele>
        <time>2020-06-24T10:02:06.170Z</time>
      </trkpt>
      <trkpt lat="48.38813" lon="7.29177">
        <ele>830</ele>
        <time>2020-06-24T10:02:07.169Z</time>
      </trkpt>
      <trkpt lat="48.38814" lon="7.29178">
        <ele>830</ele>
        <time>2020-06-24T10:02:08.169Z</time>
      </trkpt>
      <trkpt lat="48.38816" lon="7.29178">
        <ele>831</ele>
        <time>2020-06-24T10:02:09.170Z</time>
      </trkpt>
      <trkpt lat="48.38817" lon="7.29179">
        <ele>831</ele>
        <time>2020-06-24T10:02:10.169Z</time>
      </trkpt>
      <trkpt lat="48.38818" lon="7.29179">
        <ele>831</ele>
        <time>2020-06-24T10:02:11.169Z</time>
      </trkpt>
      <trkpt lat="48.3882" lon="7.29181">
        <ele>830</ele>
        <time>2020-06-24T10:02:12.169Z</time>
      </trkpt>
      <trkpt lat="48.38821" lon="7.29182">
        <ele>830</ele>
        <time>2020-06-24T10:02:13.170Z</time>
      </trkpt>
      <trkpt lat="48.38823" lon="7.29183">
        <ele>829</ele>
        <time>2020-06-24T10:02:14.170Z</time>
      </trkpt>
      <trkpt lat="48.38824" lon="7.29183">
        <ele>828</ele>
        <time>2020-06-24T10:02:15.170Z</time>
      </trkpt>
      <trkpt lat="48.38825" lon="7.29183">
        <ele>828</ele>
        <time>2020-06-24T10:02:16.170Z</time>
      </trkpt>
      <trkpt lat="48.38827" lon="7.29183">
        <ele>828</ele>
        <time>2020-06-24T10:02:17.169Z</time>
      </trkpt>
      <trkpt lat="48.38828" lon="7.29182">
        <ele>828</ele>
        <time>2020-06-24T10:02:18.169Z</time>
      </trkpt>
      <trkpt lat="48.3883" lon="7.29181">
        <ele>828</ele>
        <time>2020-06-24T10:02:19.170Z</time>
      </trkpt>
      <trkpt lat="48.38832" lon="7.29182">
        <ele>828</ele>
        <time>2020-06-24T10:02:20.170Z</time>
      </trkpt>
      <trkpt lat="48.38834" lon="7.29183">
        <ele>828</ele>
        <time>2020-06-24T10:02:21.170Z</time>
      </trkpt>
      <trkpt lat="48.38835" lon="7.29184">
        <ele>828</ele>
        <time>2020-06-24T10:02:22.169Z</time>
      </trkpt>
      <trkpt lat="48.38837" lon="7.29185">
        <ele>828</ele>
        <time>2020-06-24T10:02:23.170Z</time>
      </trkpt>
      <trkpt lat="48.38838" lon="7.29185">
        <ele>828</ele>
        <time>2020-06-24T10:02:24.169Z</time>
      </trkpt>
      <trkpt lat="48.38839" lon="7.29185">
        <ele>828</ele>
        <time>2020-06-24T10:02:25.170Z</time>
      </trkpt>
      <trkpt lat="48.3884" lon="7.29186">
        <ele>828</ele>
        <time>2020-06-24T10:02:26.169Z</time>
      </trkpt>
      <trkpt lat="48.38841" lon="7.29186">
        <ele>828</ele>
        <time>2020-06-24T10:02:27.169Z</time>
      </trkpt>
      <trkpt lat="48.38842" lon="7.29186">
        <ele>828</ele>
        <time>2020-06-24T10:02:28.170Z</time>
      </trkpt>
      <trkpt lat="48.38844" lon="7.29187">
        <ele>828</ele>
        <time>2020-06-24T10:02:29.169Z</time>
      </trkpt>
      <trkpt lat="48.38845" lon="7.29187">
        <ele>828</ele>
        <time>2020-06-24T10:02:30.170Z</time>
      </trkpt>
      <trkpt lat="48.38846" lon="7.29187">
        <ele>828</ele>
        <time>2020-06-24T10:02:31.169Z</time>
      </trkpt>
      <trkpt lat="48.38847" lon="7.29186">
        <ele>828</ele>
        <time>2020-06-24T10:02:32.170Z</time>
      </trkpt>
      <trkpt lat="48.38848" lon="7.29186">
        <ele>828</ele>
        <time>2020-06-24T10:02:33.169Z</time>
      </trkpt>
      <trkpt lat="48.38849" lon="7.29185">
        <ele>828</ele>
        <time>2020-06-24T10:02:34.170Z</time>
      </trkpt>
      <trkpt lat="48.3885" lon="7.29185">
        <ele>828</ele>
        <time>2020-06-24T10:02:35.169Z</time>
      </trkpt>
      <trkpt lat="48.38851" lon="7.29186">
        <ele>829</ele>
        <time>2020-06-24T10:02:36.170Z</time>
      </trkpt>
      <trkpt lat="48.38853" lon="7.29187">
        <ele>829</ele>
        <time>2020-06-24T10:02:37.170Z</time>
      </trkpt>
      <trkpt lat="48.38854" lon="7.29189">
        <ele>829</ele>
        <time>2020-06-24T10:02:38.170Z</time>
      </trkpt>
      <trkpt lat="48.38856" lon="7.29189">
        <ele>829</ele>
        <time>2020-06-24T10:02:39.170Z</time>
      </trkpt>
      <trkpt lat="48.38857" lon="7.2919">
        <ele>829</ele>
        <time>2020-06-24T10:02:40.170Z</time>
      </trkpt>
      <trkpt lat="48.38859" lon="7.2919">
        <ele>829</ele>
        <time>2020-06-24T10:02:41.169Z</time>
      </trkpt>
      <trkpt lat="48.3886" lon="7.2919">
        <ele>829</ele>
        <time>2020-06-24T10:02:42.170Z</time>
      </trkpt>
      <trkpt lat="48.38861" lon="7.2919">
        <ele>829</ele>
        <time>2020-06-24T10:02:43.169Z</time>
      </trkpt>
      <trkpt lat="48.38862" lon="7.2919">
        <ele>829</ele>
        <time>2020-06-24T10:02:44.170Z</time>
      </trkpt>
      <trkpt lat="48.38863" lon="7.2919">
        <ele>829</ele>
        <time>2020-06-24T10:02:45.169Z</time>
      </trkpt>
      <trkpt lat="48.38865" lon="7.29191">
        <ele>829</ele>
        <time>2020-06-24T10:02:46.170Z</time>
      </trkpt>
      <trkpt lat="48.38867" lon="7.29192">
        <ele>829</ele>
        <time>2020-06-24T10:02:47.170Z</time>
      </trkpt>
      <trkpt lat="48.38869" lon="7.29193">
        <ele>829</ele>
        <time>2020-06-24T10:02:48.169Z</time>
      </trkpt>
      <trkpt lat="48.3887" lon="7.29194">
        <ele>829</ele>
        <time>2020-06-24T10:02:49.170Z</time>
      </trkpt>
      <trkpt lat="48.38871" lon="7.29195">
        <ele>829</ele>
        <time>2020-06-24T10:02:50.170Z</time>
      </trkpt>
      <trkpt lat="48.38872" lon="7.29196">
        <ele>829</ele>
        <time>2020-06-24T10:02:51.170Z</time>
      </trkpt>
      <trkpt lat="48.38873" lon="7.29198">
        <ele>829</ele>
        <time>2020-06-24T10:02:52.169Z</time>
      </trkpt>
      <trkpt lat="48.38874" lon="7.292">
        <ele>828</ele>
        <time>2020-06-24T10:02:53.170Z</time>
      </trkpt>
      <trkpt lat="48.38874" lon="7.29202">
        <ele>827</ele>
        <time>2020-06-24T10:02:54.170Z</time>
      </trkpt>
      <trkpt lat="48.38873" lon="7.29203">
        <ele>825</ele>
        <time>2020-06-24T10:02:55.170Z</time>
      </trkpt>
      <trkpt lat="48.38873" lon="7.29205">
        <ele>824</ele>
        <time>2020-06-24T10:02:56.170Z</time>
      </trkpt>
      <trkpt lat="48.38872" lon="7.29206">
        <ele>823</ele>
        <time>2020-06-24T10:02:57.170Z</time>
      </trkpt>
      <trkpt lat="48.38871" lon="7.29207">
        <ele>821</ele>
        <time>2020-06-24T10:02:58.170Z</time>
      </trkpt>
      <trkpt lat="48.3887" lon="7.29209">
        <ele>820</ele>
        <time>2020-06-24T10:02:59.170Z</time>
      </trkpt>
      <trkpt lat="48.38869" lon="7.29211">
        <ele>819</ele>
        <time>2020-06-24T10:03:00.169Z</time>
      </trkpt>
      <trkpt lat="48.38868" lon="7.29213">
        <ele>819</ele>
        <time>2020-06-24T10:03:01.170Z</time>
      </trkpt>
      <trkpt lat="48.38868" lon="7.29214">
        <ele>818</ele>
        <time>2020-06-24T10:03:02.170Z</time>
      </trkpt>
      <trkpt lat="48.38867" lon="7.29216">
        <ele>817</ele>
        <time>2020-06-24T10:03:03.170Z</time>
      </trkpt>
      <trkpt lat="48.38866" lon="7.29218">
        <ele>817</ele>
        <time>2020-06-24T10:03:04.170Z</time>
      </trkpt>
      <trkpt lat="48.38865" lon="7.2922">
        <ele>816</ele>
        <time>2020-06-24T10:03:05.170Z</time>
      </trkpt>
      <trkpt lat="48.38863" lon="7.29222">
        <ele>815</ele>
        <time>2020-06-24T10:03:06.170Z</time>
      </trkpt>
      <trkpt lat="48.38863" lon="7.29224">
        <ele>815</ele>
        <time>2020-06-24T10:03:07.170Z</time>
      </trkpt>
      <trkpt lat="48.38863" lon="7.29226">
        <ele>815</ele>
        <time>2020-06-24T10:03:08.170Z</time>
      </trkpt>
      <trkpt lat="48.38863" lon="7.29228">
        <ele>814</ele>
        <time>2020-06-24T10:03:09.170Z</time>
      </trkpt>
      <trkpt lat="48.38862" lon="7.29229">
        <ele>812</ele>
        <time>2020-06-24T10:03:10.170Z</time>
      </trkpt>
      <trkpt lat="48.38861" lon="7.29231">
        <ele>811</ele>
        <time>2020-06-24T10:03:11.170Z</time>
      </trkpt>
      <trkpt lat="48.38859" lon="7.29233">
        <ele>810</ele>
        <time>2020-06-24T10:03:12.170Z</time>
      </trkpt>
      <trkpt lat="48.38858" lon="7.29235">
        <ele>809</ele>
        <time>2020-06-24T10:03:13.170Z</time>
      </trkpt>
      <trkpt lat="48.38856" lon="7.29237">
        <ele>807</ele>
        <time>2020-06-24T10:03:14.170Z</time>
      </trkpt>
      <trkpt lat="48.38854" lon="7.29239">
        <ele>807</ele>
        <time>2020-06-24T10:03:15.170Z</time>
      </trkpt>
      <trkpt lat="48.38854" lon="7.2924">
        <ele>806</ele>
        <time>2020-06-24T10:03:16.169Z</time>
      </trkpt>
      <trkpt lat="48.38853" lon="7.29242">
        <ele>805</ele>
        <time>2020-06-24T10:03:17.170Z</time>
      </trkpt>
      <trkpt lat="48.38852" lon="7.29244">
        <ele>805</ele>
        <time>2020-06-24T10:03:18.169Z</time>
      </trkpt>
      <trkpt lat="48.38851" lon="7.29246">
        <ele>804</ele>
        <time>2020-06-24T10:03:19.169Z</time>
      </trkpt>
      <trkpt lat="48.3885" lon="7.29247">
        <ele>804</ele>
        <time>2020-06-24T10:03:20.169Z</time>
      </trkpt>
      <trkpt lat="48.38849" lon="7.29248">
        <ele>803</ele>
        <time>2020-06-24T10:03:21.169Z</time>
      </trkpt>
      <trkpt lat="48.38848" lon="7.29249">
        <ele>803</ele>
        <time>2020-06-24T10:03:22.170Z</time>
      </trkpt>
      <trkpt lat="48.38847" lon="7.2925">
        <ele>802</ele>
        <time>2020-06-24T10:03:23.170Z</time>
      </trkpt>
      <trkpt lat="48.38846" lon="7.29252">
        <ele>802</ele>
        <time>2020-06-24T10:03:24.169Z</time>
      </trkpt>
      <trkpt lat="48.38845" lon="7.29253">
        <ele>802</ele>
        <time>2020-06-24T10:03:25.169Z</time>
      </trkpt>
      <trkpt lat="48.38845" lon="7.29253">
        <ele>801</ele>
        <time>2020-06-24T10:03:26.169Z</time>
      </trkpt>
      <trkpt lat="48.38844" lon="7.29254">
        <ele>801</ele>
        <time>2020-06-24T10:03:27.170Z</time>
      </trkpt>
      <trkpt lat="48.38843" lon="7.29255">
        <ele>801</ele>
        <time>2020-06-24T10:03:28.169Z</time>
      </trkpt>
      <trkpt lat="48.38842" lon="7.29257">
        <ele>800</ele>
        <time>2020-06-24T10:03:29.169Z</time>
      </trkpt>
      <trkpt lat="48.38841" lon="7.29257">
        <ele>800</ele>
        <time>2020-06-24T10:03:30.170Z</time>
      </trkpt>
      <trkpt lat="48.3884" lon="7.29256">
        <ele>800</ele>
        <time>2020-06-24T10:03:31.170Z</time>
      </trkpt>
      <trkpt lat="48.38838" lon="7.29257">
        <ele>799</ele>
        <time>2020-06-24T10:03:32.170Z</time>
      </trkpt>
      <trkpt lat="48.38837" lon="7.29258">
        <ele>799</ele>
        <time>2020-06-24T10:03:33.169Z</time>
      </trkpt>
      <trkpt lat="48.38836" lon="7.2926">
        <ele>799</ele>
        <time>2020-06-24T10:03:34.169Z</time>
      </trkpt>
      <trkpt lat="48.38834" lon="7.29261">
        <ele>799</ele>
        <time>2020-06-24T10:03:35.170Z</time>
      </trkpt>
      <trkpt lat="48.38832" lon="7.29262">
        <ele>799</ele>
        <time>2020-06-24T10:03:36.170Z</time>
      </trkpt>
      <trkpt lat="48.38831" lon="7.29263">
        <ele>799</ele>
        <time>2020-06-24T10:03:37.169Z</time>
      </trkpt>
      <trkpt lat="48.38829" lon="7.29265">
        <ele>799</ele>
        <time>2020-06-24T10:03:38.169Z</time>
      </trkpt>
      <trkpt lat="48.38827" lon="7.29266">
        <ele>799</ele>
        <time>2020-06-24T10:03:39.170Z</time>
      </trkpt>
      <trkpt lat="48.38826" lon="7.29267">
        <ele>799</ele>
        <time>2020-06-24T10:03:40.169Z</time>
      </trkpt>
      <trkpt lat="48.38825" lon="7.29268">
        <ele>798</ele>
        <time>2020-06-24T10:03:41.170Z</time>
      </trkpt>
      <trkpt lat="48.38824" lon="7.29269">
        <ele>798</ele>
        <time>2020-06-24T10:03:42.170Z</time>
      </trkpt>
      <trkpt lat="48.38823" lon="7.2927">
        <ele>798</ele>
        <time>2020-06-24T10:03:43.170Z</time>
      </trkpt>
      <trkpt lat="48.38822" lon="7.29271">
        <ele>798</ele>
        <time>2020-06-24T10:03:44.170Z</time>
      </trkpt>
      <trkpt lat="48.38821" lon="7.29272">
        <ele>798</ele>
        <time>2020-06-24T10:03:45.170Z</time>
      </trkpt>
      <trkpt lat="48.38821" lon="7.29272">
        <ele>798</ele>
        <time>2020-06-24T10:03:46.170Z</time>
      </trkpt>
      <trkpt lat="48.3882" lon="7.29273">
        <ele>797</ele>
        <time>2020-06-24T10:03:47.169Z</time>
      </trkpt>
      <trkpt lat="48.3882" lon="7.29274">
        <ele>797</ele>
        <time>2020-06-24T10:03:48.170Z</time>
      </trkpt>
      <trkpt lat="48.3882" lon="7.29274">
        <ele>797</ele>
        <time>2020-06-24T10:03:49.170Z</time>
      </trkpt>
      <trkpt lat="48.3882" lon="7.29275">
        <ele>797</ele>
        <time>2020-06-24T10:03:50.170Z</time>
      </trkpt>
      <trkpt lat="48.3882" lon="7.29276">
        <ele>797</ele>
        <time>2020-06-24T10:03:51.170Z</time>
      </trkpt>
      <trkpt lat="48.3882" lon="7.29277">
        <ele>797</ele>
        <time>2020-06-24T10:03:52.170Z</time>
      </trkpt>
      <trkpt lat="48.3882" lon="7.29278">
        <ele>796</ele>
        <time>2020-06-24T10:03:53.170Z</time>
      </trkpt>
      <trkpt lat="48.3882" lon="7.29281">
        <ele>796</ele>
        <time>2020-06-24T10:03:54.169Z</time>
      </trkpt>
      <trkpt lat="48.38821" lon="7.29283">
        <ele>796</ele>
        <time>2020-06-24T10:03:55.170Z</time>
      </trkpt>
      <trkpt lat="48.38822" lon="7.29286">
        <ele>796</ele>
        <time>2020-06-24T10:03:56.170Z</time>
      </trkpt>
      <trkpt lat="48.38822" lon="7.29288">
        <ele>796</ele>
        <time>2020-06-24T10:03:57.169Z</time>
      </trkpt>
      <trkpt lat="48.38823" lon="7.2929">
        <ele>796</ele>
        <time>2020-06-24T10:03:58.170Z</time>
      </trkpt>
      <trkpt lat="48.38824" lon="7.29291">
        <ele>797</ele>
        <time>2020-06-24T10:03:59.170Z</time>
      </trkpt>
      <trkpt lat="48.38824" lon="7.29293">
        <ele>796</ele>
        <time>2020-06-24T10:04:00.169Z</time>
      </trkpt>
      <trkpt lat="48.38825" lon="7.29295">
        <ele>796</ele>
        <time>2020-06-24T10:04:01.169Z</time>
      </trkpt>
      <trkpt lat="48.38825" lon="7.29296">
        <ele>796</ele>
        <time>2020-06-24T10:04:02.170Z</time>
      </trkpt>
      <trkpt lat="48.38825" lon="7.29297">
        <ele>796</ele>
        <time>2020-06-24T10:04:03.170Z</time>
      </trkpt>
      <trkpt lat="48.38826" lon="7.29298">
        <ele>797</ele>
        <time>2020-06-24T10:04:04.169Z</time>
      </trkpt>
      <trkpt lat="48.38825" lon="7.29299">
        <ele>797</ele>
        <time>2020-06-24T10:04:05.170Z</time>
      </trkpt>
      <trkpt lat="48.38825" lon="7.293">
        <ele>797</ele>
        <time>2020-06-24T10:04:06.170Z</time>
      </trkpt>
      <trkpt lat="48.38826" lon="7.29302">
        <ele>797</ele>
        <time>2020-06-24T10:04:07.170Z</time>
      </trkpt>
      <trkpt lat="48.38826" lon="7.29303">
        <ele>797</ele>
        <time>2020-06-24T10:04:08.170Z</time>
      </trkpt>
      <trkpt lat="48.38825" lon="7.29305">
        <ele>797</ele>
        <time>2020-06-24T10:04:09.170Z</time>
      </trkpt>
      <trkpt lat="48.38825" lon="7.29307">
        <ele>796</ele>
        <time>2020-06-24T10:04:10.170Z</time>
      </trkpt>
      <trkpt lat="48.38823" lon="7.29309">
        <ele>795</ele>
        <time>2020-06-24T10:04:11.169Z</time>
      </trkpt>
      <trkpt lat="48.38822" lon="7.2931">
        <ele>794</ele>
        <time>2020-06-24T10:04:12.170Z</time>
      </trkpt>
      <trkpt lat="48.38822" lon="7.29311">
        <ele>793</ele>
        <time>2020-06-24T10:04:13.170Z</time>
      </trkpt>
      <trkpt lat="48.3882" lon="7.29312">
        <ele>791</ele>
        <time>2020-06-24T10:04:14.170Z</time>
      </trkpt>
      <trkpt lat="48.38819" lon="7.29313">
        <ele>790</ele>
        <time>2020-06-24T10:04:15.170Z</time>
      </trkpt>
      <trkpt lat="48.38818" lon="7.29314">
        <ele>789</ele>
        <time>2020-06-24T10:04:16.170Z</time>
      </trkpt>
      <trkpt lat="48.38816" lon="7.29316">
        <ele>788</ele>
        <time>2020-06-24T10:04:17.170Z</time>
      </trkpt>
      <trkpt lat="48.38815" lon="7.29317">
        <ele>787</ele>
        <time>2020-06-24T10:04:18.169Z</time>
      </trkpt>
      <trkpt lat="48.38813" lon="7.29319">
        <ele>787</ele>
        <time>2020-06-24T10:04:19.170Z</time>
      </trkpt>
      <trkpt lat="48.38812" lon="7.29321">
        <ele>787</ele>
        <time>2020-06-24T10:04:20.170Z</time>
      </trkpt>
      <trkpt lat="48.38811" lon="7.29323">
        <ele>786</ele>
        <time>2020-06-24T10:04:21.170Z</time>
      </trkpt>
      <trkpt lat="48.3881" lon="7.29324">
        <ele>786</ele>
        <time>2020-06-24T10:04:22.169Z</time>
      </trkpt>
      <trkpt lat="48.38809" lon="7.29326">
        <ele>786</ele>
        <time>2020-06-24T10:04:23.169Z</time>
      </trkpt>
      <trkpt lat="48.38808" lon="7.29328">
        <ele>785</ele>
        <time>2020-06-24T10:04:24.169Z</time>
      </trkpt>
      <trkpt lat="48.38807" lon="7.29329">
        <ele>785</ele>
        <time>2020-06-24T10:04:25.170Z</time>
      </trkpt>
      <trkpt lat="48.38806" lon="7.29331">
        <ele>785</ele>
        <time>2020-06-24T10:04:26.170Z</time>
      </trkpt>
      <trkpt lat="48.38805" lon="7.29332">
        <ele>785</ele>
        <time>2020-06-24T10:04:27.170Z</time>
      </trkpt>
      <trkpt lat="48.38804" lon="7.29334">
        <ele>784</ele>
        <time>2020-06-24T10:04:28.170Z</time>
      </trkpt>
      <trkpt lat="48.38803" lon="7.29336">
        <ele>784</ele>
        <time>2020-06-24T10:04:29.170Z</time>
      </trkpt>
      <trkpt lat="48.38802" lon="7.29337">
        <ele>784</ele>
        <time>2020-06-24T10:04:30.169Z</time>
      </trkpt>
      <trkpt lat="48.38801" lon="7.29339">
        <ele>783</ele>
        <time>2020-06-24T10:04:31.170Z</time>
      </trkpt>
      <trkpt lat="48.388" lon="7.2934">
        <ele>783</ele>
        <time>2020-06-24T10:04:32.169Z</time>
      </trkpt>
      <trkpt lat="48.38799" lon="7.29342">
        <ele>783</ele>
        <time>2020-06-24T10:04:33.170Z</time>
      </trkpt>
      <trkpt lat="48.38798" lon="7.29344">
        <ele>783</ele>
        <time>2020-06-24T10:04:34.170Z</time>
      </trkpt>
      <trkpt lat="48.38797" lon="7.29345">
        <ele>783</ele>
        <time>2020-06-24T10:04:35.170Z</time>
      </trkpt>
      <trkpt lat="48.38796" lon="7.29347">
        <ele>783</ele>
        <time>2020-06-24T10:04:36.169Z</time>
      </trkpt>
      <trkpt lat="48.38796" lon="7.29349">
        <ele>783</ele>
        <time>2020-06-24T10:04:37.170Z</time>
      </trkpt>
      <trkpt lat="48.38795" lon="7.2935">
        <ele>783</ele>
        <time>2020-06-24T10:04:38.170Z</time>
      </trkpt>
      <trkpt lat="48.38794" lon="7.29352">
        <ele>782</ele>
        <time>2020-06-24T10:04:39.170Z</time>
      </trkpt>
      <trkpt lat="48.38794" lon="7.29354">
        <ele>782</ele>
        <time>2020-06-24T10:04:40.170Z</time>
      </trkpt>
      <trkpt lat="48.38793" lon="7.29356">
        <ele>782</ele>
        <time>2020-06-24T10:04:41.170Z</time>
      </trkpt>
      <trkpt lat="48.38792" lon="7.29358">
        <ele>782</ele>
        <time>2020-06-24T10:04:42.170Z</time>
      </trkpt>
      <trkpt lat="48.38791" lon="7.29359">
        <ele>782</ele>
        <time>2020-06-24T10:04:43.169Z</time>
      </trkpt>
      <trkpt lat="48.38791" lon="7.29361">
        <ele>781</ele>
        <time>2020-06-24T10:04:44.170Z</time>
      </trkpt>
      <trkpt lat="48.3879" lon="7.29363">
        <ele>781</ele>
        <time>2020-06-24T10:04:45.170Z</time>
      </trkpt>
      <trkpt lat="48.3879" lon="7.29364">
        <ele>781</ele>
        <time>2020-06-24T10:04:46.170Z</time>
      </trkpt>
      <trkpt lat="48.38789" lon="7.29366">
        <ele>781</ele>
        <time>2020-06-24T10:04:47.170Z</time>
      </trkpt>
      <trkpt lat="48.38788" lon="7.29368">
        <ele>781</ele>
        <time>2020-06-24T10:04:48.169Z</time>
      </trkpt>
      <trkpt lat="48.38787" lon="7.29369">
        <ele>781</ele>
        <time>2020-06-24T10:04:49.170Z</time>
      </trkpt>
      <trkpt lat="48.38786" lon="7.29371">
        <ele>780</ele>
        <time>2020-06-24T10:04:50.170Z</time>
      </trkpt>
      <trkpt lat="48.38785" lon="7.29372">
        <ele>780</ele>
        <time>2020-06-24T10:04:51.170Z</time>
      </trkpt>
      <trkpt lat="48.38784" lon="7.29374">
        <ele>779</ele>
        <time>2020-06-24T10:04:52.169Z</time>
      </trkpt>
      <trkpt lat="48.38783" lon="7.29375">
        <ele>779</ele>
        <time>2020-06-24T10:04:53.170Z</time>
      </trkpt>
      <trkpt lat="48.38782" lon="7.29376">
        <ele>779</ele>
        <time>2020-06-24T10:04:54.169Z</time>
      </trkpt>
      <trkpt lat="48.38781" lon="7.29376">
        <ele>779</ele>
        <time>2020-06-24T10:04:55.170Z</time>
      </trkpt>
      <trkpt lat="48.38781" lon="7.29377">
        <ele>779</ele>
        <time>2020-06-24T10:04:56.170Z</time>
      </trkpt>
      <trkpt lat="48.38781" lon="7.29379">
        <ele>779</ele>
        <time>2020-06-24T10:04:57.170Z</time>
      </trkpt>
      <trkpt lat="48.3878" lon="7.2938">
        <ele>779</ele>
        <time>2020-06-24T10:04:58.169Z</time>
      </trkpt>
      <trkpt lat="48.3878" lon="7.29382">
        <ele>779</ele>
        <time>2020-06-24T10:04:59.170Z</time>
      </trkpt>
      <trkpt lat="48.3878" lon="7.29383">
        <ele>779</ele>
        <time>2020-06-24T10:05:00.170Z</time>
      </trkpt>
      <trkpt lat="48.38779" lon="7.29385">
        <ele>779</ele>
        <time>2020-06-24T10:05:01.170Z</time>
      </trkpt>
      <trkpt lat="48.38778" lon="7.29386">
        <ele>779</ele>
        <time>2020-06-24T10:05:02.170Z</time>
      </trkpt>
      <trkpt lat="48.38778" lon="7.29387">
        <ele>779</ele>
        <time>2020-06-24T10:05:03.170Z</time>
      </trkpt>
      <trkpt lat="48.38777" lon="7.29389">
        <ele>779</ele>
        <time>2020-06-24T10:05:04.170Z</time>
      </trkpt>
      <trkpt lat="48.38776" lon="7.2939">
        <ele>779</ele>
        <time>2020-06-24T10:05:05.169Z</time>
      </trkpt>
      <trkpt lat="48.38775" lon="7.29392">
        <ele>779</ele>
        <time>2020-06-24T10:05:06.170Z</time>
      </trkpt>
      <trkpt lat="48.38774" lon="7.29393">
        <ele>778</ele>
        <time>2020-06-24T10:05:07.170Z</time>
      </trkpt>
      <trkpt lat="48.38773" lon="7.29394">
        <ele>778</ele>
        <time>2020-06-24T10:05:08.170Z</time>
      </trkpt>
      <trkpt lat="48.38772" lon="7.29395">
        <ele>778</ele>
        <time>2020-06-24T10:05:09.169Z</time>
      </trkpt>
      <trkpt lat="48.38771" lon="7.29396">
        <ele>777</ele>
        <time>2020-06-24T10:05:10.169Z</time>
      </trkpt>
      <trkpt lat="48.3877" lon="7.29397">
        <ele>777</ele>
        <time>2020-06-24T10:05:11.170Z</time>
      </trkpt>
      <trkpt lat="48.38769" lon="7.29398">
        <ele>777</ele>
        <time>2020-06-24T10:05:12.170Z</time>
      </trkpt>
      <trkpt lat="48.38768" lon="7.29399">
        <ele>776</ele>
        <time>2020-06-24T10:05:13.170Z</time>
      </trkpt>
      <trkpt lat="48.38767" lon="7.294">
        <ele>777</ele>
        <time>2020-06-24T10:05:14.169Z</time>
      </trkpt>
      <trkpt lat="48.38766" lon="7.29401">
        <ele>776</ele>
        <time>2020-06-24T10:05:15.170Z</time>
      </trkpt>
      <trkpt lat="48.38765" lon="7.29402">
        <ele>777</ele>
        <time>2020-06-24T10:05:16.170Z</time>
      </trkpt>
      <trkpt lat="48.38764" lon="7.29404">
        <ele>777</ele>
        <time>2020-06-24T10:05:17.170Z</time>
      </trkpt>
      <trkpt lat="48.38763" lon="7.29405">
        <ele>777</ele>
        <time>2020-06-24T10:05:18.170Z</time>
      </trkpt>
      <trkpt lat="48.38762" lon="7.29407">
        <ele>777</ele>
        <time>2020-06-24T10:05:19.169Z</time>
      </trkpt>
      <trkpt lat="48.38761" lon="7.29409">
        <ele>777</ele>
        <time>2020-06-24T10:05:20.169Z</time>
      </trkpt>
      <trkpt lat="48.3876" lon="7.29411">
        <ele>778</ele>
        <time>2020-06-24T10:05:21.170Z</time>
      </trkpt>
      <trkpt lat="48.38759" lon="7.29413">
        <ele>778</ele>
        <time>2020-06-24T10:05:22.170Z</time>
      </trkpt>
      <trkpt lat="48.38758" lon="7.29414">
        <ele>778</ele>
        <time>2020-06-24T10:05:23.170Z</time>
      </trkpt>
      <trkpt lat="48.38757" lon="7.29416">
        <ele>778</ele>
        <time>2020-06-24T10:05:24.170Z</time>
      </trkpt>
      <trkpt lat="48.38756" lon="7.29417">
        <ele>778</ele>
        <time>2020-06-24T10:05:25.170Z</time>
      </trkpt>
      <trkpt lat="48.38755" lon="7.29418">
        <ele>777</ele>
        <time>2020-06-24T10:05:26.170Z</time>
      </trkpt>
      <trkpt lat="48.38754" lon="7.29419">
        <ele>777</ele>
        <time>2020-06-24T10:05:27.170Z</time>
      </trkpt>
      <trkpt lat="48.38755" lon="7.2942">
        <ele>777</ele>
        <time>2020-06-24T10:05:28.170Z</time>
      </trkpt>
      <trkpt lat="48.38755" lon="7.2942">
        <ele>777</ele>
        <time>2020-06-24T10:05:29.170Z</time>
      </trkpt>
      <trkpt lat="48.38755" lon="7.29421">
        <ele>777</ele>
        <time>2020-06-24T10:05:30.170Z</time>
      </trkpt>
      <trkpt lat="48.38754" lon="7.29423">
        <ele>778</ele>
        <time>2020-06-24T10:05:31.170Z</time>
      </trkpt>
      <trkpt lat="48.38753" lon="7.29426">
        <ele>778</ele>
        <time>2020-06-24T10:05:32.170Z</time>
      </trkpt>
      <trkpt lat="48.38752" lon="7.29428">
        <ele>778</ele>
        <time>2020-06-24T10:05:33.169Z</time>
      </trkpt>
      <trkpt lat="48.38751" lon="7.2943">
        <ele>777</ele>
        <time>2020-06-24T10:05:34.170Z</time>
      </trkpt>
      <trkpt lat="48.3875" lon="7.29431">
        <ele>777</ele>
        <time>2020-06-24T10:05:35.169Z</time>
      </trkpt>
      <trkpt lat="48.38749" lon="7.29432">
        <ele>777</ele>
        <time>2020-06-24T10:05:36.169Z</time>
      </trkpt>
      <trkpt lat="48.38748" lon="7.29433">
        <ele>777</ele>
        <time>2020-06-24T10:05:37.170Z</time>
      </trkpt>
      <trkpt lat="48.38746" lon="7.29433">
        <ele>777</ele>
        <time>2020-06-24T10:05:38.170Z</time>
      </trkpt>
      <trkpt lat="48.38745" lon="7.29434">
        <ele>778</ele>
        <time>2020-06-24T10:05:39.170Z</time>
      </trkpt>
      <trkpt lat="48.38743" lon="7.29434">
        <ele>778</ele>
        <time>2020-06-24T10:05:40.169Z</time>
      </trkpt>
      <trkpt lat="48.38742" lon="7.29433">
        <ele>779</ele>
        <time>2020-06-24T10:05:41.170Z</time>
      </trkpt>
      <trkpt lat="48.3874" lon="7.29433">
        <ele>779</ele>
        <time>2020-06-24T10:05:42.169Z</time>
      </trkpt>
      <trkpt lat="48.38738" lon="7.29432">
        <ele>780</ele>
        <time>2020-06-24T10:05:43.170Z</time>
      </trkpt>
      <trkpt lat="48.38736" lon="7.29432">
        <ele>780</ele>
        <time>2020-06-24T10:05:44.170Z</time>
      </trkpt>
      <trkpt lat="48.38734" lon="7.29431">
        <ele>781</ele>
        <time>2020-06-24T10:05:45.170Z</time>
      </trkpt>
      <trkpt lat="48.38733" lon="7.29432">
        <ele>781</ele>
        <time>2020-06-24T10:05:46.170Z</time>
      </trkpt>
      <trkpt lat="48.38732" lon="7.29431">
        <ele>782</ele>
        <time>2020-06-24T10:05:47.170Z</time>
      </trkpt>
      <trkpt lat="48.3873" lon="7.29431">
        <ele>782</ele>
        <time>2020-06-24T10:05:48.169Z</time>
      </trkpt>
      <trkpt lat="48.38729" lon="7.29431">
        <ele>783</ele>
        <time>2020-06-24T10:05:49.169Z</time>
      </trkpt>
      <trkpt lat="48.38728" lon="7.29431">
        <ele>783</ele>
        <time>2020-06-24T10:05:50.169Z</time>
      </trkpt>
      <trkpt lat="48.38725" lon="7.29432">
        <ele>784</ele>
        <time>2020-06-24T10:05:51.169Z</time>
      </trkpt>
      <trkpt lat="48.38723" lon="7.29432">
        <ele>784</ele>
        <time>2020-06-24T10:05:52.170Z</time>
      </trkpt>
      <trkpt lat="48.38721" lon="7.29431">
        <ele>784</ele>
        <time>2020-06-24T10:05:53.170Z</time>
      </trkpt>
      <trkpt lat="48.38719" lon="7.29431">
        <ele>785</ele>
        <time>2020-06-24T10:05:54.170Z</time>
      </trkpt>
      <trkpt lat="48.38718" lon="7.29431">
        <ele>785</ele>
        <time>2020-06-24T10:05:55.170Z</time>
      </trkpt>
      <trkpt lat="48.38717" lon="7.2943">
        <ele>785</ele>
        <time>2020-06-24T10:05:56.170Z</time>
      </trkpt>
      <trkpt lat="48.38715" lon="7.29429">
        <ele>785</ele>
        <time>2020-06-24T10:05:57.169Z</time>
      </trkpt>
      <trkpt lat="48.38714" lon="7.29429">
        <ele>785</ele>
        <time>2020-06-24T10:05:58.170Z</time>
      </trkpt>
      <trkpt lat="48.38713" lon="7.29428">
        <ele>784</ele>
        <time>2020-06-24T10:05:59.170Z</time>
      </trkpt>
      <trkpt lat="48.38711" lon="7.29427">
        <ele>784</ele>
        <time>2020-06-24T10:06:00.169Z</time>
      </trkpt>
      <trkpt lat="48.3871" lon="7.29427">
        <ele>783</ele>
        <time>2020-06-24T10:06:01.170Z</time>
      </trkpt>
      <trkpt lat="48.38708" lon="7.29427">
        <ele>783</ele>
        <time>2020-06-24T10:06:02.170Z</time>
      </trkpt>
      <trkpt lat="48.38707" lon="7.29426">
        <ele>783</ele>
        <time>2020-06-24T10:06:03.170Z</time>
      </trkpt>
      <trkpt lat="48.38706" lon="7.29426">
        <ele>783</ele>
        <time>2020-06-24T10:06:04.170Z</time>
      </trkpt>
      <trkpt lat="48.38705" lon="7.29426">
        <ele>783</ele>
        <time>2020-06-24T10:06:05.170Z</time>
      </trkpt>
      <trkpt lat="48.38703" lon="7.29425">
        <ele>784</ele>
        <time>2020-06-24T10:06:06.170Z</time>
      </trkpt>
      <trkpt lat="48.38702" lon="7.29424">
        <ele>783</ele>
        <time>2020-06-24T10:06:07.170Z</time>
      </trkpt>
      <trkpt lat="48.387" lon="7.29423">
        <ele>783</ele>
        <time>2020-06-24T10:06:08.170Z</time>
      </trkpt>
      <trkpt lat="48.38699" lon="7.29423">
        <ele>784</ele>
        <time>2020-06-24T10:06:09.169Z</time>
      </trkpt>
      <trkpt lat="48.38698" lon="7.29422">
        <ele>784</ele>
        <time>2020-06-24T10:06:10.170Z</time>
      </trkpt>
      <trkpt lat="48.38696" lon="7.29421">
        <ele>784</ele>
        <time>2020-06-24T10:06:11.169Z</time>
      </trkpt>
      <trkpt lat="48.38696" lon="7.29419">
        <ele>784</ele>
        <time>2020-06-24T10:06:12.170Z</time>
      </trkpt>
      <trkpt lat="48.38695" lon="7.29419">
        <ele>783</ele>
        <time>2020-06-24T10:06:13.170Z</time>
      </trkpt>
      <trkpt lat="48.38695" lon="7.29418">
        <ele>784</ele>
        <time>2020-06-24T10:06:14.170Z</time>
      </trkpt>
      <trkpt lat="48.38694" lon="7.29417">
        <ele>784</ele>
        <time>2020-06-24T10:06:15.170Z</time>
      </trkpt>
      <trkpt lat="48.38694" lon="7.29417">
        <ele>784</ele>
        <time>2020-06-24T10:06:16.170Z</time>
      </trkpt>
      <trkpt lat="48.38694" lon="7.29417">
        <ele>783</ele>
        <time>2020-06-24T10:06:17.170Z</time>
      </trkpt>
      <trkpt lat="48.38694" lon="7.29417">
        <ele>783</ele>
        <time>2020-06-24T10:06:18.170Z</time>
      </trkpt>
      <trkpt lat="48.38695" lon="7.29418">
        <ele>784</ele>
        <time>2020-06-24T10:06:19.170Z</time>
      </trkpt>
      <trkpt lat="48.38696" lon="7.29419">
        <ele>784</ele>
        <time>2020-06-24T10:06:20.170Z</time>
      </trkpt>
      <trkpt lat="48.38697" lon="7.29419">
        <ele>785</ele>
        <time>2020-06-24T10:06:21.169Z</time>
      </trkpt>
      <trkpt lat="48.38698" lon="7.29419">
        <ele>785</ele>
        <time>2020-06-24T10:06:22.170Z</time>
      </trkpt>
      <trkpt lat="48.38699" lon="7.29418">
        <ele>784</ele>
        <time>2020-06-24T10:06:23.170Z</time>
      </trkpt>
      <trkpt lat="48.38702" lon="7.29419">
        <ele>781</ele>
        <time>2020-06-24T10:06:24.171Z</time>
      </trkpt>
      <trkpt lat="48.38703" lon="7.29419">
        <ele>781</ele>
        <time>2020-06-24T10:06:25.171Z</time>
      </trkpt>
      <trkpt lat="48.38705" lon="7.29419">
        <ele>781</ele>
        <time>2020-06-24T10:06:26.170Z</time>
      </trkpt>
      <trkpt lat="48.38706" lon="7.29419">
        <ele>782</ele>
        <time>2020-06-24T10:06:27.170Z</time>
      </trkpt>
      <trkpt lat="48.38708" lon="7.2942">
        <ele>782</ele>
        <time>2020-06-24T10:06:28.171Z</time>
      </trkpt>
      <trkpt lat="48.38711" lon="7.2942">
        <ele>782</ele>
        <time>2020-06-24T10:06:29.171Z</time>
      </trkpt>
      <trkpt lat="48.38713" lon="7.29421">
        <ele>782</ele>
        <time>2020-06-24T10:06:30.171Z</time>
      </trkpt>
      <trkpt lat="48.38716" lon="7.29421">
        <ele>782</ele>
        <time>2020-06-24T10:06:31.170Z</time>
      </trkpt>
      <trkpt lat="48.38717" lon="7.29422">
        <ele>782</ele>
        <time>2020-06-24T10:06:32.171Z</time>
      </trkpt>
      <trkpt lat="48.38719" lon="7.29422">
        <ele>782</ele>
        <time>2020-06-24T10:06:33.170Z</time>
      </trkpt>
      <trkpt lat="48.3872" lon="7.29422">
        <ele>783</ele>
        <time>2020-06-24T10:06:34.170Z</time>
      </trkpt>
      <trkpt lat="48.38721" lon="7.29423">
        <ele>784</ele>
        <time>2020-06-24T10:06:35.170Z</time>
      </trkpt>
      <trkpt lat="48.38723" lon="7.29423">
        <ele>784</ele>
        <time>2020-06-24T10:06:36.170Z</time>
      </trkpt>
      <trkpt lat="48.38725" lon="7.29423">
        <ele>785</ele>
        <time>2020-06-24T10:06:37.171Z</time>
      </trkpt>
      <trkpt lat="48.38726" lon="7.29423">
        <ele>785</ele>
        <time>2020-06-24T10:06:38.171Z</time>
      </trkpt>
      <trkpt lat="48.38727" lon="7.29424">
        <ele>785</ele>
        <time>2020-06-24T10:06:39.171Z</time>
      </trkpt>
      <trkpt lat="48.38728" lon="7.29425">
        <ele>785</ele>
        <time>2020-06-24T10:06:40.171Z</time>
      </trkpt>
      <trkpt lat="48.3873" lon="7.29426">
        <ele>785</ele>
        <time>2020-06-24T10:06:41.170Z</time>
      </trkpt>
      <trkpt lat="48.38732" lon="7.29427">
        <ele>785</ele>
        <time>2020-06-24T10:06:42.171Z</time>
      </trkpt>
      <trkpt lat="48.38734" lon="7.29427">
        <ele>785</ele>
        <time>2020-06-24T10:06:43.171Z</time>
      </trkpt>
      <trkpt lat="48.38735" lon="7.29426">
        <ele>785</ele>
        <time>2020-06-24T10:06:44.171Z</time>
      </trkpt>
      <trkpt lat="48.38736" lon="7.29424">
        <ele>785</ele>
        <time>2020-06-24T10:06:45.171Z</time>
      </trkpt>
      <trkpt lat="48.38736" lon="7.29422">
        <ele>785</ele>
        <time>2020-06-24T10:06:46.170Z</time>
      </trkpt>
      <trkpt lat="48.38738" lon="7.29421">
        <ele>785</ele>
        <time>2020-06-24T10:06:47.170Z</time>
      </trkpt>
      <trkpt lat="48.38739" lon="7.29419">
        <ele>784</ele>
        <time>2020-06-24T10:06:48.170Z</time>
      </trkpt>
      <trkpt lat="48.3874" lon="7.29418">
        <ele>784</ele>
        <time>2020-06-24T10:06:49.171Z</time>
      </trkpt>
      <trkpt lat="48.38741" lon="7.29418">
        <ele>783</ele>
        <time>2020-06-24T10:06:50.171Z</time>
      </trkpt>
      <trkpt lat="48.38743" lon="7.29417">
        <ele>782</ele>
        <time>2020-06-24T10:06:51.171Z</time>
      </trkpt>
      <trkpt lat="48.38744" lon="7.29417">
        <ele>781</ele>
        <time>2020-06-24T10:06:52.171Z</time>
      </trkpt>
      <trkpt lat="48.38746" lon="7.29417">
        <ele>781</ele>
        <time>2020-06-24T10:06:53.170Z</time>
      </trkpt>
      <trkpt lat="48.38747" lon="7.29416">
        <ele>780</ele>
        <time>2020-06-24T10:06:54.170Z</time>
      </trkpt>
      <trkpt lat="48.38748" lon="7.29416">
        <ele>779</ele>
        <time>2020-06-24T10:06:55.171Z</time>
      </trkpt>
      <trkpt lat="48.38749" lon="7.29415">
        <ele>778</ele>
        <time>2020-06-24T10:06:56.170Z</time>
      </trkpt>
      <trkpt lat="48.3875" lon="7.29415">
        <ele>778</ele>
        <time>2020-06-24T10:06:57.171Z</time>
      </trkpt>
      <trkpt lat="48.38752" lon="7.29415">
        <ele>778</ele>
        <time>2020-06-24T10:06:58.170Z</time>
      </trkpt>
      <trkpt lat="48.38753" lon="7.29414">
        <ele>778</ele>
        <time>2020-06-24T10:06:59.171Z</time>
      </trkpt>
      <trkpt lat="48.38754" lon="7.29413">
        <ele>778</ele>
        <time>2020-06-24T10:07:00.170Z</time>
      </trkpt>
      <trkpt lat="48.38756" lon="7.29411">
        <ele>778</ele>
        <time>2020-06-24T10:07:01.170Z</time>
      </trkpt>
      <trkpt lat="48.38758" lon="7.29411">
        <ele>778</ele>
        <time>2020-06-24T10:07:02.170Z</time>
      </trkpt>
      <trkpt lat="48.3876" lon="7.29411">
        <ele>778</ele>
        <time>2020-06-24T10:07:03.170Z</time>
      </trkpt>
      <trkpt lat="48.38761" lon="7.2941">
        <ele>777</ele>
        <time>2020-06-24T10:07:04.171Z</time>
      </trkpt>
      <trkpt lat="48.38763" lon="7.2941">
        <ele>777</ele>
        <time>2020-06-24T10:07:05.170Z</time>
      </trkpt>
      <trkpt lat="48.38764" lon="7.29409">
        <ele>777</ele>
        <time>2020-06-24T10:07:06.170Z</time>
      </trkpt>
      <trkpt lat="48.38765" lon="7.29408">
        <ele>777</ele>
        <time>2020-06-24T10:07:07.171Z</time>
      </trkpt>
      <trkpt lat="48.38767" lon="7.29408">
        <ele>777</ele>
        <time>2020-06-24T10:07:08.171Z</time>
      </trkpt>
      <trkpt lat="48.38768" lon="7.29407">
        <ele>777</ele>
        <time>2020-06-24T10:07:09.171Z</time>
      </trkpt>
      <trkpt lat="48.3877" lon="7.29407">
        <ele>777</ele>
        <time>2020-06-24T10:07:10.170Z</time>
      </trkpt>
      <trkpt lat="48.38771" lon="7.29406">
        <ele>777</ele>
        <time>2020-06-24T10:07:11.170Z</time>
      </trkpt>
      <trkpt lat="48.38772" lon="7.29405">
        <ele>777</ele>
        <time>2020-06-24T10:07:12.171Z</time>
      </trkpt>
      <trkpt lat="48.38773" lon="7.29404">
        <ele>777</ele>
        <time>2020-06-24T10:07:13.170Z</time>
      </trkpt>
      <trkpt lat="48.38774" lon="7.29402">
        <ele>777</ele>
        <time>2020-06-24T10:07:14.170Z</time>
      </trkpt>
      <trkpt lat="48.38775" lon="7.294">
        <ele>778</ele>
        <time>2020-06-24T10:07:15.170Z</time>
      </trkpt>
      <trkpt lat="48.38776" lon="7.29399">
        <ele>778</ele>
        <time>2020-06-24T10:07:16.170Z</time>
      </trkpt>
      <trkpt lat="48.38777" lon="7.29396">
        <ele>779</ele>
        <time>2020-06-24T10:07:17.171Z</time>
      </trkpt>
      <trkpt lat="48.38778" lon="7.29393">
        <ele>779</ele>
        <time>2020-06-24T10:07:18.171Z</time>
      </trkpt>
      <trkpt lat="48.38779" lon="7.2939">
        <ele>780</ele>
        <time>2020-06-24T10:07:19.170Z</time>
      </trkpt>
      <trkpt lat="48.38779" lon="7.29387">
        <ele>782</ele>
        <time>2020-06-24T10:07:20.171Z</time>
      </trkpt>
      <trkpt lat="48.38779" lon="7.29384">
        <ele>783</ele>
        <time>2020-06-24T10:07:21.171Z</time>
      </trkpt>
      <trkpt lat="48.38779" lon="7.29382">
        <ele>784</ele>
        <time>2020-06-24T10:07:22.170Z</time>
      </trkpt>
      <trkpt lat="48.38779" lon="7.29381">
        <ele>784</ele>
        <time>2020-06-24T10:07:23.170Z</time>
      </trkpt>
      <trkpt lat="48.38778" lon="7.29381">
        <ele>784</ele>
        <time>2020-06-24T10:07:24.171Z</time>
      </trkpt>
      <trkpt lat="48.38778" lon="7.2938">
        <ele>781</ele>
        <time>2020-06-24T10:07:25.171Z</time>
      </trkpt>
      <trkpt lat="48.38778" lon="7.29379">
        <ele>781</ele>
        <time>2020-06-24T10:07:26.171Z</time>
      </trkpt>
      <trkpt lat="48.38779" lon="7.29377">
        <ele>781</ele>
        <time>2020-06-24T10:07:27.172Z</time>
      </trkpt>
      <trkpt lat="48.3878" lon="7.29376">
        <ele>780</ele>
        <time>2020-06-24T10:07:28.171Z</time>
      </trkpt>
      <trkpt lat="48.38781" lon="7.29375">
        <ele>780</ele>
        <time>2020-06-24T10:07:29.171Z</time>
      </trkpt>
      <trkpt lat="48.38783" lon="7.29375">
        <ele>779</ele>
        <time>2020-06-24T10:07:30.172Z</time>
      </trkpt>
      <trkpt lat="48.38784" lon="7.29373">
        <ele>779</ele>
        <time>2020-06-24T10:07:31.172Z</time>
      </trkpt>
      <trkpt lat="48.38785" lon="7.29372">
        <ele>779</ele>
        <time>2020-06-24T10:07:32.172Z</time>
      </trkpt>
      <trkpt lat="48.38786" lon="7.2937">
        <ele>780</ele>
        <time>2020-06-24T10:07:33.171Z</time>
      </trkpt>
      <trkpt lat="48.38788" lon="7.29369">
        <ele>780</ele>
        <time>2020-06-24T10:07:34.171Z</time>
      </trkpt>
      <trkpt lat="48.38789" lon="7.29368">
        <ele>780</ele>
        <time>2020-06-24T10:07:35.172Z</time>
      </trkpt>
      <trkpt lat="48.3879" lon="7.29368">
        <ele>781</ele>
        <time>2020-06-24T10:07:36.172Z</time>
      </trkpt>
      <trkpt lat="48.38792" lon="7.29367">
        <ele>781</ele>
        <time>2020-06-24T10:07:37.171Z</time>
      </trkpt>
      <trkpt lat="48.38793" lon="7.29366">
        <ele>781</ele>
        <time>2020-06-24T10:07:38.172Z</time>
      </trkpt>
      <trkpt lat="48.38794" lon="7.29364">
        <ele>781</ele>
        <time>2020-06-24T10:07:39.172Z</time>
      </trkpt>
      <trkpt lat="48.38795" lon="7.29363">
        <ele>780</ele>
        <time>2020-06-24T10:07:40.171Z</time>
      </trkpt>
      <trkpt lat="48.38796" lon="7.29362">
        <ele>780</ele>
        <time>2020-06-24T10:07:41.171Z</time>
      </trkpt>
      <trkpt lat="48.38797" lon="7.2936">
        <ele>780</ele>
        <time>2020-06-24T10:07:42.172Z</time>
      </trkpt>
      <trkpt lat="48.38799" lon="7.2936">
        <ele>780</ele>
        <time>2020-06-24T10:07:43.172Z</time>
      </trkpt>
      <trkpt lat="48.388" lon="7.29359">
        <ele>779</ele>
        <time>2020-06-24T10:07:44.171Z</time>
      </trkpt>
      <trkpt lat="48.38801" lon="7.29358">
        <ele>779</ele>
        <time>2020-06-24T10:07:45.171Z</time>
      </trkpt>
      <trkpt lat="48.38802" lon="7.29357">
        <ele>778</ele>
        <time>2020-06-24T10:07:46.171Z</time>
      </trkpt>
      <trkpt lat="48.38804" lon="7.29356">
        <ele>778</ele>
        <time>2020-06-24T10:07:47.172Z</time>
      </trkpt>
      <trkpt lat="48.38805" lon="7.29355">
        <ele>777</ele>
        <time>2020-06-24T10:07:48.171Z</time>
      </trkpt>
      <trkpt lat="48.38806" lon="7.29354">
        <ele>777</ele>
        <time>2020-06-24T10:07:49.171Z</time>
      </trkpt>
      <trkpt lat="48.38808" lon="7.29353">
        <ele>777</ele>
        <time>2020-06-24T10:07:50.171Z</time>
      </trkpt>
      <trkpt lat="48.38809" lon="7.29352">
        <ele>777</ele>
        <time>2020-06-24T10:07:51.172Z</time>
      </trkpt>
      <trkpt lat="48.3881" lon="7.2935">
        <ele>776</ele>
        <time>2020-06-24T10:07:52.172Z</time>
      </trkpt>
      <trkpt lat="48.38811" lon="7.29349">
        <ele>776</ele>
        <time>2020-06-24T10:07:53.172Z</time>
      </trkpt>
      <trkpt lat="48.38812" lon="7.29348">
        <ele>776</ele>
        <time>2020-06-24T10:07:54.172Z</time>
      </trkpt>
      <trkpt lat="48.38813" lon="7.29347">
        <ele>776</ele>
        <time>2020-06-24T10:07:55.172Z</time>
      </trkpt>
      <trkpt lat="48.38814" lon="7.29345">
        <ele>776</ele>
        <time>2020-06-24T10:07:56.172Z</time>
      </trkpt>
      <trkpt lat="48.38815" lon="7.29344">
        <ele>776</ele>
        <time>2020-06-24T10:07:57.172Z</time>
      </trkpt>
      <trkpt lat="48.38817" lon="7.29342">
        <ele>776</ele>
        <time>2020-06-24T10:07:58.171Z</time>
      </trkpt>
      <trkpt lat="48.38818" lon="7.29341">
        <ele>776</ele>
        <time>2020-06-24T10:07:59.172Z</time>
      </trkpt>
      <trkpt lat="48.3882" lon="7.2934">
        <ele>777</ele>
        <time>2020-06-24T10:08:00.171Z</time>
      </trkpt>
      <trkpt lat="48.38821" lon="7.29339">
        <ele>777</ele>
        <time>2020-06-24T10:08:01.172Z</time>
      </trkpt>
      <trkpt lat="48.38822" lon="7.29337">
        <ele>777</ele>
        <time>2020-06-24T10:08:02.171Z</time>
      </trkpt>
      <trkpt lat="48.38824" lon="7.29336">
        <ele>778</ele>
        <time>2020-06-24T10:08:03.172Z</time>
      </trkpt>
      <trkpt lat="48.38825" lon="7.29334">
        <ele>778</ele>
        <time>2020-06-24T10:08:04.172Z</time>
      </trkpt>
      <trkpt lat="48.38827" lon="7.29333">
        <ele>778</ele>
        <time>2020-06-24T10:08:05.172Z</time>
      </trkpt>
      <trkpt lat="48.38829" lon="7.2933">
        <ele>779</ele>
        <time>2020-06-24T10:08:06.172Z</time>
      </trkpt>
      <trkpt lat="48.38829" lon="7.29329">
        <ele>779</ele>
        <time>2020-06-24T10:08:07.172Z</time>
      </trkpt>
      <trkpt lat="48.3883" lon="7.29329">
        <ele>780</ele>
        <time>2020-06-24T10:08:08.171Z</time>
      </trkpt>
      <trkpt lat="48.38831" lon="7.29328">
        <ele>781</ele>
        <time>2020-06-24T10:08:09.172Z</time>
      </trkpt>
      <trkpt lat="48.38833" lon="7.29327">
        <ele>781</ele>
        <time>2020-06-24T10:08:10.172Z</time>
      </trkpt>
      <trkpt lat="48.38834" lon="7.29325">
        <ele>781</ele>
        <time>2020-06-24T10:08:11.172Z</time>
      </trkpt>
      <trkpt lat="48.38836" lon="7.29324">
        <ele>782</ele>
        <time>2020-06-24T10:08:12.171Z</time>
      </trkpt>
      <trkpt lat="48.38837" lon="7.29323">
        <ele>782</ele>
        <time>2020-06-24T10:08:13.172Z</time>
      </trkpt>
      <trkpt lat="48.38839" lon="7.29323">
        <ele>782</ele>
        <time>2020-06-24T10:08:14.171Z</time>
      </trkpt>
      <trkpt lat="48.38841" lon="7.29323">
        <ele>782</ele>
        <time>2020-06-24T10:08:15.172Z</time>
      </trkpt>
      <trkpt lat="48.38843" lon="7.29322">
        <ele>782</ele>
        <time>2020-06-24T10:08:16.172Z</time>
      </trkpt>
      <trkpt lat="48.38844" lon="7.2932">
        <ele>782</ele>
        <time>2020-06-24T10:08:17.171Z</time>
      </trkpt>
      <trkpt lat="48.38845" lon="7.29319">
        <ele>782</ele>
        <time>2020-06-24T10:08:18.172Z</time>
      </trkpt>
      <trkpt lat="48.38846" lon="7.29317">
        <ele>782</ele>
        <time>2020-06-24T10:08:19.172Z</time>
      </trkpt>
      <trkpt lat="48.38847" lon="7.29316">
        <ele>782</ele>
        <time>2020-06-24T10:08:20.172Z</time>
      </trkpt>
      <trkpt lat="48.38848" lon="7.29315">
        <ele>782</ele>
        <time>2020-06-24T10:08:21.172Z</time>
      </trkpt>
      <trkpt lat="48.38849" lon="7.29315">
        <ele>782</ele>
        <time>2020-06-24T10:08:22.172Z</time>
      </trkpt>
      <trkpt lat="48.3885" lon="7.29314">
        <ele>783</ele>
        <time>2020-06-24T10:08:23.172Z</time>
      </trkpt>
      <trkpt lat="48.38851" lon="7.29312">
        <ele>783</ele>
        <time>2020-06-24T10:08:24.172Z</time>
      </trkpt>
      <trkpt lat="48.38852" lon="7.29311">
        <ele>784</ele>
        <time>2020-06-24T10:08:25.172Z</time>
      </trkpt>
      <trkpt lat="48.38853" lon="7.2931">
        <ele>784</ele>
        <time>2020-06-24T10:08:26.172Z</time>
      </trkpt>
      <trkpt lat="48.38855" lon="7.29309">
        <ele>784</ele>
        <time>2020-06-24T10:08:27.172Z</time>
      </trkpt>
      <trkpt lat="48.38856" lon="7.29308">
        <ele>785</ele>
        <time>2020-06-24T10:08:28.171Z</time>
      </trkpt>
      <trkpt lat="48.38856" lon="7.29308">
        <ele>785</ele>
        <time>2020-06-24T10:08:29.172Z</time>
      </trkpt>
      <trkpt lat="48.38857" lon="7.29307">
        <ele>785</ele>
        <time>2020-06-24T10:08:30.171Z</time>
      </trkpt>
      <trkpt lat="48.38857" lon="7.29306">
        <ele>785</ele>
        <time>2020-06-24T10:08:31.171Z</time>
      </trkpt>
      <trkpt lat="48.38858" lon="7.29304">
        <ele>785</ele>
        <time>2020-06-24T10:08:32.171Z</time>
      </trkpt>
      <trkpt lat="48.38859" lon="7.29303">
        <ele>786</ele>
        <time>2020-06-24T10:08:33.171Z</time>
      </trkpt>
      <trkpt lat="48.38861" lon="7.29301">
        <ele>786</ele>
        <time>2020-06-24T10:08:34.171Z</time>
      </trkpt>
      <trkpt lat="48.38861" lon="7.293">
        <ele>786</ele>
        <time>2020-06-24T10:08:35.171Z</time>
      </trkpt>
      <trkpt lat="48.38861" lon="7.29299">
        <ele>786</ele>
        <time>2020-06-24T10:08:36.171Z</time>
      </trkpt>
      <trkpt lat="48.38861" lon="7.29298">
        <ele>786</ele>
        <time>2020-06-24T10:08:37.172Z</time>
      </trkpt>
      <trkpt lat="48.38861" lon="7.29296">
        <ele>786</ele>
        <time>2020-06-24T10:08:38.172Z</time>
      </trkpt>
      <trkpt lat="48.38862" lon="7.29295">
        <ele>786</ele>
        <time>2020-06-24T10:08:39.172Z</time>
      </trkpt>
      <trkpt lat="48.38862" lon="7.29294">
        <ele>786</ele>
        <time>2020-06-24T10:08:40.172Z</time>
      </trkpt>
      <trkpt lat="48.38863" lon="7.29293">
        <ele>786</ele>
        <time>2020-06-24T10:08:41.172Z</time>
      </trkpt>
      <trkpt lat="48.38864" lon="7.29291">
        <ele>786</ele>
        <time>2020-06-24T10:08:42.171Z</time>
      </trkpt>
      <trkpt lat="48.38866" lon="7.2929">
        <ele>785</ele>
        <time>2020-06-24T10:08:43.172Z</time>
      </trkpt>
      <trkpt lat="48.38867" lon="7.29289">
        <ele>785</ele>
        <time>2020-06-24T10:08:44.172Z</time>
      </trkpt>
      <trkpt lat="48.38868" lon="7.29287">
        <ele>785</ele>
        <time>2020-06-24T10:08:45.172Z</time>
      </trkpt>
      <trkpt lat="48.38869" lon="7.29286">
        <ele>785</ele>
        <time>2020-06-24T10:08:46.172Z</time>
      </trkpt>
      <trkpt lat="48.38871" lon="7.29285">
        <ele>785</ele>
        <time>2020-06-24T10:08:47.172Z</time>
      </trkpt>
      <trkpt lat="48.38873" lon="7.29285">
        <ele>785</ele>
        <time>2020-06-24T10:08:48.172Z</time>
      </trkpt>
      <trkpt lat="48.38875" lon="7.29284">
        <ele>785</ele>
        <time>2020-06-24T10:08:49.172Z</time>
      </trkpt>
      <trkpt lat="48.38877" lon="7.29284">
        <ele>785</ele>
        <time>2020-06-24T10:08:50.172Z</time>
      </trkpt>
      <trkpt lat="48.38878" lon="7.29284">
        <ele>785</ele>
        <time>2020-06-24T10:08:51.172Z</time>
      </trkpt>
      <trkpt lat="48.3888" lon="7.29284">
        <ele>785</ele>
        <time>2020-06-24T10:08:52.171Z</time>
      </trkpt>
      <trkpt lat="48.38881" lon="7.29284">
        <ele>786</ele>
        <time>2020-06-24T10:08:53.171Z</time>
      </trkpt>
      <trkpt lat="48.38883" lon="7.29284">
        <ele>786</ele>
        <time>2020-06-24T10:08:54.172Z</time>
      </trkpt>
      <trkpt lat="48.38885" lon="7.29283">
        <ele>786</ele>
        <time>2020-06-24T10:08:55.172Z</time>
      </trkpt>
      <trkpt lat="48.38888" lon="7.29283">
        <ele>787</ele>
        <time>2020-06-24T10:08:56.171Z</time>
      </trkpt>
      <trkpt lat="48.38889" lon="7.29283">
        <ele>787</ele>
        <time>2020-06-24T10:08:57.172Z</time>
      </trkpt>
      <trkpt lat="48.38891" lon="7.29283">
        <ele>788</ele>
        <time>2020-06-24T10:08:58.172Z</time>
      </trkpt>
      <trkpt lat="48.38893" lon="7.29283">
        <ele>788</ele>
        <time>2020-06-24T10:08:59.172Z</time>
      </trkpt>
      <trkpt lat="48.38894" lon="7.29284">
        <ele>788</ele>
        <time>2020-06-24T10:09:00.172Z</time>
      </trkpt>
      <trkpt lat="48.38896" lon="7.29284">
        <ele>789</ele>
        <time>2020-06-24T10:09:01.171Z</time>
      </trkpt>
      <trkpt lat="48.38898" lon="7.29284">
        <ele>789</ele>
        <time>2020-06-24T10:09:02.172Z</time>
      </trkpt>
      <trkpt lat="48.38899" lon="7.29284">
        <ele>789</ele>
        <time>2020-06-24T10:09:03.171Z</time>
      </trkpt>
      <trkpt lat="48.38901" lon="7.29284">
        <ele>789</ele>
        <time>2020-06-24T10:09:04.172Z</time>
      </trkpt>
      <trkpt lat="48.38902" lon="7.29284">
        <ele>789</ele>
        <time>2020-06-24T10:09:05.172Z</time>
      </trkpt>
      <trkpt lat="48.38903" lon="7.29284">
        <ele>790</ele>
        <time>2020-06-24T10:09:06.172Z</time>
      </trkpt>
      <trkpt lat="48.38905" lon="7.29285">
        <ele>790</ele>
        <time>2020-06-24T10:09:07.172Z</time>
      </trkpt>
      <trkpt lat="48.38906" lon="7.29285">
        <ele>790</ele>
        <time>2020-06-24T10:09:08.172Z</time>
      </trkpt>
      <trkpt lat="48.38908" lon="7.29286">
        <ele>789</ele>
        <time>2020-06-24T10:09:09.171Z</time>
      </trkpt>
      <trkpt lat="48.38909" lon="7.29286">
        <ele>789</ele>
        <time>2020-06-24T10:09:10.171Z</time>
      </trkpt>
      <trkpt lat="48.38911" lon="7.29286">
        <ele>789</ele>
        <time>2020-06-24T10:09:11.172Z</time>
      </trkpt>
      <trkpt lat="48.38912" lon="7.29287">
        <ele>789</ele>
        <time>2020-06-24T10:09:12.172Z</time>
      </trkpt>
      <trkpt lat="48.38914" lon="7.29287">
        <ele>788</ele>
        <time>2020-06-24T10:09:13.172Z</time>
      </trkpt>
      <trkpt lat="48.38915" lon="7.29287">
        <ele>788</ele>
        <time>2020-06-24T10:09:14.172Z</time>
      </trkpt>
      <trkpt lat="48.38918" lon="7.29287">
        <ele>788</ele>
        <time>2020-06-24T10:09:15.172Z</time>
      </trkpt>
      <trkpt lat="48.38921" lon="7.29288">
        <ele>787</ele>
        <time>2020-06-24T10:09:16.171Z</time>
      </trkpt>
      <trkpt lat="48.38923" lon="7.29288">
        <ele>787</ele>
        <time>2020-06-24T10:09:17.172Z</time>
      </trkpt>
      <trkpt lat="48.38925" lon="7.29289">
        <ele>787</ele>
        <time>2020-06-24T10:09:18.172Z</time>
      </trkpt>
      <trkpt lat="48.38926" lon="7.29289">
        <ele>787</ele>
        <time>2020-06-24T10:09:19.172Z</time>
      </trkpt>
      <trkpt lat="48.38928" lon="7.2929">
        <ele>787</ele>
        <time>2020-06-24T10:09:20.172Z</time>
      </trkpt>
      <trkpt lat="48.38929" lon="7.29288">
        <ele>787</ele>
        <time>2020-06-24T10:09:21.171Z</time>
      </trkpt>
      <trkpt lat="48.38931" lon="7.29288">
        <ele>787</ele>
        <time>2020-06-24T10:09:22.172Z</time>
      </trkpt>
      <trkpt lat="48.38932" lon="7.29288">
        <ele>788</ele>
        <time>2020-06-24T10:09:23.172Z</time>
      </trkpt>
      <trkpt lat="48.38934" lon="7.29289">
        <ele>788</ele>
        <time>2020-06-24T10:09:24.172Z</time>
      </trkpt>
      <trkpt lat="48.38935" lon="7.2929">
        <ele>788</ele>
        <time>2020-06-24T10:09:25.171Z</time>
      </trkpt>
      <trkpt lat="48.38937" lon="7.2929">
        <ele>788</ele>
        <time>2020-06-24T10:09:26.172Z</time>
      </trkpt>
      <trkpt lat="48.38939" lon="7.29291">
        <ele>789</ele>
        <time>2020-06-24T10:09:27.172Z</time>
      </trkpt>
      <trkpt lat="48.38941" lon="7.29292">
        <ele>789</ele>
        <time>2020-06-24T10:09:28.172Z</time>
      </trkpt>
      <trkpt lat="48.38942" lon="7.29293">
        <ele>789</ele>
        <time>2020-06-24T10:09:29.172Z</time>
      </trkpt>
      <trkpt lat="48.38943" lon="7.29294">
        <ele>789</ele>
        <time>2020-06-24T10:09:30.171Z</time>
      </trkpt>
      <trkpt lat="48.38944" lon="7.29295">
        <ele>789</ele>
        <time>2020-06-24T10:09:31.171Z</time>
      </trkpt>
      <trkpt lat="48.38945" lon="7.29296">
        <ele>788</ele>
        <time>2020-06-24T10:09:32.172Z</time>
      </trkpt>
      <trkpt lat="48.38946" lon="7.29296">
        <ele>788</ele>
        <time>2020-06-24T10:09:33.172Z</time>
      </trkpt>
      <trkpt lat="48.38948" lon="7.29297">
        <ele>788</ele>
        <time>2020-06-24T10:09:34.171Z</time>
      </trkpt>
      <trkpt lat="48.38949" lon="7.29298">
        <ele>788</ele>
        <time>2020-06-24T10:09:35.171Z</time>
      </trkpt>
      <trkpt lat="48.3895" lon="7.29298">
        <ele>788</ele>
        <time>2020-06-24T10:09:36.172Z</time>
      </trkpt>
      <trkpt lat="48.38951" lon="7.29299">
        <ele>788</ele>
        <time>2020-06-24T10:09:37.172Z</time>
      </trkpt>
      <trkpt lat="48.38953" lon="7.293">
        <ele>788</ele>
        <time>2020-06-24T10:09:38.172Z</time>
      </trkpt>
      <trkpt lat="48.38955" lon="7.293">
        <ele>788</ele>
        <time>2020-06-24T10:09:39.172Z</time>
      </trkpt>
      <trkpt lat="48.38957" lon="7.293">
        <ele>788</ele>
        <time>2020-06-24T10:09:40.172Z</time>
      </trkpt>
      <trkpt lat="48.38958" lon="7.293">
        <ele>788</ele>
        <time>2020-06-24T10:09:41.172Z</time>
      </trkpt>
      <trkpt lat="48.3896" lon="7.293">
        <ele>788</ele>
        <time>2020-06-24T10:09:42.172Z</time>
      </trkpt>
      <trkpt lat="48.38962" lon="7.293">
        <ele>788</ele>
        <time>2020-06-24T10:09:43.172Z</time>
      </trkpt>
      <trkpt lat="48.38962" lon="7.293">
        <ele>787</ele>
        <time>2020-06-24T10:09:44.172Z</time>
      </trkpt>
      <trkpt lat="48.38964" lon="7.293">
        <ele>787</ele>
        <time>2020-06-24T10:09:45.172Z</time>
      </trkpt>
      <trkpt lat="48.38966" lon="7.293">
        <ele>787</ele>
        <time>2020-06-24T10:09:46.172Z</time>
      </trkpt>
      <trkpt lat="48.38968" lon="7.29301">
        <ele>787</ele>
        <time>2020-06-24T10:09:47.172Z</time>
      </trkpt>
      <trkpt lat="48.3897" lon="7.29301">
        <ele>787</ele>
        <time>2020-06-24T10:09:48.172Z</time>
      </trkpt>
      <trkpt lat="48.38971" lon="7.29302">
        <ele>787</ele>
        <time>2020-06-24T10:09:49.171Z</time>
      </trkpt>
      <trkpt lat="48.38973" lon="7.29302">
        <ele>787</ele>
        <time>2020-06-24T10:09:50.171Z</time>
      </trkpt>
      <trkpt lat="48.38975" lon="7.29301">
        <ele>786</ele>
        <time>2020-06-24T10:09:51.172Z</time>
      </trkpt>
      <trkpt lat="48.38977" lon="7.29301">
        <ele>785</ele>
        <time>2020-06-24T10:09:52.172Z</time>
      </trkpt>
      <trkpt lat="48.38979" lon="7.29302">
        <ele>784</ele>
        <time>2020-06-24T10:09:53.172Z</time>
      </trkpt>
      <trkpt lat="48.3898" lon="7.29302">
        <ele>784</ele>
        <time>2020-06-24T10:09:54.171Z</time>
      </trkpt>
      <trkpt lat="48.38981" lon="7.29302">
        <ele>783</ele>
        <time>2020-06-24T10:09:55.171Z</time>
      </trkpt>
      <trkpt lat="48.38983" lon="7.29302">
        <ele>783</ele>
        <time>2020-06-24T10:09:56.172Z</time>
      </trkpt>
      <trkpt lat="48.38984" lon="7.29302">
        <ele>783</ele>
        <time>2020-06-24T10:09:57.171Z</time>
      </trkpt>
      <trkpt lat="48.38986" lon="7.29303">
        <ele>783</ele>
        <time>2020-06-24T10:09:58.172Z</time>
      </trkpt>
      <trkpt lat="48.38987" lon="7.29303">
        <ele>783</ele>
        <time>2020-06-24T10:09:59.172Z</time>
      </trkpt>
      <trkpt lat="48.38988" lon="7.29303">
        <ele>783</ele>
        <time>2020-06-24T10:10:00.172Z</time>
      </trkpt>
      <trkpt lat="48.38988" lon="7.29304">
        <ele>783</ele>
        <time>2020-06-24T10:10:01.172Z</time>
      </trkpt>
      <trkpt lat="48.38988" lon="7.29303">
        <ele>783</ele>
        <time>2020-06-24T10:10:02.172Z</time>
      </trkpt>
      <trkpt lat="48.38988" lon="7.29302">
        <ele>783</ele>
        <time>2020-06-24T10:10:03.171Z</time>
      </trkpt>
      <trkpt lat="48.3899" lon="7.29301">
        <ele>783</ele>
        <time>2020-06-24T10:10:04.172Z</time>
      </trkpt>
      <trkpt lat="48.38991" lon="7.293">
        <ele>782</ele>
        <time>2020-06-24T10:10:05.171Z</time>
      </trkpt>
      <trkpt lat="48.38992" lon="7.29299">
        <ele>782</ele>
        <time>2020-06-24T10:10:06.172Z</time>
      </trkpt>
      <trkpt lat="48.38994" lon="7.29299">
        <ele>782</ele>
        <time>2020-06-24T10:10:07.172Z</time>
      </trkpt>
      <trkpt lat="48.38995" lon="7.29299">
        <ele>782</ele>
        <time>2020-06-24T10:10:08.172Z</time>
      </trkpt>
      <trkpt lat="48.38997" lon="7.29299">
        <ele>782</ele>
        <time>2020-06-24T10:10:09.171Z</time>
      </trkpt>
      <trkpt lat="48.38999" lon="7.29299">
        <ele>782</ele>
        <time>2020-06-24T10:10:10.172Z</time>
      </trkpt>
      <trkpt lat="48.39001" lon="7.29299">
        <ele>782</ele>
        <time>2020-06-24T10:10:11.172Z</time>
      </trkpt>
      <trkpt lat="48.39002" lon="7.29299">
        <ele>782</ele>
        <time>2020-06-24T10:10:12.171Z</time>
      </trkpt>
      <trkpt lat="48.39004" lon="7.29299">
        <ele>781</ele>
        <time>2020-06-24T10:10:13.172Z</time>
      </trkpt>
      <trkpt lat="48.39005" lon="7.29299">
        <ele>781</ele>
        <time>2020-06-24T10:10:14.172Z</time>
      </trkpt>
      <trkpt lat="48.39006" lon="7.29299">
        <ele>781</ele>
        <time>2020-06-24T10:10:15.171Z</time>
      </trkpt>
      <trkpt lat="48.39007" lon="7.29298">
        <ele>781</ele>
        <time>2020-06-24T10:10:16.172Z</time>
      </trkpt>
      <trkpt lat="48.39009" lon="7.29298">
        <ele>781</ele>
        <time>2020-06-24T10:10:17.172Z</time>
      </trkpt>
      <trkpt lat="48.3901" lon="7.29298">
        <ele>781</ele>
        <time>2020-06-24T10:10:18.171Z</time>
      </trkpt>
      <trkpt lat="48.39011" lon="7.29298">
        <ele>781</ele>
        <time>2020-06-24T10:10:19.171Z</time>
      </trkpt>
      <trkpt lat="48.39013" lon="7.29298">
        <ele>781</ele>
        <time>2020-06-24T10:10:20.172Z</time>
      </trkpt>
      <trkpt lat="48.39015" lon="7.29298">
        <ele>781</ele>
        <time>2020-06-24T10:10:21.172Z</time>
      </trkpt>
      <trkpt lat="48.39018" lon="7.29298">
        <ele>781</ele>
        <time>2020-06-24T10:10:22.172Z</time>
      </trkpt>
      <trkpt lat="48.3902" lon="7.29298">
        <ele>782</ele>
        <time>2020-06-24T10:10:23.172Z</time>
      </trkpt>
      <trkpt lat="48.39023" lon="7.29298">
        <ele>782</ele>
        <time>2020-06-24T10:10:24.172Z</time>
      </trkpt>
      <trkpt lat="48.39025" lon="7.29297">
        <ele>782</ele>
        <time>2020-06-24T10:10:25.171Z</time>
      </trkpt>
      <trkpt lat="48.39027" lon="7.29296">
        <ele>782</ele>
        <time>2020-06-24T10:10:26.172Z</time>
      </trkpt>
      <trkpt lat="48.39029" lon="7.29296">
        <ele>782</ele>
        <time>2020-06-24T10:10:27.171Z</time>
      </trkpt>
      <trkpt lat="48.39031" lon="7.29296">
        <ele>782</ele>
        <time>2020-06-24T10:10:28.171Z</time>
      </trkpt>
      <trkpt lat="48.39033" lon="7.29296">
        <ele>782</ele>
        <time>2020-06-24T10:10:29.172Z</time>
      </trkpt>
      <trkpt lat="48.39035" lon="7.29296">
        <ele>782</ele>
        <time>2020-06-24T10:10:30.172Z</time>
      </trkpt>
      <trkpt lat="48.39037" lon="7.29295">
        <ele>782</ele>
        <time>2020-06-24T10:10:31.172Z</time>
      </trkpt>
      <trkpt lat="48.39039" lon="7.29295">
        <ele>782</ele>
        <time>2020-06-24T10:10:32.172Z</time>
      </trkpt>
      <trkpt lat="48.39042" lon="7.29295">
        <ele>782</ele>
        <time>2020-06-24T10:10:33.172Z</time>
      </trkpt>
      <trkpt lat="48.39044" lon="7.29294">
        <ele>782</ele>
        <time>2020-06-24T10:10:34.172Z</time>
      </trkpt>
      <trkpt lat="48.39045" lon="7.29294">
        <ele>783</ele>
        <time>2020-06-24T10:10:35.172Z</time>
      </trkpt>
      <trkpt lat="48.39047" lon="7.29293">
        <ele>783</ele>
        <time>2020-06-24T10:10:36.172Z</time>
      </trkpt>
      <trkpt lat="48.39048" lon="7.29292">
        <ele>783</ele>
        <time>2020-06-24T10:10:37.172Z</time>
      </trkpt>
      <trkpt lat="48.39049" lon="7.29291">
        <ele>782</ele>
        <time>2020-06-24T10:10:38.172Z</time>
      </trkpt>
      <trkpt lat="48.3905" lon="7.2929">
        <ele>782</ele>
        <time>2020-06-24T10:10:39.172Z</time>
      </trkpt>
      <trkpt lat="48.39051" lon="7.29289">
        <ele>782</ele>
        <time>2020-06-24T10:10:40.171Z</time>
      </trkpt>
      <trkpt lat="48.39052" lon="7.29288">
        <ele>782</ele>
        <time>2020-06-24T10:10:41.171Z</time>
      </trkpt>
      <trkpt lat="48.39053" lon="7.29287">
        <ele>782</ele>
        <time>2020-06-24T10:10:42.172Z</time>
      </trkpt>
      <trkpt lat="48.39055" lon="7.29286">
        <ele>783</ele>
        <time>2020-06-24T10:10:43.172Z</time>
      </trkpt>
      <trkpt lat="48.39056" lon="7.29285">
        <ele>783</ele>
        <time>2020-06-24T10:10:44.172Z</time>
      </trkpt>
      <trkpt lat="48.39057" lon="7.29283">
        <ele>783</ele>
        <time>2020-06-24T10:10:45.172Z</time>
      </trkpt>
      <trkpt lat="48.39059" lon="7.29282">
        <ele>783</ele>
        <time>2020-06-24T10:10:46.171Z</time>
      </trkpt>
      <trkpt lat="48.3906" lon="7.29281">
        <ele>783</ele>
        <time>2020-06-24T10:10:47.172Z</time>
      </trkpt>
      <trkpt lat="48.39061" lon="7.2928">
        <ele>783</ele>
        <time>2020-06-24T10:10:48.172Z</time>
      </trkpt>
      <trkpt lat="48.39062" lon="7.29279">
        <ele>783</ele>
        <time>2020-06-24T10:10:49.172Z</time>
      </trkpt>
      <trkpt lat="48.39063" lon="7.29279">
        <ele>783</ele>
        <time>2020-06-24T10:10:50.172Z</time>
      </trkpt>
      <trkpt lat="48.39065" lon="7.29278">
        <ele>783</ele>
        <time>2020-06-24T10:10:51.171Z</time>
      </trkpt>
      <trkpt lat="48.39066" lon="7.29276">
        <ele>783</ele>
        <time>2020-06-24T10:10:52.172Z</time>
      </trkpt>
      <trkpt lat="48.39068" lon="7.29275">
        <ele>783</ele>
        <time>2020-06-24T10:10:53.171Z</time>
      </trkpt>
      <trkpt lat="48.3907" lon="7.29274">
        <ele>783</ele>
        <time>2020-06-24T10:10:54.172Z</time>
      </trkpt>
      <trkpt lat="48.39071" lon="7.29273">
        <ele>784</ele>
        <time>2020-06-24T10:10:55.172Z</time>
      </trkpt>
      <trkpt lat="48.39072" lon="7.29272">
        <ele>784</ele>
        <time>2020-06-24T10:10:56.172Z</time>
      </trkpt>
      <trkpt lat="48.39074" lon="7.29272">
        <ele>784</ele>
        <time>2020-06-24T10:10:57.171Z</time>
      </trkpt>
      <trkpt lat="48.39075" lon="7.29271">
        <ele>784</ele>
        <time>2020-06-24T10:10:58.172Z</time>
      </trkpt>
      <trkpt lat="48.39077" lon="7.2927">
        <ele>783</ele>
        <time>2020-06-24T10:10:59.171Z</time>
      </trkpt>
      <trkpt lat="48.39078" lon="7.29269">
        <ele>783</ele>
        <time>2020-06-24T10:11:00.172Z</time>
      </trkpt>
      <trkpt lat="48.39079" lon="7.29268">
        <ele>783</ele>
        <time>2020-06-24T10:11:01.171Z</time>
      </trkpt>
      <trkpt lat="48.3908" lon="7.29267">
        <ele>782</ele>
        <time>2020-06-24T10:11:02.171Z</time>
      </trkpt>
      <trkpt lat="48.3908" lon="7.29265">
        <ele>782</ele>
        <time>2020-06-24T10:11:03.171Z</time>
      </trkpt>
      <trkpt lat="48.39082" lon="7.29264">
        <ele>782</ele>
        <time>2020-06-24T10:11:04.172Z</time>
      </trkpt>
      <trkpt lat="48.39083" lon="7.29263">
        <ele>782</ele>
        <time>2020-06-24T10:11:05.172Z</time>
      </trkpt>
      <trkpt lat="48.39085" lon="7.29262">
        <ele>783</ele>
        <time>2020-06-24T10:11:06.172Z</time>
      </trkpt>
      <trkpt lat="48.39087" lon="7.29261">
        <ele>783</ele>
        <time>2020-06-24T10:11:07.172Z</time>
      </trkpt>
      <trkpt lat="48.39088" lon="7.2926">
        <ele>783</ele>
        <time>2020-06-24T10:11:08.171Z</time>
      </trkpt>
      <trkpt lat="48.39089" lon="7.2926">
        <ele>783</ele>
        <time>2020-06-24T10:11:09.171Z</time>
      </trkpt>
      <trkpt lat="48.39091" lon="7.2926">
        <ele>784</ele>
        <time>2020-06-24T10:11:10.172Z</time>
      </trkpt>
      <trkpt lat="48.39092" lon="7.2926">
        <ele>784</ele>
        <time>2020-06-24T10:11:11.172Z</time>
      </trkpt>
      <trkpt lat="48.39093" lon="7.29259">
        <ele>784</ele>
        <time>2020-06-24T10:11:12.172Z</time>
      </trkpt>
      <trkpt lat="48.39095" lon="7.29258">
        <ele>785</ele>
        <time>2020-06-24T10:11:13.172Z</time>
      </trkpt>
      <trkpt lat="48.39097" lon="7.29258">
        <ele>785</ele>
        <time>2020-06-24T10:11:14.171Z</time>
      </trkpt>
      <trkpt lat="48.39099" lon="7.29256">
        <ele>786</ele>
        <time>2020-06-24T10:11:15.172Z</time>
      </trkpt>
      <trkpt lat="48.39102" lon="7.29255">
        <ele>786</ele>
        <time>2020-06-24T10:11:16.171Z</time>
      </trkpt>
      <trkpt lat="48.39104" lon="7.29255">
        <ele>787</ele>
        <time>2020-06-24T10:11:17.172Z</time>
      </trkpt>
      <trkpt lat="48.39106" lon="7.29254">
        <ele>787</ele>
        <time>2020-06-24T10:11:18.171Z</time>
      </trkpt>
      <trkpt lat="48.39107" lon="7.29253">
        <ele>787</ele>
        <time>2020-06-24T10:11:19.172Z</time>
      </trkpt>
      <trkpt lat="48.39108" lon="7.29252">
        <ele>787</ele>
        <time>2020-06-24T10:11:20.172Z</time>
      </trkpt>
      <trkpt lat="48.3911" lon="7.29252">
        <ele>787</ele>
        <time>2020-06-24T10:11:21.172Z</time>
      </trkpt>
      <trkpt lat="48.39111" lon="7.29251">
        <ele>788</ele>
        <time>2020-06-24T10:11:22.172Z</time>
      </trkpt>
      <trkpt lat="48.39112" lon="7.29251">
        <ele>788</ele>
        <time>2020-06-24T10:11:23.172Z</time>
      </trkpt>
      <trkpt lat="48.39113" lon="7.29251">
        <ele>789</ele>
        <time>2020-06-24T10:11:24.172Z</time>
      </trkpt>
      <trkpt lat="48.39114" lon="7.2925">
        <ele>789</ele>
        <time>2020-06-24T10:11:25.171Z</time>
      </trkpt>
      <trkpt lat="48.39116" lon="7.2925">
        <ele>790</ele>
        <time>2020-06-24T10:11:26.172Z</time>
      </trkpt>
      <trkpt lat="48.39117" lon="7.29249">
        <ele>790</ele>
        <time>2020-06-24T10:11:27.172Z</time>
      </trkpt>
      <trkpt lat="48.39118" lon="7.29248">
        <ele>790</ele>
        <time>2020-06-24T10:11:28.172Z</time>
      </trkpt>
      <trkpt lat="48.39121" lon="7.29248">
        <ele>790</ele>
        <time>2020-06-24T10:11:29.171Z</time>
      </trkpt>
      <trkpt lat="48.39122" lon="7.29248">
        <ele>789</ele>
        <time>2020-06-24T10:11:30.172Z</time>
      </trkpt>
      <trkpt lat="48.39124" lon="7.29248">
        <ele>789</ele>
        <time>2020-06-24T10:11:31.171Z</time>
      </trkpt>
      <trkpt lat="48.39125" lon="7.29247">
        <ele>789</ele>
        <time>2020-06-24T10:11:32.172Z</time>
      </trkpt>
      <trkpt lat="48.39126" lon="7.29246">
        <ele>788</ele>
        <time>2020-06-24T10:11:33.171Z</time>
      </trkpt>
      <trkpt lat="48.39128" lon="7.29244">
        <ele>788</ele>
        <time>2020-06-24T10:11:34.172Z</time>
      </trkpt>
      <trkpt lat="48.39129" lon="7.29243">
        <ele>788</ele>
        <time>2020-06-24T10:11:35.172Z</time>
      </trkpt>
      <trkpt lat="48.39131" lon="7.29241">
        <ele>788</ele>
        <time>2020-06-24T10:11:36.171Z</time>
      </trkpt>
      <trkpt lat="48.39132" lon="7.29238">
        <ele>788</ele>
        <time>2020-06-24T10:11:37.172Z</time>
      </trkpt>
      <trkpt lat="48.39133" lon="7.29236">
        <ele>789</ele>
        <time>2020-06-24T10:11:38.172Z</time>
      </trkpt>
      <trkpt lat="48.39133" lon="7.29234">
        <ele>789</ele>
        <time>2020-06-24T10:11:39.171Z</time>
      </trkpt>
      <trkpt lat="48.39134" lon="7.29233">
        <ele>789</ele>
        <time>2020-06-24T10:11:40.172Z</time>
      </trkpt>
      <trkpt lat="48.39135" lon="7.29232">
        <ele>790</ele>
        <time>2020-06-24T10:11:41.172Z</time>
      </trkpt>
      <trkpt lat="48.39137" lon="7.2923">
        <ele>790</ele>
        <time>2020-06-24T10:11:42.172Z</time>
      </trkpt>
      <trkpt lat="48.39138" lon="7.29229">
        <ele>791</ele>
        <time>2020-06-24T10:11:43.172Z</time>
      </trkpt>
      <trkpt lat="48.39138" lon="7.29226">
        <ele>791</ele>
        <time>2020-06-24T10:11:44.171Z</time>
      </trkpt>
      <trkpt lat="48.39139" lon="7.29223">
        <ele>792</ele>
        <time>2020-06-24T10:11:45.172Z</time>
      </trkpt>
      <trkpt lat="48.3914" lon="7.2922">
        <ele>792</ele>
        <time>2020-06-24T10:11:46.172Z</time>
      </trkpt>
      <trkpt lat="48.3914" lon="7.29216">
        <ele>793</ele>
        <time>2020-06-24T10:11:47.172Z</time>
      </trkpt>
      <trkpt lat="48.3914" lon="7.29213">
        <ele>793</ele>
        <time>2020-06-24T10:11:48.172Z</time>
      </trkpt>
      <trkpt lat="48.3914" lon="7.29211">
        <ele>794</ele>
        <time>2020-06-24T10:11:49.171Z</time>
      </trkpt>
      <trkpt lat="48.3914" lon="7.2921">
        <ele>794</ele>
        <time>2020-06-24T10:11:50.171Z</time>
      </trkpt>
      <trkpt lat="48.39141" lon="7.29208">
        <ele>794</ele>
        <time>2020-06-24T10:11:51.172Z</time>
      </trkpt>
      <trkpt lat="48.39141" lon="7.29205">
        <ele>794</ele>
        <time>2020-06-24T10:11:52.172Z</time>
      </trkpt>
      <trkpt lat="48.39141" lon="7.29203">
        <ele>795</ele>
        <time>2020-06-24T10:11:53.172Z</time>
      </trkpt>
      <trkpt lat="48.39141" lon="7.292">
        <ele>795</ele>
        <time>2020-06-24T10:11:54.171Z</time>
      </trkpt>
      <trkpt lat="48.39142" lon="7.29198">
        <ele>795</ele>
        <time>2020-06-24T10:11:55.172Z</time>
      </trkpt>
      <trkpt lat="48.39142" lon="7.29196">
        <ele>795</ele>
        <time>2020-06-24T10:11:56.172Z</time>
      </trkpt>
      <trkpt lat="48.39142" lon="7.29193">
        <ele>795</ele>
        <time>2020-06-24T10:11:57.172Z</time>
      </trkpt>
      <trkpt lat="48.39142" lon="7.2919">
        <ele>795</ele>
        <time>2020-06-24T10:11:58.171Z</time>
      </trkpt>
      <trkpt lat="48.39142" lon="7.29187">
        <ele>795</ele>
        <time>2020-06-24T10:11:59.172Z</time>
      </trkpt>
      <trkpt lat="48.39143" lon="7.29183">
        <ele>795</ele>
        <time>2020-06-24T10:12:00.172Z</time>
      </trkpt>
      <trkpt lat="48.39143" lon="7.29179">
        <ele>795</ele>
        <time>2020-06-24T10:12:01.172Z</time>
      </trkpt>
      <trkpt lat="48.39144" lon="7.29177">
        <ele>795</ele>
        <time>2020-06-24T10:12:02.172Z</time>
      </trkpt>
      <trkpt lat="48.39144" lon="7.29174">
        <ele>795</ele>
        <time>2020-06-24T10:12:03.172Z</time>
      </trkpt>
      <trkpt lat="48.39144" lon="7.29172">
        <ele>795</ele>
        <time>2020-06-24T10:12:04.172Z</time>
      </trkpt>
      <trkpt lat="48.39145" lon="7.2917">
        <ele>795</ele>
        <time>2020-06-24T10:12:05.171Z</time>
      </trkpt>
      <trkpt lat="48.39146" lon="7.29167">
        <ele>795</ele>
        <time>2020-06-24T10:12:06.172Z</time>
      </trkpt>
      <trkpt lat="48.39146" lon="7.29163">
        <ele>795</ele>
        <time>2020-06-24T10:12:07.172Z</time>
      </trkpt>
      <trkpt lat="48.39145" lon="7.2916">
        <ele>795</ele>
        <time>2020-06-24T10:12:08.172Z</time>
      </trkpt>
      <trkpt lat="48.39145" lon="7.29158">
        <ele>795</ele>
        <time>2020-06-24T10:12:09.171Z</time>
      </trkpt>
      <trkpt lat="48.39146" lon="7.29157">
        <ele>795</ele>
        <time>2020-06-24T10:12:10.171Z</time>
      </trkpt>
      <trkpt lat="48.39147" lon="7.29156">
        <ele>795</ele>
        <time>2020-06-24T10:12:11.172Z</time>
      </trkpt>
      <trkpt lat="48.39147" lon="7.29155">
        <ele>795</ele>
        <time>2020-06-24T10:12:12.172Z</time>
      </trkpt>
      <trkpt lat="48.39147" lon="7.29153">
        <ele>795</ele>
        <time>2020-06-24T10:12:13.172Z</time>
      </trkpt>
      <trkpt lat="48.39148" lon="7.29151">
        <ele>795</ele>
        <time>2020-06-24T10:12:14.171Z</time>
      </trkpt>
      <trkpt lat="48.39148" lon="7.29148">
        <ele>795</ele>
        <time>2020-06-24T10:12:15.172Z</time>
      </trkpt>
      <trkpt lat="48.39149" lon="7.29146">
        <ele>795</ele>
        <time>2020-06-24T10:12:16.172Z</time>
      </trkpt>
      <trkpt lat="48.39149" lon="7.29144">
        <ele>796</ele>
        <time>2020-06-24T10:12:17.171Z</time>
      </trkpt>
      <trkpt lat="48.39149" lon="7.29142">
        <ele>796</ele>
        <time>2020-06-24T10:12:18.172Z</time>
      </trkpt>
      <trkpt lat="48.3915" lon="7.2914">
        <ele>796</ele>
        <time>2020-06-24T10:12:19.171Z</time>
      </trkpt>
      <trkpt lat="48.39151" lon="7.29139">
        <ele>796</ele>
        <time>2020-06-24T10:12:20.172Z</time>
      </trkpt>
      <trkpt lat="48.39152" lon="7.29137">
        <ele>796</ele>
        <time>2020-06-24T10:12:21.172Z</time>
      </trkpt>
      <trkpt lat="48.39153" lon="7.29135">
        <ele>795</ele>
        <time>2020-06-24T10:12:22.172Z</time>
      </trkpt>
      <trkpt lat="48.39154" lon="7.29132">
        <ele>795</ele>
        <time>2020-06-24T10:12:23.172Z</time>
      </trkpt>
      <trkpt lat="48.39155" lon="7.2913">
        <ele>795</ele>
        <time>2020-06-24T10:12:24.172Z</time>
      </trkpt>
      <trkpt lat="48.39156" lon="7.29128">
        <ele>795</ele>
        <time>2020-06-24T10:12:25.172Z</time>
      </trkpt>
      <trkpt lat="48.39157" lon="7.29127">
        <ele>795</ele>
        <time>2020-06-24T10:12:26.171Z</time>
      </trkpt>
      <trkpt lat="48.39158" lon="7.29125">
        <ele>795</ele>
        <time>2020-06-24T10:12:27.172Z</time>
      </trkpt>
      <trkpt lat="48.39159" lon="7.29124">
        <ele>795</ele>
        <time>2020-06-24T10:12:28.172Z</time>
      </trkpt>
      <trkpt lat="48.3916" lon="7.29122">
        <ele>795</ele>
        <time>2020-06-24T10:12:29.172Z</time>
      </trkpt>
      <trkpt lat="48.39162" lon="7.29119">
        <ele>794</ele>
        <time>2020-06-24T10:12:30.171Z</time>
      </trkpt>
      <trkpt lat="48.39163" lon="7.29116">
        <ele>794</ele>
        <time>2020-06-24T10:12:31.171Z</time>
      </trkpt>
      <trkpt lat="48.39165" lon="7.29113">
        <ele>794</ele>
        <time>2020-06-24T10:12:32.171Z</time>
      </trkpt>
      <trkpt lat="48.39166" lon="7.29111">
        <ele>795</ele>
        <time>2020-06-24T10:12:33.172Z</time>
      </trkpt>
      <trkpt lat="48.39167" lon="7.2911">
        <ele>795</ele>
        <time>2020-06-24T10:12:34.172Z</time>
      </trkpt>
      <trkpt lat="48.39169" lon="7.29109">
        <ele>795</ele>
        <time>2020-06-24T10:12:35.171Z</time>
      </trkpt>
      <trkpt lat="48.3917" lon="7.29108">
        <ele>795</ele>
        <time>2020-06-24T10:12:36.172Z</time>
      </trkpt>
      <trkpt lat="48.39172" lon="7.29109">
        <ele>795</ele>
        <time>2020-06-24T10:12:37.172Z</time>
      </trkpt>
      <trkpt lat="48.39173" lon="7.29111">
        <ele>795</ele>
        <time>2020-06-24T10:12:38.172Z</time>
      </trkpt>
      <trkpt lat="48.39176" lon="7.29111">
        <ele>795</ele>
        <time>2020-06-24T10:12:39.171Z</time>
      </trkpt>
      <trkpt lat="48.39177" lon="7.29112">
        <ele>794</ele>
        <time>2020-06-24T10:12:40.172Z</time>
      </trkpt>
      <trkpt lat="48.39178" lon="7.29113">
        <ele>794</ele>
        <time>2020-06-24T10:12:41.172Z</time>
      </trkpt>
      <trkpt lat="48.39179" lon="7.29114">
        <ele>793</ele>
        <time>2020-06-24T10:12:42.172Z</time>
      </trkpt>
      <trkpt lat="48.3918" lon="7.29115">
        <ele>793</ele>
        <time>2020-06-24T10:12:43.172Z</time>
      </trkpt>
      <trkpt lat="48.39181" lon="7.29117">
        <ele>793</ele>
        <time>2020-06-24T10:12:44.172Z</time>
      </trkpt>
      <trkpt lat="48.39182" lon="7.2912">
        <ele>792</ele>
        <time>2020-06-24T10:12:45.172Z</time>
      </trkpt>
      <trkpt lat="48.39183" lon="7.29122">
        <ele>792</ele>
        <time>2020-06-24T10:12:46.172Z</time>
      </trkpt>
      <trkpt lat="48.39183" lon="7.29124">
        <ele>792</ele>
        <time>2020-06-24T10:12:47.172Z</time>
      </trkpt>
      <trkpt lat="48.39183" lon="7.29126">
        <ele>791</ele>
        <time>2020-06-24T10:12:48.171Z</time>
      </trkpt>
      <trkpt lat="48.39184" lon="7.29128">
        <ele>791</ele>
        <time>2020-06-24T10:12:49.171Z</time>
      </trkpt>
      <trkpt lat="48.39184" lon="7.2913">
        <ele>791</ele>
        <time>2020-06-24T10:12:50.172Z</time>
      </trkpt>
      <trkpt lat="48.39183" lon="7.29132">
        <ele>791</ele>
        <time>2020-06-24T10:12:51.172Z</time>
      </trkpt>
      <trkpt lat="48.39183" lon="7.29135">
        <ele>790</ele>
        <time>2020-06-24T10:12:52.172Z</time>
      </trkpt>
      <trkpt lat="48.39184" lon="7.29137">
        <ele>790</ele>
        <time>2020-06-24T10:12:53.172Z</time>
      </trkpt>
      <trkpt lat="48.39185" lon="7.29138">
        <ele>790</ele>
        <time>2020-06-24T10:12:54.172Z</time>
      </trkpt>
      <trkpt lat="48.39186" lon="7.2914">
        <ele>790</ele>
        <time>2020-06-24T10:12:55.172Z</time>
      </trkpt>
      <trkpt lat="48.39186" lon="7.29142">
        <ele>790</ele>
        <time>2020-06-24T10:12:56.171Z</time>
      </trkpt>
      <trkpt lat="48.39187" lon="7.29145">
        <ele>790</ele>
        <time>2020-06-24T10:12:57.172Z</time>
      </trkpt>
      <trkpt lat="48.39188" lon="7.29147">
        <ele>790</ele>
        <time>2020-06-24T10:12:58.172Z</time>
      </trkpt>
      <trkpt lat="48.39189" lon="7.2915">
        <ele>790</ele>
        <time>2020-06-24T10:12:59.171Z</time>
      </trkpt>
      <trkpt lat="48.39189" lon="7.29152">
        <ele>790</ele>
        <time>2020-06-24T10:13:00.171Z</time>
      </trkpt>
      <trkpt lat="48.3919" lon="7.29154">
        <ele>790</ele>
        <time>2020-06-24T10:13:01.171Z</time>
      </trkpt>
      <trkpt lat="48.39191" lon="7.29156">
        <ele>791</ele>
        <time>2020-06-24T10:13:02.172Z</time>
      </trkpt>
      <trkpt lat="48.39192" lon="7.29159">
        <ele>791</ele>
        <time>2020-06-24T10:13:03.172Z</time>
      </trkpt>
      <trkpt lat="48.39193" lon="7.29162">
        <ele>791</ele>
        <time>2020-06-24T10:13:04.171Z</time>
      </trkpt>
      <trkpt lat="48.39193" lon="7.29165">
        <ele>792</ele>
        <time>2020-06-24T10:13:05.171Z</time>
      </trkpt>
      <trkpt lat="48.39193" lon="7.29168">
        <ele>792</ele>
        <time>2020-06-24T10:13:06.172Z</time>
      </trkpt>
      <trkpt lat="48.39194" lon="7.29171">
        <ele>792</ele>
        <time>2020-06-24T10:13:07.172Z</time>
      </trkpt>
      <trkpt lat="48.39194" lon="7.29173">
        <ele>792</ele>
        <time>2020-06-24T10:13:08.172Z</time>
      </trkpt>
      <trkpt lat="48.39194" lon="7.29177">
        <ele>793</ele>
        <time>2020-06-24T10:13:09.171Z</time>
      </trkpt>
      <trkpt lat="48.39194" lon="7.29182">
        <ele>793</ele>
        <time>2020-06-24T10:13:10.172Z</time>
      </trkpt>
      <trkpt lat="48.39195" lon="7.29184">
        <ele>793</ele>
        <time>2020-06-24T10:13:11.171Z</time>
      </trkpt>
      <trkpt lat="48.39195" lon="7.29187">
        <ele>794</ele>
        <time>2020-06-24T10:13:12.172Z</time>
      </trkpt>
      <trkpt lat="48.39195" lon="7.2919">
        <ele>794</ele>
        <time>2020-06-24T10:13:13.172Z</time>
      </trkpt>
      <trkpt lat="48.39194" lon="7.29193">
        <ele>793</ele>
        <time>2020-06-24T10:13:14.172Z</time>
      </trkpt>
      <trkpt lat="48.39195" lon="7.29197">
        <ele>793</ele>
        <time>2020-06-24T10:13:15.172Z</time>
      </trkpt>
      <trkpt lat="48.39194" lon="7.292">
        <ele>793</ele>
        <time>2020-06-24T10:13:16.171Z</time>
      </trkpt>
      <trkpt lat="48.39195" lon="7.29202">
        <ele>793</ele>
        <time>2020-06-24T10:13:17.171Z</time>
      </trkpt>
      <trkpt lat="48.39196" lon="7.29204">
        <ele>792</ele>
        <time>2020-06-24T10:13:18.172Z</time>
      </trkpt>
      <trkpt lat="48.39197" lon="7.29206">
        <ele>792</ele>
        <time>2020-06-24T10:13:19.171Z</time>
      </trkpt>
      <trkpt lat="48.39197" lon="7.29208">
        <ele>791</ele>
        <time>2020-06-24T10:13:20.171Z</time>
      </trkpt>
      <trkpt lat="48.39198" lon="7.2921">
        <ele>791</ele>
        <time>2020-06-24T10:13:21.172Z</time>
      </trkpt>
      <trkpt lat="48.39198" lon="7.29212">
        <ele>791</ele>
        <time>2020-06-24T10:13:22.172Z</time>
      </trkpt>
      <trkpt lat="48.39198" lon="7.29213">
        <ele>791</ele>
        <time>2020-06-24T10:13:23.172Z</time>
      </trkpt>
      <trkpt lat="48.39198" lon="7.29215">
        <ele>791</ele>
        <time>2020-06-24T10:13:24.172Z</time>
      </trkpt>
      <trkpt lat="48.39198" lon="7.29216">
        <ele>791</ele>
        <time>2020-06-24T10:13:25.171Z</time>
      </trkpt>
      <trkpt lat="48.39199" lon="7.29218">
        <ele>791</ele>
        <time>2020-06-24T10:13:26.172Z</time>
      </trkpt>
      <trkpt lat="48.39199" lon="7.2922">
        <ele>792</ele>
        <time>2020-06-24T10:13:27.172Z</time>
      </trkpt>
      <trkpt lat="48.392" lon="7.29222">
        <ele>792</ele>
        <time>2020-06-24T10:13:28.172Z</time>
      </trkpt>
      <trkpt lat="48.392" lon="7.29225">
        <ele>792</ele>
        <time>2020-06-24T10:13:29.171Z</time>
      </trkpt>
      <trkpt lat="48.39201" lon="7.29227">
        <ele>792</ele>
        <time>2020-06-24T10:13:30.171Z</time>
      </trkpt>
      <trkpt lat="48.39201" lon="7.29229">
        <ele>792</ele>
        <time>2020-06-24T10:13:31.172Z</time>
      </trkpt>
      <trkpt lat="48.39202" lon="7.29231">
        <ele>792</ele>
        <time>2020-06-24T10:13:32.172Z</time>
      </trkpt>
      <trkpt lat="48.39203" lon="7.29232">
        <ele>792</ele>
        <time>2020-06-24T10:13:33.172Z</time>
      </trkpt>
      <trkpt lat="48.39203" lon="7.29234">
        <ele>793</ele>
        <time>2020-06-24T10:13:34.171Z</time>
      </trkpt>
      <trkpt lat="48.39204" lon="7.29236">
        <ele>793</ele>
        <time>2020-06-24T10:13:35.172Z</time>
      </trkpt>
      <trkpt lat="48.39204" lon="7.29238">
        <ele>793</ele>
        <time>2020-06-24T10:13:36.172Z</time>
      </trkpt>
      <trkpt lat="48.39205" lon="7.2924">
        <ele>794</ele>
        <time>2020-06-24T10:13:37.171Z</time>
      </trkpt>
      <trkpt lat="48.39205" lon="7.29242">
        <ele>794</ele>
        <time>2020-06-24T10:13:38.171Z</time>
      </trkpt>
      <trkpt lat="48.39206" lon="7.29244">
        <ele>795</ele>
        <time>2020-06-24T10:13:39.171Z</time>
      </trkpt>
      <trkpt lat="48.39207" lon="7.29245">
        <ele>795</ele>
        <time>2020-06-24T10:13:40.171Z</time>
      </trkpt>
      <trkpt lat="48.39207" lon="7.29246">
        <ele>795</ele>
        <time>2020-06-24T10:13:41.172Z</time>
      </trkpt>
      <trkpt lat="48.39206" lon="7.29249">
        <ele>796</ele>
        <time>2020-06-24T10:13:42.172Z</time>
      </trkpt>
      <trkpt lat="48.39205" lon="7.29251">
        <ele>796</ele>
        <time>2020-06-24T10:13:43.171Z</time>
      </trkpt>
      <trkpt lat="48.39204" lon="7.29254">
        <ele>796</ele>
        <time>2020-06-24T10:13:44.171Z</time>
      </trkpt>
      <trkpt lat="48.39204" lon="7.29258">
        <ele>796</ele>
        <time>2020-06-24T10:13:45.173Z</time>
      </trkpt>
      <trkpt lat="48.39204" lon="7.29265">
        <ele>793</ele>
        <time>2020-06-24T10:13:46.173Z</time>
      </trkpt>
      <trkpt lat="48.39204" lon="7.29266">
        <ele>793</ele>
        <time>2020-06-24T10:13:47.173Z</time>
      </trkpt>
      <trkpt lat="48.39205" lon="7.29268">
        <ele>793</ele>
        <time>2020-06-24T10:13:48.173Z</time>
      </trkpt>
      <trkpt lat="48.39206" lon="7.29269">
        <ele>793</ele>
        <time>2020-06-24T10:13:49.173Z</time>
      </trkpt>
      <trkpt lat="48.39207" lon="7.2927">
        <ele>792</ele>
        <time>2020-06-24T10:13:50.173Z</time>
      </trkpt>
      <trkpt lat="48.39208" lon="7.29271">
        <ele>792</ele>
        <time>2020-06-24T10:13:51.173Z</time>
      </trkpt>
      <trkpt lat="48.39209" lon="7.29274">
        <ele>792</ele>
        <time>2020-06-24T10:13:52.173Z</time>
      </trkpt>
      <trkpt lat="48.39209" lon="7.29276">
        <ele>792</ele>
        <time>2020-06-24T10:13:53.173Z</time>
      </trkpt>
      <trkpt lat="48.3921" lon="7.29277">
        <ele>792</ele>
        <time>2020-06-24T10:13:54.173Z</time>
      </trkpt>
      <trkpt lat="48.3921" lon="7.29278">
        <ele>792</ele>
        <time>2020-06-24T10:13:55.173Z</time>
      </trkpt>
      <trkpt lat="48.39211" lon="7.29278">
        <ele>792</ele>
        <time>2020-06-24T10:13:56.173Z</time>
      </trkpt>
      <trkpt lat="48.39211" lon="7.29279">
        <ele>792</ele>
        <time>2020-06-24T10:13:57.173Z</time>
      </trkpt>
      <trkpt lat="48.39212" lon="7.29281">
        <ele>792</ele>
        <time>2020-06-24T10:13:58.172Z</time>
      </trkpt>
      <trkpt lat="48.39212" lon="7.29283">
        <ele>792</ele>
        <time>2020-06-24T10:13:59.173Z</time>
      </trkpt>
      <trkpt lat="48.39213" lon="7.29286">
        <ele>791</ele>
        <time>2020-06-24T10:14:00.173Z</time>
      </trkpt>
      <trkpt lat="48.39213" lon="7.29287">
        <ele>791</ele>
        <time>2020-06-24T10:14:01.173Z</time>
      </trkpt>
      <trkpt lat="48.39213" lon="7.29289">
        <ele>791</ele>
        <time>2020-06-24T10:14:02.173Z</time>
      </trkpt>
      <trkpt lat="48.39214" lon="7.2929">
        <ele>791</ele>
        <time>2020-06-24T10:14:03.173Z</time>
      </trkpt>
      <trkpt lat="48.39215" lon="7.29292">
        <ele>791</ele>
        <time>2020-06-24T10:14:04.173Z</time>
      </trkpt>
      <trkpt lat="48.39215" lon="7.29293">
        <ele>792</ele>
        <time>2020-06-24T10:14:05.173Z</time>
      </trkpt>
      <trkpt lat="48.39216" lon="7.29295">
        <ele>792</ele>
        <time>2020-06-24T10:14:06.173Z</time>
      </trkpt>
      <trkpt lat="48.39216" lon="7.29297">
        <ele>792</ele>
        <time>2020-06-24T10:14:07.173Z</time>
      </trkpt>
      <trkpt lat="48.39217" lon="7.293">
        <ele>793</ele>
        <time>2020-06-24T10:14:08.173Z</time>
      </trkpt>
      <trkpt lat="48.39219" lon="7.29301">
        <ele>793</ele>
        <time>2020-06-24T10:14:09.173Z</time>
      </trkpt>
      <trkpt lat="48.3922" lon="7.29303">
        <ele>794</ele>
        <time>2020-06-24T10:14:10.173Z</time>
      </trkpt>
      <trkpt lat="48.39221" lon="7.29305">
        <ele>794</ele>
        <time>2020-06-24T10:14:11.173Z</time>
      </trkpt>
      <trkpt lat="48.39222" lon="7.29307">
        <ele>794</ele>
        <time>2020-06-24T10:14:12.173Z</time>
      </trkpt>
      <trkpt lat="48.39222" lon="7.2931">
        <ele>795</ele>
        <time>2020-06-24T10:14:13.172Z</time>
      </trkpt>
      <trkpt lat="48.39223" lon="7.29311">
        <ele>795</ele>
        <time>2020-06-24T10:14:14.173Z</time>
      </trkpt>
      <trkpt lat="48.39224" lon="7.29313">
        <ele>796</ele>
        <time>2020-06-24T10:14:15.173Z</time>
      </trkpt>
      <trkpt lat="48.39226" lon="7.29315">
        <ele>797</ele>
        <time>2020-06-24T10:14:16.173Z</time>
      </trkpt>
      <trkpt lat="48.39227" lon="7.29317">
        <ele>798</ele>
        <time>2020-06-24T10:14:17.173Z</time>
      </trkpt>
      <trkpt lat="48.39228" lon="7.29319">
        <ele>799</ele>
        <time>2020-06-24T10:14:18.173Z</time>
      </trkpt>
      <trkpt lat="48.3923" lon="7.29322">
        <ele>800</ele>
        <time>2020-06-24T10:14:19.173Z</time>
      </trkpt>
      <trkpt lat="48.39231" lon="7.29325">
        <ele>800</ele>
        <time>2020-06-24T10:14:20.173Z</time>
      </trkpt>
      <trkpt lat="48.39232" lon="7.29328">
        <ele>801</ele>
        <time>2020-06-24T10:14:21.172Z</time>
      </trkpt>
      <trkpt lat="48.39233" lon="7.2933">
        <ele>802</ele>
        <time>2020-06-24T10:14:22.173Z</time>
      </trkpt>
      <trkpt lat="48.39234" lon="7.29332">
        <ele>802</ele>
        <time>2020-06-24T10:14:23.173Z</time>
      </trkpt>
      <trkpt lat="48.39236" lon="7.29334">
        <ele>803</ele>
        <time>2020-06-24T10:14:24.173Z</time>
      </trkpt>
      <trkpt lat="48.39237" lon="7.29336">
        <ele>803</ele>
        <time>2020-06-24T10:14:25.172Z</time>
      </trkpt>
      <trkpt lat="48.39238" lon="7.29338">
        <ele>804</ele>
        <time>2020-06-24T10:14:26.173Z</time>
      </trkpt>
      <trkpt lat="48.3924" lon="7.29341">
        <ele>804</ele>
        <time>2020-06-24T10:14:27.172Z</time>
      </trkpt>
      <trkpt lat="48.39241" lon="7.29342">
        <ele>804</ele>
        <time>2020-06-24T10:14:28.173Z</time>
      </trkpt>
      <trkpt lat="48.39242" lon="7.29344">
        <ele>805</ele>
        <time>2020-06-24T10:14:29.173Z</time>
      </trkpt>
      <trkpt lat="48.39244" lon="7.29347">
        <ele>805</ele>
        <time>2020-06-24T10:14:30.172Z</time>
      </trkpt>
      <trkpt lat="48.39245" lon="7.29349">
        <ele>805</ele>
        <time>2020-06-24T10:14:31.173Z</time>
      </trkpt>
      <trkpt lat="48.39246" lon="7.29351">
        <ele>806</ele>
        <time>2020-06-24T10:14:32.173Z</time>
      </trkpt>
      <trkpt lat="48.39248" lon="7.29353">
        <ele>806</ele>
        <time>2020-06-24T10:14:33.173Z</time>
      </trkpt>
      <trkpt lat="48.39249" lon="7.29356">
        <ele>806</ele>
        <time>2020-06-24T10:14:34.173Z</time>
      </trkpt>
      <trkpt lat="48.3925" lon="7.29358">
        <ele>806</ele>
        <time>2020-06-24T10:14:35.173Z</time>
      </trkpt>
      <trkpt lat="48.39251" lon="7.29361">
        <ele>806</ele>
        <time>2020-06-24T10:14:36.173Z</time>
      </trkpt>
      <trkpt lat="48.39252" lon="7.29364">
        <ele>806</ele>
        <time>2020-06-24T10:14:37.172Z</time>
      </trkpt>
      <trkpt lat="48.39253" lon="7.29366">
        <ele>807</ele>
        <time>2020-06-24T10:14:38.173Z</time>
      </trkpt>
      <trkpt lat="48.39254" lon="7.29368">
        <ele>807</ele>
        <time>2020-06-24T10:14:39.173Z</time>
      </trkpt>
      <trkpt lat="48.39256" lon="7.2937">
        <ele>807</ele>
        <time>2020-06-24T10:14:40.173Z</time>
      </trkpt>
      <trkpt lat="48.39257" lon="7.29371">
        <ele>808</ele>
        <time>2020-06-24T10:14:41.173Z</time>
      </trkpt>
      <trkpt lat="48.39258" lon="7.29372">
        <ele>808</ele>
        <time>2020-06-24T10:14:42.173Z</time>
      </trkpt>
      <trkpt lat="48.3926" lon="7.29375">
        <ele>808</ele>
        <time>2020-06-24T10:14:43.173Z</time>
      </trkpt>
      <trkpt lat="48.3926" lon="7.29377">
        <ele>808</ele>
        <time>2020-06-24T10:14:44.173Z</time>
      </trkpt>
      <trkpt lat="48.39261" lon="7.29379">
        <ele>808</ele>
        <time>2020-06-24T10:14:45.173Z</time>
      </trkpt>
      <trkpt lat="48.39263" lon="7.29381">
        <ele>808</ele>
        <time>2020-06-24T10:14:46.173Z</time>
      </trkpt>
      <trkpt lat="48.39264" lon="7.29382">
        <ele>809</ele>
        <time>2020-06-24T10:14:47.173Z</time>
      </trkpt>
      <trkpt lat="48.39265" lon="7.29384">
        <ele>809</ele>
        <time>2020-06-24T10:14:48.173Z</time>
      </trkpt>
      <trkpt lat="48.39266" lon="7.29385">
        <ele>809</ele>
        <time>2020-06-24T10:14:49.173Z</time>
      </trkpt>
      <trkpt lat="48.39268" lon="7.29386">
        <ele>809</ele>
        <time>2020-06-24T10:14:50.173Z</time>
      </trkpt>
      <trkpt lat="48.39269" lon="7.29388">
        <ele>808</ele>
        <time>2020-06-24T10:14:51.173Z</time>
      </trkpt>
      <trkpt lat="48.3927" lon="7.29391">
        <ele>808</ele>
        <time>2020-06-24T10:14:52.172Z</time>
      </trkpt>
      <trkpt lat="48.39272" lon="7.29393">
        <ele>807</ele>
        <time>2020-06-24T10:14:53.172Z</time>
      </trkpt>
      <trkpt lat="48.39273" lon="7.29393">
        <ele>807</ele>
        <time>2020-06-24T10:14:54.172Z</time>
      </trkpt>
      <trkpt lat="48.39274" lon="7.29394">
        <ele>807</ele>
        <time>2020-06-24T10:14:55.173Z</time>
      </trkpt>
      <trkpt lat="48.39275" lon="7.29395">
        <ele>806</ele>
        <time>2020-06-24T10:14:56.172Z</time>
      </trkpt>
      <trkpt lat="48.39276" lon="7.29396">
        <ele>806</ele>
        <time>2020-06-24T10:14:57.172Z</time>
      </trkpt>
      <trkpt lat="48.39277" lon="7.29399">
        <ele>806</ele>
        <time>2020-06-24T10:14:58.173Z</time>
      </trkpt>
      <trkpt lat="48.39278" lon="7.29402">
        <ele>806</ele>
        <time>2020-06-24T10:14:59.173Z</time>
      </trkpt>
      <trkpt lat="48.3928" lon="7.29404">
        <ele>806</ele>
        <time>2020-06-24T10:15:00.173Z</time>
      </trkpt>
      <trkpt lat="48.39281" lon="7.29406">
        <ele>806</ele>
        <time>2020-06-24T10:15:01.173Z</time>
      </trkpt>
      <trkpt lat="48.39281" lon="7.29407">
        <ele>805</ele>
        <time>2020-06-24T10:15:02.172Z</time>
      </trkpt>
      <trkpt lat="48.39282" lon="7.29408">
        <ele>805</ele>
        <time>2020-06-24T10:15:03.173Z</time>
      </trkpt>
      <trkpt lat="48.39283" lon="7.29409">
        <ele>805</ele>
        <time>2020-06-24T10:15:04.172Z</time>
      </trkpt>
      <trkpt lat="48.39284" lon="7.29411">
        <ele>805</ele>
        <time>2020-06-24T10:15:05.173Z</time>
      </trkpt>
      <trkpt lat="48.39285" lon="7.29412">
        <ele>805</ele>
        <time>2020-06-24T10:15:06.173Z</time>
      </trkpt>
      <trkpt lat="48.39286" lon="7.29413">
        <ele>805</ele>
        <time>2020-06-24T10:15:07.173Z</time>
      </trkpt>
      <trkpt lat="48.39287" lon="7.29413">
        <ele>805</ele>
        <time>2020-06-24T10:15:08.172Z</time>
      </trkpt>
      <trkpt lat="48.39288" lon="7.29415">
        <ele>805</ele>
        <time>2020-06-24T10:15:09.173Z</time>
      </trkpt>
      <trkpt lat="48.3929" lon="7.29416">
        <ele>805</ele>
        <time>2020-06-24T10:15:10.173Z</time>
      </trkpt>
      <trkpt lat="48.3929" lon="7.29417">
        <ele>806</ele>
        <time>2020-06-24T10:15:11.173Z</time>
      </trkpt>
      <trkpt lat="48.39291" lon="7.29418">
        <ele>806</ele>
        <time>2020-06-24T10:15:12.173Z</time>
      </trkpt>
      <trkpt lat="48.39292" lon="7.2942">
        <ele>806</ele>
        <time>2020-06-24T10:15:13.173Z</time>
      </trkpt>
      <trkpt lat="48.39293" lon="7.29421">
        <ele>806</ele>
        <time>2020-06-24T10:15:14.173Z</time>
      </trkpt>
      <trkpt lat="48.39294" lon="7.29423">
        <ele>806</ele>
        <time>2020-06-24T10:15:15.173Z</time>
      </trkpt>
      <trkpt lat="48.39295" lon="7.29423">
        <ele>807</ele>
        <time>2020-06-24T10:15:16.172Z</time>
      </trkpt>
      <trkpt lat="48.39297" lon="7.29425">
        <ele>807</ele>
        <time>2020-06-24T10:15:17.173Z</time>
      </trkpt>
      <trkpt lat="48.39298" lon="7.29426">
        <ele>806</ele>
        <time>2020-06-24T10:15:18.173Z</time>
      </trkpt>
      <trkpt lat="48.393" lon="7.29427">
        <ele>806</ele>
        <time>2020-06-24T10:15:19.172Z</time>
      </trkpt>
      <trkpt lat="48.393" lon="7.29428">
        <ele>806</ele>
        <time>2020-06-24T10:15:20.172Z</time>
      </trkpt>
      <trkpt lat="48.39302" lon="7.2943">
        <ele>805</ele>
        <time>2020-06-24T10:15:21.173Z</time>
      </trkpt>
      <trkpt lat="48.39302" lon="7.29431">
        <ele>805</ele>
        <time>2020-06-24T10:15:22.172Z</time>
      </trkpt>
      <trkpt lat="48.39303" lon="7.29431">
        <ele>805</ele>
        <time>2020-06-24T10:15:23.173Z</time>
      </trkpt>
      <trkpt lat="48.39304" lon="7.29432">
        <ele>805</ele>
        <time>2020-06-24T10:15:24.173Z</time>
      </trkpt>
      <trkpt lat="48.39305" lon="7.29433">
        <ele>805</ele>
        <time>2020-06-24T10:15:25.173Z</time>
      </trkpt>
      <trkpt lat="48.39306" lon="7.29435">
        <ele>805</ele>
        <time>2020-06-24T10:15:26.173Z</time>
      </trkpt>
      <trkpt lat="48.39308" lon="7.29437">
        <ele>804</ele>
        <time>2020-06-24T10:15:27.173Z</time>
      </trkpt>
      <trkpt lat="48.39308" lon="7.29438">
        <ele>804</ele>
        <time>2020-06-24T10:15:28.172Z</time>
      </trkpt>
      <trkpt lat="48.39309" lon="7.2944">
        <ele>804</ele>
        <time>2020-06-24T10:15:29.173Z</time>
      </trkpt>
      <trkpt lat="48.39309" lon="7.29442">
        <ele>804</ele>
        <time>2020-06-24T10:15:30.172Z</time>
      </trkpt>
      <trkpt lat="48.3931" lon="7.29444">
        <ele>804</ele>
        <time>2020-06-24T10:15:31.172Z</time>
      </trkpt>
      <trkpt lat="48.39311" lon="7.29446">
        <ele>805</ele>
        <time>2020-06-24T10:15:32.173Z</time>
      </trkpt>
      <trkpt lat="48.39312" lon="7.29448">
        <ele>805</ele>
        <time>2020-06-24T10:15:33.173Z</time>
      </trkpt>
      <trkpt lat="48.39314" lon="7.29449">
        <ele>805</ele>
        <time>2020-06-24T10:15:34.172Z</time>
      </trkpt>
      <trkpt lat="48.39315" lon="7.29451">
        <ele>806</ele>
        <time>2020-06-24T10:15:35.173Z</time>
      </trkpt>
      <trkpt lat="48.39316" lon="7.29453">
        <ele>806</ele>
        <time>2020-06-24T10:15:36.172Z</time>
      </trkpt>
      <trkpt lat="48.39316" lon="7.29455">
        <ele>807</ele>
        <time>2020-06-24T10:15:37.173Z</time>
      </trkpt>
      <trkpt lat="48.39317" lon="7.29456">
        <ele>807</ele>
        <time>2020-06-24T10:15:38.173Z</time>
      </trkpt>
      <trkpt lat="48.39318" lon="7.29457">
        <ele>807</ele>
        <time>2020-06-24T10:15:39.173Z</time>
      </trkpt>
      <trkpt lat="48.39319" lon="7.29458">
        <ele>807</ele>
        <time>2020-06-24T10:15:40.172Z</time>
      </trkpt>
      <trkpt lat="48.39321" lon="7.29459">
        <ele>807</ele>
        <time>2020-06-24T10:15:41.173Z</time>
      </trkpt>
      <trkpt lat="48.39322" lon="7.2946">
        <ele>807</ele>
        <time>2020-06-24T10:15:42.173Z</time>
      </trkpt>
      <trkpt lat="48.39324" lon="7.29461">
        <ele>807</ele>
        <time>2020-06-24T10:15:43.173Z</time>
      </trkpt>
      <trkpt lat="48.39324" lon="7.29464">
        <ele>807</ele>
        <time>2020-06-24T10:15:44.172Z</time>
      </trkpt>
      <trkpt lat="48.39325" lon="7.29467">
        <ele>807</ele>
        <time>2020-06-24T10:15:45.172Z</time>
      </trkpt>
      <trkpt lat="48.39325" lon="7.2947">
        <ele>807</ele>
        <time>2020-06-24T10:15:46.173Z</time>
      </trkpt>
      <trkpt lat="48.39326" lon="7.29472">
        <ele>807</ele>
        <time>2020-06-24T10:15:47.173Z</time>
      </trkpt>
      <trkpt lat="48.39327" lon="7.29474">
        <ele>806</ele>
        <time>2020-06-24T10:15:48.173Z</time>
      </trkpt>
      <trkpt lat="48.39328" lon="7.29475">
        <ele>806</ele>
        <time>2020-06-24T10:15:49.172Z</time>
      </trkpt>
      <trkpt lat="48.3933" lon="7.29476">
        <ele>806</ele>
        <time>2020-06-24T10:15:50.173Z</time>
      </trkpt>
      <trkpt lat="48.39331" lon="7.29478">
        <ele>806</ele>
        <time>2020-06-24T10:15:51.173Z</time>
      </trkpt>
      <trkpt lat="48.39332" lon="7.29479">
        <ele>806</ele>
        <time>2020-06-24T10:15:52.172Z</time>
      </trkpt>
      <trkpt lat="48.39333" lon="7.2948">
        <ele>806</ele>
        <time>2020-06-24T10:15:53.173Z</time>
      </trkpt>
      <trkpt lat="48.39334" lon="7.29481">
        <ele>806</ele>
        <time>2020-06-24T10:15:54.172Z</time>
      </trkpt>
      <trkpt lat="48.39335" lon="7.29483">
        <ele>806</ele>
        <time>2020-06-24T10:15:55.173Z</time>
      </trkpt>
      <trkpt lat="48.39335" lon="7.29486">
        <ele>806</ele>
        <time>2020-06-24T10:15:56.172Z</time>
      </trkpt>
      <trkpt lat="48.39336" lon="7.29487">
        <ele>806</ele>
        <time>2020-06-24T10:15:57.173Z</time>
      </trkpt>
      <trkpt lat="48.39337" lon="7.29489">
        <ele>806</ele>
        <time>2020-06-24T10:15:58.173Z</time>
      </trkpt>
      <trkpt lat="48.39339" lon="7.2949">
        <ele>807</ele>
        <time>2020-06-24T10:15:59.173Z</time>
      </trkpt>
      <trkpt lat="48.39339" lon="7.29491">
        <ele>807</ele>
        <time>2020-06-24T10:16:00.173Z</time>
      </trkpt>
      <trkpt lat="48.3934" lon="7.29493">
        <ele>807</ele>
        <time>2020-06-24T10:16:01.173Z</time>
      </trkpt>
      <trkpt lat="48.3934" lon="7.29494">
        <ele>807</ele>
        <time>2020-06-24T10:16:02.172Z</time>
      </trkpt>
      <trkpt lat="48.39342" lon="7.29495">
        <ele>808</ele>
        <time>2020-06-24T10:16:03.173Z</time>
      </trkpt>
      <trkpt lat="48.39343" lon="7.29496">
        <ele>808</ele>
        <time>2020-06-24T10:16:04.172Z</time>
      </trkpt>
      <trkpt lat="48.39344" lon="7.29497">
        <ele>808</ele>
        <time>2020-06-24T10:16:05.172Z</time>
      </trkpt>
      <trkpt lat="48.39345" lon="7.29499">
        <ele>809</ele>
        <time>2020-06-24T10:16:06.173Z</time>
      </trkpt>
      <trkpt lat="48.39346" lon="7.29501">
        <ele>809</ele>
        <time>2020-06-24T10:16:07.172Z</time>
      </trkpt>
      <trkpt lat="48.39347" lon="7.29502">
        <ele>809</ele>
        <time>2020-06-24T10:16:08.172Z</time>
      </trkpt>
      <trkpt lat="48.39347" lon="7.29502">
        <ele>809</ele>
        <time>2020-06-24T10:16:09.173Z</time>
      </trkpt>
      <trkpt lat="48.39349" lon="7.29503">
        <ele>809</ele>
        <time>2020-06-24T10:16:10.173Z</time>
      </trkpt>
      <trkpt lat="48.3935" lon="7.29504">
        <ele>810</ele>
        <time>2020-06-24T10:16:11.172Z</time>
      </trkpt>
      <trkpt lat="48.39352" lon="7.29505">
        <ele>810</ele>
        <time>2020-06-24T10:16:12.173Z</time>
      </trkpt>
      <trkpt lat="48.39353" lon="7.29506">
        <ele>810</ele>
        <time>2020-06-24T10:16:13.172Z</time>
      </trkpt>
      <trkpt lat="48.39353" lon="7.29508">
        <ele>810</ele>
        <time>2020-06-24T10:16:14.173Z</time>
      </trkpt>
      <trkpt lat="48.39354" lon="7.29509">
        <ele>810</ele>
        <time>2020-06-24T10:16:15.173Z</time>
      </trkpt>
      <trkpt lat="48.39355" lon="7.2951">
        <ele>810</ele>
        <time>2020-06-24T10:16:16.173Z</time>
      </trkpt>
      <trkpt lat="48.39356" lon="7.29511">
        <ele>810</ele>
        <time>2020-06-24T10:16:17.173Z</time>
      </trkpt>
      <trkpt lat="48.39358" lon="7.29513">
        <ele>810</ele>
        <time>2020-06-24T10:16:18.173Z</time>
      </trkpt>
      <trkpt lat="48.39359" lon="7.29514">
        <ele>810</ele>
        <time>2020-06-24T10:16:19.172Z</time>
      </trkpt>
      <trkpt lat="48.3936" lon="7.29516">
        <ele>810</ele>
        <time>2020-06-24T10:16:20.173Z</time>
      </trkpt>
      <trkpt lat="48.39361" lon="7.29517">
        <ele>810</ele>
        <time>2020-06-24T10:16:21.172Z</time>
      </trkpt>
      <trkpt lat="48.39363" lon="7.29518">
        <ele>810</ele>
        <time>2020-06-24T10:16:22.173Z</time>
      </trkpt>
      <trkpt lat="48.39364" lon="7.2952">
        <ele>810</ele>
        <time>2020-06-24T10:16:23.173Z</time>
      </trkpt>
      <trkpt lat="48.39365" lon="7.29521">
        <ele>810</ele>
        <time>2020-06-24T10:16:24.173Z</time>
      </trkpt>
      <trkpt lat="48.39366" lon="7.29522">
        <ele>809</ele>
        <time>2020-06-24T10:16:25.172Z</time>
      </trkpt>
      <trkpt lat="48.39367" lon="7.29523">
        <ele>809</ele>
        <time>2020-06-24T10:16:26.173Z</time>
      </trkpt>
      <trkpt lat="48.39368" lon="7.29524">
        <ele>809</ele>
        <time>2020-06-24T10:16:27.173Z</time>
      </trkpt>
      <trkpt lat="48.39369" lon="7.29525">
        <ele>809</ele>
        <time>2020-06-24T10:16:28.172Z</time>
      </trkpt>
      <trkpt lat="48.3937" lon="7.29526">
        <ele>809</ele>
        <time>2020-06-24T10:16:29.172Z</time>
      </trkpt>
      <trkpt lat="48.39372" lon="7.29526">
        <ele>809</ele>
        <time>2020-06-24T10:16:30.172Z</time>
      </trkpt>
      <trkpt lat="48.39373" lon="7.29528">
        <ele>809</ele>
        <time>2020-06-24T10:16:31.172Z</time>
      </trkpt>
      <trkpt lat="48.39374" lon="7.29529">
        <ele>809</ele>
        <time>2020-06-24T10:16:32.173Z</time>
      </trkpt>
      <trkpt lat="48.39375" lon="7.29531">
        <ele>809</ele>
        <time>2020-06-24T10:16:33.172Z</time>
      </trkpt>
      <trkpt lat="48.39376" lon="7.29532">
        <ele>810</ele>
        <time>2020-06-24T10:16:34.172Z</time>
      </trkpt>
      <trkpt lat="48.39378" lon="7.29533">
        <ele>810</ele>
        <time>2020-06-24T10:16:35.173Z</time>
      </trkpt>
      <trkpt lat="48.39381" lon="7.29534">
        <ele>810</ele>
        <time>2020-06-24T10:16:36.173Z</time>
      </trkpt>
      <trkpt lat="48.39383" lon="7.29536">
        <ele>810</ele>
        <time>2020-06-24T10:16:37.173Z</time>
      </trkpt>
      <trkpt lat="48.39384" lon="7.29537">
        <ele>811</ele>
        <time>2020-06-24T10:16:38.173Z</time>
      </trkpt>
      <trkpt lat="48.39386" lon="7.29537">
        <ele>811</ele>
        <time>2020-06-24T10:16:39.173Z</time>
      </trkpt>
      <trkpt lat="48.39387" lon="7.29537">
        <ele>811</ele>
        <time>2020-06-24T10:16:40.173Z</time>
      </trkpt>
      <trkpt lat="48.39389" lon="7.29538">
        <ele>811</ele>
        <time>2020-06-24T10:16:41.172Z</time>
      </trkpt>
      <trkpt lat="48.3939" lon="7.29538">
        <ele>811</ele>
        <time>2020-06-24T10:16:42.173Z</time>
      </trkpt>
      <trkpt lat="48.39391" lon="7.2954">
        <ele>811</ele>
        <time>2020-06-24T10:16:43.172Z</time>
      </trkpt>
      <trkpt lat="48.39392" lon="7.29541">
        <ele>811</ele>
        <time>2020-06-24T10:16:44.173Z</time>
      </trkpt>
      <trkpt lat="48.39394" lon="7.29542">
        <ele>811</ele>
        <time>2020-06-24T10:16:45.173Z</time>
      </trkpt>
      <trkpt lat="48.39396" lon="7.29543">
        <ele>811</ele>
        <time>2020-06-24T10:16:46.172Z</time>
      </trkpt>
      <trkpt lat="48.39398" lon="7.29543">
        <ele>812</ele>
        <time>2020-06-24T10:16:47.173Z</time>
      </trkpt>
      <trkpt lat="48.39399" lon="7.29543">
        <ele>812</ele>
        <time>2020-06-24T10:16:48.173Z</time>
      </trkpt>
      <trkpt lat="48.39401" lon="7.29544">
        <ele>812</ele>
        <time>2020-06-24T10:16:49.173Z</time>
      </trkpt>
      <trkpt lat="48.39402" lon="7.29544">
        <ele>812</ele>
        <time>2020-06-24T10:16:50.172Z</time>
      </trkpt>
      <trkpt lat="48.39404" lon="7.29545">
        <ele>812</ele>
        <time>2020-06-24T10:16:51.172Z</time>
      </trkpt>
      <trkpt lat="48.39405" lon="7.29546">
        <ele>812</ele>
        <time>2020-06-24T10:16:52.172Z</time>
      </trkpt>
      <trkpt lat="48.39407" lon="7.29547">
        <ele>812</ele>
        <time>2020-06-24T10:16:53.173Z</time>
      </trkpt>
      <trkpt lat="48.39408" lon="7.29547">
        <ele>812</ele>
        <time>2020-06-24T10:16:54.172Z</time>
      </trkpt>
      <trkpt lat="48.3941" lon="7.29548">
        <ele>812</ele>
        <time>2020-06-24T10:16:55.173Z</time>
      </trkpt>
      <trkpt lat="48.39411" lon="7.2955">
        <ele>812</ele>
        <time>2020-06-24T10:16:56.173Z</time>
      </trkpt>
      <trkpt lat="48.39413" lon="7.29551">
        <ele>812</ele>
        <time>2020-06-24T10:16:57.173Z</time>
      </trkpt>
      <trkpt lat="48.39415" lon="7.29552">
        <ele>812</ele>
        <time>2020-06-24T10:16:58.173Z</time>
      </trkpt>
      <trkpt lat="48.39417" lon="7.29553">
        <ele>812</ele>
        <time>2020-06-24T10:16:59.172Z</time>
      </trkpt>
      <trkpt lat="48.39418" lon="7.29554">
        <ele>813</ele>
        <time>2020-06-24T10:17:00.173Z</time>
      </trkpt>
      <trkpt lat="48.3942" lon="7.29555">
        <ele>813</ele>
        <time>2020-06-24T10:17:01.172Z</time>
      </trkpt>
      <trkpt lat="48.39421" lon="7.29554">
        <ele>813</ele>
        <time>2020-06-24T10:17:02.173Z</time>
      </trkpt>
      <trkpt lat="48.39422" lon="7.29555">
        <ele>813</ele>
        <time>2020-06-24T10:17:03.173Z</time>
      </trkpt>
      <trkpt lat="48.39423" lon="7.29556">
        <ele>813</ele>
        <time>2020-06-24T10:17:04.173Z</time>
      </trkpt>
      <trkpt lat="48.39424" lon="7.29558">
        <ele>813</ele>
        <time>2020-06-24T10:17:05.173Z</time>
      </trkpt>
      <trkpt lat="48.39426" lon="7.29559">
        <ele>813</ele>
        <time>2020-06-24T10:17:06.173Z</time>
      </trkpt>
      <trkpt lat="48.39427" lon="7.29561">
        <ele>814</ele>
        <time>2020-06-24T10:17:07.173Z</time>
      </trkpt>
      <trkpt lat="48.39428" lon="7.29561">
        <ele>814</ele>
        <time>2020-06-24T10:17:08.172Z</time>
      </trkpt>
      <trkpt lat="48.3943" lon="7.29563">
        <ele>814</ele>
        <time>2020-06-24T10:17:09.173Z</time>
      </trkpt>
      <trkpt lat="48.39432" lon="7.29564">
        <ele>815</ele>
        <time>2020-06-24T10:17:10.172Z</time>
      </trkpt>
      <trkpt lat="48.39434" lon="7.29565">
        <ele>815</ele>
        <time>2020-06-24T10:17:11.173Z</time>
      </trkpt>
      <trkpt lat="48.39435" lon="7.29566">
        <ele>816</ele>
        <time>2020-06-24T10:17:12.173Z</time>
      </trkpt>
      <trkpt lat="48.39436" lon="7.29565">
        <ele>816</ele>
        <time>2020-06-24T10:17:13.173Z</time>
      </trkpt>
      <trkpt lat="48.39437" lon="7.29566">
        <ele>816</ele>
        <time>2020-06-24T10:17:14.173Z</time>
      </trkpt>
      <trkpt lat="48.39439" lon="7.29568">
        <ele>816</ele>
        <time>2020-06-24T10:17:15.173Z</time>
      </trkpt>
      <trkpt lat="48.3944" lon="7.29569">
        <ele>817</ele>
        <time>2020-06-24T10:17:16.173Z</time>
      </trkpt>
      <trkpt lat="48.39442" lon="7.2957">
        <ele>817</ele>
        <time>2020-06-24T10:17:17.172Z</time>
      </trkpt>
      <trkpt lat="48.39443" lon="7.29571">
        <ele>817</ele>
        <time>2020-06-24T10:17:18.173Z</time>
      </trkpt>
      <trkpt lat="48.39445" lon="7.29572">
        <ele>817</ele>
        <time>2020-06-24T10:17:19.173Z</time>
      </trkpt>
      <trkpt lat="48.39446" lon="7.29573">
        <ele>817</ele>
        <time>2020-06-24T10:17:20.173Z</time>
      </trkpt>
      <trkpt lat="48.39447" lon="7.29574">
        <ele>817</ele>
        <time>2020-06-24T10:17:21.173Z</time>
      </trkpt>
      <trkpt lat="48.39449" lon="7.29575">
        <ele>817</ele>
        <time>2020-06-24T10:17:22.173Z</time>
      </trkpt>
      <trkpt lat="48.3945" lon="7.29576">
        <ele>817</ele>
        <time>2020-06-24T10:17:23.173Z</time>
      </trkpt>
      <trkpt lat="48.39451" lon="7.29577">
        <ele>817</ele>
        <time>2020-06-24T10:17:24.173Z</time>
      </trkpt>
      <trkpt lat="48.39453" lon="7.29578">
        <ele>818</ele>
        <time>2020-06-24T10:17:25.172Z</time>
      </trkpt>
      <trkpt lat="48.39455" lon="7.29579">
        <ele>817</ele>
        <time>2020-06-24T10:17:26.172Z</time>
      </trkpt>
      <trkpt lat="48.39456" lon="7.2958">
        <ele>817</ele>
        <time>2020-06-24T10:17:27.173Z</time>
      </trkpt>
      <trkpt lat="48.39458" lon="7.2958">
        <ele>817</ele>
        <time>2020-06-24T10:17:28.172Z</time>
      </trkpt>
      <trkpt lat="48.3946" lon="7.29582">
        <ele>817</ele>
        <time>2020-06-24T10:17:29.173Z</time>
      </trkpt>
      <trkpt lat="48.39461" lon="7.29584">
        <ele>817</ele>
        <time>2020-06-24T10:17:30.173Z</time>
      </trkpt>
      <trkpt lat="48.39464" lon="7.29586">
        <ele>817</ele>
        <time>2020-06-24T10:17:31.173Z</time>
      </trkpt>
      <trkpt lat="48.39465" lon="7.29587">
        <ele>816</ele>
        <time>2020-06-24T10:17:32.173Z</time>
      </trkpt>
      <trkpt lat="48.39466" lon="7.29588">
        <ele>816</ele>
        <time>2020-06-24T10:17:33.173Z</time>
      </trkpt>
      <trkpt lat="48.39467" lon="7.29588">
        <ele>816</ele>
        <time>2020-06-24T10:17:34.172Z</time>
      </trkpt>
      <trkpt lat="48.39468" lon="7.29589">
        <ele>816</ele>
        <time>2020-06-24T10:17:35.173Z</time>
      </trkpt>
      <trkpt lat="48.39469" lon="7.29589">
        <ele>815</ele>
        <time>2020-06-24T10:17:36.173Z</time>
      </trkpt>
      <trkpt lat="48.3947" lon="7.2959">
        <ele>815</ele>
        <time>2020-06-24T10:17:37.173Z</time>
      </trkpt>
      <trkpt lat="48.39471" lon="7.29591">
        <ele>815</ele>
        <time>2020-06-24T10:17:38.173Z</time>
      </trkpt>
      <trkpt lat="48.39471" lon="7.29591">
        <ele>815</ele>
        <time>2020-06-24T10:17:39.173Z</time>
      </trkpt>
      <trkpt lat="48.39472" lon="7.29592">
        <ele>815</ele>
        <time>2020-06-24T10:17:40.172Z</time>
      </trkpt>
      <trkpt lat="48.39473" lon="7.29592">
        <ele>815</ele>
        <time>2020-06-24T10:17:41.173Z</time>
      </trkpt>
      <trkpt lat="48.39474" lon="7.29593">
        <ele>815</ele>
        <time>2020-06-24T10:17:42.173Z</time>
      </trkpt>
      <trkpt lat="48.39475" lon="7.29594">
        <ele>815</ele>
        <time>2020-06-24T10:17:43.173Z</time>
      </trkpt>
      <trkpt lat="48.39477" lon="7.29595">
        <ele>816</ele>
        <time>2020-06-24T10:17:44.173Z</time>
      </trkpt>
      <trkpt lat="48.39478" lon="7.29596">
        <ele>816</ele>
        <time>2020-06-24T10:17:45.173Z</time>
      </trkpt>
      <trkpt lat="48.39479" lon="7.29596">
        <ele>816</ele>
        <time>2020-06-24T10:17:46.172Z</time>
      </trkpt>
      <trkpt lat="48.3948" lon="7.29597">
        <ele>816</ele>
        <time>2020-06-24T10:17:47.173Z</time>
      </trkpt>
      <trkpt lat="48.39481" lon="7.29597">
        <ele>816</ele>
        <time>2020-06-24T10:17:48.173Z</time>
      </trkpt>
      <trkpt lat="48.39483" lon="7.29597">
        <ele>816</ele>
        <time>2020-06-24T10:17:49.173Z</time>
      </trkpt>
      <trkpt lat="48.39485" lon="7.29597">
        <ele>816</ele>
        <time>2020-06-24T10:17:50.173Z</time>
      </trkpt>
      <trkpt lat="48.39487" lon="7.29598">
        <ele>816</ele>
        <time>2020-06-24T10:17:51.172Z</time>
      </trkpt>
      <trkpt lat="48.39489" lon="7.29598">
        <ele>816</ele>
        <time>2020-06-24T10:17:52.173Z</time>
      </trkpt>
      <trkpt lat="48.39492" lon="7.29599">
        <ele>816</ele>
        <time>2020-06-24T10:17:53.173Z</time>
      </trkpt>
      <trkpt lat="48.39493" lon="7.296">
        <ele>816</ele>
        <time>2020-06-24T10:17:54.173Z</time>
      </trkpt>
      <trkpt lat="48.39495" lon="7.29601">
        <ele>816</ele>
        <time>2020-06-24T10:17:55.173Z</time>
      </trkpt>
      <trkpt lat="48.39496" lon="7.29602">
        <ele>816</ele>
        <time>2020-06-24T10:17:56.172Z</time>
      </trkpt>
      <trkpt lat="48.39498" lon="7.29602">
        <ele>816</ele>
        <time>2020-06-24T10:17:57.173Z</time>
      </trkpt>
      <trkpt lat="48.395" lon="7.29603">
        <ele>816</ele>
        <time>2020-06-24T10:17:58.173Z</time>
      </trkpt>
      <trkpt lat="48.39502" lon="7.29604">
        <ele>816</ele>
        <time>2020-06-24T10:17:59.173Z</time>
      </trkpt>
      <trkpt lat="48.39503" lon="7.29604">
        <ele>816</ele>
        <time>2020-06-24T10:18:00.173Z</time>
      </trkpt>
      <trkpt lat="48.39505" lon="7.29604">
        <ele>816</ele>
        <time>2020-06-24T10:18:01.173Z</time>
      </trkpt>
      <trkpt lat="48.39507" lon="7.29606">
        <ele>816</ele>
        <time>2020-06-24T10:18:02.173Z</time>
      </trkpt>
      <trkpt lat="48.39508" lon="7.29607">
        <ele>816</ele>
        <time>2020-06-24T10:18:03.173Z</time>
      </trkpt>
      <trkpt lat="48.39509" lon="7.29608">
        <ele>816</ele>
        <time>2020-06-24T10:18:04.173Z</time>
      </trkpt>
      <trkpt lat="48.39511" lon="7.29608">
        <ele>816</ele>
        <time>2020-06-24T10:18:05.172Z</time>
      </trkpt>
      <trkpt lat="48.39513" lon="7.29609">
        <ele>816</ele>
        <time>2020-06-24T10:18:06.173Z</time>
      </trkpt>
      <trkpt lat="48.39515" lon="7.2961">
        <ele>816</ele>
        <time>2020-06-24T10:18:07.173Z</time>
      </trkpt>
      <trkpt lat="48.39518" lon="7.29612">
        <ele>816</ele>
        <time>2020-06-24T10:18:08.172Z</time>
      </trkpt>
      <trkpt lat="48.39519" lon="7.29612">
        <ele>816</ele>
        <time>2020-06-24T10:18:09.173Z</time>
      </trkpt>
      <trkpt lat="48.39521" lon="7.29613">
        <ele>816</ele>
        <time>2020-06-24T10:18:10.173Z</time>
      </trkpt>
      <trkpt lat="48.39522" lon="7.29613">
        <ele>817</ele>
        <time>2020-06-24T10:18:11.173Z</time>
      </trkpt>
      <trkpt lat="48.39524" lon="7.29614">
        <ele>817</ele>
        <time>2020-06-24T10:18:12.173Z</time>
      </trkpt>
      <trkpt lat="48.39525" lon="7.29614">
        <ele>817</ele>
        <time>2020-06-24T10:18:13.173Z</time>
      </trkpt>
      <trkpt lat="48.39526" lon="7.29615">
        <ele>817</ele>
        <time>2020-06-24T10:18:14.172Z</time>
      </trkpt>
      <trkpt lat="48.39527" lon="7.29615">
        <ele>817</ele>
        <time>2020-06-24T10:18:15.173Z</time>
      </trkpt>
      <trkpt lat="48.39528" lon="7.29615">
        <ele>817</ele>
        <time>2020-06-24T10:18:16.173Z</time>
      </trkpt>
      <trkpt lat="48.3953" lon="7.29616">
        <ele>817</ele>
        <time>2020-06-24T10:18:17.173Z</time>
      </trkpt>
      <trkpt lat="48.39531" lon="7.29617">
        <ele>817</ele>
        <time>2020-06-24T10:18:18.173Z</time>
      </trkpt>
      <trkpt lat="48.39532" lon="7.29617">
        <ele>817</ele>
        <time>2020-06-24T10:18:19.173Z</time>
      </trkpt>
      <trkpt lat="48.39534" lon="7.29618">
        <ele>817</ele>
        <time>2020-06-24T10:18:20.173Z</time>
      </trkpt>
      <trkpt lat="48.39536" lon="7.29618">
        <ele>817</ele>
        <time>2020-06-24T10:18:21.173Z</time>
      </trkpt>
      <trkpt lat="48.39537" lon="7.29618">
        <ele>818</ele>
        <time>2020-06-24T10:18:22.172Z</time>
      </trkpt>
      <trkpt lat="48.39539" lon="7.29619">
        <ele>818</ele>
        <time>2020-06-24T10:18:23.173Z</time>
      </trkpt>
      <trkpt lat="48.3954" lon="7.29619">
        <ele>818</ele>
        <time>2020-06-24T10:18:24.173Z</time>
      </trkpt>
      <trkpt lat="48.39541" lon="7.29619">
        <ele>818</ele>
        <time>2020-06-24T10:18:25.172Z</time>
      </trkpt>
      <trkpt lat="48.39543" lon="7.29618">
        <ele>818</ele>
        <time>2020-06-24T10:18:26.173Z</time>
      </trkpt>
      <trkpt lat="48.39543" lon="7.29617">
        <ele>818</ele>
        <time>2020-06-24T10:18:27.173Z</time>
      </trkpt>
      <trkpt lat="48.39544" lon="7.29616">
        <ele>819</ele>
        <time>2020-06-24T10:18:28.173Z</time>
      </trkpt>
      <trkpt lat="48.39544" lon="7.29615">
        <ele>819</ele>
        <time>2020-06-24T10:18:29.172Z</time>
      </trkpt>
      <trkpt lat="48.39545" lon="7.29616">
        <ele>819</ele>
        <time>2020-06-24T10:18:30.172Z</time>
      </trkpt>
      <trkpt lat="48.39546" lon="7.29615">
        <ele>819</ele>
        <time>2020-06-24T10:18:31.172Z</time>
      </trkpt>
      <trkpt lat="48.39547" lon="7.29615">
        <ele>820</ele>
        <time>2020-06-24T10:18:32.172Z</time>
      </trkpt>
      <trkpt lat="48.39548" lon="7.29615">
        <ele>820</ele>
        <time>2020-06-24T10:18:33.172Z</time>
      </trkpt>
      <trkpt lat="48.39549" lon="7.29615">
        <ele>820</ele>
        <time>2020-06-24T10:18:34.173Z</time>
      </trkpt>
      <trkpt lat="48.39551" lon="7.29615">
        <ele>820</ele>
        <time>2020-06-24T10:18:35.172Z</time>
      </trkpt>
      <trkpt lat="48.39552" lon="7.29614">
        <ele>820</ele>
        <time>2020-06-24T10:18:36.172Z</time>
      </trkpt>
      <trkpt lat="48.39553" lon="7.29614">
        <ele>820</ele>
        <time>2020-06-24T10:18:37.173Z</time>
      </trkpt>
      <trkpt lat="48.39554" lon="7.29615">
        <ele>820</ele>
        <time>2020-06-24T10:18:38.172Z</time>
      </trkpt>
      <trkpt lat="48.39555" lon="7.29615">
        <ele>820</ele>
        <time>2020-06-24T10:18:39.173Z</time>
      </trkpt>
      <trkpt lat="48.39557" lon="7.29615">
        <ele>820</ele>
        <time>2020-06-24T10:18:40.173Z</time>
      </trkpt>
      <trkpt lat="48.39559" lon="7.29615">
        <ele>820</ele>
        <time>2020-06-24T10:18:41.173Z</time>
      </trkpt>
      <trkpt lat="48.3956" lon="7.29615">
        <ele>820</ele>
        <time>2020-06-24T10:18:42.173Z</time>
      </trkpt>
      <trkpt lat="48.39561" lon="7.29616">
        <ele>819</ele>
        <time>2020-06-24T10:18:43.173Z</time>
      </trkpt>
      <trkpt lat="48.39561" lon="7.29616">
        <ele>819</ele>
        <time>2020-06-24T10:18:44.172Z</time>
      </trkpt>
      <trkpt lat="48.39562" lon="7.29615">
        <ele>819</ele>
        <time>2020-06-24T10:18:45.173Z</time>
      </trkpt>
      <trkpt lat="48.39563" lon="7.29615">
        <ele>819</ele>
        <time>2020-06-24T10:18:46.173Z</time>
      </trkpt>
      <trkpt lat="48.39564" lon="7.29615">
        <ele>819</ele>
        <time>2020-06-24T10:18:47.172Z</time>
      </trkpt>
      <trkpt lat="48.39565" lon="7.29614">
        <ele>819</ele>
        <time>2020-06-24T10:18:48.173Z</time>
      </trkpt>
      <trkpt lat="48.39566" lon="7.29614">
        <ele>819</ele>
        <time>2020-06-24T10:18:49.173Z</time>
      </trkpt>
      <trkpt lat="48.39567" lon="7.29614">
        <ele>819</ele>
        <time>2020-06-24T10:18:50.172Z</time>
      </trkpt>
      <trkpt lat="48.39568" lon="7.29613">
        <ele>818</ele>
        <time>2020-06-24T10:18:51.173Z</time>
      </trkpt>
      <trkpt lat="48.3957" lon="7.29614">
        <ele>818</ele>
        <time>2020-06-24T10:18:52.172Z</time>
      </trkpt>
      <trkpt lat="48.39571" lon="7.29614">
        <ele>818</ele>
        <time>2020-06-24T10:18:53.173Z</time>
      </trkpt>
      <trkpt lat="48.39572" lon="7.29615">
        <ele>818</ele>
        <time>2020-06-24T10:18:54.173Z</time>
      </trkpt>
      <trkpt lat="48.39574" lon="7.29615">
        <ele>818</ele>
        <time>2020-06-24T10:18:55.173Z</time>
      </trkpt>
      <trkpt lat="48.39575" lon="7.29616">
        <ele>817</ele>
        <time>2020-06-24T10:18:56.172Z</time>
      </trkpt>
      <trkpt lat="48.39576" lon="7.29616">
        <ele>817</ele>
        <time>2020-06-24T10:18:57.173Z</time>
      </trkpt>
      <trkpt lat="48.39577" lon="7.29616">
        <ele>817</ele>
        <time>2020-06-24T10:18:58.173Z</time>
      </trkpt>
      <trkpt lat="48.39579" lon="7.29615">
        <ele>817</ele>
        <time>2020-06-24T10:18:59.173Z</time>
      </trkpt>
      <trkpt lat="48.3958" lon="7.29615">
        <ele>817</ele>
        <time>2020-06-24T10:19:00.173Z</time>
      </trkpt>
      <trkpt lat="48.39581" lon="7.29616">
        <ele>817</ele>
        <time>2020-06-24T10:19:01.172Z</time>
      </trkpt>
      <trkpt lat="48.39583" lon="7.29616">
        <ele>817</ele>
        <time>2020-06-24T10:19:02.173Z</time>
      </trkpt>
      <trkpt lat="48.39584" lon="7.29616">
        <ele>818</ele>
        <time>2020-06-24T10:19:03.172Z</time>
      </trkpt>
      <trkpt lat="48.39585" lon="7.29615">
        <ele>818</ele>
        <time>2020-06-24T10:19:04.173Z</time>
      </trkpt>
      <trkpt lat="48.39586" lon="7.29616">
        <ele>818</ele>
        <time>2020-06-24T10:19:05.173Z</time>
      </trkpt>
      <trkpt lat="48.39587" lon="7.29615">
        <ele>819</ele>
        <time>2020-06-24T10:19:06.173Z</time>
      </trkpt>
      <trkpt lat="48.39589" lon="7.29615">
        <ele>819</ele>
        <time>2020-06-24T10:19:07.173Z</time>
      </trkpt>
      <trkpt lat="48.3959" lon="7.29614">
        <ele>819</ele>
        <time>2020-06-24T10:19:08.173Z</time>
      </trkpt>
      <trkpt lat="48.39591" lon="7.29614">
        <ele>819</ele>
        <time>2020-06-24T10:19:09.173Z</time>
      </trkpt>
      <trkpt lat="48.39593" lon="7.29613">
        <ele>819</ele>
        <time>2020-06-24T10:19:10.173Z</time>
      </trkpt>
      <trkpt lat="48.39596" lon="7.29613">
        <ele>820</ele>
        <time>2020-06-24T10:19:11.172Z</time>
      </trkpt>
      <trkpt lat="48.39597" lon="7.29613">
        <ele>820</ele>
        <time>2020-06-24T10:19:12.173Z</time>
      </trkpt>
      <trkpt lat="48.39598" lon="7.29613">
        <ele>820</ele>
        <time>2020-06-24T10:19:13.173Z</time>
      </trkpt>
      <trkpt lat="48.39599" lon="7.29613">
        <ele>820</ele>
        <time>2020-06-24T10:19:14.173Z</time>
      </trkpt>
      <trkpt lat="48.39601" lon="7.29613">
        <ele>820</ele>
        <time>2020-06-24T10:19:15.173Z</time>
      </trkpt>
      <trkpt lat="48.39601" lon="7.29613">
        <ele>821</ele>
        <time>2020-06-24T10:19:16.173Z</time>
      </trkpt>
      <trkpt lat="48.39603" lon="7.29612">
        <ele>821</ele>
        <time>2020-06-24T10:19:17.173Z</time>
      </trkpt>
      <trkpt lat="48.39603" lon="7.29611">
        <ele>821</ele>
        <time>2020-06-24T10:19:18.173Z</time>
      </trkpt>
      <trkpt lat="48.39605" lon="7.29611">
        <ele>821</ele>
        <time>2020-06-24T10:19:19.173Z</time>
      </trkpt>
      <trkpt lat="48.39606" lon="7.29611">
        <ele>821</ele>
        <time>2020-06-24T10:19:20.173Z</time>
      </trkpt>
      <trkpt lat="48.39607" lon="7.29611">
        <ele>821</ele>
        <time>2020-06-24T10:19:21.173Z</time>
      </trkpt>
      <trkpt lat="48.39608" lon="7.29611">
        <ele>821</ele>
        <time>2020-06-24T10:19:22.173Z</time>
      </trkpt>
      <trkpt lat="48.3961" lon="7.29612">
        <ele>822</ele>
        <time>2020-06-24T10:19:23.173Z</time>
      </trkpt>
      <trkpt lat="48.39611" lon="7.29612">
        <ele>822</ele>
        <time>2020-06-24T10:19:24.173Z</time>
      </trkpt>
      <trkpt lat="48.39612" lon="7.29612">
        <ele>822</ele>
        <time>2020-06-24T10:19:25.173Z</time>
      </trkpt>
      <trkpt lat="48.39613" lon="7.29612">
        <ele>823</ele>
        <time>2020-06-24T10:19:26.173Z</time>
      </trkpt>
      <trkpt lat="48.39613" lon="7.29612">
        <ele>823</ele>
        <time>2020-06-24T10:19:27.173Z</time>
      </trkpt>
      <trkpt lat="48.39616" lon="7.29616">
        <ele>825</ele>
        <time>2020-06-24T10:19:28.173Z</time>
      </trkpt>
      <trkpt lat="48.39618" lon="7.29617">
        <ele>825</ele>
        <time>2020-06-24T10:19:29.172Z</time>
      </trkpt>
      <trkpt lat="48.3962" lon="7.29618">
        <ele>825</ele>
        <time>2020-06-24T10:19:30.173Z</time>
      </trkpt>
      <trkpt lat="48.39622" lon="7.29618">
        <ele>826</ele>
        <time>2020-06-24T10:19:31.172Z</time>
      </trkpt>
      <trkpt lat="48.39623" lon="7.2962">
        <ele>826</ele>
        <time>2020-06-24T10:19:32.173Z</time>
      </trkpt>
      <trkpt lat="48.39624" lon="7.2962">
        <ele>826</ele>
        <time>2020-06-24T10:19:33.172Z</time>
      </trkpt>
      <trkpt lat="48.39625" lon="7.29621">
        <ele>826</ele>
        <time>2020-06-24T10:19:34.173Z</time>
      </trkpt>
      <trkpt lat="48.39625" lon="7.29621">
        <ele>826</ele>
        <time>2020-06-24T10:19:35.173Z</time>
      </trkpt>
      <trkpt lat="48.39626" lon="7.29622">
        <ele>827</ele>
        <time>2020-06-24T10:19:36.173Z</time>
      </trkpt>
      <trkpt lat="48.39627" lon="7.29622">
        <ele>827</ele>
        <time>2020-06-24T10:19:37.172Z</time>
      </trkpt>
      <trkpt lat="48.39628" lon="7.29622">
        <ele>827</ele>
        <time>2020-06-24T10:19:38.172Z</time>
      </trkpt>
      <trkpt lat="48.39629" lon="7.29622">
        <ele>827</ele>
        <time>2020-06-24T10:19:39.173Z</time>
      </trkpt>
      <trkpt lat="48.39631" lon="7.29622">
        <ele>828</ele>
        <time>2020-06-24T10:19:40.172Z</time>
      </trkpt>
      <trkpt lat="48.39632" lon="7.29622">
        <ele>828</ele>
        <time>2020-06-24T10:19:41.172Z</time>
      </trkpt>
      <trkpt lat="48.39633" lon="7.29621">
        <ele>828</ele>
        <time>2020-06-24T10:19:42.173Z</time>
      </trkpt>
      <trkpt lat="48.39634" lon="7.29621">
        <ele>828</ele>
        <time>2020-06-24T10:19:43.172Z</time>
      </trkpt>
      <trkpt lat="48.39636" lon="7.29621">
        <ele>828</ele>
        <time>2020-06-24T10:19:44.173Z</time>
      </trkpt>
      <trkpt lat="48.39638" lon="7.29621">
        <ele>828</ele>
        <time>2020-06-24T10:19:45.173Z</time>
      </trkpt>
      <trkpt lat="48.39639" lon="7.29621">
        <ele>829</ele>
        <time>2020-06-24T10:19:46.172Z</time>
      </trkpt>
      <trkpt lat="48.39642" lon="7.29621">
        <ele>829</ele>
        <time>2020-06-24T10:19:47.172Z</time>
      </trkpt>
      <trkpt lat="48.39644" lon="7.29621">
        <ele>829</ele>
        <time>2020-06-24T10:19:48.172Z</time>
      </trkpt>
      <trkpt lat="48.39646" lon="7.29621">
        <ele>829</ele>
        <time>2020-06-24T10:19:49.172Z</time>
      </trkpt>
      <trkpt lat="48.39648" lon="7.29621">
        <ele>829</ele>
        <time>2020-06-24T10:19:50.173Z</time>
      </trkpt>
      <trkpt lat="48.3965" lon="7.29621">
        <ele>829</ele>
        <time>2020-06-24T10:19:51.173Z</time>
      </trkpt>
      <trkpt lat="48.39652" lon="7.2962">
        <ele>828</ele>
        <time>2020-06-24T10:19:52.172Z</time>
      </trkpt>
      <trkpt lat="48.39653" lon="7.29619">
        <ele>828</ele>
        <time>2020-06-24T10:19:53.173Z</time>
      </trkpt>
      <trkpt lat="48.39653" lon="7.29619">
        <ele>828</ele>
        <time>2020-06-24T10:19:54.173Z</time>
      </trkpt>
      <trkpt lat="48.39654" lon="7.29619">
        <ele>828</ele>
        <time>2020-06-24T10:19:55.173Z</time>
      </trkpt>
      <trkpt lat="48.39656" lon="7.29618">
        <ele>827</ele>
        <time>2020-06-24T10:19:56.173Z</time>
      </trkpt>
      <trkpt lat="48.39658" lon="7.29617">
        <ele>827</ele>
        <time>2020-06-24T10:19:57.172Z</time>
      </trkpt>
      <trkpt lat="48.3966" lon="7.29617">
        <ele>827</ele>
        <time>2020-06-24T10:19:58.172Z</time>
      </trkpt>
      <trkpt lat="48.39662" lon="7.29617">
        <ele>827</ele>
        <time>2020-06-24T10:19:59.173Z</time>
      </trkpt>
      <trkpt lat="48.39664" lon="7.29616">
        <ele>827</ele>
        <time>2020-06-24T10:20:00.172Z</time>
      </trkpt>
      <trkpt lat="48.39666" lon="7.29616">
        <ele>827</ele>
        <time>2020-06-24T10:20:01.173Z</time>
      </trkpt>
      <trkpt lat="48.39667" lon="7.29616">
        <ele>827</ele>
        <time>2020-06-24T10:20:02.173Z</time>
      </trkpt>
      <trkpt lat="48.39669" lon="7.29616">
        <ele>827</ele>
        <time>2020-06-24T10:20:03.173Z</time>
      </trkpt>
      <trkpt lat="48.39671" lon="7.29615">
        <ele>827</ele>
        <time>2020-06-24T10:20:04.173Z</time>
      </trkpt>
      <trkpt lat="48.39673" lon="7.29614">
        <ele>828</ele>
        <time>2020-06-24T10:20:05.173Z</time>
      </trkpt>
      <trkpt lat="48.39674" lon="7.29614">
        <ele>828</ele>
        <time>2020-06-24T10:20:06.173Z</time>
      </trkpt>
      <trkpt lat="48.39676" lon="7.29614">
        <ele>828</ele>
        <time>2020-06-24T10:20:07.173Z</time>
      </trkpt>
      <trkpt lat="48.39678" lon="7.29614">
        <ele>828</ele>
        <time>2020-06-24T10:20:08.172Z</time>
      </trkpt>
      <trkpt lat="48.3968" lon="7.29614">
        <ele>827</ele>
        <time>2020-06-24T10:20:09.172Z</time>
      </trkpt>
      <trkpt lat="48.39681" lon="7.29614">
        <ele>827</ele>
        <time>2020-06-24T10:20:10.173Z</time>
      </trkpt>
      <trkpt lat="48.39682" lon="7.29614">
        <ele>827</ele>
        <time>2020-06-24T10:20:11.173Z</time>
      </trkpt>
      <trkpt lat="48.39683" lon="7.29614">
        <ele>827</ele>
        <time>2020-06-24T10:20:12.173Z</time>
      </trkpt>
      <trkpt lat="48.39685" lon="7.29614">
        <ele>827</ele>
        <time>2020-06-24T10:20:13.173Z</time>
      </trkpt>
      <trkpt lat="48.39688" lon="7.29613">
        <ele>827</ele>
        <time>2020-06-24T10:20:14.173Z</time>
      </trkpt>
      <trkpt lat="48.3969" lon="7.29611">
        <ele>827</ele>
        <time>2020-06-24T10:20:15.172Z</time>
      </trkpt>
      <trkpt lat="48.39692" lon="7.29611">
        <ele>827</ele>
        <time>2020-06-24T10:20:16.172Z</time>
      </trkpt>
      <trkpt lat="48.39695" lon="7.29611">
        <ele>826</ele>
        <time>2020-06-24T10:20:17.173Z</time>
      </trkpt>
      <trkpt lat="48.39697" lon="7.29612">
        <ele>825</ele>
        <time>2020-06-24T10:20:18.173Z</time>
      </trkpt>
      <trkpt lat="48.39698" lon="7.29611">
        <ele>825</ele>
        <time>2020-06-24T10:20:19.173Z</time>
      </trkpt>
      <trkpt lat="48.397" lon="7.2961">
        <ele>825</ele>
        <time>2020-06-24T10:20:20.173Z</time>
      </trkpt>
      <trkpt lat="48.39702" lon="7.29609">
        <ele>825</ele>
        <time>2020-06-24T10:20:21.173Z</time>
      </trkpt>
      <trkpt lat="48.39704" lon="7.2961">
        <ele>825</ele>
        <time>2020-06-24T10:20:22.173Z</time>
      </trkpt>
      <trkpt lat="48.39706" lon="7.29611">
        <ele>824</ele>
        <time>2020-06-24T10:20:23.173Z</time>
      </trkpt>
      <trkpt lat="48.39708" lon="7.29611">
        <ele>824</ele>
        <time>2020-06-24T10:20:24.173Z</time>
      </trkpt>
      <trkpt lat="48.39709" lon="7.29611">
        <ele>824</ele>
        <time>2020-06-24T10:20:25.172Z</time>
      </trkpt>
      <trkpt lat="48.3971" lon="7.29611">
        <ele>824</ele>
        <time>2020-06-24T10:20:26.173Z</time>
      </trkpt>
      <trkpt lat="48.39711" lon="7.29611">
        <ele>823</ele>
        <time>2020-06-24T10:20:27.173Z</time>
      </trkpt>
      <trkpt lat="48.39713" lon="7.29612">
        <ele>823</ele>
        <time>2020-06-24T10:20:28.173Z</time>
      </trkpt>
      <trkpt lat="48.39714" lon="7.29612">
        <ele>824</ele>
        <time>2020-06-24T10:20:29.172Z</time>
      </trkpt>
      <trkpt lat="48.39716" lon="7.29613">
        <ele>824</ele>
        <time>2020-06-24T10:20:30.173Z</time>
      </trkpt>
      <trkpt lat="48.39717" lon="7.29613">
        <ele>824</ele>
        <time>2020-06-24T10:20:31.173Z</time>
      </trkpt>
      <trkpt lat="48.39718" lon="7.29613">
        <ele>825</ele>
        <time>2020-06-24T10:20:32.173Z</time>
      </trkpt>
      <trkpt lat="48.39719" lon="7.29614">
        <ele>825</ele>
        <time>2020-06-24T10:20:33.172Z</time>
      </trkpt>
      <trkpt lat="48.3972" lon="7.29614">
        <ele>826</ele>
        <time>2020-06-24T10:20:34.173Z</time>
      </trkpt>
      <trkpt lat="48.39721" lon="7.29615">
        <ele>826</ele>
        <time>2020-06-24T10:20:35.173Z</time>
      </trkpt>
      <trkpt lat="48.39723" lon="7.29616">
        <ele>826</ele>
        <time>2020-06-24T10:20:36.173Z</time>
      </trkpt>
      <trkpt lat="48.39724" lon="7.29616">
        <ele>826</ele>
        <time>2020-06-24T10:20:37.172Z</time>
      </trkpt>
      <trkpt lat="48.39725" lon="7.29616">
        <ele>826</ele>
        <time>2020-06-24T10:20:38.172Z</time>
      </trkpt>
      <trkpt lat="48.39727" lon="7.29617">
        <ele>826</ele>
        <time>2020-06-24T10:20:39.173Z</time>
      </trkpt>
      <trkpt lat="48.39728" lon="7.29618">
        <ele>826</ele>
        <time>2020-06-24T10:20:40.172Z</time>
      </trkpt>
      <trkpt lat="48.3973" lon="7.29618">
        <ele>826</ele>
        <time>2020-06-24T10:20:41.172Z</time>
      </trkpt>
      <trkpt lat="48.39731" lon="7.29619">
        <ele>825</ele>
        <time>2020-06-24T10:20:42.172Z</time>
      </trkpt>
      <trkpt lat="48.39733" lon="7.29619">
        <ele>825</ele>
        <time>2020-06-24T10:20:43.173Z</time>
      </trkpt>
      <trkpt lat="48.39735" lon="7.29618">
        <ele>825</ele>
        <time>2020-06-24T10:20:44.173Z</time>
      </trkpt>
      <trkpt lat="48.39738" lon="7.29619">
        <ele>824</ele>
        <time>2020-06-24T10:20:45.173Z</time>
      </trkpt>
      <trkpt lat="48.39741" lon="7.29619">
        <ele>824</ele>
        <time>2020-06-24T10:20:46.173Z</time>
      </trkpt>
      <trkpt lat="48.39742" lon="7.29619">
        <ele>824</ele>
        <time>2020-06-24T10:20:47.173Z</time>
      </trkpt>
      <trkpt lat="48.39744" lon="7.2962">
        <ele>824</ele>
        <time>2020-06-24T10:20:48.173Z</time>
      </trkpt>
      <trkpt lat="48.39744" lon="7.2962">
        <ele>824</ele>
        <time>2020-06-24T10:20:49.173Z</time>
      </trkpt>
      <trkpt lat="48.39745" lon="7.29621">
        <ele>824</ele>
        <time>2020-06-24T10:20:50.172Z</time>
      </trkpt>
      <trkpt lat="48.39747" lon="7.29623">
        <ele>824</ele>
        <time>2020-06-24T10:20:51.173Z</time>
      </trkpt>
      <trkpt lat="48.39748" lon="7.29624">
        <ele>825</ele>
        <time>2020-06-24T10:20:52.173Z</time>
      </trkpt>
      <trkpt lat="48.3975" lon="7.29625">
        <ele>825</ele>
        <time>2020-06-24T10:20:53.172Z</time>
      </trkpt>
      <trkpt lat="48.39751" lon="7.29626">
        <ele>825</ele>
        <time>2020-06-24T10:20:54.173Z</time>
      </trkpt>
      <trkpt lat="48.39753" lon="7.29627">
        <ele>825</ele>
        <time>2020-06-24T10:20:55.173Z</time>
      </trkpt>
      <trkpt lat="48.39754" lon="7.29627">
        <ele>826</ele>
        <time>2020-06-24T10:20:56.172Z</time>
      </trkpt>
      <trkpt lat="48.39755" lon="7.29628">
        <ele>826</ele>
        <time>2020-06-24T10:20:57.173Z</time>
      </trkpt>
      <trkpt lat="48.39757" lon="7.29628">
        <ele>827</ele>
        <time>2020-06-24T10:20:58.172Z</time>
      </trkpt>
      <trkpt lat="48.39758" lon="7.29629">
        <ele>827</ele>
        <time>2020-06-24T10:20:59.173Z</time>
      </trkpt>
      <trkpt lat="48.3976" lon="7.29629">
        <ele>828</ele>
        <time>2020-06-24T10:21:00.172Z</time>
      </trkpt>
      <trkpt lat="48.39761" lon="7.2963">
        <ele>828</ele>
        <time>2020-06-24T10:21:01.173Z</time>
      </trkpt>
      <trkpt lat="48.39763" lon="7.29631">
        <ele>828</ele>
        <time>2020-06-24T10:21:02.172Z</time>
      </trkpt>
      <trkpt lat="48.39764" lon="7.29631">
        <ele>828</ele>
        <time>2020-06-24T10:21:03.173Z</time>
      </trkpt>
      <trkpt lat="48.39766" lon="7.29632">
        <ele>829</ele>
        <time>2020-06-24T10:21:04.173Z</time>
      </trkpt>
      <trkpt lat="48.39767" lon="7.29632">
        <ele>829</ele>
        <time>2020-06-24T10:21:05.173Z</time>
      </trkpt>
      <trkpt lat="48.39769" lon="7.29633">
        <ele>829</ele>
        <time>2020-06-24T10:21:06.172Z</time>
      </trkpt>
      <trkpt lat="48.39771" lon="7.29633">
        <ele>829</ele>
        <time>2020-06-24T10:21:07.173Z</time>
      </trkpt>
      <trkpt lat="48.39772" lon="7.29634">
        <ele>829</ele>
        <time>2020-06-24T10:21:08.173Z</time>
      </trkpt>
      <trkpt lat="48.39773" lon="7.29634">
        <ele>829</ele>
        <time>2020-06-24T10:21:09.172Z</time>
      </trkpt>
      <trkpt lat="48.39774" lon="7.29635">
        <ele>829</ele>
        <time>2020-06-24T10:21:10.172Z</time>
      </trkpt>
      <trkpt lat="48.39775" lon="7.29635">
        <ele>829</ele>
        <time>2020-06-24T10:21:11.173Z</time>
      </trkpt>
      <trkpt lat="48.39776" lon="7.29636">
        <ele>829</ele>
        <time>2020-06-24T10:21:12.173Z</time>
      </trkpt>
      <trkpt lat="48.39778" lon="7.29637">
        <ele>829</ele>
        <time>2020-06-24T10:21:13.172Z</time>
      </trkpt>
      <trkpt lat="48.3978" lon="7.29638">
        <ele>830</ele>
        <time>2020-06-24T10:21:14.172Z</time>
      </trkpt>
      <trkpt lat="48.39781" lon="7.29638">
        <ele>830</ele>
        <time>2020-06-24T10:21:15.173Z</time>
      </trkpt>
      <trkpt lat="48.39783" lon="7.29639">
        <ele>830</ele>
        <time>2020-06-24T10:21:16.172Z</time>
      </trkpt>
      <trkpt lat="48.39784" lon="7.29639">
        <ele>830</ele>
        <time>2020-06-24T10:21:17.173Z</time>
      </trkpt>
      <trkpt lat="48.39786" lon="7.2964">
        <ele>831</ele>
        <time>2020-06-24T10:21:18.173Z</time>
      </trkpt>
      <trkpt lat="48.39787" lon="7.2964">
        <ele>831</ele>
        <time>2020-06-24T10:21:19.173Z</time>
      </trkpt>
      <trkpt lat="48.39788" lon="7.2964">
        <ele>831</ele>
        <time>2020-06-24T10:21:20.172Z</time>
      </trkpt>
      <trkpt lat="48.3979" lon="7.2964">
        <ele>831</ele>
        <time>2020-06-24T10:21:21.172Z</time>
      </trkpt>
      <trkpt lat="48.39791" lon="7.29641">
        <ele>831</ele>
        <time>2020-06-24T10:21:22.172Z</time>
      </trkpt>
      <trkpt lat="48.39792" lon="7.29641">
        <ele>831</ele>
        <time>2020-06-24T10:21:23.172Z</time>
      </trkpt>
      <trkpt lat="48.39794" lon="7.29641">
        <ele>831</ele>
        <time>2020-06-24T10:21:24.172Z</time>
      </trkpt>
      <trkpt lat="48.39796" lon="7.29641">
        <ele>831</ele>
        <time>2020-06-24T10:21:25.172Z</time>
      </trkpt>
      <trkpt lat="48.39798" lon="7.29641">
        <ele>830</ele>
        <time>2020-06-24T10:21:26.173Z</time>
      </trkpt>
      <trkpt lat="48.398" lon="7.29642">
        <ele>830</ele>
        <time>2020-06-24T10:21:27.172Z</time>
      </trkpt>
      <trkpt lat="48.39803" lon="7.29643">
        <ele>830</ele>
        <time>2020-06-24T10:21:28.173Z</time>
      </trkpt>
      <trkpt lat="48.39806" lon="7.29643">
        <ele>830</ele>
        <time>2020-06-24T10:21:29.173Z</time>
      </trkpt>
      <trkpt lat="48.39808" lon="7.29644">
        <ele>830</ele>
        <time>2020-06-24T10:21:30.173Z</time>
      </trkpt>
      <trkpt lat="48.39809" lon="7.29645">
        <ele>830</ele>
        <time>2020-06-24T10:21:31.172Z</time>
      </trkpt>
      <trkpt lat="48.39809" lon="7.29645">
        <ele>830</ele>
        <time>2020-06-24T10:21:32.173Z</time>
      </trkpt>
      <trkpt lat="48.3981" lon="7.29646">
        <ele>830</ele>
        <time>2020-06-24T10:21:33.172Z</time>
      </trkpt>
      <trkpt lat="48.39812" lon="7.29646">
        <ele>830</ele>
        <time>2020-06-24T10:21:34.173Z</time>
      </trkpt>
      <trkpt lat="48.39813" lon="7.29647">
        <ele>830</ele>
        <time>2020-06-24T10:21:35.172Z</time>
      </trkpt>
      <trkpt lat="48.39815" lon="7.29648">
        <ele>830</ele>
        <time>2020-06-24T10:21:36.173Z</time>
      </trkpt>
      <trkpt lat="48.39816" lon="7.29648">
        <ele>830</ele>
        <time>2020-06-24T10:21:37.173Z</time>
      </trkpt>
      <trkpt lat="48.39818" lon="7.29649">
        <ele>830</ele>
        <time>2020-06-24T10:21:38.173Z</time>
      </trkpt>
      <trkpt lat="48.39818" lon="7.29649">
        <ele>830</ele>
        <time>2020-06-24T10:21:39.172Z</time>
      </trkpt>
      <trkpt lat="48.39819" lon="7.29649">
        <ele>830</ele>
        <time>2020-06-24T10:21:40.172Z</time>
      </trkpt>
      <trkpt lat="48.3982" lon="7.2965">
        <ele>830</ele>
        <time>2020-06-24T10:21:41.172Z</time>
      </trkpt>
      <trkpt lat="48.39821" lon="7.29651">
        <ele>830</ele>
        <time>2020-06-24T10:21:42.172Z</time>
      </trkpt>
      <trkpt lat="48.39823" lon="7.29651">
        <ele>830</ele>
        <time>2020-06-24T10:21:43.172Z</time>
      </trkpt>
      <trkpt lat="48.39824" lon="7.29652">
        <ele>830</ele>
        <time>2020-06-24T10:21:44.173Z</time>
      </trkpt>
      <trkpt lat="48.39826" lon="7.29654">
        <ele>830</ele>
        <time>2020-06-24T10:21:45.173Z</time>
      </trkpt>
      <trkpt lat="48.39827" lon="7.29655">
        <ele>830</ele>
        <time>2020-06-24T10:21:46.173Z</time>
      </trkpt>
      <trkpt lat="48.39828" lon="7.29656">
        <ele>830</ele>
        <time>2020-06-24T10:21:47.173Z</time>
      </trkpt>
      <trkpt lat="48.3983" lon="7.29657">
        <ele>830</ele>
        <time>2020-06-24T10:21:48.173Z</time>
      </trkpt>
      <trkpt lat="48.39832" lon="7.29658">
        <ele>831</ele>
        <time>2020-06-24T10:21:49.173Z</time>
      </trkpt>
      <trkpt lat="48.39834" lon="7.29659">
        <ele>831</ele>
        <time>2020-06-24T10:21:50.172Z</time>
      </trkpt>
      <trkpt lat="48.39835" lon="7.29661">
        <ele>831</ele>
        <time>2020-06-24T10:21:51.173Z</time>
      </trkpt>
      <trkpt lat="48.39837" lon="7.29663">
        <ele>831</ele>
        <time>2020-06-24T10:21:52.173Z</time>
      </trkpt>
      <trkpt lat="48.39839" lon="7.29664">
        <ele>831</ele>
        <time>2020-06-24T10:21:53.172Z</time>
      </trkpt>
      <trkpt lat="48.3984" lon="7.29664">
        <ele>831</ele>
        <time>2020-06-24T10:21:54.173Z</time>
      </trkpt>
      <trkpt lat="48.39841" lon="7.29665">
        <ele>832</ele>
        <time>2020-06-24T10:21:55.173Z</time>
      </trkpt>
      <trkpt lat="48.39843" lon="7.29665">
        <ele>832</ele>
        <time>2020-06-24T10:21:56.172Z</time>
      </trkpt>
      <trkpt lat="48.39844" lon="7.29665">
        <ele>832</ele>
        <time>2020-06-24T10:21:57.173Z</time>
      </trkpt>
      <trkpt lat="48.39845" lon="7.29666">
        <ele>832</ele>
        <time>2020-06-24T10:21:58.173Z</time>
      </trkpt>
      <trkpt lat="48.39847" lon="7.29668">
        <ele>832</ele>
        <time>2020-06-24T10:21:59.172Z</time>
      </trkpt>
      <trkpt lat="48.39848" lon="7.29669">
        <ele>833</ele>
        <time>2020-06-24T10:22:00.172Z</time>
      </trkpt>
      <trkpt lat="48.39849" lon="7.29669">
        <ele>833</ele>
        <time>2020-06-24T10:22:01.173Z</time>
      </trkpt>
      <trkpt lat="48.39851" lon="7.29669">
        <ele>833</ele>
        <time>2020-06-24T10:22:02.173Z</time>
      </trkpt>
      <trkpt lat="48.39853" lon="7.29669">
        <ele>833</ele>
        <time>2020-06-24T10:22:03.172Z</time>
      </trkpt>
      <trkpt lat="48.39854" lon="7.29669">
        <ele>833</ele>
        <time>2020-06-24T10:22:04.173Z</time>
      </trkpt>
      <trkpt lat="48.39855" lon="7.29669">
        <ele>833</ele>
        <time>2020-06-24T10:22:05.172Z</time>
      </trkpt>
      <trkpt lat="48.39856" lon="7.29669">
        <ele>833</ele>
        <time>2020-06-24T10:22:06.173Z</time>
      </trkpt>
      <trkpt lat="48.39857" lon="7.29668">
        <ele>834</ele>
        <time>2020-06-24T10:22:07.173Z</time>
      </trkpt>
      <trkpt lat="48.39858" lon="7.29667">
        <ele>834</ele>
        <time>2020-06-24T10:22:08.173Z</time>
      </trkpt>
      <trkpt lat="48.39859" lon="7.29666">
        <ele>834</ele>
        <time>2020-06-24T10:22:09.172Z</time>
      </trkpt>
      <trkpt lat="48.39861" lon="7.29665">
        <ele>835</ele>
        <time>2020-06-24T10:22:10.173Z</time>
      </trkpt>
      <trkpt lat="48.39862" lon="7.29664">
        <ele>835</ele>
        <time>2020-06-24T10:22:11.172Z</time>
      </trkpt>
      <trkpt lat="48.39863" lon="7.29664">
        <ele>836</ele>
        <time>2020-06-24T10:22:12.172Z</time>
      </trkpt>
      <trkpt lat="48.39864" lon="7.29663">
        <ele>837</ele>
        <time>2020-06-24T10:22:13.173Z</time>
      </trkpt>
      <trkpt lat="48.39865" lon="7.29662">
        <ele>837</ele>
        <time>2020-06-24T10:22:14.173Z</time>
      </trkpt>
      <trkpt lat="48.39867" lon="7.29661">
        <ele>838</ele>
        <time>2020-06-24T10:22:15.173Z</time>
      </trkpt>
      <trkpt lat="48.39869" lon="7.29659">
        <ele>837</ele>
        <time>2020-06-24T10:22:16.172Z</time>
      </trkpt>
      <trkpt lat="48.39871" lon="7.29659">
        <ele>837</ele>
        <time>2020-06-24T10:22:17.172Z</time>
      </trkpt>
      <trkpt lat="48.39873" lon="7.29658">
        <ele>837</ele>
        <time>2020-06-24T10:22:18.173Z</time>
      </trkpt>
      <trkpt lat="48.39874" lon="7.29657">
        <ele>837</ele>
        <time>2020-06-24T10:22:19.173Z</time>
      </trkpt>
      <trkpt lat="48.39876" lon="7.29656">
        <ele>837</ele>
        <time>2020-06-24T10:22:20.173Z</time>
      </trkpt>
      <trkpt lat="48.39877" lon="7.29654">
        <ele>837</ele>
        <time>2020-06-24T10:22:21.173Z</time>
      </trkpt>
      <trkpt lat="48.39879" lon="7.29653">
        <ele>837</ele>
        <time>2020-06-24T10:22:22.173Z</time>
      </trkpt>
      <trkpt lat="48.39881" lon="7.29654">
        <ele>837</ele>
        <time>2020-06-24T10:22:23.173Z</time>
      </trkpt>
      <trkpt lat="48.39883" lon="7.29652">
        <ele>837</ele>
        <time>2020-06-24T10:22:24.172Z</time>
      </trkpt>
      <trkpt lat="48.39884" lon="7.29652">
        <ele>837</ele>
        <time>2020-06-24T10:22:25.173Z</time>
      </trkpt>
      <trkpt lat="48.39885" lon="7.29651">
        <ele>837</ele>
        <time>2020-06-24T10:22:26.173Z</time>
      </trkpt>
      <trkpt lat="48.39887" lon="7.2965">
        <ele>837</ele>
        <time>2020-06-24T10:22:27.173Z</time>
      </trkpt>
      <trkpt lat="48.39887" lon="7.29649">
        <ele>837</ele>
        <time>2020-06-24T10:22:28.172Z</time>
      </trkpt>
      <trkpt lat="48.39888" lon="7.29648">
        <ele>837</ele>
        <time>2020-06-24T10:22:29.173Z</time>
      </trkpt>
      <trkpt lat="48.3989" lon="7.29647">
        <ele>836</ele>
        <time>2020-06-24T10:22:30.173Z</time>
      </trkpt>
      <trkpt lat="48.39891" lon="7.29646">
        <ele>836</ele>
        <time>2020-06-24T10:22:31.173Z</time>
      </trkpt>
      <trkpt lat="48.39892" lon="7.29645">
        <ele>836</ele>
        <time>2020-06-24T10:22:32.173Z</time>
      </trkpt>
      <trkpt lat="48.39893" lon="7.29644">
        <ele>836</ele>
        <time>2020-06-24T10:22:33.172Z</time>
      </trkpt>
      <trkpt lat="48.39894" lon="7.29643">
        <ele>836</ele>
        <time>2020-06-24T10:22:34.173Z</time>
      </trkpt>
      <trkpt lat="48.39895" lon="7.29641">
        <ele>836</ele>
        <time>2020-06-24T10:22:35.173Z</time>
      </trkpt>
      <trkpt lat="48.39896" lon="7.29639">
        <ele>836</ele>
        <time>2020-06-24T10:22:36.173Z</time>
      </trkpt>
      <trkpt lat="48.39896" lon="7.29639">
        <ele>836</ele>
        <time>2020-06-24T10:22:37.173Z</time>
      </trkpt>
      <trkpt lat="48.39897" lon="7.29638">
        <ele>836</ele>
        <time>2020-06-24T10:22:38.173Z</time>
      </trkpt>
      <trkpt lat="48.39899" lon="7.29639">
        <ele>836</ele>
        <time>2020-06-24T10:22:39.173Z</time>
      </trkpt>
      <trkpt lat="48.399" lon="7.2964">
        <ele>836</ele>
        <time>2020-06-24T10:22:40.173Z</time>
      </trkpt>
      <trkpt lat="48.39901" lon="7.2964">
        <ele>837</ele>
        <time>2020-06-24T10:22:41.172Z</time>
      </trkpt>
      <trkpt lat="48.39903" lon="7.29641">
        <ele>837</ele>
        <time>2020-06-24T10:22:42.173Z</time>
      </trkpt>
      <trkpt lat="48.39904" lon="7.29642">
        <ele>838</ele>
        <time>2020-06-24T10:22:43.173Z</time>
      </trkpt>
      <trkpt lat="48.39905" lon="7.29642">
        <ele>838</ele>
        <time>2020-06-24T10:22:44.173Z</time>
      </trkpt>
      <trkpt lat="48.39906" lon="7.29644">
        <ele>839</ele>
        <time>2020-06-24T10:22:45.173Z</time>
      </trkpt>
      <trkpt lat="48.39907" lon="7.29645">
        <ele>839</ele>
        <time>2020-06-24T10:22:46.173Z</time>
      </trkpt>
      <trkpt lat="48.39907" lon="7.29646">
        <ele>839</ele>
        <time>2020-06-24T10:22:47.173Z</time>
      </trkpt>
      <trkpt lat="48.39908" lon="7.29647">
        <ele>839</ele>
        <time>2020-06-24T10:22:48.173Z</time>
      </trkpt>
      <trkpt lat="48.39909" lon="7.29648">
        <ele>839</ele>
        <time>2020-06-24T10:22:49.172Z</time>
      </trkpt>
      <trkpt lat="48.3991" lon="7.29649">
        <ele>839</ele>
        <time>2020-06-24T10:22:50.172Z</time>
      </trkpt>
      <trkpt lat="48.39911" lon="7.29649">
        <ele>839</ele>
        <time>2020-06-24T10:22:51.173Z</time>
      </trkpt>
      <trkpt lat="48.39912" lon="7.29649">
        <ele>839</ele>
        <time>2020-06-24T10:22:52.173Z</time>
      </trkpt>
      <trkpt lat="48.39913" lon="7.29649">
        <ele>839</ele>
        <time>2020-06-24T10:22:53.173Z</time>
      </trkpt>
      <trkpt lat="48.39913" lon="7.29651">
        <ele>838</ele>
        <time>2020-06-24T10:22:54.173Z</time>
      </trkpt>
      <trkpt lat="48.39914" lon="7.29652">
        <ele>838</ele>
        <time>2020-06-24T10:22:55.173Z</time>
      </trkpt>
      <trkpt lat="48.39915" lon="7.29654">
        <ele>837</ele>
        <time>2020-06-24T10:22:56.173Z</time>
      </trkpt>
      <trkpt lat="48.39916" lon="7.29656">
        <ele>837</ele>
        <time>2020-06-24T10:22:57.172Z</time>
      </trkpt>
      <trkpt lat="48.39917" lon="7.29658">
        <ele>837</ele>
        <time>2020-06-24T10:22:58.173Z</time>
      </trkpt>
      <trkpt lat="48.39917" lon="7.2966">
        <ele>837</ele>
        <time>2020-06-24T10:22:59.172Z</time>
      </trkpt>
      <trkpt lat="48.39917" lon="7.29663">
        <ele>836</ele>
        <time>2020-06-24T10:23:00.172Z</time>
      </trkpt>
      <trkpt lat="48.39917" lon="7.29665">
        <ele>836</ele>
        <time>2020-06-24T10:23:01.173Z</time>
      </trkpt>
      <trkpt lat="48.39917" lon="7.29667">
        <ele>836</ele>
        <time>2020-06-24T10:23:02.172Z</time>
      </trkpt>
      <trkpt lat="48.39918" lon="7.2967">
        <ele>835</ele>
        <time>2020-06-24T10:23:03.173Z</time>
      </trkpt>
      <trkpt lat="48.39918" lon="7.29672">
        <ele>835</ele>
        <time>2020-06-24T10:23:04.172Z</time>
      </trkpt>
      <trkpt lat="48.39919" lon="7.29675">
        <ele>835</ele>
        <time>2020-06-24T10:23:05.172Z</time>
      </trkpt>
      <trkpt lat="48.3992" lon="7.29677">
        <ele>834</ele>
        <time>2020-06-24T10:23:06.173Z</time>
      </trkpt>
      <trkpt lat="48.39922" lon="7.29679">
        <ele>834</ele>
        <time>2020-06-24T10:23:07.173Z</time>
      </trkpt>
      <trkpt lat="48.39923" lon="7.2968">
        <ele>834</ele>
        <time>2020-06-24T10:23:08.172Z</time>
      </trkpt>
      <trkpt lat="48.39925" lon="7.29682">
        <ele>833</ele>
        <time>2020-06-24T10:23:09.172Z</time>
      </trkpt>
      <trkpt lat="48.39926" lon="7.29684">
        <ele>833</ele>
        <time>2020-06-24T10:23:10.172Z</time>
      </trkpt>
      <trkpt lat="48.39926" lon="7.29686">
        <ele>832</ele>
        <time>2020-06-24T10:23:11.173Z</time>
      </trkpt>
      <trkpt lat="48.39928" lon="7.29688">
        <ele>831</ele>
        <time>2020-06-24T10:23:12.172Z</time>
      </trkpt>
      <trkpt lat="48.3993" lon="7.29691">
        <ele>831</ele>
        <time>2020-06-24T10:23:13.173Z</time>
      </trkpt>
      <trkpt lat="48.39932" lon="7.29694">
        <ele>830</ele>
        <time>2020-06-24T10:23:14.172Z</time>
      </trkpt>
      <trkpt lat="48.39932" lon="7.29695">
        <ele>829</ele>
        <time>2020-06-24T10:23:15.173Z</time>
      </trkpt>
      <trkpt lat="48.39933" lon="7.29697">
        <ele>828</ele>
        <time>2020-06-24T10:23:16.172Z</time>
      </trkpt>
      <trkpt lat="48.39934" lon="7.29699">
        <ele>827</ele>
        <time>2020-06-24T10:23:17.173Z</time>
      </trkpt>
      <trkpt lat="48.39935" lon="7.297">
        <ele>826</ele>
        <time>2020-06-24T10:23:18.172Z</time>
      </trkpt>
      <trkpt lat="48.39935" lon="7.29702">
        <ele>826</ele>
        <time>2020-06-24T10:23:19.173Z</time>
      </trkpt>
      <trkpt lat="48.39935" lon="7.29704">
        <ele>825</ele>
        <time>2020-06-24T10:23:20.172Z</time>
      </trkpt>
      <trkpt lat="48.39935" lon="7.29706">
        <ele>825</ele>
        <time>2020-06-24T10:23:21.172Z</time>
      </trkpt>
      <trkpt lat="48.39935" lon="7.29708">
        <ele>825</ele>
        <time>2020-06-24T10:23:22.172Z</time>
      </trkpt>
      <trkpt lat="48.39935" lon="7.2971">
        <ele>824</ele>
        <time>2020-06-24T10:23:23.173Z</time>
      </trkpt>
      <trkpt lat="48.39935" lon="7.29712">
        <ele>824</ele>
        <time>2020-06-24T10:23:24.172Z</time>
      </trkpt>
      <trkpt lat="48.39936" lon="7.29713">
        <ele>825</ele>
        <time>2020-06-24T10:23:25.172Z</time>
      </trkpt>
      <trkpt lat="48.39937" lon="7.29714">
        <ele>824</ele>
        <time>2020-06-24T10:23:26.172Z</time>
      </trkpt>
      <trkpt lat="48.39938" lon="7.29715">
        <ele>824</ele>
        <time>2020-06-24T10:23:27.173Z</time>
      </trkpt>
      <trkpt lat="48.39939" lon="7.29717">
        <ele>824</ele>
        <time>2020-06-24T10:23:28.173Z</time>
      </trkpt>
      <trkpt lat="48.39939" lon="7.29719">
        <ele>823</ele>
        <time>2020-06-24T10:23:29.173Z</time>
      </trkpt>
      <trkpt lat="48.39939" lon="7.2972">
        <ele>823</ele>
        <time>2020-06-24T10:23:30.172Z</time>
      </trkpt>
      <trkpt lat="48.39939" lon="7.29721">
        <ele>822</ele>
        <time>2020-06-24T10:23:31.173Z</time>
      </trkpt>
      <trkpt lat="48.39939" lon="7.29723">
        <ele>822</ele>
        <time>2020-06-24T10:23:32.172Z</time>
      </trkpt>
      <trkpt lat="48.3994" lon="7.29725">
        <ele>822</ele>
        <time>2020-06-24T10:23:33.173Z</time>
      </trkpt>
      <trkpt lat="48.3994" lon="7.29725">
        <ele>821</ele>
        <time>2020-06-24T10:23:34.172Z</time>
      </trkpt>
      <trkpt lat="48.3994" lon="7.29726">
        <ele>821</ele>
        <time>2020-06-24T10:23:35.172Z</time>
      </trkpt>
      <trkpt lat="48.3994" lon="7.29726">
        <ele>820</ele>
        <time>2020-06-24T10:23:36.173Z</time>
      </trkpt>
      <trkpt lat="48.39941" lon="7.29727">
        <ele>820</ele>
        <time>2020-06-24T10:23:37.173Z</time>
      </trkpt>
      <trkpt lat="48.39942" lon="7.29728">
        <ele>819</ele>
        <time>2020-06-24T10:23:38.173Z</time>
      </trkpt>
      <trkpt lat="48.39943" lon="7.2973">
        <ele>819</ele>
        <time>2020-06-24T10:23:39.172Z</time>
      </trkpt>
      <trkpt lat="48.39944" lon="7.29731">
        <ele>819</ele>
        <time>2020-06-24T10:23:40.173Z</time>
      </trkpt>
      <trkpt lat="48.39945" lon="7.29734">
        <ele>818</ele>
        <time>2020-06-24T10:23:41.172Z</time>
      </trkpt>
      <trkpt lat="48.39946" lon="7.29735">
        <ele>818</ele>
        <time>2020-06-24T10:23:42.173Z</time>
      </trkpt>
      <trkpt lat="48.39946" lon="7.29736">
        <ele>818</ele>
        <time>2020-06-24T10:23:43.172Z</time>
      </trkpt>
      <trkpt lat="48.39947" lon="7.29737">
        <ele>818</ele>
        <time>2020-06-24T10:23:44.172Z</time>
      </trkpt>
      <trkpt lat="48.39948" lon="7.29738">
        <ele>818</ele>
        <time>2020-06-24T10:23:45.173Z</time>
      </trkpt>
      <trkpt lat="48.39949" lon="7.2974">
        <ele>818</ele>
        <time>2020-06-24T10:23:46.173Z</time>
      </trkpt>
      <trkpt lat="48.3995" lon="7.29742">
        <ele>819</ele>
        <time>2020-06-24T10:23:47.173Z</time>
      </trkpt>
      <trkpt lat="48.3995" lon="7.29743">
        <ele>819</ele>
        <time>2020-06-24T10:23:48.173Z</time>
      </trkpt>
      <trkpt lat="48.39951" lon="7.29745">
        <ele>820</ele>
        <time>2020-06-24T10:23:49.173Z</time>
      </trkpt>
      <trkpt lat="48.39952" lon="7.29747">
        <ele>820</ele>
        <time>2020-06-24T10:23:50.173Z</time>
      </trkpt>
      <trkpt lat="48.39953" lon="7.29749">
        <ele>821</ele>
        <time>2020-06-24T10:23:51.172Z</time>
      </trkpt>
      <trkpt lat="48.39954" lon="7.29751">
        <ele>821</ele>
        <time>2020-06-24T10:23:52.173Z</time>
      </trkpt>
      <trkpt lat="48.39955" lon="7.29753">
        <ele>822</ele>
        <time>2020-06-24T10:23:53.172Z</time>
      </trkpt>
      <trkpt lat="48.39956" lon="7.29755">
        <ele>822</ele>
        <time>2020-06-24T10:23:54.173Z</time>
      </trkpt>
      <trkpt lat="48.39957" lon="7.29758">
        <ele>822</ele>
        <time>2020-06-24T10:23:55.172Z</time>
      </trkpt>
      <trkpt lat="48.39958" lon="7.2976">
        <ele>823</ele>
        <time>2020-06-24T10:23:56.173Z</time>
      </trkpt>
      <trkpt lat="48.39958" lon="7.29762">
        <ele>823</ele>
        <time>2020-06-24T10:23:57.173Z</time>
      </trkpt>
      <trkpt lat="48.39958" lon="7.29764">
        <ele>823</ele>
        <time>2020-06-24T10:23:58.173Z</time>
      </trkpt>
      <trkpt lat="48.39959" lon="7.29766">
        <ele>823</ele>
        <time>2020-06-24T10:23:59.173Z</time>
      </trkpt>
      <trkpt lat="48.39959" lon="7.29768">
        <ele>824</ele>
        <time>2020-06-24T10:24:00.172Z</time>
      </trkpt>
      <trkpt lat="48.3996" lon="7.2977">
        <ele>824</ele>
        <time>2020-06-24T10:24:01.173Z</time>
      </trkpt>
      <trkpt lat="48.39961" lon="7.29772">
        <ele>824</ele>
        <time>2020-06-24T10:24:02.173Z</time>
      </trkpt>
      <trkpt lat="48.39961" lon="7.29773">
        <ele>824</ele>
        <time>2020-06-24T10:24:03.173Z</time>
      </trkpt>
      <trkpt lat="48.39962" lon="7.29775">
        <ele>825</ele>
        <time>2020-06-24T10:24:04.173Z</time>
      </trkpt>
      <trkpt lat="48.39962" lon="7.29777">
        <ele>825</ele>
        <time>2020-06-24T10:24:05.172Z</time>
      </trkpt>
      <trkpt lat="48.39963" lon="7.29781">
        <ele>824</ele>
        <time>2020-06-24T10:24:06.172Z</time>
      </trkpt>
      <trkpt lat="48.39963" lon="7.29783">
        <ele>824</ele>
        <time>2020-06-24T10:24:07.172Z</time>
      </trkpt>
      <trkpt lat="48.39962" lon="7.29786">
        <ele>823</ele>
        <time>2020-06-24T10:24:08.173Z</time>
      </trkpt>
      <trkpt lat="48.39963" lon="7.29788">
        <ele>823</ele>
        <time>2020-06-24T10:24:09.173Z</time>
      </trkpt>
      <trkpt lat="48.39963" lon="7.29791">
        <ele>822</ele>
        <time>2020-06-24T10:24:10.173Z</time>
      </trkpt>
      <trkpt lat="48.39964" lon="7.29792">
        <ele>821</ele>
        <time>2020-06-24T10:24:11.172Z</time>
      </trkpt>
      <trkpt lat="48.39964" lon="7.29793">
        <ele>821</ele>
        <time>2020-06-24T10:24:12.173Z</time>
      </trkpt>
      <trkpt lat="48.39965" lon="7.29794">
        <ele>820</ele>
        <time>2020-06-24T10:24:13.172Z</time>
      </trkpt>
      <trkpt lat="48.39964" lon="7.29794">
        <ele>820</ele>
        <time>2020-06-24T10:24:14.173Z</time>
      </trkpt>
      <trkpt lat="48.39964" lon="7.29795">
        <ele>820</ele>
        <time>2020-06-24T10:24:15.172Z</time>
      </trkpt>
      <trkpt lat="48.39965" lon="7.29795">
        <ele>820</ele>
        <time>2020-06-24T10:24:16.172Z</time>
      </trkpt>
      <trkpt lat="48.39966" lon="7.29797">
        <ele>820</ele>
        <time>2020-06-24T10:24:17.173Z</time>
      </trkpt>
      <trkpt lat="48.39967" lon="7.29798">
        <ele>820</ele>
        <time>2020-06-24T10:24:18.173Z</time>
      </trkpt>
      <trkpt lat="48.39967" lon="7.29798">
        <ele>820</ele>
        <time>2020-06-24T10:24:19.172Z</time>
      </trkpt>
      <trkpt lat="48.39968" lon="7.29799">
        <ele>819</ele>
        <time>2020-06-24T10:24:20.172Z</time>
      </trkpt>
      <trkpt lat="48.39969" lon="7.29799">
        <ele>819</ele>
        <time>2020-06-24T10:24:21.172Z</time>
      </trkpt>
      <trkpt lat="48.3997" lon="7.29798">
        <ele>818</ele>
        <time>2020-06-24T10:24:22.172Z</time>
      </trkpt>
      <trkpt lat="48.39971" lon="7.29797">
        <ele>818</ele>
        <time>2020-06-24T10:24:23.172Z</time>
      </trkpt>
      <trkpt lat="48.39972" lon="7.29797">
        <ele>817</ele>
        <time>2020-06-24T10:24:24.172Z</time>
      </trkpt>
      <trkpt lat="48.39973" lon="7.29797">
        <ele>817</ele>
        <time>2020-06-24T10:24:25.172Z</time>
      </trkpt>
      <trkpt lat="48.39973" lon="7.29797">
        <ele>817</ele>
        <time>2020-06-24T10:24:26.172Z</time>
      </trkpt>
      <trkpt lat="48.39974" lon="7.29798">
        <ele>816</ele>
        <time>2020-06-24T10:24:27.173Z</time>
      </trkpt>
      <trkpt lat="48.39975" lon="7.298">
        <ele>816</ele>
        <time>2020-06-24T10:24:28.172Z</time>
      </trkpt>
      <trkpt lat="48.39975" lon="7.29802">
        <ele>817</ele>
        <time>2020-06-24T10:24:29.172Z</time>
      </trkpt>
      <trkpt lat="48.39974" lon="7.29803">
        <ele>816</ele>
        <time>2020-06-24T10:24:30.172Z</time>
      </trkpt>
      <trkpt lat="48.39973" lon="7.29805">
        <ele>816</ele>
        <time>2020-06-24T10:24:31.172Z</time>
      </trkpt>
      <trkpt lat="48.39971" lon="7.29807">
        <ele>815</ele>
        <time>2020-06-24T10:24:32.172Z</time>
      </trkpt>
      <trkpt lat="48.3997" lon="7.29808">
        <ele>814</ele>
        <time>2020-06-24T10:24:33.172Z</time>
      </trkpt>
      <trkpt lat="48.3997" lon="7.2981">
        <ele>813</ele>
        <time>2020-06-24T10:24:34.172Z</time>
      </trkpt>
      <trkpt lat="48.39969" lon="7.29811">
        <ele>812</ele>
        <time>2020-06-24T10:24:35.173Z</time>
      </trkpt>
      <trkpt lat="48.39969" lon="7.29813">
        <ele>811</ele>
        <time>2020-06-24T10:24:36.172Z</time>
      </trkpt>
      <trkpt lat="48.39968" lon="7.29815">
        <ele>810</ele>
        <time>2020-06-24T10:24:37.172Z</time>
      </trkpt>
      <trkpt lat="48.39967" lon="7.29817">
        <ele>809</ele>
        <time>2020-06-24T10:24:38.173Z</time>
      </trkpt>
      <trkpt lat="48.39967" lon="7.29818">
        <ele>808</ele>
        <time>2020-06-24T10:24:39.172Z</time>
      </trkpt>
      <trkpt lat="48.39966" lon="7.29819">
        <ele>807</ele>
        <time>2020-06-24T10:24:40.172Z</time>
      </trkpt>
      <trkpt lat="48.39965" lon="7.29821">
        <ele>805</ele>
        <time>2020-06-24T10:24:41.173Z</time>
      </trkpt>
      <trkpt lat="48.39963" lon="7.29823">
        <ele>803</ele>
        <time>2020-06-24T10:24:42.173Z</time>
      </trkpt>
      <trkpt lat="48.39962" lon="7.29824">
        <ele>802</ele>
        <time>2020-06-24T10:24:43.172Z</time>
      </trkpt>
      <trkpt lat="48.39961" lon="7.29826">
        <ele>800</ele>
        <time>2020-06-24T10:24:44.172Z</time>
      </trkpt>
      <trkpt lat="48.3996" lon="7.29828">
        <ele>798</ele>
        <time>2020-06-24T10:24:45.172Z</time>
      </trkpt>
      <trkpt lat="48.39958" lon="7.29829">
        <ele>797</ele>
        <time>2020-06-24T10:24:46.173Z</time>
      </trkpt>
      <trkpt lat="48.39956" lon="7.2983">
        <ele>795</ele>
        <time>2020-06-24T10:24:47.172Z</time>
      </trkpt>
      <trkpt lat="48.39954" lon="7.29831">
        <ele>795</ele>
        <time>2020-06-24T10:24:48.172Z</time>
      </trkpt>
      <trkpt lat="48.39953" lon="7.29832">
        <ele>794</ele>
        <time>2020-06-24T10:24:49.173Z</time>
      </trkpt>
      <trkpt lat="48.39951" lon="7.29833">
        <ele>793</ele>
        <time>2020-06-24T10:24:50.173Z</time>
      </trkpt>
      <trkpt lat="48.39949" lon="7.29834">
        <ele>792</ele>
        <time>2020-06-24T10:24:51.172Z</time>
      </trkpt>
      <trkpt lat="48.39948" lon="7.29835">
        <ele>792</ele>
        <time>2020-06-24T10:24:52.173Z</time>
      </trkpt>
      <trkpt lat="48.39946" lon="7.29836">
        <ele>791</ele>
        <time>2020-06-24T10:24:53.173Z</time>
      </trkpt>
      <trkpt lat="48.39945" lon="7.29837">
        <ele>791</ele>
        <time>2020-06-24T10:24:54.172Z</time>
      </trkpt>
      <trkpt lat="48.39944" lon="7.29838">
        <ele>790</ele>
        <time>2020-06-24T10:24:55.172Z</time>
      </trkpt>
      <trkpt lat="48.39945" lon="7.29839">
        <ele>790</ele>
        <time>2020-06-24T10:24:56.172Z</time>
      </trkpt>
      <trkpt lat="48.39946" lon="7.2984">
        <ele>789</ele>
        <time>2020-06-24T10:24:57.172Z</time>
      </trkpt>
      <trkpt lat="48.39946" lon="7.29838">
        <ele>790</ele>
        <time>2020-06-24T10:24:58.173Z</time>
      </trkpt>
      <trkpt lat="48.39946" lon="7.29838">
        <ele>791</ele>
        <time>2020-06-24T10:24:59.172Z</time>
      </trkpt>
      <trkpt lat="48.39944" lon="7.29836">
        <ele>793</ele>
        <time>2020-06-24T10:25:00.173Z</time>
      </trkpt>
      <trkpt lat="48.39946" lon="7.29835">
        <ele>792</ele>
        <time>2020-06-24T10:25:01.172Z</time>
      </trkpt>
      <trkpt lat="48.39947" lon="7.29833">
        <ele>792</ele>
        <time>2020-06-24T10:25:02.172Z</time>
      </trkpt>
      <trkpt lat="48.39948" lon="7.29832">
        <ele>792</ele>
        <time>2020-06-24T10:25:03.172Z</time>
      </trkpt>
      <trkpt lat="48.39949" lon="7.29831">
        <ele>792</ele>
        <time>2020-06-24T10:25:04.173Z</time>
      </trkpt>
      <trkpt lat="48.3995" lon="7.29829">
        <ele>792</ele>
        <time>2020-06-24T10:25:05.173Z</time>
      </trkpt>
      <trkpt lat="48.39951" lon="7.29828">
        <ele>792</ele>
        <time>2020-06-24T10:25:06.172Z</time>
      </trkpt>
      <trkpt lat="48.39952" lon="7.29826">
        <ele>792</ele>
        <time>2020-06-24T10:25:07.173Z</time>
      </trkpt>
      <trkpt lat="48.39953" lon="7.29824">
        <ele>792</ele>
        <time>2020-06-24T10:25:08.173Z</time>
      </trkpt>
      <trkpt lat="48.39954" lon="7.29823">
        <ele>792</ele>
        <time>2020-06-24T10:25:09.173Z</time>
      </trkpt>
      <trkpt lat="48.39954" lon="7.29821">
        <ele>792</ele>
        <time>2020-06-24T10:25:10.173Z</time>
      </trkpt>
      <trkpt lat="48.39955" lon="7.29818">
        <ele>793</ele>
        <time>2020-06-24T10:25:11.172Z</time>
      </trkpt>
      <trkpt lat="48.39956" lon="7.29816">
        <ele>794</ele>
        <time>2020-06-24T10:25:12.172Z</time>
      </trkpt>
      <trkpt lat="48.39958" lon="7.29813">
        <ele>794</ele>
        <time>2020-06-24T10:25:13.172Z</time>
      </trkpt>
      <trkpt lat="48.39958" lon="7.29812">
        <ele>795</ele>
        <time>2020-06-24T10:25:14.172Z</time>
      </trkpt>
      <trkpt lat="48.39959" lon="7.29811">
        <ele>795</ele>
        <time>2020-06-24T10:25:15.172Z</time>
      </trkpt>
      <trkpt lat="48.39961" lon="7.29808">
        <ele>796</ele>
        <time>2020-06-24T10:25:16.172Z</time>
      </trkpt>
      <trkpt lat="48.39963" lon="7.29805">
        <ele>797</ele>
        <time>2020-06-24T10:25:17.173Z</time>
      </trkpt>
      <trkpt lat="48.39966" lon="7.29806">
        <ele>798</ele>
        <time>2020-06-24T10:25:18.172Z</time>
      </trkpt>
      <trkpt lat="48.39968" lon="7.29807">
        <ele>798</ele>
        <time>2020-06-24T10:25:19.172Z</time>
      </trkpt>
      <trkpt lat="48.3997" lon="7.29808">
        <ele>799</ele>
        <time>2020-06-24T10:25:20.173Z</time>
      </trkpt>
      <trkpt lat="48.39972" lon="7.29809">
        <ele>800</ele>
        <time>2020-06-24T10:25:21.173Z</time>
      </trkpt>
      <trkpt lat="48.39972" lon="7.29809">
        <ele>801</ele>
        <time>2020-06-24T10:25:22.173Z</time>
      </trkpt>
      <trkpt lat="48.39973" lon="7.29809">
        <ele>801</ele>
        <time>2020-06-24T10:25:23.173Z</time>
      </trkpt>
      <trkpt lat="48.39973" lon="7.29809">
        <ele>801</ele>
        <time>2020-06-24T10:25:24.173Z</time>
      </trkpt>
      <trkpt lat="48.39974" lon="7.2981">
        <ele>801</ele>
        <time>2020-06-24T10:25:25.172Z</time>
      </trkpt>
      <trkpt lat="48.39975" lon="7.29811">
        <ele>801</ele>
        <time>2020-06-24T10:25:26.172Z</time>
      </trkpt>
      <trkpt lat="48.39976" lon="7.29811">
        <ele>801</ele>
        <time>2020-06-24T10:25:27.172Z</time>
      </trkpt>
      <trkpt lat="48.39977" lon="7.29812">
        <ele>801</ele>
        <time>2020-06-24T10:25:28.173Z</time>
      </trkpt>
      <trkpt lat="48.39977" lon="7.29813">
        <ele>801</ele>
        <time>2020-06-24T10:25:29.173Z</time>
      </trkpt>
      <trkpt lat="48.39977" lon="7.29814">
        <ele>801</ele>
        <time>2020-06-24T10:25:30.173Z</time>
      </trkpt>
      <trkpt lat="48.39978" lon="7.29815">
        <ele>801</ele>
        <time>2020-06-24T10:25:31.173Z</time>
      </trkpt>
      <trkpt lat="48.39979" lon="7.29816">
        <ele>801</ele>
        <time>2020-06-24T10:25:32.173Z</time>
      </trkpt>
      <trkpt lat="48.3998" lon="7.29816">
        <ele>801</ele>
        <time>2020-06-24T10:25:33.173Z</time>
      </trkpt>
      <trkpt lat="48.3998" lon="7.29817">
        <ele>801</ele>
        <time>2020-06-24T10:25:34.173Z</time>
      </trkpt>
      <trkpt lat="48.39981" lon="7.29818">
        <ele>801</ele>
        <time>2020-06-24T10:25:35.173Z</time>
      </trkpt>
      <trkpt lat="48.39982" lon="7.29818">
        <ele>801</ele>
        <time>2020-06-24T10:25:36.173Z</time>
      </trkpt>
      <trkpt lat="48.39982" lon="7.29819">
        <ele>801</ele>
        <time>2020-06-24T10:25:37.173Z</time>
      </trkpt>
      <trkpt lat="48.39983" lon="7.2982">
        <ele>801</ele>
        <time>2020-06-24T10:25:38.173Z</time>
      </trkpt>
      <trkpt lat="48.39984" lon="7.29821">
        <ele>801</ele>
        <time>2020-06-24T10:25:39.173Z</time>
      </trkpt>
      <trkpt lat="48.39985" lon="7.29822">
        <ele>801</ele>
        <time>2020-06-24T10:25:40.173Z</time>
      </trkpt>
      <trkpt lat="48.39986" lon="7.29823">
        <ele>801</ele>
        <time>2020-06-24T10:25:41.173Z</time>
      </trkpt>
      <trkpt lat="48.39987" lon="7.29824">
        <ele>801</ele>
        <time>2020-06-24T10:25:42.173Z</time>
      </trkpt>
      <trkpt lat="48.39987" lon="7.29825">
        <ele>801</ele>
        <time>2020-06-24T10:25:43.173Z</time>
      </trkpt>
      <trkpt lat="48.39988" lon="7.29828">
        <ele>801</ele>
        <time>2020-06-24T10:25:44.172Z</time>
      </trkpt>
      <trkpt lat="48.3999" lon="7.2983">
        <ele>801</ele>
        <time>2020-06-24T10:25:45.173Z</time>
      </trkpt>
      <trkpt lat="48.3999" lon="7.29831">
        <ele>801</ele>
        <time>2020-06-24T10:25:46.172Z</time>
      </trkpt>
      <trkpt lat="48.39991" lon="7.29832">
        <ele>801</ele>
        <time>2020-06-24T10:25:47.173Z</time>
      </trkpt>
      <trkpt lat="48.39992" lon="7.29833">
        <ele>801</ele>
        <time>2020-06-24T10:25:48.172Z</time>
      </trkpt>
      <trkpt lat="48.39992" lon="7.29834">
        <ele>801</ele>
        <time>2020-06-24T10:25:49.173Z</time>
      </trkpt>
      <trkpt lat="48.39993" lon="7.29836">
        <ele>801</ele>
        <time>2020-06-24T10:25:50.173Z</time>
      </trkpt>
      <trkpt lat="48.39994" lon="7.29837">
        <ele>801</ele>
        <time>2020-06-24T10:25:51.172Z</time>
      </trkpt>
      <trkpt lat="48.39995" lon="7.29838">
        <ele>801</ele>
        <time>2020-06-24T10:25:52.172Z</time>
      </trkpt>
      <trkpt lat="48.39996" lon="7.2984">
        <ele>801</ele>
        <time>2020-06-24T10:25:53.172Z</time>
      </trkpt>
      <trkpt lat="48.39996" lon="7.29841">
        <ele>801</ele>
        <time>2020-06-24T10:25:54.173Z</time>
      </trkpt>
      <trkpt lat="48.39996" lon="7.29843">
        <ele>800</ele>
        <time>2020-06-24T10:25:55.173Z</time>
      </trkpt>
      <trkpt lat="48.39996" lon="7.29844">
        <ele>799</ele>
        <time>2020-06-24T10:25:56.172Z</time>
      </trkpt>
      <trkpt lat="48.39997" lon="7.29845">
        <ele>798</ele>
        <time>2020-06-24T10:25:57.173Z</time>
      </trkpt>
      <trkpt lat="48.39998" lon="7.29846">
        <ele>797</ele>
        <time>2020-06-24T10:25:58.173Z</time>
      </trkpt>
      <trkpt lat="48.39999" lon="7.29846">
        <ele>796</ele>
        <time>2020-06-24T10:25:59.173Z</time>
      </trkpt>
      <trkpt lat="48.39999" lon="7.29845">
        <ele>796</ele>
        <time>2020-06-24T10:26:00.173Z</time>
      </trkpt>
      <trkpt lat="48.4" lon="7.29845">
        <ele>795</ele>
        <time>2020-06-24T10:26:01.172Z</time>
      </trkpt>
      <trkpt lat="48.40001" lon="7.29846">
        <ele>794</ele>
        <time>2020-06-24T10:26:02.172Z</time>
      </trkpt>
      <trkpt lat="48.40003" lon="7.29847">
        <ele>794</ele>
        <time>2020-06-24T10:26:03.173Z</time>
      </trkpt>
      <trkpt lat="48.40004" lon="7.29848">
        <ele>794</ele>
        <time>2020-06-24T10:26:04.172Z</time>
      </trkpt>
      <trkpt lat="48.40005" lon="7.29849">
        <ele>793</ele>
        <time>2020-06-24T10:26:05.172Z</time>
      </trkpt>
      <trkpt lat="48.40006" lon="7.2985">
        <ele>793</ele>
        <time>2020-06-24T10:26:06.173Z</time>
      </trkpt>
      <trkpt lat="48.40006" lon="7.29851">
        <ele>792</ele>
        <time>2020-06-24T10:26:07.173Z</time>
      </trkpt>
      <trkpt lat="48.40006" lon="7.29853">
        <ele>792</ele>
        <time>2020-06-24T10:26:08.173Z</time>
      </trkpt>
      <trkpt lat="48.40006" lon="7.29854">
        <ele>792</ele>
        <time>2020-06-24T10:26:09.172Z</time>
      </trkpt>
      <trkpt lat="48.40006" lon="7.29855">
        <ele>791</ele>
        <time>2020-06-24T10:26:10.173Z</time>
      </trkpt>
      <trkpt lat="48.40006" lon="7.29855">
        <ele>791</ele>
        <time>2020-06-24T10:26:11.173Z</time>
      </trkpt>
      <trkpt lat="48.40007" lon="7.29855">
        <ele>791</ele>
        <time>2020-06-24T10:26:12.173Z</time>
      </trkpt>
      <trkpt lat="48.40008" lon="7.29856">
        <ele>791</ele>
        <time>2020-06-24T10:26:13.173Z</time>
      </trkpt>
      <trkpt lat="48.40008" lon="7.29855">
        <ele>790</ele>
        <time>2020-06-24T10:26:14.172Z</time>
      </trkpt>
      <trkpt lat="48.40009" lon="7.29855">
        <ele>790</ele>
        <time>2020-06-24T10:26:15.172Z</time>
      </trkpt>
      <trkpt lat="48.40009" lon="7.29856">
        <ele>789</ele>
        <time>2020-06-24T10:26:16.172Z</time>
      </trkpt>
      <trkpt lat="48.4001" lon="7.29857">
        <ele>788</ele>
        <time>2020-06-24T10:26:17.172Z</time>
      </trkpt>
      <trkpt lat="48.4001" lon="7.29858">
        <ele>787</ele>
        <time>2020-06-24T10:26:18.173Z</time>
      </trkpt>
      <trkpt lat="48.40011" lon="7.29861">
        <ele>787</ele>
        <time>2020-06-24T10:26:19.173Z</time>
      </trkpt>
      <trkpt lat="48.40011" lon="7.29862">
        <ele>786</ele>
        <time>2020-06-24T10:26:20.173Z</time>
      </trkpt>
      <trkpt lat="48.40011" lon="7.29864">
        <ele>785</ele>
        <time>2020-06-24T10:26:21.173Z</time>
      </trkpt>
      <trkpt lat="48.40011" lon="7.29866">
        <ele>785</ele>
        <time>2020-06-24T10:26:22.172Z</time>
      </trkpt>
      <trkpt lat="48.40011" lon="7.29867">
        <ele>784</ele>
        <time>2020-06-24T10:26:23.173Z</time>
      </trkpt>
      <trkpt lat="48.40011" lon="7.29868">
        <ele>784</ele>
        <time>2020-06-24T10:26:24.173Z</time>
      </trkpt>
      <trkpt lat="48.40011" lon="7.29869">
        <ele>784</ele>
        <time>2020-06-24T10:26:25.173Z</time>
      </trkpt>
      <trkpt lat="48.40011" lon="7.29871">
        <ele>784</ele>
        <time>2020-06-24T10:26:26.173Z</time>
      </trkpt>
      <trkpt lat="48.40011" lon="7.29873">
        <ele>784</ele>
        <time>2020-06-24T10:26:27.172Z</time>
      </trkpt>
      <trkpt lat="48.4001" lon="7.29875">
        <ele>784</ele>
        <time>2020-06-24T10:26:28.172Z</time>
      </trkpt>
      <trkpt lat="48.4001" lon="7.29877">
        <ele>784</ele>
        <time>2020-06-24T10:26:29.173Z</time>
      </trkpt>
      <trkpt lat="48.4001" lon="7.29879">
        <ele>783</ele>
        <time>2020-06-24T10:26:30.172Z</time>
      </trkpt>
      <trkpt lat="48.4001" lon="7.2988">
        <ele>783</ele>
        <time>2020-06-24T10:26:31.172Z</time>
      </trkpt>
      <trkpt lat="48.40011" lon="7.29881">
        <ele>783</ele>
        <time>2020-06-24T10:26:32.173Z</time>
      </trkpt>
      <trkpt lat="48.40011" lon="7.29892">
        <ele>773</ele>
        <time>2020-06-24T10:26:33.173Z</time>
      </trkpt>
      <trkpt lat="48.4001" lon="7.29892">
        <ele>773</ele>
        <time>2020-06-24T10:26:34.173Z</time>
      </trkpt>
      <trkpt lat="48.40009" lon="7.29893">
        <ele>774</ele>
        <time>2020-06-24T10:26:35.173Z</time>
      </trkpt>
      <trkpt lat="48.40008" lon="7.29894">
        <ele>774</ele>
        <time>2020-06-24T10:26:36.173Z</time>
      </trkpt>
      <trkpt lat="48.40007" lon="7.29894">
        <ele>774</ele>
        <time>2020-06-24T10:26:37.172Z</time>
      </trkpt>
      <trkpt lat="48.40006" lon="7.29895">
        <ele>775</ele>
        <time>2020-06-24T10:26:38.173Z</time>
      </trkpt>
      <trkpt lat="48.40006" lon="7.29896">
        <ele>775</ele>
        <time>2020-06-24T10:26:39.173Z</time>
      </trkpt>
      <trkpt lat="48.40005" lon="7.29897">
        <ele>775</ele>
        <time>2020-06-24T10:26:40.173Z</time>
      </trkpt>
      <trkpt lat="48.40005" lon="7.29898">
        <ele>775</ele>
        <time>2020-06-24T10:26:41.173Z</time>
      </trkpt>
      <trkpt lat="48.40004" lon="7.29899">
        <ele>775</ele>
        <time>2020-06-24T10:26:42.173Z</time>
      </trkpt>
      <trkpt lat="48.40004" lon="7.29901">
        <ele>775</ele>
        <time>2020-06-24T10:26:43.173Z</time>
      </trkpt>
      <trkpt lat="48.40004" lon="7.29902">
        <ele>775</ele>
        <time>2020-06-24T10:26:44.173Z</time>
      </trkpt>
      <trkpt lat="48.40004" lon="7.29903">
        <ele>775</ele>
        <time>2020-06-24T10:26:45.173Z</time>
      </trkpt>
      <trkpt lat="48.40003" lon="7.29905">
        <ele>774</ele>
        <time>2020-06-24T10:26:46.172Z</time>
      </trkpt>
      <trkpt lat="48.40003" lon="7.29907">
        <ele>774</ele>
        <time>2020-06-24T10:26:47.172Z</time>
      </trkpt>
      <trkpt lat="48.40002" lon="7.29908">
        <ele>774</ele>
        <time>2020-06-24T10:26:48.173Z</time>
      </trkpt>
      <trkpt lat="48.40002" lon="7.2991">
        <ele>774</ele>
        <time>2020-06-24T10:26:49.173Z</time>
      </trkpt>
      <trkpt lat="48.40002" lon="7.29911">
        <ele>774</ele>
        <time>2020-06-24T10:26:50.172Z</time>
      </trkpt>
      <trkpt lat="48.40001" lon="7.29912">
        <ele>773</ele>
        <time>2020-06-24T10:26:51.172Z</time>
      </trkpt>
      <trkpt lat="48.40001" lon="7.29914">
        <ele>773</ele>
        <time>2020-06-24T10:26:52.173Z</time>
      </trkpt>
      <trkpt lat="48.40001" lon="7.29916">
        <ele>773</ele>
        <time>2020-06-24T10:26:53.173Z</time>
      </trkpt>
      <trkpt lat="48.40001" lon="7.29918">
        <ele>773</ele>
        <time>2020-06-24T10:26:54.173Z</time>
      </trkpt>
      <trkpt lat="48.40001" lon="7.2992">
        <ele>773</ele>
        <time>2020-06-24T10:26:55.172Z</time>
      </trkpt>
      <trkpt lat="48.40001" lon="7.29921">
        <ele>773</ele>
        <time>2020-06-24T10:26:56.173Z</time>
      </trkpt>
      <trkpt lat="48.4" lon="7.29924">
        <ele>774</ele>
        <time>2020-06-24T10:26:57.172Z</time>
      </trkpt>
      <trkpt lat="48.39999" lon="7.29926">
        <ele>774</ele>
        <time>2020-06-24T10:26:58.172Z</time>
      </trkpt>
      <trkpt lat="48.39998" lon="7.29929">
        <ele>774</ele>
        <time>2020-06-24T10:26:59.172Z</time>
      </trkpt>
      <trkpt lat="48.39999" lon="7.29931">
        <ele>775</ele>
        <time>2020-06-24T10:27:00.173Z</time>
      </trkpt>
      <trkpt lat="48.39998" lon="7.29933">
        <ele>775</ele>
        <time>2020-06-24T10:27:01.173Z</time>
      </trkpt>
      <trkpt lat="48.39998" lon="7.29935">
        <ele>775</ele>
        <time>2020-06-24T10:27:02.172Z</time>
      </trkpt>
      <trkpt lat="48.39998" lon="7.29936">
        <ele>775</ele>
        <time>2020-06-24T10:27:03.173Z</time>
      </trkpt>
      <trkpt lat="48.39998" lon="7.29938">
        <ele>774</ele>
        <time>2020-06-24T10:27:04.173Z</time>
      </trkpt>
      <trkpt lat="48.39997" lon="7.2994">
        <ele>774</ele>
        <time>2020-06-24T10:27:05.173Z</time>
      </trkpt>
      <trkpt lat="48.39996" lon="7.29942">
        <ele>774</ele>
        <time>2020-06-24T10:27:06.173Z</time>
      </trkpt>
      <trkpt lat="48.39995" lon="7.29944">
        <ele>774</ele>
        <time>2020-06-24T10:27:07.173Z</time>
      </trkpt>
      <trkpt lat="48.39994" lon="7.29946">
        <ele>773</ele>
        <time>2020-06-24T10:27:08.173Z</time>
      </trkpt>
      <trkpt lat="48.39993" lon="7.29948">
        <ele>773</ele>
        <time>2020-06-24T10:27:09.173Z</time>
      </trkpt>
      <trkpt lat="48.39992" lon="7.2995">
        <ele>773</ele>
        <time>2020-06-24T10:27:10.172Z</time>
      </trkpt>
      <trkpt lat="48.39991" lon="7.29952">
        <ele>772</ele>
        <time>2020-06-24T10:27:11.173Z</time>
      </trkpt>
      <trkpt lat="48.39991" lon="7.29954">
        <ele>772</ele>
        <time>2020-06-24T10:27:12.173Z</time>
      </trkpt>
      <trkpt lat="48.3999" lon="7.29957">
        <ele>771</ele>
        <time>2020-06-24T10:27:13.173Z</time>
      </trkpt>
      <trkpt lat="48.39989" lon="7.29959">
        <ele>771</ele>
        <time>2020-06-24T10:27:14.173Z</time>
      </trkpt>
      <trkpt lat="48.39988" lon="7.2996">
        <ele>771</ele>
        <time>2020-06-24T10:27:15.172Z</time>
      </trkpt>
      <trkpt lat="48.39987" lon="7.29962">
        <ele>771</ele>
        <time>2020-06-24T10:27:16.173Z</time>
      </trkpt>
      <trkpt lat="48.39986" lon="7.29963">
        <ele>771</ele>
        <time>2020-06-24T10:27:17.172Z</time>
      </trkpt>
      <trkpt lat="48.39984" lon="7.29965">
        <ele>771</ele>
        <time>2020-06-24T10:27:18.172Z</time>
      </trkpt>
      <trkpt lat="48.39983" lon="7.29967">
        <ele>770</ele>
        <time>2020-06-24T10:27:19.172Z</time>
      </trkpt>
      <trkpt lat="48.39982" lon="7.29968">
        <ele>770</ele>
        <time>2020-06-24T10:27:20.173Z</time>
      </trkpt>
      <trkpt lat="48.3998" lon="7.29969">
        <ele>769</ele>
        <time>2020-06-24T10:27:21.173Z</time>
      </trkpt>
      <trkpt lat="48.39979" lon="7.29969">
        <ele>768</ele>
        <time>2020-06-24T10:27:22.173Z</time>
      </trkpt>
      <trkpt lat="48.39978" lon="7.29971">
        <ele>768</ele>
        <time>2020-06-24T10:27:23.173Z</time>
      </trkpt>
      <trkpt lat="48.39976" lon="7.29973">
        <ele>768</ele>
        <time>2020-06-24T10:27:24.172Z</time>
      </trkpt>
      <trkpt lat="48.39974" lon="7.29974">
        <ele>768</ele>
        <time>2020-06-24T10:27:25.173Z</time>
      </trkpt>
      <trkpt lat="48.39972" lon="7.29976">
        <ele>768</ele>
        <time>2020-06-24T10:27:26.173Z</time>
      </trkpt>
      <trkpt lat="48.39971" lon="7.29978">
        <ele>768</ele>
        <time>2020-06-24T10:27:27.172Z</time>
      </trkpt>
      <trkpt lat="48.39969" lon="7.2998">
        <ele>768</ele>
        <time>2020-06-24T10:27:28.173Z</time>
      </trkpt>
      <trkpt lat="48.39967" lon="7.29981">
        <ele>769</ele>
        <time>2020-06-24T10:27:29.173Z</time>
      </trkpt>
      <trkpt lat="48.39966" lon="7.29984">
        <ele>769</ele>
        <time>2020-06-24T10:27:30.173Z</time>
      </trkpt>
      <trkpt lat="48.39965" lon="7.29985">
        <ele>769</ele>
        <time>2020-06-24T10:27:31.173Z</time>
      </trkpt>
      <trkpt lat="48.39963" lon="7.29986">
        <ele>769</ele>
        <time>2020-06-24T10:27:32.172Z</time>
      </trkpt>
      <trkpt lat="48.39962" lon="7.29987">
        <ele>769</ele>
        <time>2020-06-24T10:27:33.173Z</time>
      </trkpt>
      <trkpt lat="48.3996" lon="7.29988">
        <ele>768</ele>
        <time>2020-06-24T10:27:34.173Z</time>
      </trkpt>
      <trkpt lat="48.39959" lon="7.29989">
        <ele>767</ele>
        <time>2020-06-24T10:27:35.172Z</time>
      </trkpt>
      <trkpt lat="48.39957" lon="7.2999">
        <ele>767</ele>
        <time>2020-06-24T10:27:36.173Z</time>
      </trkpt>
      <trkpt lat="48.39956" lon="7.2999">
        <ele>767</ele>
        <time>2020-06-24T10:27:37.173Z</time>
      </trkpt>
      <trkpt lat="48.39954" lon="7.29991">
        <ele>766</ele>
        <time>2020-06-24T10:27:38.173Z</time>
      </trkpt>
      <trkpt lat="48.39953" lon="7.29991">
        <ele>766</ele>
        <time>2020-06-24T10:27:39.172Z</time>
      </trkpt>
      <trkpt lat="48.39951" lon="7.29992">
        <ele>765</ele>
        <time>2020-06-24T10:27:40.173Z</time>
      </trkpt>
      <trkpt lat="48.3995" lon="7.29993">
        <ele>764</ele>
        <time>2020-06-24T10:27:41.173Z</time>
      </trkpt>
      <trkpt lat="48.39949" lon="7.29993">
        <ele>764</ele>
        <time>2020-06-24T10:27:42.172Z</time>
      </trkpt>
      <trkpt lat="48.39947" lon="7.29994">
        <ele>763</ele>
        <time>2020-06-24T10:27:43.172Z</time>
      </trkpt>
      <trkpt lat="48.39946" lon="7.29994">
        <ele>763</ele>
        <time>2020-06-24T10:27:44.173Z</time>
      </trkpt>
      <trkpt lat="48.39944" lon="7.29994">
        <ele>763</ele>
        <time>2020-06-24T10:27:45.173Z</time>
      </trkpt>
      <trkpt lat="48.39943" lon="7.29995">
        <ele>763</ele>
        <time>2020-06-24T10:27:46.173Z</time>
      </trkpt>
      <trkpt lat="48.39941" lon="7.29996">
        <ele>762</ele>
        <time>2020-06-24T10:27:47.173Z</time>
      </trkpt>
      <trkpt lat="48.3994" lon="7.29996">
        <ele>762</ele>
        <time>2020-06-24T10:27:48.173Z</time>
      </trkpt>
      <trkpt lat="48.39939" lon="7.29997">
        <ele>762</ele>
        <time>2020-06-24T10:27:49.173Z</time>
      </trkpt>
      <trkpt lat="48.39938" lon="7.29997">
        <ele>761</ele>
        <time>2020-06-24T10:27:50.173Z</time>
      </trkpt>
      <trkpt lat="48.39937" lon="7.29997">
        <ele>761</ele>
        <time>2020-06-24T10:27:51.173Z</time>
      </trkpt>
      <trkpt lat="48.39936" lon="7.29997">
        <ele>760</ele>
        <time>2020-06-24T10:27:52.172Z</time>
      </trkpt>
      <trkpt lat="48.39934" lon="7.29998">
        <ele>759</ele>
        <time>2020-06-24T10:27:53.173Z</time>
      </trkpt>
      <trkpt lat="48.39933" lon="7.29997">
        <ele>759</ele>
        <time>2020-06-24T10:27:54.173Z</time>
      </trkpt>
      <trkpt lat="48.39931" lon="7.29998">
        <ele>758</ele>
        <time>2020-06-24T10:27:55.173Z</time>
      </trkpt>
      <trkpt lat="48.3993" lon="7.29998">
        <ele>758</ele>
        <time>2020-06-24T10:27:56.172Z</time>
      </trkpt>
      <trkpt lat="48.3993" lon="7.29999">
        <ele>758</ele>
        <time>2020-06-24T10:27:57.173Z</time>
      </trkpt>
      <trkpt lat="48.39929" lon="7.3">
        <ele>757</ele>
        <time>2020-06-24T10:27:58.173Z</time>
      </trkpt>
      <trkpt lat="48.39929" lon="7.3">
        <ele>757</ele>
        <time>2020-06-24T10:27:59.172Z</time>
      </trkpt>
      <trkpt lat="48.39929" lon="7.3">
        <ele>757</ele>
        <time>2020-06-24T10:28:00.173Z</time>
      </trkpt>
      <trkpt lat="48.39926" lon="7.30001">
        <ele>757</ele>
        <time>2020-06-24T10:28:01.174Z</time>
      </trkpt>
      <trkpt lat="48.39925" lon="7.3">
        <ele>756</ele>
        <time>2020-06-24T10:28:02.174Z</time>
      </trkpt>
      <trkpt lat="48.39924" lon="7.3">
        <ele>756</ele>
        <time>2020-06-24T10:28:03.173Z</time>
      </trkpt>
      <trkpt lat="48.39923" lon="7.3">
        <ele>756</ele>
        <time>2020-06-24T10:28:04.173Z</time>
      </trkpt>
      <trkpt lat="48.39922" lon="7.3">
        <ele>756</ele>
        <time>2020-06-24T10:28:05.173Z</time>
      </trkpt>
      <trkpt lat="48.39921" lon="7.3">
        <ele>756</ele>
        <time>2020-06-24T10:28:06.174Z</time>
      </trkpt>
      <trkpt lat="48.39921" lon="7.3">
        <ele>756</ele>
        <time>2020-06-24T10:28:07.173Z</time>
      </trkpt>
      <trkpt lat="48.39921" lon="7.30001">
        <ele>756</ele>
        <time>2020-06-24T10:28:08.173Z</time>
      </trkpt>
      <trkpt lat="48.39921" lon="7.30001">
        <ele>756</ele>
        <time>2020-06-24T10:28:09.173Z</time>
      </trkpt>
      <trkpt lat="48.39922" lon="7.30003">
        <ele>759</ele>
        <time>2020-06-24T10:28:10.174Z</time>
      </trkpt>
      <trkpt lat="48.39923" lon="7.30003">
        <ele>759</ele>
        <time>2020-06-24T10:28:11.175Z</time>
      </trkpt>
      <trkpt lat="48.39923" lon="7.30001">
        <ele>759</ele>
        <time>2020-06-24T10:28:12.174Z</time>
      </trkpt>
      <trkpt lat="48.39924" lon="7.3">
        <ele>759</ele>
        <time>2020-06-24T10:28:13.175Z</time>
      </trkpt>
      <trkpt lat="48.39926" lon="7.29999">
        <ele>759</ele>
        <time>2020-06-24T10:28:14.174Z</time>
      </trkpt>
      <trkpt lat="48.39927" lon="7.29999">
        <ele>758</ele>
        <time>2020-06-24T10:28:15.175Z</time>
      </trkpt>
      <trkpt lat="48.39929" lon="7.29998">
        <ele>758</ele>
        <time>2020-06-24T10:28:16.175Z</time>
      </trkpt>
      <trkpt lat="48.3993" lon="7.29997">
        <ele>758</ele>
        <time>2020-06-24T10:28:17.174Z</time>
      </trkpt>
      <trkpt lat="48.39931" lon="7.29996">
        <ele>759</ele>
        <time>2020-06-24T10:28:18.174Z</time>
      </trkpt>
      <trkpt lat="48.39932" lon="7.29995">
        <ele>759</ele>
        <time>2020-06-24T10:28:19.175Z</time>
      </trkpt>
      <trkpt lat="48.39934" lon="7.29995">
        <ele>759</ele>
        <time>2020-06-24T10:28:20.175Z</time>
      </trkpt>
      <trkpt lat="48.39935" lon="7.29994">
        <ele>759</ele>
        <time>2020-06-24T10:28:21.175Z</time>
      </trkpt>
      <trkpt lat="48.39937" lon="7.29994">
        <ele>759</ele>
        <time>2020-06-24T10:28:22.175Z</time>
      </trkpt>
      <trkpt lat="48.39939" lon="7.29994">
        <ele>758</ele>
        <time>2020-06-24T10:28:23.175Z</time>
      </trkpt>
      <trkpt lat="48.3994" lon="7.29993">
        <ele>757</ele>
        <time>2020-06-24T10:28:24.174Z</time>
      </trkpt>
      <trkpt lat="48.39941" lon="7.29992">
        <ele>757</ele>
        <time>2020-06-24T10:28:25.175Z</time>
      </trkpt>
      <trkpt lat="48.39943" lon="7.29991">
        <ele>756</ele>
        <time>2020-06-24T10:28:26.175Z</time>
      </trkpt>
      <trkpt lat="48.39944" lon="7.2999">
        <ele>756</ele>
        <time>2020-06-24T10:28:27.175Z</time>
      </trkpt>
      <trkpt lat="48.39946" lon="7.29989">
        <ele>756</ele>
        <time>2020-06-24T10:28:28.175Z</time>
      </trkpt>
      <trkpt lat="48.39948" lon="7.29988">
        <ele>756</ele>
        <time>2020-06-24T10:28:29.174Z</time>
      </trkpt>
      <trkpt lat="48.39949" lon="7.29988">
        <ele>756</ele>
        <time>2020-06-24T10:28:30.175Z</time>
      </trkpt>
      <trkpt lat="48.39951" lon="7.29987">
        <ele>755</ele>
        <time>2020-06-24T10:28:31.175Z</time>
      </trkpt>
      <trkpt lat="48.39952" lon="7.29986">
        <ele>756</ele>
        <time>2020-06-24T10:28:32.174Z</time>
      </trkpt>
      <trkpt lat="48.39954" lon="7.29985">
        <ele>756</ele>
        <time>2020-06-24T10:28:33.175Z</time>
      </trkpt>
      <trkpt lat="48.39955" lon="7.29984">
        <ele>756</ele>
        <time>2020-06-24T10:28:34.174Z</time>
      </trkpt>
      <trkpt lat="48.39956" lon="7.29983">
        <ele>757</ele>
        <time>2020-06-24T10:28:35.175Z</time>
      </trkpt>
      <trkpt lat="48.39957" lon="7.29981">
        <ele>757</ele>
        <time>2020-06-24T10:28:36.175Z</time>
      </trkpt>
      <trkpt lat="48.39958" lon="7.2998">
        <ele>757</ele>
        <time>2020-06-24T10:28:37.175Z</time>
      </trkpt>
      <trkpt lat="48.3996" lon="7.2998">
        <ele>758</ele>
        <time>2020-06-24T10:28:38.175Z</time>
      </trkpt>
      <trkpt lat="48.39961" lon="7.29979">
        <ele>758</ele>
        <time>2020-06-24T10:28:39.175Z</time>
      </trkpt>
      <trkpt lat="48.39962" lon="7.29977">
        <ele>758</ele>
        <time>2020-06-24T10:28:40.175Z</time>
      </trkpt>
      <trkpt lat="48.39963" lon="7.29977">
        <ele>758</ele>
        <time>2020-06-24T10:28:41.175Z</time>
      </trkpt>
      <trkpt lat="48.39965" lon="7.29976">
        <ele>759</ele>
        <time>2020-06-24T10:28:42.175Z</time>
      </trkpt>
      <trkpt lat="48.39967" lon="7.29975">
        <ele>759</ele>
        <time>2020-06-24T10:28:43.175Z</time>
      </trkpt>
      <trkpt lat="48.39968" lon="7.29975">
        <ele>759</ele>
        <time>2020-06-24T10:28:44.175Z</time>
      </trkpt>
      <trkpt lat="48.3997" lon="7.29975">
        <ele>760</ele>
        <time>2020-06-24T10:28:45.174Z</time>
      </trkpt>
      <trkpt lat="48.39971" lon="7.29975">
        <ele>760</ele>
        <time>2020-06-24T10:28:46.175Z</time>
      </trkpt>
      <trkpt lat="48.39973" lon="7.29974">
        <ele>759</ele>
        <time>2020-06-24T10:28:47.175Z</time>
      </trkpt>
      <trkpt lat="48.39975" lon="7.29974">
        <ele>759</ele>
        <time>2020-06-24T10:28:48.175Z</time>
      </trkpt>
      <trkpt lat="48.39977" lon="7.29973">
        <ele>759</ele>
        <time>2020-06-24T10:28:49.175Z</time>
      </trkpt>
      <trkpt lat="48.39979" lon="7.29973">
        <ele>759</ele>
        <time>2020-06-24T10:28:50.175Z</time>
      </trkpt>
      <trkpt lat="48.3998" lon="7.29972">
        <ele>760</ele>
        <time>2020-06-24T10:28:51.175Z</time>
      </trkpt>
      <trkpt lat="48.39982" lon="7.29972">
        <ele>760</ele>
        <time>2020-06-24T10:28:52.174Z</time>
      </trkpt>
      <trkpt lat="48.39983" lon="7.29972">
        <ele>760</ele>
        <time>2020-06-24T10:28:53.174Z</time>
      </trkpt>
      <trkpt lat="48.39983" lon="7.29972">
        <ele>760</ele>
        <time>2020-06-24T10:28:54.174Z</time>
      </trkpt>
      <trkpt lat="48.39985" lon="7.29973">
        <ele>760</ele>
        <time>2020-06-24T10:28:55.175Z</time>
      </trkpt>
      <trkpt lat="48.39986" lon="7.29973">
        <ele>760</ele>
        <time>2020-06-24T10:28:56.175Z</time>
      </trkpt>
      <trkpt lat="48.39987" lon="7.29974">
        <ele>760</ele>
        <time>2020-06-24T10:28:57.175Z</time>
      </trkpt>
      <trkpt lat="48.39988" lon="7.29974">
        <ele>761</ele>
        <time>2020-06-24T10:28:58.175Z</time>
      </trkpt>
      <trkpt lat="48.3999" lon="7.29973">
        <ele>761</ele>
        <time>2020-06-24T10:28:59.174Z</time>
      </trkpt>
      <trkpt lat="48.39991" lon="7.29973">
        <ele>761</ele>
        <time>2020-06-24T10:29:00.175Z</time>
      </trkpt>
      <trkpt lat="48.39992" lon="7.29973">
        <ele>762</ele>
        <time>2020-06-24T10:29:01.174Z</time>
      </trkpt>
      <trkpt lat="48.39992" lon="7.29973">
        <ele>762</ele>
        <time>2020-06-24T10:29:02.175Z</time>
      </trkpt>
      <trkpt lat="48.39993" lon="7.29972">
        <ele>763</ele>
        <time>2020-06-24T10:29:03.175Z</time>
      </trkpt>
      <trkpt lat="48.39994" lon="7.29972">
        <ele>763</ele>
        <time>2020-06-24T10:29:04.174Z</time>
      </trkpt>
      <trkpt lat="48.39996" lon="7.29972">
        <ele>764</ele>
        <time>2020-06-24T10:29:05.175Z</time>
      </trkpt>
      <trkpt lat="48.39997" lon="7.29972">
        <ele>764</ele>
        <time>2020-06-24T10:29:06.175Z</time>
      </trkpt>
      <trkpt lat="48.39998" lon="7.29972">
        <ele>765</ele>
        <time>2020-06-24T10:29:07.175Z</time>
      </trkpt>
      <trkpt lat="48.39999" lon="7.29973">
        <ele>765</ele>
        <time>2020-06-24T10:29:08.175Z</time>
      </trkpt>
      <trkpt lat="48.4" lon="7.29974">
        <ele>765</ele>
        <time>2020-06-24T10:29:09.175Z</time>
      </trkpt>
      <trkpt lat="48.40001" lon="7.29975">
        <ele>765</ele>
        <time>2020-06-24T10:29:10.174Z</time>
      </trkpt>
      <trkpt lat="48.40002" lon="7.29975">
        <ele>765</ele>
        <time>2020-06-24T10:29:11.175Z</time>
      </trkpt>
      <trkpt lat="48.40002" lon="7.29975">
        <ele>766</ele>
        <time>2020-06-24T10:29:12.175Z</time>
      </trkpt>
      <trkpt lat="48.40003" lon="7.29975">
        <ele>766</ele>
        <time>2020-06-24T10:29:13.174Z</time>
      </trkpt>
      <trkpt lat="48.40004" lon="7.29974">
        <ele>766</ele>
        <time>2020-06-24T10:29:14.175Z</time>
      </trkpt>
      <trkpt lat="48.40007" lon="7.29973">
        <ele>766</ele>
        <time>2020-06-24T10:29:15.175Z</time>
      </trkpt>
      <trkpt lat="48.4001" lon="7.29972">
        <ele>766</ele>
        <time>2020-06-24T10:29:16.175Z</time>
      </trkpt>
      <trkpt lat="48.40011" lon="7.29972">
        <ele>767</ele>
        <time>2020-06-24T10:29:17.175Z</time>
      </trkpt>
      <trkpt lat="48.40012" lon="7.29971">
        <ele>767</ele>
        <time>2020-06-24T10:29:18.175Z</time>
      </trkpt>
      <trkpt lat="48.40013" lon="7.29971">
        <ele>768</ele>
        <time>2020-06-24T10:29:19.175Z</time>
      </trkpt>
      <trkpt lat="48.40015" lon="7.29972">
        <ele>768</ele>
        <time>2020-06-24T10:29:20.175Z</time>
      </trkpt>
      <trkpt lat="48.40016" lon="7.29971">
        <ele>769</ele>
        <time>2020-06-24T10:29:21.175Z</time>
      </trkpt>
      <trkpt lat="48.40017" lon="7.2997">
        <ele>769</ele>
        <time>2020-06-24T10:29:22.175Z</time>
      </trkpt>
      <trkpt lat="48.40019" lon="7.29969">
        <ele>768</ele>
        <time>2020-06-24T10:29:23.175Z</time>
      </trkpt>
      <trkpt lat="48.4002" lon="7.29968">
        <ele>768</ele>
        <time>2020-06-24T10:29:24.174Z</time>
      </trkpt>
      <trkpt lat="48.40021" lon="7.29967">
        <ele>768</ele>
        <time>2020-06-24T10:29:25.175Z</time>
      </trkpt>
      <trkpt lat="48.40022" lon="7.29965">
        <ele>768</ele>
        <time>2020-06-24T10:29:26.175Z</time>
      </trkpt>
      <trkpt lat="48.40023" lon="7.29964">
        <ele>767</ele>
        <time>2020-06-24T10:29:27.175Z</time>
      </trkpt>
      <trkpt lat="48.40023" lon="7.29961">
        <ele>767</ele>
        <time>2020-06-24T10:29:28.175Z</time>
      </trkpt>
      <trkpt lat="48.40024" lon="7.29959">
        <ele>767</ele>
        <time>2020-06-24T10:29:29.175Z</time>
      </trkpt>
      <trkpt lat="48.40024" lon="7.29957">
        <ele>766</ele>
        <time>2020-06-24T10:29:30.175Z</time>
      </trkpt>
      <trkpt lat="48.40025" lon="7.29956">
        <ele>766</ele>
        <time>2020-06-24T10:29:31.175Z</time>
      </trkpt>
      <trkpt lat="48.40026" lon="7.29954">
        <ele>765</ele>
        <time>2020-06-24T10:29:32.174Z</time>
      </trkpt>
      <trkpt lat="48.40027" lon="7.29953">
        <ele>765</ele>
        <time>2020-06-24T10:29:33.175Z</time>
      </trkpt>
      <trkpt lat="48.40028" lon="7.29952">
        <ele>764</ele>
        <time>2020-06-24T10:29:34.174Z</time>
      </trkpt>
      <trkpt lat="48.40028" lon="7.29951">
        <ele>764</ele>
        <time>2020-06-24T10:29:35.175Z</time>
      </trkpt>
      <trkpt lat="48.4003" lon="7.2995">
        <ele>764</ele>
        <time>2020-06-24T10:29:36.174Z</time>
      </trkpt>
      <trkpt lat="48.40032" lon="7.29949">
        <ele>763</ele>
        <time>2020-06-24T10:29:37.175Z</time>
      </trkpt>
      <trkpt lat="48.40033" lon="7.29948">
        <ele>763</ele>
        <time>2020-06-24T10:29:38.175Z</time>
      </trkpt>
      <trkpt lat="48.40034" lon="7.29946">
        <ele>762</ele>
        <time>2020-06-24T10:29:39.175Z</time>
      </trkpt>
      <trkpt lat="48.40035" lon="7.29944">
        <ele>762</ele>
        <time>2020-06-24T10:29:40.175Z</time>
      </trkpt>
      <trkpt lat="48.40035" lon="7.29943">
        <ele>761</ele>
        <time>2020-06-24T10:29:41.175Z</time>
      </trkpt>
      <trkpt lat="48.40036" lon="7.29941">
        <ele>761</ele>
        <time>2020-06-24T10:29:42.175Z</time>
      </trkpt>
      <trkpt lat="48.40037" lon="7.2994">
        <ele>760</ele>
        <time>2020-06-24T10:29:43.174Z</time>
      </trkpt>
      <trkpt lat="48.40038" lon="7.29938">
        <ele>760</ele>
        <time>2020-06-24T10:29:44.175Z</time>
      </trkpt>
      <trkpt lat="48.4004" lon="7.29936">
        <ele>760</ele>
        <time>2020-06-24T10:29:45.175Z</time>
      </trkpt>
      <trkpt lat="48.40041" lon="7.29934">
        <ele>760</ele>
        <time>2020-06-24T10:29:46.174Z</time>
      </trkpt>
      <trkpt lat="48.40042" lon="7.29933">
        <ele>759</ele>
        <time>2020-06-24T10:29:47.175Z</time>
      </trkpt>
      <trkpt lat="48.40043" lon="7.29931">
        <ele>759</ele>
        <time>2020-06-24T10:29:48.174Z</time>
      </trkpt>
      <trkpt lat="48.40045" lon="7.2993">
        <ele>759</ele>
        <time>2020-06-24T10:29:49.175Z</time>
      </trkpt>
      <trkpt lat="48.40046" lon="7.29929">
        <ele>759</ele>
        <time>2020-06-24T10:29:50.175Z</time>
      </trkpt>
      <trkpt lat="48.40048" lon="7.29926">
        <ele>759</ele>
        <time>2020-06-24T10:29:51.175Z</time>
      </trkpt>
      <trkpt lat="48.40049" lon="7.29925">
        <ele>758</ele>
        <time>2020-06-24T10:29:52.174Z</time>
      </trkpt>
      <trkpt lat="48.40049" lon="7.29923">
        <ele>758</ele>
        <time>2020-06-24T10:29:53.175Z</time>
      </trkpt>
      <trkpt lat="48.40051" lon="7.29922">
        <ele>758</ele>
        <time>2020-06-24T10:29:54.175Z</time>
      </trkpt>
      <trkpt lat="48.40052" lon="7.29923">
        <ele>757</ele>
        <time>2020-06-24T10:29:55.175Z</time>
      </trkpt>
      <trkpt lat="48.40054" lon="7.29925">
        <ele>757</ele>
        <time>2020-06-24T10:29:56.175Z</time>
      </trkpt>
      <trkpt lat="48.40055" lon="7.29926">
        <ele>757</ele>
        <time>2020-06-24T10:29:57.175Z</time>
      </trkpt>
      <trkpt lat="48.40057" lon="7.29926">
        <ele>756</ele>
        <time>2020-06-24T10:29:58.175Z</time>
      </trkpt>
      <trkpt lat="48.40058" lon="7.29926">
        <ele>756</ele>
        <time>2020-06-24T10:29:59.174Z</time>
      </trkpt>
      <trkpt lat="48.40059" lon="7.29927">
        <ele>756</ele>
        <time>2020-06-24T10:30:00.175Z</time>
      </trkpt>
      <trkpt lat="48.4006" lon="7.29928">
        <ele>755</ele>
        <time>2020-06-24T10:30:01.175Z</time>
      </trkpt>
      <trkpt lat="48.40061" lon="7.29928">
        <ele>755</ele>
        <time>2020-06-24T10:30:02.175Z</time>
      </trkpt>
      <trkpt lat="48.40061" lon="7.29928">
        <ele>755</ele>
        <time>2020-06-24T10:30:03.174Z</time>
      </trkpt>
      <trkpt lat="48.4006" lon="7.29928">
        <ele>755</ele>
        <time>2020-06-24T10:30:04.175Z</time>
      </trkpt>
      <trkpt lat="48.40057" lon="7.29926">
        <ele>754</ele>
        <time>2020-06-24T10:30:05.176Z</time>
      </trkpt>
      <trkpt lat="48.40056" lon="7.29926">
        <ele>753</ele>
        <time>2020-06-24T10:30:06.176Z</time>
      </trkpt>
      <trkpt lat="48.40057" lon="7.29929">
        <ele>748</ele>
        <time>2020-06-24T10:30:07.176Z</time>
      </trkpt>
      <trkpt lat="48.40057" lon="7.2993">
        <ele>748</ele>
        <time>2020-06-24T10:30:08.176Z</time>
      </trkpt>
      <trkpt lat="48.40058" lon="7.29931">
        <ele>748</ele>
        <time>2020-06-24T10:30:09.175Z</time>
      </trkpt>
      <trkpt lat="48.40058" lon="7.29932">
        <ele>748</ele>
        <time>2020-06-24T10:30:10.176Z</time>
      </trkpt>
      <trkpt lat="48.40058" lon="7.29933">
        <ele>748</ele>
        <time>2020-06-24T10:30:11.175Z</time>
      </trkpt>
      <trkpt lat="48.40058" lon="7.29934">
        <ele>748</ele>
        <time>2020-06-24T10:30:12.175Z</time>
      </trkpt>
      <trkpt lat="48.40058" lon="7.29935">
        <ele>748</ele>
        <time>2020-06-24T10:30:13.176Z</time>
      </trkpt>
      <trkpt lat="48.40058" lon="7.2994">
        <ele>749</ele>
        <time>2020-06-24T10:30:14.176Z</time>
      </trkpt>
      <trkpt lat="48.4006" lon="7.29942">
        <ele>749</ele>
        <time>2020-06-24T10:30:15.177Z</time>
      </trkpt>
      <trkpt lat="48.40061" lon="7.29944">
        <ele>750</ele>
        <time>2020-06-24T10:30:16.176Z</time>
      </trkpt>
      <trkpt lat="48.40062" lon="7.29946">
        <ele>750</ele>
        <time>2020-06-24T10:30:17.176Z</time>
      </trkpt>
      <trkpt lat="48.40062" lon="7.29947">
        <ele>751</ele>
        <time>2020-06-24T10:30:18.176Z</time>
      </trkpt>
      <trkpt lat="48.40062" lon="7.29949">
        <ele>751</ele>
        <time>2020-06-24T10:30:19.176Z</time>
      </trkpt>
      <trkpt lat="48.40062" lon="7.29951">
        <ele>751</ele>
        <time>2020-06-24T10:30:20.177Z</time>
      </trkpt>
      <trkpt lat="48.40063" lon="7.29952">
        <ele>751</ele>
        <time>2020-06-24T10:30:21.176Z</time>
      </trkpt>
      <trkpt lat="48.40063" lon="7.29954">
        <ele>752</ele>
        <time>2020-06-24T10:30:22.176Z</time>
      </trkpt>
      <trkpt lat="48.40063" lon="7.29956">
        <ele>752</ele>
        <time>2020-06-24T10:30:23.176Z</time>
      </trkpt>
      <trkpt lat="48.40063" lon="7.29959">
        <ele>751</ele>
        <time>2020-06-24T10:30:24.176Z</time>
      </trkpt>
      <trkpt lat="48.40063" lon="7.29961">
        <ele>751</ele>
        <time>2020-06-24T10:30:25.176Z</time>
      </trkpt>
      <trkpt lat="48.40063" lon="7.29964">
        <ele>750</ele>
        <time>2020-06-24T10:30:26.176Z</time>
      </trkpt>
      <trkpt lat="48.40063" lon="7.29966">
        <ele>749</ele>
        <time>2020-06-24T10:30:27.176Z</time>
      </trkpt>
      <trkpt lat="48.40063" lon="7.29968">
        <ele>748</ele>
        <time>2020-06-24T10:30:28.176Z</time>
      </trkpt>
      <trkpt lat="48.40064" lon="7.29969">
        <ele>747</ele>
        <time>2020-06-24T10:30:29.177Z</time>
      </trkpt>
      <trkpt lat="48.40065" lon="7.29971">
        <ele>747</ele>
        <time>2020-06-24T10:30:30.177Z</time>
      </trkpt>
      <trkpt lat="48.40065" lon="7.29972">
        <ele>746</ele>
        <time>2020-06-24T10:30:31.177Z</time>
      </trkpt>
      <trkpt lat="48.40066" lon="7.29972">
        <ele>746</ele>
        <time>2020-06-24T10:30:32.176Z</time>
      </trkpt>
      <trkpt lat="48.40066" lon="7.29974">
        <ele>746</ele>
        <time>2020-06-24T10:30:33.177Z</time>
      </trkpt>
      <trkpt lat="48.40067" lon="7.29975">
        <ele>746</ele>
        <time>2020-06-24T10:30:34.176Z</time>
      </trkpt>
      <trkpt lat="48.40067" lon="7.29978">
        <ele>746</ele>
        <time>2020-06-24T10:30:35.177Z</time>
      </trkpt>
      <trkpt lat="48.40067" lon="7.2998">
        <ele>746</ele>
        <time>2020-06-24T10:30:36.177Z</time>
      </trkpt>
      <trkpt lat="48.40067" lon="7.29982">
        <ele>747</ele>
        <time>2020-06-24T10:30:37.177Z</time>
      </trkpt>
      <trkpt lat="48.40067" lon="7.29984">
        <ele>747</ele>
        <time>2020-06-24T10:30:38.176Z</time>
      </trkpt>
      <trkpt lat="48.40066" lon="7.29987">
        <ele>747</ele>
        <time>2020-06-24T10:30:39.176Z</time>
      </trkpt>
      <trkpt lat="48.40066" lon="7.2999">
        <ele>747</ele>
        <time>2020-06-24T10:30:40.177Z</time>
      </trkpt>
      <trkpt lat="48.40066" lon="7.29992">
        <ele>747</ele>
        <time>2020-06-24T10:30:41.176Z</time>
      </trkpt>
      <trkpt lat="48.40066" lon="7.29995">
        <ele>746</ele>
        <time>2020-06-24T10:30:42.177Z</time>
      </trkpt>
      <trkpt lat="48.40066" lon="7.29997">
        <ele>746</ele>
        <time>2020-06-24T10:30:43.176Z</time>
      </trkpt>
      <trkpt lat="48.40065" lon="7.29999">
        <ele>746</ele>
        <time>2020-06-24T10:30:44.176Z</time>
      </trkpt>
      <trkpt lat="48.40064" lon="7.30001">
        <ele>746</ele>
        <time>2020-06-24T10:30:45.177Z</time>
      </trkpt>
      <trkpt lat="48.40063" lon="7.30003">
        <ele>746</ele>
        <time>2020-06-24T10:30:46.176Z</time>
      </trkpt>
      <trkpt lat="48.40063" lon="7.30006">
        <ele>746</ele>
        <time>2020-06-24T10:30:47.177Z</time>
      </trkpt>
      <trkpt lat="48.40062" lon="7.30009">
        <ele>745</ele>
        <time>2020-06-24T10:30:48.177Z</time>
      </trkpt>
      <trkpt lat="48.40062" lon="7.30011">
        <ele>745</ele>
        <time>2020-06-24T10:30:49.177Z</time>
      </trkpt>
      <trkpt lat="48.40062" lon="7.30013">
        <ele>744</ele>
        <time>2020-06-24T10:30:50.177Z</time>
      </trkpt>
      <trkpt lat="48.40062" lon="7.30014">
        <ele>744</ele>
        <time>2020-06-24T10:30:51.177Z</time>
      </trkpt>
      <trkpt lat="48.40062" lon="7.30016">
        <ele>744</ele>
        <time>2020-06-24T10:30:52.177Z</time>
      </trkpt>
      <trkpt lat="48.40062" lon="7.30018">
        <ele>743</ele>
        <time>2020-06-24T10:30:53.177Z</time>
      </trkpt>
      <trkpt lat="48.40062" lon="7.3002">
        <ele>743</ele>
        <time>2020-06-24T10:30:54.177Z</time>
      </trkpt>
      <trkpt lat="48.40061" lon="7.30023">
        <ele>743</ele>
        <time>2020-06-24T10:30:55.177Z</time>
      </trkpt>
      <trkpt lat="48.40061" lon="7.30025">
        <ele>743</ele>
        <time>2020-06-24T10:30:56.177Z</time>
      </trkpt>
      <trkpt lat="48.40061" lon="7.30027">
        <ele>744</ele>
        <time>2020-06-24T10:30:57.177Z</time>
      </trkpt>
      <trkpt lat="48.40061" lon="7.30029">
        <ele>744</ele>
        <time>2020-06-24T10:30:58.177Z</time>
      </trkpt>
      <trkpt lat="48.4006" lon="7.30032">
        <ele>744</ele>
        <time>2020-06-24T10:30:59.176Z</time>
      </trkpt>
      <trkpt lat="48.40059" lon="7.30034">
        <ele>744</ele>
        <time>2020-06-24T10:31:00.176Z</time>
      </trkpt>
      <trkpt lat="48.40059" lon="7.30036">
        <ele>744</ele>
        <time>2020-06-24T10:31:01.176Z</time>
      </trkpt>
      <trkpt lat="48.40058" lon="7.30039">
        <ele>744</ele>
        <time>2020-06-24T10:31:02.177Z</time>
      </trkpt>
      <trkpt lat="48.40058" lon="7.30041">
        <ele>744</ele>
        <time>2020-06-24T10:31:03.176Z</time>
      </trkpt>
      <trkpt lat="48.40057" lon="7.30042">
        <ele>744</ele>
        <time>2020-06-24T10:31:04.177Z</time>
      </trkpt>
      <trkpt lat="48.40058" lon="7.30045">
        <ele>745</ele>
        <time>2020-06-24T10:31:05.176Z</time>
      </trkpt>
      <trkpt lat="48.40058" lon="7.30047">
        <ele>745</ele>
        <time>2020-06-24T10:31:06.177Z</time>
      </trkpt>
      <trkpt lat="48.40059" lon="7.3005">
        <ele>745</ele>
        <time>2020-06-24T10:31:07.177Z</time>
      </trkpt>
      <trkpt lat="48.40058" lon="7.30052">
        <ele>745</ele>
        <time>2020-06-24T10:31:08.176Z</time>
      </trkpt>
      <trkpt lat="48.40057" lon="7.30053">
        <ele>745</ele>
        <time>2020-06-24T10:31:09.177Z</time>
      </trkpt>
      <trkpt lat="48.40056" lon="7.30055">
        <ele>745</ele>
        <time>2020-06-24T10:31:10.177Z</time>
      </trkpt>
      <trkpt lat="48.40056" lon="7.30057">
        <ele>745</ele>
        <time>2020-06-24T10:31:11.177Z</time>
      </trkpt>
      <trkpt lat="48.40056" lon="7.30059">
        <ele>745</ele>
        <time>2020-06-24T10:31:12.177Z</time>
      </trkpt>
      <trkpt lat="48.40055" lon="7.30061">
        <ele>745</ele>
        <time>2020-06-24T10:31:13.176Z</time>
      </trkpt>
      <trkpt lat="48.40054" lon="7.30062">
        <ele>744</ele>
        <time>2020-06-24T10:31:14.177Z</time>
      </trkpt>
      <trkpt lat="48.40054" lon="7.30064">
        <ele>743</ele>
        <time>2020-06-24T10:31:15.177Z</time>
      </trkpt>
      <trkpt lat="48.40054" lon="7.30066">
        <ele>743</ele>
        <time>2020-06-24T10:31:16.177Z</time>
      </trkpt>
      <trkpt lat="48.40054" lon="7.30067">
        <ele>742</ele>
        <time>2020-06-24T10:31:17.177Z</time>
      </trkpt>
      <trkpt lat="48.40054" lon="7.30069">
        <ele>741</ele>
        <time>2020-06-24T10:31:18.176Z</time>
      </trkpt>
      <trkpt lat="48.40055" lon="7.30071">
        <ele>741</ele>
        <time>2020-06-24T10:31:19.177Z</time>
      </trkpt>
      <trkpt lat="48.40055" lon="7.30073">
        <ele>740</ele>
        <time>2020-06-24T10:31:20.176Z</time>
      </trkpt>
      <trkpt lat="48.40056" lon="7.30075">
        <ele>740</ele>
        <time>2020-06-24T10:31:21.176Z</time>
      </trkpt>
      <trkpt lat="48.40056" lon="7.30077">
        <ele>739</ele>
        <time>2020-06-24T10:31:22.177Z</time>
      </trkpt>
      <trkpt lat="48.40056" lon="7.30078">
        <ele>739</ele>
        <time>2020-06-24T10:31:23.176Z</time>
      </trkpt>
      <trkpt lat="48.40055" lon="7.3008">
        <ele>738</ele>
        <time>2020-06-24T10:31:24.178Z</time>
      </trkpt>
      <trkpt lat="48.40055" lon="7.30082">
        <ele>738</ele>
        <time>2020-06-24T10:31:25.178Z</time>
      </trkpt>
      <trkpt lat="48.40056" lon="7.30083">
        <ele>738</ele>
        <time>2020-06-24T10:31:26.177Z</time>
      </trkpt>
      <trkpt lat="48.40056" lon="7.30085">
        <ele>738</ele>
        <time>2020-06-24T10:31:27.177Z</time>
      </trkpt>
      <trkpt lat="48.40057" lon="7.30086">
        <ele>737</ele>
        <time>2020-06-24T10:31:28.177Z</time>
      </trkpt>
      <trkpt lat="48.40057" lon="7.30087">
        <ele>737</ele>
        <time>2020-06-24T10:31:29.177Z</time>
      </trkpt>
      <trkpt lat="48.40058" lon="7.30088">
        <ele>737</ele>
        <time>2020-06-24T10:31:30.178Z</time>
      </trkpt>
      <trkpt lat="48.40058" lon="7.30089">
        <ele>737</ele>
        <time>2020-06-24T10:31:31.178Z</time>
      </trkpt>
      <trkpt lat="48.40059" lon="7.3009">
        <ele>737</ele>
        <time>2020-06-24T10:31:32.177Z</time>
      </trkpt>
      <trkpt lat="48.40059" lon="7.30092">
        <ele>737</ele>
        <time>2020-06-24T10:31:33.178Z</time>
      </trkpt>
      <trkpt lat="48.40059" lon="7.30094">
        <ele>737</ele>
        <time>2020-06-24T10:31:34.177Z</time>
      </trkpt>
      <trkpt lat="48.40059" lon="7.30094">
        <ele>737</ele>
        <time>2020-06-24T10:31:35.178Z</time>
      </trkpt>
      <trkpt lat="48.40059" lon="7.30095">
        <ele>737</ele>
        <time>2020-06-24T10:31:36.177Z</time>
      </trkpt>
      <trkpt lat="48.40057" lon="7.30097">
        <ele>737</ele>
        <time>2020-06-24T10:31:37.177Z</time>
      </trkpt>
      <trkpt lat="48.40057" lon="7.30097">
        <ele>736</ele>
        <time>2020-06-24T10:31:38.178Z</time>
      </trkpt>
      <trkpt lat="48.40058" lon="7.30098">
        <ele>736</ele>
        <time>2020-06-24T10:31:39.178Z</time>
      </trkpt>
      <trkpt lat="48.40057" lon="7.30098">
        <ele>736</ele>
        <time>2020-06-24T10:31:40.177Z</time>
      </trkpt>
      <trkpt lat="48.40057" lon="7.30097">
        <ele>736</ele>
        <time>2020-06-24T10:31:41.178Z</time>
      </trkpt>
      <trkpt lat="48.40058" lon="7.30096">
        <ele>736</ele>
        <time>2020-06-24T10:31:42.178Z</time>
      </trkpt>
      <trkpt lat="48.40058" lon="7.30096">
        <ele>735</ele>
        <time>2020-06-24T10:31:43.178Z</time>
      </trkpt>
      <trkpt lat="48.40058" lon="7.30096">
        <ele>736</ele>
        <time>2020-06-24T10:31:44.178Z</time>
      </trkpt>
      <trkpt lat="48.40058" lon="7.30096">
        <ele>736</ele>
        <time>2020-06-24T10:31:45.178Z</time>
      </trkpt>
      <trkpt lat="48.40058" lon="7.30096">
        <ele>735</ele>
        <time>2020-06-24T10:31:46.178Z</time>
      </trkpt>
      <trkpt lat="48.40058" lon="7.30096">
        <ele>735</ele>
        <time>2020-06-24T10:31:47.177Z</time>
      </trkpt>
      <trkpt lat="48.40058" lon="7.30096">
        <ele>735</ele>
        <time>2020-06-24T10:31:48.178Z</time>
      </trkpt>
      <trkpt lat="48.40058" lon="7.30097">
        <ele>734</ele>
        <time>2020-06-24T10:31:49.178Z</time>
      </trkpt>
      <trkpt lat="48.40057" lon="7.301">
        <ele>730</ele>
        <time>2020-06-24T10:31:50.177Z</time>
      </trkpt>
      <trkpt lat="48.40056" lon="7.30101">
        <ele>730</ele>
        <time>2020-06-24T10:31:51.178Z</time>
      </trkpt>
      <trkpt lat="48.40056" lon="7.30103">
        <ele>731</ele>
        <time>2020-06-24T10:31:52.177Z</time>
      </trkpt>
      <trkpt lat="48.40057" lon="7.30105">
        <ele>731</ele>
        <time>2020-06-24T10:31:53.178Z</time>
      </trkpt>
      <trkpt lat="48.40057" lon="7.30107">
        <ele>732</ele>
        <time>2020-06-24T10:31:54.178Z</time>
      </trkpt>
      <trkpt lat="48.40057" lon="7.30108">
        <ele>732</ele>
        <time>2020-06-24T10:31:55.178Z</time>
      </trkpt>
      <trkpt lat="48.40056" lon="7.3011">
        <ele>732</ele>
        <time>2020-06-24T10:31:56.178Z</time>
      </trkpt>
      <trkpt lat="48.40056" lon="7.30111">
        <ele>732</ele>
        <time>2020-06-24T10:31:57.178Z</time>
      </trkpt>
      <trkpt lat="48.40056" lon="7.30112">
        <ele>732</ele>
        <time>2020-06-24T10:31:58.178Z</time>
      </trkpt>
      <trkpt lat="48.40056" lon="7.30112">
        <ele>732</ele>
        <time>2020-06-24T10:31:59.178Z</time>
      </trkpt>
      <trkpt lat="48.40057" lon="7.30113">
        <ele>732</ele>
        <time>2020-06-24T10:32:00.178Z</time>
      </trkpt>
      <trkpt lat="48.40057" lon="7.30115">
        <ele>732</ele>
        <time>2020-06-24T10:32:01.178Z</time>
      </trkpt>
      <trkpt lat="48.40057" lon="7.30116">
        <ele>732</ele>
        <time>2020-06-24T10:32:02.178Z</time>
      </trkpt>
      <trkpt lat="48.40056" lon="7.30118">
        <ele>732</ele>
        <time>2020-06-24T10:32:03.177Z</time>
      </trkpt>
      <trkpt lat="48.40056" lon="7.30119">
        <ele>731</ele>
        <time>2020-06-24T10:32:04.177Z</time>
      </trkpt>
      <trkpt lat="48.40056" lon="7.30119">
        <ele>731</ele>
        <time>2020-06-24T10:32:05.177Z</time>
      </trkpt>
      <trkpt lat="48.40056" lon="7.30119">
        <ele>731</ele>
        <time>2020-06-24T10:32:06.180Z</time>
      </trkpt>
      <trkpt lat="48.40057" lon="7.30119">
        <ele>731</ele>
        <time>2020-06-24T10:32:07.180Z</time>
      </trkpt>
      <trkpt lat="48.40057" lon="7.30119">
        <ele>731</ele>
        <time>2020-06-24T10:32:08.179Z</time>
      </trkpt>
      <trkpt lat="48.40057" lon="7.3012">
        <ele>731</ele>
        <time>2020-06-24T10:32:09.180Z</time>
      </trkpt>
      <trkpt lat="48.40058" lon="7.3012">
        <ele>730</ele>
        <time>2020-06-24T10:32:10.179Z</time>
      </trkpt>
      <trkpt lat="48.40058" lon="7.30121">
        <ele>730</ele>
        <time>2020-06-24T10:32:11.179Z</time>
      </trkpt>
      <trkpt lat="48.40059" lon="7.30122">
        <ele>730</ele>
        <time>2020-06-24T10:32:12.179Z</time>
      </trkpt>
      <trkpt lat="48.4006" lon="7.30123">
        <ele>730</ele>
        <time>2020-06-24T10:32:13.180Z</time>
      </trkpt>
      <trkpt lat="48.4006" lon="7.30123">
        <ele>729</ele>
        <time>2020-06-24T10:32:14.180Z</time>
      </trkpt>
      <trkpt lat="48.4006" lon="7.30124">
        <ele>729</ele>
        <time>2020-06-24T10:32:15.180Z</time>
      </trkpt>
      <trkpt lat="48.40061" lon="7.30125">
        <ele>729</ele>
        <time>2020-06-24T10:32:16.179Z</time>
      </trkpt>
      <trkpt lat="48.40061" lon="7.30126">
        <ele>729</ele>
        <time>2020-06-24T10:32:17.179Z</time>
      </trkpt>
      <trkpt lat="48.40061" lon="7.30126">
        <ele>729</ele>
        <time>2020-06-24T10:32:18.179Z</time>
      </trkpt>
      <trkpt lat="48.40061" lon="7.30128">
        <ele>729</ele>
        <time>2020-06-24T10:32:19.180Z</time>
      </trkpt>
      <trkpt lat="48.40061" lon="7.30129">
        <ele>729</ele>
        <time>2020-06-24T10:32:20.179Z</time>
      </trkpt>
      <trkpt lat="48.4006" lon="7.30131">
        <ele>729</ele>
        <time>2020-06-24T10:32:21.180Z</time>
      </trkpt>
      <trkpt lat="48.4006" lon="7.30132">
        <ele>729</ele>
        <time>2020-06-24T10:32:22.180Z</time>
      </trkpt>
      <trkpt lat="48.4006" lon="7.30133">
        <ele>729</ele>
        <time>2020-06-24T10:32:23.180Z</time>
      </trkpt>
      <trkpt lat="48.4006" lon="7.30134">
        <ele>729</ele>
        <time>2020-06-24T10:32:24.180Z</time>
      </trkpt>
      <trkpt lat="48.4006" lon="7.30136">
        <ele>729</ele>
        <time>2020-06-24T10:32:25.180Z</time>
      </trkpt>
      <trkpt lat="48.4006" lon="7.30137">
        <ele>729</ele>
        <time>2020-06-24T10:32:26.180Z</time>
      </trkpt>
      <trkpt lat="48.4006" lon="7.30139">
        <ele>729</ele>
        <time>2020-06-24T10:32:27.180Z</time>
      </trkpt>
      <trkpt lat="48.4006" lon="7.30141">
        <ele>730</ele>
        <time>2020-06-24T10:32:28.180Z</time>
      </trkpt>
      <trkpt lat="48.40061" lon="7.30143">
        <ele>730</ele>
        <time>2020-06-24T10:32:29.179Z</time>
      </trkpt>
      <trkpt lat="48.40061" lon="7.30145">
        <ele>730</ele>
        <time>2020-06-24T10:32:30.180Z</time>
      </trkpt>
      <trkpt lat="48.40061" lon="7.30146">
        <ele>731</ele>
        <time>2020-06-24T10:32:31.180Z</time>
      </trkpt>
      <trkpt lat="48.40062" lon="7.30148">
        <ele>731</ele>
        <time>2020-06-24T10:32:32.180Z</time>
      </trkpt>
      <trkpt lat="48.40062" lon="7.30149">
        <ele>731</ele>
        <time>2020-06-24T10:32:33.180Z</time>
      </trkpt>
      <trkpt lat="48.40062" lon="7.30151">
        <ele>731</ele>
        <time>2020-06-24T10:32:34.179Z</time>
      </trkpt>
      <trkpt lat="48.40062" lon="7.30153">
        <ele>732</ele>
        <time>2020-06-24T10:32:35.180Z</time>
      </trkpt>
      <trkpt lat="48.40062" lon="7.30154">
        <ele>732</ele>
        <time>2020-06-24T10:32:36.180Z</time>
      </trkpt>
      <trkpt lat="48.40063" lon="7.30155">
        <ele>732</ele>
        <time>2020-06-24T10:32:37.180Z</time>
      </trkpt>
      <trkpt lat="48.40064" lon="7.30157">
        <ele>733</ele>
        <time>2020-06-24T10:32:38.180Z</time>
      </trkpt>
      <trkpt lat="48.40065" lon="7.30158">
        <ele>733</ele>
        <time>2020-06-24T10:32:39.180Z</time>
      </trkpt>
      <trkpt lat="48.40065" lon="7.3016">
        <ele>733</ele>
        <time>2020-06-24T10:32:40.180Z</time>
      </trkpt>
      <trkpt lat="48.40065" lon="7.30161">
        <ele>733</ele>
        <time>2020-06-24T10:32:41.180Z</time>
      </trkpt>
      <trkpt lat="48.40064" lon="7.30162">
        <ele>733</ele>
        <time>2020-06-24T10:32:42.180Z</time>
      </trkpt>
      <trkpt lat="48.40063" lon="7.30164">
        <ele>733</ele>
        <time>2020-06-24T10:32:43.180Z</time>
      </trkpt>
      <trkpt lat="48.40062" lon="7.30165">
        <ele>733</ele>
        <time>2020-06-24T10:32:44.180Z</time>
      </trkpt>
      <trkpt lat="48.40062" lon="7.30167">
        <ele>733</ele>
        <time>2020-06-24T10:32:45.180Z</time>
      </trkpt>
      <trkpt lat="48.40061" lon="7.30169">
        <ele>733</ele>
        <time>2020-06-24T10:32:46.180Z</time>
      </trkpt>
      <trkpt lat="48.4006" lon="7.30171">
        <ele>732</ele>
        <time>2020-06-24T10:32:47.180Z</time>
      </trkpt>
      <trkpt lat="48.40059" lon="7.30172">
        <ele>732</ele>
        <time>2020-06-24T10:32:48.179Z</time>
      </trkpt>
      <trkpt lat="48.40059" lon="7.30173">
        <ele>732</ele>
        <time>2020-06-24T10:32:49.180Z</time>
      </trkpt>
      <trkpt lat="48.40058" lon="7.30175">
        <ele>732</ele>
        <time>2020-06-24T10:32:50.179Z</time>
      </trkpt>
      <trkpt lat="48.40058" lon="7.30176">
        <ele>732</ele>
        <time>2020-06-24T10:32:51.180Z</time>
      </trkpt>
      <trkpt lat="48.40057" lon="7.30178">
        <ele>732</ele>
        <time>2020-06-24T10:32:52.179Z</time>
      </trkpt>
      <trkpt lat="48.40056" lon="7.30179">
        <ele>732</ele>
        <time>2020-06-24T10:32:53.180Z</time>
      </trkpt>
      <trkpt lat="48.40055" lon="7.30181">
        <ele>732</ele>
        <time>2020-06-24T10:32:54.179Z</time>
      </trkpt>
      <trkpt lat="48.40055" lon="7.30183">
        <ele>732</ele>
        <time>2020-06-24T10:32:55.180Z</time>
      </trkpt>
      <trkpt lat="48.40054" lon="7.30185">
        <ele>731</ele>
        <time>2020-06-24T10:32:56.180Z</time>
      </trkpt>
      <trkpt lat="48.40054" lon="7.30186">
        <ele>731</ele>
        <time>2020-06-24T10:32:57.180Z</time>
      </trkpt>
      <trkpt lat="48.40053" lon="7.30188">
        <ele>730</ele>
        <time>2020-06-24T10:32:58.180Z</time>
      </trkpt>
      <trkpt lat="48.40053" lon="7.3019">
        <ele>729</ele>
        <time>2020-06-24T10:32:59.179Z</time>
      </trkpt>
      <trkpt lat="48.40052" lon="7.30192">
        <ele>729</ele>
        <time>2020-06-24T10:33:00.179Z</time>
      </trkpt>
      <trkpt lat="48.40052" lon="7.30194">
        <ele>728</ele>
        <time>2020-06-24T10:33:01.179Z</time>
      </trkpt>
      <trkpt lat="48.40051" lon="7.30196">
        <ele>727</ele>
        <time>2020-06-24T10:33:02.180Z</time>
      </trkpt>
      <trkpt lat="48.4005" lon="7.30199">
        <ele>727</ele>
        <time>2020-06-24T10:33:03.179Z</time>
      </trkpt>
      <trkpt lat="48.4005" lon="7.30202">
        <ele>726</ele>
        <time>2020-06-24T10:33:04.180Z</time>
      </trkpt>
      <trkpt lat="48.40049" lon="7.30204">
        <ele>725</ele>
        <time>2020-06-24T10:33:05.179Z</time>
      </trkpt>
      <trkpt lat="48.40048" lon="7.30206">
        <ele>725</ele>
        <time>2020-06-24T10:33:06.180Z</time>
      </trkpt>
      <trkpt lat="48.40047" lon="7.30205">
        <ele>724</ele>
        <time>2020-06-24T10:33:07.180Z</time>
      </trkpt>
      <trkpt lat="48.40044" lon="7.30204">
        <ele>724</ele>
        <time>2020-06-24T10:33:08.180Z</time>
      </trkpt>
      <trkpt lat="48.40042" lon="7.30202">
        <ele>723</ele>
        <time>2020-06-24T10:33:09.179Z</time>
      </trkpt>
      <trkpt lat="48.40041" lon="7.302">
        <ele>723</ele>
        <time>2020-06-24T10:33:10.180Z</time>
      </trkpt>
      <trkpt lat="48.40041" lon="7.30198">
        <ele>722</ele>
        <time>2020-06-24T10:33:11.180Z</time>
      </trkpt>
      <trkpt lat="48.40041" lon="7.30196">
        <ele>721</ele>
        <time>2020-06-24T10:33:12.180Z</time>
      </trkpt>
      <trkpt lat="48.40041" lon="7.30194">
        <ele>721</ele>
        <time>2020-06-24T10:33:13.179Z</time>
      </trkpt>
      <trkpt lat="48.40041" lon="7.30192">
        <ele>720</ele>
        <time>2020-06-24T10:33:14.179Z</time>
      </trkpt>
      <trkpt lat="48.40041" lon="7.30191">
        <ele>719</ele>
        <time>2020-06-24T10:33:15.180Z</time>
      </trkpt>
      <trkpt lat="48.40041" lon="7.30189">
        <ele>719</ele>
        <time>2020-06-24T10:33:16.180Z</time>
      </trkpt>
      <trkpt lat="48.40041" lon="7.30187">
        <ele>718</ele>
        <time>2020-06-24T10:33:17.179Z</time>
      </trkpt>
      <trkpt lat="48.40041" lon="7.30185">
        <ele>717</ele>
        <time>2020-06-24T10:33:18.180Z</time>
      </trkpt>
      <trkpt lat="48.40041" lon="7.30183">
        <ele>716</ele>
        <time>2020-06-24T10:33:19.180Z</time>
      </trkpt>
      <trkpt lat="48.40041" lon="7.30181">
        <ele>716</ele>
        <time>2020-06-24T10:33:20.180Z</time>
      </trkpt>
      <trkpt lat="48.40042" lon="7.30179">
        <ele>716</ele>
        <time>2020-06-24T10:33:21.179Z</time>
      </trkpt>
      <trkpt lat="48.40042" lon="7.30176">
        <ele>715</ele>
        <time>2020-06-24T10:33:22.180Z</time>
      </trkpt>
      <trkpt lat="48.40042" lon="7.30174">
        <ele>715</ele>
        <time>2020-06-24T10:33:23.180Z</time>
      </trkpt>
      <trkpt lat="48.40041" lon="7.30172">
        <ele>716</ele>
        <time>2020-06-24T10:33:24.180Z</time>
      </trkpt>
      <trkpt lat="48.40041" lon="7.3017">
        <ele>716</ele>
        <time>2020-06-24T10:33:25.180Z</time>
      </trkpt>
      <trkpt lat="48.40039" lon="7.30167">
        <ele>716</ele>
        <time>2020-06-24T10:33:26.180Z</time>
      </trkpt>
      <trkpt lat="48.40038" lon="7.30166">
        <ele>716</ele>
        <time>2020-06-24T10:33:27.179Z</time>
      </trkpt>
      <trkpt lat="48.40038" lon="7.30165">
        <ele>716</ele>
        <time>2020-06-24T10:33:28.180Z</time>
      </trkpt>
      <trkpt lat="48.40037" lon="7.30163">
        <ele>717</ele>
        <time>2020-06-24T10:33:29.180Z</time>
      </trkpt>
      <trkpt lat="48.40036" lon="7.30162">
        <ele>717</ele>
        <time>2020-06-24T10:33:30.180Z</time>
      </trkpt>
      <trkpt lat="48.40035" lon="7.30161">
        <ele>717</ele>
        <time>2020-06-24T10:33:31.180Z</time>
      </trkpt>
      <trkpt lat="48.40035" lon="7.30161">
        <ele>717</ele>
        <time>2020-06-24T10:33:32.179Z</time>
      </trkpt>
      <trkpt lat="48.40034" lon="7.3016">
        <ele>717</ele>
        <time>2020-06-24T10:33:33.180Z</time>
      </trkpt>
      <trkpt lat="48.40033" lon="7.30158">
        <ele>717</ele>
        <time>2020-06-24T10:33:34.180Z</time>
      </trkpt>
      <trkpt lat="48.40032" lon="7.30157">
        <ele>717</ele>
        <time>2020-06-24T10:33:35.180Z</time>
      </trkpt>
      <trkpt lat="48.40032" lon="7.30155">
        <ele>717</ele>
        <time>2020-06-24T10:33:36.180Z</time>
      </trkpt>
      <trkpt lat="48.40031" lon="7.30154">
        <ele>718</ele>
        <time>2020-06-24T10:33:37.180Z</time>
      </trkpt>
      <trkpt lat="48.40031" lon="7.30153">
        <ele>719</ele>
        <time>2020-06-24T10:33:38.180Z</time>
      </trkpt>
      <trkpt lat="48.4003" lon="7.30152">
        <ele>719</ele>
        <time>2020-06-24T10:33:39.180Z</time>
      </trkpt>
      <trkpt lat="48.4003" lon="7.30151">
        <ele>720</ele>
        <time>2020-06-24T10:33:40.180Z</time>
      </trkpt>
      <trkpt lat="48.40029" lon="7.3015">
        <ele>721</ele>
        <time>2020-06-24T10:33:41.180Z</time>
      </trkpt>
      <trkpt lat="48.40028" lon="7.30149">
        <ele>722</ele>
        <time>2020-06-24T10:33:42.180Z</time>
      </trkpt>
      <trkpt lat="48.40027" lon="7.30148">
        <ele>723</ele>
        <time>2020-06-24T10:33:43.179Z</time>
      </trkpt>
      <trkpt lat="48.40027" lon="7.30149">
        <ele>723</ele>
        <time>2020-06-24T10:33:44.180Z</time>
      </trkpt>
      <trkpt lat="48.40028" lon="7.30147">
        <ele>724</ele>
        <time>2020-06-24T10:33:45.180Z</time>
      </trkpt>
      <trkpt lat="48.40028" lon="7.30146">
        <ele>724</ele>
        <time>2020-06-24T10:33:46.179Z</time>
      </trkpt>
      <trkpt lat="48.40028" lon="7.30146">
        <ele>723</ele>
        <time>2020-06-24T10:33:47.179Z</time>
      </trkpt>
      <trkpt lat="48.40029" lon="7.30145">
        <ele>723</ele>
        <time>2020-06-24T10:33:48.180Z</time>
      </trkpt>
      <trkpt lat="48.40028" lon="7.30144">
        <ele>722</ele>
        <time>2020-06-24T10:33:49.180Z</time>
      </trkpt>
      <trkpt lat="48.40028" lon="7.30143">
        <ele>722</ele>
        <time>2020-06-24T10:33:50.179Z</time>
      </trkpt>
      <trkpt lat="48.40028" lon="7.30142">
        <ele>721</ele>
        <time>2020-06-24T10:33:51.180Z</time>
      </trkpt>
      <trkpt lat="48.40028" lon="7.30143">
        <ele>721</ele>
        <time>2020-06-24T10:33:52.179Z</time>
      </trkpt>
      <trkpt lat="48.40029" lon="7.30142">
        <ele>721</ele>
        <time>2020-06-24T10:33:53.180Z</time>
      </trkpt>
      <trkpt lat="48.40029" lon="7.30142">
        <ele>720</ele>
        <time>2020-06-24T10:33:54.180Z</time>
      </trkpt>
      <trkpt lat="48.40029" lon="7.30142">
        <ele>720</ele>
        <time>2020-06-24T10:33:55.179Z</time>
      </trkpt>
      <trkpt lat="48.40031" lon="7.30141">
        <ele>717</ele>
        <time>2020-06-24T10:33:56.180Z</time>
      </trkpt>
      <trkpt lat="48.40031" lon="7.30142">
        <ele>717</ele>
        <time>2020-06-24T10:33:57.180Z</time>
      </trkpt>
      <trkpt lat="48.40032" lon="7.30143">
        <ele>716</ele>
        <time>2020-06-24T10:33:58.180Z</time>
      </trkpt>
      <trkpt lat="48.40033" lon="7.30148">
        <ele>719</ele>
        <time>2020-06-24T10:33:59.181Z</time>
      </trkpt>
      <trkpt lat="48.40033" lon="7.30149">
        <ele>719</ele>
        <time>2020-06-24T10:34:00.181Z</time>
      </trkpt>
      <trkpt lat="48.40033" lon="7.30151">
        <ele>719</ele>
        <time>2020-06-24T10:34:01.181Z</time>
      </trkpt>
      <trkpt lat="48.40033" lon="7.30152">
        <ele>719</ele>
        <time>2020-06-24T10:34:02.180Z</time>
      </trkpt>
      <trkpt lat="48.40033" lon="7.30153">
        <ele>719</ele>
        <time>2020-06-24T10:34:03.181Z</time>
      </trkpt>
      <trkpt lat="48.40033" lon="7.30153">
        <ele>720</ele>
        <time>2020-06-24T10:34:04.181Z</time>
      </trkpt>
      <trkpt lat="48.40033" lon="7.30154">
        <ele>720</ele>
        <time>2020-06-24T10:34:05.181Z</time>
      </trkpt>
      <trkpt lat="48.40033" lon="7.30155">
        <ele>720</ele>
        <time>2020-06-24T10:34:06.180Z</time>
      </trkpt>
      <trkpt lat="48.40032" lon="7.30155">
        <ele>720</ele>
        <time>2020-06-24T10:34:07.180Z</time>
      </trkpt>
      <trkpt lat="48.40032" lon="7.30156">
        <ele>721</ele>
        <time>2020-06-24T10:34:08.181Z</time>
      </trkpt>
      <trkpt lat="48.40032" lon="7.30157">
        <ele>720</ele>
        <time>2020-06-24T10:34:09.181Z</time>
      </trkpt>
      <trkpt lat="48.40032" lon="7.30158">
        <ele>720</ele>
        <time>2020-06-24T10:34:10.181Z</time>
      </trkpt>
      <trkpt lat="48.40032" lon="7.30159">
        <ele>719</ele>
        <time>2020-06-24T10:34:11.181Z</time>
      </trkpt>
      <trkpt lat="48.40032" lon="7.3016">
        <ele>719</ele>
        <time>2020-06-24T10:34:12.180Z</time>
      </trkpt>
      <trkpt lat="48.40031" lon="7.30161">
        <ele>719</ele>
        <time>2020-06-24T10:34:13.181Z</time>
      </trkpt>
      <trkpt lat="48.40031" lon="7.30162">
        <ele>719</ele>
        <time>2020-06-24T10:34:14.180Z</time>
      </trkpt>
      <trkpt lat="48.4003" lon="7.30163">
        <ele>719</ele>
        <time>2020-06-24T10:34:15.180Z</time>
      </trkpt>
      <trkpt lat="48.40029" lon="7.30164">
        <ele>718</ele>
        <time>2020-06-24T10:34:16.181Z</time>
      </trkpt>
      <trkpt lat="48.40028" lon="7.30166">
        <ele>718</ele>
        <time>2020-06-24T10:34:17.180Z</time>
      </trkpt>
      <trkpt lat="48.40028" lon="7.30168">
        <ele>718</ele>
        <time>2020-06-24T10:34:18.181Z</time>
      </trkpt>
      <trkpt lat="48.40027" lon="7.3017">
        <ele>718</ele>
        <time>2020-06-24T10:34:19.180Z</time>
      </trkpt>
      <trkpt lat="48.40027" lon="7.3017">
        <ele>717</ele>
        <time>2020-06-24T10:34:20.181Z</time>
      </trkpt>
      <trkpt lat="48.40027" lon="7.30171">
        <ele>717</ele>
        <time>2020-06-24T10:34:21.180Z</time>
      </trkpt>
      <trkpt lat="48.40027" lon="7.30172">
        <ele>717</ele>
        <time>2020-06-24T10:34:22.181Z</time>
      </trkpt>
      <trkpt lat="48.40028" lon="7.30173">
        <ele>716</ele>
        <time>2020-06-24T10:34:23.181Z</time>
      </trkpt>
      <trkpt lat="48.40027" lon="7.30175">
        <ele>716</ele>
        <time>2020-06-24T10:34:24.181Z</time>
      </trkpt>
      <trkpt lat="48.40027" lon="7.30175">
        <ele>715</ele>
        <time>2020-06-24T10:34:25.180Z</time>
      </trkpt>
      <trkpt lat="48.40026" lon="7.30175">
        <ele>715</ele>
        <time>2020-06-24T10:34:26.181Z</time>
      </trkpt>
      <trkpt lat="48.40025" lon="7.30174">
        <ele>714</ele>
        <time>2020-06-24T10:34:27.181Z</time>
      </trkpt>
      <trkpt lat="48.40025" lon="7.30173">
        <ele>713</ele>
        <time>2020-06-24T10:34:28.181Z</time>
      </trkpt>
      <trkpt lat="48.40023" lon="7.30172">
        <ele>712</ele>
        <time>2020-06-24T10:34:29.181Z</time>
      </trkpt>
      <trkpt lat="48.40023" lon="7.30172">
        <ele>712</ele>
        <time>2020-06-24T10:34:30.180Z</time>
      </trkpt>
      <trkpt lat="48.40022" lon="7.30172">
        <ele>711</ele>
        <time>2020-06-24T10:34:31.181Z</time>
      </trkpt>
      <trkpt lat="48.40023" lon="7.30172">
        <ele>710</ele>
        <time>2020-06-24T10:34:32.180Z</time>
      </trkpt>
      <trkpt lat="48.40023" lon="7.30171">
        <ele>710</ele>
        <time>2020-06-24T10:34:33.181Z</time>
      </trkpt>
      <trkpt lat="48.40023" lon="7.3017">
        <ele>709</ele>
        <time>2020-06-24T10:34:34.180Z</time>
      </trkpt>
      <trkpt lat="48.40023" lon="7.30169">
        <ele>708</ele>
        <time>2020-06-24T10:34:35.181Z</time>
      </trkpt>
      <trkpt lat="48.40023" lon="7.30168">
        <ele>708</ele>
        <time>2020-06-24T10:34:36.181Z</time>
      </trkpt>
      <trkpt lat="48.40022" lon="7.30167">
        <ele>708</ele>
        <time>2020-06-24T10:34:37.181Z</time>
      </trkpt>
      <trkpt lat="48.40024" lon="7.30167">
        <ele>705</ele>
        <time>2020-06-24T10:34:38.182Z</time>
      </trkpt>
      <trkpt lat="48.40024" lon="7.30166">
        <ele>705</ele>
        <time>2020-06-24T10:34:39.182Z</time>
      </trkpt>
      <trkpt lat="48.40024" lon="7.30166">
        <ele>705</ele>
        <time>2020-06-24T10:34:40.182Z</time>
      </trkpt>
      <trkpt lat="48.40024" lon="7.30167">
        <ele>704</ele>
        <time>2020-06-24T10:34:41.183Z</time>
      </trkpt>
      <trkpt lat="48.40025" lon="7.30167">
        <ele>704</ele>
        <time>2020-06-24T10:34:42.182Z</time>
      </trkpt>
      <trkpt lat="48.40024" lon="7.30167">
        <ele>708</ele>
        <time>2020-06-24T10:34:43.183Z</time>
      </trkpt>
      <trkpt lat="48.40024" lon="7.30168">
        <ele>709</ele>
        <time>2020-06-24T10:34:44.183Z</time>
      </trkpt>
      <trkpt lat="48.40026" lon="7.30169">
        <ele>712</ele>
        <time>2020-06-24T10:34:45.183Z</time>
      </trkpt>
      <trkpt lat="48.40026" lon="7.30169">
        <ele>713</ele>
        <time>2020-06-24T10:34:46.183Z</time>
      </trkpt>
      <trkpt lat="48.40026" lon="7.30169">
        <ele>713</ele>
        <time>2020-06-24T10:34:47.183Z</time>
      </trkpt>
      <trkpt lat="48.40027" lon="7.30169">
        <ele>713</ele>
        <time>2020-06-24T10:34:48.183Z</time>
      </trkpt>
      <trkpt lat="48.40026" lon="7.3017">
        <ele>714</ele>
        <time>2020-06-24T10:34:49.183Z</time>
      </trkpt>
      <trkpt lat="48.40024" lon="7.30167">
        <ele>711</ele>
        <time>2020-06-24T10:34:50.184Z</time>
      </trkpt>
      <trkpt lat="48.40023" lon="7.30166">
        <ele>710</ele>
        <time>2020-06-24T10:34:51.183Z</time>
      </trkpt>
      <trkpt lat="48.40023" lon="7.30166">
        <ele>709</ele>
        <time>2020-06-24T10:34:52.183Z</time>
      </trkpt>
      <trkpt lat="48.40021" lon="7.30159">
        <ele>711</ele>
        <time>2020-06-24T10:34:53.184Z</time>
      </trkpt>
      <trkpt lat="48.40021" lon="7.30157">
        <ele>712</ele>
        <time>2020-06-24T10:34:54.184Z</time>
      </trkpt>
      <trkpt lat="48.40023" lon="7.30156">
        <ele>712</ele>
        <time>2020-06-24T10:34:55.184Z</time>
      </trkpt>
      <trkpt lat="48.40024" lon="7.30155">
        <ele>712</ele>
        <time>2020-06-24T10:34:56.183Z</time>
      </trkpt>
      <trkpt lat="48.40025" lon="7.30154">
        <ele>712</ele>
        <time>2020-06-24T10:34:57.183Z</time>
      </trkpt>
      <trkpt lat="48.40026" lon="7.30153">
        <ele>712</ele>
        <time>2020-06-24T10:34:58.184Z</time>
      </trkpt>
      <trkpt lat="48.40027" lon="7.30152">
        <ele>712</ele>
        <time>2020-06-24T10:34:59.183Z</time>
      </trkpt>
      <trkpt lat="48.40028" lon="7.3015">
        <ele>712</ele>
        <time>2020-06-24T10:35:00.184Z</time>
      </trkpt>
      <trkpt lat="48.40029" lon="7.30149">
        <ele>712</ele>
        <time>2020-06-24T10:35:01.184Z</time>
      </trkpt>
      <trkpt lat="48.40029" lon="7.30147">
        <ele>712</ele>
        <time>2020-06-24T10:35:02.183Z</time>
      </trkpt>
      <trkpt lat="48.4003" lon="7.30146">
        <ele>712</ele>
        <time>2020-06-24T10:35:03.184Z</time>
      </trkpt>
      <trkpt lat="48.4003" lon="7.30144">
        <ele>712</ele>
        <time>2020-06-24T10:35:04.184Z</time>
      </trkpt>
      <trkpt lat="48.4003" lon="7.30142">
        <ele>712</ele>
        <time>2020-06-24T10:35:05.184Z</time>
      </trkpt>
      <trkpt lat="48.40029" lon="7.3014">
        <ele>712</ele>
        <time>2020-06-24T10:35:06.184Z</time>
      </trkpt>
      <trkpt lat="48.4003" lon="7.30139">
        <ele>713</ele>
        <time>2020-06-24T10:35:07.184Z</time>
      </trkpt>
      <trkpt lat="48.40029" lon="7.30137">
        <ele>713</ele>
        <time>2020-06-24T10:35:08.184Z</time>
      </trkpt>
      <trkpt lat="48.40029" lon="7.30137">
        <ele>713</ele>
        <time>2020-06-24T10:35:09.184Z</time>
      </trkpt>
      <trkpt lat="48.40029" lon="7.30137">
        <ele>713</ele>
        <time>2020-06-24T10:35:10.184Z</time>
      </trkpt>
      <trkpt lat="48.40029" lon="7.30137">
        <ele>713</ele>
        <time>2020-06-24T10:35:11.184Z</time>
      </trkpt>
      <trkpt lat="48.40029" lon="7.30136">
        <ele>714</ele>
        <time>2020-06-24T10:35:12.184Z</time>
      </trkpt>
      <trkpt lat="48.40029" lon="7.30136">
        <ele>714</ele>
        <time>2020-06-24T10:35:13.184Z</time>
      </trkpt>
      <trkpt lat="48.40029" lon="7.30136">
        <ele>714</ele>
        <time>2020-06-24T10:35:14.184Z</time>
      </trkpt>
      <trkpt lat="48.40029" lon="7.30136">
        <ele>714</ele>
        <time>2020-06-24T10:35:15.184Z</time>
      </trkpt>
      <trkpt lat="48.40029" lon="7.30135">
        <ele>714</ele>
        <time>2020-06-24T10:35:16.183Z</time>
      </trkpt>
      <trkpt lat="48.4003" lon="7.30136">
        <ele>714</ele>
        <time>2020-06-24T10:35:17.184Z</time>
      </trkpt>
      <trkpt lat="48.4003" lon="7.30136">
        <ele>714</ele>
        <time>2020-06-24T10:35:18.184Z</time>
      </trkpt>
      <trkpt lat="48.4003" lon="7.30135">
        <ele>714</ele>
        <time>2020-06-24T10:35:19.184Z</time>
      </trkpt>
      <trkpt lat="48.40029" lon="7.30135">
        <ele>714</ele>
        <time>2020-06-24T10:35:20.184Z</time>
      </trkpt>
      <trkpt lat="48.40028" lon="7.30135">
        <ele>714</ele>
        <time>2020-06-24T10:35:21.184Z</time>
      </trkpt>
      <trkpt lat="48.40028" lon="7.30135">
        <ele>715</ele>
        <time>2020-06-24T10:35:22.184Z</time>
      </trkpt>
      <trkpt lat="48.40028" lon="7.30132">
        <ele>716</ele>
        <time>2020-06-24T10:35:23.184Z</time>
      </trkpt>
      <trkpt lat="48.40028" lon="7.30131">
        <ele>716</ele>
        <time>2020-06-24T10:35:24.185Z</time>
      </trkpt>
      <trkpt lat="48.40028" lon="7.3013">
        <ele>716</ele>
        <time>2020-06-24T10:35:25.185Z</time>
      </trkpt>
      <trkpt lat="48.40028" lon="7.3013">
        <ele>716</ele>
        <time>2020-06-24T10:35:26.184Z</time>
      </trkpt>
      <trkpt lat="48.40028" lon="7.3013">
        <ele>717</ele>
        <time>2020-06-24T10:35:27.185Z</time>
      </trkpt>
      <trkpt lat="48.40029" lon="7.30129">
        <ele>717</ele>
        <time>2020-06-24T10:35:28.185Z</time>
      </trkpt>
      <trkpt lat="48.40029" lon="7.3013">
        <ele>716</ele>
        <time>2020-06-24T10:35:29.186Z</time>
      </trkpt>
      <trkpt lat="48.4003" lon="7.3013">
        <ele>717</ele>
        <time>2020-06-24T10:35:30.186Z</time>
      </trkpt>
      <trkpt lat="48.4003" lon="7.3013">
        <ele>717</ele>
        <time>2020-06-24T10:35:31.186Z</time>
      </trkpt>
      <trkpt lat="48.40029" lon="7.30131">
        <ele>717</ele>
        <time>2020-06-24T10:35:32.186Z</time>
      </trkpt>
      <trkpt lat="48.40029" lon="7.30131">
        <ele>718</ele>
        <time>2020-06-24T10:35:33.185Z</time>
      </trkpt>
      <trkpt lat="48.40027" lon="7.30147">
        <ele>731</ele>
        <time>2020-06-24T10:35:34.185Z</time>
      </trkpt>
      <trkpt lat="48.4003" lon="7.30146">
        <ele>730</ele>
        <time>2020-06-24T10:35:35.187Z</time>
      </trkpt>
      <trkpt lat="48.4003" lon="7.30146">
        <ele>729</ele>
        <time>2020-06-24T10:35:36.187Z</time>
      </trkpt>
      <trkpt lat="48.40034" lon="7.30147">
        <ele>732</ele>
        <time>2020-06-24T10:35:37.188Z</time>
      </trkpt>
      <trkpt lat="48.40033" lon="7.30148">
        <ele>732</ele>
        <time>2020-06-24T10:35:38.188Z</time>
      </trkpt>
      <trkpt lat="48.40033" lon="7.30149">
        <ele>731</ele>
        <time>2020-06-24T10:35:39.188Z</time>
      </trkpt>
      <trkpt lat="48.40033" lon="7.30151">
        <ele>730</ele>
        <time>2020-06-24T10:35:40.188Z</time>
      </trkpt>
      <trkpt lat="48.40033" lon="7.30152">
        <ele>729</ele>
        <time>2020-06-24T10:35:41.187Z</time>
      </trkpt>
      <trkpt lat="48.40032" lon="7.30154">
        <ele>728</ele>
        <time>2020-06-24T10:35:42.188Z</time>
      </trkpt>
      <trkpt lat="48.40032" lon="7.30155">
        <ele>727</ele>
        <time>2020-06-24T10:35:43.187Z</time>
      </trkpt>
      <trkpt lat="48.40032" lon="7.30156">
        <ele>726</ele>
        <time>2020-06-24T10:35:44.187Z</time>
      </trkpt>
      <trkpt lat="48.40032" lon="7.30157">
        <ele>725</ele>
        <time>2020-06-24T10:35:45.187Z</time>
      </trkpt>
      <trkpt lat="48.40032" lon="7.30158">
        <ele>725</ele>
        <time>2020-06-24T10:35:46.187Z</time>
      </trkpt>
      <trkpt lat="48.40032" lon="7.30159">
        <ele>724</ele>
        <time>2020-06-24T10:35:47.188Z</time>
      </trkpt>
      <trkpt lat="48.40032" lon="7.3016">
        <ele>723</ele>
        <time>2020-06-24T10:35:48.188Z</time>
      </trkpt>
      <trkpt lat="48.40031" lon="7.30161">
        <ele>722</ele>
        <time>2020-06-24T10:35:49.188Z</time>
      </trkpt>
      <trkpt lat="48.40031" lon="7.30163">
        <ele>721</ele>
        <time>2020-06-24T10:35:50.188Z</time>
      </trkpt>
      <trkpt lat="48.4003" lon="7.30164">
        <ele>720</ele>
        <time>2020-06-24T10:35:51.187Z</time>
      </trkpt>
      <trkpt lat="48.4003" lon="7.30165">
        <ele>719</ele>
        <time>2020-06-24T10:35:52.187Z</time>
      </trkpt>
      <trkpt lat="48.4003" lon="7.30166">
        <ele>718</ele>
        <time>2020-06-24T10:35:53.188Z</time>
      </trkpt>
      <trkpt lat="48.4003" lon="7.30167">
        <ele>718</ele>
        <time>2020-06-24T10:35:54.188Z</time>
      </trkpt>
      <trkpt lat="48.4003" lon="7.30168">
        <ele>717</ele>
        <time>2020-06-24T10:35:55.187Z</time>
      </trkpt>
      <trkpt lat="48.40029" lon="7.30168">
        <ele>716</ele>
        <time>2020-06-24T10:35:56.188Z</time>
      </trkpt>
      <trkpt lat="48.40029" lon="7.30169">
        <ele>714</ele>
        <time>2020-06-24T10:35:57.188Z</time>
      </trkpt>
      <trkpt lat="48.40029" lon="7.30171">
        <ele>713</ele>
        <time>2020-06-24T10:35:58.188Z</time>
      </trkpt>
      <trkpt lat="48.40029" lon="7.30172">
        <ele>711</ele>
        <time>2020-06-24T10:35:59.187Z</time>
      </trkpt>
      <trkpt lat="48.40029" lon="7.30172">
        <ele>710</ele>
        <time>2020-06-24T10:36:00.188Z</time>
      </trkpt>
      <trkpt lat="48.40028" lon="7.30173">
        <ele>709</ele>
        <time>2020-06-24T10:36:01.188Z</time>
      </trkpt>
      <trkpt lat="48.40028" lon="7.30173">
        <ele>707</ele>
        <time>2020-06-24T10:36:02.188Z</time>
      </trkpt>
      <trkpt lat="48.40028" lon="7.30174">
        <ele>706</ele>
        <time>2020-06-24T10:36:03.188Z</time>
      </trkpt>
      <trkpt lat="48.40027" lon="7.30174">
        <ele>705</ele>
        <time>2020-06-24T10:36:04.188Z</time>
      </trkpt>
      <trkpt lat="48.40027" lon="7.30174">
        <ele>704</ele>
        <time>2020-06-24T10:36:05.188Z</time>
      </trkpt>
      <trkpt lat="48.40027" lon="7.30175">
        <ele>703</ele>
        <time>2020-06-24T10:36:06.188Z</time>
      </trkpt>
      <trkpt lat="48.40026" lon="7.30175">
        <ele>703</ele>
        <time>2020-06-24T10:36:07.188Z</time>
      </trkpt>
      <trkpt lat="48.40025" lon="7.30174">
        <ele>703</ele>
        <time>2020-06-24T10:36:08.188Z</time>
      </trkpt>
      <trkpt lat="48.40025" lon="7.30173">
        <ele>703</ele>
        <time>2020-06-24T10:36:09.188Z</time>
      </trkpt>
      <trkpt lat="48.40024" lon="7.30172">
        <ele>702</ele>
        <time>2020-06-24T10:36:10.187Z</time>
      </trkpt>
      <trkpt lat="48.40023" lon="7.30172">
        <ele>702</ele>
        <time>2020-06-24T10:36:11.188Z</time>
      </trkpt>
      <trkpt lat="48.40023" lon="7.30171">
        <ele>702</ele>
        <time>2020-06-24T10:36:12.188Z</time>
      </trkpt>
      <trkpt lat="48.40023" lon="7.30176">
        <ele>701</ele>
        <time>2020-06-24T10:36:13.189Z</time>
      </trkpt>
      <trkpt lat="48.40022" lon="7.30175">
        <ele>701</ele>
        <time>2020-06-24T10:36:14.189Z</time>
      </trkpt>
      <trkpt lat="48.40023" lon="7.30176">
        <ele>703</ele>
        <time>2020-06-24T10:36:15.189Z</time>
      </trkpt>
      <trkpt lat="48.40023" lon="7.30176">
        <ele>703</ele>
        <time>2020-06-24T10:36:16.189Z</time>
      </trkpt>
      <trkpt lat="48.40024" lon="7.30176">
        <ele>703</ele>
        <time>2020-06-24T10:36:17.188Z</time>
      </trkpt>
      <trkpt lat="48.40024" lon="7.30177">
        <ele>702</ele>
        <time>2020-06-24T10:36:18.189Z</time>
      </trkpt>
      <trkpt lat="48.40025" lon="7.30177">
        <ele>702</ele>
        <time>2020-06-24T10:36:19.189Z</time>
      </trkpt>
      <trkpt lat="48.40024" lon="7.30179">
        <ele>701</ele>
        <time>2020-06-24T10:36:20.190Z</time>
      </trkpt>
      <trkpt lat="48.40024" lon="7.30181">
        <ele>701</ele>
        <time>2020-06-24T10:36:21.190Z</time>
      </trkpt>
      <trkpt lat="48.40023" lon="7.30183">
        <ele>701</ele>
        <time>2020-06-24T10:36:22.189Z</time>
      </trkpt>
      <trkpt lat="48.40022" lon="7.30185">
        <ele>701</ele>
        <time>2020-06-24T10:36:23.190Z</time>
      </trkpt>
      <trkpt lat="48.40022" lon="7.30186">
        <ele>700</ele>
        <time>2020-06-24T10:36:24.190Z</time>
      </trkpt>
      <trkpt lat="48.40021" lon="7.30187">
        <ele>700</ele>
        <time>2020-06-24T10:36:25.190Z</time>
      </trkpt>
      <trkpt lat="48.4002" lon="7.30189">
        <ele>700</ele>
        <time>2020-06-24T10:36:26.189Z</time>
      </trkpt>
      <trkpt lat="48.40019" lon="7.3019">
        <ele>700</ele>
        <time>2020-06-24T10:36:27.190Z</time>
      </trkpt>
      <trkpt lat="48.40019" lon="7.30191">
        <ele>701</ele>
        <time>2020-06-24T10:36:28.190Z</time>
      </trkpt>
      <trkpt lat="48.40018" lon="7.30193">
        <ele>700</ele>
        <time>2020-06-24T10:36:29.190Z</time>
      </trkpt>
      <trkpt lat="48.40017" lon="7.30194">
        <ele>700</ele>
        <time>2020-06-24T10:36:30.190Z</time>
      </trkpt>
      <trkpt lat="48.40017" lon="7.30196">
        <ele>700</ele>
        <time>2020-06-24T10:36:31.189Z</time>
      </trkpt>
      <trkpt lat="48.40016" lon="7.30198">
        <ele>700</ele>
        <time>2020-06-24T10:36:32.190Z</time>
      </trkpt>
      <trkpt lat="48.40015" lon="7.30201">
        <ele>701</ele>
        <time>2020-06-24T10:36:33.189Z</time>
      </trkpt>
      <trkpt lat="48.40014" lon="7.30202">
        <ele>701</ele>
        <time>2020-06-24T10:36:34.190Z</time>
      </trkpt>
      <trkpt lat="48.40014" lon="7.30203">
        <ele>701</ele>
        <time>2020-06-24T10:36:35.190Z</time>
      </trkpt>
      <trkpt lat="48.40013" lon="7.30204">
        <ele>701</ele>
        <time>2020-06-24T10:36:36.190Z</time>
      </trkpt>
      <trkpt lat="48.40013" lon="7.30205">
        <ele>702</ele>
        <time>2020-06-24T10:36:37.190Z</time>
      </trkpt>
      <trkpt lat="48.40013" lon="7.30206">
        <ele>702</ele>
        <time>2020-06-24T10:36:38.189Z</time>
      </trkpt>
      <trkpt lat="48.40013" lon="7.30207">
        <ele>703</ele>
        <time>2020-06-24T10:36:39.190Z</time>
      </trkpt>
      <trkpt lat="48.40012" lon="7.30209">
        <ele>704</ele>
        <time>2020-06-24T10:36:40.189Z</time>
      </trkpt>
      <trkpt lat="48.40012" lon="7.3021">
        <ele>704</ele>
        <time>2020-06-24T10:36:41.190Z</time>
      </trkpt>
      <trkpt lat="48.40012" lon="7.30212">
        <ele>704</ele>
        <time>2020-06-24T10:36:42.190Z</time>
      </trkpt>
      <trkpt lat="48.40012" lon="7.30213">
        <ele>704</ele>
        <time>2020-06-24T10:36:43.190Z</time>
      </trkpt>
      <trkpt lat="48.40012" lon="7.30215">
        <ele>705</ele>
        <time>2020-06-24T10:36:44.189Z</time>
      </trkpt>
      <trkpt lat="48.40011" lon="7.30217">
        <ele>705</ele>
        <time>2020-06-24T10:36:45.189Z</time>
      </trkpt>
      <trkpt lat="48.40011" lon="7.30219">
        <ele>706</ele>
        <time>2020-06-24T10:36:46.189Z</time>
      </trkpt>
      <trkpt lat="48.40011" lon="7.30221">
        <ele>706</ele>
        <time>2020-06-24T10:36:47.189Z</time>
      </trkpt>
      <trkpt lat="48.40011" lon="7.30224">
        <ele>707</ele>
        <time>2020-06-24T10:36:48.189Z</time>
      </trkpt>
      <trkpt lat="48.40011" lon="7.30225">
        <ele>707</ele>
        <time>2020-06-24T10:36:49.190Z</time>
      </trkpt>
      <trkpt lat="48.40011" lon="7.30227">
        <ele>707</ele>
        <time>2020-06-24T10:36:50.190Z</time>
      </trkpt>
      <trkpt lat="48.40011" lon="7.30228">
        <ele>706</ele>
        <time>2020-06-24T10:36:51.190Z</time>
      </trkpt>
      <trkpt lat="48.40011" lon="7.3023">
        <ele>706</ele>
        <time>2020-06-24T10:36:52.190Z</time>
      </trkpt>
      <trkpt lat="48.4001" lon="7.30231">
        <ele>706</ele>
        <time>2020-06-24T10:36:53.189Z</time>
      </trkpt>
      <trkpt lat="48.4001" lon="7.30232">
        <ele>706</ele>
        <time>2020-06-24T10:36:54.189Z</time>
      </trkpt>
      <trkpt lat="48.40009" lon="7.30233">
        <ele>706</ele>
        <time>2020-06-24T10:36:55.190Z</time>
      </trkpt>
      <trkpt lat="48.40009" lon="7.30233">
        <ele>706</ele>
        <time>2020-06-24T10:36:56.189Z</time>
      </trkpt>
      <trkpt lat="48.40008" lon="7.30234">
        <ele>707</ele>
        <time>2020-06-24T10:36:57.190Z</time>
      </trkpt>
      <trkpt lat="48.40008" lon="7.30236">
        <ele>707</ele>
        <time>2020-06-24T10:36:58.189Z</time>
      </trkpt>
      <trkpt lat="48.40008" lon="7.30237">
        <ele>708</ele>
        <time>2020-06-24T10:36:59.189Z</time>
      </trkpt>
      <trkpt lat="48.40008" lon="7.3024">
        <ele>709</ele>
        <time>2020-06-24T10:37:00.190Z</time>
      </trkpt>
      <trkpt lat="48.40008" lon="7.30241">
        <ele>709</ele>
        <time>2020-06-24T10:37:01.190Z</time>
      </trkpt>
      <trkpt lat="48.40008" lon="7.30241">
        <ele>709</ele>
        <time>2020-06-24T10:37:02.190Z</time>
      </trkpt>
      <trkpt lat="48.40008" lon="7.30242">
        <ele>709</ele>
        <time>2020-06-24T10:37:03.190Z</time>
      </trkpt>
      <trkpt lat="48.40008" lon="7.30244">
        <ele>709</ele>
        <time>2020-06-24T10:37:04.190Z</time>
      </trkpt>
      <trkpt lat="48.40007" lon="7.30246">
        <ele>709</ele>
        <time>2020-06-24T10:37:05.190Z</time>
      </trkpt>
      <trkpt lat="48.40007" lon="7.30248">
        <ele>709</ele>
        <time>2020-06-24T10:37:06.190Z</time>
      </trkpt>
      <trkpt lat="48.40007" lon="7.3025">
        <ele>708</ele>
        <time>2020-06-24T10:37:07.190Z</time>
      </trkpt>
      <trkpt lat="48.40006" lon="7.30252">
        <ele>708</ele>
        <time>2020-06-24T10:37:08.190Z</time>
      </trkpt>
      <trkpt lat="48.40006" lon="7.30254">
        <ele>708</ele>
        <time>2020-06-24T10:37:09.190Z</time>
      </trkpt>
      <trkpt lat="48.40006" lon="7.30256">
        <ele>708</ele>
        <time>2020-06-24T10:37:10.190Z</time>
      </trkpt>
      <trkpt lat="48.40005" lon="7.30258">
        <ele>708</ele>
        <time>2020-06-24T10:37:11.190Z</time>
      </trkpt>
      <trkpt lat="48.40005" lon="7.30261">
        <ele>708</ele>
        <time>2020-06-24T10:37:12.189Z</time>
      </trkpt>
      <trkpt lat="48.40004" lon="7.30263">
        <ele>707</ele>
        <time>2020-06-24T10:37:13.190Z</time>
      </trkpt>
      <trkpt lat="48.40003" lon="7.30265">
        <ele>707</ele>
        <time>2020-06-24T10:37:14.189Z</time>
      </trkpt>
      <trkpt lat="48.40003" lon="7.30267">
        <ele>707</ele>
        <time>2020-06-24T10:37:15.190Z</time>
      </trkpt>
      <trkpt lat="48.40002" lon="7.30269">
        <ele>706</ele>
        <time>2020-06-24T10:37:16.189Z</time>
      </trkpt>
      <trkpt lat="48.40002" lon="7.30271">
        <ele>706</ele>
        <time>2020-06-24T10:37:17.189Z</time>
      </trkpt>
      <trkpt lat="48.40002" lon="7.30273">
        <ele>705</ele>
        <time>2020-06-24T10:37:18.190Z</time>
      </trkpt>
      <trkpt lat="48.40001" lon="7.30274">
        <ele>705</ele>
        <time>2020-06-24T10:37:19.190Z</time>
      </trkpt>
      <trkpt lat="48.40001" lon="7.30276">
        <ele>705</ele>
        <time>2020-06-24T10:37:20.189Z</time>
      </trkpt>
      <trkpt lat="48.40001" lon="7.30277">
        <ele>705</ele>
        <time>2020-06-24T10:37:21.190Z</time>
      </trkpt>
      <trkpt lat="48.40001" lon="7.30278">
        <ele>705</ele>
        <time>2020-06-24T10:37:22.190Z</time>
      </trkpt>
      <trkpt lat="48.40001" lon="7.3028">
        <ele>705</ele>
        <time>2020-06-24T10:37:23.190Z</time>
      </trkpt>
      <trkpt lat="48.40001" lon="7.30282">
        <ele>705</ele>
        <time>2020-06-24T10:37:24.189Z</time>
      </trkpt>
      <trkpt lat="48.40001" lon="7.30284">
        <ele>705</ele>
        <time>2020-06-24T10:37:25.190Z</time>
      </trkpt>
      <trkpt lat="48.4" lon="7.30285">
        <ele>706</ele>
        <time>2020-06-24T10:37:26.190Z</time>
      </trkpt>
      <trkpt lat="48.4" lon="7.30288">
        <ele>706</ele>
        <time>2020-06-24T10:37:27.190Z</time>
      </trkpt>
      <trkpt lat="48.39999" lon="7.3029">
        <ele>706</ele>
        <time>2020-06-24T10:37:28.190Z</time>
      </trkpt>
      <trkpt lat="48.39999" lon="7.30292">
        <ele>706</ele>
        <time>2020-06-24T10:37:29.189Z</time>
      </trkpt>
      <trkpt lat="48.39999" lon="7.30294">
        <ele>706</ele>
        <time>2020-06-24T10:37:30.190Z</time>
      </trkpt>
      <trkpt lat="48.4" lon="7.30297">
        <ele>707</ele>
        <time>2020-06-24T10:37:31.189Z</time>
      </trkpt>
      <trkpt lat="48.4" lon="7.30299">
        <ele>708</ele>
        <time>2020-06-24T10:37:32.189Z</time>
      </trkpt>
      <trkpt lat="48.4" lon="7.303">
        <ele>708</ele>
        <time>2020-06-24T10:37:33.189Z</time>
      </trkpt>
      <trkpt lat="48.40001" lon="7.30303">
        <ele>708</ele>
        <time>2020-06-24T10:37:34.190Z</time>
      </trkpt>
      <trkpt lat="48.40001" lon="7.30306">
        <ele>709</ele>
        <time>2020-06-24T10:37:35.190Z</time>
      </trkpt>
      <trkpt lat="48.40001" lon="7.30308">
        <ele>709</ele>
        <time>2020-06-24T10:37:36.189Z</time>
      </trkpt>
      <trkpt lat="48.40001" lon="7.3031">
        <ele>708</ele>
        <time>2020-06-24T10:37:37.189Z</time>
      </trkpt>
      <trkpt lat="48.4" lon="7.30311">
        <ele>708</ele>
        <time>2020-06-24T10:37:38.190Z</time>
      </trkpt>
      <trkpt lat="48.4" lon="7.30313">
        <ele>708</ele>
        <time>2020-06-24T10:37:39.189Z</time>
      </trkpt>
      <trkpt lat="48.4" lon="7.30315">
        <ele>706</ele>
        <time>2020-06-24T10:37:40.190Z</time>
      </trkpt>
      <trkpt lat="48.4" lon="7.30317">
        <ele>705</ele>
        <time>2020-06-24T10:37:41.190Z</time>
      </trkpt>
      <trkpt lat="48.4" lon="7.30319">
        <ele>704</ele>
        <time>2020-06-24T10:37:42.190Z</time>
      </trkpt>
      <trkpt lat="48.4" lon="7.30322">
        <ele>704</ele>
        <time>2020-06-24T10:37:43.189Z</time>
      </trkpt>
      <trkpt lat="48.4" lon="7.30324">
        <ele>703</ele>
        <time>2020-06-24T10:37:44.190Z</time>
      </trkpt>
      <trkpt lat="48.4" lon="7.30326">
        <ele>703</ele>
        <time>2020-06-24T10:37:45.190Z</time>
      </trkpt>
      <trkpt lat="48.4" lon="7.30327">
        <ele>703</ele>
        <time>2020-06-24T10:37:46.190Z</time>
      </trkpt>
      <trkpt lat="48.40001" lon="7.30328">
        <ele>703</ele>
        <time>2020-06-24T10:37:47.190Z</time>
      </trkpt>
      <trkpt lat="48.40001" lon="7.3033">
        <ele>702</ele>
        <time>2020-06-24T10:37:48.189Z</time>
      </trkpt>
      <trkpt lat="48.40001" lon="7.30332">
        <ele>702</ele>
        <time>2020-06-24T10:37:49.189Z</time>
      </trkpt>
      <trkpt lat="48.4" lon="7.30334">
        <ele>701</ele>
        <time>2020-06-24T10:37:50.190Z</time>
      </trkpt>
      <trkpt lat="48.4" lon="7.30336">
        <ele>701</ele>
        <time>2020-06-24T10:37:51.190Z</time>
      </trkpt>
      <trkpt lat="48.4" lon="7.30338">
        <ele>700</ele>
        <time>2020-06-24T10:37:52.190Z</time>
      </trkpt>
      <trkpt lat="48.4" lon="7.3034">
        <ele>700</ele>
        <time>2020-06-24T10:37:53.190Z</time>
      </trkpt>
      <trkpt lat="48.39999" lon="7.30341">
        <ele>700</ele>
        <time>2020-06-24T10:37:54.190Z</time>
      </trkpt>
      <trkpt lat="48.39999" lon="7.30345">
        <ele>700</ele>
        <time>2020-06-24T10:37:55.190Z</time>
      </trkpt>
      <trkpt lat="48.39999" lon="7.30348">
        <ele>700</ele>
        <time>2020-06-24T10:37:56.190Z</time>
      </trkpt>
      <trkpt lat="48.4" lon="7.30351">
        <ele>700</ele>
        <time>2020-06-24T10:37:57.190Z</time>
      </trkpt>
      <trkpt lat="48.39999" lon="7.30353">
        <ele>700</ele>
        <time>2020-06-24T10:37:58.189Z</time>
      </trkpt>
      <trkpt lat="48.39999" lon="7.30356">
        <ele>701</ele>
        <time>2020-06-24T10:37:59.189Z</time>
      </trkpt>
      <trkpt lat="48.39998" lon="7.30358">
        <ele>701</ele>
        <time>2020-06-24T10:38:00.190Z</time>
      </trkpt>
      <trkpt lat="48.39997" lon="7.30361">
        <ele>701</ele>
        <time>2020-06-24T10:38:01.189Z</time>
      </trkpt>
      <trkpt lat="48.39997" lon="7.30363">
        <ele>701</ele>
        <time>2020-06-24T10:38:02.189Z</time>
      </trkpt>
      <trkpt lat="48.39997" lon="7.30364">
        <ele>701</ele>
        <time>2020-06-24T10:38:03.190Z</time>
      </trkpt>
      <trkpt lat="48.39996" lon="7.30366">
        <ele>701</ele>
        <time>2020-06-24T10:38:04.189Z</time>
      </trkpt>
      <trkpt lat="48.39996" lon="7.30367">
        <ele>701</ele>
        <time>2020-06-24T10:38:05.190Z</time>
      </trkpt>
      <trkpt lat="48.39996" lon="7.30369">
        <ele>701</ele>
        <time>2020-06-24T10:38:06.190Z</time>
      </trkpt>
      <trkpt lat="48.39995" lon="7.30371">
        <ele>701</ele>
        <time>2020-06-24T10:38:07.190Z</time>
      </trkpt>
      <trkpt lat="48.39996" lon="7.30372">
        <ele>700</ele>
        <time>2020-06-24T10:38:08.190Z</time>
      </trkpt>
      <trkpt lat="48.39996" lon="7.30374">
        <ele>699</ele>
        <time>2020-06-24T10:38:09.190Z</time>
      </trkpt>
      <trkpt lat="48.39997" lon="7.30375">
        <ele>698</ele>
        <time>2020-06-24T10:38:10.190Z</time>
      </trkpt>
      <trkpt lat="48.39998" lon="7.30377">
        <ele>698</ele>
        <time>2020-06-24T10:38:11.189Z</time>
      </trkpt>
      <trkpt lat="48.39999" lon="7.30379">
        <ele>697</ele>
        <time>2020-06-24T10:38:12.190Z</time>
      </trkpt>
      <trkpt lat="48.4" lon="7.30381">
        <ele>696</ele>
        <time>2020-06-24T10:38:13.190Z</time>
      </trkpt>
      <trkpt lat="48.40001" lon="7.30383">
        <ele>695</ele>
        <time>2020-06-24T10:38:14.190Z</time>
      </trkpt>
      <trkpt lat="48.40002" lon="7.30385">
        <ele>695</ele>
        <time>2020-06-24T10:38:15.190Z</time>
      </trkpt>
      <trkpt lat="48.40003" lon="7.30386">
        <ele>694</ele>
        <time>2020-06-24T10:38:16.189Z</time>
      </trkpt>
      <trkpt lat="48.40004" lon="7.30388">
        <ele>693</ele>
        <time>2020-06-24T10:38:17.189Z</time>
      </trkpt>
      <trkpt lat="48.40005" lon="7.3039">
        <ele>693</ele>
        <time>2020-06-24T10:38:18.190Z</time>
      </trkpt>
      <trkpt lat="48.40005" lon="7.30392">
        <ele>693</ele>
        <time>2020-06-24T10:38:19.190Z</time>
      </trkpt>
      <trkpt lat="48.40005" lon="7.30393">
        <ele>693</ele>
        <time>2020-06-24T10:38:20.190Z</time>
      </trkpt>
      <trkpt lat="48.40006" lon="7.30395">
        <ele>693</ele>
        <time>2020-06-24T10:38:21.190Z</time>
      </trkpt>
      <trkpt lat="48.40007" lon="7.30396">
        <ele>693</ele>
        <time>2020-06-24T10:38:22.189Z</time>
      </trkpt>
      <trkpt lat="48.40007" lon="7.30398">
        <ele>692</ele>
        <time>2020-06-24T10:38:23.190Z</time>
      </trkpt>
      <trkpt lat="48.40007" lon="7.30401">
        <ele>692</ele>
        <time>2020-06-24T10:38:24.190Z</time>
      </trkpt>
      <trkpt lat="48.40008" lon="7.30404">
        <ele>692</ele>
        <time>2020-06-24T10:38:25.190Z</time>
      </trkpt>
      <trkpt lat="48.40008" lon="7.30409">
        <ele>692</ele>
        <time>2020-06-24T10:38:26.189Z</time>
      </trkpt>
      <trkpt lat="48.40009" lon="7.30411">
        <ele>691</ele>
        <time>2020-06-24T10:38:27.190Z</time>
      </trkpt>
      <trkpt lat="48.40009" lon="7.30413">
        <ele>691</ele>
        <time>2020-06-24T10:38:28.190Z</time>
      </trkpt>
      <trkpt lat="48.40009" lon="7.30415">
        <ele>691</ele>
        <time>2020-06-24T10:38:29.190Z</time>
      </trkpt>
      <trkpt lat="48.40009" lon="7.30417">
        <ele>691</ele>
        <time>2020-06-24T10:38:30.190Z</time>
      </trkpt>
      <trkpt lat="48.40009" lon="7.30417">
        <ele>690</ele>
        <time>2020-06-24T10:38:31.190Z</time>
      </trkpt>
      <trkpt lat="48.40009" lon="7.30419">
        <ele>690</ele>
        <time>2020-06-24T10:38:32.190Z</time>
      </trkpt>
      <trkpt lat="48.40009" lon="7.3042">
        <ele>690</ele>
        <time>2020-06-24T10:38:33.190Z</time>
      </trkpt>
      <trkpt lat="48.4001" lon="7.30422">
        <ele>689</ele>
        <time>2020-06-24T10:38:34.189Z</time>
      </trkpt>
      <trkpt lat="48.4001" lon="7.30422">
        <ele>689</ele>
        <time>2020-06-24T10:38:35.189Z</time>
      </trkpt>
      <trkpt lat="48.40011" lon="7.30423">
        <ele>689</ele>
        <time>2020-06-24T10:38:36.190Z</time>
      </trkpt>
      <trkpt lat="48.40011" lon="7.30424">
        <ele>688</ele>
        <time>2020-06-24T10:38:37.190Z</time>
      </trkpt>
      <trkpt lat="48.40011" lon="7.30426">
        <ele>688</ele>
        <time>2020-06-24T10:38:38.190Z</time>
      </trkpt>
      <trkpt lat="48.40011" lon="7.30429">
        <ele>687</ele>
        <time>2020-06-24T10:38:39.190Z</time>
      </trkpt>
      <trkpt lat="48.40012" lon="7.30432">
        <ele>687</ele>
        <time>2020-06-24T10:38:40.190Z</time>
      </trkpt>
      <trkpt lat="48.40013" lon="7.30434">
        <ele>687</ele>
        <time>2020-06-24T10:38:41.189Z</time>
      </trkpt>
      <trkpt lat="48.40013" lon="7.30436">
        <ele>687</ele>
        <time>2020-06-24T10:38:42.190Z</time>
      </trkpt>
      <trkpt lat="48.40013" lon="7.30439">
        <ele>687</ele>
        <time>2020-06-24T10:38:43.190Z</time>
      </trkpt>
      <trkpt lat="48.40012" lon="7.30441">
        <ele>687</ele>
        <time>2020-06-24T10:38:44.190Z</time>
      </trkpt>
      <trkpt lat="48.40012" lon="7.30443">
        <ele>687</ele>
        <time>2020-06-24T10:38:45.190Z</time>
      </trkpt>
      <trkpt lat="48.40012" lon="7.30445">
        <ele>687</ele>
        <time>2020-06-24T10:38:46.189Z</time>
      </trkpt>
      <trkpt lat="48.40013" lon="7.30447">
        <ele>687</ele>
        <time>2020-06-24T10:38:47.189Z</time>
      </trkpt>
      <trkpt lat="48.40013" lon="7.30448">
        <ele>687</ele>
        <time>2020-06-24T10:38:48.189Z</time>
      </trkpt>
      <trkpt lat="48.40014" lon="7.30451">
        <ele>687</ele>
        <time>2020-06-24T10:38:49.190Z</time>
      </trkpt>
      <trkpt lat="48.40014" lon="7.30453">
        <ele>687</ele>
        <time>2020-06-24T10:38:50.189Z</time>
      </trkpt>
      <trkpt lat="48.40014" lon="7.30455">
        <ele>687</ele>
        <time>2020-06-24T10:38:51.189Z</time>
      </trkpt>
      <trkpt lat="48.40015" lon="7.30458">
        <ele>686</ele>
        <time>2020-06-24T10:38:52.190Z</time>
      </trkpt>
      <trkpt lat="48.40016" lon="7.30462">
        <ele>686</ele>
        <time>2020-06-24T10:38:53.190Z</time>
      </trkpt>
      <trkpt lat="48.40015" lon="7.30464">
        <ele>686</ele>
        <time>2020-06-24T10:38:54.189Z</time>
      </trkpt>
      <trkpt lat="48.40016" lon="7.30466">
        <ele>685</ele>
        <time>2020-06-24T10:38:55.190Z</time>
      </trkpt>
      <trkpt lat="48.40016" lon="7.30468">
        <ele>685</ele>
        <time>2020-06-24T10:38:56.190Z</time>
      </trkpt>
      <trkpt lat="48.40016" lon="7.3047">
        <ele>684</ele>
        <time>2020-06-24T10:38:57.190Z</time>
      </trkpt>
      <trkpt lat="48.40016" lon="7.30472">
        <ele>683</ele>
        <time>2020-06-24T10:38:58.190Z</time>
      </trkpt>
      <trkpt lat="48.40016" lon="7.30473">
        <ele>683</ele>
        <time>2020-06-24T10:38:59.190Z</time>
      </trkpt>
      <trkpt lat="48.40016" lon="7.30475">
        <ele>682</ele>
        <time>2020-06-24T10:39:00.190Z</time>
      </trkpt>
      <trkpt lat="48.40016" lon="7.30476">
        <ele>681</ele>
        <time>2020-06-24T10:39:01.189Z</time>
      </trkpt>
      <trkpt lat="48.40016" lon="7.30478">
        <ele>680</ele>
        <time>2020-06-24T10:39:02.190Z</time>
      </trkpt>
      <trkpt lat="48.40015" lon="7.3048">
        <ele>679</ele>
        <time>2020-06-24T10:39:03.190Z</time>
      </trkpt>
      <trkpt lat="48.40015" lon="7.30483">
        <ele>678</ele>
        <time>2020-06-24T10:39:04.190Z</time>
      </trkpt>
      <trkpt lat="48.40015" lon="7.30485">
        <ele>677</ele>
        <time>2020-06-24T10:39:05.190Z</time>
      </trkpt>
      <trkpt lat="48.40015" lon="7.30488">
        <ele>677</ele>
        <time>2020-06-24T10:39:06.190Z</time>
      </trkpt>
      <trkpt lat="48.40014" lon="7.3049">
        <ele>676</ele>
        <time>2020-06-24T10:39:07.190Z</time>
      </trkpt>
      <trkpt lat="48.40014" lon="7.30493">
        <ele>677</ele>
        <time>2020-06-24T10:39:08.190Z</time>
      </trkpt>
      <trkpt lat="48.40014" lon="7.305">
        <ele>677</ele>
        <time>2020-06-24T10:39:09.189Z</time>
      </trkpt>
      <trkpt lat="48.40014" lon="7.30503">
        <ele>677</ele>
        <time>2020-06-24T10:39:10.190Z</time>
      </trkpt>
      <trkpt lat="48.40014" lon="7.30506">
        <ele>677</ele>
        <time>2020-06-24T10:39:11.189Z</time>
      </trkpt>
      <trkpt lat="48.40015" lon="7.30508">
        <ele>677</ele>
        <time>2020-06-24T10:39:12.189Z</time>
      </trkpt>
      <trkpt lat="48.40015" lon="7.30509">
        <ele>677</ele>
        <time>2020-06-24T10:39:13.190Z</time>
      </trkpt>
      <trkpt lat="48.40016" lon="7.30511">
        <ele>677</ele>
        <time>2020-06-24T10:39:14.190Z</time>
      </trkpt>
      <trkpt lat="48.40016" lon="7.30513">
        <ele>678</ele>
        <time>2020-06-24T10:39:15.190Z</time>
      </trkpt>
      <trkpt lat="48.40017" lon="7.30515">
        <ele>678</ele>
        <time>2020-06-24T10:39:16.189Z</time>
      </trkpt>
      <trkpt lat="48.40018" lon="7.30518">
        <ele>678</ele>
        <time>2020-06-24T10:39:17.190Z</time>
      </trkpt>
      <trkpt lat="48.40019" lon="7.3052">
        <ele>678</ele>
        <time>2020-06-24T10:39:18.190Z</time>
      </trkpt>
      <trkpt lat="48.40019" lon="7.30521">
        <ele>678</ele>
        <time>2020-06-24T10:39:19.190Z</time>
      </trkpt>
      <trkpt lat="48.4002" lon="7.30523">
        <ele>679</ele>
        <time>2020-06-24T10:39:20.190Z</time>
      </trkpt>
      <trkpt lat="48.40021" lon="7.30525">
        <ele>679</ele>
        <time>2020-06-24T10:39:21.190Z</time>
      </trkpt>
      <trkpt lat="48.40021" lon="7.30527">
        <ele>679</ele>
        <time>2020-06-24T10:39:22.189Z</time>
      </trkpt>
      <trkpt lat="48.40022" lon="7.30529">
        <ele>680</ele>
        <time>2020-06-24T10:39:23.189Z</time>
      </trkpt>
      <trkpt lat="48.40023" lon="7.3053">
        <ele>680</ele>
        <time>2020-06-24T10:39:24.190Z</time>
      </trkpt>
      <trkpt lat="48.40023" lon="7.30533">
        <ele>680</ele>
        <time>2020-06-24T10:39:25.190Z</time>
      </trkpt>
      <trkpt lat="48.40024" lon="7.30535">
        <ele>680</ele>
        <time>2020-06-24T10:39:26.189Z</time>
      </trkpt>
      <trkpt lat="48.40025" lon="7.30538">
        <ele>680</ele>
        <time>2020-06-24T10:39:27.189Z</time>
      </trkpt>
      <trkpt lat="48.40025" lon="7.30542">
        <ele>680</ele>
        <time>2020-06-24T10:39:28.190Z</time>
      </trkpt>
      <trkpt lat="48.40025" lon="7.30546">
        <ele>680</ele>
        <time>2020-06-24T10:39:29.189Z</time>
      </trkpt>
      <trkpt lat="48.40026" lon="7.30549">
        <ele>680</ele>
        <time>2020-06-24T10:39:30.190Z</time>
      </trkpt>
      <trkpt lat="48.40026" lon="7.30551">
        <ele>680</ele>
        <time>2020-06-24T10:39:31.189Z</time>
      </trkpt>
      <trkpt lat="48.40027" lon="7.30554">
        <ele>680</ele>
        <time>2020-06-24T10:39:32.189Z</time>
      </trkpt>
      <trkpt lat="48.40027" lon="7.30557">
        <ele>680</ele>
        <time>2020-06-24T10:39:33.190Z</time>
      </trkpt>
      <trkpt lat="48.40028" lon="7.30558">
        <ele>681</ele>
        <time>2020-06-24T10:39:34.190Z</time>
      </trkpt>
      <trkpt lat="48.40028" lon="7.3056">
        <ele>681</ele>
        <time>2020-06-24T10:39:35.190Z</time>
      </trkpt>
      <trkpt lat="48.40029" lon="7.30561">
        <ele>681</ele>
        <time>2020-06-24T10:39:36.189Z</time>
      </trkpt>
      <trkpt lat="48.4003" lon="7.30563">
        <ele>681</ele>
        <time>2020-06-24T10:39:37.190Z</time>
      </trkpt>
      <trkpt lat="48.4003" lon="7.30565">
        <ele>681</ele>
        <time>2020-06-24T10:39:38.190Z</time>
      </trkpt>
      <trkpt lat="48.40031" lon="7.30567">
        <ele>680</ele>
        <time>2020-06-24T10:39:39.190Z</time>
      </trkpt>
      <trkpt lat="48.40031" lon="7.30569">
        <ele>680</ele>
        <time>2020-06-24T10:39:40.190Z</time>
      </trkpt>
      <trkpt lat="48.40031" lon="7.30572">
        <ele>679</ele>
        <time>2020-06-24T10:39:41.190Z</time>
      </trkpt>
      <trkpt lat="48.40031" lon="7.30574">
        <ele>678</ele>
        <time>2020-06-24T10:39:42.190Z</time>
      </trkpt>
      <trkpt lat="48.40031" lon="7.30577">
        <ele>677</ele>
        <time>2020-06-24T10:39:43.190Z</time>
      </trkpt>
      <trkpt lat="48.40031" lon="7.30578">
        <ele>677</ele>
        <time>2020-06-24T10:39:44.190Z</time>
      </trkpt>
      <trkpt lat="48.40031" lon="7.3058">
        <ele>676</ele>
        <time>2020-06-24T10:39:45.190Z</time>
      </trkpt>
      <trkpt lat="48.40032" lon="7.30582">
        <ele>676</ele>
        <time>2020-06-24T10:39:46.190Z</time>
      </trkpt>
      <trkpt lat="48.40032" lon="7.30584">
        <ele>675</ele>
        <time>2020-06-24T10:39:47.189Z</time>
      </trkpt>
      <trkpt lat="48.40032" lon="7.30586">
        <ele>675</ele>
        <time>2020-06-24T10:39:48.190Z</time>
      </trkpt>
      <trkpt lat="48.40032" lon="7.30588">
        <ele>675</ele>
        <time>2020-06-24T10:39:49.189Z</time>
      </trkpt>
      <trkpt lat="48.40032" lon="7.30589">
        <ele>674</ele>
        <time>2020-06-24T10:39:50.189Z</time>
      </trkpt>
      <trkpt lat="48.40032" lon="7.3059">
        <ele>674</ele>
        <time>2020-06-24T10:39:51.190Z</time>
      </trkpt>
      <trkpt lat="48.40032" lon="7.30592">
        <ele>674</ele>
        <time>2020-06-24T10:39:52.189Z</time>
      </trkpt>
      <trkpt lat="48.40032" lon="7.30595">
        <ele>673</ele>
        <time>2020-06-24T10:39:53.190Z</time>
      </trkpt>
      <trkpt lat="48.40032" lon="7.30597">
        <ele>673</ele>
        <time>2020-06-24T10:39:54.190Z</time>
      </trkpt>
      <trkpt lat="48.40032" lon="7.306">
        <ele>672</ele>
        <time>2020-06-24T10:39:55.190Z</time>
      </trkpt>
      <trkpt lat="48.40032" lon="7.30601">
        <ele>671</ele>
        <time>2020-06-24T10:39:56.189Z</time>
      </trkpt>
      <trkpt lat="48.40032" lon="7.30603">
        <ele>671</ele>
        <time>2020-06-24T10:39:57.189Z</time>
      </trkpt>
      <trkpt lat="48.40032" lon="7.30605">
        <ele>670</ele>
        <time>2020-06-24T10:39:58.190Z</time>
      </trkpt>
      <trkpt lat="48.40032" lon="7.30606">
        <ele>669</ele>
        <time>2020-06-24T10:39:59.189Z</time>
      </trkpt>
      <trkpt lat="48.40032" lon="7.30608">
        <ele>669</ele>
        <time>2020-06-24T10:40:00.190Z</time>
      </trkpt>
      <trkpt lat="48.40032" lon="7.30609">
        <ele>669</ele>
        <time>2020-06-24T10:40:01.189Z</time>
      </trkpt>
      <trkpt lat="48.40032" lon="7.30611">
        <ele>668</ele>
        <time>2020-06-24T10:40:02.189Z</time>
      </trkpt>
      <trkpt lat="48.40033" lon="7.30612">
        <ele>667</ele>
        <time>2020-06-24T10:40:03.189Z</time>
      </trkpt>
      <trkpt lat="48.40033" lon="7.30614">
        <ele>667</ele>
        <time>2020-06-24T10:40:04.190Z</time>
      </trkpt>
      <trkpt lat="48.40033" lon="7.30615">
        <ele>666</ele>
        <time>2020-06-24T10:40:05.190Z</time>
      </trkpt>
      <trkpt lat="48.40032" lon="7.30617">
        <ele>665</ele>
        <time>2020-06-24T10:40:06.189Z</time>
      </trkpt>
      <trkpt lat="48.40032" lon="7.30619">
        <ele>664</ele>
        <time>2020-06-24T10:40:07.190Z</time>
      </trkpt>
      <trkpt lat="48.40032" lon="7.3062">
        <ele>663</ele>
        <time>2020-06-24T10:40:08.190Z</time>
      </trkpt>
      <trkpt lat="48.40032" lon="7.30622">
        <ele>662</ele>
        <time>2020-06-24T10:40:09.190Z</time>
      </trkpt>
      <trkpt lat="48.40032" lon="7.30623">
        <ele>661</ele>
        <time>2020-06-24T10:40:10.189Z</time>
      </trkpt>
      <trkpt lat="48.40032" lon="7.30625">
        <ele>660</ele>
        <time>2020-06-24T10:40:11.190Z</time>
      </trkpt>
      <trkpt lat="48.40033" lon="7.30627">
        <ele>659</ele>
        <time>2020-06-24T10:40:12.190Z</time>
      </trkpt>
      <trkpt lat="48.40033" lon="7.30629">
        <ele>658</ele>
        <time>2020-06-24T10:40:13.190Z</time>
      </trkpt>
      <trkpt lat="48.40033" lon="7.30631">
        <ele>657</ele>
        <time>2020-06-24T10:40:14.190Z</time>
      </trkpt>
      <trkpt lat="48.40033" lon="7.30633">
        <ele>657</ele>
        <time>2020-06-24T10:40:15.190Z</time>
      </trkpt>
      <trkpt lat="48.40034" lon="7.30635">
        <ele>656</ele>
        <time>2020-06-24T10:40:16.190Z</time>
      </trkpt>
      <trkpt lat="48.40034" lon="7.30637">
        <ele>656</ele>
        <time>2020-06-24T10:40:17.190Z</time>
      </trkpt>
      <trkpt lat="48.40035" lon="7.30639">
        <ele>656</ele>
        <time>2020-06-24T10:40:18.190Z</time>
      </trkpt>
      <trkpt lat="48.40035" lon="7.3064">
        <ele>656</ele>
        <time>2020-06-24T10:40:19.190Z</time>
      </trkpt>
      <trkpt lat="48.40035" lon="7.30642">
        <ele>656</ele>
        <time>2020-06-24T10:40:20.190Z</time>
      </trkpt>
      <trkpt lat="48.40035" lon="7.30644">
        <ele>656</ele>
        <time>2020-06-24T10:40:21.190Z</time>
      </trkpt>
      <trkpt lat="48.40036" lon="7.30646">
        <ele>657</ele>
        <time>2020-06-24T10:40:22.190Z</time>
      </trkpt>
      <trkpt lat="48.40036" lon="7.30648">
        <ele>657</ele>
        <time>2020-06-24T10:40:23.190Z</time>
      </trkpt>
      <trkpt lat="48.40037" lon="7.30651">
        <ele>658</ele>
        <time>2020-06-24T10:40:24.190Z</time>
      </trkpt>
      <trkpt lat="48.40037" lon="7.30652">
        <ele>658</ele>
        <time>2020-06-24T10:40:25.190Z</time>
      </trkpt>
      <trkpt lat="48.40037" lon="7.30655">
        <ele>658</ele>
        <time>2020-06-24T10:40:26.189Z</time>
      </trkpt>
      <trkpt lat="48.40037" lon="7.30657">
        <ele>658</ele>
        <time>2020-06-24T10:40:27.189Z</time>
      </trkpt>
      <trkpt lat="48.40036" lon="7.30659">
        <ele>659</ele>
        <time>2020-06-24T10:40:28.190Z</time>
      </trkpt>
      <trkpt lat="48.40036" lon="7.3066">
        <ele>660</ele>
        <time>2020-06-24T10:40:29.189Z</time>
      </trkpt>
      <trkpt lat="48.40036" lon="7.30662">
        <ele>661</ele>
        <time>2020-06-24T10:40:30.190Z</time>
      </trkpt>
      <trkpt lat="48.40036" lon="7.30665">
        <ele>662</ele>
        <time>2020-06-24T10:40:31.189Z</time>
      </trkpt>
      <trkpt lat="48.40037" lon="7.30668">
        <ele>662</ele>
        <time>2020-06-24T10:40:32.189Z</time>
      </trkpt>
      <trkpt lat="48.40038" lon="7.30671">
        <ele>663</ele>
        <time>2020-06-24T10:40:33.190Z</time>
      </trkpt>
      <trkpt lat="48.40038" lon="7.30675">
        <ele>663</ele>
        <time>2020-06-24T10:40:34.190Z</time>
      </trkpt>
      <trkpt lat="48.40038" lon="7.30677">
        <ele>663</ele>
        <time>2020-06-24T10:40:35.190Z</time>
      </trkpt>
      <trkpt lat="48.40039" lon="7.30679">
        <ele>663</ele>
        <time>2020-06-24T10:40:36.190Z</time>
      </trkpt>
      <trkpt lat="48.40039" lon="7.30681">
        <ele>663</ele>
        <time>2020-06-24T10:40:37.190Z</time>
      </trkpt>
      <trkpt lat="48.40041" lon="7.30683">
        <ele>663</ele>
        <time>2020-06-24T10:40:38.190Z</time>
      </trkpt>
      <trkpt lat="48.40042" lon="7.30685">
        <ele>663</ele>
        <time>2020-06-24T10:40:39.190Z</time>
      </trkpt>
      <trkpt lat="48.40043" lon="7.30687">
        <ele>663</ele>
        <time>2020-06-24T10:40:40.190Z</time>
      </trkpt>
      <trkpt lat="48.40045" lon="7.30689">
        <ele>663</ele>
        <time>2020-06-24T10:40:41.190Z</time>
      </trkpt>
      <trkpt lat="48.40046" lon="7.30691">
        <ele>663</ele>
        <time>2020-06-24T10:40:42.190Z</time>
      </trkpt>
      <trkpt lat="48.40046" lon="7.30693">
        <ele>663</ele>
        <time>2020-06-24T10:40:43.189Z</time>
      </trkpt>
      <trkpt lat="48.40047" lon="7.30694">
        <ele>663</ele>
        <time>2020-06-24T10:40:44.190Z</time>
      </trkpt>
      <trkpt lat="48.40047" lon="7.30695">
        <ele>663</ele>
        <time>2020-06-24T10:40:45.190Z</time>
      </trkpt>
      <trkpt lat="48.40048" lon="7.30696">
        <ele>663</ele>
        <time>2020-06-24T10:40:46.190Z</time>
      </trkpt>
      <trkpt lat="48.40048" lon="7.30697">
        <ele>663</ele>
        <time>2020-06-24T10:40:47.189Z</time>
      </trkpt>
      <trkpt lat="48.4005" lon="7.30698">
        <ele>663</ele>
        <time>2020-06-24T10:40:48.190Z</time>
      </trkpt>
      <trkpt lat="48.40051" lon="7.307">
        <ele>663</ele>
        <time>2020-06-24T10:40:49.189Z</time>
      </trkpt>
      <trkpt lat="48.40053" lon="7.30701">
        <ele>663</ele>
        <time>2020-06-24T10:40:50.189Z</time>
      </trkpt>
      <trkpt lat="48.40054" lon="7.30703">
        <ele>664</ele>
        <time>2020-06-24T10:40:51.190Z</time>
      </trkpt>
      <trkpt lat="48.40055" lon="7.30705">
        <ele>664</ele>
        <time>2020-06-24T10:40:52.189Z</time>
      </trkpt>
      <trkpt lat="48.40056" lon="7.30707">
        <ele>663</ele>
        <time>2020-06-24T10:40:53.190Z</time>
      </trkpt>
      <trkpt lat="48.40057" lon="7.30709">
        <ele>663</ele>
        <time>2020-06-24T10:40:54.190Z</time>
      </trkpt>
      <trkpt lat="48.40058" lon="7.3071">
        <ele>663</ele>
        <time>2020-06-24T10:40:55.190Z</time>
      </trkpt>
      <trkpt lat="48.40059" lon="7.30712">
        <ele>663</ele>
        <time>2020-06-24T10:40:56.190Z</time>
      </trkpt>
      <trkpt lat="48.4006" lon="7.30715">
        <ele>663</ele>
        <time>2020-06-24T10:40:57.190Z</time>
      </trkpt>
      <trkpt lat="48.4006" lon="7.30717">
        <ele>663</ele>
        <time>2020-06-24T10:40:58.189Z</time>
      </trkpt>
      <trkpt lat="48.40061" lon="7.30719">
        <ele>663</ele>
        <time>2020-06-24T10:40:59.190Z</time>
      </trkpt>
      <trkpt lat="48.40061" lon="7.30721">
        <ele>663</ele>
        <time>2020-06-24T10:41:00.189Z</time>
      </trkpt>
      <trkpt lat="48.40062" lon="7.30722">
        <ele>663</ele>
        <time>2020-06-24T10:41:01.190Z</time>
      </trkpt>
      <trkpt lat="48.40062" lon="7.30724">
        <ele>663</ele>
        <time>2020-06-24T10:41:02.190Z</time>
      </trkpt>
      <trkpt lat="48.40063" lon="7.30727">
        <ele>664</ele>
        <time>2020-06-24T10:41:03.190Z</time>
      </trkpt>
      <trkpt lat="48.40063" lon="7.30728">
        <ele>664</ele>
        <time>2020-06-24T10:41:04.190Z</time>
      </trkpt>
      <trkpt lat="48.40064" lon="7.30729">
        <ele>664</ele>
        <time>2020-06-24T10:41:05.189Z</time>
      </trkpt>
      <trkpt lat="48.40065" lon="7.3073">
        <ele>664</ele>
        <time>2020-06-24T10:41:06.190Z</time>
      </trkpt>
      <trkpt lat="48.40066" lon="7.30732">
        <ele>664</ele>
        <time>2020-06-24T10:41:07.189Z</time>
      </trkpt>
      <trkpt lat="48.40066" lon="7.30734">
        <ele>664</ele>
        <time>2020-06-24T10:41:08.190Z</time>
      </trkpt>
      <trkpt lat="48.40067" lon="7.30736">
        <ele>664</ele>
        <time>2020-06-24T10:41:09.190Z</time>
      </trkpt>
      <trkpt lat="48.40068" lon="7.30739">
        <ele>664</ele>
        <time>2020-06-24T10:41:10.190Z</time>
      </trkpt>
      <trkpt lat="48.40069" lon="7.30742">
        <ele>664</ele>
        <time>2020-06-24T10:41:11.190Z</time>
      </trkpt>
      <trkpt lat="48.40069" lon="7.30745">
        <ele>664</ele>
        <time>2020-06-24T10:41:12.190Z</time>
      </trkpt>
      <trkpt lat="48.40069" lon="7.30747">
        <ele>663</ele>
        <time>2020-06-24T10:41:13.190Z</time>
      </trkpt>
      <trkpt lat="48.4007" lon="7.30749">
        <ele>663</ele>
        <time>2020-06-24T10:41:14.189Z</time>
      </trkpt>
      <trkpt lat="48.40071" lon="7.30751">
        <ele>662</ele>
        <time>2020-06-24T10:41:15.190Z</time>
      </trkpt>
      <trkpt lat="48.40072" lon="7.30754">
        <ele>662</ele>
        <time>2020-06-24T10:41:16.189Z</time>
      </trkpt>
      <trkpt lat="48.40073" lon="7.30756">
        <ele>662</ele>
        <time>2020-06-24T10:41:17.190Z</time>
      </trkpt>
      <trkpt lat="48.40074" lon="7.30758">
        <ele>662</ele>
        <time>2020-06-24T10:41:18.190Z</time>
      </trkpt>
      <trkpt lat="48.40075" lon="7.3076">
        <ele>662</ele>
        <time>2020-06-24T10:41:19.190Z</time>
      </trkpt>
      <trkpt lat="48.40076" lon="7.30763">
        <ele>663</ele>
        <time>2020-06-24T10:41:20.190Z</time>
      </trkpt>
      <trkpt lat="48.40076" lon="7.30765">
        <ele>663</ele>
        <time>2020-06-24T10:41:21.190Z</time>
      </trkpt>
      <trkpt lat="48.40076" lon="7.30768">
        <ele>663</ele>
        <time>2020-06-24T10:41:22.190Z</time>
      </trkpt>
      <trkpt lat="48.40076" lon="7.3077">
        <ele>663</ele>
        <time>2020-06-24T10:41:23.190Z</time>
      </trkpt>
      <trkpt lat="48.40077" lon="7.30772">
        <ele>664</ele>
        <time>2020-06-24T10:41:24.189Z</time>
      </trkpt>
      <trkpt lat="48.40078" lon="7.30774">
        <ele>664</ele>
        <time>2020-06-24T10:41:25.189Z</time>
      </trkpt>
      <trkpt lat="48.40079" lon="7.30776">
        <ele>664</ele>
        <time>2020-06-24T10:41:26.189Z</time>
      </trkpt>
      <trkpt lat="48.4008" lon="7.30778">
        <ele>664</ele>
        <time>2020-06-24T10:41:27.189Z</time>
      </trkpt>
      <trkpt lat="48.40081" lon="7.3078">
        <ele>664</ele>
        <time>2020-06-24T10:41:28.190Z</time>
      </trkpt>
      <trkpt lat="48.40082" lon="7.30782">
        <ele>665</ele>
        <time>2020-06-24T10:41:29.189Z</time>
      </trkpt>
      <trkpt lat="48.40082" lon="7.30783">
        <ele>665</ele>
        <time>2020-06-24T10:41:30.190Z</time>
      </trkpt>
      <trkpt lat="48.40083" lon="7.30785">
        <ele>666</ele>
        <time>2020-06-24T10:41:31.189Z</time>
      </trkpt>
      <trkpt lat="48.40084" lon="7.30788">
        <ele>666</ele>
        <time>2020-06-24T10:41:32.189Z</time>
      </trkpt>
      <trkpt lat="48.40085" lon="7.3079">
        <ele>666</ele>
        <time>2020-06-24T10:41:33.190Z</time>
      </trkpt>
      <trkpt lat="48.40086" lon="7.30791">
        <ele>667</ele>
        <time>2020-06-24T10:41:34.190Z</time>
      </trkpt>
      <trkpt lat="48.40087" lon="7.30793">
        <ele>667</ele>
        <time>2020-06-24T10:41:35.190Z</time>
      </trkpt>
      <trkpt lat="48.40088" lon="7.30794">
        <ele>667</ele>
        <time>2020-06-24T10:41:36.189Z</time>
      </trkpt>
      <trkpt lat="48.40089" lon="7.30796">
        <ele>667</ele>
        <time>2020-06-24T10:41:37.190Z</time>
      </trkpt>
      <trkpt lat="48.4009" lon="7.30798">
        <ele>667</ele>
        <time>2020-06-24T10:41:38.190Z</time>
      </trkpt>
      <trkpt lat="48.4009" lon="7.30799">
        <ele>667</ele>
        <time>2020-06-24T10:41:39.190Z</time>
      </trkpt>
      <trkpt lat="48.40091" lon="7.308">
        <ele>667</ele>
        <time>2020-06-24T10:41:40.189Z</time>
      </trkpt>
      <trkpt lat="48.40092" lon="7.30802">
        <ele>667</ele>
        <time>2020-06-24T10:41:41.190Z</time>
      </trkpt>
      <trkpt lat="48.40093" lon="7.30803">
        <ele>667</ele>
        <time>2020-06-24T10:41:42.189Z</time>
      </trkpt>
      <trkpt lat="48.40094" lon="7.30804">
        <ele>667</ele>
        <time>2020-06-24T10:41:43.190Z</time>
      </trkpt>
      <trkpt lat="48.40095" lon="7.30805">
        <ele>667</ele>
        <time>2020-06-24T10:41:44.190Z</time>
      </trkpt>
      <trkpt lat="48.40096" lon="7.30807">
        <ele>667</ele>
        <time>2020-06-24T10:41:45.190Z</time>
      </trkpt>
      <trkpt lat="48.40097" lon="7.30809">
        <ele>667</ele>
        <time>2020-06-24T10:41:46.190Z</time>
      </trkpt>
      <trkpt lat="48.40098" lon="7.3081">
        <ele>667</ele>
        <time>2020-06-24T10:41:47.190Z</time>
      </trkpt>
      <trkpt lat="48.40099" lon="7.30811">
        <ele>666</ele>
        <time>2020-06-24T10:41:48.190Z</time>
      </trkpt>
      <trkpt lat="48.401" lon="7.30811">
        <ele>665</ele>
        <time>2020-06-24T10:41:49.189Z</time>
      </trkpt>
      <trkpt lat="48.40102" lon="7.30812">
        <ele>665</ele>
        <time>2020-06-24T10:41:50.189Z</time>
      </trkpt>
      <trkpt lat="48.40104" lon="7.30813">
        <ele>664</ele>
        <time>2020-06-24T10:41:51.190Z</time>
      </trkpt>
      <trkpt lat="48.40106" lon="7.30814">
        <ele>663</ele>
        <time>2020-06-24T10:41:52.189Z</time>
      </trkpt>
      <trkpt lat="48.40108" lon="7.30815">
        <ele>663</ele>
        <time>2020-06-24T10:41:53.190Z</time>
      </trkpt>
      <trkpt lat="48.40109" lon="7.30816">
        <ele>663</ele>
        <time>2020-06-24T10:41:54.189Z</time>
      </trkpt>
      <trkpt lat="48.4011" lon="7.30818">
        <ele>663</ele>
        <time>2020-06-24T10:41:55.189Z</time>
      </trkpt>
      <trkpt lat="48.40111" lon="7.30819">
        <ele>663</ele>
        <time>2020-06-24T10:41:56.190Z</time>
      </trkpt>
      <trkpt lat="48.40112" lon="7.3082">
        <ele>663</ele>
        <time>2020-06-24T10:41:57.190Z</time>
      </trkpt>
      <trkpt lat="48.40113" lon="7.30822">
        <ele>663</ele>
        <time>2020-06-24T10:41:58.190Z</time>
      </trkpt>
      <trkpt lat="48.40114" lon="7.30823">
        <ele>663</ele>
        <time>2020-06-24T10:41:59.190Z</time>
      </trkpt>
      <trkpt lat="48.40115" lon="7.30825">
        <ele>663</ele>
        <time>2020-06-24T10:42:00.190Z</time>
      </trkpt>
      <trkpt lat="48.40116" lon="7.30827">
        <ele>663</ele>
        <time>2020-06-24T10:42:01.190Z</time>
      </trkpt>
      <trkpt lat="48.40117" lon="7.30828">
        <ele>664</ele>
        <time>2020-06-24T10:42:02.189Z</time>
      </trkpt>
      <trkpt lat="48.40119" lon="7.3083">
        <ele>664</ele>
        <time>2020-06-24T10:42:03.189Z</time>
      </trkpt>
      <trkpt lat="48.4012" lon="7.30831">
        <ele>665</ele>
        <time>2020-06-24T10:42:04.190Z</time>
      </trkpt>
      <trkpt lat="48.40121" lon="7.30834">
        <ele>665</ele>
        <time>2020-06-24T10:42:05.190Z</time>
      </trkpt>
      <trkpt lat="48.40122" lon="7.30836">
        <ele>666</ele>
        <time>2020-06-24T10:42:06.189Z</time>
      </trkpt>
      <trkpt lat="48.40123" lon="7.30838">
        <ele>666</ele>
        <time>2020-06-24T10:42:07.190Z</time>
      </trkpt>
      <trkpt lat="48.40124" lon="7.30839">
        <ele>667</ele>
        <time>2020-06-24T10:42:08.189Z</time>
      </trkpt>
      <trkpt lat="48.40125" lon="7.30841">
        <ele>667</ele>
        <time>2020-06-24T10:42:09.189Z</time>
      </trkpt>
      <trkpt lat="48.40126" lon="7.30843">
        <ele>668</ele>
        <time>2020-06-24T10:42:10.190Z</time>
      </trkpt>
      <trkpt lat="48.40128" lon="7.30844">
        <ele>668</ele>
        <time>2020-06-24T10:42:11.190Z</time>
      </trkpt>
      <trkpt lat="48.40129" lon="7.30846">
        <ele>669</ele>
        <time>2020-06-24T10:42:12.190Z</time>
      </trkpt>
      <trkpt lat="48.40131" lon="7.30849">
        <ele>669</ele>
        <time>2020-06-24T10:42:13.190Z</time>
      </trkpt>
      <trkpt lat="48.40132" lon="7.30851">
        <ele>669</ele>
        <time>2020-06-24T10:42:14.190Z</time>
      </trkpt>
      <trkpt lat="48.40133" lon="7.30853">
        <ele>669</ele>
        <time>2020-06-24T10:42:15.190Z</time>
      </trkpt>
      <trkpt lat="48.40134" lon="7.30854">
        <ele>668</ele>
        <time>2020-06-24T10:42:16.190Z</time>
      </trkpt>
      <trkpt lat="48.40133" lon="7.30855">
        <ele>668</ele>
        <time>2020-06-24T10:42:17.190Z</time>
      </trkpt>
      <trkpt lat="48.40133" lon="7.30858">
        <ele>667</ele>
        <time>2020-06-24T10:42:18.189Z</time>
      </trkpt>
      <trkpt lat="48.40133" lon="7.3086">
        <ele>667</ele>
        <time>2020-06-24T10:42:19.190Z</time>
      </trkpt>
      <trkpt lat="48.40134" lon="7.30862">
        <ele>666</ele>
        <time>2020-06-24T10:42:20.190Z</time>
      </trkpt>
      <trkpt lat="48.40135" lon="7.30863">
        <ele>665</ele>
        <time>2020-06-24T10:42:21.190Z</time>
      </trkpt>
      <trkpt lat="48.40136" lon="7.30865">
        <ele>664</ele>
        <time>2020-06-24T10:42:22.189Z</time>
      </trkpt>
      <trkpt lat="48.40136" lon="7.30866">
        <ele>664</ele>
        <time>2020-06-24T10:42:23.190Z</time>
      </trkpt>
      <trkpt lat="48.40136" lon="7.30868">
        <ele>663</ele>
        <time>2020-06-24T10:42:24.190Z</time>
      </trkpt>
      <trkpt lat="48.40136" lon="7.3087">
        <ele>663</ele>
        <time>2020-06-24T10:42:25.189Z</time>
      </trkpt>
      <trkpt lat="48.40137" lon="7.30872">
        <ele>663</ele>
        <time>2020-06-24T10:42:26.190Z</time>
      </trkpt>
      <trkpt lat="48.40138" lon="7.30873">
        <ele>663</ele>
        <time>2020-06-24T10:42:27.190Z</time>
      </trkpt>
      <trkpt lat="48.40138" lon="7.30875">
        <ele>662</ele>
        <time>2020-06-24T10:42:28.189Z</time>
      </trkpt>
      <trkpt lat="48.40139" lon="7.30876">
        <ele>662</ele>
        <time>2020-06-24T10:42:29.189Z</time>
      </trkpt>
      <trkpt lat="48.40139" lon="7.30878">
        <ele>662</ele>
        <time>2020-06-24T10:42:30.190Z</time>
      </trkpt>
      <trkpt lat="48.40139" lon="7.3088">
        <ele>662</ele>
        <time>2020-06-24T10:42:31.189Z</time>
      </trkpt>
      <trkpt lat="48.4014" lon="7.30881">
        <ele>662</ele>
        <time>2020-06-24T10:42:32.190Z</time>
      </trkpt>
      <trkpt lat="48.4014" lon="7.30883">
        <ele>661</ele>
        <time>2020-06-24T10:42:33.190Z</time>
      </trkpt>
      <trkpt lat="48.4014" lon="7.30884">
        <ele>660</ele>
        <time>2020-06-24T10:42:34.190Z</time>
      </trkpt>
      <trkpt lat="48.40141" lon="7.30886">
        <ele>659</ele>
        <time>2020-06-24T10:42:35.190Z</time>
      </trkpt>
      <trkpt lat="48.40141" lon="7.30887">
        <ele>658</ele>
        <time>2020-06-24T10:42:36.190Z</time>
      </trkpt>
      <trkpt lat="48.4014" lon="7.30889">
        <ele>657</ele>
        <time>2020-06-24T10:42:37.190Z</time>
      </trkpt>
      <trkpt lat="48.4014" lon="7.30892">
        <ele>656</ele>
        <time>2020-06-24T10:42:38.190Z</time>
      </trkpt>
      <trkpt lat="48.40139" lon="7.30896">
        <ele>655</ele>
        <time>2020-06-24T10:42:39.190Z</time>
      </trkpt>
      <trkpt lat="48.40138" lon="7.30899">
        <ele>654</ele>
        <time>2020-06-24T10:42:40.190Z</time>
      </trkpt>
      <trkpt lat="48.40138" lon="7.30903">
        <ele>653</ele>
        <time>2020-06-24T10:42:41.189Z</time>
      </trkpt>
      <trkpt lat="48.40138" lon="7.30905">
        <ele>652</ele>
        <time>2020-06-24T10:42:42.190Z</time>
      </trkpt>
      <trkpt lat="48.40137" lon="7.30906">
        <ele>651</ele>
        <time>2020-06-24T10:42:43.190Z</time>
      </trkpt>
      <trkpt lat="48.40137" lon="7.30907">
        <ele>650</ele>
        <time>2020-06-24T10:42:44.189Z</time>
      </trkpt>
      <trkpt lat="48.40136" lon="7.30907">
        <ele>649</ele>
        <time>2020-06-24T10:42:45.190Z</time>
      </trkpt>
      <trkpt lat="48.40138" lon="7.30907">
        <ele>647</ele>
        <time>2020-06-24T10:42:46.190Z</time>
      </trkpt>
      <trkpt lat="48.40138" lon="7.30907">
        <ele>647</ele>
        <time>2020-06-24T10:42:47.191Z</time>
      </trkpt>
      <trkpt lat="48.40139" lon="7.30909">
        <ele>648</ele>
        <time>2020-06-24T10:42:48.190Z</time>
      </trkpt>
      <trkpt lat="48.4014" lon="7.3091">
        <ele>648</ele>
        <time>2020-06-24T10:42:49.191Z</time>
      </trkpt>
      <trkpt lat="48.4014" lon="7.30911">
        <ele>648</ele>
        <time>2020-06-24T10:42:50.191Z</time>
      </trkpt>
      <trkpt lat="48.40141" lon="7.30912">
        <ele>647</ele>
        <time>2020-06-24T10:42:51.191Z</time>
      </trkpt>
      <trkpt lat="48.40141" lon="7.30914">
        <ele>647</ele>
        <time>2020-06-24T10:42:52.190Z</time>
      </trkpt>
      <trkpt lat="48.40141" lon="7.30915">
        <ele>647</ele>
        <time>2020-06-24T10:42:53.191Z</time>
      </trkpt>
      <trkpt lat="48.40141" lon="7.30917">
        <ele>647</ele>
        <time>2020-06-24T10:42:54.191Z</time>
      </trkpt>
      <trkpt lat="48.40141" lon="7.30919">
        <ele>647</ele>
        <time>2020-06-24T10:42:55.191Z</time>
      </trkpt>
      <trkpt lat="48.40141" lon="7.30921">
        <ele>647</ele>
        <time>2020-06-24T10:42:56.191Z</time>
      </trkpt>
      <trkpt lat="48.40142" lon="7.30923">
        <ele>648</ele>
        <time>2020-06-24T10:42:57.191Z</time>
      </trkpt>
      <trkpt lat="48.40141" lon="7.30924">
        <ele>649</ele>
        <time>2020-06-24T10:42:58.191Z</time>
      </trkpt>
      <trkpt lat="48.40141" lon="7.30926">
        <ele>649</ele>
        <time>2020-06-24T10:42:59.191Z</time>
      </trkpt>
      <trkpt lat="48.40142" lon="7.30928">
        <ele>650</ele>
        <time>2020-06-24T10:43:00.190Z</time>
      </trkpt>
      <trkpt lat="48.40142" lon="7.30929">
        <ele>650</ele>
        <time>2020-06-24T10:43:01.191Z</time>
      </trkpt>
      <trkpt lat="48.40142" lon="7.30931">
        <ele>650</ele>
        <time>2020-06-24T10:43:02.191Z</time>
      </trkpt>
      <trkpt lat="48.40141" lon="7.30932">
        <ele>650</ele>
        <time>2020-06-24T10:43:03.191Z</time>
      </trkpt>
      <trkpt lat="48.40141" lon="7.30934">
        <ele>649</ele>
        <time>2020-06-24T10:43:04.191Z</time>
      </trkpt>
      <trkpt lat="48.40142" lon="7.30935">
        <ele>648</ele>
        <time>2020-06-24T10:43:05.190Z</time>
      </trkpt>
      <trkpt lat="48.40143" lon="7.30937">
        <ele>647</ele>
        <time>2020-06-24T10:43:06.191Z</time>
      </trkpt>
      <trkpt lat="48.40143" lon="7.30939">
        <ele>646</ele>
        <time>2020-06-24T10:43:07.191Z</time>
      </trkpt>
      <trkpt lat="48.40143" lon="7.3094">
        <ele>645</ele>
        <time>2020-06-24T10:43:08.191Z</time>
      </trkpt>
      <trkpt lat="48.40142" lon="7.30942">
        <ele>644</ele>
        <time>2020-06-24T10:43:09.191Z</time>
      </trkpt>
      <trkpt lat="48.40142" lon="7.30945">
        <ele>643</ele>
        <time>2020-06-24T10:43:10.190Z</time>
      </trkpt>
      <trkpt lat="48.40142" lon="7.30947">
        <ele>643</ele>
        <time>2020-06-24T10:43:11.191Z</time>
      </trkpt>
      <trkpt lat="48.40142" lon="7.3095">
        <ele>642</ele>
        <time>2020-06-24T10:43:12.191Z</time>
      </trkpt>
      <trkpt lat="48.40142" lon="7.30952">
        <ele>641</ele>
        <time>2020-06-24T10:43:13.191Z</time>
      </trkpt>
      <trkpt lat="48.40142" lon="7.30953">
        <ele>640</ele>
        <time>2020-06-24T10:43:14.190Z</time>
      </trkpt>
      <trkpt lat="48.40142" lon="7.30954">
        <ele>639</ele>
        <time>2020-06-24T10:43:15.191Z</time>
      </trkpt>
      <trkpt lat="48.40141" lon="7.30955">
        <ele>639</ele>
        <time>2020-06-24T10:43:16.190Z</time>
      </trkpt>
      <trkpt lat="48.40141" lon="7.30956">
        <ele>638</ele>
        <time>2020-06-24T10:43:17.191Z</time>
      </trkpt>
      <trkpt lat="48.4014" lon="7.30957">
        <ele>638</ele>
        <time>2020-06-24T10:43:18.190Z</time>
      </trkpt>
      <trkpt lat="48.40141" lon="7.30957">
        <ele>637</ele>
        <time>2020-06-24T10:43:19.191Z</time>
      </trkpt>
      <trkpt lat="48.40141" lon="7.30959">
        <ele>637</ele>
        <time>2020-06-24T10:43:20.190Z</time>
      </trkpt>
      <trkpt lat="48.40142" lon="7.3096">
        <ele>637</ele>
        <time>2020-06-24T10:43:21.191Z</time>
      </trkpt>
      <trkpt lat="48.40142" lon="7.30962">
        <ele>636</ele>
        <time>2020-06-24T10:43:22.191Z</time>
      </trkpt>
      <trkpt lat="48.40143" lon="7.30963">
        <ele>636</ele>
        <time>2020-06-24T10:43:23.191Z</time>
      </trkpt>
      <trkpt lat="48.40143" lon="7.30965">
        <ele>636</ele>
        <time>2020-06-24T10:43:24.191Z</time>
      </trkpt>
      <trkpt lat="48.40144" lon="7.30967">
        <ele>636</ele>
        <time>2020-06-24T10:43:25.190Z</time>
      </trkpt>
      <trkpt lat="48.40144" lon="7.30969">
        <ele>636</ele>
        <time>2020-06-24T10:43:26.191Z</time>
      </trkpt>
      <trkpt lat="48.40145" lon="7.30971">
        <ele>637</ele>
        <time>2020-06-24T10:43:27.191Z</time>
      </trkpt>
      <trkpt lat="48.40145" lon="7.30973">
        <ele>637</ele>
        <time>2020-06-24T10:43:28.191Z</time>
      </trkpt>
      <trkpt lat="48.40145" lon="7.30975">
        <ele>638</ele>
        <time>2020-06-24T10:43:29.191Z</time>
      </trkpt>
      <trkpt lat="48.40146" lon="7.30977">
        <ele>639</ele>
        <time>2020-06-24T10:43:30.191Z</time>
      </trkpt>
      <trkpt lat="48.40146" lon="7.30979">
        <ele>640</ele>
        <time>2020-06-24T10:43:31.191Z</time>
      </trkpt>
      <trkpt lat="48.40146" lon="7.30981">
        <ele>640</ele>
        <time>2020-06-24T10:43:32.191Z</time>
      </trkpt>
      <trkpt lat="48.40147" lon="7.30982">
        <ele>640</ele>
        <time>2020-06-24T10:43:33.190Z</time>
      </trkpt>
      <trkpt lat="48.40147" lon="7.30984">
        <ele>640</ele>
        <time>2020-06-24T10:43:34.191Z</time>
      </trkpt>
      <trkpt lat="48.40148" lon="7.30986">
        <ele>640</ele>
        <time>2020-06-24T10:43:35.191Z</time>
      </trkpt>
      <trkpt lat="48.40149" lon="7.30987">
        <ele>640</ele>
        <time>2020-06-24T10:43:36.191Z</time>
      </trkpt>
      <trkpt lat="48.4015" lon="7.30989">
        <ele>640</ele>
        <time>2020-06-24T10:43:37.191Z</time>
      </trkpt>
      <trkpt lat="48.40151" lon="7.30991">
        <ele>640</ele>
        <time>2020-06-24T10:43:38.191Z</time>
      </trkpt>
      <trkpt lat="48.40151" lon="7.30992">
        <ele>640</ele>
        <time>2020-06-24T10:43:39.191Z</time>
      </trkpt>
      <trkpt lat="48.40152" lon="7.30994">
        <ele>640</ele>
        <time>2020-06-24T10:43:40.191Z</time>
      </trkpt>
      <trkpt lat="48.40152" lon="7.30996">
        <ele>641</ele>
        <time>2020-06-24T10:43:41.191Z</time>
      </trkpt>
      <trkpt lat="48.40153" lon="7.30997">
        <ele>641</ele>
        <time>2020-06-24T10:43:42.191Z</time>
      </trkpt>
      <trkpt lat="48.40154" lon="7.30999">
        <ele>641</ele>
        <time>2020-06-24T10:43:43.191Z</time>
      </trkpt>
      <trkpt lat="48.40155" lon="7.31">
        <ele>642</ele>
        <time>2020-06-24T10:43:44.190Z</time>
      </trkpt>
      <trkpt lat="48.40156" lon="7.31002">
        <ele>642</ele>
        <time>2020-06-24T10:43:45.191Z</time>
      </trkpt>
      <trkpt lat="48.40157" lon="7.31003">
        <ele>642</ele>
        <time>2020-06-24T10:43:46.190Z</time>
      </trkpt>
      <trkpt lat="48.40158" lon="7.31004">
        <ele>643</ele>
        <time>2020-06-24T10:43:47.190Z</time>
      </trkpt>
      <trkpt lat="48.40159" lon="7.31006">
        <ele>644</ele>
        <time>2020-06-24T10:43:48.190Z</time>
      </trkpt>
      <trkpt lat="48.4016" lon="7.31007">
        <ele>644</ele>
        <time>2020-06-24T10:43:49.191Z</time>
      </trkpt>
      <trkpt lat="48.40161" lon="7.31008">
        <ele>644</ele>
        <time>2020-06-24T10:43:50.190Z</time>
      </trkpt>
      <trkpt lat="48.40163" lon="7.3101">
        <ele>644</ele>
        <time>2020-06-24T10:43:51.191Z</time>
      </trkpt>
      <trkpt lat="48.40164" lon="7.31011">
        <ele>645</ele>
        <time>2020-06-24T10:43:52.191Z</time>
      </trkpt>
      <trkpt lat="48.40165" lon="7.31013">
        <ele>645</ele>
        <time>2020-06-24T10:43:53.191Z</time>
      </trkpt>
      <trkpt lat="48.40167" lon="7.31014">
        <ele>646</ele>
        <time>2020-06-24T10:43:54.190Z</time>
      </trkpt>
      <trkpt lat="48.40168" lon="7.31015">
        <ele>647</ele>
        <time>2020-06-24T10:43:55.191Z</time>
      </trkpt>
      <trkpt lat="48.4017" lon="7.31017">
        <ele>647</ele>
        <time>2020-06-24T10:43:56.190Z</time>
      </trkpt>
      <trkpt lat="48.40171" lon="7.31018">
        <ele>648</ele>
        <time>2020-06-24T10:43:57.191Z</time>
      </trkpt>
      <trkpt lat="48.40172" lon="7.31018">
        <ele>649</ele>
        <time>2020-06-24T10:43:58.191Z</time>
      </trkpt>
      <trkpt lat="48.40173" lon="7.31019">
        <ele>649</ele>
        <time>2020-06-24T10:43:59.191Z</time>
      </trkpt>
      <trkpt lat="48.40174" lon="7.3102">
        <ele>650</ele>
        <time>2020-06-24T10:44:00.191Z</time>
      </trkpt>
      <trkpt lat="48.40175" lon="7.3102">
        <ele>651</ele>
        <time>2020-06-24T10:44:01.191Z</time>
      </trkpt>
      <trkpt lat="48.40177" lon="7.31021">
        <ele>651</ele>
        <time>2020-06-24T10:44:02.191Z</time>
      </trkpt>
      <trkpt lat="48.40178" lon="7.31022">
        <ele>652</ele>
        <time>2020-06-24T10:44:03.191Z</time>
      </trkpt>
      <trkpt lat="48.4018" lon="7.31024">
        <ele>652</ele>
        <time>2020-06-24T10:44:04.191Z</time>
      </trkpt>
      <trkpt lat="48.40182" lon="7.31025">
        <ele>652</ele>
        <time>2020-06-24T10:44:05.191Z</time>
      </trkpt>
      <trkpt lat="48.40183" lon="7.31026">
        <ele>653</ele>
        <time>2020-06-24T10:44:06.191Z</time>
      </trkpt>
      <trkpt lat="48.40186" lon="7.31027">
        <ele>653</ele>
        <time>2020-06-24T10:44:07.191Z</time>
      </trkpt>
      <trkpt lat="48.40188" lon="7.31028">
        <ele>654</ele>
        <time>2020-06-24T10:44:08.191Z</time>
      </trkpt>
      <trkpt lat="48.40189" lon="7.31029">
        <ele>655</ele>
        <time>2020-06-24T10:44:09.191Z</time>
      </trkpt>
      <trkpt lat="48.4019" lon="7.3103">
        <ele>655</ele>
        <time>2020-06-24T10:44:10.191Z</time>
      </trkpt>
      <trkpt lat="48.40192" lon="7.31031">
        <ele>655</ele>
        <time>2020-06-24T10:44:11.191Z</time>
      </trkpt>
      <trkpt lat="48.40193" lon="7.31032">
        <ele>655</ele>
        <time>2020-06-24T10:44:12.191Z</time>
      </trkpt>
      <trkpt lat="48.40194" lon="7.31033">
        <ele>655</ele>
        <time>2020-06-24T10:44:13.190Z</time>
      </trkpt>
      <trkpt lat="48.40195" lon="7.31033">
        <ele>655</ele>
        <time>2020-06-24T10:44:14.190Z</time>
      </trkpt>
      <trkpt lat="48.40196" lon="7.31034">
        <ele>654</ele>
        <time>2020-06-24T10:44:15.190Z</time>
      </trkpt>
      <trkpt lat="48.40197" lon="7.31036">
        <ele>654</ele>
        <time>2020-06-24T10:44:16.190Z</time>
      </trkpt>
      <trkpt lat="48.40198" lon="7.31037">
        <ele>653</ele>
        <time>2020-06-24T10:44:17.190Z</time>
      </trkpt>
      <trkpt lat="48.402" lon="7.31038">
        <ele>653</ele>
        <time>2020-06-24T10:44:18.190Z</time>
      </trkpt>
      <trkpt lat="48.40201" lon="7.31039">
        <ele>654</ele>
        <time>2020-06-24T10:44:19.190Z</time>
      </trkpt>
      <trkpt lat="48.40202" lon="7.31038">
        <ele>654</ele>
        <time>2020-06-24T10:44:20.190Z</time>
      </trkpt>
      <trkpt lat="48.40204" lon="7.31039">
        <ele>654</ele>
        <time>2020-06-24T10:44:21.190Z</time>
      </trkpt>
      <trkpt lat="48.40205" lon="7.3104">
        <ele>654</ele>
        <time>2020-06-24T10:44:22.190Z</time>
      </trkpt>
      <trkpt lat="48.40206" lon="7.31041">
        <ele>654</ele>
        <time>2020-06-24T10:44:23.191Z</time>
      </trkpt>
      <trkpt lat="48.40206" lon="7.31041">
        <ele>654</ele>
        <time>2020-06-24T10:44:24.190Z</time>
      </trkpt>
      <trkpt lat="48.40208" lon="7.31041">
        <ele>653</ele>
        <time>2020-06-24T10:44:25.191Z</time>
      </trkpt>
      <trkpt lat="48.40208" lon="7.31041">
        <ele>653</ele>
        <time>2020-06-24T10:44:26.191Z</time>
      </trkpt>
      <trkpt lat="48.40209" lon="7.31041">
        <ele>652</ele>
        <time>2020-06-24T10:44:27.191Z</time>
      </trkpt>
      <trkpt lat="48.4021" lon="7.3104">
        <ele>652</ele>
        <time>2020-06-24T10:44:28.190Z</time>
      </trkpt>
      <trkpt lat="48.40212" lon="7.31039">
        <ele>652</ele>
        <time>2020-06-24T10:44:29.191Z</time>
      </trkpt>
      <trkpt lat="48.40213" lon="7.31039">
        <ele>652</ele>
        <time>2020-06-24T10:44:30.191Z</time>
      </trkpt>
      <trkpt lat="48.40214" lon="7.31039">
        <ele>651</ele>
        <time>2020-06-24T10:44:31.191Z</time>
      </trkpt>
      <trkpt lat="48.40214" lon="7.31039">
        <ele>651</ele>
        <time>2020-06-24T10:44:32.191Z</time>
      </trkpt>
      <trkpt lat="48.40214" lon="7.31039">
        <ele>651</ele>
        <time>2020-06-24T10:44:33.190Z</time>
      </trkpt>
      <trkpt lat="48.40215" lon="7.31039">
        <ele>651</ele>
        <time>2020-06-24T10:44:34.190Z</time>
      </trkpt>
      <trkpt lat="48.40216" lon="7.31039">
        <ele>651</ele>
        <time>2020-06-24T10:44:35.191Z</time>
      </trkpt>
      <trkpt lat="48.40216" lon="7.31039">
        <ele>651</ele>
        <time>2020-06-24T10:44:36.190Z</time>
      </trkpt>
      <trkpt lat="48.4022" lon="7.31039">
        <ele>651</ele>
        <time>2020-06-24T10:44:37.192Z</time>
      </trkpt>
      <trkpt lat="48.40221" lon="7.31039">
        <ele>651</ele>
        <time>2020-06-24T10:44:38.192Z</time>
      </trkpt>
      <trkpt lat="48.40222" lon="7.31039">
        <ele>651</ele>
        <time>2020-06-24T10:44:39.191Z</time>
      </trkpt>
      <trkpt lat="48.40223" lon="7.31039">
        <ele>651</ele>
        <time>2020-06-24T10:44:40.192Z</time>
      </trkpt>
      <trkpt lat="48.40224" lon="7.3104">
        <ele>651</ele>
        <time>2020-06-24T10:44:41.192Z</time>
      </trkpt>
      <trkpt lat="48.40225" lon="7.31041">
        <ele>652</ele>
        <time>2020-06-24T10:44:42.192Z</time>
      </trkpt>
      <trkpt lat="48.40226" lon="7.31041">
        <ele>652</ele>
        <time>2020-06-24T10:44:43.191Z</time>
      </trkpt>
      <trkpt lat="48.40227" lon="7.31042">
        <ele>652</ele>
        <time>2020-06-24T10:44:44.191Z</time>
      </trkpt>
      <trkpt lat="48.40228" lon="7.31042">
        <ele>652</ele>
        <time>2020-06-24T10:44:45.192Z</time>
      </trkpt>
      <trkpt lat="48.4023" lon="7.31043">
        <ele>652</ele>
        <time>2020-06-24T10:44:46.191Z</time>
      </trkpt>
      <trkpt lat="48.40231" lon="7.31045">
        <ele>652</ele>
        <time>2020-06-24T10:44:47.191Z</time>
      </trkpt>
      <trkpt lat="48.40233" lon="7.31046">
        <ele>652</ele>
        <time>2020-06-24T10:44:48.192Z</time>
      </trkpt>
      <trkpt lat="48.40234" lon="7.31047">
        <ele>652</ele>
        <time>2020-06-24T10:44:49.192Z</time>
      </trkpt>
      <trkpt lat="48.40235" lon="7.31049">
        <ele>652</ele>
        <time>2020-06-24T10:44:50.192Z</time>
      </trkpt>
      <trkpt lat="48.40237" lon="7.31051">
        <ele>651</ele>
        <time>2020-06-24T10:44:51.191Z</time>
      </trkpt>
      <trkpt lat="48.40238" lon="7.31052">
        <ele>651</ele>
        <time>2020-06-24T10:44:52.191Z</time>
      </trkpt>
      <trkpt lat="48.4024" lon="7.31053">
        <ele>651</ele>
        <time>2020-06-24T10:44:53.192Z</time>
      </trkpt>
      <trkpt lat="48.40241" lon="7.31054">
        <ele>651</ele>
        <time>2020-06-24T10:44:54.191Z</time>
      </trkpt>
      <trkpt lat="48.40243" lon="7.31056">
        <ele>651</ele>
        <time>2020-06-24T10:44:55.191Z</time>
      </trkpt>
      <trkpt lat="48.40246" lon="7.31058">
        <ele>651</ele>
        <time>2020-06-24T10:44:56.191Z</time>
      </trkpt>
      <trkpt lat="48.40248" lon="7.3106">
        <ele>650</ele>
        <time>2020-06-24T10:44:57.192Z</time>
      </trkpt>
      <trkpt lat="48.4025" lon="7.31061">
        <ele>651</ele>
        <time>2020-06-24T10:44:58.191Z</time>
      </trkpt>
      <trkpt lat="48.40252" lon="7.31063">
        <ele>651</ele>
        <time>2020-06-24T10:44:59.191Z</time>
      </trkpt>
      <trkpt lat="48.40252" lon="7.31065">
        <ele>650</ele>
        <time>2020-06-24T10:45:00.191Z</time>
      </trkpt>
      <trkpt lat="48.40253" lon="7.31066">
        <ele>650</ele>
        <time>2020-06-24T10:45:01.192Z</time>
      </trkpt>
      <trkpt lat="48.40255" lon="7.31068">
        <ele>650</ele>
        <time>2020-06-24T10:45:02.192Z</time>
      </trkpt>
      <trkpt lat="48.40256" lon="7.3107">
        <ele>649</ele>
        <time>2020-06-24T10:45:03.192Z</time>
      </trkpt>
      <trkpt lat="48.40257" lon="7.31073">
        <ele>648</ele>
        <time>2020-06-24T10:45:04.191Z</time>
      </trkpt>
      <trkpt lat="48.40259" lon="7.31076">
        <ele>647</ele>
        <time>2020-06-24T10:45:05.192Z</time>
      </trkpt>
      <trkpt lat="48.4026" lon="7.31078">
        <ele>646</ele>
        <time>2020-06-24T10:45:06.192Z</time>
      </trkpt>
      <trkpt lat="48.40262" lon="7.3108">
        <ele>645</ele>
        <time>2020-06-24T10:45:07.191Z</time>
      </trkpt>
      <trkpt lat="48.40264" lon="7.31083">
        <ele>645</ele>
        <time>2020-06-24T10:45:08.192Z</time>
      </trkpt>
      <trkpt lat="48.40264" lon="7.31085">
        <ele>645</ele>
        <time>2020-06-24T10:45:09.191Z</time>
      </trkpt>
      <trkpt lat="48.40264" lon="7.31087">
        <ele>644</ele>
        <time>2020-06-24T10:45:10.191Z</time>
      </trkpt>
      <trkpt lat="48.40265" lon="7.3109">
        <ele>644</ele>
        <time>2020-06-24T10:45:11.191Z</time>
      </trkpt>
      <trkpt lat="48.40265" lon="7.31092">
        <ele>644</ele>
        <time>2020-06-24T10:45:12.192Z</time>
      </trkpt>
      <trkpt lat="48.40265" lon="7.31094">
        <ele>643</ele>
        <time>2020-06-24T10:45:13.191Z</time>
      </trkpt>
      <trkpt lat="48.40266" lon="7.31096">
        <ele>642</ele>
        <time>2020-06-24T10:45:14.192Z</time>
      </trkpt>
      <trkpt lat="48.40266" lon="7.31098">
        <ele>640</ele>
        <time>2020-06-24T10:45:15.191Z</time>
      </trkpt>
      <trkpt lat="48.40267" lon="7.31101">
        <ele>639</ele>
        <time>2020-06-24T10:45:16.192Z</time>
      </trkpt>
      <trkpt lat="48.40267" lon="7.31102">
        <ele>639</ele>
        <time>2020-06-24T10:45:17.192Z</time>
      </trkpt>
      <trkpt lat="48.40268" lon="7.31104">
        <ele>638</ele>
        <time>2020-06-24T10:45:18.191Z</time>
      </trkpt>
      <trkpt lat="48.40268" lon="7.31107">
        <ele>637</ele>
        <time>2020-06-24T10:45:19.191Z</time>
      </trkpt>
      <trkpt lat="48.40267" lon="7.31109">
        <ele>637</ele>
        <time>2020-06-24T10:45:20.191Z</time>
      </trkpt>
      <trkpt lat="48.40268" lon="7.31112">
        <ele>637</ele>
        <time>2020-06-24T10:45:21.192Z</time>
      </trkpt>
      <trkpt lat="48.40268" lon="7.31115">
        <ele>637</ele>
        <time>2020-06-24T10:45:22.192Z</time>
      </trkpt>
      <trkpt lat="48.40268" lon="7.31117">
        <ele>637</ele>
        <time>2020-06-24T10:45:23.192Z</time>
      </trkpt>
      <trkpt lat="48.40268" lon="7.31119">
        <ele>637</ele>
        <time>2020-06-24T10:45:24.191Z</time>
      </trkpt>
      <trkpt lat="48.40268" lon="7.31122">
        <ele>637</ele>
        <time>2020-06-24T10:45:25.191Z</time>
      </trkpt>
      <trkpt lat="48.40268" lon="7.31124">
        <ele>637</ele>
        <time>2020-06-24T10:45:26.192Z</time>
      </trkpt>
      <trkpt lat="48.40268" lon="7.31126">
        <ele>636</ele>
        <time>2020-06-24T10:45:27.192Z</time>
      </trkpt>
      <trkpt lat="48.40269" lon="7.31129">
        <ele>636</ele>
        <time>2020-06-24T10:45:28.192Z</time>
      </trkpt>
      <trkpt lat="48.40269" lon="7.31131">
        <ele>636</ele>
        <time>2020-06-24T10:45:29.191Z</time>
      </trkpt>
      <trkpt lat="48.40269" lon="7.31134">
        <ele>636</ele>
        <time>2020-06-24T10:45:30.191Z</time>
      </trkpt>
      <trkpt lat="48.40269" lon="7.31135">
        <ele>635</ele>
        <time>2020-06-24T10:45:31.192Z</time>
      </trkpt>
      <trkpt lat="48.40269" lon="7.31138">
        <ele>635</ele>
        <time>2020-06-24T10:45:32.192Z</time>
      </trkpt>
      <trkpt lat="48.40269" lon="7.3114">
        <ele>635</ele>
        <time>2020-06-24T10:45:33.192Z</time>
      </trkpt>
      <trkpt lat="48.40269" lon="7.31142">
        <ele>634</ele>
        <time>2020-06-24T10:45:34.192Z</time>
      </trkpt>
      <trkpt lat="48.40269" lon="7.31144">
        <ele>634</ele>
        <time>2020-06-24T10:45:35.191Z</time>
      </trkpt>
      <trkpt lat="48.40269" lon="7.31146">
        <ele>634</ele>
        <time>2020-06-24T10:45:36.192Z</time>
      </trkpt>
      <trkpt lat="48.40269" lon="7.31149">
        <ele>633</ele>
        <time>2020-06-24T10:45:37.192Z</time>
      </trkpt>
      <trkpt lat="48.40269" lon="7.31151">
        <ele>632</ele>
        <time>2020-06-24T10:45:38.192Z</time>
      </trkpt>
      <trkpt lat="48.4027" lon="7.31153">
        <ele>631</ele>
        <time>2020-06-24T10:45:39.191Z</time>
      </trkpt>
      <trkpt lat="48.40269" lon="7.31155">
        <ele>629</ele>
        <time>2020-06-24T10:45:40.191Z</time>
      </trkpt>
      <trkpt lat="48.4027" lon="7.31157">
        <ele>628</ele>
        <time>2020-06-24T10:45:41.191Z</time>
      </trkpt>
      <trkpt lat="48.4027" lon="7.31159">
        <ele>628</ele>
        <time>2020-06-24T10:45:42.192Z</time>
      </trkpt>
      <trkpt lat="48.4027" lon="7.31161">
        <ele>628</ele>
        <time>2020-06-24T10:45:43.192Z</time>
      </trkpt>
      <trkpt lat="48.4027" lon="7.31163">
        <ele>628</ele>
        <time>2020-06-24T10:45:44.191Z</time>
      </trkpt>
      <trkpt lat="48.40271" lon="7.31165">
        <ele>628</ele>
        <time>2020-06-24T10:45:45.192Z</time>
      </trkpt>
      <trkpt lat="48.40271" lon="7.31167">
        <ele>629</ele>
        <time>2020-06-24T10:45:46.192Z</time>
      </trkpt>
      <trkpt lat="48.40271" lon="7.31169">
        <ele>629</ele>
        <time>2020-06-24T10:45:47.192Z</time>
      </trkpt>
      <trkpt lat="48.40272" lon="7.31171">
        <ele>628</ele>
        <time>2020-06-24T10:45:48.192Z</time>
      </trkpt>
      <trkpt lat="48.40272" lon="7.31173">
        <ele>629</ele>
        <time>2020-06-24T10:45:49.191Z</time>
      </trkpt>
      <trkpt lat="48.40272" lon="7.31175">
        <ele>629</ele>
        <time>2020-06-24T10:45:50.191Z</time>
      </trkpt>
      <trkpt lat="48.40272" lon="7.31177">
        <ele>629</ele>
        <time>2020-06-24T10:45:51.192Z</time>
      </trkpt>
      <trkpt lat="48.40272" lon="7.31179">
        <ele>629</ele>
        <time>2020-06-24T10:45:52.192Z</time>
      </trkpt>
      <trkpt lat="48.40272" lon="7.31181">
        <ele>629</ele>
        <time>2020-06-24T10:45:53.191Z</time>
      </trkpt>
      <trkpt lat="48.40272" lon="7.31183">
        <ele>629</ele>
        <time>2020-06-24T10:45:54.191Z</time>
      </trkpt>
      <trkpt lat="48.40272" lon="7.31185">
        <ele>629</ele>
        <time>2020-06-24T10:45:55.191Z</time>
      </trkpt>
      <trkpt lat="48.40273" lon="7.31186">
        <ele>629</ele>
        <time>2020-06-24T10:45:56.191Z</time>
      </trkpt>
      <trkpt lat="48.40274" lon="7.31188">
        <ele>629</ele>
        <time>2020-06-24T10:45:57.191Z</time>
      </trkpt>
      <trkpt lat="48.40274" lon="7.3119">
        <ele>629</ele>
        <time>2020-06-24T10:45:58.191Z</time>
      </trkpt>
      <trkpt lat="48.40275" lon="7.31192">
        <ele>629</ele>
        <time>2020-06-24T10:45:59.191Z</time>
      </trkpt>
      <trkpt lat="48.40275" lon="7.31195">
        <ele>629</ele>
        <time>2020-06-24T10:46:00.191Z</time>
      </trkpt>
      <trkpt lat="48.40276" lon="7.31197">
        <ele>629</ele>
        <time>2020-06-24T10:46:01.192Z</time>
      </trkpt>
      <trkpt lat="48.40277" lon="7.31199">
        <ele>629</ele>
        <time>2020-06-24T10:46:02.191Z</time>
      </trkpt>
      <trkpt lat="48.40277" lon="7.31201">
        <ele>629</ele>
        <time>2020-06-24T10:46:03.192Z</time>
      </trkpt>
      <trkpt lat="48.40278" lon="7.31203">
        <ele>629</ele>
        <time>2020-06-24T10:46:04.191Z</time>
      </trkpt>
      <trkpt lat="48.40279" lon="7.31205">
        <ele>630</ele>
        <time>2020-06-24T10:46:05.191Z</time>
      </trkpt>
      <trkpt lat="48.4028" lon="7.31207">
        <ele>630</ele>
        <time>2020-06-24T10:46:06.192Z</time>
      </trkpt>
      <trkpt lat="48.40281" lon="7.31209">
        <ele>631</ele>
        <time>2020-06-24T10:46:07.191Z</time>
      </trkpt>
      <trkpt lat="48.40282" lon="7.31212">
        <ele>631</ele>
        <time>2020-06-24T10:46:08.192Z</time>
      </trkpt>
      <trkpt lat="48.40282" lon="7.31214">
        <ele>631</ele>
        <time>2020-06-24T10:46:09.192Z</time>
      </trkpt>
      <trkpt lat="48.40283" lon="7.31217">
        <ele>632</ele>
        <time>2020-06-24T10:46:10.191Z</time>
      </trkpt>
      <trkpt lat="48.40284" lon="7.31219">
        <ele>633</ele>
        <time>2020-06-24T10:46:11.192Z</time>
      </trkpt>
      <trkpt lat="48.40284" lon="7.31221">
        <ele>633</ele>
        <time>2020-06-24T10:46:12.192Z</time>
      </trkpt>
      <trkpt lat="48.40285" lon="7.31223">
        <ele>633</ele>
        <time>2020-06-24T10:46:13.192Z</time>
      </trkpt>
      <trkpt lat="48.40286" lon="7.31225">
        <ele>633</ele>
        <time>2020-06-24T10:46:14.191Z</time>
      </trkpt>
      <trkpt lat="48.40287" lon="7.31227">
        <ele>634</ele>
        <time>2020-06-24T10:46:15.191Z</time>
      </trkpt>
      <trkpt lat="48.40288" lon="7.31229">
        <ele>633</ele>
        <time>2020-06-24T10:46:16.192Z</time>
      </trkpt>
      <trkpt lat="48.40289" lon="7.3123">
        <ele>633</ele>
        <time>2020-06-24T10:46:17.192Z</time>
      </trkpt>
      <trkpt lat="48.40289" lon="7.31232">
        <ele>632</ele>
        <time>2020-06-24T10:46:18.192Z</time>
      </trkpt>
      <trkpt lat="48.4029" lon="7.31234">
        <ele>632</ele>
        <time>2020-06-24T10:46:19.191Z</time>
      </trkpt>
      <trkpt lat="48.40291" lon="7.31236">
        <ele>631</ele>
        <time>2020-06-24T10:46:20.191Z</time>
      </trkpt>
      <trkpt lat="48.40292" lon="7.31238">
        <ele>631</ele>
        <time>2020-06-24T10:46:21.191Z</time>
      </trkpt>
      <trkpt lat="48.40292" lon="7.3124">
        <ele>631</ele>
        <time>2020-06-24T10:46:22.192Z</time>
      </trkpt>
      <trkpt lat="48.40293" lon="7.31241">
        <ele>630</ele>
        <time>2020-06-24T10:46:23.192Z</time>
      </trkpt>
      <trkpt lat="48.40294" lon="7.31243">
        <ele>630</ele>
        <time>2020-06-24T10:46:24.191Z</time>
      </trkpt>
      <trkpt lat="48.40294" lon="7.31245">
        <ele>629</ele>
        <time>2020-06-24T10:46:25.192Z</time>
      </trkpt>
      <trkpt lat="48.40295" lon="7.31247">
        <ele>629</ele>
        <time>2020-06-24T10:46:26.191Z</time>
      </trkpt>
      <trkpt lat="48.40296" lon="7.31249">
        <ele>629</ele>
        <time>2020-06-24T10:46:27.191Z</time>
      </trkpt>
      <trkpt lat="48.40297" lon="7.31251">
        <ele>629</ele>
        <time>2020-06-24T10:46:28.191Z</time>
      </trkpt>
      <trkpt lat="48.40298" lon="7.31253">
        <ele>628</ele>
        <time>2020-06-24T10:46:29.191Z</time>
      </trkpt>
      <trkpt lat="48.40299" lon="7.31255">
        <ele>628</ele>
        <time>2020-06-24T10:46:30.191Z</time>
      </trkpt>
      <trkpt lat="48.403" lon="7.31257">
        <ele>628</ele>
        <time>2020-06-24T10:46:31.191Z</time>
      </trkpt>
      <trkpt lat="48.40301" lon="7.31259">
        <ele>628</ele>
        <time>2020-06-24T10:46:32.191Z</time>
      </trkpt>
      <trkpt lat="48.40302" lon="7.31261">
        <ele>628</ele>
        <time>2020-06-24T10:46:33.192Z</time>
      </trkpt>
      <trkpt lat="48.40303" lon="7.31263">
        <ele>627</ele>
        <time>2020-06-24T10:46:34.192Z</time>
      </trkpt>
      <trkpt lat="48.40304" lon="7.31265">
        <ele>627</ele>
        <time>2020-06-24T10:46:35.192Z</time>
      </trkpt>
      <trkpt lat="48.40305" lon="7.31267">
        <ele>626</ele>
        <time>2020-06-24T10:46:36.192Z</time>
      </trkpt>
      <trkpt lat="48.40306" lon="7.31269">
        <ele>625</ele>
        <time>2020-06-24T10:46:37.192Z</time>
      </trkpt>
      <trkpt lat="48.40307" lon="7.31271">
        <ele>625</ele>
        <time>2020-06-24T10:46:38.192Z</time>
      </trkpt>
      <trkpt lat="48.40308" lon="7.31274">
        <ele>625</ele>
        <time>2020-06-24T10:46:39.192Z</time>
      </trkpt>
      <trkpt lat="48.40309" lon="7.31276">
        <ele>626</ele>
        <time>2020-06-24T10:46:40.192Z</time>
      </trkpt>
      <trkpt lat="48.4031" lon="7.31278">
        <ele>626</ele>
        <time>2020-06-24T10:46:41.192Z</time>
      </trkpt>
      <trkpt lat="48.40311" lon="7.3128">
        <ele>626</ele>
        <time>2020-06-24T10:46:42.192Z</time>
      </trkpt>
      <trkpt lat="48.40311" lon="7.31282">
        <ele>627</ele>
        <time>2020-06-24T10:46:43.192Z</time>
      </trkpt>
      <trkpt lat="48.40311" lon="7.31283">
        <ele>628</ele>
        <time>2020-06-24T10:46:44.192Z</time>
      </trkpt>
      <trkpt lat="48.40311" lon="7.31283">
        <ele>628</ele>
        <time>2020-06-24T10:46:45.192Z</time>
      </trkpt>
      <trkpt lat="48.40311" lon="7.31283">
        <ele>628</ele>
        <time>2020-06-24T10:46:46.191Z</time>
      </trkpt>
      <trkpt lat="48.40311" lon="7.31283">
        <ele>628</ele>
        <time>2020-06-24T10:46:47.192Z</time>
      </trkpt>
      <trkpt lat="48.4031" lon="7.31286">
        <ele>632</ele>
        <time>2020-06-24T10:46:48.193Z</time>
      </trkpt>
      <trkpt lat="48.40311" lon="7.31287">
        <ele>632</ele>
        <time>2020-06-24T10:46:49.193Z</time>
      </trkpt>
      <trkpt lat="48.40311" lon="7.31288">
        <ele>633</ele>
        <time>2020-06-24T10:46:50.193Z</time>
      </trkpt>
      <trkpt lat="48.40312" lon="7.3129">
        <ele>633</ele>
        <time>2020-06-24T10:46:51.193Z</time>
      </trkpt>
      <trkpt lat="48.40314" lon="7.31292">
        <ele>634</ele>
        <time>2020-06-24T10:46:52.193Z</time>
      </trkpt>
      <trkpt lat="48.40314" lon="7.31294">
        <ele>634</ele>
        <time>2020-06-24T10:46:53.193Z</time>
      </trkpt>
      <trkpt lat="48.40316" lon="7.31296">
        <ele>635</ele>
        <time>2020-06-24T10:46:54.193Z</time>
      </trkpt>
      <trkpt lat="48.40317" lon="7.31297">
        <ele>635</ele>
        <time>2020-06-24T10:46:55.192Z</time>
      </trkpt>
      <trkpt lat="48.40318" lon="7.31298">
        <ele>635</ele>
        <time>2020-06-24T10:46:56.192Z</time>
      </trkpt>
      <trkpt lat="48.4032" lon="7.313">
        <ele>635</ele>
        <time>2020-06-24T10:46:57.193Z</time>
      </trkpt>
      <trkpt lat="48.40321" lon="7.31301">
        <ele>635</ele>
        <time>2020-06-24T10:46:58.193Z</time>
      </trkpt>
      <trkpt lat="48.40322" lon="7.31303">
        <ele>635</ele>
        <time>2020-06-24T10:46:59.193Z</time>
      </trkpt>
      <trkpt lat="48.40324" lon="7.31305">
        <ele>635</ele>
        <time>2020-06-24T10:47:00.193Z</time>
      </trkpt>
      <trkpt lat="48.40325" lon="7.31308">
        <ele>636</ele>
        <time>2020-06-24T10:47:01.192Z</time>
      </trkpt>
      <trkpt lat="48.40326" lon="7.3131">
        <ele>637</ele>
        <time>2020-06-24T10:47:02.193Z</time>
      </trkpt>
      <trkpt lat="48.40327" lon="7.31311">
        <ele>637</ele>
        <time>2020-06-24T10:47:03.193Z</time>
      </trkpt>
      <trkpt lat="48.40328" lon="7.31313">
        <ele>638</ele>
        <time>2020-06-24T10:47:04.193Z</time>
      </trkpt>
      <trkpt lat="48.40329" lon="7.31316">
        <ele>639</ele>
        <time>2020-06-24T10:47:05.193Z</time>
      </trkpt>
      <trkpt lat="48.40329" lon="7.31318">
        <ele>639</ele>
        <time>2020-06-24T10:47:06.193Z</time>
      </trkpt>
      <trkpt lat="48.4033" lon="7.3132">
        <ele>640</ele>
        <time>2020-06-24T10:47:07.192Z</time>
      </trkpt>
      <trkpt lat="48.40331" lon="7.31321">
        <ele>640</ele>
        <time>2020-06-24T10:47:08.193Z</time>
      </trkpt>
      <trkpt lat="48.40332" lon="7.31323">
        <ele>640</ele>
        <time>2020-06-24T10:47:09.193Z</time>
      </trkpt>
      <trkpt lat="48.40331" lon="7.31324">
        <ele>640</ele>
        <time>2020-06-24T10:47:10.193Z</time>
      </trkpt>
      <trkpt lat="48.40331" lon="7.31326">
        <ele>639</ele>
        <time>2020-06-24T10:47:11.193Z</time>
      </trkpt>
      <trkpt lat="48.4033" lon="7.31328">
        <ele>638</ele>
        <time>2020-06-24T10:47:12.193Z</time>
      </trkpt>
      <trkpt lat="48.4033" lon="7.3133">
        <ele>638</ele>
        <time>2020-06-24T10:47:13.193Z</time>
      </trkpt>
      <trkpt lat="48.4033" lon="7.31331">
        <ele>637</ele>
        <time>2020-06-24T10:47:14.192Z</time>
      </trkpt>
      <trkpt lat="48.4033" lon="7.31332">
        <ele>637</ele>
        <time>2020-06-24T10:47:15.193Z</time>
      </trkpt>
      <trkpt lat="48.40329" lon="7.31333">
        <ele>637</ele>
        <time>2020-06-24T10:47:16.193Z</time>
      </trkpt>
      <trkpt lat="48.40329" lon="7.31334">
        <ele>636</ele>
        <time>2020-06-24T10:47:17.193Z</time>
      </trkpt>
      <trkpt lat="48.40329" lon="7.31335">
        <ele>636</ele>
        <time>2020-06-24T10:47:18.193Z</time>
      </trkpt>
      <trkpt lat="48.40329" lon="7.31337">
        <ele>635</ele>
        <time>2020-06-24T10:47:19.193Z</time>
      </trkpt>
      <trkpt lat="48.40328" lon="7.31338">
        <ele>635</ele>
        <time>2020-06-24T10:47:20.192Z</time>
      </trkpt>
      <trkpt lat="48.40328" lon="7.3134">
        <ele>634</ele>
        <time>2020-06-24T10:47:21.193Z</time>
      </trkpt>
      <trkpt lat="48.40327" lon="7.31341">
        <ele>633</ele>
        <time>2020-06-24T10:47:22.192Z</time>
      </trkpt>
      <trkpt lat="48.40326" lon="7.31343">
        <ele>632</ele>
        <time>2020-06-24T10:47:23.193Z</time>
      </trkpt>
      <trkpt lat="48.40326" lon="7.31344">
        <ele>631</ele>
        <time>2020-06-24T10:47:24.193Z</time>
      </trkpt>
      <trkpt lat="48.40325" lon="7.31345">
        <ele>630</ele>
        <time>2020-06-24T10:47:25.193Z</time>
      </trkpt>
      <trkpt lat="48.40324" lon="7.31346">
        <ele>629</ele>
        <time>2020-06-24T10:47:26.192Z</time>
      </trkpt>
      <trkpt lat="48.40324" lon="7.31347">
        <ele>628</ele>
        <time>2020-06-24T10:47:27.193Z</time>
      </trkpt>
      <trkpt lat="48.40323" lon="7.31347">
        <ele>628</ele>
        <time>2020-06-24T10:47:28.193Z</time>
      </trkpt>
      <trkpt lat="48.40321" lon="7.31347">
        <ele>627</ele>
        <time>2020-06-24T10:47:29.193Z</time>
      </trkpt>
      <trkpt lat="48.40319" lon="7.31351">
        <ele>623</ele>
        <time>2020-06-24T10:47:30.193Z</time>
      </trkpt>
      <trkpt lat="48.40318" lon="7.31354">
        <ele>623</ele>
        <time>2020-06-24T10:47:31.192Z</time>
      </trkpt>
      <trkpt lat="48.40318" lon="7.31355">
        <ele>623</ele>
        <time>2020-06-24T10:47:32.192Z</time>
      </trkpt>
      <trkpt lat="48.40317" lon="7.31359">
        <ele>629</ele>
        <time>2020-06-24T10:47:33.192Z</time>
      </trkpt>
      <trkpt lat="48.40318" lon="7.31361">
        <ele>630</ele>
        <time>2020-06-24T10:47:34.192Z</time>
      </trkpt>
      <trkpt lat="48.40318" lon="7.31363">
        <ele>630</ele>
        <time>2020-06-24T10:47:35.192Z</time>
      </trkpt>
      <trkpt lat="48.40318" lon="7.31365">
        <ele>631</ele>
        <time>2020-06-24T10:47:36.192Z</time>
      </trkpt>
      <trkpt lat="48.40318" lon="7.31366">
        <ele>632</ele>
        <time>2020-06-24T10:47:37.192Z</time>
      </trkpt>
      <trkpt lat="48.40318" lon="7.31368">
        <ele>632</ele>
        <time>2020-06-24T10:47:38.192Z</time>
      </trkpt>
      <trkpt lat="48.40318" lon="7.31369">
        <ele>632</ele>
        <time>2020-06-24T10:47:39.192Z</time>
      </trkpt>
      <trkpt lat="48.40317" lon="7.31371">
        <ele>632</ele>
        <time>2020-06-24T10:47:40.192Z</time>
      </trkpt>
      <trkpt lat="48.40317" lon="7.31372">
        <ele>632</ele>
        <time>2020-06-24T10:47:41.193Z</time>
      </trkpt>
      <trkpt lat="48.40317" lon="7.31374">
        <ele>633</ele>
        <time>2020-06-24T10:47:42.192Z</time>
      </trkpt>
      <trkpt lat="48.40317" lon="7.31375">
        <ele>633</ele>
        <time>2020-06-24T10:47:43.192Z</time>
      </trkpt>
      <trkpt lat="48.40317" lon="7.31377">
        <ele>633</ele>
        <time>2020-06-24T10:47:44.192Z</time>
      </trkpt>
      <trkpt lat="48.40317" lon="7.31379">
        <ele>633</ele>
        <time>2020-06-24T10:47:45.192Z</time>
      </trkpt>
      <trkpt lat="48.40317" lon="7.3138">
        <ele>633</ele>
        <time>2020-06-24T10:47:46.192Z</time>
      </trkpt>
      <trkpt lat="48.40316" lon="7.31381">
        <ele>632</ele>
        <time>2020-06-24T10:47:47.192Z</time>
      </trkpt>
      <trkpt lat="48.40316" lon="7.31384">
        <ele>632</ele>
        <time>2020-06-24T10:47:48.193Z</time>
      </trkpt>
      <trkpt lat="48.40316" lon="7.31387">
        <ele>631</ele>
        <time>2020-06-24T10:47:49.193Z</time>
      </trkpt>
      <trkpt lat="48.40316" lon="7.3139">
        <ele>631</ele>
        <time>2020-06-24T10:47:50.192Z</time>
      </trkpt>
      <trkpt lat="48.40315" lon="7.31393">
        <ele>630</ele>
        <time>2020-06-24T10:47:51.192Z</time>
      </trkpt>
      <trkpt lat="48.40315" lon="7.31394">
        <ele>630</ele>
        <time>2020-06-24T10:47:52.192Z</time>
      </trkpt>
      <trkpt lat="48.40315" lon="7.31396">
        <ele>629</ele>
        <time>2020-06-24T10:47:53.192Z</time>
      </trkpt>
      <trkpt lat="48.40314" lon="7.31398">
        <ele>629</ele>
        <time>2020-06-24T10:47:54.192Z</time>
      </trkpt>
      <trkpt lat="48.40314" lon="7.314">
        <ele>629</ele>
        <time>2020-06-24T10:47:55.192Z</time>
      </trkpt>
      <trkpt lat="48.40315" lon="7.31402">
        <ele>628</ele>
        <time>2020-06-24T10:47:56.192Z</time>
      </trkpt>
      <trkpt lat="48.40314" lon="7.31404">
        <ele>628</ele>
        <time>2020-06-24T10:47:57.192Z</time>
      </trkpt>
      <trkpt lat="48.40314" lon="7.31406">
        <ele>627</ele>
        <time>2020-06-24T10:47:58.192Z</time>
      </trkpt>
      <trkpt lat="48.40313" lon="7.31407">
        <ele>626</ele>
        <time>2020-06-24T10:47:59.193Z</time>
      </trkpt>
      <trkpt lat="48.40313" lon="7.3141">
        <ele>625</ele>
        <time>2020-06-24T10:48:00.192Z</time>
      </trkpt>
      <trkpt lat="48.40313" lon="7.31413">
        <ele>625</ele>
        <time>2020-06-24T10:48:01.192Z</time>
      </trkpt>
      <trkpt lat="48.40313" lon="7.31416">
        <ele>624</ele>
        <time>2020-06-24T10:48:02.192Z</time>
      </trkpt>
      <trkpt lat="48.40312" lon="7.31419">
        <ele>623</ele>
        <time>2020-06-24T10:48:03.192Z</time>
      </trkpt>
      <trkpt lat="48.40313" lon="7.31421">
        <ele>623</ele>
        <time>2020-06-24T10:48:04.192Z</time>
      </trkpt>
      <trkpt lat="48.40313" lon="7.31424">
        <ele>623</ele>
        <time>2020-06-24T10:48:05.192Z</time>
      </trkpt>
      <trkpt lat="48.40313" lon="7.31426">
        <ele>623</ele>
        <time>2020-06-24T10:48:06.193Z</time>
      </trkpt>
      <trkpt lat="48.40312" lon="7.31428">
        <ele>622</ele>
        <time>2020-06-24T10:48:07.192Z</time>
      </trkpt>
      <trkpt lat="48.40312" lon="7.3143">
        <ele>622</ele>
        <time>2020-06-24T10:48:08.193Z</time>
      </trkpt>
      <trkpt lat="48.40312" lon="7.31431">
        <ele>622</ele>
        <time>2020-06-24T10:48:09.192Z</time>
      </trkpt>
      <trkpt lat="48.40313" lon="7.31433">
        <ele>621</ele>
        <time>2020-06-24T10:48:10.192Z</time>
      </trkpt>
      <trkpt lat="48.40314" lon="7.31434">
        <ele>620</ele>
        <time>2020-06-24T10:48:11.192Z</time>
      </trkpt>
      <trkpt lat="48.40315" lon="7.31435">
        <ele>620</ele>
        <time>2020-06-24T10:48:12.192Z</time>
      </trkpt>
      <trkpt lat="48.40316" lon="7.31436">
        <ele>620</ele>
        <time>2020-06-24T10:48:13.192Z</time>
      </trkpt>
      <trkpt lat="48.40317" lon="7.31437">
        <ele>619</ele>
        <time>2020-06-24T10:48:14.193Z</time>
      </trkpt>
      <trkpt lat="48.40318" lon="7.31438">
        <ele>619</ele>
        <time>2020-06-24T10:48:15.192Z</time>
      </trkpt>
      <trkpt lat="48.40319" lon="7.31441">
        <ele>619</ele>
        <time>2020-06-24T10:48:16.193Z</time>
      </trkpt>
      <trkpt lat="48.40319" lon="7.31442">
        <ele>619</ele>
        <time>2020-06-24T10:48:17.193Z</time>
      </trkpt>
      <trkpt lat="48.4032" lon="7.31444">
        <ele>619</ele>
        <time>2020-06-24T10:48:18.192Z</time>
      </trkpt>
      <trkpt lat="48.40321" lon="7.31446">
        <ele>620</ele>
        <time>2020-06-24T10:48:19.192Z</time>
      </trkpt>
      <trkpt lat="48.40322" lon="7.31448">
        <ele>620</ele>
        <time>2020-06-24T10:48:20.192Z</time>
      </trkpt>
      <trkpt lat="48.40323" lon="7.31449">
        <ele>620</ele>
        <time>2020-06-24T10:48:21.193Z</time>
      </trkpt>
      <trkpt lat="48.40323" lon="7.31451">
        <ele>620</ele>
        <time>2020-06-24T10:48:22.192Z</time>
      </trkpt>
      <trkpt lat="48.40324" lon="7.31454">
        <ele>620</ele>
        <time>2020-06-24T10:48:23.193Z</time>
      </trkpt>
      <trkpt lat="48.40325" lon="7.31456">
        <ele>621</ele>
        <time>2020-06-24T10:48:24.192Z</time>
      </trkpt>
      <trkpt lat="48.40327" lon="7.31458">
        <ele>621</ele>
        <time>2020-06-24T10:48:25.192Z</time>
      </trkpt>
      <trkpt lat="48.40328" lon="7.3146">
        <ele>621</ele>
        <time>2020-06-24T10:48:26.192Z</time>
      </trkpt>
      <trkpt lat="48.40328" lon="7.31461">
        <ele>621</ele>
        <time>2020-06-24T10:48:27.192Z</time>
      </trkpt>
      <trkpt lat="48.40329" lon="7.31462">
        <ele>620</ele>
        <time>2020-06-24T10:48:28.192Z</time>
      </trkpt>
      <trkpt lat="48.4033" lon="7.31463">
        <ele>621</ele>
        <time>2020-06-24T10:48:29.192Z</time>
      </trkpt>
      <trkpt lat="48.40331" lon="7.31465">
        <ele>621</ele>
        <time>2020-06-24T10:48:30.192Z</time>
      </trkpt>
      <trkpt lat="48.40332" lon="7.31465">
        <ele>621</ele>
        <time>2020-06-24T10:48:31.192Z</time>
      </trkpt>
      <trkpt lat="48.40334" lon="7.31467">
        <ele>621</ele>
        <time>2020-06-24T10:48:32.192Z</time>
      </trkpt>
      <trkpt lat="48.40334" lon="7.31468">
        <ele>622</ele>
        <time>2020-06-24T10:48:33.193Z</time>
      </trkpt>
      <trkpt lat="48.40335" lon="7.31469">
        <ele>622</ele>
        <time>2020-06-24T10:48:34.192Z</time>
      </trkpt>
      <trkpt lat="48.40335" lon="7.31471">
        <ele>623</ele>
        <time>2020-06-24T10:48:35.192Z</time>
      </trkpt>
      <trkpt lat="48.40336" lon="7.31472">
        <ele>624</ele>
        <time>2020-06-24T10:48:36.193Z</time>
      </trkpt>
      <trkpt lat="48.40336" lon="7.31472">
        <ele>624</ele>
        <time>2020-06-24T10:48:37.192Z</time>
      </trkpt>
      <trkpt lat="48.40338" lon="7.31473">
        <ele>625</ele>
        <time>2020-06-24T10:48:38.192Z</time>
      </trkpt>
      <trkpt lat="48.40339" lon="7.31475">
        <ele>625</ele>
        <time>2020-06-24T10:48:39.192Z</time>
      </trkpt>
      <trkpt lat="48.4034" lon="7.31476">
        <ele>626</ele>
        <time>2020-06-24T10:48:40.192Z</time>
      </trkpt>
      <trkpt lat="48.40341" lon="7.31477">
        <ele>626</ele>
        <time>2020-06-24T10:48:41.192Z</time>
      </trkpt>
      <trkpt lat="48.40343" lon="7.31479">
        <ele>626</ele>
        <time>2020-06-24T10:48:42.192Z</time>
      </trkpt>
      <trkpt lat="48.40345" lon="7.31481">
        <ele>626</ele>
        <time>2020-06-24T10:48:43.192Z</time>
      </trkpt>
      <trkpt lat="48.40346" lon="7.31482">
        <ele>626</ele>
        <time>2020-06-24T10:48:44.192Z</time>
      </trkpt>
      <trkpt lat="48.40348" lon="7.31484">
        <ele>626</ele>
        <time>2020-06-24T10:48:45.192Z</time>
      </trkpt>
      <trkpt lat="48.40349" lon="7.31485">
        <ele>626</ele>
        <time>2020-06-24T10:48:46.192Z</time>
      </trkpt>
      <trkpt lat="48.4035" lon="7.31486">
        <ele>626</ele>
        <time>2020-06-24T10:48:47.193Z</time>
      </trkpt>
      <trkpt lat="48.40351" lon="7.31488">
        <ele>626</ele>
        <time>2020-06-24T10:48:48.192Z</time>
      </trkpt>
      <trkpt lat="48.40353" lon="7.31491">
        <ele>626</ele>
        <time>2020-06-24T10:48:49.193Z</time>
      </trkpt>
      <trkpt lat="48.40354" lon="7.31493">
        <ele>626</ele>
        <time>2020-06-24T10:48:50.193Z</time>
      </trkpt>
      <trkpt lat="48.40355" lon="7.31495">
        <ele>626</ele>
        <time>2020-06-24T10:48:51.192Z</time>
      </trkpt>
      <trkpt lat="48.40356" lon="7.31496">
        <ele>627</ele>
        <time>2020-06-24T10:48:52.192Z</time>
      </trkpt>
      <trkpt lat="48.40357" lon="7.31498">
        <ele>627</ele>
        <time>2020-06-24T10:48:53.192Z</time>
      </trkpt>
      <trkpt lat="48.40358" lon="7.315">
        <ele>627</ele>
        <time>2020-06-24T10:48:54.192Z</time>
      </trkpt>
      <trkpt lat="48.40359" lon="7.31501">
        <ele>627</ele>
        <time>2020-06-24T10:48:55.192Z</time>
      </trkpt>
      <trkpt lat="48.40359" lon="7.31502">
        <ele>626</ele>
        <time>2020-06-24T10:48:56.192Z</time>
      </trkpt>
      <trkpt lat="48.4036" lon="7.31503">
        <ele>626</ele>
        <time>2020-06-24T10:48:57.193Z</time>
      </trkpt>
      <trkpt lat="48.4036" lon="7.31504">
        <ele>625</ele>
        <time>2020-06-24T10:48:58.192Z</time>
      </trkpt>
      <trkpt lat="48.40361" lon="7.31506">
        <ele>625</ele>
        <time>2020-06-24T10:48:59.192Z</time>
      </trkpt>
      <trkpt lat="48.40363" lon="7.31506">
        <ele>625</ele>
        <time>2020-06-24T10:49:00.192Z</time>
      </trkpt>
      <trkpt lat="48.40364" lon="7.31507">
        <ele>624</ele>
        <time>2020-06-24T10:49:01.193Z</time>
      </trkpt>
      <trkpt lat="48.40365" lon="7.31507">
        <ele>623</ele>
        <time>2020-06-24T10:49:02.192Z</time>
      </trkpt>
      <trkpt lat="48.40367" lon="7.31509">
        <ele>623</ele>
        <time>2020-06-24T10:49:03.192Z</time>
      </trkpt>
      <trkpt lat="48.40369" lon="7.3151">
        <ele>622</ele>
        <time>2020-06-24T10:49:04.192Z</time>
      </trkpt>
      <trkpt lat="48.4037" lon="7.31511">
        <ele>621</ele>
        <time>2020-06-24T10:49:05.192Z</time>
      </trkpt>
      <trkpt lat="48.40371" lon="7.31513">
        <ele>621</ele>
        <time>2020-06-24T10:49:06.192Z</time>
      </trkpt>
      <trkpt lat="48.40371" lon="7.31514">
        <ele>621</ele>
        <time>2020-06-24T10:49:07.192Z</time>
      </trkpt>
      <trkpt lat="48.40372" lon="7.31515">
        <ele>621</ele>
        <time>2020-06-24T10:49:08.192Z</time>
      </trkpt>
      <trkpt lat="48.40373" lon="7.31517">
        <ele>622</ele>
        <time>2020-06-24T10:49:09.193Z</time>
      </trkpt>
      <trkpt lat="48.40372" lon="7.31518">
        <ele>622</ele>
        <time>2020-06-24T10:49:10.192Z</time>
      </trkpt>
      <trkpt lat="48.40373" lon="7.31519">
        <ele>623</ele>
        <time>2020-06-24T10:49:11.193Z</time>
      </trkpt>
      <trkpt lat="48.40373" lon="7.31521">
        <ele>623</ele>
        <time>2020-06-24T10:49:12.192Z</time>
      </trkpt>
      <trkpt lat="48.40373" lon="7.31522">
        <ele>624</ele>
        <time>2020-06-24T10:49:13.192Z</time>
      </trkpt>
      <trkpt lat="48.40373" lon="7.31523">
        <ele>625</ele>
        <time>2020-06-24T10:49:14.192Z</time>
      </trkpt>
      <trkpt lat="48.40373" lon="7.31525">
        <ele>626</ele>
        <time>2020-06-24T10:49:15.193Z</time>
      </trkpt>
      <trkpt lat="48.40374" lon="7.31527">
        <ele>627</ele>
        <time>2020-06-24T10:49:16.193Z</time>
      </trkpt>
      <trkpt lat="48.40374" lon="7.31529">
        <ele>628</ele>
        <time>2020-06-24T10:49:17.192Z</time>
      </trkpt>
      <trkpt lat="48.40374" lon="7.31532">
        <ele>629</ele>
        <time>2020-06-24T10:49:18.193Z</time>
      </trkpt>
      <trkpt lat="48.40374" lon="7.31534">
        <ele>630</ele>
        <time>2020-06-24T10:49:19.192Z</time>
      </trkpt>
      <trkpt lat="48.40374" lon="7.31536">
        <ele>630</ele>
        <time>2020-06-24T10:49:20.192Z</time>
      </trkpt>
      <trkpt lat="48.40373" lon="7.31537">
        <ele>631</ele>
        <time>2020-06-24T10:49:21.192Z</time>
      </trkpt>
      <trkpt lat="48.40374" lon="7.31539">
        <ele>632</ele>
        <time>2020-06-24T10:49:22.193Z</time>
      </trkpt>
      <trkpt lat="48.40374" lon="7.3154">
        <ele>632</ele>
        <time>2020-06-24T10:49:23.192Z</time>
      </trkpt>
      <trkpt lat="48.40374" lon="7.31543">
        <ele>632</ele>
        <time>2020-06-24T10:49:24.192Z</time>
      </trkpt>
      <trkpt lat="48.40375" lon="7.31545">
        <ele>632</ele>
        <time>2020-06-24T10:49:25.192Z</time>
      </trkpt>
      <trkpt lat="48.40376" lon="7.31547">
        <ele>632</ele>
        <time>2020-06-24T10:49:26.192Z</time>
      </trkpt>
      <trkpt lat="48.40377" lon="7.3155">
        <ele>632</ele>
        <time>2020-06-24T10:49:27.192Z</time>
      </trkpt>
      <trkpt lat="48.40378" lon="7.31552">
        <ele>632</ele>
        <time>2020-06-24T10:49:28.192Z</time>
      </trkpt>
      <trkpt lat="48.40378" lon="7.31554">
        <ele>632</ele>
        <time>2020-06-24T10:49:29.192Z</time>
      </trkpt>
      <trkpt lat="48.40379" lon="7.31555">
        <ele>632</ele>
        <time>2020-06-24T10:49:30.192Z</time>
      </trkpt>
      <trkpt lat="48.40378" lon="7.31557">
        <ele>632</ele>
        <time>2020-06-24T10:49:31.193Z</time>
      </trkpt>
      <trkpt lat="48.40377" lon="7.31559">
        <ele>631</ele>
        <time>2020-06-24T10:49:32.193Z</time>
      </trkpt>
      <trkpt lat="48.40376" lon="7.31562">
        <ele>631</ele>
        <time>2020-06-24T10:49:33.193Z</time>
      </trkpt>
      <trkpt lat="48.40375" lon="7.31564">
        <ele>631</ele>
        <time>2020-06-24T10:49:34.192Z</time>
      </trkpt>
      <trkpt lat="48.40374" lon="7.31565">
        <ele>631</ele>
        <time>2020-06-24T10:49:35.192Z</time>
      </trkpt>
      <trkpt lat="48.40373" lon="7.31567">
        <ele>631</ele>
        <time>2020-06-24T10:49:36.192Z</time>
      </trkpt>
      <trkpt lat="48.40373" lon="7.31569">
        <ele>631</ele>
        <time>2020-06-24T10:49:37.192Z</time>
      </trkpt>
      <trkpt lat="48.40371" lon="7.3157">
        <ele>631</ele>
        <time>2020-06-24T10:49:38.192Z</time>
      </trkpt>
      <trkpt lat="48.4037" lon="7.31572">
        <ele>631</ele>
        <time>2020-06-24T10:49:39.192Z</time>
      </trkpt>
      <trkpt lat="48.40369" lon="7.31573">
        <ele>630</ele>
        <time>2020-06-24T10:49:40.192Z</time>
      </trkpt>
      <trkpt lat="48.40368" lon="7.31574">
        <ele>629</ele>
        <time>2020-06-24T10:49:41.193Z</time>
      </trkpt>
      <trkpt lat="48.40367" lon="7.31575">
        <ele>629</ele>
        <time>2020-06-24T10:49:42.193Z</time>
      </trkpt>
      <trkpt lat="48.40367" lon="7.31577">
        <ele>628</ele>
        <time>2020-06-24T10:49:43.192Z</time>
      </trkpt>
      <trkpt lat="48.40367" lon="7.31578">
        <ele>628</ele>
        <time>2020-06-24T10:49:44.192Z</time>
      </trkpt>
      <trkpt lat="48.40366" lon="7.3158">
        <ele>627</ele>
        <time>2020-06-24T10:49:45.192Z</time>
      </trkpt>
      <trkpt lat="48.40365" lon="7.31583">
        <ele>627</ele>
        <time>2020-06-24T10:49:46.192Z</time>
      </trkpt>
      <trkpt lat="48.40364" lon="7.31585">
        <ele>626</ele>
        <time>2020-06-24T10:49:47.193Z</time>
      </trkpt>
      <trkpt lat="48.40362" lon="7.31587">
        <ele>626</ele>
        <time>2020-06-24T10:49:48.192Z</time>
      </trkpt>
      <trkpt lat="48.40361" lon="7.31589">
        <ele>625</ele>
        <time>2020-06-24T10:49:49.192Z</time>
      </trkpt>
      <trkpt lat="48.4036" lon="7.3159">
        <ele>624</ele>
        <time>2020-06-24T10:49:50.192Z</time>
      </trkpt>
      <trkpt lat="48.40359" lon="7.31591">
        <ele>624</ele>
        <time>2020-06-24T10:49:51.192Z</time>
      </trkpt>
      <trkpt lat="48.40358" lon="7.31591">
        <ele>623</ele>
        <time>2020-06-24T10:49:52.193Z</time>
      </trkpt>
      <trkpt lat="48.40357" lon="7.31592">
        <ele>622</ele>
        <time>2020-06-24T10:49:53.193Z</time>
      </trkpt>
      <trkpt lat="48.40356" lon="7.31593">
        <ele>621</ele>
        <time>2020-06-24T10:49:54.193Z</time>
      </trkpt>
      <trkpt lat="48.40356" lon="7.31594">
        <ele>621</ele>
        <time>2020-06-24T10:49:55.192Z</time>
      </trkpt>
      <trkpt lat="48.40355" lon="7.31595">
        <ele>620</ele>
        <time>2020-06-24T10:49:56.192Z</time>
      </trkpt>
      <trkpt lat="48.40354" lon="7.31597">
        <ele>619</ele>
        <time>2020-06-24T10:49:57.192Z</time>
      </trkpt>
      <trkpt lat="48.40353" lon="7.31598">
        <ele>618</ele>
        <time>2020-06-24T10:49:58.192Z</time>
      </trkpt>
      <trkpt lat="48.40352" lon="7.316">
        <ele>617</ele>
        <time>2020-06-24T10:49:59.192Z</time>
      </trkpt>
      <trkpt lat="48.40352" lon="7.31602">
        <ele>616</ele>
        <time>2020-06-24T10:50:00.192Z</time>
      </trkpt>
      <trkpt lat="48.40351" lon="7.31604">
        <ele>616</ele>
        <time>2020-06-24T10:50:01.193Z</time>
      </trkpt>
      <trkpt lat="48.4035" lon="7.31607">
        <ele>616</ele>
        <time>2020-06-24T10:50:02.192Z</time>
      </trkpt>
      <trkpt lat="48.40349" lon="7.31609">
        <ele>616</ele>
        <time>2020-06-24T10:50:03.193Z</time>
      </trkpt>
      <trkpt lat="48.40348" lon="7.31611">
        <ele>615</ele>
        <time>2020-06-24T10:50:04.192Z</time>
      </trkpt>
      <trkpt lat="48.40347" lon="7.31614">
        <ele>615</ele>
        <time>2020-06-24T10:50:05.192Z</time>
      </trkpt>
      <trkpt lat="48.40346" lon="7.31616">
        <ele>615</ele>
        <time>2020-06-24T10:50:06.192Z</time>
      </trkpt>
      <trkpt lat="48.40345" lon="7.31619">
        <ele>615</ele>
        <time>2020-06-24T10:50:07.192Z</time>
      </trkpt>
      <trkpt lat="48.40345" lon="7.31621">
        <ele>615</ele>
        <time>2020-06-24T10:50:08.192Z</time>
      </trkpt>
      <trkpt lat="48.40344" lon="7.31623">
        <ele>615</ele>
        <time>2020-06-24T10:50:09.193Z</time>
      </trkpt>
      <trkpt lat="48.40343" lon="7.31626">
        <ele>616</ele>
        <time>2020-06-24T10:50:10.192Z</time>
      </trkpt>
      <trkpt lat="48.40342" lon="7.31629">
        <ele>616</ele>
        <time>2020-06-24T10:50:11.192Z</time>
      </trkpt>
      <trkpt lat="48.40341" lon="7.31632">
        <ele>616</ele>
        <time>2020-06-24T10:50:12.192Z</time>
      </trkpt>
      <trkpt lat="48.4034" lon="7.31635">
        <ele>617</ele>
        <time>2020-06-24T10:50:13.192Z</time>
      </trkpt>
      <trkpt lat="48.4034" lon="7.31637">
        <ele>617</ele>
        <time>2020-06-24T10:50:14.193Z</time>
      </trkpt>
      <trkpt lat="48.40339" lon="7.31639">
        <ele>618</ele>
        <time>2020-06-24T10:50:15.192Z</time>
      </trkpt>
      <trkpt lat="48.40338" lon="7.31641">
        <ele>619</ele>
        <time>2020-06-24T10:50:16.192Z</time>
      </trkpt>
      <trkpt lat="48.40338" lon="7.31643">
        <ele>619</ele>
        <time>2020-06-24T10:50:17.193Z</time>
      </trkpt>
      <trkpt lat="48.40337" lon="7.31645">
        <ele>620</ele>
        <time>2020-06-24T10:50:18.192Z</time>
      </trkpt>
      <trkpt lat="48.40337" lon="7.31647">
        <ele>620</ele>
        <time>2020-06-24T10:50:19.192Z</time>
      </trkpt>
      <trkpt lat="48.40336" lon="7.31649">
        <ele>620</ele>
        <time>2020-06-24T10:50:20.192Z</time>
      </trkpt>
      <trkpt lat="48.40336" lon="7.31651">
        <ele>620</ele>
        <time>2020-06-24T10:50:21.192Z</time>
      </trkpt>
      <trkpt lat="48.40335" lon="7.31654">
        <ele>620</ele>
        <time>2020-06-24T10:50:22.192Z</time>
      </trkpt>
      <trkpt lat="48.40334" lon="7.31656">
        <ele>620</ele>
        <time>2020-06-24T10:50:23.192Z</time>
      </trkpt>
      <trkpt lat="48.40334" lon="7.31658">
        <ele>620</ele>
        <time>2020-06-24T10:50:24.193Z</time>
      </trkpt>
      <trkpt lat="48.40333" lon="7.31661">
        <ele>619</ele>
        <time>2020-06-24T10:50:25.192Z</time>
      </trkpt>
      <trkpt lat="48.40332" lon="7.31663">
        <ele>619</ele>
        <time>2020-06-24T10:50:26.193Z</time>
      </trkpt>
      <trkpt lat="48.40332" lon="7.31665">
        <ele>619</ele>
        <time>2020-06-24T10:50:27.193Z</time>
      </trkpt>
      <trkpt lat="48.40331" lon="7.31668">
        <ele>619</ele>
        <time>2020-06-24T10:50:28.192Z</time>
      </trkpt>
      <trkpt lat="48.40331" lon="7.3167">
        <ele>620</ele>
        <time>2020-06-24T10:50:29.193Z</time>
      </trkpt>
      <trkpt lat="48.40331" lon="7.31673">
        <ele>620</ele>
        <time>2020-06-24T10:50:30.192Z</time>
      </trkpt>
      <trkpt lat="48.40331" lon="7.31674">
        <ele>620</ele>
        <time>2020-06-24T10:50:31.192Z</time>
      </trkpt>
      <trkpt lat="48.40331" lon="7.31676">
        <ele>620</ele>
        <time>2020-06-24T10:50:32.192Z</time>
      </trkpt>
      <trkpt lat="48.4033" lon="7.31678">
        <ele>620</ele>
        <time>2020-06-24T10:50:33.192Z</time>
      </trkpt>
      <trkpt lat="48.4033" lon="7.3168">
        <ele>620</ele>
        <time>2020-06-24T10:50:34.192Z</time>
      </trkpt>
      <trkpt lat="48.40329" lon="7.31683">
        <ele>619</ele>
        <time>2020-06-24T10:50:35.192Z</time>
      </trkpt>
      <trkpt lat="48.40329" lon="7.31684">
        <ele>619</ele>
        <time>2020-06-24T10:50:36.192Z</time>
      </trkpt>
      <trkpt lat="48.40329" lon="7.31687">
        <ele>618</ele>
        <time>2020-06-24T10:50:37.192Z</time>
      </trkpt>
      <trkpt lat="48.40329" lon="7.31689">
        <ele>618</ele>
        <time>2020-06-24T10:50:38.192Z</time>
      </trkpt>
      <trkpt lat="48.40329" lon="7.31691">
        <ele>618</ele>
        <time>2020-06-24T10:50:39.192Z</time>
      </trkpt>
      <trkpt lat="48.40328" lon="7.31694">
        <ele>618</ele>
        <time>2020-06-24T10:50:40.193Z</time>
      </trkpt>
      <trkpt lat="48.40328" lon="7.31697">
        <ele>618</ele>
        <time>2020-06-24T10:50:41.192Z</time>
      </trkpt>
      <trkpt lat="48.40327" lon="7.31699">
        <ele>618</ele>
        <time>2020-06-24T10:50:42.192Z</time>
      </trkpt>
      <trkpt lat="48.40327" lon="7.31702">
        <ele>617</ele>
        <time>2020-06-24T10:50:43.192Z</time>
      </trkpt>
      <trkpt lat="48.40327" lon="7.31705">
        <ele>616</ele>
        <time>2020-06-24T10:50:44.192Z</time>
      </trkpt>
      <trkpt lat="48.40326" lon="7.31708">
        <ele>616</ele>
        <time>2020-06-24T10:50:45.192Z</time>
      </trkpt>
      <trkpt lat="48.40326" lon="7.31711">
        <ele>616</ele>
        <time>2020-06-24T10:50:46.193Z</time>
      </trkpt>
      <trkpt lat="48.40326" lon="7.31713">
        <ele>615</ele>
        <time>2020-06-24T10:50:47.192Z</time>
      </trkpt>
      <trkpt lat="48.40326" lon="7.31715">
        <ele>616</ele>
        <time>2020-06-24T10:50:48.192Z</time>
      </trkpt>
      <trkpt lat="48.40325" lon="7.31717">
        <ele>616</ele>
        <time>2020-06-24T10:50:49.192Z</time>
      </trkpt>
      <trkpt lat="48.40325" lon="7.31719">
        <ele>616</ele>
        <time>2020-06-24T10:50:50.192Z</time>
      </trkpt>
      <trkpt lat="48.40325" lon="7.31721">
        <ele>616</ele>
        <time>2020-06-24T10:50:51.192Z</time>
      </trkpt>
      <trkpt lat="48.40326" lon="7.31723">
        <ele>616</ele>
        <time>2020-06-24T10:50:52.192Z</time>
      </trkpt>
      <trkpt lat="48.40326" lon="7.31725">
        <ele>616</ele>
        <time>2020-06-24T10:50:53.192Z</time>
      </trkpt>
      <trkpt lat="48.40326" lon="7.31727">
        <ele>616</ele>
        <time>2020-06-24T10:50:54.192Z</time>
      </trkpt>
      <trkpt lat="48.40327" lon="7.31729">
        <ele>616</ele>
        <time>2020-06-24T10:50:55.192Z</time>
      </trkpt>
      <trkpt lat="48.40327" lon="7.31731">
        <ele>615</ele>
        <time>2020-06-24T10:50:56.192Z</time>
      </trkpt>
      <trkpt lat="48.40327" lon="7.31734">
        <ele>615</ele>
        <time>2020-06-24T10:50:57.192Z</time>
      </trkpt>
      <trkpt lat="48.40327" lon="7.31736">
        <ele>615</ele>
        <time>2020-06-24T10:50:58.192Z</time>
      </trkpt>
      <trkpt lat="48.40327" lon="7.31739">
        <ele>615</ele>
        <time>2020-06-24T10:50:59.192Z</time>
      </trkpt>
      <trkpt lat="48.40327" lon="7.31741">
        <ele>615</ele>
        <time>2020-06-24T10:51:00.192Z</time>
      </trkpt>
      <trkpt lat="48.40328" lon="7.31744">
        <ele>615</ele>
        <time>2020-06-24T10:51:01.192Z</time>
      </trkpt>
      <trkpt lat="48.40328" lon="7.31746">
        <ele>615</ele>
        <time>2020-06-24T10:51:02.192Z</time>
      </trkpt>
      <trkpt lat="48.40328" lon="7.31748">
        <ele>615</ele>
        <time>2020-06-24T10:51:03.192Z</time>
      </trkpt>
      <trkpt lat="48.40328" lon="7.3175">
        <ele>615</ele>
        <time>2020-06-24T10:51:04.192Z</time>
      </trkpt>
      <trkpt lat="48.40329" lon="7.31753">
        <ele>615</ele>
        <time>2020-06-24T10:51:05.192Z</time>
      </trkpt>
      <trkpt lat="48.40329" lon="7.31755">
        <ele>614</ele>
        <time>2020-06-24T10:51:06.192Z</time>
      </trkpt>
      <trkpt lat="48.40329" lon="7.31757">
        <ele>614</ele>
        <time>2020-06-24T10:51:07.192Z</time>
      </trkpt>
      <trkpt lat="48.4033" lon="7.31759">
        <ele>613</ele>
        <time>2020-06-24T10:51:08.193Z</time>
      </trkpt>
      <trkpt lat="48.4033" lon="7.31761">
        <ele>613</ele>
        <time>2020-06-24T10:51:09.193Z</time>
      </trkpt>
      <trkpt lat="48.4033" lon="7.31763">
        <ele>613</ele>
        <time>2020-06-24T10:51:10.193Z</time>
      </trkpt>
      <trkpt lat="48.4033" lon="7.31766">
        <ele>613</ele>
        <time>2020-06-24T10:51:11.192Z</time>
      </trkpt>
      <trkpt lat="48.4033" lon="7.31768">
        <ele>613</ele>
        <time>2020-06-24T10:51:12.192Z</time>
      </trkpt>
      <trkpt lat="48.4033" lon="7.3177">
        <ele>612</ele>
        <time>2020-06-24T10:51:13.192Z</time>
      </trkpt>
      <trkpt lat="48.4033" lon="7.31773">
        <ele>612</ele>
        <time>2020-06-24T10:51:14.192Z</time>
      </trkpt>
      <trkpt lat="48.4033" lon="7.31775">
        <ele>613</ele>
        <time>2020-06-24T10:51:15.192Z</time>
      </trkpt>
      <trkpt lat="48.4033" lon="7.31777">
        <ele>613</ele>
        <time>2020-06-24T10:51:16.192Z</time>
      </trkpt>
      <trkpt lat="48.4033" lon="7.31779">
        <ele>613</ele>
        <time>2020-06-24T10:51:17.192Z</time>
      </trkpt>
      <trkpt lat="48.40329" lon="7.31781">
        <ele>613</ele>
        <time>2020-06-24T10:51:18.193Z</time>
      </trkpt>
      <trkpt lat="48.40329" lon="7.31783">
        <ele>613</ele>
        <time>2020-06-24T10:51:19.192Z</time>
      </trkpt>
      <trkpt lat="48.40329" lon="7.31785">
        <ele>613</ele>
        <time>2020-06-24T10:51:20.192Z</time>
      </trkpt>
      <trkpt lat="48.40329" lon="7.31787">
        <ele>613</ele>
        <time>2020-06-24T10:51:21.192Z</time>
      </trkpt>
      <trkpt lat="48.40327" lon="7.31789">
        <ele>613</ele>
        <time>2020-06-24T10:51:22.193Z</time>
      </trkpt>
      <trkpt lat="48.40326" lon="7.3179">
        <ele>613</ele>
        <time>2020-06-24T10:51:23.192Z</time>
      </trkpt>
      <trkpt lat="48.40326" lon="7.31792">
        <ele>613</ele>
        <time>2020-06-24T10:51:24.192Z</time>
      </trkpt>
      <trkpt lat="48.40326" lon="7.31793">
        <ele>612</ele>
        <time>2020-06-24T10:51:25.192Z</time>
      </trkpt>
      <trkpt lat="48.40326" lon="7.31795">
        <ele>612</ele>
        <time>2020-06-24T10:51:26.193Z</time>
      </trkpt>
      <trkpt lat="48.40326" lon="7.31797">
        <ele>612</ele>
        <time>2020-06-24T10:51:27.192Z</time>
      </trkpt>
      <trkpt lat="48.40326" lon="7.31798">
        <ele>612</ele>
        <time>2020-06-24T10:51:28.192Z</time>
      </trkpt>
      <trkpt lat="48.40325" lon="7.318">
        <ele>611</ele>
        <time>2020-06-24T10:51:29.192Z</time>
      </trkpt>
      <trkpt lat="48.40325" lon="7.31802">
        <ele>611</ele>
        <time>2020-06-24T10:51:30.192Z</time>
      </trkpt>
      <trkpt lat="48.40325" lon="7.31804">
        <ele>611</ele>
        <time>2020-06-24T10:51:31.192Z</time>
      </trkpt>
      <trkpt lat="48.40326" lon="7.31807">
        <ele>611</ele>
        <time>2020-06-24T10:51:32.192Z</time>
      </trkpt>
      <trkpt lat="48.40326" lon="7.31809">
        <ele>611</ele>
        <time>2020-06-24T10:51:33.193Z</time>
      </trkpt>
      <trkpt lat="48.40326" lon="7.31811">
        <ele>612</ele>
        <time>2020-06-24T10:51:34.192Z</time>
      </trkpt>
      <trkpt lat="48.40326" lon="7.31811">
        <ele>612</ele>
        <time>2020-06-24T10:51:35.192Z</time>
      </trkpt>
      <trkpt lat="48.40325" lon="7.31816">
        <ele>613</ele>
        <time>2020-06-24T10:51:36.192Z</time>
      </trkpt>
      <trkpt lat="48.40325" lon="7.31818">
        <ele>613</ele>
        <time>2020-06-24T10:51:37.193Z</time>
      </trkpt>
      <trkpt lat="48.40325" lon="7.31821">
        <ele>614</ele>
        <time>2020-06-24T10:51:38.192Z</time>
      </trkpt>
      <trkpt lat="48.40323" lon="7.31825">
        <ele>615</ele>
        <time>2020-06-24T10:51:39.192Z</time>
      </trkpt>
      <trkpt lat="48.40323" lon="7.31828">
        <ele>616</ele>
        <time>2020-06-24T10:51:40.192Z</time>
      </trkpt>
      <trkpt lat="48.40323" lon="7.31829">
        <ele>616</ele>
        <time>2020-06-24T10:51:41.192Z</time>
      </trkpt>
      <trkpt lat="48.40323" lon="7.31831">
        <ele>617</ele>
        <time>2020-06-24T10:51:42.192Z</time>
      </trkpt>
      <trkpt lat="48.40322" lon="7.31833">
        <ele>617</ele>
        <time>2020-06-24T10:51:43.192Z</time>
      </trkpt>
      <trkpt lat="48.40322" lon="7.31835">
        <ele>617</ele>
        <time>2020-06-24T10:51:44.192Z</time>
      </trkpt>
      <trkpt lat="48.40322" lon="7.31837">
        <ele>617</ele>
        <time>2020-06-24T10:51:45.192Z</time>
      </trkpt>
      <trkpt lat="48.40321" lon="7.3184">
        <ele>616</ele>
        <time>2020-06-24T10:51:46.192Z</time>
      </trkpt>
      <trkpt lat="48.40321" lon="7.31843">
        <ele>617</ele>
        <time>2020-06-24T10:51:47.192Z</time>
      </trkpt>
      <trkpt lat="48.4032" lon="7.31845">
        <ele>617</ele>
        <time>2020-06-24T10:51:48.192Z</time>
      </trkpt>
      <trkpt lat="48.4032" lon="7.31848">
        <ele>617</ele>
        <time>2020-06-24T10:51:49.192Z</time>
      </trkpt>
      <trkpt lat="48.4032" lon="7.3185">
        <ele>617</ele>
        <time>2020-06-24T10:51:50.192Z</time>
      </trkpt>
      <trkpt lat="48.4032" lon="7.31852">
        <ele>616</ele>
        <time>2020-06-24T10:51:51.192Z</time>
      </trkpt>
      <trkpt lat="48.40319" lon="7.31855">
        <ele>616</ele>
        <time>2020-06-24T10:51:52.193Z</time>
      </trkpt>
      <trkpt lat="48.40318" lon="7.31857">
        <ele>617</ele>
        <time>2020-06-24T10:51:53.193Z</time>
      </trkpt>
      <trkpt lat="48.40318" lon="7.31859">
        <ele>617</ele>
        <time>2020-06-24T10:51:54.192Z</time>
      </trkpt>
      <trkpt lat="48.40317" lon="7.31861">
        <ele>617</ele>
        <time>2020-06-24T10:51:55.192Z</time>
      </trkpt>
      <trkpt lat="48.40316" lon="7.31862">
        <ele>616</ele>
        <time>2020-06-24T10:51:56.192Z</time>
      </trkpt>
      <trkpt lat="48.40316" lon="7.31863">
        <ele>616</ele>
        <time>2020-06-24T10:51:57.192Z</time>
      </trkpt>
      <trkpt lat="48.40315" lon="7.31865">
        <ele>616</ele>
        <time>2020-06-24T10:51:58.192Z</time>
      </trkpt>
      <trkpt lat="48.40314" lon="7.31866">
        <ele>615</ele>
        <time>2020-06-24T10:51:59.193Z</time>
      </trkpt>
      <trkpt lat="48.40313" lon="7.31868">
        <ele>615</ele>
        <time>2020-06-24T10:52:00.192Z</time>
      </trkpt>
      <trkpt lat="48.40313" lon="7.3187">
        <ele>614</ele>
        <time>2020-06-24T10:52:01.192Z</time>
      </trkpt>
      <trkpt lat="48.40312" lon="7.31873">
        <ele>614</ele>
        <time>2020-06-24T10:52:02.192Z</time>
      </trkpt>
      <trkpt lat="48.40311" lon="7.31875">
        <ele>614</ele>
        <time>2020-06-24T10:52:03.192Z</time>
      </trkpt>
      <trkpt lat="48.40311" lon="7.31877">
        <ele>614</ele>
        <time>2020-06-24T10:52:04.193Z</time>
      </trkpt>
      <trkpt lat="48.4031" lon="7.3188">
        <ele>614</ele>
        <time>2020-06-24T10:52:05.192Z</time>
      </trkpt>
      <trkpt lat="48.40309" lon="7.31882">
        <ele>615</ele>
        <time>2020-06-24T10:52:06.192Z</time>
      </trkpt>
      <trkpt lat="48.40309" lon="7.31883">
        <ele>615</ele>
        <time>2020-06-24T10:52:07.192Z</time>
      </trkpt>
      <trkpt lat="48.40308" lon="7.31884">
        <ele>614</ele>
        <time>2020-06-24T10:52:08.193Z</time>
      </trkpt>
      <trkpt lat="48.40307" lon="7.31885">
        <ele>614</ele>
        <time>2020-06-24T10:52:09.193Z</time>
      </trkpt>
      <trkpt lat="48.40306" lon="7.31886">
        <ele>613</ele>
        <time>2020-06-24T10:52:10.193Z</time>
      </trkpt>
      <trkpt lat="48.40305" lon="7.31886">
        <ele>612</ele>
        <time>2020-06-24T10:52:11.192Z</time>
      </trkpt>
      <trkpt lat="48.40304" lon="7.31885">
        <ele>611</ele>
        <time>2020-06-24T10:52:12.192Z</time>
      </trkpt>
      <trkpt lat="48.40303" lon="7.31884">
        <ele>611</ele>
        <time>2020-06-24T10:52:13.192Z</time>
      </trkpt>
      <trkpt lat="48.40301" lon="7.31883">
        <ele>610</ele>
        <time>2020-06-24T10:52:14.192Z</time>
      </trkpt>
      <trkpt lat="48.403" lon="7.31882">
        <ele>609</ele>
        <time>2020-06-24T10:52:15.192Z</time>
      </trkpt>
      <trkpt lat="48.40299" lon="7.31881">
        <ele>609</ele>
        <time>2020-06-24T10:52:16.192Z</time>
      </trkpt>
      <trkpt lat="48.40298" lon="7.3188">
        <ele>608</ele>
        <time>2020-06-24T10:52:17.193Z</time>
      </trkpt>
      <trkpt lat="48.40297" lon="7.3188">
        <ele>607</ele>
        <time>2020-06-24T10:52:18.193Z</time>
      </trkpt>
      <trkpt lat="48.40296" lon="7.31879">
        <ele>606</ele>
        <time>2020-06-24T10:52:19.193Z</time>
      </trkpt>
      <trkpt lat="48.40295" lon="7.31879">
        <ele>605</ele>
        <time>2020-06-24T10:52:20.192Z</time>
      </trkpt>
      <trkpt lat="48.40294" lon="7.3188">
        <ele>605</ele>
        <time>2020-06-24T10:52:21.193Z</time>
      </trkpt>
      <trkpt lat="48.40293" lon="7.3188">
        <ele>604</ele>
        <time>2020-06-24T10:52:22.192Z</time>
      </trkpt>
      <trkpt lat="48.40293" lon="7.3188">
        <ele>604</ele>
        <time>2020-06-24T10:52:23.193Z</time>
      </trkpt>
      <trkpt lat="48.40293" lon="7.31879">
        <ele>604</ele>
        <time>2020-06-24T10:52:24.193Z</time>
      </trkpt>
      <trkpt lat="48.4029" lon="7.31879">
        <ele>603</ele>
        <time>2020-06-24T10:52:25.193Z</time>
      </trkpt>
      <trkpt lat="48.4029" lon="7.31879">
        <ele>604</ele>
        <time>2020-06-24T10:52:26.193Z</time>
      </trkpt>
      <trkpt lat="48.40289" lon="7.31883">
        <ele>605</ele>
        <time>2020-06-24T10:52:27.194Z</time>
      </trkpt>
      <trkpt lat="48.40288" lon="7.31883">
        <ele>605</ele>
        <time>2020-06-24T10:52:28.194Z</time>
      </trkpt>
      <trkpt lat="48.40287" lon="7.31884">
        <ele>605</ele>
        <time>2020-06-24T10:52:29.193Z</time>
      </trkpt>
      <trkpt lat="48.40287" lon="7.31884">
        <ele>605</ele>
        <time>2020-06-24T10:52:30.193Z</time>
      </trkpt>
      <trkpt lat="48.40288" lon="7.31882">
        <ele>605</ele>
        <time>2020-06-24T10:52:31.194Z</time>
      </trkpt>
      <trkpt lat="48.40289" lon="7.31881">
        <ele>605</ele>
        <time>2020-06-24T10:52:32.193Z</time>
      </trkpt>
      <trkpt lat="48.4029" lon="7.31881">
        <ele>605</ele>
        <time>2020-06-24T10:52:33.194Z</time>
      </trkpt>
      <trkpt lat="48.40291" lon="7.3188">
        <ele>606</ele>
        <time>2020-06-24T10:52:34.194Z</time>
      </trkpt>
      <trkpt lat="48.40292" lon="7.3188">
        <ele>607</ele>
        <time>2020-06-24T10:52:35.194Z</time>
      </trkpt>
      <trkpt lat="48.40293" lon="7.31879">
        <ele>608</ele>
        <time>2020-06-24T10:52:36.193Z</time>
      </trkpt>
      <trkpt lat="48.40293" lon="7.31878">
        <ele>608</ele>
        <time>2020-06-24T10:52:37.194Z</time>
      </trkpt>
      <trkpt lat="48.40293" lon="7.31878">
        <ele>608</ele>
        <time>2020-06-24T10:52:38.193Z</time>
      </trkpt>
      <trkpt lat="48.40292" lon="7.31877">
        <ele>607</ele>
        <time>2020-06-24T10:52:39.194Z</time>
      </trkpt>
      <trkpt lat="48.40292" lon="7.31877">
        <ele>607</ele>
        <time>2020-06-24T10:52:40.193Z</time>
      </trkpt>
      <trkpt lat="48.40291" lon="7.31877">
        <ele>606</ele>
        <time>2020-06-24T10:52:41.194Z</time>
      </trkpt>
      <trkpt lat="48.4029" lon="7.31877">
        <ele>606</ele>
        <time>2020-06-24T10:52:42.194Z</time>
      </trkpt>
      <trkpt lat="48.40289" lon="7.31877">
        <ele>606</ele>
        <time>2020-06-24T10:52:43.194Z</time>
      </trkpt>
      <trkpt lat="48.40288" lon="7.31876">
        <ele>605</ele>
        <time>2020-06-24T10:52:44.194Z</time>
      </trkpt>
      <trkpt lat="48.40287" lon="7.31876">
        <ele>605</ele>
        <time>2020-06-24T10:52:45.194Z</time>
      </trkpt>
      <trkpt lat="48.40286" lon="7.31875">
        <ele>605</ele>
        <time>2020-06-24T10:52:46.193Z</time>
      </trkpt>
      <trkpt lat="48.40284" lon="7.31875">
        <ele>605</ele>
        <time>2020-06-24T10:52:47.194Z</time>
      </trkpt>
      <trkpt lat="48.40282" lon="7.31874">
        <ele>605</ele>
        <time>2020-06-24T10:52:48.194Z</time>
      </trkpt>
      <trkpt lat="48.40281" lon="7.31873">
        <ele>605</ele>
        <time>2020-06-24T10:52:49.193Z</time>
      </trkpt>
      <trkpt lat="48.4028" lon="7.31873">
        <ele>606</ele>
        <time>2020-06-24T10:52:50.194Z</time>
      </trkpt>
      <trkpt lat="48.40279" lon="7.31872">
        <ele>606</ele>
        <time>2020-06-24T10:52:51.194Z</time>
      </trkpt>
      <trkpt lat="48.40278" lon="7.31873">
        <ele>606</ele>
        <time>2020-06-24T10:52:52.194Z</time>
      </trkpt>
      <trkpt lat="48.40277" lon="7.31874">
        <ele>606</ele>
        <time>2020-06-24T10:52:53.194Z</time>
      </trkpt>
      <trkpt lat="48.40277" lon="7.31873">
        <ele>607</ele>
        <time>2020-06-24T10:52:54.194Z</time>
      </trkpt>
      <trkpt lat="48.40279" lon="7.31868">
        <ele>607</ele>
        <time>2020-06-24T10:52:55.194Z</time>
      </trkpt>
      <trkpt lat="48.40279" lon="7.31867">
        <ele>606</ele>
        <time>2020-06-24T10:52:56.195Z</time>
      </trkpt>
      <trkpt lat="48.40279" lon="7.31867">
        <ele>606</ele>
        <time>2020-06-24T10:52:57.194Z</time>
      </trkpt>
      <trkpt lat="48.40279" lon="7.31868">
        <ele>606</ele>
        <time>2020-06-24T10:52:58.194Z</time>
      </trkpt>
      <trkpt lat="48.40285" lon="7.31867">
        <ele>606</ele>
        <time>2020-06-24T10:52:59.194Z</time>
      </trkpt>
      <trkpt lat="48.40285" lon="7.31867">
        <ele>606</ele>
        <time>2020-06-24T10:53:00.194Z</time>
      </trkpt>
      <trkpt lat="48.40286" lon="7.31867">
        <ele>605</ele>
        <time>2020-06-24T10:53:01.195Z</time>
      </trkpt>
      <trkpt lat="48.40287" lon="7.31867">
        <ele>605</ele>
        <time>2020-06-24T10:53:02.195Z</time>
      </trkpt>
      <trkpt lat="48.40287" lon="7.31867">
        <ele>605</ele>
        <time>2020-06-24T10:53:03.195Z</time>
      </trkpt>
      <trkpt lat="48.40288" lon="7.31868">
        <ele>605</ele>
        <time>2020-06-24T10:53:04.194Z</time>
      </trkpt>
      <trkpt lat="48.40289" lon="7.31868">
        <ele>606</ele>
        <time>2020-06-24T10:53:05.195Z</time>
      </trkpt>
      <trkpt lat="48.40289" lon="7.31869">
        <ele>606</ele>
        <time>2020-06-24T10:53:06.195Z</time>
      </trkpt>
      <trkpt lat="48.4029" lon="7.31868">
        <ele>606</ele>
        <time>2020-06-24T10:53:07.195Z</time>
      </trkpt>
      <trkpt lat="48.4029" lon="7.31868">
        <ele>606</ele>
        <time>2020-06-24T10:53:08.195Z</time>
      </trkpt>
      <trkpt lat="48.4029" lon="7.31868">
        <ele>606</ele>
        <time>2020-06-24T10:53:09.195Z</time>
      </trkpt>
      <trkpt lat="48.40291" lon="7.31868">
        <ele>605</ele>
        <time>2020-06-24T10:53:10.194Z</time>
      </trkpt>
      <trkpt lat="48.40291" lon="7.31868">
        <ele>605</ele>
        <time>2020-06-24T10:53:11.194Z</time>
      </trkpt>
      <trkpt lat="48.40292" lon="7.31868">
        <ele>605</ele>
        <time>2020-06-24T10:53:12.194Z</time>
      </trkpt>
      <trkpt lat="48.40293" lon="7.31868">
        <ele>604</ele>
        <time>2020-06-24T10:53:13.194Z</time>
      </trkpt>
      <trkpt lat="48.40302" lon="7.31858">
        <ele>599</ele>
        <time>2020-06-24T10:53:14.195Z</time>
      </trkpt>
      <trkpt lat="48.40302" lon="7.31858">
        <ele>598</ele>
        <time>2020-06-24T10:53:15.194Z</time>
      </trkpt>
      <trkpt lat="48.40303" lon="7.31858">
        <ele>598</ele>
        <time>2020-06-24T10:53:16.194Z</time>
      </trkpt>
      <trkpt lat="48.40302" lon="7.31866">
        <ele>610</ele>
        <time>2020-06-24T10:53:17.196Z</time>
      </trkpt>
      <trkpt lat="48.40303" lon="7.31876">
        <ele>599</ele>
        <time>2020-06-24T10:53:18.195Z</time>
      </trkpt>
      <trkpt lat="48.40304" lon="7.31878">
        <ele>599</ele>
        <time>2020-06-24T10:53:19.195Z</time>
      </trkpt>
      <trkpt lat="48.40305" lon="7.31881">
        <ele>599</ele>
        <time>2020-06-24T10:53:20.195Z</time>
      </trkpt>
      <trkpt lat="48.40306" lon="7.31883">
        <ele>599</ele>
        <time>2020-06-24T10:53:21.196Z</time>
      </trkpt>
      <trkpt lat="48.40306" lon="7.31885">
        <ele>600</ele>
        <time>2020-06-24T10:53:22.195Z</time>
      </trkpt>
      <trkpt lat="48.40307" lon="7.31887">
        <ele>600</ele>
        <time>2020-06-24T10:53:23.196Z</time>
      </trkpt>
      <trkpt lat="48.40307" lon="7.3189">
        <ele>601</ele>
        <time>2020-06-24T10:53:24.196Z</time>
      </trkpt>
      <trkpt lat="48.40308" lon="7.31892">
        <ele>602</ele>
        <time>2020-06-24T10:53:25.196Z</time>
      </trkpt>
      <trkpt lat="48.40307" lon="7.31894">
        <ele>603</ele>
        <time>2020-06-24T10:53:26.196Z</time>
      </trkpt>
      <trkpt lat="48.40307" lon="7.31896">
        <ele>604</ele>
        <time>2020-06-24T10:53:27.196Z</time>
      </trkpt>
      <trkpt lat="48.40306" lon="7.31898">
        <ele>605</ele>
        <time>2020-06-24T10:53:28.196Z</time>
      </trkpt>
      <trkpt lat="48.40306" lon="7.31899">
        <ele>605</ele>
        <time>2020-06-24T10:53:29.196Z</time>
      </trkpt>
      <trkpt lat="48.40307" lon="7.31901">
        <ele>605</ele>
        <time>2020-06-24T10:53:30.195Z</time>
      </trkpt>
      <trkpt lat="48.40307" lon="7.31904">
        <ele>605</ele>
        <time>2020-06-24T10:53:31.196Z</time>
      </trkpt>
      <trkpt lat="48.40308" lon="7.31905">
        <ele>605</ele>
        <time>2020-06-24T10:53:32.196Z</time>
      </trkpt>
      <trkpt lat="48.40308" lon="7.31907">
        <ele>605</ele>
        <time>2020-06-24T10:53:33.196Z</time>
      </trkpt>
      <trkpt lat="48.40308" lon="7.31909">
        <ele>606</ele>
        <time>2020-06-24T10:53:34.196Z</time>
      </trkpt>
      <trkpt lat="48.40309" lon="7.31911">
        <ele>606</ele>
        <time>2020-06-24T10:53:35.195Z</time>
      </trkpt>
      <trkpt lat="48.40309" lon="7.31913">
        <ele>606</ele>
        <time>2020-06-24T10:53:36.196Z</time>
      </trkpt>
      <trkpt lat="48.40309" lon="7.31915">
        <ele>607</ele>
        <time>2020-06-24T10:53:37.196Z</time>
      </trkpt>
      <trkpt lat="48.40309" lon="7.31917">
        <ele>607</ele>
        <time>2020-06-24T10:53:38.196Z</time>
      </trkpt>
      <trkpt lat="48.4031" lon="7.31919">
        <ele>608</ele>
        <time>2020-06-24T10:53:39.196Z</time>
      </trkpt>
      <trkpt lat="48.4031" lon="7.31921">
        <ele>608</ele>
        <time>2020-06-24T10:53:40.196Z</time>
      </trkpt>
      <trkpt lat="48.40311" lon="7.31923">
        <ele>609</ele>
        <time>2020-06-24T10:53:41.196Z</time>
      </trkpt>
      <trkpt lat="48.40312" lon="7.31926">
        <ele>610</ele>
        <time>2020-06-24T10:53:42.196Z</time>
      </trkpt>
      <trkpt lat="48.40314" lon="7.31928">
        <ele>610</ele>
        <time>2020-06-24T10:53:43.196Z</time>
      </trkpt>
      <trkpt lat="48.40315" lon="7.3193">
        <ele>611</ele>
        <time>2020-06-24T10:53:44.195Z</time>
      </trkpt>
      <trkpt lat="48.40316" lon="7.31931">
        <ele>611</ele>
        <time>2020-06-24T10:53:45.196Z</time>
      </trkpt>
      <trkpt lat="48.40317" lon="7.31933">
        <ele>612</ele>
        <time>2020-06-24T10:53:46.196Z</time>
      </trkpt>
      <trkpt lat="48.40317" lon="7.31936">
        <ele>612</ele>
        <time>2020-06-24T10:53:47.196Z</time>
      </trkpt>
      <trkpt lat="48.40318" lon="7.31938">
        <ele>613</ele>
        <time>2020-06-24T10:53:48.195Z</time>
      </trkpt>
      <trkpt lat="48.40318" lon="7.3194">
        <ele>613</ele>
        <time>2020-06-24T10:53:49.196Z</time>
      </trkpt>
      <trkpt lat="48.40318" lon="7.31942">
        <ele>613</ele>
        <time>2020-06-24T10:53:50.195Z</time>
      </trkpt>
      <trkpt lat="48.40317" lon="7.31945">
        <ele>613</ele>
        <time>2020-06-24T10:53:51.195Z</time>
      </trkpt>
      <trkpt lat="48.40317" lon="7.31947">
        <ele>612</ele>
        <time>2020-06-24T10:53:52.196Z</time>
      </trkpt>
      <trkpt lat="48.40317" lon="7.3195">
        <ele>611</ele>
        <time>2020-06-24T10:53:53.196Z</time>
      </trkpt>
      <trkpt lat="48.40317" lon="7.31952">
        <ele>611</ele>
        <time>2020-06-24T10:53:54.195Z</time>
      </trkpt>
      <trkpt lat="48.40317" lon="7.31955">
        <ele>610</ele>
        <time>2020-06-24T10:53:55.196Z</time>
      </trkpt>
      <trkpt lat="48.40317" lon="7.31957">
        <ele>610</ele>
        <time>2020-06-24T10:53:56.196Z</time>
      </trkpt>
      <trkpt lat="48.40317" lon="7.3196">
        <ele>610</ele>
        <time>2020-06-24T10:53:57.196Z</time>
      </trkpt>
      <trkpt lat="48.40317" lon="7.31962">
        <ele>610</ele>
        <time>2020-06-24T10:53:58.195Z</time>
      </trkpt>
      <trkpt lat="48.40318" lon="7.31965">
        <ele>610</ele>
        <time>2020-06-24T10:53:59.195Z</time>
      </trkpt>
      <trkpt lat="48.40318" lon="7.31967">
        <ele>610</ele>
        <time>2020-06-24T10:54:00.196Z</time>
      </trkpt>
      <trkpt lat="48.40318" lon="7.31969">
        <ele>610</ele>
        <time>2020-06-24T10:54:01.195Z</time>
      </trkpt>
      <trkpt lat="48.40318" lon="7.31972">
        <ele>610</ele>
        <time>2020-06-24T10:54:02.196Z</time>
      </trkpt>
      <trkpt lat="48.40318" lon="7.31975">
        <ele>610</ele>
        <time>2020-06-24T10:54:03.196Z</time>
      </trkpt>
      <trkpt lat="48.40317" lon="7.31978">
        <ele>610</ele>
        <time>2020-06-24T10:54:04.196Z</time>
      </trkpt>
      <trkpt lat="48.40318" lon="7.3198">
        <ele>610</ele>
        <time>2020-06-24T10:54:05.196Z</time>
      </trkpt>
      <trkpt lat="48.40318" lon="7.31982">
        <ele>610</ele>
        <time>2020-06-24T10:54:06.195Z</time>
      </trkpt>
      <trkpt lat="48.40318" lon="7.31984">
        <ele>611</ele>
        <time>2020-06-24T10:54:07.196Z</time>
      </trkpt>
      <trkpt lat="48.40318" lon="7.31987">
        <ele>611</ele>
        <time>2020-06-24T10:54:08.196Z</time>
      </trkpt>
      <trkpt lat="48.40319" lon="7.31989">
        <ele>611</ele>
        <time>2020-06-24T10:54:09.195Z</time>
      </trkpt>
      <trkpt lat="48.40318" lon="7.3199">
        <ele>611</ele>
        <time>2020-06-24T10:54:10.196Z</time>
      </trkpt>
      <trkpt lat="48.40317" lon="7.31992">
        <ele>612</ele>
        <time>2020-06-24T10:54:11.196Z</time>
      </trkpt>
      <trkpt lat="48.40316" lon="7.31995">
        <ele>612</ele>
        <time>2020-06-24T10:54:12.196Z</time>
      </trkpt>
      <trkpt lat="48.40315" lon="7.31998">
        <ele>611</ele>
        <time>2020-06-24T10:54:13.196Z</time>
      </trkpt>
      <trkpt lat="48.40315" lon="7.32">
        <ele>611</ele>
        <time>2020-06-24T10:54:14.196Z</time>
      </trkpt>
      <trkpt lat="48.40314" lon="7.32002">
        <ele>610</ele>
        <time>2020-06-24T10:54:15.195Z</time>
      </trkpt>
      <trkpt lat="48.40314" lon="7.32004">
        <ele>610</ele>
        <time>2020-06-24T10:54:16.196Z</time>
      </trkpt>
      <trkpt lat="48.40313" lon="7.32005">
        <ele>610</ele>
        <time>2020-06-24T10:54:17.196Z</time>
      </trkpt>
      <trkpt lat="48.40312" lon="7.32006">
        <ele>610</ele>
        <time>2020-06-24T10:54:18.195Z</time>
      </trkpt>
      <trkpt lat="48.40312" lon="7.32006">
        <ele>609</ele>
        <time>2020-06-24T10:54:19.196Z</time>
      </trkpt>
      <trkpt lat="48.40312" lon="7.32006">
        <ele>609</ele>
        <time>2020-06-24T10:54:20.195Z</time>
      </trkpt>
      <trkpt lat="48.40312" lon="7.32005">
        <ele>609</ele>
        <time>2020-06-24T10:54:21.196Z</time>
      </trkpt>
      <trkpt lat="48.40312" lon="7.32004">
        <ele>609</ele>
        <time>2020-06-24T10:54:22.196Z</time>
      </trkpt>
      <trkpt lat="48.40312" lon="7.32004">
        <ele>609</ele>
        <time>2020-06-24T10:54:23.196Z</time>
      </trkpt>
      <trkpt lat="48.40312" lon="7.32004">
        <ele>609</ele>
        <time>2020-06-24T10:54:24.195Z</time>
      </trkpt>
      <trkpt lat="48.40311" lon="7.32004">
        <ele>609</ele>
        <time>2020-06-24T10:54:25.196Z</time>
      </trkpt>
      <trkpt lat="48.40307" lon="7.31998">
        <ele>602</ele>
        <time>2020-06-24T10:54:26.195Z</time>
      </trkpt>
      <trkpt lat="48.40306" lon="7.31997">
        <ele>601</ele>
        <time>2020-06-24T10:54:27.195Z</time>
      </trkpt>
      <trkpt lat="48.40305" lon="7.31996">
        <ele>601</ele>
        <time>2020-06-24T10:54:28.196Z</time>
      </trkpt>
      <trkpt lat="48.40303" lon="7.31992">
        <ele>601</ele>
        <time>2020-06-24T10:54:29.196Z</time>
      </trkpt>
      <trkpt lat="48.40303" lon="7.31992">
        <ele>601</ele>
        <time>2020-06-24T10:54:30.195Z</time>
      </trkpt>
      <trkpt lat="48.40302" lon="7.31991">
        <ele>602</ele>
        <time>2020-06-24T10:54:31.196Z</time>
      </trkpt>
      <trkpt lat="48.40303" lon="7.31992">
        <ele>602</ele>
        <time>2020-06-24T10:54:32.196Z</time>
      </trkpt>
      <trkpt lat="48.40303" lon="7.31993">
        <ele>602</ele>
        <time>2020-06-24T10:54:33.196Z</time>
      </trkpt>
      <trkpt lat="48.40303" lon="7.31994">
        <ele>603</ele>
        <time>2020-06-24T10:54:34.196Z</time>
      </trkpt>
      <trkpt lat="48.40302" lon="7.31996">
        <ele>603</ele>
        <time>2020-06-24T10:54:35.196Z</time>
      </trkpt>
      <trkpt lat="48.40302" lon="7.31998">
        <ele>604</ele>
        <time>2020-06-24T10:54:36.196Z</time>
      </trkpt>
      <trkpt lat="48.40302" lon="7.32">
        <ele>604</ele>
        <time>2020-06-24T10:54:37.196Z</time>
      </trkpt>
      <trkpt lat="48.40302" lon="7.32001">
        <ele>604</ele>
        <time>2020-06-24T10:54:38.196Z</time>
      </trkpt>
      <trkpt lat="48.40302" lon="7.32003">
        <ele>604</ele>
        <time>2020-06-24T10:54:39.196Z</time>
      </trkpt>
      <trkpt lat="48.40302" lon="7.32005">
        <ele>603</ele>
        <time>2020-06-24T10:54:40.196Z</time>
      </trkpt>
      <trkpt lat="48.40302" lon="7.32006">
        <ele>603</ele>
        <time>2020-06-24T10:54:41.196Z</time>
      </trkpt>
      <trkpt lat="48.40302" lon="7.32008">
        <ele>603</ele>
        <time>2020-06-24T10:54:42.196Z</time>
      </trkpt>
      <trkpt lat="48.40302" lon="7.3201">
        <ele>602</ele>
        <time>2020-06-24T10:54:43.195Z</time>
      </trkpt>
      <trkpt lat="48.40302" lon="7.32011">
        <ele>601</ele>
        <time>2020-06-24T10:54:44.195Z</time>
      </trkpt>
      <trkpt lat="48.40302" lon="7.32013">
        <ele>601</ele>
        <time>2020-06-24T10:54:45.196Z</time>
      </trkpt>
      <trkpt lat="48.40302" lon="7.32014">
        <ele>600</ele>
        <time>2020-06-24T10:54:46.196Z</time>
      </trkpt>
      <trkpt lat="48.40302" lon="7.32014">
        <ele>600</ele>
        <time>2020-06-24T10:54:47.196Z</time>
      </trkpt>
      <trkpt lat="48.40303" lon="7.32012">
        <ele>600</ele>
        <time>2020-06-24T10:54:48.195Z</time>
      </trkpt>
      <trkpt lat="48.40308" lon="7.32022">
        <ele>599</ele>
        <time>2020-06-24T10:54:49.196Z</time>
      </trkpt>
      <trkpt lat="48.40308" lon="7.32024">
        <ele>599</ele>
        <time>2020-06-24T10:54:50.196Z</time>
      </trkpt>
      <trkpt lat="48.40308" lon="7.32026">
        <ele>599</ele>
        <time>2020-06-24T10:54:51.197Z</time>
      </trkpt>
      <trkpt lat="48.40308" lon="7.32027">
        <ele>599</ele>
        <time>2020-06-24T10:54:52.197Z</time>
      </trkpt>
      <trkpt lat="48.40308" lon="7.32029">
        <ele>599</ele>
        <time>2020-06-24T10:54:53.197Z</time>
      </trkpt>
      <trkpt lat="48.40308" lon="7.3203">
        <ele>599</ele>
        <time>2020-06-24T10:54:54.196Z</time>
      </trkpt>
      <trkpt lat="48.40309" lon="7.32032">
        <ele>599</ele>
        <time>2020-06-24T10:54:55.197Z</time>
      </trkpt>
      <trkpt lat="48.4031" lon="7.32034">
        <ele>599</ele>
        <time>2020-06-24T10:54:56.197Z</time>
      </trkpt>
      <trkpt lat="48.40311" lon="7.32035">
        <ele>599</ele>
        <time>2020-06-24T10:54:57.197Z</time>
      </trkpt>
      <trkpt lat="48.40311" lon="7.32038">
        <ele>599</ele>
        <time>2020-06-24T10:54:58.196Z</time>
      </trkpt>
      <trkpt lat="48.40311" lon="7.3204">
        <ele>600</ele>
        <time>2020-06-24T10:54:59.196Z</time>
      </trkpt>
      <trkpt lat="48.40311" lon="7.32043">
        <ele>600</ele>
        <time>2020-06-24T10:55:00.196Z</time>
      </trkpt>
      <trkpt lat="48.40311" lon="7.32045">
        <ele>601</ele>
        <time>2020-06-24T10:55:01.197Z</time>
      </trkpt>
      <trkpt lat="48.40311" lon="7.32047">
        <ele>601</ele>
        <time>2020-06-24T10:55:02.197Z</time>
      </trkpt>
      <trkpt lat="48.40312" lon="7.32049">
        <ele>601</ele>
        <time>2020-06-24T10:55:03.197Z</time>
      </trkpt>
      <trkpt lat="48.40312" lon="7.32051">
        <ele>601</ele>
        <time>2020-06-24T10:55:04.197Z</time>
      </trkpt>
      <trkpt lat="48.40312" lon="7.32053">
        <ele>602</ele>
        <time>2020-06-24T10:55:05.196Z</time>
      </trkpt>
      <trkpt lat="48.40312" lon="7.32056">
        <ele>602</ele>
        <time>2020-06-24T10:55:06.196Z</time>
      </trkpt>
      <trkpt lat="48.40312" lon="7.32058">
        <ele>602</ele>
        <time>2020-06-24T10:55:07.196Z</time>
      </trkpt>
      <trkpt lat="48.40311" lon="7.32061">
        <ele>602</ele>
        <time>2020-06-24T10:55:08.197Z</time>
      </trkpt>
      <trkpt lat="48.40312" lon="7.32065">
        <ele>602</ele>
        <time>2020-06-24T10:55:09.196Z</time>
      </trkpt>
      <trkpt lat="48.40311" lon="7.32068">
        <ele>602</ele>
        <time>2020-06-24T10:55:10.196Z</time>
      </trkpt>
      <trkpt lat="48.40311" lon="7.3207">
        <ele>602</ele>
        <time>2020-06-24T10:55:11.196Z</time>
      </trkpt>
      <trkpt lat="48.40311" lon="7.32072">
        <ele>602</ele>
        <time>2020-06-24T10:55:12.197Z</time>
      </trkpt>
      <trkpt lat="48.40311" lon="7.32074">
        <ele>602</ele>
        <time>2020-06-24T10:55:13.197Z</time>
      </trkpt>
      <trkpt lat="48.40311" lon="7.32075">
        <ele>602</ele>
        <time>2020-06-24T10:55:14.196Z</time>
      </trkpt>
      <trkpt lat="48.40311" lon="7.32076">
        <ele>602</ele>
        <time>2020-06-24T10:55:15.197Z</time>
      </trkpt>
      <trkpt lat="48.40311" lon="7.32076">
        <ele>602</ele>
        <time>2020-06-24T10:55:16.197Z</time>
      </trkpt>
      <trkpt lat="48.40312" lon="7.32077">
        <ele>603</ele>
        <time>2020-06-24T10:55:17.196Z</time>
      </trkpt>
      <trkpt lat="48.40311" lon="7.32079">
        <ele>603</ele>
        <time>2020-06-24T10:55:18.196Z</time>
      </trkpt>
      <trkpt lat="48.40311" lon="7.3208">
        <ele>603</ele>
        <time>2020-06-24T10:55:19.196Z</time>
      </trkpt>
      <trkpt lat="48.40311" lon="7.32082">
        <ele>603</ele>
        <time>2020-06-24T10:55:20.197Z</time>
      </trkpt>
      <trkpt lat="48.40311" lon="7.32083">
        <ele>602</ele>
        <time>2020-06-24T10:55:21.197Z</time>
      </trkpt>
      <trkpt lat="48.40311" lon="7.32085">
        <ele>601</ele>
        <time>2020-06-24T10:55:22.197Z</time>
      </trkpt>
      <trkpt lat="48.4031" lon="7.32087">
        <ele>601</ele>
        <time>2020-06-24T10:55:23.196Z</time>
      </trkpt>
      <trkpt lat="48.40309" lon="7.3209">
        <ele>600</ele>
        <time>2020-06-24T10:55:24.196Z</time>
      </trkpt>
      <trkpt lat="48.40308" lon="7.32092">
        <ele>600</ele>
        <time>2020-06-24T10:55:25.197Z</time>
      </trkpt>
      <trkpt lat="48.40308" lon="7.32094">
        <ele>600</ele>
        <time>2020-06-24T10:55:26.197Z</time>
      </trkpt>
      <trkpt lat="48.40307" lon="7.32095">
        <ele>600</ele>
        <time>2020-06-24T10:55:27.197Z</time>
      </trkpt>
      <trkpt lat="48.40307" lon="7.32097">
        <ele>599</ele>
        <time>2020-06-24T10:55:28.197Z</time>
      </trkpt>
      <trkpt lat="48.40306" lon="7.32098">
        <ele>599</ele>
        <time>2020-06-24T10:55:29.197Z</time>
      </trkpt>
      <trkpt lat="48.40305" lon="7.321">
        <ele>598</ele>
        <time>2020-06-24T10:55:30.196Z</time>
      </trkpt>
      <trkpt lat="48.40305" lon="7.32102">
        <ele>598</ele>
        <time>2020-06-24T10:55:31.197Z</time>
      </trkpt>
      <trkpt lat="48.40304" lon="7.32104">
        <ele>597</ele>
        <time>2020-06-24T10:55:32.197Z</time>
      </trkpt>
      <trkpt lat="48.40303" lon="7.32106">
        <ele>597</ele>
        <time>2020-06-24T10:55:33.197Z</time>
      </trkpt>
      <trkpt lat="48.40302" lon="7.32108">
        <ele>596</ele>
        <time>2020-06-24T10:55:34.197Z</time>
      </trkpt>
      <trkpt lat="48.40302" lon="7.3211">
        <ele>596</ele>
        <time>2020-06-24T10:55:35.197Z</time>
      </trkpt>
      <trkpt lat="48.40301" lon="7.32112">
        <ele>596</ele>
        <time>2020-06-24T10:55:36.196Z</time>
      </trkpt>
      <trkpt lat="48.40301" lon="7.32113">
        <ele>595</ele>
        <time>2020-06-24T10:55:37.196Z</time>
      </trkpt>
      <trkpt lat="48.403" lon="7.32115">
        <ele>594</ele>
        <time>2020-06-24T10:55:38.196Z</time>
      </trkpt>
      <trkpt lat="48.40299" lon="7.32117">
        <ele>593</ele>
        <time>2020-06-24T10:55:39.197Z</time>
      </trkpt>
      <trkpt lat="48.40299" lon="7.32119">
        <ele>592</ele>
        <time>2020-06-24T10:55:40.197Z</time>
      </trkpt>
      <trkpt lat="48.40298" lon="7.32121">
        <ele>591</ele>
        <time>2020-06-24T10:55:41.197Z</time>
      </trkpt>
      <trkpt lat="48.40297" lon="7.32122">
        <ele>591</ele>
        <time>2020-06-24T10:55:42.197Z</time>
      </trkpt>
      <trkpt lat="48.40297" lon="7.32124">
        <ele>590</ele>
        <time>2020-06-24T10:55:43.197Z</time>
      </trkpt>
      <trkpt lat="48.40296" lon="7.32126">
        <ele>590</ele>
        <time>2020-06-24T10:55:44.196Z</time>
      </trkpt>
      <trkpt lat="48.40296" lon="7.32128">
        <ele>589</ele>
        <time>2020-06-24T10:55:45.196Z</time>
      </trkpt>
      <trkpt lat="48.40295" lon="7.32129">
        <ele>589</ele>
        <time>2020-06-24T10:55:46.197Z</time>
      </trkpt>
      <trkpt lat="48.40295" lon="7.32131">
        <ele>589</ele>
        <time>2020-06-24T10:55:47.197Z</time>
      </trkpt>
      <trkpt lat="48.40294" lon="7.32133">
        <ele>589</ele>
        <time>2020-06-24T10:55:48.197Z</time>
      </trkpt>
      <trkpt lat="48.40294" lon="7.32135">
        <ele>589</ele>
        <time>2020-06-24T10:55:49.197Z</time>
      </trkpt>
      <trkpt lat="48.40293" lon="7.32137">
        <ele>589</ele>
        <time>2020-06-24T10:55:50.197Z</time>
      </trkpt>
      <trkpt lat="48.40293" lon="7.32139">
        <ele>588</ele>
        <time>2020-06-24T10:55:51.197Z</time>
      </trkpt>
      <trkpt lat="48.40293" lon="7.32139">
        <ele>588</ele>
        <time>2020-06-24T10:55:52.197Z</time>
      </trkpt>
      <trkpt lat="48.40293" lon="7.32139">
        <ele>588</ele>
        <time>2020-06-24T10:55:53.196Z</time>
      </trkpt>
      <trkpt lat="48.40293" lon="7.32142">
        <ele>588</ele>
        <time>2020-06-24T10:55:54.197Z</time>
      </trkpt>
      <trkpt lat="48.40293" lon="7.32145">
        <ele>588</ele>
        <time>2020-06-24T10:55:55.198Z</time>
      </trkpt>
      <trkpt lat="48.40292" lon="7.32147">
        <ele>588</ele>
        <time>2020-06-24T10:55:56.198Z</time>
      </trkpt>
      <trkpt lat="48.40292" lon="7.32149">
        <ele>588</ele>
        <time>2020-06-24T10:55:57.198Z</time>
      </trkpt>
      <trkpt lat="48.40291" lon="7.32152">
        <ele>588</ele>
        <time>2020-06-24T10:55:58.198Z</time>
      </trkpt>
      <trkpt lat="48.40291" lon="7.32154">
        <ele>588</ele>
        <time>2020-06-24T10:55:59.197Z</time>
      </trkpt>
      <trkpt lat="48.40291" lon="7.32156">
        <ele>588</ele>
        <time>2020-06-24T10:56:00.198Z</time>
      </trkpt>
      <trkpt lat="48.40292" lon="7.32159">
        <ele>588</ele>
        <time>2020-06-24T10:56:01.197Z</time>
      </trkpt>
      <trkpt lat="48.40292" lon="7.32162">
        <ele>588</ele>
        <time>2020-06-24T10:56:02.197Z</time>
      </trkpt>
      <trkpt lat="48.40293" lon="7.32165">
        <ele>588</ele>
        <time>2020-06-24T10:56:03.197Z</time>
      </trkpt>
      <trkpt lat="48.40293" lon="7.32167">
        <ele>588</ele>
        <time>2020-06-24T10:56:04.197Z</time>
      </trkpt>
      <trkpt lat="48.40293" lon="7.32169">
        <ele>588</ele>
        <time>2020-06-24T10:56:05.198Z</time>
      </trkpt>
      <trkpt lat="48.40294" lon="7.32171">
        <ele>588</ele>
        <time>2020-06-24T10:56:06.198Z</time>
      </trkpt>
      <trkpt lat="48.40294" lon="7.32173">
        <ele>589</ele>
        <time>2020-06-24T10:56:07.198Z</time>
      </trkpt>
      <trkpt lat="48.40294" lon="7.32175">
        <ele>590</ele>
        <time>2020-06-24T10:56:08.198Z</time>
      </trkpt>
      <trkpt lat="48.40295" lon="7.32176">
        <ele>591</ele>
        <time>2020-06-24T10:56:09.197Z</time>
      </trkpt>
      <trkpt lat="48.40294" lon="7.32178">
        <ele>591</ele>
        <time>2020-06-24T10:56:10.198Z</time>
      </trkpt>
      <trkpt lat="48.40294" lon="7.3218">
        <ele>592</ele>
        <time>2020-06-24T10:56:11.197Z</time>
      </trkpt>
      <trkpt lat="48.40293" lon="7.32182">
        <ele>592</ele>
        <time>2020-06-24T10:56:12.198Z</time>
      </trkpt>
      <trkpt lat="48.40293" lon="7.32183">
        <ele>592</ele>
        <time>2020-06-24T10:56:13.197Z</time>
      </trkpt>
      <trkpt lat="48.40293" lon="7.32185">
        <ele>591</ele>
        <time>2020-06-24T10:56:14.197Z</time>
      </trkpt>
      <trkpt lat="48.40294" lon="7.32187">
        <ele>590</ele>
        <time>2020-06-24T10:56:15.198Z</time>
      </trkpt>
      <trkpt lat="48.40294" lon="7.32189">
        <ele>589</ele>
        <time>2020-06-24T10:56:16.198Z</time>
      </trkpt>
      <trkpt lat="48.40294" lon="7.32191">
        <ele>589</ele>
        <time>2020-06-24T10:56:17.197Z</time>
      </trkpt>
      <trkpt lat="48.40294" lon="7.32193">
        <ele>588</ele>
        <time>2020-06-24T10:56:18.197Z</time>
      </trkpt>
      <trkpt lat="48.40295" lon="7.32195">
        <ele>587</ele>
        <time>2020-06-24T10:56:19.197Z</time>
      </trkpt>
      <trkpt lat="48.40295" lon="7.32197">
        <ele>587</ele>
        <time>2020-06-24T10:56:20.197Z</time>
      </trkpt>
      <trkpt lat="48.40296" lon="7.32199">
        <ele>586</ele>
        <time>2020-06-24T10:56:21.197Z</time>
      </trkpt>
      <trkpt lat="48.40296" lon="7.322">
        <ele>585</ele>
        <time>2020-06-24T10:56:22.197Z</time>
      </trkpt>
      <trkpt lat="48.40297" lon="7.32202">
        <ele>585</ele>
        <time>2020-06-24T10:56:23.197Z</time>
      </trkpt>
      <trkpt lat="48.40297" lon="7.32203">
        <ele>585</ele>
        <time>2020-06-24T10:56:24.198Z</time>
      </trkpt>
      <trkpt lat="48.40297" lon="7.32204">
        <ele>586</ele>
        <time>2020-06-24T10:56:25.197Z</time>
      </trkpt>
      <trkpt lat="48.40296" lon="7.32205">
        <ele>586</ele>
        <time>2020-06-24T10:56:26.198Z</time>
      </trkpt>
      <trkpt lat="48.40296" lon="7.32206">
        <ele>586</ele>
        <time>2020-06-24T10:56:27.197Z</time>
      </trkpt>
      <trkpt lat="48.40296" lon="7.32207">
        <ele>587</ele>
        <time>2020-06-24T10:56:28.197Z</time>
      </trkpt>
      <trkpt lat="48.40296" lon="7.32208">
        <ele>587</ele>
        <time>2020-06-24T10:56:29.197Z</time>
      </trkpt>
      <trkpt lat="48.40296" lon="7.32209">
        <ele>587</ele>
        <time>2020-06-24T10:56:30.197Z</time>
      </trkpt>
      <trkpt lat="48.40296" lon="7.3221">
        <ele>587</ele>
        <time>2020-06-24T10:56:31.198Z</time>
      </trkpt>
      <trkpt lat="48.40296" lon="7.32209">
        <ele>588</ele>
        <time>2020-06-24T10:56:32.197Z</time>
      </trkpt>
      <trkpt lat="48.40296" lon="7.3221">
        <ele>588</ele>
        <time>2020-06-24T10:56:33.197Z</time>
      </trkpt>
      <trkpt lat="48.40296" lon="7.32211">
        <ele>588</ele>
        <time>2020-06-24T10:56:34.197Z</time>
      </trkpt>
      <trkpt lat="48.40297" lon="7.32212">
        <ele>588</ele>
        <time>2020-06-24T10:56:35.198Z</time>
      </trkpt>
      <trkpt lat="48.40297" lon="7.32214">
        <ele>588</ele>
        <time>2020-06-24T10:56:36.198Z</time>
      </trkpt>
      <trkpt lat="48.40298" lon="7.32215">
        <ele>588</ele>
        <time>2020-06-24T10:56:37.197Z</time>
      </trkpt>
      <trkpt lat="48.40299" lon="7.32217">
        <ele>588</ele>
        <time>2020-06-24T10:56:38.197Z</time>
      </trkpt>
      <trkpt lat="48.40299" lon="7.32218">
        <ele>589</ele>
        <time>2020-06-24T10:56:39.197Z</time>
      </trkpt>
      <trkpt lat="48.403" lon="7.32219">
        <ele>589</ele>
        <time>2020-06-24T10:56:40.197Z</time>
      </trkpt>
      <trkpt lat="48.40301" lon="7.32221">
        <ele>590</ele>
        <time>2020-06-24T10:56:41.197Z</time>
      </trkpt>
      <trkpt lat="48.40301" lon="7.32222">
        <ele>590</ele>
        <time>2020-06-24T10:56:42.197Z</time>
      </trkpt>
      <trkpt lat="48.40302" lon="7.32223">
        <ele>590</ele>
        <time>2020-06-24T10:56:43.198Z</time>
      </trkpt>
      <trkpt lat="48.40303" lon="7.32224">
        <ele>590</ele>
        <time>2020-06-24T10:56:44.197Z</time>
      </trkpt>
      <trkpt lat="48.40305" lon="7.32225">
        <ele>590</ele>
        <time>2020-06-24T10:56:45.198Z</time>
      </trkpt>
      <trkpt lat="48.40306" lon="7.32226">
        <ele>590</ele>
        <time>2020-06-24T10:56:46.197Z</time>
      </trkpt>
      <trkpt lat="48.40307" lon="7.32227">
        <ele>590</ele>
        <time>2020-06-24T10:56:47.197Z</time>
      </trkpt>
      <trkpt lat="48.40308" lon="7.32229">
        <ele>590</ele>
        <time>2020-06-24T10:56:48.197Z</time>
      </trkpt>
      <trkpt lat="48.4031" lon="7.3223">
        <ele>591</ele>
        <time>2020-06-24T10:56:49.197Z</time>
      </trkpt>
      <trkpt lat="48.4031" lon="7.32232">
        <ele>591</ele>
        <time>2020-06-24T10:56:50.198Z</time>
      </trkpt>
      <trkpt lat="48.40311" lon="7.32233">
        <ele>591</ele>
        <time>2020-06-24T10:56:51.197Z</time>
      </trkpt>
      <trkpt lat="48.40312" lon="7.32235">
        <ele>591</ele>
        <time>2020-06-24T10:56:52.197Z</time>
      </trkpt>
      <trkpt lat="48.40313" lon="7.32236">
        <ele>591</ele>
        <time>2020-06-24T10:56:53.197Z</time>
      </trkpt>
      <trkpt lat="48.40314" lon="7.32238">
        <ele>591</ele>
        <time>2020-06-24T10:56:54.197Z</time>
      </trkpt>
      <trkpt lat="48.40315" lon="7.32239">
        <ele>591</ele>
        <time>2020-06-24T10:56:55.197Z</time>
      </trkpt>
      <trkpt lat="48.40316" lon="7.32241">
        <ele>590</ele>
        <time>2020-06-24T10:56:56.198Z</time>
      </trkpt>
      <trkpt lat="48.40317" lon="7.32242">
        <ele>590</ele>
        <time>2020-06-24T10:56:57.197Z</time>
      </trkpt>
      <trkpt lat="48.40318" lon="7.32244">
        <ele>590</ele>
        <time>2020-06-24T10:56:58.197Z</time>
      </trkpt>
      <trkpt lat="48.40319" lon="7.32245">
        <ele>590</ele>
        <time>2020-06-24T10:56:59.197Z</time>
      </trkpt>
      <trkpt lat="48.4032" lon="7.32247">
        <ele>590</ele>
        <time>2020-06-24T10:57:00.197Z</time>
      </trkpt>
      <trkpt lat="48.40321" lon="7.32249">
        <ele>590</ele>
        <time>2020-06-24T10:57:01.198Z</time>
      </trkpt>
      <trkpt lat="48.40322" lon="7.3225">
        <ele>590</ele>
        <time>2020-06-24T10:57:02.197Z</time>
      </trkpt>
      <trkpt lat="48.40323" lon="7.32252">
        <ele>590</ele>
        <time>2020-06-24T10:57:03.197Z</time>
      </trkpt>
      <trkpt lat="48.40324" lon="7.32254">
        <ele>590</ele>
        <time>2020-06-24T10:57:04.197Z</time>
      </trkpt>
      <trkpt lat="48.40324" lon="7.32256">
        <ele>590</ele>
        <time>2020-06-24T10:57:05.198Z</time>
      </trkpt>
      <trkpt lat="48.40325" lon="7.32257">
        <ele>590</ele>
        <time>2020-06-24T10:57:06.198Z</time>
      </trkpt>
      <trkpt lat="48.40326" lon="7.32259">
        <ele>591</ele>
        <time>2020-06-24T10:57:07.197Z</time>
      </trkpt>
      <trkpt lat="48.40327" lon="7.3226">
        <ele>591</ele>
        <time>2020-06-24T10:57:08.198Z</time>
      </trkpt>
      <trkpt lat="48.40328" lon="7.32262">
        <ele>591</ele>
        <time>2020-06-24T10:57:09.197Z</time>
      </trkpt>
      <trkpt lat="48.40329" lon="7.32263">
        <ele>591</ele>
        <time>2020-06-24T10:57:10.197Z</time>
      </trkpt>
      <trkpt lat="48.4033" lon="7.32266">
        <ele>591</ele>
        <time>2020-06-24T10:57:11.197Z</time>
      </trkpt>
      <trkpt lat="48.40331" lon="7.32268">
        <ele>591</ele>
        <time>2020-06-24T10:57:12.197Z</time>
      </trkpt>
      <trkpt lat="48.40332" lon="7.32271">
        <ele>592</ele>
        <time>2020-06-24T10:57:13.197Z</time>
      </trkpt>
      <trkpt lat="48.40332" lon="7.32273">
        <ele>592</ele>
        <time>2020-06-24T10:57:14.198Z</time>
      </trkpt>
      <trkpt lat="48.40333" lon="7.32275">
        <ele>592</ele>
        <time>2020-06-24T10:57:15.197Z</time>
      </trkpt>
      <trkpt lat="48.40333" lon="7.32276">
        <ele>592</ele>
        <time>2020-06-24T10:57:16.197Z</time>
      </trkpt>
      <trkpt lat="48.40334" lon="7.32278">
        <ele>592</ele>
        <time>2020-06-24T10:57:17.197Z</time>
      </trkpt>
      <trkpt lat="48.40335" lon="7.3228">
        <ele>592</ele>
        <time>2020-06-24T10:57:18.197Z</time>
      </trkpt>
      <trkpt lat="48.40335" lon="7.32281">
        <ele>593</ele>
        <time>2020-06-24T10:57:19.198Z</time>
      </trkpt>
      <trkpt lat="48.40336" lon="7.32284">
        <ele>593</ele>
        <time>2020-06-24T10:57:20.197Z</time>
      </trkpt>
      <trkpt lat="48.40337" lon="7.32285">
        <ele>593</ele>
        <time>2020-06-24T10:57:21.197Z</time>
      </trkpt>
      <trkpt lat="48.40337" lon="7.32287">
        <ele>593</ele>
        <time>2020-06-24T10:57:22.197Z</time>
      </trkpt>
      <trkpt lat="48.40338" lon="7.32289">
        <ele>593</ele>
        <time>2020-06-24T10:57:23.198Z</time>
      </trkpt>
      <trkpt lat="48.40338" lon="7.3229">
        <ele>594</ele>
        <time>2020-06-24T10:57:24.198Z</time>
      </trkpt>
      <trkpt lat="48.40339" lon="7.32292">
        <ele>594</ele>
        <time>2020-06-24T10:57:25.198Z</time>
      </trkpt>
      <trkpt lat="48.4034" lon="7.32294">
        <ele>594</ele>
        <time>2020-06-24T10:57:26.197Z</time>
      </trkpt>
      <trkpt lat="48.4034" lon="7.32296">
        <ele>594</ele>
        <time>2020-06-24T10:57:27.198Z</time>
      </trkpt>
      <trkpt lat="48.4034" lon="7.32298">
        <ele>594</ele>
        <time>2020-06-24T10:57:28.198Z</time>
      </trkpt>
      <trkpt lat="48.4034" lon="7.32299">
        <ele>594</ele>
        <time>2020-06-24T10:57:29.197Z</time>
      </trkpt>
      <trkpt lat="48.40341" lon="7.32301">
        <ele>594</ele>
        <time>2020-06-24T10:57:30.197Z</time>
      </trkpt>
      <trkpt lat="48.40341" lon="7.32302">
        <ele>594</ele>
        <time>2020-06-24T10:57:31.197Z</time>
      </trkpt>
      <trkpt lat="48.40341" lon="7.32304">
        <ele>593</ele>
        <time>2020-06-24T10:57:32.197Z</time>
      </trkpt>
      <trkpt lat="48.40341" lon="7.32306">
        <ele>593</ele>
        <time>2020-06-24T10:57:33.198Z</time>
      </trkpt>
      <trkpt lat="48.40342" lon="7.32308">
        <ele>593</ele>
        <time>2020-06-24T10:57:34.197Z</time>
      </trkpt>
      <trkpt lat="48.40342" lon="7.3231">
        <ele>592</ele>
        <time>2020-06-24T10:57:35.197Z</time>
      </trkpt>
      <trkpt lat="48.40342" lon="7.32312">
        <ele>592</ele>
        <time>2020-06-24T10:57:36.198Z</time>
      </trkpt>
      <trkpt lat="48.40343" lon="7.32313">
        <ele>592</ele>
        <time>2020-06-24T10:57:37.197Z</time>
      </trkpt>
      <trkpt lat="48.40343" lon="7.32315">
        <ele>592</ele>
        <time>2020-06-24T10:57:38.197Z</time>
      </trkpt>
      <trkpt lat="48.40343" lon="7.32317">
        <ele>592</ele>
        <time>2020-06-24T10:57:39.197Z</time>
      </trkpt>
      <trkpt lat="48.40343" lon="7.32319">
        <ele>592</ele>
        <time>2020-06-24T10:57:40.198Z</time>
      </trkpt>
      <trkpt lat="48.40343" lon="7.32321">
        <ele>592</ele>
        <time>2020-06-24T10:57:41.197Z</time>
      </trkpt>
      <trkpt lat="48.40343" lon="7.32323">
        <ele>591</ele>
        <time>2020-06-24T10:57:42.197Z</time>
      </trkpt>
      <trkpt lat="48.40343" lon="7.32325">
        <ele>591</ele>
        <time>2020-06-24T10:57:43.198Z</time>
      </trkpt>
      <trkpt lat="48.40344" lon="7.32327">
        <ele>591</ele>
        <time>2020-06-24T10:57:44.198Z</time>
      </trkpt>
      <trkpt lat="48.40344" lon="7.32328">
        <ele>590</ele>
        <time>2020-06-24T10:57:45.197Z</time>
      </trkpt>
      <trkpt lat="48.40344" lon="7.3233">
        <ele>590</ele>
        <time>2020-06-24T10:57:46.197Z</time>
      </trkpt>
      <trkpt lat="48.40344" lon="7.32332">
        <ele>590</ele>
        <time>2020-06-24T10:57:47.198Z</time>
      </trkpt>
      <trkpt lat="48.40345" lon="7.32334">
        <ele>590</ele>
        <time>2020-06-24T10:57:48.198Z</time>
      </trkpt>
      <trkpt lat="48.40345" lon="7.32336">
        <ele>590</ele>
        <time>2020-06-24T10:57:49.198Z</time>
      </trkpt>
      <trkpt lat="48.40345" lon="7.32337">
        <ele>590</ele>
        <time>2020-06-24T10:57:50.197Z</time>
      </trkpt>
      <trkpt lat="48.40345" lon="7.32339">
        <ele>590</ele>
        <time>2020-06-24T10:57:51.197Z</time>
      </trkpt>
      <trkpt lat="48.40345" lon="7.3234">
        <ele>591</ele>
        <time>2020-06-24T10:57:52.198Z</time>
      </trkpt>
      <trkpt lat="48.40345" lon="7.32341">
        <ele>591</ele>
        <time>2020-06-24T10:57:53.198Z</time>
      </trkpt>
      <trkpt lat="48.40345" lon="7.32343">
        <ele>591</ele>
        <time>2020-06-24T10:57:54.198Z</time>
      </trkpt>
      <trkpt lat="48.40346" lon="7.32345">
        <ele>591</ele>
        <time>2020-06-24T10:57:55.197Z</time>
      </trkpt>
      <trkpt lat="48.40346" lon="7.32347">
        <ele>591</ele>
        <time>2020-06-24T10:57:56.197Z</time>
      </trkpt>
      <trkpt lat="48.40346" lon="7.32348">
        <ele>590</ele>
        <time>2020-06-24T10:57:57.197Z</time>
      </trkpt>
      <trkpt lat="48.40346" lon="7.3235">
        <ele>590</ele>
        <time>2020-06-24T10:57:58.198Z</time>
      </trkpt>
      <trkpt lat="48.40346" lon="7.32352">
        <ele>589</ele>
        <time>2020-06-24T10:57:59.198Z</time>
      </trkpt>
      <trkpt lat="48.40346" lon="7.32354">
        <ele>589</ele>
        <time>2020-06-24T10:58:00.197Z</time>
      </trkpt>
      <trkpt lat="48.40346" lon="7.32358">
        <ele>588</ele>
        <time>2020-06-24T10:58:01.197Z</time>
      </trkpt>
      <trkpt lat="48.40346" lon="7.3236">
        <ele>588</ele>
        <time>2020-06-24T10:58:02.198Z</time>
      </trkpt>
      <trkpt lat="48.40346" lon="7.32363">
        <ele>587</ele>
        <time>2020-06-24T10:58:03.198Z</time>
      </trkpt>
      <trkpt lat="48.40346" lon="7.32365">
        <ele>587</ele>
        <time>2020-06-24T10:58:04.198Z</time>
      </trkpt>
      <trkpt lat="48.40346" lon="7.32368">
        <ele>587</ele>
        <time>2020-06-24T10:58:05.198Z</time>
      </trkpt>
      <trkpt lat="48.40347" lon="7.32371">
        <ele>587</ele>
        <time>2020-06-24T10:58:06.197Z</time>
      </trkpt>
      <trkpt lat="48.40346" lon="7.32373">
        <ele>588</ele>
        <time>2020-06-24T10:58:07.197Z</time>
      </trkpt>
      <trkpt lat="48.40346" lon="7.32375">
        <ele>588</ele>
        <time>2020-06-24T10:58:08.198Z</time>
      </trkpt>
      <trkpt lat="48.40346" lon="7.32377">
        <ele>588</ele>
        <time>2020-06-24T10:58:09.197Z</time>
      </trkpt>
      <trkpt lat="48.40346" lon="7.32379">
        <ele>589</ele>
        <time>2020-06-24T10:58:10.197Z</time>
      </trkpt>
      <trkpt lat="48.40346" lon="7.32382">
        <ele>590</ele>
        <time>2020-06-24T10:58:11.198Z</time>
      </trkpt>
      <trkpt lat="48.40346" lon="7.32384">
        <ele>591</ele>
        <time>2020-06-24T10:58:12.198Z</time>
      </trkpt>
      <trkpt lat="48.40346" lon="7.32387">
        <ele>591</ele>
        <time>2020-06-24T10:58:13.198Z</time>
      </trkpt>
      <trkpt lat="48.40346" lon="7.32389">
        <ele>592</ele>
        <time>2020-06-24T10:58:14.198Z</time>
      </trkpt>
      <trkpt lat="48.40346" lon="7.32391">
        <ele>592</ele>
        <time>2020-06-24T10:58:15.198Z</time>
      </trkpt>
      <trkpt lat="48.40346" lon="7.32393">
        <ele>592</ele>
        <time>2020-06-24T10:58:16.198Z</time>
      </trkpt>
      <trkpt lat="48.40347" lon="7.32394">
        <ele>592</ele>
        <time>2020-06-24T10:58:17.198Z</time>
      </trkpt>
      <trkpt lat="48.40347" lon="7.32396">
        <ele>592</ele>
        <time>2020-06-24T10:58:18.197Z</time>
      </trkpt>
      <trkpt lat="48.40347" lon="7.32397">
        <ele>592</ele>
        <time>2020-06-24T10:58:19.197Z</time>
      </trkpt>
      <trkpt lat="48.40347" lon="7.32398">
        <ele>592</ele>
        <time>2020-06-24T10:58:20.198Z</time>
      </trkpt>
      <trkpt lat="48.40347" lon="7.324">
        <ele>592</ele>
        <time>2020-06-24T10:58:21.197Z</time>
      </trkpt>
      <trkpt lat="48.40347" lon="7.32402">
        <ele>593</ele>
        <time>2020-06-24T10:58:22.197Z</time>
      </trkpt>
      <trkpt lat="48.40347" lon="7.32405">
        <ele>593</ele>
        <time>2020-06-24T10:58:23.198Z</time>
      </trkpt>
      <trkpt lat="48.40346" lon="7.32407">
        <ele>593</ele>
        <time>2020-06-24T10:58:24.198Z</time>
      </trkpt>
      <trkpt lat="48.40346" lon="7.32409">
        <ele>593</ele>
        <time>2020-06-24T10:58:25.197Z</time>
      </trkpt>
      <trkpt lat="48.40345" lon="7.32411">
        <ele>593</ele>
        <time>2020-06-24T10:58:26.197Z</time>
      </trkpt>
      <trkpt lat="48.40345" lon="7.32414">
        <ele>592</ele>
        <time>2020-06-24T10:58:27.197Z</time>
      </trkpt>
      <trkpt lat="48.40345" lon="7.32415">
        <ele>592</ele>
        <time>2020-06-24T10:58:28.198Z</time>
      </trkpt>
      <trkpt lat="48.40345" lon="7.32418">
        <ele>592</ele>
        <time>2020-06-24T10:58:29.198Z</time>
      </trkpt>
      <trkpt lat="48.40344" lon="7.32419">
        <ele>592</ele>
        <time>2020-06-24T10:58:30.198Z</time>
      </trkpt>
      <trkpt lat="48.40344" lon="7.32422">
        <ele>592</ele>
        <time>2020-06-24T10:58:31.198Z</time>
      </trkpt>
      <trkpt lat="48.40343" lon="7.32424">
        <ele>593</ele>
        <time>2020-06-24T10:58:32.197Z</time>
      </trkpt>
      <trkpt lat="48.40343" lon="7.32426">
        <ele>593</ele>
        <time>2020-06-24T10:58:33.197Z</time>
      </trkpt>
      <trkpt lat="48.40343" lon="7.32428">
        <ele>593</ele>
        <time>2020-06-24T10:58:34.197Z</time>
      </trkpt>
      <trkpt lat="48.40343" lon="7.3243">
        <ele>594</ele>
        <time>2020-06-24T10:58:35.197Z</time>
      </trkpt>
      <trkpt lat="48.40343" lon="7.32432">
        <ele>594</ele>
        <time>2020-06-24T10:58:36.198Z</time>
      </trkpt>
      <trkpt lat="48.40343" lon="7.32434">
        <ele>594</ele>
        <time>2020-06-24T10:58:37.197Z</time>
      </trkpt>
      <trkpt lat="48.40342" lon="7.32437">
        <ele>594</ele>
        <time>2020-06-24T10:58:38.198Z</time>
      </trkpt>
      <trkpt lat="48.40342" lon="7.32439">
        <ele>593</ele>
        <time>2020-06-24T10:58:39.198Z</time>
      </trkpt>
      <trkpt lat="48.40342" lon="7.32441">
        <ele>593</ele>
        <time>2020-06-24T10:58:40.198Z</time>
      </trkpt>
      <trkpt lat="48.40342" lon="7.32443">
        <ele>592</ele>
        <time>2020-06-24T10:58:41.198Z</time>
      </trkpt>
      <trkpt lat="48.40341" lon="7.32445">
        <ele>592</ele>
        <time>2020-06-24T10:58:42.198Z</time>
      </trkpt>
      <trkpt lat="48.40341" lon="7.32448">
        <ele>592</ele>
        <time>2020-06-24T10:58:43.198Z</time>
      </trkpt>
      <trkpt lat="48.4034" lon="7.3245">
        <ele>591</ele>
        <time>2020-06-24T10:58:44.197Z</time>
      </trkpt>
      <trkpt lat="48.4034" lon="7.32452">
        <ele>590</ele>
        <time>2020-06-24T10:58:45.198Z</time>
      </trkpt>
      <trkpt lat="48.40339" lon="7.32454">
        <ele>590</ele>
        <time>2020-06-24T10:58:46.198Z</time>
      </trkpt>
      <trkpt lat="48.40339" lon="7.32456">
        <ele>590</ele>
        <time>2020-06-24T10:58:47.197Z</time>
      </trkpt>
      <trkpt lat="48.40339" lon="7.32458">
        <ele>590</ele>
        <time>2020-06-24T10:58:48.197Z</time>
      </trkpt>
      <trkpt lat="48.40338" lon="7.3246">
        <ele>591</ele>
        <time>2020-06-24T10:58:49.198Z</time>
      </trkpt>
      <trkpt lat="48.40338" lon="7.32462">
        <ele>591</ele>
        <time>2020-06-24T10:58:50.197Z</time>
      </trkpt>
      <trkpt lat="48.40338" lon="7.32465">
        <ele>591</ele>
        <time>2020-06-24T10:58:51.197Z</time>
      </trkpt>
      <trkpt lat="48.40338" lon="7.32467">
        <ele>592</ele>
        <time>2020-06-24T10:58:52.197Z</time>
      </trkpt>
      <trkpt lat="48.40338" lon="7.32469">
        <ele>593</ele>
        <time>2020-06-24T10:58:53.197Z</time>
      </trkpt>
      <trkpt lat="48.40338" lon="7.32471">
        <ele>594</ele>
        <time>2020-06-24T10:58:54.197Z</time>
      </trkpt>
      <trkpt lat="48.40338" lon="7.32474">
        <ele>594</ele>
        <time>2020-06-24T10:58:55.198Z</time>
      </trkpt>
      <trkpt lat="48.40337" lon="7.32477">
        <ele>594</ele>
        <time>2020-06-24T10:58:56.197Z</time>
      </trkpt>
      <trkpt lat="48.40337" lon="7.32479">
        <ele>594</ele>
        <time>2020-06-24T10:58:57.197Z</time>
      </trkpt>
      <trkpt lat="48.40337" lon="7.32481">
        <ele>594</ele>
        <time>2020-06-24T10:58:58.198Z</time>
      </trkpt>
      <trkpt lat="48.40337" lon="7.32484">
        <ele>595</ele>
        <time>2020-06-24T10:58:59.198Z</time>
      </trkpt>
      <trkpt lat="48.40336" lon="7.32486">
        <ele>595</ele>
        <time>2020-06-24T10:59:00.198Z</time>
      </trkpt>
      <trkpt lat="48.40337" lon="7.32488">
        <ele>595</ele>
        <time>2020-06-24T10:59:01.198Z</time>
      </trkpt>
      <trkpt lat="48.40337" lon="7.3249">
        <ele>595</ele>
        <time>2020-06-24T10:59:02.197Z</time>
      </trkpt>
      <trkpt lat="48.40337" lon="7.32493">
        <ele>595</ele>
        <time>2020-06-24T10:59:03.197Z</time>
      </trkpt>
      <trkpt lat="48.40337" lon="7.32495">
        <ele>595</ele>
        <time>2020-06-24T10:59:04.197Z</time>
      </trkpt>
      <trkpt lat="48.40337" lon="7.32497">
        <ele>595</ele>
        <time>2020-06-24T10:59:05.198Z</time>
      </trkpt>
      <trkpt lat="48.40337" lon="7.32498">
        <ele>595</ele>
        <time>2020-06-24T10:59:06.198Z</time>
      </trkpt>
      <trkpt lat="48.40337" lon="7.325">
        <ele>595</ele>
        <time>2020-06-24T10:59:07.197Z</time>
      </trkpt>
      <trkpt lat="48.40337" lon="7.32502">
        <ele>595</ele>
        <time>2020-06-24T10:59:08.197Z</time>
      </trkpt>
      <trkpt lat="48.40338" lon="7.32504">
        <ele>594</ele>
        <time>2020-06-24T10:59:09.198Z</time>
      </trkpt>
      <trkpt lat="48.40338" lon="7.32506">
        <ele>594</ele>
        <time>2020-06-24T10:59:10.198Z</time>
      </trkpt>
      <trkpt lat="48.40337" lon="7.32508">
        <ele>593</ele>
        <time>2020-06-24T10:59:11.197Z</time>
      </trkpt>
      <trkpt lat="48.40337" lon="7.3251">
        <ele>592</ele>
        <time>2020-06-24T10:59:12.198Z</time>
      </trkpt>
      <trkpt lat="48.40338" lon="7.32512">
        <ele>591</ele>
        <time>2020-06-24T10:59:13.197Z</time>
      </trkpt>
      <trkpt lat="48.40338" lon="7.32514">
        <ele>591</ele>
        <time>2020-06-24T10:59:14.198Z</time>
      </trkpt>
      <trkpt lat="48.40338" lon="7.32516">
        <ele>590</ele>
        <time>2020-06-24T10:59:15.197Z</time>
      </trkpt>
      <trkpt lat="48.40338" lon="7.32518">
        <ele>590</ele>
        <time>2020-06-24T10:59:16.197Z</time>
      </trkpt>
      <trkpt lat="48.40338" lon="7.32519">
        <ele>590</ele>
        <time>2020-06-24T10:59:17.198Z</time>
      </trkpt>
      <trkpt lat="48.40339" lon="7.32521">
        <ele>590</ele>
        <time>2020-06-24T10:59:18.198Z</time>
      </trkpt>
      <trkpt lat="48.40339" lon="7.32524">
        <ele>589</ele>
        <time>2020-06-24T10:59:19.198Z</time>
      </trkpt>
      <trkpt lat="48.40338" lon="7.32526">
        <ele>589</ele>
        <time>2020-06-24T10:59:20.198Z</time>
      </trkpt>
      <trkpt lat="48.40338" lon="7.32528">
        <ele>589</ele>
        <time>2020-06-24T10:59:21.198Z</time>
      </trkpt>
      <trkpt lat="48.40338" lon="7.3253">
        <ele>589</ele>
        <time>2020-06-24T10:59:22.198Z</time>
      </trkpt>
      <trkpt lat="48.40338" lon="7.32532">
        <ele>589</ele>
        <time>2020-06-24T10:59:23.198Z</time>
      </trkpt>
      <trkpt lat="48.40338" lon="7.32535">
        <ele>589</ele>
        <time>2020-06-24T10:59:24.198Z</time>
      </trkpt>
      <trkpt lat="48.40339" lon="7.32538">
        <ele>589</ele>
        <time>2020-06-24T10:59:25.197Z</time>
      </trkpt>
      <trkpt lat="48.40339" lon="7.32541">
        <ele>590</ele>
        <time>2020-06-24T10:59:26.198Z</time>
      </trkpt>
      <trkpt lat="48.4034" lon="7.32543">
        <ele>590</ele>
        <time>2020-06-24T10:59:27.198Z</time>
      </trkpt>
      <trkpt lat="48.4034" lon="7.32545">
        <ele>590</ele>
        <time>2020-06-24T10:59:28.197Z</time>
      </trkpt>
      <trkpt lat="48.4034" lon="7.32547">
        <ele>590</ele>
        <time>2020-06-24T10:59:29.198Z</time>
      </trkpt>
      <trkpt lat="48.4034" lon="7.32549">
        <ele>590</ele>
        <time>2020-06-24T10:59:30.198Z</time>
      </trkpt>
      <trkpt lat="48.4034" lon="7.3255">
        <ele>590</ele>
        <time>2020-06-24T10:59:31.198Z</time>
      </trkpt>
      <trkpt lat="48.4034" lon="7.32553">
        <ele>590</ele>
        <time>2020-06-24T10:59:32.197Z</time>
      </trkpt>
      <trkpt lat="48.4034" lon="7.32554">
        <ele>591</ele>
        <time>2020-06-24T10:59:33.198Z</time>
      </trkpt>
      <trkpt lat="48.4034" lon="7.32556">
        <ele>591</ele>
        <time>2020-06-24T10:59:34.198Z</time>
      </trkpt>
      <trkpt lat="48.4034" lon="7.32558">
        <ele>591</ele>
        <time>2020-06-24T10:59:35.198Z</time>
      </trkpt>
      <trkpt lat="48.4034" lon="7.3256">
        <ele>591</ele>
        <time>2020-06-24T10:59:36.198Z</time>
      </trkpt>
      <trkpt lat="48.4034" lon="7.32563">
        <ele>591</ele>
        <time>2020-06-24T10:59:37.198Z</time>
      </trkpt>
      <trkpt lat="48.4034" lon="7.32565">
        <ele>592</ele>
        <time>2020-06-24T10:59:38.197Z</time>
      </trkpt>
      <trkpt lat="48.40341" lon="7.32567">
        <ele>592</ele>
        <time>2020-06-24T10:59:39.197Z</time>
      </trkpt>
      <trkpt lat="48.40341" lon="7.32569">
        <ele>592</ele>
        <time>2020-06-24T10:59:40.197Z</time>
      </trkpt>
      <trkpt lat="48.40341" lon="7.32571">
        <ele>592</ele>
        <time>2020-06-24T10:59:41.198Z</time>
      </trkpt>
      <trkpt lat="48.40341" lon="7.32573">
        <ele>592</ele>
        <time>2020-06-24T10:59:42.197Z</time>
      </trkpt>
      <trkpt lat="48.40341" lon="7.32575">
        <ele>592</ele>
        <time>2020-06-24T10:59:43.198Z</time>
      </trkpt>
      <trkpt lat="48.40341" lon="7.32577">
        <ele>592</ele>
        <time>2020-06-24T10:59:44.198Z</time>
      </trkpt>
      <trkpt lat="48.40341" lon="7.32578">
        <ele>592</ele>
        <time>2020-06-24T10:59:45.198Z</time>
      </trkpt>
      <trkpt lat="48.40341" lon="7.3258">
        <ele>592</ele>
        <time>2020-06-24T10:59:46.198Z</time>
      </trkpt>
      <trkpt lat="48.40341" lon="7.32582">
        <ele>592</ele>
        <time>2020-06-24T10:59:47.198Z</time>
      </trkpt>
      <trkpt lat="48.4034" lon="7.32584">
        <ele>592</ele>
        <time>2020-06-24T10:59:48.197Z</time>
      </trkpt>
      <trkpt lat="48.4034" lon="7.32586">
        <ele>592</ele>
        <time>2020-06-24T10:59:49.197Z</time>
      </trkpt>
      <trkpt lat="48.4034" lon="7.32588">
        <ele>593</ele>
        <time>2020-06-24T10:59:50.198Z</time>
      </trkpt>
      <trkpt lat="48.40339" lon="7.32591">
        <ele>592</ele>
        <time>2020-06-24T10:59:51.198Z</time>
      </trkpt>
      <trkpt lat="48.40339" lon="7.32592">
        <ele>592</ele>
        <time>2020-06-24T10:59:52.197Z</time>
      </trkpt>
      <trkpt lat="48.40338" lon="7.32595">
        <ele>592</ele>
        <time>2020-06-24T10:59:53.198Z</time>
      </trkpt>
      <trkpt lat="48.40337" lon="7.32597">
        <ele>591</ele>
        <time>2020-06-24T10:59:54.198Z</time>
      </trkpt>
      <trkpt lat="48.40337" lon="7.32599">
        <ele>591</ele>
        <time>2020-06-24T10:59:55.198Z</time>
      </trkpt>
      <trkpt lat="48.40337" lon="7.326">
        <ele>591</ele>
        <time>2020-06-24T10:59:56.197Z</time>
      </trkpt>
      <trkpt lat="48.40337" lon="7.32603">
        <ele>591</ele>
        <time>2020-06-24T10:59:57.198Z</time>
      </trkpt>
      <trkpt lat="48.40337" lon="7.32605">
        <ele>591</ele>
        <time>2020-06-24T10:59:58.197Z</time>
      </trkpt>
      <trkpt lat="48.40336" lon="7.32607">
        <ele>591</ele>
        <time>2020-06-24T10:59:59.198Z</time>
      </trkpt>
      <trkpt lat="48.40336" lon="7.32609">
        <ele>591</ele>
        <time>2020-06-24T11:00:00.197Z</time>
      </trkpt>
      <trkpt lat="48.40336" lon="7.32611">
        <ele>591</ele>
        <time>2020-06-24T11:00:01.198Z</time>
      </trkpt>
      <trkpt lat="48.40336" lon="7.32614">
        <ele>591</ele>
        <time>2020-06-24T11:00:02.198Z</time>
      </trkpt>
      <trkpt lat="48.40335" lon="7.32616">
        <ele>591</ele>
        <time>2020-06-24T11:00:03.198Z</time>
      </trkpt>
      <trkpt lat="48.40335" lon="7.32618">
        <ele>591</ele>
        <time>2020-06-24T11:00:04.197Z</time>
      </trkpt>
      <trkpt lat="48.40334" lon="7.3262">
        <ele>591</ele>
        <time>2020-06-24T11:00:05.198Z</time>
      </trkpt>
      <trkpt lat="48.40334" lon="7.32622">
        <ele>590</ele>
        <time>2020-06-24T11:00:06.198Z</time>
      </trkpt>
      <trkpt lat="48.40333" lon="7.32625">
        <ele>590</ele>
        <time>2020-06-24T11:00:07.198Z</time>
      </trkpt>
      <trkpt lat="48.40333" lon="7.32627">
        <ele>589</ele>
        <time>2020-06-24T11:00:08.198Z</time>
      </trkpt>
      <trkpt lat="48.40333" lon="7.3263">
        <ele>589</ele>
        <time>2020-06-24T11:00:09.198Z</time>
      </trkpt>
      <trkpt lat="48.40333" lon="7.32632">
        <ele>589</ele>
        <time>2020-06-24T11:00:10.198Z</time>
      </trkpt>
      <trkpt lat="48.40332" lon="7.32634">
        <ele>588</ele>
        <time>2020-06-24T11:00:11.198Z</time>
      </trkpt>
      <trkpt lat="48.40332" lon="7.32637">
        <ele>588</ele>
        <time>2020-06-24T11:00:12.198Z</time>
      </trkpt>
      <trkpt lat="48.40332" lon="7.32639">
        <ele>588</ele>
        <time>2020-06-24T11:00:13.197Z</time>
      </trkpt>
      <trkpt lat="48.40331" lon="7.32641">
        <ele>587</ele>
        <time>2020-06-24T11:00:14.198Z</time>
      </trkpt>
      <trkpt lat="48.40331" lon="7.32643">
        <ele>586</ele>
        <time>2020-06-24T11:00:15.198Z</time>
      </trkpt>
      <trkpt lat="48.4033" lon="7.32645">
        <ele>585</ele>
        <time>2020-06-24T11:00:16.198Z</time>
      </trkpt>
      <trkpt lat="48.40329" lon="7.32648">
        <ele>585</ele>
        <time>2020-06-24T11:00:17.198Z</time>
      </trkpt>
      <trkpt lat="48.40329" lon="7.3265">
        <ele>584</ele>
        <time>2020-06-24T11:00:18.198Z</time>
      </trkpt>
      <trkpt lat="48.40329" lon="7.32653">
        <ele>584</ele>
        <time>2020-06-24T11:00:19.198Z</time>
      </trkpt>
      <trkpt lat="48.40329" lon="7.32655">
        <ele>584</ele>
        <time>2020-06-24T11:00:20.197Z</time>
      </trkpt>
      <trkpt lat="48.40328" lon="7.32657">
        <ele>584</ele>
        <time>2020-06-24T11:00:21.198Z</time>
      </trkpt>
      <trkpt lat="48.40328" lon="7.3266">
        <ele>584</ele>
        <time>2020-06-24T11:00:22.198Z</time>
      </trkpt>
      <trkpt lat="48.40328" lon="7.32662">
        <ele>584</ele>
        <time>2020-06-24T11:00:23.197Z</time>
      </trkpt>
      <trkpt lat="48.40328" lon="7.32664">
        <ele>584</ele>
        <time>2020-06-24T11:00:24.197Z</time>
      </trkpt>
      <trkpt lat="48.40328" lon="7.32666">
        <ele>584</ele>
        <time>2020-06-24T11:00:25.198Z</time>
      </trkpt>
      <trkpt lat="48.40328" lon="7.32668">
        <ele>585</ele>
        <time>2020-06-24T11:00:26.197Z</time>
      </trkpt>
      <trkpt lat="48.40329" lon="7.32671">
        <ele>585</ele>
        <time>2020-06-24T11:00:27.198Z</time>
      </trkpt>
      <trkpt lat="48.40329" lon="7.32673">
        <ele>585</ele>
        <time>2020-06-24T11:00:28.198Z</time>
      </trkpt>
      <trkpt lat="48.4033" lon="7.32675">
        <ele>586</ele>
        <time>2020-06-24T11:00:29.198Z</time>
      </trkpt>
      <trkpt lat="48.4033" lon="7.32677">
        <ele>586</ele>
        <time>2020-06-24T11:00:30.198Z</time>
      </trkpt>
      <trkpt lat="48.40331" lon="7.32679">
        <ele>586</ele>
        <time>2020-06-24T11:00:31.198Z</time>
      </trkpt>
      <trkpt lat="48.40331" lon="7.3268">
        <ele>586</ele>
        <time>2020-06-24T11:00:32.198Z</time>
      </trkpt>
      <trkpt lat="48.40332" lon="7.32682">
        <ele>586</ele>
        <time>2020-06-24T11:00:33.198Z</time>
      </trkpt>
      <trkpt lat="48.40332" lon="7.32684">
        <ele>587</ele>
        <time>2020-06-24T11:00:34.197Z</time>
      </trkpt>
      <trkpt lat="48.40333" lon="7.32686">
        <ele>587</ele>
        <time>2020-06-24T11:00:35.198Z</time>
      </trkpt>
      <trkpt lat="48.40333" lon="7.32688">
        <ele>587</ele>
        <time>2020-06-24T11:00:36.197Z</time>
      </trkpt>
      <trkpt lat="48.40333" lon="7.3269">
        <ele>587</ele>
        <time>2020-06-24T11:00:37.197Z</time>
      </trkpt>
      <trkpt lat="48.40334" lon="7.32692">
        <ele>587</ele>
        <time>2020-06-24T11:00:38.198Z</time>
      </trkpt>
      <trkpt lat="48.40334" lon="7.32695">
        <ele>587</ele>
        <time>2020-06-24T11:00:39.198Z</time>
      </trkpt>
      <trkpt lat="48.40334" lon="7.32697">
        <ele>586</ele>
        <time>2020-06-24T11:00:40.198Z</time>
      </trkpt>
      <trkpt lat="48.40335" lon="7.32699">
        <ele>586</ele>
        <time>2020-06-24T11:00:41.198Z</time>
      </trkpt>
      <trkpt lat="48.40335" lon="7.32701">
        <ele>586</ele>
        <time>2020-06-24T11:00:42.198Z</time>
      </trkpt>
      <trkpt lat="48.40336" lon="7.32703">
        <ele>585</ele>
        <time>2020-06-24T11:00:43.197Z</time>
      </trkpt>
      <trkpt lat="48.40336" lon="7.32705">
        <ele>585</ele>
        <time>2020-06-24T11:00:44.198Z</time>
      </trkpt>
      <trkpt lat="48.40337" lon="7.32707">
        <ele>584</ele>
        <time>2020-06-24T11:00:45.198Z</time>
      </trkpt>
      <trkpt lat="48.40338" lon="7.32708">
        <ele>583</ele>
        <time>2020-06-24T11:00:46.197Z</time>
      </trkpt>
      <trkpt lat="48.40338" lon="7.3271">
        <ele>583</ele>
        <time>2020-06-24T11:00:47.198Z</time>
      </trkpt>
      <trkpt lat="48.40339" lon="7.32711">
        <ele>582</ele>
        <time>2020-06-24T11:00:48.198Z</time>
      </trkpt>
      <trkpt lat="48.4034" lon="7.32712">
        <ele>582</ele>
        <time>2020-06-24T11:00:49.197Z</time>
      </trkpt>
      <trkpt lat="48.4034" lon="7.32714">
        <ele>581</ele>
        <time>2020-06-24T11:00:50.198Z</time>
      </trkpt>
      <trkpt lat="48.40341" lon="7.32716">
        <ele>581</ele>
        <time>2020-06-24T11:00:51.198Z</time>
      </trkpt>
      <trkpt lat="48.40342" lon="7.32717">
        <ele>581</ele>
        <time>2020-06-24T11:00:52.198Z</time>
      </trkpt>
      <trkpt lat="48.40342" lon="7.32719">
        <ele>581</ele>
        <time>2020-06-24T11:00:53.197Z</time>
      </trkpt>
      <trkpt lat="48.40343" lon="7.32721">
        <ele>582</ele>
        <time>2020-06-24T11:00:54.197Z</time>
      </trkpt>
      <trkpt lat="48.40343" lon="7.32723">
        <ele>581</ele>
        <time>2020-06-24T11:00:55.198Z</time>
      </trkpt>
      <trkpt lat="48.40343" lon="7.32726">
        <ele>582</ele>
        <time>2020-06-24T11:00:56.198Z</time>
      </trkpt>
      <trkpt lat="48.40344" lon="7.32728">
        <ele>582</ele>
        <time>2020-06-24T11:00:57.198Z</time>
      </trkpt>
      <trkpt lat="48.40344" lon="7.3273">
        <ele>582</ele>
        <time>2020-06-24T11:00:58.198Z</time>
      </trkpt>
      <trkpt lat="48.40345" lon="7.32732">
        <ele>582</ele>
        <time>2020-06-24T11:00:59.197Z</time>
      </trkpt>
      <trkpt lat="48.40345" lon="7.32733">
        <ele>582</ele>
        <time>2020-06-24T11:01:00.198Z</time>
      </trkpt>
      <trkpt lat="48.40345" lon="7.32735">
        <ele>581</ele>
        <time>2020-06-24T11:01:01.197Z</time>
      </trkpt>
      <trkpt lat="48.40346" lon="7.32737">
        <ele>581</ele>
        <time>2020-06-24T11:01:02.198Z</time>
      </trkpt>
      <trkpt lat="48.40347" lon="7.32739">
        <ele>581</ele>
        <time>2020-06-24T11:01:03.198Z</time>
      </trkpt>
      <trkpt lat="48.40347" lon="7.32741">
        <ele>581</ele>
        <time>2020-06-24T11:01:04.198Z</time>
      </trkpt>
      <trkpt lat="48.40348" lon="7.32742">
        <ele>581</ele>
        <time>2020-06-24T11:01:05.198Z</time>
      </trkpt>
      <trkpt lat="48.40349" lon="7.32744">
        <ele>581</ele>
        <time>2020-06-24T11:01:06.197Z</time>
      </trkpt>
      <trkpt lat="48.4035" lon="7.32746">
        <ele>581</ele>
        <time>2020-06-24T11:01:07.198Z</time>
      </trkpt>
      <trkpt lat="48.40351" lon="7.32748">
        <ele>581</ele>
        <time>2020-06-24T11:01:08.197Z</time>
      </trkpt>
      <trkpt lat="48.40353" lon="7.3275">
        <ele>582</ele>
        <time>2020-06-24T11:01:09.198Z</time>
      </trkpt>
      <trkpt lat="48.40354" lon="7.32752">
        <ele>582</ele>
        <time>2020-06-24T11:01:10.198Z</time>
      </trkpt>
      <trkpt lat="48.40355" lon="7.32753">
        <ele>582</ele>
        <time>2020-06-24T11:01:11.198Z</time>
      </trkpt>
      <trkpt lat="48.40355" lon="7.32755">
        <ele>583</ele>
        <time>2020-06-24T11:01:12.197Z</time>
      </trkpt>
      <trkpt lat="48.40356" lon="7.32757">
        <ele>583</ele>
        <time>2020-06-24T11:01:13.198Z</time>
      </trkpt>
      <trkpt lat="48.40357" lon="7.32758">
        <ele>583</ele>
        <time>2020-06-24T11:01:14.198Z</time>
      </trkpt>
      <trkpt lat="48.40357" lon="7.3276">
        <ele>582</ele>
        <time>2020-06-24T11:01:15.198Z</time>
      </trkpt>
      <trkpt lat="48.40358" lon="7.32761">
        <ele>582</ele>
        <time>2020-06-24T11:01:16.198Z</time>
      </trkpt>
      <trkpt lat="48.40359" lon="7.32763">
        <ele>581</ele>
        <time>2020-06-24T11:01:17.197Z</time>
      </trkpt>
      <trkpt lat="48.40359" lon="7.32764">
        <ele>580</ele>
        <time>2020-06-24T11:01:18.198Z</time>
      </trkpt>
      <trkpt lat="48.4036" lon="7.32766">
        <ele>580</ele>
        <time>2020-06-24T11:01:19.198Z</time>
      </trkpt>
      <trkpt lat="48.4036" lon="7.32767">
        <ele>580</ele>
        <time>2020-06-24T11:01:20.198Z</time>
      </trkpt>
      <trkpt lat="48.40361" lon="7.32769">
        <ele>579</ele>
        <time>2020-06-24T11:01:21.198Z</time>
      </trkpt>
      <trkpt lat="48.40362" lon="7.32771">
        <ele>580</ele>
        <time>2020-06-24T11:01:22.198Z</time>
      </trkpt>
      <trkpt lat="48.40363" lon="7.32773">
        <ele>580</ele>
        <time>2020-06-24T11:01:23.198Z</time>
      </trkpt>
      <trkpt lat="48.40363" lon="7.32775">
        <ele>580</ele>
        <time>2020-06-24T11:01:24.197Z</time>
      </trkpt>
      <trkpt lat="48.40364" lon="7.32777">
        <ele>580</ele>
        <time>2020-06-24T11:01:25.198Z</time>
      </trkpt>
      <trkpt lat="48.40365" lon="7.32778">
        <ele>580</ele>
        <time>2020-06-24T11:01:26.198Z</time>
      </trkpt>
      <trkpt lat="48.40366" lon="7.3278">
        <ele>580</ele>
        <time>2020-06-24T11:01:27.198Z</time>
      </trkpt>
      <trkpt lat="48.40367" lon="7.32781">
        <ele>579</ele>
        <time>2020-06-24T11:01:28.198Z</time>
      </trkpt>
      <trkpt lat="48.40367" lon="7.32783">
        <ele>579</ele>
        <time>2020-06-24T11:01:29.198Z</time>
      </trkpt>
      <trkpt lat="48.40368" lon="7.32785">
        <ele>579</ele>
        <time>2020-06-24T11:01:30.198Z</time>
      </trkpt>
      <trkpt lat="48.40368" lon="7.32786">
        <ele>579</ele>
        <time>2020-06-24T11:01:31.197Z</time>
      </trkpt>
      <trkpt lat="48.40369" lon="7.32788">
        <ele>579</ele>
        <time>2020-06-24T11:01:32.197Z</time>
      </trkpt>
      <trkpt lat="48.4037" lon="7.3279">
        <ele>579</ele>
        <time>2020-06-24T11:01:33.197Z</time>
      </trkpt>
      <trkpt lat="48.4037" lon="7.32791">
        <ele>578</ele>
        <time>2020-06-24T11:01:34.198Z</time>
      </trkpt>
      <trkpt lat="48.40371" lon="7.32793">
        <ele>577</ele>
        <time>2020-06-24T11:01:35.198Z</time>
      </trkpt>
      <trkpt lat="48.40372" lon="7.32794">
        <ele>577</ele>
        <time>2020-06-24T11:01:36.197Z</time>
      </trkpt>
      <trkpt lat="48.40373" lon="7.32796">
        <ele>576</ele>
        <time>2020-06-24T11:01:37.197Z</time>
      </trkpt>
      <trkpt lat="48.40373" lon="7.32797">
        <ele>576</ele>
        <time>2020-06-24T11:01:38.198Z</time>
      </trkpt>
      <trkpt lat="48.40374" lon="7.32799">
        <ele>576</ele>
        <time>2020-06-24T11:01:39.198Z</time>
      </trkpt>
      <trkpt lat="48.40375" lon="7.32801">
        <ele>575</ele>
        <time>2020-06-24T11:01:40.198Z</time>
      </trkpt>
      <trkpt lat="48.40376" lon="7.32802">
        <ele>575</ele>
        <time>2020-06-24T11:01:41.198Z</time>
      </trkpt>
      <trkpt lat="48.40376" lon="7.32804">
        <ele>575</ele>
        <time>2020-06-24T11:01:42.198Z</time>
      </trkpt>
      <trkpt lat="48.40377" lon="7.32805">
        <ele>575</ele>
        <time>2020-06-24T11:01:43.197Z</time>
      </trkpt>
      <trkpt lat="48.40377" lon="7.32807">
        <ele>574</ele>
        <time>2020-06-24T11:01:44.197Z</time>
      </trkpt>
      <trkpt lat="48.40378" lon="7.32808">
        <ele>574</ele>
        <time>2020-06-24T11:01:45.198Z</time>
      </trkpt>
      <trkpt lat="48.40379" lon="7.3281">
        <ele>574</ele>
        <time>2020-06-24T11:01:46.198Z</time>
      </trkpt>
      <trkpt lat="48.4038" lon="7.32812">
        <ele>574</ele>
        <time>2020-06-24T11:01:47.198Z</time>
      </trkpt>
      <trkpt lat="48.40381" lon="7.32813">
        <ele>574</ele>
        <time>2020-06-24T11:01:48.198Z</time>
      </trkpt>
      <trkpt lat="48.40382" lon="7.32815">
        <ele>573</ele>
        <time>2020-06-24T11:01:49.197Z</time>
      </trkpt>
      <trkpt lat="48.40383" lon="7.32817">
        <ele>573</ele>
        <time>2020-06-24T11:01:50.197Z</time>
      </trkpt>
      <trkpt lat="48.40383" lon="7.32819">
        <ele>573</ele>
        <time>2020-06-24T11:01:51.197Z</time>
      </trkpt>
      <trkpt lat="48.40384" lon="7.3282">
        <ele>572</ele>
        <time>2020-06-24T11:01:52.198Z</time>
      </trkpt>
      <trkpt lat="48.40385" lon="7.32822">
        <ele>572</ele>
        <time>2020-06-24T11:01:53.198Z</time>
      </trkpt>
      <trkpt lat="48.40386" lon="7.32823">
        <ele>572</ele>
        <time>2020-06-24T11:01:54.198Z</time>
      </trkpt>
      <trkpt lat="48.40387" lon="7.32825">
        <ele>572</ele>
        <time>2020-06-24T11:01:55.197Z</time>
      </trkpt>
      <trkpt lat="48.40388" lon="7.32826">
        <ele>571</ele>
        <time>2020-06-24T11:01:56.197Z</time>
      </trkpt>
      <trkpt lat="48.40389" lon="7.32828">
        <ele>572</ele>
        <time>2020-06-24T11:01:57.198Z</time>
      </trkpt>
      <trkpt lat="48.40391" lon="7.3283">
        <ele>572</ele>
        <time>2020-06-24T11:01:58.198Z</time>
      </trkpt>
      <trkpt lat="48.40391" lon="7.32833">
        <ele>572</ele>
        <time>2020-06-24T11:01:59.197Z</time>
      </trkpt>
      <trkpt lat="48.40393" lon="7.32834">
        <ele>573</ele>
        <time>2020-06-24T11:02:00.197Z</time>
      </trkpt>
      <trkpt lat="48.40393" lon="7.32836">
        <ele>573</ele>
        <time>2020-06-24T11:02:01.197Z</time>
      </trkpt>
      <trkpt lat="48.40395" lon="7.32838">
        <ele>573</ele>
        <time>2020-06-24T11:02:02.197Z</time>
      </trkpt>
      <trkpt lat="48.40396" lon="7.3284">
        <ele>574</ele>
        <time>2020-06-24T11:02:03.197Z</time>
      </trkpt>
      <trkpt lat="48.40397" lon="7.32842">
        <ele>574</ele>
        <time>2020-06-24T11:02:04.198Z</time>
      </trkpt>
      <trkpt lat="48.40397" lon="7.32844">
        <ele>574</ele>
        <time>2020-06-24T11:02:05.198Z</time>
      </trkpt>
      <trkpt lat="48.40398" lon="7.32845">
        <ele>574</ele>
        <time>2020-06-24T11:02:06.198Z</time>
      </trkpt>
      <trkpt lat="48.40398" lon="7.32847">
        <ele>574</ele>
        <time>2020-06-24T11:02:07.197Z</time>
      </trkpt>
      <trkpt lat="48.40399" lon="7.32848">
        <ele>573</ele>
        <time>2020-06-24T11:02:08.198Z</time>
      </trkpt>
      <trkpt lat="48.40399" lon="7.3285">
        <ele>573</ele>
        <time>2020-06-24T11:02:09.197Z</time>
      </trkpt>
      <trkpt lat="48.404" lon="7.32853">
        <ele>573</ele>
        <time>2020-06-24T11:02:10.198Z</time>
      </trkpt>
      <trkpt lat="48.40401" lon="7.32855">
        <ele>573</ele>
        <time>2020-06-24T11:02:11.198Z</time>
      </trkpt>
      <trkpt lat="48.40402" lon="7.32857">
        <ele>573</ele>
        <time>2020-06-24T11:02:12.198Z</time>
      </trkpt>
      <trkpt lat="48.40402" lon="7.3286">
        <ele>574</ele>
        <time>2020-06-24T11:02:13.197Z</time>
      </trkpt>
      <trkpt lat="48.40403" lon="7.32863">
        <ele>574</ele>
        <time>2020-06-24T11:02:14.197Z</time>
      </trkpt>
      <trkpt lat="48.40403" lon="7.32865">
        <ele>574</ele>
        <time>2020-06-24T11:02:15.198Z</time>
      </trkpt>
      <trkpt lat="48.40404" lon="7.32868">
        <ele>574</ele>
        <time>2020-06-24T11:02:16.198Z</time>
      </trkpt>
      <trkpt lat="48.40405" lon="7.32871">
        <ele>575</ele>
        <time>2020-06-24T11:02:17.198Z</time>
      </trkpt>
      <trkpt lat="48.40405" lon="7.32873">
        <ele>575</ele>
        <time>2020-06-24T11:02:18.198Z</time>
      </trkpt>
      <trkpt lat="48.40406" lon="7.32875">
        <ele>575</ele>
        <time>2020-06-24T11:02:19.197Z</time>
      </trkpt>
      <trkpt lat="48.40406" lon="7.32877">
        <ele>575</ele>
        <time>2020-06-24T11:02:20.197Z</time>
      </trkpt>
      <trkpt lat="48.40406" lon="7.32879">
        <ele>575</ele>
        <time>2020-06-24T11:02:21.197Z</time>
      </trkpt>
      <trkpt lat="48.40406" lon="7.32881">
        <ele>576</ele>
        <time>2020-06-24T11:02:22.198Z</time>
      </trkpt>
      <trkpt lat="48.40407" lon="7.32883">
        <ele>576</ele>
        <time>2020-06-24T11:02:23.198Z</time>
      </trkpt>
      <trkpt lat="48.40407" lon="7.32885">
        <ele>576</ele>
        <time>2020-06-24T11:02:24.198Z</time>
      </trkpt>
      <trkpt lat="48.40407" lon="7.32888">
        <ele>576</ele>
        <time>2020-06-24T11:02:25.198Z</time>
      </trkpt>
      <trkpt lat="48.40407" lon="7.32891">
        <ele>576</ele>
        <time>2020-06-24T11:02:26.197Z</time>
      </trkpt>
      <trkpt lat="48.40407" lon="7.32893">
        <ele>577</ele>
        <time>2020-06-24T11:02:27.197Z</time>
      </trkpt>
      <trkpt lat="48.40407" lon="7.32896">
        <ele>577</ele>
        <time>2020-06-24T11:02:28.197Z</time>
      </trkpt>
      <trkpt lat="48.40407" lon="7.32898">
        <ele>577</ele>
        <time>2020-06-24T11:02:29.197Z</time>
      </trkpt>
      <trkpt lat="48.40407" lon="7.32901">
        <ele>577</ele>
        <time>2020-06-24T11:02:30.197Z</time>
      </trkpt>
      <trkpt lat="48.40407" lon="7.32903">
        <ele>576</ele>
        <time>2020-06-24T11:02:31.198Z</time>
      </trkpt>
      <trkpt lat="48.40406" lon="7.32905">
        <ele>576</ele>
        <time>2020-06-24T11:02:32.197Z</time>
      </trkpt>
      <trkpt lat="48.40406" lon="7.32908">
        <ele>575</ele>
        <time>2020-06-24T11:02:33.197Z</time>
      </trkpt>
      <trkpt lat="48.40405" lon="7.3291">
        <ele>575</ele>
        <time>2020-06-24T11:02:34.197Z</time>
      </trkpt>
      <trkpt lat="48.40405" lon="7.32912">
        <ele>574</ele>
        <time>2020-06-24T11:02:35.197Z</time>
      </trkpt>
      <trkpt lat="48.40404" lon="7.32914">
        <ele>573</ele>
        <time>2020-06-24T11:02:36.198Z</time>
      </trkpt>
      <trkpt lat="48.40404" lon="7.32916">
        <ele>572</ele>
        <time>2020-06-24T11:02:37.197Z</time>
      </trkpt>
      <trkpt lat="48.40403" lon="7.32917">
        <ele>571</ele>
        <time>2020-06-24T11:02:38.197Z</time>
      </trkpt>
      <trkpt lat="48.40401" lon="7.32918">
        <ele>570</ele>
        <time>2020-06-24T11:02:39.198Z</time>
      </trkpt>
      <trkpt lat="48.404" lon="7.32918">
        <ele>569</ele>
        <time>2020-06-24T11:02:40.198Z</time>
      </trkpt>
      <trkpt lat="48.40399" lon="7.32918">
        <ele>569</ele>
        <time>2020-06-24T11:02:41.198Z</time>
      </trkpt>
    </trkseg>
  </trk>
</gpx>